<?xml version="1.0" encoding="UTF-8" standalone="no" ?>
<gpx xmlns="http://www.topografix.com/GPX/1/1" xmlns:xsi="http://www.w3.org/2001/XMLSchema-instance" xsi:schemaLocation="http://www.topografix.com/GPX/1/1 http://www.topografix.com/GPX/1/1/gpx.xsd" version="1.1" creator="VisuGPX - https://www.visugpx.com">
  <metadata>
    <name>2018-06-17 Grenoble Valdrome</name>
    <desc><![CDATA[Superbe boucle au départ de Grenoble jusqu'à la station fantôme de Valdrome, une boucle en piste ouverte a la circulation est faite autour du sommet, c'est juste magnifique ]]></desc>
  </metadata>
  <trk>
    <name><![CDATA[2018-06-17 10:06]]></name>
    <desc><![CDATA[<p>Heure de départ: 06/17/2018 10:06<br/>Heure d'arrivée: 06/17/2018 18:02<br/>Distance: 333,2 km (07:56)<br/>Temps déplacement: 05:39<br/>Vitesse moyenne: 41,99 km/h<br/>Vitesse moyenne mouv.: 58,91 km/h<br/>Vitesse Max.: 131,15 km/h<br/>Altitude minimale: 202 m<br/>Altitude maximale: 1454 m<br/>Vitesse de montée: 1247,2 m/h<br/>Vitesse de descente: -1637,5 m/h<br/>Gain d'altitude: 5481 m<br/>Perte d'altitude: -5484 m<br/>Temps de montée: 04:23<br/>Temps de descente: 03:20<br/></p><hr align="center" width="480" style="height: 2px; width: 517px"/>]]></desc>
    <trkseg>
      <trkpt lat="45.20112" lon="5.71795">
        <ele>232.05</ele>
        <time>2018-06-17T08:06:35Z</time>
      </trkpt>
      <trkpt lat="45.20092" lon="5.71797">
        <ele>235.04</ele>
        <time>2018-06-17T08:07:13Z</time>
      </trkpt>
      <trkpt lat="45.20074" lon="5.71797">
        <ele>233.08</ele>
        <time>2018-06-17T08:07:18Z</time>
      </trkpt>
      <trkpt lat="45.20077" lon="5.71767">
        <ele>233.01</ele>
        <time>2018-06-17T08:07:23Z</time>
      </trkpt>
      <trkpt lat="45.20094" lon="5.71753">
        <ele>230.53</ele>
        <time>2018-06-17T08:07:26Z</time>
      </trkpt>
      <trkpt lat="45.20106" lon="5.71731">
        <ele>227.47</ele>
        <time>2018-06-17T08:07:30Z</time>
      </trkpt>
      <trkpt lat="45.20087" lon="5.71738">
        <ele>224.38</ele>
        <time>2018-06-17T08:07:36Z</time>
      </trkpt>
      <trkpt lat="45.20068" lon="5.71755">
        <ele>224.06</ele>
        <time>2018-06-17T08:07:39Z</time>
      </trkpt>
      <trkpt lat="45.2005" lon="5.71764">
        <ele>223.35</ele>
        <time>2018-06-17T08:07:41Z</time>
      </trkpt>
      <trkpt lat="45.20031" lon="5.71771">
        <ele>222.38</ele>
        <time>2018-06-17T08:07:43Z</time>
      </trkpt>
      <trkpt lat="45.20009" lon="5.71774">
        <ele>222.08</ele>
        <time>2018-06-17T08:07:45Z</time>
      </trkpt>
      <trkpt lat="45.19987" lon="5.71778">
        <ele>221.35</ele>
        <time>2018-06-17T08:07:47Z</time>
      </trkpt>
      <trkpt lat="45.19967" lon="5.71785">
        <ele>220.17</ele>
        <time>2018-06-17T08:07:49Z</time>
      </trkpt>
      <trkpt lat="45.19947" lon="5.71792">
        <ele>218.45</ele>
        <time>2018-06-17T08:07:51Z</time>
      </trkpt>
      <trkpt lat="45.19926" lon="5.71798">
        <ele>217.18</ele>
        <time>2018-06-17T08:07:53Z</time>
      </trkpt>
      <trkpt lat="45.19905" lon="5.71803">
        <ele>217.06</ele>
        <time>2018-06-17T08:07:55Z</time>
      </trkpt>
      <trkpt lat="45.19881" lon="5.71808">
        <ele>218.45</ele>
        <time>2018-06-17T08:07:57Z</time>
      </trkpt>
      <trkpt lat="45.19858" lon="5.71815">
        <ele>218.09</ele>
        <time>2018-06-17T08:07:59Z</time>
      </trkpt>
      <trkpt lat="45.19837" lon="5.71818">
        <ele>216.44</ele>
        <time>2018-06-17T08:08:01Z</time>
      </trkpt>
      <trkpt lat="45.19816" lon="5.71815">
        <ele>214.68</ele>
        <time>2018-06-17T08:08:03Z</time>
      </trkpt>
      <trkpt lat="45.19799" lon="5.71825">
        <ele>213.9</ele>
        <time>2018-06-17T08:08:05Z</time>
      </trkpt>
      <trkpt lat="45.19782" lon="5.71836">
        <ele>214.95</ele>
        <time>2018-06-17T08:08:07Z</time>
      </trkpt>
      <trkpt lat="45.19762" lon="5.71847">
        <ele>215.04</ele>
        <time>2018-06-17T08:08:09Z</time>
      </trkpt>
      <trkpt lat="45.19741" lon="5.71853">
        <ele>214.35</ele>
        <time>2018-06-17T08:08:11Z</time>
      </trkpt>
      <trkpt lat="45.19718" lon="5.71859">
        <ele>215.9</ele>
        <time>2018-06-17T08:08:13Z</time>
      </trkpt>
      <trkpt lat="45.19696" lon="5.71865">
        <ele>215.55</ele>
        <time>2018-06-17T08:08:15Z</time>
      </trkpt>
      <trkpt lat="45.19675" lon="5.71871">
        <ele>215.09</ele>
        <time>2018-06-17T08:08:17Z</time>
      </trkpt>
      <trkpt lat="45.19654" lon="5.71876">
        <ele>216.24</ele>
        <time>2018-06-17T08:08:19Z</time>
      </trkpt>
      <trkpt lat="45.19632" lon="5.71882">
        <ele>216.98</ele>
        <time>2018-06-17T08:08:21Z</time>
      </trkpt>
      <trkpt lat="45.1961" lon="5.71888">
        <ele>217.95</ele>
        <time>2018-06-17T08:08:23Z</time>
      </trkpt>
      <trkpt lat="45.1959" lon="5.71893">
        <ele>217.34</ele>
        <time>2018-06-17T08:08:25Z</time>
      </trkpt>
      <trkpt lat="45.19567" lon="5.719">
        <ele>217.99</ele>
        <time>2018-06-17T08:08:27Z</time>
      </trkpt>
      <trkpt lat="45.19545" lon="5.71904">
        <ele>218.74</ele>
        <time>2018-06-17T08:08:29Z</time>
      </trkpt>
      <trkpt lat="45.19523" lon="5.71906">
        <ele>218.81</ele>
        <time>2018-06-17T08:08:31Z</time>
      </trkpt>
      <trkpt lat="45.19503" lon="5.71908">
        <ele>217.42</ele>
        <time>2018-06-17T08:08:33Z</time>
      </trkpt>
      <trkpt lat="45.19483" lon="5.71911">
        <ele>215.26</ele>
        <time>2018-06-17T08:08:35Z</time>
      </trkpt>
      <trkpt lat="45.19461" lon="5.71912">
        <ele>215.77</ele>
        <time>2018-06-17T08:08:37Z</time>
      </trkpt>
      <trkpt lat="45.19441" lon="5.71911">
        <ele>215.32</ele>
        <time>2018-06-17T08:08:39Z</time>
      </trkpt>
      <trkpt lat="45.19422" lon="5.71897">
        <ele>216.68</ele>
        <time>2018-06-17T08:08:41Z</time>
      </trkpt>
      <trkpt lat="45.19407" lon="5.71873">
        <ele>217.23</ele>
        <time>2018-06-17T08:08:43Z</time>
      </trkpt>
      <trkpt lat="45.19394" lon="5.71852">
        <ele>216.15</ele>
        <time>2018-06-17T08:08:45Z</time>
      </trkpt>
      <trkpt lat="45.19371" lon="5.71847">
        <ele>217.93</ele>
        <time>2018-06-17T08:08:48Z</time>
      </trkpt>
      <trkpt lat="45.19357" lon="5.71881">
        <ele>216.65</ele>
        <time>2018-06-17T08:08:51Z</time>
      </trkpt>
      <trkpt lat="45.19348" lon="5.71911">
        <ele>217.01</ele>
        <time>2018-06-17T08:08:53Z</time>
      </trkpt>
      <trkpt lat="45.1934" lon="5.71942">
        <ele>216.35</ele>
        <time>2018-06-17T08:08:55Z</time>
      </trkpt>
      <trkpt lat="45.19326" lon="5.71969">
        <ele>216.78</ele>
        <time>2018-06-17T08:08:57Z</time>
      </trkpt>
      <trkpt lat="45.19307" lon="5.71987">
        <ele>217.72</ele>
        <time>2018-06-17T08:08:59Z</time>
      </trkpt>
      <trkpt lat="45.19284" lon="5.72002">
        <ele>217.11</ele>
        <time>2018-06-17T08:09:01Z</time>
      </trkpt>
      <trkpt lat="45.19261" lon="5.72017">
        <ele>216.35</ele>
        <time>2018-06-17T08:09:03Z</time>
      </trkpt>
      <trkpt lat="45.19242" lon="5.72029">
        <ele>216.08</ele>
        <time>2018-06-17T08:09:05Z</time>
      </trkpt>
      <trkpt lat="45.19231" lon="5.72005">
        <ele>216.93</ele>
        <time>2018-06-17T08:09:11Z</time>
      </trkpt>
      <trkpt lat="45.19236" lon="5.71968">
        <ele>216.35</ele>
        <time>2018-06-17T08:09:14Z</time>
      </trkpt>
      <trkpt lat="45.19243" lon="5.71939">
        <ele>213.77</ele>
        <time>2018-06-17T08:09:16Z</time>
      </trkpt>
      <trkpt lat="45.1925" lon="5.71906">
        <ele>213.11</ele>
        <time>2018-06-17T08:09:18Z</time>
      </trkpt>
      <trkpt lat="45.19257" lon="5.71872">
        <ele>213.96</ele>
        <time>2018-06-17T08:09:20Z</time>
      </trkpt>
      <trkpt lat="45.19266" lon="5.71838">
        <ele>213.34</ele>
        <time>2018-06-17T08:09:22Z</time>
      </trkpt>
      <trkpt lat="45.19275" lon="5.71805">
        <ele>213.29</ele>
        <time>2018-06-17T08:09:24Z</time>
      </trkpt>
      <trkpt lat="45.19286" lon="5.71772">
        <ele>213.28</ele>
        <time>2018-06-17T08:09:26Z</time>
      </trkpt>
      <trkpt lat="45.19297" lon="5.71742">
        <ele>212.16</ele>
        <time>2018-06-17T08:09:28Z</time>
      </trkpt>
      <trkpt lat="45.1931" lon="5.71716">
        <ele>211.36</ele>
        <time>2018-06-17T08:09:30Z</time>
      </trkpt>
      <trkpt lat="45.19322" lon="5.71689">
        <ele>210.17</ele>
        <time>2018-06-17T08:09:32Z</time>
      </trkpt>
      <trkpt lat="45.19336" lon="5.7166">
        <ele>209.15</ele>
        <time>2018-06-17T08:09:34Z</time>
      </trkpt>
      <trkpt lat="45.19352" lon="5.71631">
        <ele>209.06</ele>
        <time>2018-06-17T08:09:36Z</time>
      </trkpt>
      <trkpt lat="45.1937" lon="5.71602">
        <ele>207.44</ele>
        <time>2018-06-17T08:09:38Z</time>
      </trkpt>
      <trkpt lat="45.19389" lon="5.71574">
        <ele>206.38</ele>
        <time>2018-06-17T08:09:40Z</time>
      </trkpt>
      <trkpt lat="45.19412" lon="5.71547">
        <ele>206.08</ele>
        <time>2018-06-17T08:09:42Z</time>
      </trkpt>
      <trkpt lat="45.19434" lon="5.71521">
        <ele>205.14</ele>
        <time>2018-06-17T08:09:44Z</time>
      </trkpt>
      <trkpt lat="45.1946" lon="5.71501">
        <ele>205.06</ele>
        <time>2018-06-17T08:09:46Z</time>
      </trkpt>
      <trkpt lat="45.19485" lon="5.71483">
        <ele>205.05</ele>
        <time>2018-06-17T08:09:48Z</time>
      </trkpt>
      <trkpt lat="45.19511" lon="5.71467">
        <ele>205.26</ele>
        <time>2018-06-17T08:09:50Z</time>
      </trkpt>
      <trkpt lat="45.19539" lon="5.71457">
        <ele>205.07</ele>
        <time>2018-06-17T08:09:52Z</time>
      </trkpt>
      <trkpt lat="45.19566" lon="5.71447">
        <ele>204.35</ele>
        <time>2018-06-17T08:09:54Z</time>
      </trkpt>
      <trkpt lat="45.19594" lon="5.71441">
        <ele>204.08</ele>
        <time>2018-06-17T08:09:56Z</time>
      </trkpt>
      <trkpt lat="45.19624" lon="5.7144">
        <ele>205.66</ele>
        <time>2018-06-17T08:09:58Z</time>
      </trkpt>
      <trkpt lat="45.19652" lon="5.71439">
        <ele>206.71</ele>
        <time>2018-06-17T08:10:00Z</time>
      </trkpt>
      <trkpt lat="45.19682" lon="5.71441">
        <ele>207.02</ele>
        <time>2018-06-17T08:10:02Z</time>
      </trkpt>
      <trkpt lat="45.19713" lon="5.71444">
        <ele>206.35</ele>
        <time>2018-06-17T08:10:04Z</time>
      </trkpt>
      <trkpt lat="45.1974" lon="5.71447">
        <ele>205.17</ele>
        <time>2018-06-17T08:10:06Z</time>
      </trkpt>
      <trkpt lat="45.19764" lon="5.71445">
        <ele>202.96</ele>
        <time>2018-06-17T08:10:08Z</time>
      </trkpt>
      <trkpt lat="45.19792" lon="5.71442">
        <ele>202.13</ele>
        <time>2018-06-17T08:10:10Z</time>
      </trkpt>
      <trkpt lat="45.19819" lon="5.71441">
        <ele>202.06</ele>
        <time>2018-06-17T08:10:12Z</time>
      </trkpt>
      <trkpt lat="45.1985" lon="5.71436">
        <ele>202.96</ele>
        <time>2018-06-17T08:10:14Z</time>
      </trkpt>
      <trkpt lat="45.19883" lon="5.7143">
        <ele>204.65</ele>
        <time>2018-06-17T08:10:16Z</time>
      </trkpt>
      <trkpt lat="45.19915" lon="5.71424">
        <ele>206.62</ele>
        <time>2018-06-17T08:10:18Z</time>
      </trkpt>
      <trkpt lat="45.19943" lon="5.71419">
        <ele>206.52</ele>
        <time>2018-06-17T08:10:20Z</time>
      </trkpt>
      <trkpt lat="45.19966" lon="5.71407">
        <ele>206.09</ele>
        <time>2018-06-17T08:10:22Z</time>
      </trkpt>
      <trkpt lat="45.19961" lon="5.71373">
        <ele>207.93</ele>
        <time>2018-06-17T08:10:26Z</time>
      </trkpt>
      <trkpt lat="45.19951" lon="5.71342">
        <ele>208.74</ele>
        <time>2018-06-17T08:10:28Z</time>
      </trkpt>
      <trkpt lat="45.19942" lon="5.71318">
        <ele>208.96</ele>
        <time>2018-06-17T08:10:29Z</time>
      </trkpt>
      <trkpt lat="45.19932" lon="5.71277">
        <ele>209.74</ele>
        <time>2018-06-17T08:10:31Z</time>
      </trkpt>
      <trkpt lat="45.19921" lon="5.71236">
        <ele>209.11</ele>
        <time>2018-06-17T08:10:33Z</time>
      </trkpt>
      <trkpt lat="45.1991" lon="5.71192">
        <ele>209.75</ele>
        <time>2018-06-17T08:10:35Z</time>
      </trkpt>
      <trkpt lat="45.19901" lon="5.71147">
        <ele>210.23</ele>
        <time>2018-06-17T08:10:37Z</time>
      </trkpt>
      <trkpt lat="45.19891" lon="5.71104">
        <ele>212.38</ele>
        <time>2018-06-17T08:10:39Z</time>
      </trkpt>
      <trkpt lat="45.19883" lon="5.71069">
        <ele>212.99</ele>
        <time>2018-06-17T08:10:41Z</time>
      </trkpt>
      <trkpt lat="45.19877" lon="5.71039">
        <ele>213.74</ele>
        <time>2018-06-17T08:10:43Z</time>
      </trkpt>
      <trkpt lat="45.19871" lon="5.71012">
        <ele>214.02</ele>
        <time>2018-06-17T08:10:45Z</time>
      </trkpt>
      <trkpt lat="45.19866" lon="5.70985">
        <ele>214.05</ele>
        <time>2018-06-17T08:10:48Z</time>
      </trkpt>
      <trkpt lat="45.19861" lon="5.70955">
        <ele>216.74</ele>
        <time>2018-06-17T08:11:26Z</time>
      </trkpt>
      <trkpt lat="45.19848" lon="5.70932">
        <ele>216.07</ele>
        <time>2018-06-17T08:11:29Z</time>
      </trkpt>
      <trkpt lat="45.19821" lon="5.70938">
        <ele>216.96</ele>
        <time>2018-06-17T08:11:32Z</time>
      </trkpt>
      <trkpt lat="45.198" lon="5.70954">
        <ele>217.74</ele>
        <time>2018-06-17T08:11:34Z</time>
      </trkpt>
      <trkpt lat="45.19779" lon="5.70975">
        <ele>218.02</ele>
        <time>2018-06-17T08:11:36Z</time>
      </trkpt>
      <trkpt lat="45.19754" lon="5.70987">
        <ele>218.05</ele>
        <time>2018-06-17T08:11:38Z</time>
      </trkpt>
      <trkpt lat="45.1973" lon="5.70997">
        <ele>217.35</ele>
        <time>2018-06-17T08:11:40Z</time>
      </trkpt>
      <trkpt lat="45.19709" lon="5.71007">
        <ele>217.99</ele>
        <time>2018-06-17T08:11:42Z</time>
      </trkpt>
      <trkpt lat="45.19685" lon="5.71019">
        <ele>217.07</ele>
        <time>2018-06-17T08:11:45Z</time>
      </trkpt>
      <trkpt lat="45.19665" lon="5.71029">
        <ele>217.05</ele>
        <time>2018-06-17T08:11:49Z</time>
      </trkpt>
      <trkpt lat="45.19645" lon="5.71036">
        <ele>219.65</ele>
        <time>2018-06-17T08:11:58Z</time>
      </trkpt>
      <trkpt lat="45.19621" lon="5.71048">
        <ele>220.04</ele>
        <time>2018-06-17T08:12:01Z</time>
      </trkpt>
      <trkpt lat="45.19604" lon="5.71056">
        <ele>220.05</ele>
        <time>2018-06-17T08:12:03Z</time>
      </trkpt>
      <trkpt lat="45.19584" lon="5.71065">
        <ele>219.35</ele>
        <time>2018-06-17T08:12:05Z</time>
      </trkpt>
      <trkpt lat="45.19564" lon="5.71075">
        <ele>219.08</ele>
        <time>2018-06-17T08:12:07Z</time>
      </trkpt>
      <trkpt lat="45.19545" lon="5.71078">
        <ele>219.05</ele>
        <time>2018-06-17T08:12:09Z</time>
      </trkpt>
      <trkpt lat="45.19524" lon="5.71074">
        <ele>219.05</ele>
        <time>2018-06-17T08:12:11Z</time>
      </trkpt>
      <trkpt lat="45.19502" lon="5.71069">
        <ele>218.14</ele>
        <time>2018-06-17T08:12:13Z</time>
      </trkpt>
      <trkpt lat="45.19479" lon="5.71063">
        <ele>218.06</ele>
        <time>2018-06-17T08:12:15Z</time>
      </trkpt>
      <trkpt lat="45.19459" lon="5.71053">
        <ele>218.05</ele>
        <time>2018-06-17T08:12:17Z</time>
      </trkpt>
      <trkpt lat="45.19442" lon="5.71038">
        <ele>217.14</ele>
        <time>2018-06-17T08:12:19Z</time>
      </trkpt>
      <trkpt lat="45.19427" lon="5.7102">
        <ele>217.27</ele>
        <time>2018-06-17T08:12:21Z</time>
      </trkpt>
      <trkpt lat="45.19411" lon="5.71002">
        <ele>217.07</ele>
        <time>2018-06-17T08:12:23Z</time>
      </trkpt>
      <trkpt lat="45.19395" lon="5.7098">
        <ele>217.26</ele>
        <time>2018-06-17T08:12:25Z</time>
      </trkpt>
      <trkpt lat="45.19377" lon="5.70955">
        <ele>217.07</ele>
        <time>2018-06-17T08:12:27Z</time>
      </trkpt>
      <trkpt lat="45.19357" lon="5.70929">
        <ele>216.14</ele>
        <time>2018-06-17T08:12:29Z</time>
      </trkpt>
      <trkpt lat="45.19338" lon="5.70904">
        <ele>216.06</ele>
        <time>2018-06-17T08:12:31Z</time>
      </trkpt>
      <trkpt lat="45.1932" lon="5.7088">
        <ele>216.05</ele>
        <time>2018-06-17T08:12:33Z</time>
      </trkpt>
      <trkpt lat="45.19301" lon="5.70854">
        <ele>216.75</ele>
        <time>2018-06-17T08:12:35Z</time>
      </trkpt>
      <trkpt lat="45.19281" lon="5.70827">
        <ele>217.02</ele>
        <time>2018-06-17T08:12:37Z</time>
      </trkpt>
      <trkpt lat="45.1926" lon="5.70799">
        <ele>217.75</ele>
        <time>2018-06-17T08:12:39Z</time>
      </trkpt>
      <trkpt lat="45.19239" lon="5.70771">
        <ele>218.02</ele>
        <time>2018-06-17T08:12:41Z</time>
      </trkpt>
      <trkpt lat="45.19221" lon="5.70743">
        <ele>217.84</ele>
        <time>2018-06-17T08:12:43Z</time>
      </trkpt>
      <trkpt lat="45.19206" lon="5.70717">
        <ele>218.03</ele>
        <time>2018-06-17T08:12:45Z</time>
      </trkpt>
      <trkpt lat="45.19195" lon="5.70695">
        <ele>218.05</ele>
        <time>2018-06-17T08:12:47Z</time>
      </trkpt>
      <trkpt lat="45.19181" lon="5.70672">
        <ele>218.05</ele>
        <time>2018-06-17T08:12:50Z</time>
      </trkpt>
      <trkpt lat="45.19168" lon="5.70653">
        <ele>218.05</ele>
        <time>2018-06-17T08:12:53Z</time>
      </trkpt>
      <trkpt lat="45.19156" lon="5.70632">
        <ele>217.14</ele>
        <time>2018-06-17T08:12:55Z</time>
      </trkpt>
      <trkpt lat="45.19148" lon="5.70609">
        <ele>217.06</ele>
        <time>2018-06-17T08:12:57Z</time>
      </trkpt>
      <trkpt lat="45.19161" lon="5.7058">
        <ele>217.75</ele>
        <time>2018-06-17T08:13:00Z</time>
      </trkpt>
      <trkpt lat="45.19173" lon="5.70554">
        <ele>218.02</ele>
        <time>2018-06-17T08:13:02Z</time>
      </trkpt>
      <trkpt lat="45.19188" lon="5.70522">
        <ele>217.35</ele>
        <time>2018-06-17T08:13:04Z</time>
      </trkpt>
      <trkpt lat="45.19203" lon="5.70491">
        <ele>217.78</ele>
        <time>2018-06-17T08:13:06Z</time>
      </trkpt>
      <trkpt lat="45.19218" lon="5.70457">
        <ele>218.23</ele>
        <time>2018-06-17T08:13:08Z</time>
      </trkpt>
      <trkpt lat="45.19231" lon="5.70424">
        <ele>218.77</ele>
        <time>2018-06-17T08:13:10Z</time>
      </trkpt>
      <trkpt lat="45.19238" lon="5.7039">
        <ele>219.02</ele>
        <time>2018-06-17T08:13:12Z</time>
      </trkpt>
      <trkpt lat="45.19242" lon="5.70362">
        <ele>219.05</ele>
        <time>2018-06-17T08:13:14Z</time>
      </trkpt>
      <trkpt lat="45.19243" lon="5.70335">
        <ele>220.66</ele>
        <time>2018-06-17T08:13:16Z</time>
      </trkpt>
      <trkpt lat="45.19242" lon="5.70307">
        <ele>221.92</ele>
        <time>2018-06-17T08:13:18Z</time>
      </trkpt>
      <trkpt lat="45.19241" lon="5.70276">
        <ele>222.05</ele>
        <time>2018-06-17T08:13:21Z</time>
      </trkpt>
      <trkpt lat="45.19223" lon="5.7026">
        <ele>222.05</ele>
        <time>2018-06-17T08:13:24Z</time>
      </trkpt>
      <trkpt lat="45.192" lon="5.70257">
        <ele>222.05</ele>
        <time>2018-06-17T08:13:26Z</time>
      </trkpt>
      <trkpt lat="45.19172" lon="5.70257">
        <ele>220.44</ele>
        <time>2018-06-17T08:13:28Z</time>
      </trkpt>
      <trkpt lat="45.19139" lon="5.70258">
        <ele>218.47</ele>
        <time>2018-06-17T08:13:30Z</time>
      </trkpt>
      <trkpt lat="45.19104" lon="5.7026">
        <ele>217.39</ele>
        <time>2018-06-17T08:13:32Z</time>
      </trkpt>
      <trkpt lat="45.19084" lon="5.70261">
        <ele>217.15</ele>
        <time>2018-06-17T08:13:33Z</time>
      </trkpt>
      <trkpt lat="45.19065" lon="5.70262">
        <ele>217.08</ele>
        <time>2018-06-17T08:13:34Z</time>
      </trkpt>
      <trkpt lat="45.19045" lon="5.70263">
        <ele>217.06</ele>
        <time>2018-06-17T08:13:35Z</time>
      </trkpt>
      <trkpt lat="45.19024" lon="5.70264">
        <ele>217.05</ele>
        <time>2018-06-17T08:13:36Z</time>
      </trkpt>
      <trkpt lat="45.19004" lon="5.70264">
        <ele>217.05</ele>
        <time>2018-06-17T08:13:37Z</time>
      </trkpt>
      <trkpt lat="45.18983" lon="5.70263">
        <ele>217.75</ele>
        <time>2018-06-17T08:13:38Z</time>
      </trkpt>
      <trkpt lat="45.18961" lon="5.70263">
        <ele>217.96</ele>
        <time>2018-06-17T08:13:39Z</time>
      </trkpt>
      <trkpt lat="45.18939" lon="5.70263">
        <ele>218.02</ele>
        <time>2018-06-17T08:13:40Z</time>
      </trkpt>
      <trkpt lat="45.18917" lon="5.7026">
        <ele>218.04</ele>
        <time>2018-06-17T08:13:41Z</time>
      </trkpt>
      <trkpt lat="45.18895" lon="5.7026">
        <ele>218.05</ele>
        <time>2018-06-17T08:13:42Z</time>
      </trkpt>
      <trkpt lat="45.18873" lon="5.7026">
        <ele>218.05</ele>
        <time>2018-06-17T08:13:43Z</time>
      </trkpt>
      <trkpt lat="45.1885" lon="5.70258">
        <ele>218.75</ele>
        <time>2018-06-17T08:13:44Z</time>
      </trkpt>
      <trkpt lat="45.18827" lon="5.70258">
        <ele>218.96</ele>
        <time>2018-06-17T08:13:45Z</time>
      </trkpt>
      <trkpt lat="45.18804" lon="5.70256">
        <ele>219.72</ele>
        <time>2018-06-17T08:13:46Z</time>
      </trkpt>
      <trkpt lat="45.1878" lon="5.70256">
        <ele>220.65</ele>
        <time>2018-06-17T08:13:47Z</time>
      </trkpt>
      <trkpt lat="45.18757" lon="5.70255">
        <ele>220.93</ele>
        <time>2018-06-17T08:13:48Z</time>
      </trkpt>
      <trkpt lat="45.18734" lon="5.70255">
        <ele>222.41</ele>
        <time>2018-06-17T08:13:49Z</time>
      </trkpt>
      <trkpt lat="45.1871" lon="5.70254">
        <ele>223.56</ele>
        <time>2018-06-17T08:13:50Z</time>
      </trkpt>
      <trkpt lat="45.18687" lon="5.70253">
        <ele>223.9</ele>
        <time>2018-06-17T08:13:51Z</time>
      </trkpt>
      <trkpt lat="45.18664" lon="5.70252">
        <ele>224</ele>
        <time>2018-06-17T08:13:52Z</time>
      </trkpt>
      <trkpt lat="45.18641" lon="5.70251">
        <ele>223.34</ele>
        <time>2018-06-17T08:13:53Z</time>
      </trkpt>
      <trkpt lat="45.18617" lon="5.7025">
        <ele>223.84</ele>
        <time>2018-06-17T08:13:54Z</time>
      </trkpt>
      <trkpt lat="45.18593" lon="5.7025">
        <ele>223.98</ele>
        <time>2018-06-17T08:13:55Z</time>
      </trkpt>
      <trkpt lat="45.1857" lon="5.70249">
        <ele>223.33</ele>
        <time>2018-06-17T08:13:56Z</time>
      </trkpt>
      <trkpt lat="45.18546" lon="5.70247">
        <ele>223.83</ele>
        <time>2018-06-17T08:13:57Z</time>
      </trkpt>
      <trkpt lat="45.18522" lon="5.70247">
        <ele>223.98</ele>
        <time>2018-06-17T08:13:58Z</time>
      </trkpt>
      <trkpt lat="45.18499" lon="5.70246">
        <ele>224.03</ele>
        <time>2018-06-17T08:13:59Z</time>
      </trkpt>
      <trkpt lat="45.18475" lon="5.70246">
        <ele>224.04</ele>
        <time>2018-06-17T08:14:00Z</time>
      </trkpt>
      <trkpt lat="45.18451" lon="5.70246">
        <ele>224.75</ele>
        <time>2018-06-17T08:14:01Z</time>
      </trkpt>
      <trkpt lat="45.18427" lon="5.70245">
        <ele>224.96</ele>
        <time>2018-06-17T08:14:02Z</time>
      </trkpt>
      <trkpt lat="45.18404" lon="5.70245">
        <ele>225.02</ele>
        <time>2018-06-17T08:14:03Z</time>
      </trkpt>
      <trkpt lat="45.1838" lon="5.70245">
        <ele>225.74</ele>
        <time>2018-06-17T08:14:04Z</time>
      </trkpt>
      <trkpt lat="45.18356" lon="5.70244">
        <ele>225.96</ele>
        <time>2018-06-17T08:14:05Z</time>
      </trkpt>
      <trkpt lat="45.18332" lon="5.70243">
        <ele>226.02</ele>
        <time>2018-06-17T08:14:06Z</time>
      </trkpt>
      <trkpt lat="45.18308" lon="5.70242">
        <ele>226.74</ele>
        <time>2018-06-17T08:14:07Z</time>
      </trkpt>
      <trkpt lat="45.18284" lon="5.70241">
        <ele>226.96</ele>
        <time>2018-06-17T08:14:08Z</time>
      </trkpt>
      <trkpt lat="45.18261" lon="5.70239">
        <ele>226.32</ele>
        <time>2018-06-17T08:14:09Z</time>
      </trkpt>
      <trkpt lat="45.18237" lon="5.70239">
        <ele>226.13</ele>
        <time>2018-06-17T08:14:10Z</time>
      </trkpt>
      <trkpt lat="45.18213" lon="5.70238">
        <ele>226.07</ele>
        <time>2018-06-17T08:14:11Z</time>
      </trkpt>
      <trkpt lat="45.1819" lon="5.70237">
        <ele>226.06</ele>
        <time>2018-06-17T08:14:12Z</time>
      </trkpt>
      <trkpt lat="45.18166" lon="5.70236">
        <ele>226.05</ele>
        <time>2018-06-17T08:14:13Z</time>
      </trkpt>
      <trkpt lat="45.18143" lon="5.70236">
        <ele>225.35</ele>
        <time>2018-06-17T08:14:14Z</time>
      </trkpt>
      <trkpt lat="45.18119" lon="5.70237">
        <ele>225.14</ele>
        <time>2018-06-17T08:14:15Z</time>
      </trkpt>
      <trkpt lat="45.18095" lon="5.70236">
        <ele>224.38</ele>
        <time>2018-06-17T08:14:16Z</time>
      </trkpt>
      <trkpt lat="45.18071" lon="5.70236">
        <ele>224.15</ele>
        <time>2018-06-17T08:14:17Z</time>
      </trkpt>
      <trkpt lat="45.18047" lon="5.70235">
        <ele>224.08</ele>
        <time>2018-06-17T08:14:18Z</time>
      </trkpt>
      <trkpt lat="45.18023" lon="5.70236">
        <ele>224.76</ele>
        <time>2018-06-17T08:14:19Z</time>
      </trkpt>
      <trkpt lat="45.17999" lon="5.70235">
        <ele>224.96</ele>
        <time>2018-06-17T08:14:20Z</time>
      </trkpt>
      <trkpt lat="45.17976" lon="5.70233">
        <ele>224.32</ele>
        <time>2018-06-17T08:14:21Z</time>
      </trkpt>
      <trkpt lat="45.17952" lon="5.70231">
        <ele>224.13</ele>
        <time>2018-06-17T08:14:22Z</time>
      </trkpt>
      <trkpt lat="45.17928" lon="5.7023">
        <ele>224.07</ele>
        <time>2018-06-17T08:14:23Z</time>
      </trkpt>
      <trkpt lat="45.17905" lon="5.70229">
        <ele>224.06</ele>
        <time>2018-06-17T08:14:24Z</time>
      </trkpt>
      <trkpt lat="45.17881" lon="5.70227">
        <ele>224.05</ele>
        <time>2018-06-17T08:14:25Z</time>
      </trkpt>
      <trkpt lat="45.17858" lon="5.70227">
        <ele>224.05</ele>
        <time>2018-06-17T08:14:26Z</time>
      </trkpt>
      <trkpt lat="45.17835" lon="5.70226">
        <ele>224.05</ele>
        <time>2018-06-17T08:14:27Z</time>
      </trkpt>
      <trkpt lat="45.17811" lon="5.70225">
        <ele>224.75</ele>
        <time>2018-06-17T08:14:28Z</time>
      </trkpt>
      <trkpt lat="45.17788" lon="5.70223">
        <ele>225.66</ele>
        <time>2018-06-17T08:14:29Z</time>
      </trkpt>
      <trkpt lat="45.17765" lon="5.70221">
        <ele>225.93</ele>
        <time>2018-06-17T08:14:30Z</time>
      </trkpt>
      <trkpt lat="45.17742" lon="5.7022">
        <ele>226.71</ele>
        <time>2018-06-17T08:14:31Z</time>
      </trkpt>
      <trkpt lat="45.17719" lon="5.70219">
        <ele>226.95</ele>
        <time>2018-06-17T08:14:32Z</time>
      </trkpt>
      <trkpt lat="45.17697" lon="5.70217">
        <ele>227.72</ele>
        <time>2018-06-17T08:14:33Z</time>
      </trkpt>
      <trkpt lat="45.17674" lon="5.70216">
        <ele>227.25</ele>
        <time>2018-06-17T08:14:34Z</time>
      </trkpt>
      <trkpt lat="45.17651" lon="5.70215">
        <ele>227.11</ele>
        <time>2018-06-17T08:14:35Z</time>
      </trkpt>
      <trkpt lat="45.17629" lon="5.70213">
        <ele>227.07</ele>
        <time>2018-06-17T08:14:36Z</time>
      </trkpt>
      <trkpt lat="45.17606" lon="5.70213">
        <ele>227.05</ele>
        <time>2018-06-17T08:14:37Z</time>
      </trkpt>
      <trkpt lat="45.17583" lon="5.70212">
        <ele>227.75</ele>
        <time>2018-06-17T08:14:38Z</time>
      </trkpt>
      <trkpt lat="45.17561" lon="5.70211">
        <ele>227.96</ele>
        <time>2018-06-17T08:14:39Z</time>
      </trkpt>
      <trkpt lat="45.17538" lon="5.7021">
        <ele>228.02</ele>
        <time>2018-06-17T08:14:40Z</time>
      </trkpt>
      <trkpt lat="45.17516" lon="5.70209">
        <ele>228.04</ele>
        <time>2018-06-17T08:14:41Z</time>
      </trkpt>
      <trkpt lat="45.17494" lon="5.70208">
        <ele>227.35</ele>
        <time>2018-06-17T08:14:42Z</time>
      </trkpt>
      <trkpt lat="45.17472" lon="5.70207">
        <ele>227.14</ele>
        <time>2018-06-17T08:14:43Z</time>
      </trkpt>
      <trkpt lat="45.17451" lon="5.70205">
        <ele>226.38</ele>
        <time>2018-06-17T08:14:44Z</time>
      </trkpt>
      <trkpt lat="45.17429" lon="5.70205">
        <ele>226.85</ele>
        <time>2018-06-17T08:14:45Z</time>
      </trkpt>
      <trkpt lat="45.17408" lon="5.70203">
        <ele>226.99</ele>
        <time>2018-06-17T08:14:46Z</time>
      </trkpt>
      <trkpt lat="45.17386" lon="5.70203">
        <ele>227.03</ele>
        <time>2018-06-17T08:14:47Z</time>
      </trkpt>
      <trkpt lat="45.17364" lon="5.70201">
        <ele>226.34</ele>
        <time>2018-06-17T08:14:48Z</time>
      </trkpt>
      <trkpt lat="45.17343" lon="5.702">
        <ele>226.84</ele>
        <time>2018-06-17T08:14:49Z</time>
      </trkpt>
      <trkpt lat="45.17321" lon="5.702">
        <ele>226.29</ele>
        <time>2018-06-17T08:14:50Z</time>
      </trkpt>
      <trkpt lat="45.17299" lon="5.702">
        <ele>226.82</ele>
        <time>2018-06-17T08:14:51Z</time>
      </trkpt>
      <trkpt lat="45.17277" lon="5.70199">
        <ele>226.28</ele>
        <time>2018-06-17T08:14:52Z</time>
      </trkpt>
      <trkpt lat="45.17255" lon="5.70198">
        <ele>226.12</ele>
        <time>2018-06-17T08:14:53Z</time>
      </trkpt>
      <trkpt lat="45.17233" lon="5.70197">
        <ele>226.07</ele>
        <time>2018-06-17T08:14:54Z</time>
      </trkpt>
      <trkpt lat="45.17211" lon="5.70195">
        <ele>226.76</ele>
        <time>2018-06-17T08:14:55Z</time>
      </trkpt>
      <trkpt lat="45.17189" lon="5.70195">
        <ele>225.56</ele>
        <time>2018-06-17T08:14:56Z</time>
      </trkpt>
      <trkpt lat="45.17167" lon="5.70194">
        <ele>225.2</ele>
        <time>2018-06-17T08:14:57Z</time>
      </trkpt>
      <trkpt lat="45.17145" lon="5.70193">
        <ele>225.8</ele>
        <time>2018-06-17T08:14:58Z</time>
      </trkpt>
      <trkpt lat="45.17122" lon="5.70192">
        <ele>225.97</ele>
        <time>2018-06-17T08:14:59Z</time>
      </trkpt>
      <trkpt lat="45.171" lon="5.70191">
        <ele>226.03</ele>
        <time>2018-06-17T08:15:00Z</time>
      </trkpt>
      <trkpt lat="45.17079" lon="5.7019">
        <ele>226.04</ele>
        <time>2018-06-17T08:15:01Z</time>
      </trkpt>
      <trkpt lat="45.17057" lon="5.70189">
        <ele>226.05</ele>
        <time>2018-06-17T08:15:02Z</time>
      </trkpt>
      <trkpt lat="45.17036" lon="5.70188">
        <ele>225.35</ele>
        <time>2018-06-17T08:15:03Z</time>
      </trkpt>
      <trkpt lat="45.17014" lon="5.70187">
        <ele>225.84</ele>
        <time>2018-06-17T08:15:04Z</time>
      </trkpt>
      <trkpt lat="45.16993" lon="5.70186">
        <ele>225.99</ele>
        <time>2018-06-17T08:15:05Z</time>
      </trkpt>
      <trkpt lat="45.16972" lon="5.70187">
        <ele>226.73</ele>
        <time>2018-06-17T08:15:06Z</time>
      </trkpt>
      <trkpt lat="45.1695" lon="5.70187">
        <ele>226.95</ele>
        <time>2018-06-17T08:15:07Z</time>
      </trkpt>
      <trkpt lat="45.16929" lon="5.70186">
        <ele>227.02</ele>
        <time>2018-06-17T08:15:08Z</time>
      </trkpt>
      <trkpt lat="45.16908" lon="5.70185">
        <ele>227.74</ele>
        <time>2018-06-17T08:15:09Z</time>
      </trkpt>
      <trkpt lat="45.16886" lon="5.70184">
        <ele>227.96</ele>
        <time>2018-06-17T08:15:10Z</time>
      </trkpt>
      <trkpt lat="45.16864" lon="5.70183">
        <ele>228.02</ele>
        <time>2018-06-17T08:15:11Z</time>
      </trkpt>
      <trkpt lat="45.16843" lon="5.70182">
        <ele>228.74</ele>
        <time>2018-06-17T08:15:12Z</time>
      </trkpt>
      <trkpt lat="45.16821" lon="5.70181">
        <ele>228.96</ele>
        <time>2018-06-17T08:15:13Z</time>
      </trkpt>
      <trkpt lat="45.16799" lon="5.70179">
        <ele>229.02</ele>
        <time>2018-06-17T08:15:14Z</time>
      </trkpt>
      <trkpt lat="45.16778" lon="5.70178">
        <ele>228.34</ele>
        <time>2018-06-17T08:15:15Z</time>
      </trkpt>
      <trkpt lat="45.16757" lon="5.70176">
        <ele>228.84</ele>
        <time>2018-06-17T08:15:16Z</time>
      </trkpt>
      <trkpt lat="45.16735" lon="5.70176">
        <ele>228.99</ele>
        <time>2018-06-17T08:15:17Z</time>
      </trkpt>
      <trkpt lat="45.16714" lon="5.70176">
        <ele>228.33</ele>
        <time>2018-06-17T08:15:18Z</time>
      </trkpt>
      <trkpt lat="45.16693" lon="5.70175">
        <ele>228.83</ele>
        <time>2018-06-17T08:15:19Z</time>
      </trkpt>
      <trkpt lat="45.16672" lon="5.70175">
        <ele>228.28</ele>
        <time>2018-06-17T08:15:20Z</time>
      </trkpt>
      <trkpt lat="45.1665" lon="5.70174">
        <ele>228.82</ele>
        <time>2018-06-17T08:15:21Z</time>
      </trkpt>
      <trkpt lat="45.16629" lon="5.70173">
        <ele>229.68</ele>
        <time>2018-06-17T08:15:22Z</time>
      </trkpt>
      <trkpt lat="45.16607" lon="5.70173">
        <ele>229.94</ele>
        <time>2018-06-17T08:15:23Z</time>
      </trkpt>
      <trkpt lat="45.16585" lon="5.70171">
        <ele>230.02</ele>
        <time>2018-06-17T08:15:24Z</time>
      </trkpt>
      <trkpt lat="45.16563" lon="5.7017">
        <ele>229.34</ele>
        <time>2018-06-17T08:15:25Z</time>
      </trkpt>
      <trkpt lat="45.16541" lon="5.70169">
        <ele>229.14</ele>
        <time>2018-06-17T08:15:26Z</time>
      </trkpt>
      <trkpt lat="45.16519" lon="5.70167">
        <ele>229.78</ele>
        <time>2018-06-17T08:15:27Z</time>
      </trkpt>
      <trkpt lat="45.16497" lon="5.70166">
        <ele>229.97</ele>
        <time>2018-06-17T08:15:28Z</time>
      </trkpt>
      <trkpt lat="45.16475" lon="5.70165">
        <ele>230.02</ele>
        <time>2018-06-17T08:15:29Z</time>
      </trkpt>
      <trkpt lat="45.16452" lon="5.70164">
        <ele>230.04</ele>
        <time>2018-06-17T08:15:30Z</time>
      </trkpt>
      <trkpt lat="45.1643" lon="5.70162">
        <ele>230.05</ele>
        <time>2018-06-17T08:15:31Z</time>
      </trkpt>
      <trkpt lat="45.16407" lon="5.70162">
        <ele>230.05</ele>
        <time>2018-06-17T08:15:32Z</time>
      </trkpt>
      <trkpt lat="45.16385" lon="5.70161">
        <ele>230.05</ele>
        <time>2018-06-17T08:15:33Z</time>
      </trkpt>
      <trkpt lat="45.16362" lon="5.70159">
        <ele>230.05</ele>
        <time>2018-06-17T08:15:34Z</time>
      </trkpt>
      <trkpt lat="45.1634" lon="5.70158">
        <ele>230.05</ele>
        <time>2018-06-17T08:15:35Z</time>
      </trkpt>
      <trkpt lat="45.16317" lon="5.70157">
        <ele>230.05</ele>
        <time>2018-06-17T08:15:36Z</time>
      </trkpt>
      <trkpt lat="45.16293" lon="5.70156">
        <ele>230.05</ele>
        <time>2018-06-17T08:15:37Z</time>
      </trkpt>
      <trkpt lat="45.16271" lon="5.70155">
        <ele>229.35</ele>
        <time>2018-06-17T08:15:38Z</time>
      </trkpt>
      <trkpt lat="45.16247" lon="5.70154">
        <ele>229.14</ele>
        <time>2018-06-17T08:15:39Z</time>
      </trkpt>
      <trkpt lat="45.16224" lon="5.70153">
        <ele>229.08</ele>
        <time>2018-06-17T08:15:40Z</time>
      </trkpt>
      <trkpt lat="45.16201" lon="5.70152">
        <ele>229.06</ele>
        <time>2018-06-17T08:15:41Z</time>
      </trkpt>
      <trkpt lat="45.16177" lon="5.70151">
        <ele>229.05</ele>
        <time>2018-06-17T08:15:42Z</time>
      </trkpt>
      <trkpt lat="45.16153" lon="5.7015">
        <ele>229.05</ele>
        <time>2018-06-17T08:15:43Z</time>
      </trkpt>
      <trkpt lat="45.16129" lon="5.70149">
        <ele>228.35</ele>
        <time>2018-06-17T08:15:44Z</time>
      </trkpt>
      <trkpt lat="45.16106" lon="5.70147">
        <ele>228.14</ele>
        <time>2018-06-17T08:15:45Z</time>
      </trkpt>
      <trkpt lat="45.16083" lon="5.70147">
        <ele>228.08</ele>
        <time>2018-06-17T08:15:46Z</time>
      </trkpt>
      <trkpt lat="45.1606" lon="5.70145">
        <ele>228.06</ele>
        <time>2018-06-17T08:15:47Z</time>
      </trkpt>
      <trkpt lat="45.16037" lon="5.70144">
        <ele>228.05</ele>
        <time>2018-06-17T08:15:48Z</time>
      </trkpt>
      <trkpt lat="45.16013" lon="5.70143">
        <ele>228.75</ele>
        <time>2018-06-17T08:15:49Z</time>
      </trkpt>
      <trkpt lat="45.1599" lon="5.70141">
        <ele>228.96</ele>
        <time>2018-06-17T08:15:50Z</time>
      </trkpt>
      <trkpt lat="45.15968" lon="5.7014">
        <ele>229.02</ele>
        <time>2018-06-17T08:15:51Z</time>
      </trkpt>
      <trkpt lat="45.15946" lon="5.70138">
        <ele>229.04</ele>
        <time>2018-06-17T08:15:52Z</time>
      </trkpt>
      <trkpt lat="45.15924" lon="5.70134">
        <ele>229.05</ele>
        <time>2018-06-17T08:15:53Z</time>
      </trkpt>
      <trkpt lat="45.15902" lon="5.7013">
        <ele>229.75</ele>
        <time>2018-06-17T08:15:54Z</time>
      </trkpt>
      <trkpt lat="45.1588" lon="5.70122">
        <ele>229.96</ele>
        <time>2018-06-17T08:15:55Z</time>
      </trkpt>
      <trkpt lat="45.15859" lon="5.70115">
        <ele>230.02</ele>
        <time>2018-06-17T08:15:56Z</time>
      </trkpt>
      <trkpt lat="45.15839" lon="5.70102">
        <ele>230.04</ele>
        <time>2018-06-17T08:15:57Z</time>
      </trkpt>
      <trkpt lat="45.15818" lon="5.7009">
        <ele>230.75</ele>
        <time>2018-06-17T08:15:58Z</time>
      </trkpt>
      <trkpt lat="45.15798" lon="5.70077">
        <ele>231.66</ele>
        <time>2018-06-17T08:15:59Z</time>
      </trkpt>
      <trkpt lat="45.15778" lon="5.70063">
        <ele>231.93</ele>
        <time>2018-06-17T08:16:00Z</time>
      </trkpt>
      <trkpt lat="45.15758" lon="5.70049">
        <ele>232.01</ele>
        <time>2018-06-17T08:16:01Z</time>
      </trkpt>
      <trkpt lat="45.15738" lon="5.70034">
        <ele>232.04</ele>
        <time>2018-06-17T08:16:02Z</time>
      </trkpt>
      <trkpt lat="45.15719" lon="5.7002">
        <ele>232.75</ele>
        <time>2018-06-17T08:16:03Z</time>
      </trkpt>
      <trkpt lat="45.15699" lon="5.70004">
        <ele>232.96</ele>
        <time>2018-06-17T08:16:04Z</time>
      </trkpt>
      <trkpt lat="45.15679" lon="5.6999">
        <ele>233.72</ele>
        <time>2018-06-17T08:16:05Z</time>
      </trkpt>
      <trkpt lat="45.15659" lon="5.69975">
        <ele>233.95</ele>
        <time>2018-06-17T08:16:06Z</time>
      </trkpt>
      <trkpt lat="45.15639" lon="5.69962">
        <ele>233.32</ele>
        <time>2018-06-17T08:16:07Z</time>
      </trkpt>
      <trkpt lat="45.15618" lon="5.69949">
        <ele>233.13</ele>
        <time>2018-06-17T08:16:08Z</time>
      </trkpt>
      <trkpt lat="45.15597" lon="5.69937">
        <ele>233.07</ele>
        <time>2018-06-17T08:16:09Z</time>
      </trkpt>
      <trkpt lat="45.15576" lon="5.69926">
        <ele>233.06</ele>
        <time>2018-06-17T08:16:10Z</time>
      </trkpt>
      <trkpt lat="45.15555" lon="5.69916">
        <ele>233.05</ele>
        <time>2018-06-17T08:16:11Z</time>
      </trkpt>
      <trkpt lat="45.15533" lon="5.69906">
        <ele>233.05</ele>
        <time>2018-06-17T08:16:12Z</time>
      </trkpt>
      <trkpt lat="45.15513" lon="5.69896">
        <ele>233.05</ele>
        <time>2018-06-17T08:16:13Z</time>
      </trkpt>
      <trkpt lat="45.15492" lon="5.69886">
        <ele>233.75</ele>
        <time>2018-06-17T08:16:14Z</time>
      </trkpt>
      <trkpt lat="45.15472" lon="5.69876">
        <ele>233.96</ele>
        <time>2018-06-17T08:16:15Z</time>
      </trkpt>
      <trkpt lat="45.15451" lon="5.69867">
        <ele>234.02</ele>
        <time>2018-06-17T08:16:16Z</time>
      </trkpt>
      <trkpt lat="45.15431" lon="5.69856">
        <ele>234.04</ele>
        <time>2018-06-17T08:16:17Z</time>
      </trkpt>
      <trkpt lat="45.1541" lon="5.69846">
        <ele>234.75</ele>
        <time>2018-06-17T08:16:18Z</time>
      </trkpt>
      <trkpt lat="45.15389" lon="5.69836">
        <ele>234.26</ele>
        <time>2018-06-17T08:16:19Z</time>
      </trkpt>
      <trkpt lat="45.15369" lon="5.69827">
        <ele>234.11</ele>
        <time>2018-06-17T08:16:20Z</time>
      </trkpt>
      <trkpt lat="45.15348" lon="5.69817">
        <ele>234.77</ele>
        <time>2018-06-17T08:16:21Z</time>
      </trkpt>
      <trkpt lat="45.15328" lon="5.69807">
        <ele>234.96</ele>
        <time>2018-06-17T08:16:22Z</time>
      </trkpt>
      <trkpt lat="45.15308" lon="5.69797">
        <ele>235.02</ele>
        <time>2018-06-17T08:16:23Z</time>
      </trkpt>
      <trkpt lat="45.15287" lon="5.69788">
        <ele>235.04</ele>
        <time>2018-06-17T08:16:24Z</time>
      </trkpt>
      <trkpt lat="45.15267" lon="5.69778">
        <ele>235.05</ele>
        <time>2018-06-17T08:16:25Z</time>
      </trkpt>
      <trkpt lat="45.15246" lon="5.69769">
        <ele>235.05</ele>
        <time>2018-06-17T08:16:26Z</time>
      </trkpt>
      <trkpt lat="45.15225" lon="5.69758">
        <ele>235.05</ele>
        <time>2018-06-17T08:16:27Z</time>
      </trkpt>
      <trkpt lat="45.15203" lon="5.69748">
        <ele>235.05</ele>
        <time>2018-06-17T08:16:28Z</time>
      </trkpt>
      <trkpt lat="45.15182" lon="5.69738">
        <ele>235.05</ele>
        <time>2018-06-17T08:16:29Z</time>
      </trkpt>
      <trkpt lat="45.1516" lon="5.69728">
        <ele>235.05</ele>
        <time>2018-06-17T08:16:30Z</time>
      </trkpt>
      <trkpt lat="45.15139" lon="5.69718">
        <ele>235.05</ele>
        <time>2018-06-17T08:16:31Z</time>
      </trkpt>
      <trkpt lat="45.15117" lon="5.69708">
        <ele>235.05</ele>
        <time>2018-06-17T08:16:32Z</time>
      </trkpt>
      <trkpt lat="45.15095" lon="5.69697">
        <ele>235.05</ele>
        <time>2018-06-17T08:16:33Z</time>
      </trkpt>
      <trkpt lat="45.15072" lon="5.69687">
        <ele>235.05</ele>
        <time>2018-06-17T08:16:34Z</time>
      </trkpt>
      <trkpt lat="45.15051" lon="5.69676">
        <ele>235.05</ele>
        <time>2018-06-17T08:16:35Z</time>
      </trkpt>
      <trkpt lat="45.15029" lon="5.69666">
        <ele>235.75</ele>
        <time>2018-06-17T08:16:36Z</time>
      </trkpt>
      <trkpt lat="45.15007" lon="5.69656">
        <ele>235.96</ele>
        <time>2018-06-17T08:16:37Z</time>
      </trkpt>
      <trkpt lat="45.14984" lon="5.69646">
        <ele>236.02</ele>
        <time>2018-06-17T08:16:38Z</time>
      </trkpt>
      <trkpt lat="45.14961" lon="5.69636">
        <ele>236.04</ele>
        <time>2018-06-17T08:16:39Z</time>
      </trkpt>
      <trkpt lat="45.14938" lon="5.69624">
        <ele>236.75</ele>
        <time>2018-06-17T08:16:40Z</time>
      </trkpt>
      <trkpt lat="45.14915" lon="5.69613">
        <ele>236.96</ele>
        <time>2018-06-17T08:16:41Z</time>
      </trkpt>
      <trkpt lat="45.14891" lon="5.69602">
        <ele>237.02</ele>
        <time>2018-06-17T08:16:42Z</time>
      </trkpt>
      <trkpt lat="45.14867" lon="5.6959">
        <ele>237.74</ele>
        <time>2018-06-17T08:16:43Z</time>
      </trkpt>
      <trkpt lat="45.14843" lon="5.6958">
        <ele>237.96</ele>
        <time>2018-06-17T08:16:44Z</time>
      </trkpt>
      <trkpt lat="45.14819" lon="5.69568">
        <ele>238.02</ele>
        <time>2018-06-17T08:16:45Z</time>
      </trkpt>
      <trkpt lat="45.14795" lon="5.69556">
        <ele>238.04</ele>
        <time>2018-06-17T08:16:46Z</time>
      </trkpt>
      <trkpt lat="45.14771" lon="5.69545">
        <ele>238.05</ele>
        <time>2018-06-17T08:16:47Z</time>
      </trkpt>
      <trkpt lat="45.14747" lon="5.69534">
        <ele>238.05</ele>
        <time>2018-06-17T08:16:48Z</time>
      </trkpt>
      <trkpt lat="45.14724" lon="5.69522">
        <ele>238.05</ele>
        <time>2018-06-17T08:16:49Z</time>
      </trkpt>
      <trkpt lat="45.147" lon="5.69511">
        <ele>238.05</ele>
        <time>2018-06-17T08:16:50Z</time>
      </trkpt>
      <trkpt lat="45.14677" lon="5.695">
        <ele>238.05</ele>
        <time>2018-06-17T08:16:51Z</time>
      </trkpt>
      <trkpt lat="45.14653" lon="5.69489">
        <ele>238.05</ele>
        <time>2018-06-17T08:16:52Z</time>
      </trkpt>
      <trkpt lat="45.1463" lon="5.69478">
        <ele>238.75</ele>
        <time>2018-06-17T08:16:53Z</time>
      </trkpt>
      <trkpt lat="45.14606" lon="5.69467">
        <ele>238.96</ele>
        <time>2018-06-17T08:16:54Z</time>
      </trkpt>
      <trkpt lat="45.14583" lon="5.69456">
        <ele>239.72</ele>
        <time>2018-06-17T08:16:55Z</time>
      </trkpt>
      <trkpt lat="45.14559" lon="5.69443">
        <ele>239.95</ele>
        <time>2018-06-17T08:16:56Z</time>
      </trkpt>
      <trkpt lat="45.14536" lon="5.69432">
        <ele>239.32</ele>
        <time>2018-06-17T08:16:57Z</time>
      </trkpt>
      <trkpt lat="45.14512" lon="5.6942">
        <ele>239.83</ele>
        <time>2018-06-17T08:16:58Z</time>
      </trkpt>
      <trkpt lat="45.14489" lon="5.6941">
        <ele>239.98</ele>
        <time>2018-06-17T08:16:59Z</time>
      </trkpt>
      <trkpt lat="45.14466" lon="5.69398">
        <ele>240.03</ele>
        <time>2018-06-17T08:17:00Z</time>
      </trkpt>
      <trkpt lat="45.14443" lon="5.69387">
        <ele>240.04</ele>
        <time>2018-06-17T08:17:01Z</time>
      </trkpt>
      <trkpt lat="45.14419" lon="5.69377">
        <ele>240.75</ele>
        <time>2018-06-17T08:17:02Z</time>
      </trkpt>
      <trkpt lat="45.14397" lon="5.69366">
        <ele>241.66</ele>
        <time>2018-06-17T08:17:03Z</time>
      </trkpt>
      <trkpt lat="45.14374" lon="5.69355">
        <ele>241.93</ele>
        <time>2018-06-17T08:17:04Z</time>
      </trkpt>
      <trkpt lat="45.14351" lon="5.69344">
        <ele>242.01</ele>
        <time>2018-06-17T08:17:05Z</time>
      </trkpt>
      <trkpt lat="45.14328" lon="5.69334">
        <ele>242.04</ele>
        <time>2018-06-17T08:17:06Z</time>
      </trkpt>
      <trkpt lat="45.14306" lon="5.69323">
        <ele>242.05</ele>
        <time>2018-06-17T08:17:07Z</time>
      </trkpt>
      <trkpt lat="45.14283" lon="5.69313">
        <ele>242.75</ele>
        <time>2018-06-17T08:17:08Z</time>
      </trkpt>
      <trkpt lat="45.1426" lon="5.69302">
        <ele>242.96</ele>
        <time>2018-06-17T08:17:09Z</time>
      </trkpt>
      <trkpt lat="45.14237" lon="5.69291">
        <ele>243.72</ele>
        <time>2018-06-17T08:17:10Z</time>
      </trkpt>
      <trkpt lat="45.14215" lon="5.6928">
        <ele>243.95</ele>
        <time>2018-06-17T08:17:11Z</time>
      </trkpt>
      <trkpt lat="45.14192" lon="5.6927">
        <ele>244.02</ele>
        <time>2018-06-17T08:17:12Z</time>
      </trkpt>
      <trkpt lat="45.1417" lon="5.6926">
        <ele>244.04</ele>
        <time>2018-06-17T08:17:13Z</time>
      </trkpt>
      <trkpt lat="45.14148" lon="5.69248">
        <ele>244.05</ele>
        <time>2018-06-17T08:17:14Z</time>
      </trkpt>
      <trkpt lat="45.14125" lon="5.69238">
        <ele>244.05</ele>
        <time>2018-06-17T08:17:15Z</time>
      </trkpt>
      <trkpt lat="45.14103" lon="5.69227">
        <ele>244.75</ele>
        <time>2018-06-17T08:17:16Z</time>
      </trkpt>
      <trkpt lat="45.1408" lon="5.69217">
        <ele>244.96</ele>
        <time>2018-06-17T08:17:17Z</time>
      </trkpt>
      <trkpt lat="45.14058" lon="5.69206">
        <ele>244.32</ele>
        <time>2018-06-17T08:17:18Z</time>
      </trkpt>
      <trkpt lat="45.14036" lon="5.69195">
        <ele>244.13</ele>
        <time>2018-06-17T08:17:19Z</time>
      </trkpt>
      <trkpt lat="45.14013" lon="5.69184">
        <ele>244.07</ele>
        <time>2018-06-17T08:17:20Z</time>
      </trkpt>
      <trkpt lat="45.13991" lon="5.69173">
        <ele>244.06</ele>
        <time>2018-06-17T08:17:21Z</time>
      </trkpt>
      <trkpt lat="45.13968" lon="5.69162">
        <ele>244.05</ele>
        <time>2018-06-17T08:17:22Z</time>
      </trkpt>
      <trkpt lat="45.13944" lon="5.69151">
        <ele>244.05</ele>
        <time>2018-06-17T08:17:23Z</time>
      </trkpt>
      <trkpt lat="45.13919" lon="5.6914">
        <ele>244.05</ele>
        <time>2018-06-17T08:17:24Z</time>
      </trkpt>
      <trkpt lat="45.13894" lon="5.6913">
        <ele>244.05</ele>
        <time>2018-06-17T08:17:25Z</time>
      </trkpt>
      <trkpt lat="45.13868" lon="5.69121">
        <ele>244.05</ele>
        <time>2018-06-17T08:17:26Z</time>
      </trkpt>
      <trkpt lat="45.13843" lon="5.69112">
        <ele>244.05</ele>
        <time>2018-06-17T08:17:27Z</time>
      </trkpt>
      <trkpt lat="45.13817" lon="5.69102">
        <ele>244.05</ele>
        <time>2018-06-17T08:17:28Z</time>
      </trkpt>
      <trkpt lat="45.13791" lon="5.69092">
        <ele>244.05</ele>
        <time>2018-06-17T08:17:29Z</time>
      </trkpt>
      <trkpt lat="45.13765" lon="5.69083">
        <ele>244.05</ele>
        <time>2018-06-17T08:17:30Z</time>
      </trkpt>
      <trkpt lat="45.13738" lon="5.69075">
        <ele>244.05</ele>
        <time>2018-06-17T08:17:31Z</time>
      </trkpt>
      <trkpt lat="45.13711" lon="5.69068">
        <ele>244.05</ele>
        <time>2018-06-17T08:17:32Z</time>
      </trkpt>
      <trkpt lat="45.13684" lon="5.69062">
        <ele>244.05</ele>
        <time>2018-06-17T08:17:33Z</time>
      </trkpt>
      <trkpt lat="45.13656" lon="5.69057">
        <ele>244.05</ele>
        <time>2018-06-17T08:17:34Z</time>
      </trkpt>
      <trkpt lat="45.13629" lon="5.69051">
        <ele>244.05</ele>
        <time>2018-06-17T08:17:35Z</time>
      </trkpt>
      <trkpt lat="45.13601" lon="5.69045">
        <ele>244.05</ele>
        <time>2018-06-17T08:17:36Z</time>
      </trkpt>
      <trkpt lat="45.13574" lon="5.69039">
        <ele>244.05</ele>
        <time>2018-06-17T08:17:37Z</time>
      </trkpt>
      <trkpt lat="45.13546" lon="5.69033">
        <ele>244.05</ele>
        <time>2018-06-17T08:17:38Z</time>
      </trkpt>
      <trkpt lat="45.13517" lon="5.69029">
        <ele>244.05</ele>
        <time>2018-06-17T08:17:39Z</time>
      </trkpt>
      <trkpt lat="45.1349" lon="5.69023">
        <ele>243.35</ele>
        <time>2018-06-17T08:17:40Z</time>
      </trkpt>
      <trkpt lat="45.13462" lon="5.69018">
        <ele>243.84</ele>
        <time>2018-06-17T08:17:41Z</time>
      </trkpt>
      <trkpt lat="45.13434" lon="5.69013">
        <ele>243.99</ele>
        <time>2018-06-17T08:17:42Z</time>
      </trkpt>
      <trkpt lat="45.13406" lon="5.69008">
        <ele>244.03</ele>
        <time>2018-06-17T08:17:43Z</time>
      </trkpt>
      <trkpt lat="45.13378" lon="5.69003">
        <ele>244.04</ele>
        <time>2018-06-17T08:17:44Z</time>
      </trkpt>
      <trkpt lat="45.1335" lon="5.69001">
        <ele>244.75</ele>
        <time>2018-06-17T08:17:45Z</time>
      </trkpt>
      <trkpt lat="45.13322" lon="5.68999">
        <ele>244.96</ele>
        <time>2018-06-17T08:17:46Z</time>
      </trkpt>
      <trkpt lat="45.13295" lon="5.69">
        <ele>245.02</ele>
        <time>2018-06-17T08:17:47Z</time>
      </trkpt>
      <trkpt lat="45.13267" lon="5.69002">
        <ele>245.04</ele>
        <time>2018-06-17T08:17:48Z</time>
      </trkpt>
      <trkpt lat="45.1324" lon="5.69005">
        <ele>245.05</ele>
        <time>2018-06-17T08:17:49Z</time>
      </trkpt>
      <trkpt lat="45.13213" lon="5.69008">
        <ele>245.75</ele>
        <time>2018-06-17T08:17:50Z</time>
      </trkpt>
      <trkpt lat="45.13187" lon="5.69013">
        <ele>245.96</ele>
        <time>2018-06-17T08:17:51Z</time>
      </trkpt>
      <trkpt lat="45.1316" lon="5.69019">
        <ele>246.02</ele>
        <time>2018-06-17T08:17:52Z</time>
      </trkpt>
      <trkpt lat="45.13135" lon="5.69025">
        <ele>246.04</ele>
        <time>2018-06-17T08:17:53Z</time>
      </trkpt>
      <trkpt lat="45.13109" lon="5.69033">
        <ele>245.35</ele>
        <time>2018-06-17T08:17:54Z</time>
      </trkpt>
      <trkpt lat="45.13083" lon="5.69041">
        <ele>245.84</ele>
        <time>2018-06-17T08:17:55Z</time>
      </trkpt>
      <trkpt lat="45.13057" lon="5.69048">
        <ele>245.29</ele>
        <time>2018-06-17T08:17:56Z</time>
      </trkpt>
      <trkpt lat="45.13031" lon="5.69056">
        <ele>245.82</ele>
        <time>2018-06-17T08:17:57Z</time>
      </trkpt>
      <trkpt lat="45.13004" lon="5.69063">
        <ele>245.98</ele>
        <time>2018-06-17T08:17:58Z</time>
      </trkpt>
      <trkpt lat="45.12978" lon="5.69071">
        <ele>246.03</ele>
        <time>2018-06-17T08:17:59Z</time>
      </trkpt>
      <trkpt lat="45.12952" lon="5.69078">
        <ele>246.04</ele>
        <time>2018-06-17T08:18:00Z</time>
      </trkpt>
      <trkpt lat="45.12926" lon="5.69085">
        <ele>246.05</ele>
        <time>2018-06-17T08:18:01Z</time>
      </trkpt>
      <trkpt lat="45.12899" lon="5.69092">
        <ele>246.05</ele>
        <time>2018-06-17T08:18:02Z</time>
      </trkpt>
      <trkpt lat="45.12873" lon="5.69096">
        <ele>246.05</ele>
        <time>2018-06-17T08:18:03Z</time>
      </trkpt>
      <trkpt lat="45.12846" lon="5.69099">
        <ele>246.05</ele>
        <time>2018-06-17T08:18:04Z</time>
      </trkpt>
      <trkpt lat="45.12819" lon="5.69101">
        <ele>246.05</ele>
        <time>2018-06-17T08:18:05Z</time>
      </trkpt>
      <trkpt lat="45.12792" lon="5.69101">
        <ele>246.75</ele>
        <time>2018-06-17T08:18:06Z</time>
      </trkpt>
      <trkpt lat="45.12765" lon="5.69099">
        <ele>246.96</ele>
        <time>2018-06-17T08:18:07Z</time>
      </trkpt>
      <trkpt lat="45.12738" lon="5.69095">
        <ele>247.02</ele>
        <time>2018-06-17T08:18:08Z</time>
      </trkpt>
      <trkpt lat="45.12712" lon="5.6909">
        <ele>247.74</ele>
        <time>2018-06-17T08:18:09Z</time>
      </trkpt>
      <trkpt lat="45.12686" lon="5.69083">
        <ele>247.96</ele>
        <time>2018-06-17T08:18:10Z</time>
      </trkpt>
      <trkpt lat="45.1266" lon="5.69075">
        <ele>248.02</ele>
        <time>2018-06-17T08:18:11Z</time>
      </trkpt>
      <trkpt lat="45.12635" lon="5.69065">
        <ele>248.74</ele>
        <time>2018-06-17T08:18:12Z</time>
      </trkpt>
      <trkpt lat="45.12611" lon="5.69054">
        <ele>248.96</ele>
        <time>2018-06-17T08:18:13Z</time>
      </trkpt>
      <trkpt lat="45.12586" lon="5.69043">
        <ele>249.02</ele>
        <time>2018-06-17T08:18:14Z</time>
      </trkpt>
      <trkpt lat="45.12562" lon="5.6903">
        <ele>249.04</ele>
        <time>2018-06-17T08:18:15Z</time>
      </trkpt>
      <trkpt lat="45.12538" lon="5.69017">
        <ele>248.35</ele>
        <time>2018-06-17T08:18:16Z</time>
      </trkpt>
      <trkpt lat="45.12514" lon="5.69004">
        <ele>248.14</ele>
        <time>2018-06-17T08:18:17Z</time>
      </trkpt>
      <trkpt lat="45.1249" lon="5.6899">
        <ele>248.78</ele>
        <time>2018-06-17T08:18:18Z</time>
      </trkpt>
      <trkpt lat="45.12465" lon="5.68977">
        <ele>248.97</ele>
        <time>2018-06-17T08:18:19Z</time>
      </trkpt>
      <trkpt lat="45.12442" lon="5.68963">
        <ele>248.32</ele>
        <time>2018-06-17T08:18:20Z</time>
      </trkpt>
      <trkpt lat="45.12418" lon="5.68949">
        <ele>248.13</ele>
        <time>2018-06-17T08:18:21Z</time>
      </trkpt>
      <trkpt lat="45.12394" lon="5.68935">
        <ele>248.07</ele>
        <time>2018-06-17T08:18:22Z</time>
      </trkpt>
      <trkpt lat="45.1237" lon="5.68921">
        <ele>248.06</ele>
        <time>2018-06-17T08:18:23Z</time>
      </trkpt>
      <trkpt lat="45.12346" lon="5.68905">
        <ele>248.75</ele>
        <time>2018-06-17T08:18:24Z</time>
      </trkpt>
      <trkpt lat="45.12322" lon="5.68891">
        <ele>249.66</ele>
        <time>2018-06-17T08:18:25Z</time>
      </trkpt>
      <trkpt lat="45.12298" lon="5.68875">
        <ele>249.93</ele>
        <time>2018-06-17T08:18:26Z</time>
      </trkpt>
      <trkpt lat="45.12273" lon="5.68861">
        <ele>250.01</ele>
        <time>2018-06-17T08:18:27Z</time>
      </trkpt>
      <trkpt lat="45.12249" lon="5.68846">
        <ele>250.04</ele>
        <time>2018-06-17T08:18:28Z</time>
      </trkpt>
      <trkpt lat="45.12224" lon="5.6883">
        <ele>250.05</ele>
        <time>2018-06-17T08:18:29Z</time>
      </trkpt>
      <trkpt lat="45.12201" lon="5.68813">
        <ele>250.05</ele>
        <time>2018-06-17T08:18:30Z</time>
      </trkpt>
      <trkpt lat="45.12177" lon="5.68797">
        <ele>250.05</ele>
        <time>2018-06-17T08:18:31Z</time>
      </trkpt>
      <trkpt lat="45.12153" lon="5.68781">
        <ele>250.05</ele>
        <time>2018-06-17T08:18:32Z</time>
      </trkpt>
      <trkpt lat="45.12128" lon="5.68766">
        <ele>250.05</ele>
        <time>2018-06-17T08:18:33Z</time>
      </trkpt>
      <trkpt lat="45.12105" lon="5.6875">
        <ele>250.05</ele>
        <time>2018-06-17T08:18:34Z</time>
      </trkpt>
      <trkpt lat="45.1208" lon="5.68735">
        <ele>250.75</ele>
        <time>2018-06-17T08:18:35Z</time>
      </trkpt>
      <trkpt lat="45.12056" lon="5.68719">
        <ele>250.96</ele>
        <time>2018-06-17T08:18:36Z</time>
      </trkpt>
      <trkpt lat="45.12032" lon="5.68703">
        <ele>251.02</ele>
        <time>2018-06-17T08:18:37Z</time>
      </trkpt>
      <trkpt lat="45.12007" lon="5.68688">
        <ele>251.04</ele>
        <time>2018-06-17T08:18:38Z</time>
      </trkpt>
      <trkpt lat="45.11983" lon="5.68672">
        <ele>251.75</ele>
        <time>2018-06-17T08:18:39Z</time>
      </trkpt>
      <trkpt lat="45.11958" lon="5.68656">
        <ele>251.96</ele>
        <time>2018-06-17T08:18:40Z</time>
      </trkpt>
      <trkpt lat="45.11933" lon="5.6864">
        <ele>251.32</ele>
        <time>2018-06-17T08:18:41Z</time>
      </trkpt>
      <trkpt lat="45.11908" lon="5.68623">
        <ele>251.83</ele>
        <time>2018-06-17T08:18:42Z</time>
      </trkpt>
      <trkpt lat="45.11884" lon="5.68606">
        <ele>251.98</ele>
        <time>2018-06-17T08:18:43Z</time>
      </trkpt>
      <trkpt lat="45.11858" lon="5.6859">
        <ele>251.33</ele>
        <time>2018-06-17T08:18:44Z</time>
      </trkpt>
      <trkpt lat="45.11833" lon="5.68574">
        <ele>251.13</ele>
        <time>2018-06-17T08:18:45Z</time>
      </trkpt>
      <trkpt lat="45.11808" lon="5.68558">
        <ele>251.07</ele>
        <time>2018-06-17T08:18:46Z</time>
      </trkpt>
      <trkpt lat="45.11783" lon="5.68541">
        <ele>251.06</ele>
        <time>2018-06-17T08:18:47Z</time>
      </trkpt>
      <trkpt lat="45.11757" lon="5.68524">
        <ele>251.05</ele>
        <time>2018-06-17T08:18:48Z</time>
      </trkpt>
      <trkpt lat="45.11732" lon="5.68507">
        <ele>251.05</ele>
        <time>2018-06-17T08:18:49Z</time>
      </trkpt>
      <trkpt lat="45.11706" lon="5.68491">
        <ele>251.05</ele>
        <time>2018-06-17T08:18:50Z</time>
      </trkpt>
      <trkpt lat="45.11681" lon="5.68474">
        <ele>251.75</ele>
        <time>2018-06-17T08:18:51Z</time>
      </trkpt>
      <trkpt lat="45.11656" lon="5.68458">
        <ele>251.26</ele>
        <time>2018-06-17T08:18:52Z</time>
      </trkpt>
      <trkpt lat="45.11633" lon="5.68443">
        <ele>251.81</ele>
        <time>2018-06-17T08:18:53Z</time>
      </trkpt>
      <trkpt lat="45.1161" lon="5.68428">
        <ele>251.98</ele>
        <time>2018-06-17T08:18:54Z</time>
      </trkpt>
      <trkpt lat="45.11587" lon="5.68412">
        <ele>252.03</ele>
        <time>2018-06-17T08:18:55Z</time>
      </trkpt>
      <trkpt lat="45.11564" lon="5.68397">
        <ele>251.34</ele>
        <time>2018-06-17T08:18:56Z</time>
      </trkpt>
      <trkpt lat="45.11541" lon="5.68382">
        <ele>251.14</ele>
        <time>2018-06-17T08:18:57Z</time>
      </trkpt>
      <trkpt lat="45.11519" lon="5.68367">
        <ele>251.08</ele>
        <time>2018-06-17T08:18:58Z</time>
      </trkpt>
      <trkpt lat="45.11498" lon="5.68353">
        <ele>251.76</ele>
        <time>2018-06-17T08:18:59Z</time>
      </trkpt>
      <trkpt lat="45.11475" lon="5.68339">
        <ele>251.96</ele>
        <time>2018-06-17T08:19:00Z</time>
      </trkpt>
      <trkpt lat="45.11453" lon="5.68326">
        <ele>252.02</ele>
        <time>2018-06-17T08:19:01Z</time>
      </trkpt>
      <trkpt lat="45.1143" lon="5.68313">
        <ele>252.74</ele>
        <time>2018-06-17T08:19:02Z</time>
      </trkpt>
      <trkpt lat="45.11407" lon="5.683">
        <ele>252.96</ele>
        <time>2018-06-17T08:19:03Z</time>
      </trkpt>
      <trkpt lat="45.11384" lon="5.68288">
        <ele>253.02</ele>
        <time>2018-06-17T08:19:04Z</time>
      </trkpt>
      <trkpt lat="45.11361" lon="5.68277">
        <ele>253.04</ele>
        <time>2018-06-17T08:19:05Z</time>
      </trkpt>
      <trkpt lat="45.11338" lon="5.68266">
        <ele>253.75</ele>
        <time>2018-06-17T08:19:06Z</time>
      </trkpt>
      <trkpt lat="45.11315" lon="5.68256">
        <ele>253.96</ele>
        <time>2018-06-17T08:19:07Z</time>
      </trkpt>
      <trkpt lat="45.11292" lon="5.68245">
        <ele>254.02</ele>
        <time>2018-06-17T08:19:08Z</time>
      </trkpt>
      <trkpt lat="45.11269" lon="5.68235">
        <ele>254.04</ele>
        <time>2018-06-17T08:19:09Z</time>
      </trkpt>
      <trkpt lat="45.11245" lon="5.68225">
        <ele>254.05</ele>
        <time>2018-06-17T08:19:10Z</time>
      </trkpt>
      <trkpt lat="45.11222" lon="5.68214">
        <ele>254.05</ele>
        <time>2018-06-17T08:19:11Z</time>
      </trkpt>
      <trkpt lat="45.11199" lon="5.68203">
        <ele>254.05</ele>
        <time>2018-06-17T08:19:12Z</time>
      </trkpt>
      <trkpt lat="45.11177" lon="5.68191">
        <ele>254.05</ele>
        <time>2018-06-17T08:19:13Z</time>
      </trkpt>
      <trkpt lat="45.11155" lon="5.68179">
        <ele>254.05</ele>
        <time>2018-06-17T08:19:14Z</time>
      </trkpt>
      <trkpt lat="45.11133" lon="5.68166">
        <ele>254.75</ele>
        <time>2018-06-17T08:19:15Z</time>
      </trkpt>
      <trkpt lat="45.11112" lon="5.68151">
        <ele>254.96</ele>
        <time>2018-06-17T08:19:16Z</time>
      </trkpt>
      <trkpt lat="45.11092" lon="5.68135">
        <ele>255.72</ele>
        <time>2018-06-17T08:19:17Z</time>
      </trkpt>
      <trkpt lat="45.11072" lon="5.6812">
        <ele>255.95</ele>
        <time>2018-06-17T08:19:18Z</time>
      </trkpt>
      <trkpt lat="45.11054" lon="5.68104">
        <ele>256.02</ele>
        <time>2018-06-17T08:19:19Z</time>
      </trkpt>
      <trkpt lat="45.11037" lon="5.6809">
        <ele>256.74</ele>
        <time>2018-06-17T08:19:20Z</time>
      </trkpt>
      <trkpt lat="45.11021" lon="5.68075">
        <ele>256.96</ele>
        <time>2018-06-17T08:19:21Z</time>
      </trkpt>
      <trkpt lat="45.11005" lon="5.68059">
        <ele>257.02</ele>
        <time>2018-06-17T08:19:22Z</time>
      </trkpt>
      <trkpt lat="45.10992" lon="5.68042">
        <ele>257.74</ele>
        <time>2018-06-17T08:19:23Z</time>
      </trkpt>
      <trkpt lat="45.10975" lon="5.68007">
        <ele>258.02</ele>
        <time>2018-06-17T08:19:25Z</time>
      </trkpt>
      <trkpt lat="45.10968" lon="5.67971">
        <ele>258.05</ele>
        <time>2018-06-17T08:19:27Z</time>
      </trkpt>
      <trkpt lat="45.10977" lon="5.67945">
        <ele>259.87</ele>
        <time>2018-06-17T08:19:29Z</time>
      </trkpt>
      <trkpt lat="45.10992" lon="5.67923">
        <ele>260.73</ele>
        <time>2018-06-17T08:19:31Z</time>
      </trkpt>
      <trkpt lat="45.11018" lon="5.67921">
        <ele>260.32</ele>
        <time>2018-06-17T08:19:33Z</time>
      </trkpt>
      <trkpt lat="45.11042" lon="5.67933">
        <ele>260.98</ele>
        <time>2018-06-17T08:19:35Z</time>
      </trkpt>
      <trkpt lat="45.11058" lon="5.67948">
        <ele>261.04</ele>
        <time>2018-06-17T08:19:37Z</time>
      </trkpt>
      <trkpt lat="45.11079" lon="5.67941">
        <ele>261.05</ele>
        <time>2018-06-17T08:19:40Z</time>
      </trkpt>
      <trkpt lat="45.11081" lon="5.67902">
        <ele>261.05</ele>
        <time>2018-06-17T08:19:43Z</time>
      </trkpt>
      <trkpt lat="45.11079" lon="5.67869">
        <ele>260.84</ele>
        <time>2018-06-17T08:19:45Z</time>
      </trkpt>
      <trkpt lat="45.1107" lon="5.67839">
        <ele>261.03</ele>
        <time>2018-06-17T08:19:47Z</time>
      </trkpt>
      <trkpt lat="45.11056" lon="5.67813">
        <ele>261.75</ele>
        <time>2018-06-17T08:19:49Z</time>
      </trkpt>
      <trkpt lat="45.11044" lon="5.67791">
        <ele>261.11</ele>
        <time>2018-06-17T08:19:51Z</time>
      </trkpt>
      <trkpt lat="45.11032" lon="5.67765">
        <ele>260.41</ele>
        <time>2018-06-17T08:19:54Z</time>
      </trkpt>
      <trkpt lat="45.11019" lon="5.67736">
        <ele>261.79</ele>
        <time>2018-06-17T08:19:57Z</time>
      </trkpt>
      <trkpt lat="45.11004" lon="5.67708">
        <ele>262.74</ele>
        <time>2018-06-17T08:20:00Z</time>
      </trkpt>
      <trkpt lat="45.10993" lon="5.67687">
        <ele>263.93</ele>
        <time>2018-06-17T08:20:02Z</time>
      </trkpt>
      <trkpt lat="45.10981" lon="5.67661">
        <ele>264.74</ele>
        <time>2018-06-17T08:20:04Z</time>
      </trkpt>
      <trkpt lat="45.10969" lon="5.67635">
        <ele>265.72</ele>
        <time>2018-06-17T08:20:06Z</time>
      </trkpt>
      <trkpt lat="45.10957" lon="5.67613">
        <ele>265.11</ele>
        <time>2018-06-17T08:20:08Z</time>
      </trkpt>
      <trkpt lat="45.10945" lon="5.67591">
        <ele>265.75</ele>
        <time>2018-06-17T08:20:10Z</time>
      </trkpt>
      <trkpt lat="45.10934" lon="5.67568">
        <ele>266.93</ele>
        <time>2018-06-17T08:20:12Z</time>
      </trkpt>
      <trkpt lat="45.1092" lon="5.67547">
        <ele>267.04</ele>
        <time>2018-06-17T08:20:14Z</time>
      </trkpt>
      <trkpt lat="45.10905" lon="5.67531">
        <ele>267.26</ele>
        <time>2018-06-17T08:20:16Z</time>
      </trkpt>
      <trkpt lat="45.10887" lon="5.67516">
        <ele>267.98</ele>
        <time>2018-06-17T08:20:18Z</time>
      </trkpt>
      <trkpt lat="45.10873" lon="5.67497">
        <ele>268.04</ele>
        <time>2018-06-17T08:20:20Z</time>
      </trkpt>
      <trkpt lat="45.10861" lon="5.67472">
        <ele>267.14</ele>
        <time>2018-06-17T08:20:22Z</time>
      </trkpt>
      <trkpt lat="45.1085" lon="5.67449">
        <ele>267.06</ele>
        <time>2018-06-17T08:20:24Z</time>
      </trkpt>
      <trkpt lat="45.10838" lon="5.67428">
        <ele>267.75</ele>
        <time>2018-06-17T08:20:26Z</time>
      </trkpt>
      <trkpt lat="45.10822" lon="5.67406">
        <ele>269.84</ele>
        <time>2018-06-17T08:20:28Z</time>
      </trkpt>
      <trkpt lat="45.10804" lon="5.67387">
        <ele>272.55</ele>
        <time>2018-06-17T08:20:30Z</time>
      </trkpt>
      <trkpt lat="45.10786" lon="5.6737">
        <ele>275.52</ele>
        <time>2018-06-17T08:20:32Z</time>
      </trkpt>
      <trkpt lat="45.10767" lon="5.67354">
        <ele>276.7</ele>
        <time>2018-06-17T08:20:34Z</time>
      </trkpt>
      <trkpt lat="45.10749" lon="5.67337">
        <ele>277.72</ele>
        <time>2018-06-17T08:20:36Z</time>
      </trkpt>
      <trkpt lat="45.10732" lon="5.67322">
        <ele>278.02</ele>
        <time>2018-06-17T08:20:38Z</time>
      </trkpt>
      <trkpt lat="45.10715" lon="5.67307">
        <ele>278.75</ele>
        <time>2018-06-17T08:20:40Z</time>
      </trkpt>
      <trkpt lat="45.107" lon="5.67291">
        <ele>279.02</ele>
        <time>2018-06-17T08:20:42Z</time>
      </trkpt>
      <trkpt lat="45.10679" lon="5.67271">
        <ele>280.72</ele>
        <time>2018-06-17T08:20:45Z</time>
      </trkpt>
      <trkpt lat="45.10656" lon="5.67265">
        <ele>281.74</ele>
        <time>2018-06-17T08:20:48Z</time>
      </trkpt>
      <trkpt lat="45.10637" lon="5.67264">
        <ele>282.93</ele>
        <time>2018-06-17T08:20:50Z</time>
      </trkpt>
      <trkpt lat="45.10616" lon="5.67268">
        <ele>282.34</ele>
        <time>2018-06-17T08:20:52Z</time>
      </trkpt>
      <trkpt lat="45.10595" lon="5.67277">
        <ele>282.08</ele>
        <time>2018-06-17T08:20:54Z</time>
      </trkpt>
      <trkpt lat="45.10578" lon="5.67287">
        <ele>281.35</ele>
        <time>2018-06-17T08:20:56Z</time>
      </trkpt>
      <trkpt lat="45.10558" lon="5.67298">
        <ele>280.38</ele>
        <time>2018-06-17T08:20:58Z</time>
      </trkpt>
      <trkpt lat="45.1054" lon="5.67312">
        <ele>280.08</ele>
        <time>2018-06-17T08:21:00Z</time>
      </trkpt>
      <trkpt lat="45.10523" lon="5.67329">
        <ele>278.23</ele>
        <time>2018-06-17T08:21:02Z</time>
      </trkpt>
      <trkpt lat="45.10509" lon="5.67346">
        <ele>277.37</ele>
        <time>2018-06-17T08:21:04Z</time>
      </trkpt>
      <trkpt lat="45.10491" lon="5.67359">
        <ele>277.08</ele>
        <time>2018-06-17T08:21:06Z</time>
      </trkpt>
      <trkpt lat="45.10472" lon="5.67359">
        <ele>277.75</ele>
        <time>2018-06-17T08:21:08Z</time>
      </trkpt>
      <trkpt lat="45.10448" lon="5.67355">
        <ele>278.1</ele>
        <time>2018-06-17T08:21:11Z</time>
      </trkpt>
      <trkpt lat="45.10427" lon="5.67347">
        <ele>278.05</ele>
        <time>2018-06-17T08:21:13Z</time>
      </trkpt>
      <trkpt lat="45.10406" lon="5.67338">
        <ele>277.14</ele>
        <time>2018-06-17T08:21:15Z</time>
      </trkpt>
      <trkpt lat="45.10384" lon="5.67327">
        <ele>277.97</ele>
        <time>2018-06-17T08:21:17Z</time>
      </trkpt>
      <trkpt lat="45.10363" lon="5.67316">
        <ele>277.83</ele>
        <time>2018-06-17T08:21:19Z</time>
      </trkpt>
      <trkpt lat="45.10342" lon="5.67307">
        <ele>278.94</ele>
        <time>2018-06-17T08:21:21Z</time>
      </trkpt>
      <trkpt lat="45.10321" lon="5.67299">
        <ele>279.04</ele>
        <time>2018-06-17T08:21:23Z</time>
      </trkpt>
      <trkpt lat="45.10299" lon="5.67292">
        <ele>279.05</ele>
        <time>2018-06-17T08:21:25Z</time>
      </trkpt>
      <trkpt lat="45.10277" lon="5.67285">
        <ele>278.35</ele>
        <time>2018-06-17T08:21:27Z</time>
      </trkpt>
      <trkpt lat="45.10255" lon="5.67277">
        <ele>278.08</ele>
        <time>2018-06-17T08:21:29Z</time>
      </trkpt>
      <trkpt lat="45.10234" lon="5.67272">
        <ele>277.14</ele>
        <time>2018-06-17T08:21:31Z</time>
      </trkpt>
      <trkpt lat="45.10215" lon="5.67266">
        <ele>277.06</ele>
        <time>2018-06-17T08:21:33Z</time>
      </trkpt>
      <trkpt lat="45.10191" lon="5.67257">
        <ele>276.14</ele>
        <time>2018-06-17T08:21:36Z</time>
      </trkpt>
      <trkpt lat="45.10172" lon="5.67246">
        <ele>276.05</ele>
        <time>2018-06-17T08:21:39Z</time>
      </trkpt>
      <trkpt lat="45.10169" lon="5.67217">
        <ele>276.02</ele>
        <time>2018-06-17T08:21:44Z</time>
      </trkpt>
      <trkpt lat="45.10177" lon="5.67189">
        <ele>276.11</ele>
        <time>2018-06-17T08:21:47Z</time>
      </trkpt>
      <trkpt lat="45.10184" lon="5.6716">
        <ele>276.05</ele>
        <time>2018-06-17T08:21:50Z</time>
      </trkpt>
      <trkpt lat="45.10188" lon="5.67134">
        <ele>276.32</ele>
        <time>2018-06-17T08:21:54Z</time>
      </trkpt>
      <trkpt lat="45.10191" lon="5.67102">
        <ele>273.05</ele>
        <time>2018-06-17T08:28:38Z</time>
      </trkpt>
      <trkpt lat="45.10198" lon="5.67075">
        <ele>273.96</ele>
        <time>2018-06-17T08:28:41Z</time>
      </trkpt>
      <trkpt lat="45.10204" lon="5.67045">
        <ele>275.66</ele>
        <time>2018-06-17T08:28:44Z</time>
      </trkpt>
      <trkpt lat="45.10212" lon="5.67017">
        <ele>276.95</ele>
        <time>2018-06-17T08:28:47Z</time>
      </trkpt>
      <trkpt lat="45.10216" lon="5.66991">
        <ele>277.96</ele>
        <time>2018-06-17T08:28:50Z</time>
      </trkpt>
      <trkpt lat="45.10196" lon="5.66974">
        <ele>276.15</ele>
        <time>2018-06-17T08:28:56Z</time>
      </trkpt>
      <trkpt lat="45.10174" lon="5.66967">
        <ele>274.65</ele>
        <time>2018-06-17T08:28:59Z</time>
      </trkpt>
      <trkpt lat="45.10148" lon="5.66957">
        <ele>274.07</ele>
        <time>2018-06-17T08:29:02Z</time>
      </trkpt>
      <trkpt lat="45.10125" lon="5.66948">
        <ele>273.84</ele>
        <time>2018-06-17T08:29:04Z</time>
      </trkpt>
      <trkpt lat="45.10101" lon="5.66939">
        <ele>273.12</ele>
        <time>2018-06-17T08:29:06Z</time>
      </trkpt>
      <trkpt lat="45.10076" lon="5.66932">
        <ele>271.66</ele>
        <time>2018-06-17T08:29:08Z</time>
      </trkpt>
      <trkpt lat="45.10052" lon="5.66923">
        <ele>271.31</ele>
        <time>2018-06-17T08:29:10Z</time>
      </trkpt>
      <trkpt lat="45.10027" lon="5.66916">
        <ele>271.07</ele>
        <time>2018-06-17T08:29:12Z</time>
      </trkpt>
      <trkpt lat="45.10001" lon="5.66908">
        <ele>271.05</ele>
        <time>2018-06-17T08:29:14Z</time>
      </trkpt>
      <trkpt lat="45.09975" lon="5.66901">
        <ele>271.96</ele>
        <time>2018-06-17T08:29:16Z</time>
      </trkpt>
      <trkpt lat="45.09946" lon="5.66894">
        <ele>272.04</ele>
        <time>2018-06-17T08:29:18Z</time>
      </trkpt>
      <trkpt lat="45.09918" lon="5.66883">
        <ele>272.05</ele>
        <time>2018-06-17T08:29:20Z</time>
      </trkpt>
      <trkpt lat="45.09889" lon="5.66872">
        <ele>272.75</ele>
        <time>2018-06-17T08:29:22Z</time>
      </trkpt>
      <trkpt lat="45.09859" lon="5.66863">
        <ele>273.72</ele>
        <time>2018-06-17T08:29:24Z</time>
      </trkpt>
      <trkpt lat="45.09828" lon="5.66855">
        <ele>275.63</ele>
        <time>2018-06-17T08:29:26Z</time>
      </trkpt>
      <trkpt lat="45.09798" lon="5.66846">
        <ele>276.01</ele>
        <time>2018-06-17T08:29:28Z</time>
      </trkpt>
      <trkpt lat="45.09767" lon="5.66837">
        <ele>276.96</ele>
        <time>2018-06-17T08:29:30Z</time>
      </trkpt>
      <trkpt lat="45.09736" lon="5.66829">
        <ele>277.04</ele>
        <time>2018-06-17T08:29:32Z</time>
      </trkpt>
      <trkpt lat="45.09706" lon="5.66822">
        <ele>277.05</ele>
        <time>2018-06-17T08:29:34Z</time>
      </trkpt>
      <trkpt lat="45.09678" lon="5.66815">
        <ele>277.05</ele>
        <time>2018-06-17T08:29:36Z</time>
      </trkpt>
      <trkpt lat="45.09653" lon="5.66807">
        <ele>276.35</ele>
        <time>2018-06-17T08:29:38Z</time>
      </trkpt>
      <trkpt lat="45.09626" lon="5.66802">
        <ele>276.08</ele>
        <time>2018-06-17T08:29:40Z</time>
      </trkpt>
      <trkpt lat="45.09599" lon="5.66794">
        <ele>276.96</ele>
        <time>2018-06-17T08:29:42Z</time>
      </trkpt>
      <trkpt lat="45.0957" lon="5.66788">
        <ele>277.74</ele>
        <time>2018-06-17T08:29:44Z</time>
      </trkpt>
      <trkpt lat="45.0954" lon="5.6678">
        <ele>278.72</ele>
        <time>2018-06-17T08:29:46Z</time>
      </trkpt>
      <trkpt lat="45.09509" lon="5.66773">
        <ele>279.02</ele>
        <time>2018-06-17T08:29:48Z</time>
      </trkpt>
      <trkpt lat="45.0948" lon="5.66764">
        <ele>279.96</ele>
        <time>2018-06-17T08:29:50Z</time>
      </trkpt>
      <trkpt lat="45.09453" lon="5.66757">
        <ele>280.95</ele>
        <time>2018-06-17T08:29:52Z</time>
      </trkpt>
      <trkpt lat="45.09427" lon="5.6675">
        <ele>281.04</ele>
        <time>2018-06-17T08:29:54Z</time>
      </trkpt>
      <trkpt lat="45.09404" lon="5.66744">
        <ele>281.96</ele>
        <time>2018-06-17T08:29:56Z</time>
      </trkpt>
      <trkpt lat="45.09386" lon="5.66742">
        <ele>282.95</ele>
        <time>2018-06-17T08:29:58Z</time>
      </trkpt>
      <trkpt lat="45.09366" lon="5.66745">
        <ele>283.05</ele>
        <time>2018-06-17T08:30:01Z</time>
      </trkpt>
      <trkpt lat="45.09372" lon="5.66774">
        <ele>282.14</ele>
        <time>2018-06-17T08:30:05Z</time>
      </trkpt>
      <trkpt lat="45.0938" lon="5.66803">
        <ele>282.97</ele>
        <time>2018-06-17T08:30:07Z</time>
      </trkpt>
      <trkpt lat="45.09384" lon="5.66837">
        <ele>283.95</ele>
        <time>2018-06-17T08:30:09Z</time>
      </trkpt>
      <trkpt lat="45.09386" lon="5.66873">
        <ele>284.95</ele>
        <time>2018-06-17T08:30:11Z</time>
      </trkpt>
      <trkpt lat="45.09381" lon="5.66912">
        <ele>285.95</ele>
        <time>2018-06-17T08:30:13Z</time>
      </trkpt>
      <trkpt lat="45.0937" lon="5.6695">
        <ele>286.95</ele>
        <time>2018-06-17T08:30:15Z</time>
      </trkpt>
      <trkpt lat="45.09359" lon="5.66986">
        <ele>287.04</ele>
        <time>2018-06-17T08:30:17Z</time>
      </trkpt>
      <trkpt lat="45.09349" lon="5.67017">
        <ele>286.35</ele>
        <time>2018-06-17T08:30:19Z</time>
      </trkpt>
      <trkpt lat="45.09338" lon="5.6705">
        <ele>284.47</ele>
        <time>2018-06-17T08:30:21Z</time>
      </trkpt>
      <trkpt lat="45.09328" lon="5.67086">
        <ele>282.48</ele>
        <time>2018-06-17T08:30:23Z</time>
      </trkpt>
      <trkpt lat="45.09325" lon="5.67126">
        <ele>279.78</ele>
        <time>2018-06-17T08:30:25Z</time>
      </trkpt>
      <trkpt lat="45.09326" lon="5.67159">
        <ele>277.5</ele>
        <time>2018-06-17T08:30:27Z</time>
      </trkpt>
      <trkpt lat="45.09329" lon="5.67191">
        <ele>277.05</ele>
        <time>2018-06-17T08:30:32Z</time>
      </trkpt>
      <trkpt lat="45.09332" lon="5.67225">
        <ele>276.08</ele>
        <time>2018-06-17T08:30:35Z</time>
      </trkpt>
      <trkpt lat="45.09338" lon="5.67255">
        <ele>276.05</ele>
        <time>2018-06-17T08:30:37Z</time>
      </trkpt>
      <trkpt lat="45.09342" lon="5.67289">
        <ele>276.05</ele>
        <time>2018-06-17T08:30:39Z</time>
      </trkpt>
      <trkpt lat="45.09344" lon="5.67324">
        <ele>276.05</ele>
        <time>2018-06-17T08:30:41Z</time>
      </trkpt>
      <trkpt lat="45.09343" lon="5.67358">
        <ele>276.26</ele>
        <time>2018-06-17T08:30:43Z</time>
      </trkpt>
      <trkpt lat="45.09341" lon="5.67391">
        <ele>276.07</ele>
        <time>2018-06-17T08:30:45Z</time>
      </trkpt>
      <trkpt lat="45.09336" lon="5.6742">
        <ele>276.05</ele>
        <time>2018-06-17T08:30:47Z</time>
      </trkpt>
      <trkpt lat="45.09326" lon="5.67456">
        <ele>276.05</ele>
        <time>2018-06-17T08:30:50Z</time>
      </trkpt>
      <trkpt lat="45.09316" lon="5.67486">
        <ele>276.26</ele>
        <time>2018-06-17T08:30:52Z</time>
      </trkpt>
      <trkpt lat="45.09305" lon="5.67521">
        <ele>276.28</ele>
        <time>2018-06-17T08:30:54Z</time>
      </trkpt>
      <trkpt lat="45.09294" lon="5.67555">
        <ele>275.37</ele>
        <time>2018-06-17T08:30:56Z</time>
      </trkpt>
      <trkpt lat="45.09283" lon="5.67589">
        <ele>275.08</ele>
        <time>2018-06-17T08:30:58Z</time>
      </trkpt>
      <trkpt lat="45.09272" lon="5.67619">
        <ele>275.96</ele>
        <time>2018-06-17T08:31:00Z</time>
      </trkpt>
      <trkpt lat="45.09264" lon="5.67648">
        <ele>275.13</ele>
        <time>2018-06-17T08:31:02Z</time>
      </trkpt>
      <trkpt lat="45.09256" lon="5.67678">
        <ele>274.36</ele>
        <time>2018-06-17T08:31:04Z</time>
      </trkpt>
      <trkpt lat="45.09251" lon="5.67703">
        <ele>274.08</ele>
        <time>2018-06-17T08:31:06Z</time>
      </trkpt>
      <trkpt lat="45.09241" lon="5.67726">
        <ele>273.84</ele>
        <time>2018-06-17T08:31:08Z</time>
      </trkpt>
      <trkpt lat="45.09225" lon="5.67745">
        <ele>274.03</ele>
        <time>2018-06-17T08:31:10Z</time>
      </trkpt>
      <trkpt lat="45.09205" lon="5.67757">
        <ele>273.84</ele>
        <time>2018-06-17T08:31:12Z</time>
      </trkpt>
      <trkpt lat="45.09182" lon="5.67772">
        <ele>274.94</ele>
        <time>2018-06-17T08:31:14Z</time>
      </trkpt>
      <trkpt lat="45.09165" lon="5.67792">
        <ele>275.04</ele>
        <time>2018-06-17T08:31:16Z</time>
      </trkpt>
      <trkpt lat="45.09151" lon="5.67816">
        <ele>275.05</ele>
        <time>2018-06-17T08:31:18Z</time>
      </trkpt>
      <trkpt lat="45.09133" lon="5.67832">
        <ele>275.05</ele>
        <time>2018-06-17T08:31:21Z</time>
      </trkpt>
      <trkpt lat="45.09112" lon="5.67843">
        <ele>276.79</ele>
        <time>2018-06-17T08:31:24Z</time>
      </trkpt>
      <trkpt lat="45.09103" lon="5.67867">
        <ele>276.12</ele>
        <time>2018-06-17T08:31:26Z</time>
      </trkpt>
      <trkpt lat="45.09088" lon="5.67884">
        <ele>276.75</ele>
        <time>2018-06-17T08:31:28Z</time>
      </trkpt>
      <trkpt lat="45.09072" lon="5.67896">
        <ele>276.81</ele>
        <time>2018-06-17T08:31:30Z</time>
      </trkpt>
      <trkpt lat="45.09048" lon="5.6791">
        <ele>277.95</ele>
        <time>2018-06-17T08:31:33Z</time>
      </trkpt>
      <trkpt lat="45.09029" lon="5.67923">
        <ele>278.04</ele>
        <time>2018-06-17T08:31:35Z</time>
      </trkpt>
      <trkpt lat="45.09009" lon="5.67932">
        <ele>277.84</ele>
        <time>2018-06-17T08:31:38Z</time>
      </trkpt>
      <trkpt lat="45.08989" lon="5.67916">
        <ele>278.74</ele>
        <time>2018-06-17T08:31:41Z</time>
      </trkpt>
      <trkpt lat="45.08971" lon="5.6791">
        <ele>279.02</ele>
        <time>2018-06-17T08:31:43Z</time>
      </trkpt>
      <trkpt lat="45.08949" lon="5.67909">
        <ele>279.96</ele>
        <time>2018-06-17T08:31:45Z</time>
      </trkpt>
      <trkpt lat="45.08928" lon="5.67903">
        <ele>280.95</ele>
        <time>2018-06-17T08:31:47Z</time>
      </trkpt>
      <trkpt lat="45.08909" lon="5.67892">
        <ele>281.04</ele>
        <time>2018-06-17T08:31:49Z</time>
      </trkpt>
      <trkpt lat="45.08888" lon="5.6788">
        <ele>281.81</ele>
        <time>2018-06-17T08:31:52Z</time>
      </trkpt>
      <trkpt lat="45.08868" lon="5.67891">
        <ele>282.95</ele>
        <time>2018-06-17T08:31:55Z</time>
      </trkpt>
      <trkpt lat="45.08855" lon="5.67912">
        <ele>283.95</ele>
        <time>2018-06-17T08:31:57Z</time>
      </trkpt>
      <trkpt lat="45.08841" lon="5.67933">
        <ele>283.83</ele>
        <time>2018-06-17T08:31:59Z</time>
      </trkpt>
      <trkpt lat="45.08825" lon="5.67943">
        <ele>283.12</ele>
        <time>2018-06-17T08:32:01Z</time>
      </trkpt>
      <trkpt lat="45.08803" lon="5.67953">
        <ele>283.69</ele>
        <time>2018-06-17T08:32:04Z</time>
      </trkpt>
      <trkpt lat="45.08789" lon="5.67978">
        <ele>283.34</ele>
        <time>2018-06-17T08:32:07Z</time>
      </trkpt>
      <trkpt lat="45.08775" lon="5.68002">
        <ele>283.97</ele>
        <time>2018-06-17T08:32:10Z</time>
      </trkpt>
      <trkpt lat="45.08766" lon="5.68027">
        <ele>284.02</ele>
        <time>2018-06-17T08:32:16Z</time>
      </trkpt>
      <trkpt lat="45.08754" lon="5.68053">
        <ele>284.05</ele>
        <time>2018-06-17T08:32:23Z</time>
      </trkpt>
      <trkpt lat="45.08744" lon="5.68077">
        <ele>283.43</ele>
        <time>2018-06-17T08:32:27Z</time>
      </trkpt>
      <trkpt lat="45.08732" lon="5.68101">
        <ele>283.82</ele>
        <time>2018-06-17T08:32:30Z</time>
      </trkpt>
      <trkpt lat="45.08722" lon="5.68123">
        <ele>283.16</ele>
        <time>2018-06-17T08:32:35Z</time>
      </trkpt>
      <trkpt lat="45.08711" lon="5.68145">
        <ele>281.15</ele>
        <time>2018-06-17T08:32:39Z</time>
      </trkpt>
      <trkpt lat="45.08695" lon="5.68167">
        <ele>281.28</ele>
        <time>2018-06-17T08:32:43Z</time>
      </trkpt>
      <trkpt lat="45.08679" lon="5.68152">
        <ele>280.08</ele>
        <time>2018-06-17T08:32:46Z</time>
      </trkpt>
      <trkpt lat="45.08664" lon="5.68137">
        <ele>280.05</ele>
        <time>2018-06-17T08:32:48Z</time>
      </trkpt>
      <trkpt lat="45.08644" lon="5.68127">
        <ele>280.96</ele>
        <time>2018-06-17T08:32:51Z</time>
      </trkpt>
      <trkpt lat="45.08629" lon="5.68145">
        <ele>280.35</ele>
        <time>2018-06-17T08:32:54Z</time>
      </trkpt>
      <trkpt lat="45.08621" lon="5.68171">
        <ele>279.17</ele>
        <time>2018-06-17T08:32:56Z</time>
      </trkpt>
      <trkpt lat="45.08613" lon="5.68199">
        <ele>279.27</ele>
        <time>2018-06-17T08:32:58Z</time>
      </trkpt>
      <trkpt lat="45.08603" lon="5.68232">
        <ele>279.05</ele>
        <time>2018-06-17T08:33:01Z</time>
      </trkpt>
      <trkpt lat="45.08588" lon="5.68249">
        <ele>278.08</ele>
        <time>2018-06-17T08:33:05Z</time>
      </trkpt>
      <trkpt lat="45.0857" lon="5.68256">
        <ele>280.75</ele>
        <time>2018-06-17T08:33:39Z</time>
      </trkpt>
      <trkpt lat="45.08544" lon="5.68241">
        <ele>280.34</ele>
        <time>2018-06-17T08:33:42Z</time>
      </trkpt>
      <trkpt lat="45.0852" lon="5.68228">
        <ele>280.08</ele>
        <time>2018-06-17T08:33:44Z</time>
      </trkpt>
      <trkpt lat="45.08494" lon="5.68213">
        <ele>280.05</ele>
        <time>2018-06-17T08:33:46Z</time>
      </trkpt>
      <trkpt lat="45.08466" lon="5.68198">
        <ele>281.66</ele>
        <time>2018-06-17T08:33:48Z</time>
      </trkpt>
      <trkpt lat="45.0844" lon="5.68183">
        <ele>282.01</ele>
        <time>2018-06-17T08:33:50Z</time>
      </trkpt>
      <trkpt lat="45.08414" lon="5.68167">
        <ele>280.44</ele>
        <time>2018-06-17T08:33:52Z</time>
      </trkpt>
      <trkpt lat="45.08385" lon="5.68152">
        <ele>279.38</ele>
        <time>2018-06-17T08:33:54Z</time>
      </trkpt>
      <trkpt lat="45.08356" lon="5.68134">
        <ele>279.78</ele>
        <time>2018-06-17T08:33:56Z</time>
      </trkpt>
      <trkpt lat="45.08327" lon="5.68117">
        <ele>281.42</ele>
        <time>2018-06-17T08:33:58Z</time>
      </trkpt>
      <trkpt lat="45.08298" lon="5.68101">
        <ele>281.08</ele>
        <time>2018-06-17T08:34:00Z</time>
      </trkpt>
      <trkpt lat="45.0827" lon="5.68085">
        <ele>281.05</ele>
        <time>2018-06-17T08:34:02Z</time>
      </trkpt>
      <trkpt lat="45.08243" lon="5.68068">
        <ele>281.96</ele>
        <time>2018-06-17T08:34:04Z</time>
      </trkpt>
      <trkpt lat="45.08215" lon="5.68053">
        <ele>282.74</ele>
        <time>2018-06-17T08:34:06Z</time>
      </trkpt>
      <trkpt lat="45.08187" lon="5.68039">
        <ele>283.02</ele>
        <time>2018-06-17T08:34:08Z</time>
      </trkpt>
      <trkpt lat="45.0816" lon="5.68024">
        <ele>283.05</ele>
        <time>2018-06-17T08:34:10Z</time>
      </trkpt>
      <trkpt lat="45.08133" lon="5.68009">
        <ele>283.96</ele>
        <time>2018-06-17T08:34:12Z</time>
      </trkpt>
      <trkpt lat="45.08107" lon="5.67993">
        <ele>284.95</ele>
        <time>2018-06-17T08:34:14Z</time>
      </trkpt>
      <trkpt lat="45.0808" lon="5.67978">
        <ele>285.95</ele>
        <time>2018-06-17T08:34:16Z</time>
      </trkpt>
      <trkpt lat="45.08053" lon="5.67962">
        <ele>286.04</ele>
        <time>2018-06-17T08:34:18Z</time>
      </trkpt>
      <trkpt lat="45.08022" lon="5.67946">
        <ele>286.96</ele>
        <time>2018-06-17T08:34:20Z</time>
      </trkpt>
      <trkpt lat="45.08004" lon="5.67934">
        <ele>287.02</ele>
        <time>2018-06-17T08:34:21Z</time>
      </trkpt>
      <trkpt lat="45.07985" lon="5.67926">
        <ele>287.04</ele>
        <time>2018-06-17T08:34:22Z</time>
      </trkpt>
      <trkpt lat="45.07964" lon="5.67916">
        <ele>287.75</ele>
        <time>2018-06-17T08:34:23Z</time>
      </trkpt>
      <trkpt lat="45.07942" lon="5.67909">
        <ele>287.96</ele>
        <time>2018-06-17T08:34:24Z</time>
      </trkpt>
      <trkpt lat="45.0792" lon="5.67902">
        <ele>287.32</ele>
        <time>2018-06-17T08:34:25Z</time>
      </trkpt>
      <trkpt lat="45.07897" lon="5.67896">
        <ele>287.13</ele>
        <time>2018-06-17T08:34:26Z</time>
      </trkpt>
      <trkpt lat="45.07873" lon="5.6789">
        <ele>287.07</ele>
        <time>2018-06-17T08:34:27Z</time>
      </trkpt>
      <trkpt lat="45.0785" lon="5.67885">
        <ele>287.06</ele>
        <time>2018-06-17T08:34:28Z</time>
      </trkpt>
      <trkpt lat="45.07827" lon="5.67878">
        <ele>287.75</ele>
        <time>2018-06-17T08:34:29Z</time>
      </trkpt>
      <trkpt lat="45.07804" lon="5.67872">
        <ele>287.96</ele>
        <time>2018-06-17T08:34:30Z</time>
      </trkpt>
      <trkpt lat="45.0778" lon="5.67866">
        <ele>288.02</ele>
        <time>2018-06-17T08:34:31Z</time>
      </trkpt>
      <trkpt lat="45.07757" lon="5.6786">
        <ele>288.04</ele>
        <time>2018-06-17T08:34:32Z</time>
      </trkpt>
      <trkpt lat="45.07734" lon="5.67853">
        <ele>288.75</ele>
        <time>2018-06-17T08:34:33Z</time>
      </trkpt>
      <trkpt lat="45.07711" lon="5.67847">
        <ele>288.96</ele>
        <time>2018-06-17T08:34:34Z</time>
      </trkpt>
      <trkpt lat="45.07688" lon="5.6784">
        <ele>289.72</ele>
        <time>2018-06-17T08:34:35Z</time>
      </trkpt>
      <trkpt lat="45.07666" lon="5.67835">
        <ele>289.25</ele>
        <time>2018-06-17T08:34:36Z</time>
      </trkpt>
      <trkpt lat="45.07644" lon="5.67828">
        <ele>289.81</ele>
        <time>2018-06-17T08:34:37Z</time>
      </trkpt>
      <trkpt lat="45.07622" lon="5.67822">
        <ele>289.98</ele>
        <time>2018-06-17T08:34:38Z</time>
      </trkpt>
      <trkpt lat="45.07601" lon="5.67816">
        <ele>290.03</ele>
        <time>2018-06-17T08:34:39Z</time>
      </trkpt>
      <trkpt lat="45.0758" lon="5.67812">
        <ele>290.74</ele>
        <time>2018-06-17T08:34:40Z</time>
      </trkpt>
      <trkpt lat="45.0756" lon="5.67807">
        <ele>290.96</ele>
        <time>2018-06-17T08:34:41Z</time>
      </trkpt>
      <trkpt lat="45.07539" lon="5.67801">
        <ele>291.02</ele>
        <time>2018-06-17T08:34:42Z</time>
      </trkpt>
      <trkpt lat="45.0752" lon="5.67795">
        <ele>291.04</ele>
        <time>2018-06-17T08:34:43Z</time>
      </trkpt>
      <trkpt lat="45.075" lon="5.67787">
        <ele>291.05</ele>
        <time>2018-06-17T08:34:44Z</time>
      </trkpt>
      <trkpt lat="45.07481" lon="5.67777">
        <ele>291.05</ele>
        <time>2018-06-17T08:34:45Z</time>
      </trkpt>
      <trkpt lat="45.07462" lon="5.67766">
        <ele>291.05</ele>
        <time>2018-06-17T08:34:46Z</time>
      </trkpt>
      <trkpt lat="45.07445" lon="5.67756">
        <ele>291.75</ele>
        <time>2018-06-17T08:34:47Z</time>
      </trkpt>
      <trkpt lat="45.07413" lon="5.67736">
        <ele>292.02</ele>
        <time>2018-06-17T08:34:49Z</time>
      </trkpt>
      <trkpt lat="45.07386" lon="5.67721">
        <ele>292.05</ele>
        <time>2018-06-17T08:34:51Z</time>
      </trkpt>
      <trkpt lat="45.07369" lon="5.67714">
        <ele>292.05</ele>
        <time>2018-06-17T08:34:53Z</time>
      </trkpt>
      <trkpt lat="45.07349" lon="5.67704">
        <ele>292.11</ele>
        <time>2018-06-17T08:34:56Z</time>
      </trkpt>
      <trkpt lat="45.07333" lon="5.67691">
        <ele>292.05</ele>
        <time>2018-06-17T08:34:58Z</time>
      </trkpt>
      <trkpt lat="45.07313" lon="5.67678">
        <ele>292.05</ele>
        <time>2018-06-17T08:35:00Z</time>
      </trkpt>
      <trkpt lat="45.07293" lon="5.67661">
        <ele>292.05</ele>
        <time>2018-06-17T08:35:02Z</time>
      </trkpt>
      <trkpt lat="45.07269" lon="5.67645">
        <ele>292.05</ele>
        <time>2018-06-17T08:35:04Z</time>
      </trkpt>
      <trkpt lat="45.07242" lon="5.67628">
        <ele>292.05</ele>
        <time>2018-06-17T08:35:06Z</time>
      </trkpt>
      <trkpt lat="45.07213" lon="5.67609">
        <ele>292.75</ele>
        <time>2018-06-17T08:35:08Z</time>
      </trkpt>
      <trkpt lat="45.07184" lon="5.6759">
        <ele>293.02</ele>
        <time>2018-06-17T08:35:10Z</time>
      </trkpt>
      <trkpt lat="45.07153" lon="5.67571">
        <ele>293.75</ele>
        <time>2018-06-17T08:35:12Z</time>
      </trkpt>
      <trkpt lat="45.07121" lon="5.67551">
        <ele>294.02</ele>
        <time>2018-06-17T08:35:14Z</time>
      </trkpt>
      <trkpt lat="45.07104" lon="5.6754">
        <ele>294.04</ele>
        <time>2018-06-17T08:35:15Z</time>
      </trkpt>
      <trkpt lat="45.07088" lon="5.6753">
        <ele>294.75</ele>
        <time>2018-06-17T08:35:16Z</time>
      </trkpt>
      <trkpt lat="45.07071" lon="5.6752">
        <ele>294.96</ele>
        <time>2018-06-17T08:35:17Z</time>
      </trkpt>
      <trkpt lat="45.07054" lon="5.6751">
        <ele>295.02</ele>
        <time>2018-06-17T08:35:18Z</time>
      </trkpt>
      <trkpt lat="45.07021" lon="5.67489">
        <ele>295.05</ele>
        <time>2018-06-17T08:35:20Z</time>
      </trkpt>
      <trkpt lat="45.07005" lon="5.67479">
        <ele>295.75</ele>
        <time>2018-06-17T08:35:21Z</time>
      </trkpt>
      <trkpt lat="45.06988" lon="5.67468">
        <ele>295.96</ele>
        <time>2018-06-17T08:35:22Z</time>
      </trkpt>
      <trkpt lat="45.06971" lon="5.67458">
        <ele>296.02</ele>
        <time>2018-06-17T08:35:23Z</time>
      </trkpt>
      <trkpt lat="45.06954" lon="5.67448">
        <ele>296.04</ele>
        <time>2018-06-17T08:35:24Z</time>
      </trkpt>
      <trkpt lat="45.06937" lon="5.67436">
        <ele>296.75</ele>
        <time>2018-06-17T08:35:25Z</time>
      </trkpt>
      <trkpt lat="45.06919" lon="5.67426">
        <ele>296.96</ele>
        <time>2018-06-17T08:35:26Z</time>
      </trkpt>
      <trkpt lat="45.06902" lon="5.67416">
        <ele>297.02</ele>
        <time>2018-06-17T08:35:27Z</time>
      </trkpt>
      <trkpt lat="45.06885" lon="5.67406">
        <ele>297.74</ele>
        <time>2018-06-17T08:35:28Z</time>
      </trkpt>
      <trkpt lat="45.06869" lon="5.67395">
        <ele>297.26</ele>
        <time>2018-06-17T08:35:29Z</time>
      </trkpt>
      <trkpt lat="45.06852" lon="5.67386">
        <ele>297.81</ele>
        <time>2018-06-17T08:35:30Z</time>
      </trkpt>
      <trkpt lat="45.06835" lon="5.67375">
        <ele>297.98</ele>
        <time>2018-06-17T08:35:31Z</time>
      </trkpt>
      <trkpt lat="45.06818" lon="5.67365">
        <ele>298.03</ele>
        <time>2018-06-17T08:35:32Z</time>
      </trkpt>
      <trkpt lat="45.06802" lon="5.67354">
        <ele>298.74</ele>
        <time>2018-06-17T08:35:33Z</time>
      </trkpt>
      <trkpt lat="45.06785" lon="5.67344">
        <ele>298.96</ele>
        <time>2018-06-17T08:35:34Z</time>
      </trkpt>
      <trkpt lat="45.06768" lon="5.67332">
        <ele>299.02</ele>
        <time>2018-06-17T08:35:35Z</time>
      </trkpt>
      <trkpt lat="45.0674" lon="5.6731">
        <ele>299.96</ele>
        <time>2018-06-17T08:35:37Z</time>
      </trkpt>
      <trkpt lat="45.06717" lon="5.67287">
        <ele>300.95</ele>
        <time>2018-06-17T08:35:39Z</time>
      </trkpt>
      <trkpt lat="45.067" lon="5.67265">
        <ele>301.74</ele>
        <time>2018-06-17T08:35:41Z</time>
      </trkpt>
      <trkpt lat="45.06687" lon="5.67244">
        <ele>302.02</ele>
        <time>2018-06-17T08:35:43Z</time>
      </trkpt>
      <trkpt lat="45.06677" lon="5.67212">
        <ele>303.02</ele>
        <time>2018-06-17T08:35:46Z</time>
      </trkpt>
      <trkpt lat="45.06658" lon="5.67195">
        <ele>303.75</ele>
        <time>2018-06-17T08:35:49Z</time>
      </trkpt>
      <trkpt lat="45.06638" lon="5.67195">
        <ele>304.02</ele>
        <time>2018-06-17T08:35:51Z</time>
      </trkpt>
      <trkpt lat="45.06614" lon="5.6719">
        <ele>303.35</ele>
        <time>2018-06-17T08:35:53Z</time>
      </trkpt>
      <trkpt lat="45.0659" lon="5.67177">
        <ele>303.08</ele>
        <time>2018-06-17T08:35:55Z</time>
      </trkpt>
      <trkpt lat="45.06566" lon="5.6716">
        <ele>303.75</ele>
        <time>2018-06-17T08:35:57Z</time>
      </trkpt>
      <trkpt lat="45.06545" lon="5.67139">
        <ele>304.02</ele>
        <time>2018-06-17T08:35:59Z</time>
      </trkpt>
      <trkpt lat="45.06522" lon="5.67116">
        <ele>304.75</ele>
        <time>2018-06-17T08:36:01Z</time>
      </trkpt>
      <trkpt lat="45.06496" lon="5.67091">
        <ele>305.02</ele>
        <time>2018-06-17T08:36:03Z</time>
      </trkpt>
      <trkpt lat="45.06469" lon="5.67063">
        <ele>305.75</ele>
        <time>2018-06-17T08:36:05Z</time>
      </trkpt>
      <trkpt lat="45.06445" lon="5.67037">
        <ele>306.72</ele>
        <time>2018-06-17T08:36:07Z</time>
      </trkpt>
      <trkpt lat="45.06424" lon="5.67015">
        <ele>307.72</ele>
        <time>2018-06-17T08:36:09Z</time>
      </trkpt>
      <trkpt lat="45.06403" lon="5.66995">
        <ele>308.02</ele>
        <time>2018-06-17T08:36:11Z</time>
      </trkpt>
      <trkpt lat="45.06382" lon="5.66977">
        <ele>308.05</ele>
        <time>2018-06-17T08:36:13Z</time>
      </trkpt>
      <trkpt lat="45.06358" lon="5.66961">
        <ele>308.05</ele>
        <time>2018-06-17T08:36:15Z</time>
      </trkpt>
      <trkpt lat="45.06335" lon="5.66946">
        <ele>308.96</ele>
        <time>2018-06-17T08:36:17Z</time>
      </trkpt>
      <trkpt lat="45.06311" lon="5.66937">
        <ele>308.34</ele>
        <time>2018-06-17T08:36:19Z</time>
      </trkpt>
      <trkpt lat="45.06287" lon="5.66928">
        <ele>308.29</ele>
        <time>2018-06-17T08:36:21Z</time>
      </trkpt>
      <trkpt lat="45.06262" lon="5.66921">
        <ele>308.07</ele>
        <time>2018-06-17T08:36:23Z</time>
      </trkpt>
      <trkpt lat="45.06236" lon="5.66914">
        <ele>308.96</ele>
        <time>2018-06-17T08:36:25Z</time>
      </trkpt>
      <trkpt lat="45.06209" lon="5.66905">
        <ele>309.95</ele>
        <time>2018-06-17T08:36:27Z</time>
      </trkpt>
      <trkpt lat="45.06183" lon="5.66898">
        <ele>310.04</ele>
        <time>2018-06-17T08:36:29Z</time>
      </trkpt>
      <trkpt lat="45.06158" lon="5.66891">
        <ele>310.05</ele>
        <time>2018-06-17T08:36:31Z</time>
      </trkpt>
      <trkpt lat="45.06134" lon="5.66883">
        <ele>310.05</ele>
        <time>2018-06-17T08:36:33Z</time>
      </trkpt>
      <trkpt lat="45.06108" lon="5.66876">
        <ele>310.75</ele>
        <time>2018-06-17T08:36:35Z</time>
      </trkpt>
      <trkpt lat="45.06083" lon="5.66867">
        <ele>311.72</ele>
        <time>2018-06-17T08:36:37Z</time>
      </trkpt>
      <trkpt lat="45.06059" lon="5.66858">
        <ele>312.02</ele>
        <time>2018-06-17T08:36:39Z</time>
      </trkpt>
      <trkpt lat="45.06035" lon="5.66849">
        <ele>312.05</ele>
        <time>2018-06-17T08:36:41Z</time>
      </trkpt>
      <trkpt lat="45.0601" lon="5.66842">
        <ele>312.96</ele>
        <time>2018-06-17T08:36:43Z</time>
      </trkpt>
      <trkpt lat="45.05984" lon="5.66835">
        <ele>313.95</ele>
        <time>2018-06-17T08:36:45Z</time>
      </trkpt>
      <trkpt lat="45.05959" lon="5.66829">
        <ele>314.04</ele>
        <time>2018-06-17T08:36:47Z</time>
      </trkpt>
      <trkpt lat="45.05933" lon="5.66823">
        <ele>314.75</ele>
        <time>2018-06-17T08:36:49Z</time>
      </trkpt>
      <trkpt lat="45.05908" lon="5.66817">
        <ele>315.02</ele>
        <time>2018-06-17T08:36:51Z</time>
      </trkpt>
      <trkpt lat="45.05882" lon="5.66811">
        <ele>315.05</ele>
        <time>2018-06-17T08:36:53Z</time>
      </trkpt>
      <trkpt lat="45.05857" lon="5.66804">
        <ele>315.75</ele>
        <time>2018-06-17T08:36:55Z</time>
      </trkpt>
      <trkpt lat="45.05832" lon="5.66797">
        <ele>316.02</ele>
        <time>2018-06-17T08:36:57Z</time>
      </trkpt>
      <trkpt lat="45.05809" lon="5.6679">
        <ele>315.35</ele>
        <time>2018-06-17T08:36:59Z</time>
      </trkpt>
      <trkpt lat="45.05782" lon="5.66783">
        <ele>315.99</ele>
        <time>2018-06-17T08:37:01Z</time>
      </trkpt>
      <trkpt lat="45.05753" lon="5.66773">
        <ele>316.04</ele>
        <time>2018-06-17T08:37:03Z</time>
      </trkpt>
      <trkpt lat="45.05724" lon="5.66763">
        <ele>316.96</ele>
        <time>2018-06-17T08:37:05Z</time>
      </trkpt>
      <trkpt lat="45.057" lon="5.66755">
        <ele>316.13</ele>
        <time>2018-06-17T08:37:07Z</time>
      </trkpt>
      <trkpt lat="45.05681" lon="5.66749">
        <ele>315.15</ele>
        <time>2018-06-17T08:37:09Z</time>
      </trkpt>
      <trkpt lat="45.05659" lon="5.66743">
        <ele>315.76</ele>
        <time>2018-06-17T08:37:11Z</time>
      </trkpt>
      <trkpt lat="45.05638" lon="5.66737">
        <ele>316.02</ele>
        <time>2018-06-17T08:37:13Z</time>
      </trkpt>
      <trkpt lat="45.05619" lon="5.66737">
        <ele>316.96</ele>
        <time>2018-06-17T08:37:15Z</time>
      </trkpt>
      <trkpt lat="45.05607" lon="5.66764">
        <ele>317.68</ele>
        <time>2018-06-17T08:37:18Z</time>
      </trkpt>
      <trkpt lat="45.05601" lon="5.66801">
        <ele>318.04</ele>
        <time>2018-06-17T08:37:21Z</time>
      </trkpt>
      <trkpt lat="45.05596" lon="5.66829">
        <ele>317.14</ele>
        <time>2018-06-17T08:37:23Z</time>
      </trkpt>
      <trkpt lat="45.05591" lon="5.66856">
        <ele>317.06</ele>
        <time>2018-06-17T08:37:25Z</time>
      </trkpt>
      <trkpt lat="45.05587" lon="5.66881">
        <ele>316.14</ele>
        <time>2018-06-17T08:37:27Z</time>
      </trkpt>
      <trkpt lat="45.05583" lon="5.66906">
        <ele>316.06</ele>
        <time>2018-06-17T08:37:29Z</time>
      </trkpt>
      <trkpt lat="45.05577" lon="5.66938">
        <ele>315.08</ele>
        <time>2018-06-17T08:37:32Z</time>
      </trkpt>
      <trkpt lat="45.05562" lon="5.66952">
        <ele>314.14</ele>
        <time>2018-06-17T08:37:36Z</time>
      </trkpt>
      <trkpt lat="45.05542" lon="5.66946">
        <ele>313.08</ele>
        <time>2018-06-17T08:37:39Z</time>
      </trkpt>
      <trkpt lat="45.05523" lon="5.66942">
        <ele>313.75</ele>
        <time>2018-06-17T08:37:41Z</time>
      </trkpt>
      <trkpt lat="45.05498" lon="5.66933">
        <ele>314.38</ele>
        <time>2018-06-17T08:37:44Z</time>
      </trkpt>
      <trkpt lat="45.05479" lon="5.66929">
        <ele>314.99</ele>
        <time>2018-06-17T08:37:46Z</time>
      </trkpt>
      <trkpt lat="45.05458" lon="5.66928">
        <ele>315.04</ele>
        <time>2018-06-17T08:37:48Z</time>
      </trkpt>
      <trkpt lat="45.05436" lon="5.6693">
        <ele>315.96</ele>
        <time>2018-06-17T08:37:50Z</time>
      </trkpt>
      <trkpt lat="45.05413" lon="5.66928">
        <ele>314.64</ele>
        <time>2018-06-17T08:37:52Z</time>
      </trkpt>
      <trkpt lat="45.05394" lon="5.66929">
        <ele>315.01</ele>
        <time>2018-06-17T08:37:54Z</time>
      </trkpt>
      <trkpt lat="45.05368" lon="5.66922">
        <ele>313.17</ele>
        <time>2018-06-17T08:37:57Z</time>
      </trkpt>
      <trkpt lat="45.05351" lon="5.66914">
        <ele>313.06</ele>
        <time>2018-06-17T08:37:59Z</time>
      </trkpt>
      <trkpt lat="45.05333" lon="5.66904">
        <ele>313.75</ele>
        <time>2018-06-17T08:38:01Z</time>
      </trkpt>
      <trkpt lat="45.05315" lon="5.66894">
        <ele>314.93</ele>
        <time>2018-06-17T08:38:03Z</time>
      </trkpt>
      <trkpt lat="45.05298" lon="5.66882">
        <ele>315.74</ele>
        <time>2018-06-17T08:38:05Z</time>
      </trkpt>
      <trkpt lat="45.05277" lon="5.66875">
        <ele>315.81</ele>
        <time>2018-06-17T08:38:07Z</time>
      </trkpt>
      <trkpt lat="45.05255" lon="5.66867">
        <ele>314.42</ele>
        <time>2018-06-17T08:38:09Z</time>
      </trkpt>
      <trkpt lat="45.05231" lon="5.66865">
        <ele>315.9</ele>
        <time>2018-06-17T08:38:11Z</time>
      </trkpt>
      <trkpt lat="45.05206" lon="5.66856">
        <ele>316.04</ele>
        <time>2018-06-17T08:38:13Z</time>
      </trkpt>
      <trkpt lat="45.05179" lon="5.66847">
        <ele>316.96</ele>
        <time>2018-06-17T08:38:15Z</time>
      </trkpt>
      <trkpt lat="45.05151" lon="5.66845">
        <ele>317.95</ele>
        <time>2018-06-17T08:38:17Z</time>
      </trkpt>
      <trkpt lat="45.05121" lon="5.66845">
        <ele>318.74</ele>
        <time>2018-06-17T08:38:19Z</time>
      </trkpt>
      <trkpt lat="45.05089" lon="5.66844">
        <ele>319.93</ele>
        <time>2018-06-17T08:38:21Z</time>
      </trkpt>
      <trkpt lat="45.05059" lon="5.66842">
        <ele>320.74</ele>
        <time>2018-06-17T08:38:23Z</time>
      </trkpt>
      <trkpt lat="45.05031" lon="5.6684">
        <ele>321.23</ele>
        <time>2018-06-17T08:38:25Z</time>
      </trkpt>
      <trkpt lat="45.05002" lon="5.66838">
        <ele>321.77</ele>
        <time>2018-06-17T08:38:27Z</time>
      </trkpt>
      <trkpt lat="45.04973" lon="5.66837">
        <ele>322.02</ele>
        <time>2018-06-17T08:38:29Z</time>
      </trkpt>
      <trkpt lat="45.04947" lon="5.66837">
        <ele>322.96</ele>
        <time>2018-06-17T08:38:31Z</time>
      </trkpt>
      <trkpt lat="45.04924" lon="5.66836">
        <ele>323.95</ele>
        <time>2018-06-17T08:38:33Z</time>
      </trkpt>
      <trkpt lat="45.04902" lon="5.66839">
        <ele>324.04</ele>
        <time>2018-06-17T08:38:35Z</time>
      </trkpt>
      <trkpt lat="45.0488" lon="5.66839">
        <ele>325.66</ele>
        <time>2018-06-17T08:38:37Z</time>
      </trkpt>
      <trkpt lat="45.04857" lon="5.66843">
        <ele>325.1</ele>
        <time>2018-06-17T08:38:39Z</time>
      </trkpt>
      <trkpt lat="45.04833" lon="5.66839">
        <ele>325.96</ele>
        <time>2018-06-17T08:38:41Z</time>
      </trkpt>
      <trkpt lat="45.04804" lon="5.66832">
        <ele>326.95</ele>
        <time>2018-06-17T08:38:43Z</time>
      </trkpt>
      <trkpt lat="45.04768" lon="5.66829">
        <ele>327.95</ele>
        <time>2018-06-17T08:38:45Z</time>
      </trkpt>
      <trkpt lat="45.04748" lon="5.66827">
        <ele>329.42</ele>
        <time>2018-06-17T08:38:46Z</time>
      </trkpt>
      <trkpt lat="45.04727" lon="5.66824">
        <ele>329.86</ele>
        <time>2018-06-17T08:38:47Z</time>
      </trkpt>
      <trkpt lat="45.04706" lon="5.66817">
        <ele>331.39</ele>
        <time>2018-06-17T08:38:48Z</time>
      </trkpt>
      <trkpt lat="45.04684" lon="5.6681">
        <ele>332.55</ele>
        <time>2018-06-17T08:38:49Z</time>
      </trkpt>
      <trkpt lat="45.04662" lon="5.66801">
        <ele>332.9</ele>
        <time>2018-06-17T08:38:50Z</time>
      </trkpt>
      <trkpt lat="45.04638" lon="5.66793">
        <ele>334.4</ele>
        <time>2018-06-17T08:38:51Z</time>
      </trkpt>
      <trkpt lat="45.04615" lon="5.66785">
        <ele>334.86</ele>
        <time>2018-06-17T08:38:52Z</time>
      </trkpt>
      <trkpt lat="45.04592" lon="5.66777">
        <ele>336.39</ele>
        <time>2018-06-17T08:38:53Z</time>
      </trkpt>
      <trkpt lat="45.04568" lon="5.66767">
        <ele>337.55</ele>
        <time>2018-06-17T08:38:54Z</time>
      </trkpt>
      <trkpt lat="45.04544" lon="5.66758">
        <ele>337.9</ele>
        <time>2018-06-17T08:38:55Z</time>
      </trkpt>
      <trkpt lat="45.04519" lon="5.66749">
        <ele>339.4</ele>
        <time>2018-06-17T08:38:56Z</time>
      </trkpt>
      <trkpt lat="45.04496" lon="5.66741">
        <ele>339.86</ele>
        <time>2018-06-17T08:38:57Z</time>
      </trkpt>
      <trkpt lat="45.04474" lon="5.66732">
        <ele>340.69</ele>
        <time>2018-06-17T08:38:58Z</time>
      </trkpt>
      <trkpt lat="45.04451" lon="5.66724">
        <ele>340.94</ele>
        <time>2018-06-17T08:38:59Z</time>
      </trkpt>
      <trkpt lat="45.04428" lon="5.66715">
        <ele>341.02</ele>
        <time>2018-06-17T08:39:00Z</time>
      </trkpt>
      <trkpt lat="45.04405" lon="5.66707">
        <ele>341.74</ele>
        <time>2018-06-17T08:39:01Z</time>
      </trkpt>
      <trkpt lat="45.04383" lon="5.667">
        <ele>341.96</ele>
        <time>2018-06-17T08:39:02Z</time>
      </trkpt>
      <trkpt lat="45.04362" lon="5.66696">
        <ele>343.42</ele>
        <time>2018-06-17T08:39:03Z</time>
      </trkpt>
      <trkpt lat="45.0434" lon="5.66694">
        <ele>344.56</ele>
        <time>2018-06-17T08:39:04Z</time>
      </trkpt>
      <trkpt lat="45.04319" lon="5.66698">
        <ele>345.6</ele>
        <time>2018-06-17T08:39:05Z</time>
      </trkpt>
      <trkpt lat="45.04297" lon="5.66702">
        <ele>346.62</ele>
        <time>2018-06-17T08:39:06Z</time>
      </trkpt>
      <trkpt lat="45.04278" lon="5.66711">
        <ele>347.62</ele>
        <time>2018-06-17T08:39:07Z</time>
      </trkpt>
      <trkpt lat="45.04258" lon="5.66732">
        <ele>347.92</ele>
        <time>2018-06-17T08:39:08Z</time>
      </trkpt>
      <trkpt lat="45.0424" lon="5.6675">
        <ele>348.71</ele>
        <time>2018-06-17T08:39:09Z</time>
      </trkpt>
      <trkpt lat="45.04221" lon="5.66768">
        <ele>348.95</ele>
        <time>2018-06-17T08:39:10Z</time>
      </trkpt>
      <trkpt lat="45.04202" lon="5.66786">
        <ele>349.72</ele>
        <time>2018-06-17T08:39:11Z</time>
      </trkpt>
      <trkpt lat="45.04184" lon="5.66803">
        <ele>349.25</ele>
        <time>2018-06-17T08:39:12Z</time>
      </trkpt>
      <trkpt lat="45.04163" lon="5.6682">
        <ele>350.51</ele>
        <time>2018-06-17T08:39:13Z</time>
      </trkpt>
      <trkpt lat="45.04146" lon="5.66838">
        <ele>350.89</ele>
        <time>2018-06-17T08:39:14Z</time>
      </trkpt>
      <trkpt lat="45.04131" lon="5.66859">
        <ele>351.7</ele>
        <time>2018-06-17T08:39:15Z</time>
      </trkpt>
      <trkpt lat="45.04118" lon="5.66879">
        <ele>353.34</ele>
        <time>2018-06-17T08:39:16Z</time>
      </trkpt>
      <trkpt lat="45.04107" lon="5.66902">
        <ele>355.24</ele>
        <time>2018-06-17T08:39:17Z</time>
      </trkpt>
      <trkpt lat="45.04097" lon="5.66927">
        <ele>356.51</ele>
        <time>2018-06-17T08:39:18Z</time>
      </trkpt>
      <trkpt lat="45.04087" lon="5.66956">
        <ele>358.29</ele>
        <time>2018-06-17T08:39:19Z</time>
      </trkpt>
      <trkpt lat="45.04076" lon="5.66988">
        <ele>360.22</ele>
        <time>2018-06-17T08:39:20Z</time>
      </trkpt>
      <trkpt lat="45.04067" lon="5.67017">
        <ele>362.2</ele>
        <time>2018-06-17T08:39:21Z</time>
      </trkpt>
      <trkpt lat="45.04058" lon="5.67043">
        <ele>362.79</ele>
        <time>2018-06-17T08:39:22Z</time>
      </trkpt>
      <trkpt lat="45.04048" lon="5.67066">
        <ele>363.67</ele>
        <time>2018-06-17T08:39:23Z</time>
      </trkpt>
      <trkpt lat="45.04036" lon="5.67086">
        <ele>364.64</ele>
        <time>2018-06-17T08:39:24Z</time>
      </trkpt>
      <trkpt lat="45.04012" lon="5.67119">
        <ele>367.53</ele>
        <time>2018-06-17T08:39:26Z</time>
      </trkpt>
      <trkpt lat="45.03982" lon="5.67145">
        <ele>370.52</ele>
        <time>2018-06-17T08:39:28Z</time>
      </trkpt>
      <trkpt lat="45.03965" lon="5.67155">
        <ele>371.59</ele>
        <time>2018-06-17T08:39:29Z</time>
      </trkpt>
      <trkpt lat="45.03946" lon="5.67162">
        <ele>374.01</ele>
        <time>2018-06-17T08:39:30Z</time>
      </trkpt>
      <trkpt lat="45.03925" lon="5.67168">
        <ele>376.14</ele>
        <time>2018-06-17T08:39:31Z</time>
      </trkpt>
      <trkpt lat="45.03904" lon="5.67171">
        <ele>377.48</ele>
        <time>2018-06-17T08:39:32Z</time>
      </trkpt>
      <trkpt lat="45.03884" lon="5.6717">
        <ele>378.58</ele>
        <time>2018-06-17T08:39:33Z</time>
      </trkpt>
      <trkpt lat="45.03863" lon="5.67169">
        <ele>378.91</ele>
        <time>2018-06-17T08:39:34Z</time>
      </trkpt>
      <trkpt lat="45.03843" lon="5.67163">
        <ele>379.71</ele>
        <time>2018-06-17T08:39:35Z</time>
      </trkpt>
      <trkpt lat="45.03824" lon="5.67146">
        <ele>380.65</ele>
        <time>2018-06-17T08:39:36Z</time>
      </trkpt>
      <trkpt lat="45.03807" lon="5.67131">
        <ele>381.63</ele>
        <time>2018-06-17T08:39:37Z</time>
      </trkpt>
      <trkpt lat="45.03792" lon="5.6711">
        <ele>382.62</ele>
        <time>2018-06-17T08:39:38Z</time>
      </trkpt>
      <trkpt lat="45.03781" lon="5.67089">
        <ele>383.62</ele>
        <time>2018-06-17T08:39:39Z</time>
      </trkpt>
      <trkpt lat="45.03767" lon="5.67067">
        <ele>385.32</ele>
        <time>2018-06-17T08:39:40Z</time>
      </trkpt>
      <trkpt lat="45.03755" lon="5.67043">
        <ele>386.53</ele>
        <time>2018-06-17T08:39:41Z</time>
      </trkpt>
      <trkpt lat="45.0374" lon="5.6702">
        <ele>387.59</ele>
        <time>2018-06-17T08:39:42Z</time>
      </trkpt>
      <trkpt lat="45.03722" lon="5.66999">
        <ele>389.31</ele>
        <time>2018-06-17T08:39:43Z</time>
      </trkpt>
      <trkpt lat="45.03703" lon="5.66981">
        <ele>391.23</ele>
        <time>2018-06-17T08:39:44Z</time>
      </trkpt>
      <trkpt lat="45.03683" lon="5.66962">
        <ele>393.2</ele>
        <time>2018-06-17T08:39:45Z</time>
      </trkpt>
      <trkpt lat="45.03664" lon="5.66942">
        <ele>395.2</ele>
        <time>2018-06-17T08:39:46Z</time>
      </trkpt>
      <trkpt lat="45.03645" lon="5.66921">
        <ele>395.79</ele>
        <time>2018-06-17T08:39:47Z</time>
      </trkpt>
      <trkpt lat="45.03628" lon="5.669">
        <ele>397.37</ele>
        <time>2018-06-17T08:39:48Z</time>
      </trkpt>
      <trkpt lat="45.0361" lon="5.66877">
        <ele>398.55</ele>
        <time>2018-06-17T08:39:49Z</time>
      </trkpt>
      <trkpt lat="45.03594" lon="5.6685">
        <ele>399.6</ele>
        <time>2018-06-17T08:39:50Z</time>
      </trkpt>
      <trkpt lat="45.03579" lon="5.66825">
        <ele>400.61</ele>
        <time>2018-06-17T08:39:51Z</time>
      </trkpt>
      <trkpt lat="45.03565" lon="5.66797">
        <ele>402.32</ele>
        <time>2018-06-17T08:39:52Z</time>
      </trkpt>
      <trkpt lat="45.03553" lon="5.66767">
        <ele>403.53</ele>
        <time>2018-06-17T08:39:53Z</time>
      </trkpt>
      <trkpt lat="45.03541" lon="5.66738">
        <ele>405.99</ele>
        <time>2018-06-17T08:39:54Z</time>
      </trkpt>
      <trkpt lat="45.03529" lon="5.66708">
        <ele>407.43</ele>
        <time>2018-06-17T08:39:55Z</time>
      </trkpt>
      <trkpt lat="45.03516" lon="5.66679">
        <ele>407.86</ele>
        <time>2018-06-17T08:39:56Z</time>
      </trkpt>
      <trkpt lat="45.03504" lon="5.66649">
        <ele>408.69</ele>
        <time>2018-06-17T08:39:57Z</time>
      </trkpt>
      <trkpt lat="45.03486" lon="5.6663">
        <ele>409.64</ele>
        <time>2018-06-17T08:39:58Z</time>
      </trkpt>
      <trkpt lat="45.03469" lon="5.66607">
        <ele>410.63</ele>
        <time>2018-06-17T08:39:59Z</time>
      </trkpt>
      <trkpt lat="45.03449" lon="5.66587">
        <ele>410.92</ele>
        <time>2018-06-17T08:40:00Z</time>
      </trkpt>
      <trkpt lat="45.03428" lon="5.66577">
        <ele>413.11</ele>
        <time>2018-06-17T08:40:01Z</time>
      </trkpt>
      <trkpt lat="45.03408" lon="5.6656">
        <ele>414.47</ele>
        <time>2018-06-17T08:40:02Z</time>
      </trkpt>
      <trkpt lat="45.03391" lon="5.66541">
        <ele>416.27</ele>
        <time>2018-06-17T08:40:03Z</time>
      </trkpt>
      <trkpt lat="45.03376" lon="5.66517">
        <ele>416.12</ele>
        <time>2018-06-17T08:40:04Z</time>
      </trkpt>
      <trkpt lat="45.03363" lon="5.66493">
        <ele>416.07</ele>
        <time>2018-06-17T08:40:05Z</time>
      </trkpt>
      <trkpt lat="45.03352" lon="5.66467">
        <ele>416.06</ele>
        <time>2018-06-17T08:40:06Z</time>
      </trkpt>
      <trkpt lat="45.03348" lon="5.66437">
        <ele>416.75</ele>
        <time>2018-06-17T08:40:07Z</time>
      </trkpt>
      <trkpt lat="45.03352" lon="5.66408">
        <ele>418.36</ele>
        <time>2018-06-17T08:40:08Z</time>
      </trkpt>
      <trkpt lat="45.03359" lon="5.66378">
        <ele>419.54</ele>
        <time>2018-06-17T08:40:09Z</time>
      </trkpt>
      <trkpt lat="45.03368" lon="5.66355">
        <ele>421.3</ele>
        <time>2018-06-17T08:40:10Z</time>
      </trkpt>
      <trkpt lat="45.03394" lon="5.6633">
        <ele>424.62</ele>
        <time>2018-06-17T08:40:11Z</time>
      </trkpt>
      <trkpt lat="45.03406" lon="5.66305">
        <ele>425.62</ele>
        <time>2018-06-17T08:40:12Z</time>
      </trkpt>
      <trkpt lat="45.03415" lon="5.6628">
        <ele>428.02</ele>
        <time>2018-06-17T08:40:13Z</time>
      </trkpt>
      <trkpt lat="45.0342" lon="5.66255">
        <ele>429.44</ele>
        <time>2018-06-17T08:40:14Z</time>
      </trkpt>
      <trkpt lat="45.03421" lon="5.66228">
        <ele>431.27</ele>
        <time>2018-06-17T08:40:15Z</time>
      </trkpt>
      <trkpt lat="45.0342" lon="5.66202">
        <ele>431.81</ele>
        <time>2018-06-17T08:40:16Z</time>
      </trkpt>
      <trkpt lat="45.03412" lon="5.66178">
        <ele>433.38</ele>
        <time>2018-06-17T08:40:17Z</time>
      </trkpt>
      <trkpt lat="45.034" lon="5.66156">
        <ele>433.85</ele>
        <time>2018-06-17T08:40:18Z</time>
      </trkpt>
      <trkpt lat="45.03386" lon="5.66138">
        <ele>435.39</ele>
        <time>2018-06-17T08:40:19Z</time>
      </trkpt>
      <trkpt lat="45.03369" lon="5.66125">
        <ele>436.55</ele>
        <time>2018-06-17T08:40:20Z</time>
      </trkpt>
      <trkpt lat="45.03351" lon="5.66118">
        <ele>437.6</ele>
        <time>2018-06-17T08:40:21Z</time>
      </trkpt>
      <trkpt lat="45.03332" lon="5.66116">
        <ele>438.61</ele>
        <time>2018-06-17T08:40:22Z</time>
      </trkpt>
      <trkpt lat="45.03313" lon="5.66119">
        <ele>439.62</ele>
        <time>2018-06-17T08:40:23Z</time>
      </trkpt>
      <trkpt lat="45.03295" lon="5.66128">
        <ele>440.62</ele>
        <time>2018-06-17T08:40:24Z</time>
      </trkpt>
      <trkpt lat="45.03278" lon="5.66139">
        <ele>440.92</ele>
        <time>2018-06-17T08:40:25Z</time>
      </trkpt>
      <trkpt lat="45.03265" lon="5.66162">
        <ele>441.71</ele>
        <time>2018-06-17T08:40:26Z</time>
      </trkpt>
      <trkpt lat="45.03253" lon="5.66185">
        <ele>442.65</ele>
        <time>2018-06-17T08:40:27Z</time>
      </trkpt>
      <trkpt lat="45.03243" lon="5.6621">
        <ele>443.63</ele>
        <time>2018-06-17T08:40:28Z</time>
      </trkpt>
      <trkpt lat="45.03233" lon="5.66235">
        <ele>444.62</ele>
        <time>2018-06-17T08:40:29Z</time>
      </trkpt>
      <trkpt lat="45.03222" lon="5.66261">
        <ele>445.62</ele>
        <time>2018-06-17T08:40:30Z</time>
      </trkpt>
      <trkpt lat="45.03211" lon="5.66286">
        <ele>446.62</ele>
        <time>2018-06-17T08:40:31Z</time>
      </trkpt>
      <trkpt lat="45.03201" lon="5.6631">
        <ele>446.92</ele>
        <time>2018-06-17T08:40:32Z</time>
      </trkpt>
      <trkpt lat="45.0319" lon="5.66334">
        <ele>448.41</ele>
        <time>2018-06-17T08:40:33Z</time>
      </trkpt>
      <trkpt lat="45.03178" lon="5.66355">
        <ele>448.86</ele>
        <time>2018-06-17T08:40:34Z</time>
      </trkpt>
      <trkpt lat="45.03165" lon="5.66376">
        <ele>449.69</ele>
        <time>2018-06-17T08:40:35Z</time>
      </trkpt>
      <trkpt lat="45.03149" lon="5.66391">
        <ele>449.94</ele>
        <time>2018-06-17T08:40:36Z</time>
      </trkpt>
      <trkpt lat="45.03129" lon="5.66398">
        <ele>451.42</ele>
        <time>2018-06-17T08:40:37Z</time>
      </trkpt>
      <trkpt lat="45.0311" lon="5.66407">
        <ele>453.26</ele>
        <time>2018-06-17T08:40:38Z</time>
      </trkpt>
      <trkpt lat="45.0309" lon="5.66417">
        <ele>455.21</ele>
        <time>2018-06-17T08:40:39Z</time>
      </trkpt>
      <trkpt lat="45.03071" lon="5.66426">
        <ele>457.2</ele>
        <time>2018-06-17T08:40:40Z</time>
      </trkpt>
      <trkpt lat="45.03051" lon="5.66431">
        <ele>459.19</ele>
        <time>2018-06-17T08:40:41Z</time>
      </trkpt>
      <trkpt lat="45.0303" lon="5.66434">
        <ele>460.49</ele>
        <time>2018-06-17T08:40:42Z</time>
      </trkpt>
      <trkpt lat="45.03009" lon="5.66433">
        <ele>461.58</ele>
        <time>2018-06-17T08:40:43Z</time>
      </trkpt>
      <trkpt lat="45.02989" lon="5.66428">
        <ele>462.61</ele>
        <time>2018-06-17T08:40:44Z</time>
      </trkpt>
      <trkpt lat="45.02968" lon="5.66419">
        <ele>463.62</ele>
        <time>2018-06-17T08:40:45Z</time>
      </trkpt>
      <trkpt lat="45.02949" lon="5.66407">
        <ele>464.62</ele>
        <time>2018-06-17T08:40:46Z</time>
      </trkpt>
      <trkpt lat="45.02929" lon="5.66392">
        <ele>466.32</ele>
        <time>2018-06-17T08:40:47Z</time>
      </trkpt>
      <trkpt lat="45.02909" lon="5.66375">
        <ele>468.23</ele>
        <time>2018-06-17T08:40:48Z</time>
      </trkpt>
      <trkpt lat="45.0289" lon="5.66357">
        <ele>468.8</ele>
        <time>2018-06-17T08:40:49Z</time>
      </trkpt>
      <trkpt lat="45.02869" lon="5.66339">
        <ele>471.08</ele>
        <time>2018-06-17T08:40:50Z</time>
      </trkpt>
      <trkpt lat="45.02848" lon="5.66319">
        <ele>471.76</ele>
        <time>2018-06-17T08:40:51Z</time>
      </trkpt>
      <trkpt lat="45.02827" lon="5.66301">
        <ele>473.36</ele>
        <time>2018-06-17T08:40:52Z</time>
      </trkpt>
      <trkpt lat="45.02806" lon="5.66282">
        <ele>473.84</ele>
        <time>2018-06-17T08:40:53Z</time>
      </trkpt>
      <trkpt lat="45.02784" lon="5.66264">
        <ele>474.69</ele>
        <time>2018-06-17T08:40:54Z</time>
      </trkpt>
      <trkpt lat="45.02761" lon="5.66247">
        <ele>475.64</ele>
        <time>2018-06-17T08:40:55Z</time>
      </trkpt>
      <trkpt lat="45.02738" lon="5.66234">
        <ele>477.33</ele>
        <time>2018-06-17T08:40:56Z</time>
      </trkpt>
      <trkpt lat="45.02714" lon="5.66223">
        <ele>479.23</ele>
        <time>2018-06-17T08:40:57Z</time>
      </trkpt>
      <trkpt lat="45.02688" lon="5.66213">
        <ele>480.5</ele>
        <time>2018-06-17T08:40:58Z</time>
      </trkpt>
      <trkpt lat="45.02663" lon="5.66207">
        <ele>481.59</ele>
        <time>2018-06-17T08:40:59Z</time>
      </trkpt>
      <trkpt lat="45.02636" lon="5.66203">
        <ele>483.31</ele>
        <time>2018-06-17T08:41:00Z</time>
      </trkpt>
      <trkpt lat="45.02609" lon="5.66203">
        <ele>484.53</ele>
        <time>2018-06-17T08:41:01Z</time>
      </trkpt>
      <trkpt lat="45.02581" lon="5.66203">
        <ele>485.59</ele>
        <time>2018-06-17T08:41:02Z</time>
      </trkpt>
      <trkpt lat="45.02553" lon="5.66204">
        <ele>486.61</ele>
        <time>2018-06-17T08:41:03Z</time>
      </trkpt>
      <trkpt lat="45.02526" lon="5.66204">
        <ele>487.62</ele>
        <time>2018-06-17T08:41:04Z</time>
      </trkpt>
      <trkpt lat="45.02499" lon="5.66204">
        <ele>488.62</ele>
        <time>2018-06-17T08:41:05Z</time>
      </trkpt>
      <trkpt lat="45.02474" lon="5.66197">
        <ele>488.22</ele>
        <time>2018-06-17T08:41:06Z</time>
      </trkpt>
      <trkpt lat="45.02447" lon="5.6619">
        <ele>488.8</ele>
        <time>2018-06-17T08:41:07Z</time>
      </trkpt>
      <trkpt lat="45.02423" lon="5.66179">
        <ele>490.37</ele>
        <time>2018-06-17T08:41:08Z</time>
      </trkpt>
      <trkpt lat="45.02398" lon="5.66169">
        <ele>492.25</ele>
        <time>2018-06-17T08:41:09Z</time>
      </trkpt>
      <trkpt lat="45.02373" lon="5.66159">
        <ele>494.21</ele>
        <time>2018-06-17T08:41:10Z</time>
      </trkpt>
      <trkpt lat="45.02348" lon="5.6615">
        <ele>496.2</ele>
        <time>2018-06-17T08:41:11Z</time>
      </trkpt>
      <trkpt lat="45.02323" lon="5.66139">
        <ele>497.49</ele>
        <time>2018-06-17T08:41:12Z</time>
      </trkpt>
      <trkpt lat="45.02298" lon="5.6613">
        <ele>498.58</ele>
        <time>2018-06-17T08:41:13Z</time>
      </trkpt>
      <trkpt lat="45.02273" lon="5.66123">
        <ele>500.31</ele>
        <time>2018-06-17T08:41:14Z</time>
      </trkpt>
      <trkpt lat="45.02248" lon="5.66117">
        <ele>501.53</ele>
        <time>2018-06-17T08:41:15Z</time>
      </trkpt>
      <trkpt lat="45.02222" lon="5.66113">
        <ele>503.29</ele>
        <time>2018-06-17T08:41:16Z</time>
      </trkpt>
      <trkpt lat="45.02196" lon="5.66109">
        <ele>504.52</ele>
        <time>2018-06-17T08:41:17Z</time>
      </trkpt>
      <trkpt lat="45.0217" lon="5.66103">
        <ele>505.59</ele>
        <time>2018-06-17T08:41:18Z</time>
      </trkpt>
      <trkpt lat="45.02145" lon="5.66095">
        <ele>505.91</ele>
        <time>2018-06-17T08:41:19Z</time>
      </trkpt>
      <trkpt lat="45.02118" lon="5.66085">
        <ele>507.41</ele>
        <time>2018-06-17T08:41:20Z</time>
      </trkpt>
      <trkpt lat="45.02092" lon="5.66076">
        <ele>508.56</ele>
        <time>2018-06-17T08:41:21Z</time>
      </trkpt>
      <trkpt lat="45.02066" lon="5.6607">
        <ele>509.6</ele>
        <time>2018-06-17T08:41:22Z</time>
      </trkpt>
      <trkpt lat="45.02039" lon="5.66065">
        <ele>510.61</ele>
        <time>2018-06-17T08:41:23Z</time>
      </trkpt>
      <trkpt lat="45.02013" lon="5.66061">
        <ele>512.32</ele>
        <time>2018-06-17T08:41:24Z</time>
      </trkpt>
      <trkpt lat="45.01987" lon="5.66057">
        <ele>513.53</ele>
        <time>2018-06-17T08:41:25Z</time>
      </trkpt>
      <trkpt lat="45.01961" lon="5.66054">
        <ele>514.59</ele>
        <time>2018-06-17T08:41:26Z</time>
      </trkpt>
      <trkpt lat="45.01935" lon="5.6605">
        <ele>516.31</ele>
        <time>2018-06-17T08:41:27Z</time>
      </trkpt>
      <trkpt lat="45.0191" lon="5.66044">
        <ele>517.53</ele>
        <time>2018-06-17T08:41:28Z</time>
      </trkpt>
      <trkpt lat="45.01884" lon="5.66038">
        <ele>519.29</ele>
        <time>2018-06-17T08:41:29Z</time>
      </trkpt>
      <trkpt lat="45.01859" lon="5.66027">
        <ele>520.52</ele>
        <time>2018-06-17T08:41:30Z</time>
      </trkpt>
      <trkpt lat="45.01835" lon="5.66013">
        <ele>521.59</ele>
        <time>2018-06-17T08:41:31Z</time>
      </trkpt>
      <trkpt lat="45.01813" lon="5.65996">
        <ele>523.31</ele>
        <time>2018-06-17T08:41:32Z</time>
      </trkpt>
      <trkpt lat="45.0179" lon="5.65979">
        <ele>524.53</ele>
        <time>2018-06-17T08:41:33Z</time>
      </trkpt>
      <trkpt lat="45.01768" lon="5.6596">
        <ele>525.59</ele>
        <time>2018-06-17T08:41:34Z</time>
      </trkpt>
      <trkpt lat="45.01746" lon="5.65942">
        <ele>526.61</ele>
        <time>2018-06-17T08:41:35Z</time>
      </trkpt>
      <trkpt lat="45.01723" lon="5.65926">
        <ele>528.32</ele>
        <time>2018-06-17T08:41:36Z</time>
      </trkpt>
      <trkpt lat="45.017" lon="5.65912">
        <ele>528.83</ele>
        <time>2018-06-17T08:41:37Z</time>
      </trkpt>
      <trkpt lat="45.01676" lon="5.65899">
        <ele>529.68</ele>
        <time>2018-06-17T08:41:38Z</time>
      </trkpt>
      <trkpt lat="45.01651" lon="5.65887">
        <ele>531.34</ele>
        <time>2018-06-17T08:41:39Z</time>
      </trkpt>
      <trkpt lat="45.01627" lon="5.65877">
        <ele>532.54</ele>
        <time>2018-06-17T08:41:40Z</time>
      </trkpt>
      <trkpt lat="45.01602" lon="5.65867">
        <ele>533.6</ele>
        <time>2018-06-17T08:41:41Z</time>
      </trkpt>
      <trkpt lat="45.01577" lon="5.65858">
        <ele>534.61</ele>
        <time>2018-06-17T08:41:42Z</time>
      </trkpt>
      <trkpt lat="45.01552" lon="5.65849">
        <ele>535.62</ele>
        <time>2018-06-17T08:41:43Z</time>
      </trkpt>
      <trkpt lat="45.01527" lon="5.65839">
        <ele>537.32</ele>
        <time>2018-06-17T08:41:44Z</time>
      </trkpt>
      <trkpt lat="45.01503" lon="5.65829">
        <ele>538.53</ele>
        <time>2018-06-17T08:41:45Z</time>
      </trkpt>
      <trkpt lat="45.01477" lon="5.6582">
        <ele>540.29</ele>
        <time>2018-06-17T08:41:46Z</time>
      </trkpt>
      <trkpt lat="45.01452" lon="5.65811">
        <ele>541.52</ele>
        <time>2018-06-17T08:41:47Z</time>
      </trkpt>
      <trkpt lat="45.01427" lon="5.65801">
        <ele>542.59</ele>
        <time>2018-06-17T08:41:48Z</time>
      </trkpt>
      <trkpt lat="45.01401" lon="5.65795">
        <ele>543.61</ele>
        <time>2018-06-17T08:41:49Z</time>
      </trkpt>
      <trkpt lat="45.01374" lon="5.65791">
        <ele>545.32</ele>
        <time>2018-06-17T08:41:50Z</time>
      </trkpt>
      <trkpt lat="45.01347" lon="5.6579">
        <ele>546.53</ele>
        <time>2018-06-17T08:41:51Z</time>
      </trkpt>
      <trkpt lat="45.01321" lon="5.6579">
        <ele>547.59</ele>
        <time>2018-06-17T08:41:52Z</time>
      </trkpt>
      <trkpt lat="45.01294" lon="5.6579">
        <ele>548.61</ele>
        <time>2018-06-17T08:41:53Z</time>
      </trkpt>
      <trkpt lat="45.01269" lon="5.65788">
        <ele>549.62</ele>
        <time>2018-06-17T08:41:54Z</time>
      </trkpt>
      <trkpt lat="45.01243" lon="5.65785">
        <ele>550.62</ele>
        <time>2018-06-17T08:41:55Z</time>
      </trkpt>
      <trkpt lat="45.01217" lon="5.65782">
        <ele>551.62</ele>
        <time>2018-06-17T08:41:56Z</time>
      </trkpt>
      <trkpt lat="45.01191" lon="5.65777">
        <ele>552.62</ele>
        <time>2018-06-17T08:41:57Z</time>
      </trkpt>
      <trkpt lat="45.01165" lon="5.65772">
        <ele>553.62</ele>
        <time>2018-06-17T08:41:58Z</time>
      </trkpt>
      <trkpt lat="45.0114" lon="5.65765">
        <ele>554.62</ele>
        <time>2018-06-17T08:41:59Z</time>
      </trkpt>
      <trkpt lat="45.01114" lon="5.65756">
        <ele>555.62</ele>
        <time>2018-06-17T08:42:00Z</time>
      </trkpt>
      <trkpt lat="45.01089" lon="5.65746">
        <ele>556.62</ele>
        <time>2018-06-17T08:42:01Z</time>
      </trkpt>
      <trkpt lat="45.01063" lon="5.65735">
        <ele>557.62</ele>
        <time>2018-06-17T08:42:02Z</time>
      </trkpt>
      <trkpt lat="45.01037" lon="5.65722">
        <ele>557.92</ele>
        <time>2018-06-17T08:42:03Z</time>
      </trkpt>
      <trkpt lat="45.01012" lon="5.65709">
        <ele>558.71</ele>
        <time>2018-06-17T08:42:04Z</time>
      </trkpt>
      <trkpt lat="45.00986" lon="5.65695">
        <ele>560.35</ele>
        <time>2018-06-17T08:42:05Z</time>
      </trkpt>
      <trkpt lat="45.00961" lon="5.65682">
        <ele>561.54</ele>
        <time>2018-06-17T08:42:06Z</time>
      </trkpt>
      <trkpt lat="45.00935" lon="5.65669">
        <ele>562.6</ele>
        <time>2018-06-17T08:42:07Z</time>
      </trkpt>
      <trkpt lat="45.0091" lon="5.65656">
        <ele>564.31</ele>
        <time>2018-06-17T08:42:08Z</time>
      </trkpt>
      <trkpt lat="45.00885" lon="5.65645">
        <ele>566.23</ele>
        <time>2018-06-17T08:42:09Z</time>
      </trkpt>
      <trkpt lat="45.0086" lon="5.65634">
        <ele>567.5</ele>
        <time>2018-06-17T08:42:10Z</time>
      </trkpt>
      <trkpt lat="45.00836" lon="5.65624">
        <ele>568.59</ele>
        <time>2018-06-17T08:42:11Z</time>
      </trkpt>
      <trkpt lat="45.00811" lon="5.65615">
        <ele>569.61</ele>
        <time>2018-06-17T08:42:12Z</time>
      </trkpt>
      <trkpt lat="45.00785" lon="5.65606">
        <ele>570.62</ele>
        <time>2018-06-17T08:42:13Z</time>
      </trkpt>
      <trkpt lat="45.0076" lon="5.65598">
        <ele>572.32</ele>
        <time>2018-06-17T08:42:14Z</time>
      </trkpt>
      <trkpt lat="45.00735" lon="5.65588">
        <ele>574.23</ele>
        <time>2018-06-17T08:42:15Z</time>
      </trkpt>
      <trkpt lat="45.0071" lon="5.65578">
        <ele>574.8</ele>
        <time>2018-06-17T08:42:16Z</time>
      </trkpt>
      <trkpt lat="45.00685" lon="5.65565">
        <ele>576.38</ele>
        <time>2018-06-17T08:42:17Z</time>
      </trkpt>
      <trkpt lat="45.00662" lon="5.6555">
        <ele>577.55</ele>
        <time>2018-06-17T08:42:18Z</time>
      </trkpt>
      <trkpt lat="45.00639" lon="5.65535">
        <ele>578.6</ele>
        <time>2018-06-17T08:42:19Z</time>
      </trkpt>
      <trkpt lat="45.00616" lon="5.65522">
        <ele>579.61</ele>
        <time>2018-06-17T08:42:20Z</time>
      </trkpt>
      <trkpt lat="45.00592" lon="5.65511">
        <ele>580.62</ele>
        <time>2018-06-17T08:42:21Z</time>
      </trkpt>
      <trkpt lat="45.00567" lon="5.65504">
        <ele>581.62</ele>
        <time>2018-06-17T08:42:22Z</time>
      </trkpt>
      <trkpt lat="45.00542" lon="5.65499">
        <ele>582.62</ele>
        <time>2018-06-17T08:42:23Z</time>
      </trkpt>
      <trkpt lat="45.00516" lon="5.65496">
        <ele>583.62</ele>
        <time>2018-06-17T08:42:24Z</time>
      </trkpt>
      <trkpt lat="45.00491" lon="5.65493">
        <ele>583.92</ele>
        <time>2018-06-17T08:42:25Z</time>
      </trkpt>
      <trkpt lat="45.00465" lon="5.6549">
        <ele>584.71</ele>
        <time>2018-06-17T08:42:26Z</time>
      </trkpt>
      <trkpt lat="45.0044" lon="5.65488">
        <ele>584.95</ele>
        <time>2018-06-17T08:42:27Z</time>
      </trkpt>
      <trkpt lat="45.00414" lon="5.65484">
        <ele>585.72</ele>
        <time>2018-06-17T08:42:28Z</time>
      </trkpt>
      <trkpt lat="45.00389" lon="5.65481">
        <ele>586.65</ele>
        <time>2018-06-17T08:42:29Z</time>
      </trkpt>
      <trkpt lat="45.00363" lon="5.65479">
        <ele>587.63</ele>
        <time>2018-06-17T08:42:30Z</time>
      </trkpt>
      <trkpt lat="45.00337" lon="5.65475">
        <ele>588.62</ele>
        <time>2018-06-17T08:42:31Z</time>
      </trkpt>
      <trkpt lat="45.00312" lon="5.65471">
        <ele>589.62</ele>
        <time>2018-06-17T08:42:32Z</time>
      </trkpt>
      <trkpt lat="45.00287" lon="5.65466">
        <ele>590.62</ele>
        <time>2018-06-17T08:42:33Z</time>
      </trkpt>
      <trkpt lat="45.00261" lon="5.65458">
        <ele>590.92</ele>
        <time>2018-06-17T08:42:34Z</time>
      </trkpt>
      <trkpt lat="45.00236" lon="5.65448">
        <ele>591.01</ele>
        <time>2018-06-17T08:42:35Z</time>
      </trkpt>
      <trkpt lat="45.00212" lon="5.65438">
        <ele>591.74</ele>
        <time>2018-06-17T08:42:36Z</time>
      </trkpt>
      <trkpt lat="45.00187" lon="5.65429">
        <ele>592.66</ele>
        <time>2018-06-17T08:42:37Z</time>
      </trkpt>
      <trkpt lat="45.00162" lon="5.65419">
        <ele>593.63</ele>
        <time>2018-06-17T08:42:38Z</time>
      </trkpt>
      <trkpt lat="45.00137" lon="5.65409">
        <ele>593.92</ele>
        <time>2018-06-17T08:42:39Z</time>
      </trkpt>
      <trkpt lat="45.00113" lon="5.65399">
        <ele>594.71</ele>
        <time>2018-06-17T08:42:40Z</time>
      </trkpt>
      <trkpt lat="45.00088" lon="5.65389">
        <ele>594.95</ele>
        <time>2018-06-17T08:42:41Z</time>
      </trkpt>
      <trkpt lat="45.00064" lon="5.65379">
        <ele>595.72</ele>
        <time>2018-06-17T08:42:42Z</time>
      </trkpt>
      <trkpt lat="45.00039" lon="5.6537">
        <ele>595.95</ele>
        <time>2018-06-17T08:42:43Z</time>
      </trkpt>
      <trkpt lat="45.00014" lon="5.65359">
        <ele>596.72</ele>
        <time>2018-06-17T08:42:44Z</time>
      </trkpt>
      <trkpt lat="44.9999" lon="5.65347">
        <ele>597.65</ele>
        <time>2018-06-17T08:42:45Z</time>
      </trkpt>
      <trkpt lat="44.99965" lon="5.65334">
        <ele>598.63</ele>
        <time>2018-06-17T08:42:46Z</time>
      </trkpt>
      <trkpt lat="44.99941" lon="5.6532">
        <ele>598.92</ele>
        <time>2018-06-17T08:42:47Z</time>
      </trkpt>
      <trkpt lat="44.99918" lon="5.65307">
        <ele>599.01</ele>
        <time>2018-06-17T08:42:48Z</time>
      </trkpt>
      <trkpt lat="44.99894" lon="5.65294">
        <ele>599.04</ele>
        <time>2018-06-17T08:42:49Z</time>
      </trkpt>
      <trkpt lat="44.99869" lon="5.6528">
        <ele>599.05</ele>
        <time>2018-06-17T08:42:50Z</time>
      </trkpt>
      <trkpt lat="44.99845" lon="5.65267">
        <ele>599.75</ele>
        <time>2018-06-17T08:42:51Z</time>
      </trkpt>
      <trkpt lat="44.9982" lon="5.65254">
        <ele>600.66</ele>
        <time>2018-06-17T08:42:52Z</time>
      </trkpt>
      <trkpt lat="44.99796" lon="5.65242">
        <ele>600.93</ele>
        <time>2018-06-17T08:42:53Z</time>
      </trkpt>
      <trkpt lat="44.99771" lon="5.65229">
        <ele>601.01</ele>
        <time>2018-06-17T08:42:54Z</time>
      </trkpt>
      <trkpt lat="44.99746" lon="5.65216">
        <ele>601.04</ele>
        <time>2018-06-17T08:42:55Z</time>
      </trkpt>
      <trkpt lat="44.99722" lon="5.65204">
        <ele>601.75</ele>
        <time>2018-06-17T08:42:56Z</time>
      </trkpt>
      <trkpt lat="44.99697" lon="5.65192">
        <ele>601.96</ele>
        <time>2018-06-17T08:42:57Z</time>
      </trkpt>
      <trkpt lat="44.99673" lon="5.6518">
        <ele>602.72</ele>
        <time>2018-06-17T08:42:58Z</time>
      </trkpt>
      <trkpt lat="44.99648" lon="5.65169">
        <ele>603.65</ele>
        <time>2018-06-17T08:42:59Z</time>
      </trkpt>
      <trkpt lat="44.99623" lon="5.65159">
        <ele>604.63</ele>
        <time>2018-06-17T08:43:00Z</time>
      </trkpt>
      <trkpt lat="44.99599" lon="5.65149">
        <ele>604.92</ele>
        <time>2018-06-17T08:43:01Z</time>
      </trkpt>
      <trkpt lat="44.99574" lon="5.65138">
        <ele>605.71</ele>
        <time>2018-06-17T08:43:02Z</time>
      </trkpt>
      <trkpt lat="44.9955" lon="5.65129">
        <ele>605.95</ele>
        <time>2018-06-17T08:43:03Z</time>
      </trkpt>
      <trkpt lat="44.99525" lon="5.65119">
        <ele>606.72</ele>
        <time>2018-06-17T08:43:04Z</time>
      </trkpt>
      <trkpt lat="44.99501" lon="5.6511">
        <ele>607.65</ele>
        <time>2018-06-17T08:43:05Z</time>
      </trkpt>
      <trkpt lat="44.99476" lon="5.651">
        <ele>608.63</ele>
        <time>2018-06-17T08:43:06Z</time>
      </trkpt>
      <trkpt lat="44.99453" lon="5.65091">
        <ele>609.62</ele>
        <time>2018-06-17T08:43:07Z</time>
      </trkpt>
      <trkpt lat="44.99429" lon="5.65081">
        <ele>610.62</ele>
        <time>2018-06-17T08:43:08Z</time>
      </trkpt>
      <trkpt lat="44.99406" lon="5.65072">
        <ele>610.92</ele>
        <time>2018-06-17T08:43:09Z</time>
      </trkpt>
      <trkpt lat="44.99383" lon="5.65063">
        <ele>611.01</ele>
        <time>2018-06-17T08:43:10Z</time>
      </trkpt>
      <trkpt lat="44.9936" lon="5.65054">
        <ele>613.84</ele>
        <time>2018-06-17T08:43:11Z</time>
      </trkpt>
      <trkpt lat="44.99337" lon="5.65045">
        <ele>615.39</ele>
        <time>2018-06-17T08:43:12Z</time>
      </trkpt>
      <trkpt lat="44.99314" lon="5.65036">
        <ele>616.55</ele>
        <time>2018-06-17T08:43:13Z</time>
      </trkpt>
      <trkpt lat="44.99291" lon="5.65027">
        <ele>618.3</ele>
        <time>2018-06-17T08:43:14Z</time>
      </trkpt>
      <trkpt lat="44.99269" lon="5.65017">
        <ele>619.52</ele>
        <time>2018-06-17T08:43:15Z</time>
      </trkpt>
      <trkpt lat="44.99247" lon="5.65007">
        <ele>620.59</ele>
        <time>2018-06-17T08:43:16Z</time>
      </trkpt>
      <trkpt lat="44.99225" lon="5.64998">
        <ele>621.61</ele>
        <time>2018-06-17T08:43:17Z</time>
      </trkpt>
      <trkpt lat="44.99204" lon="5.6499">
        <ele>621.92</ele>
        <time>2018-06-17T08:43:18Z</time>
      </trkpt>
      <trkpt lat="44.99183" lon="5.64982">
        <ele>622.01</ele>
        <time>2018-06-17T08:43:19Z</time>
      </trkpt>
      <trkpt lat="44.99163" lon="5.64975">
        <ele>622.74</ele>
        <time>2018-06-17T08:43:20Z</time>
      </trkpt>
      <trkpt lat="44.99143" lon="5.6497">
        <ele>623.66</ele>
        <time>2018-06-17T08:43:21Z</time>
      </trkpt>
      <trkpt lat="44.99122" lon="5.64966">
        <ele>623.93</ele>
        <time>2018-06-17T08:43:22Z</time>
      </trkpt>
      <trkpt lat="44.99101" lon="5.64965">
        <ele>624.71</ele>
        <time>2018-06-17T08:43:23Z</time>
      </trkpt>
      <trkpt lat="44.9908" lon="5.64963">
        <ele>624.95</ele>
        <time>2018-06-17T08:43:24Z</time>
      </trkpt>
      <trkpt lat="44.9906" lon="5.64959">
        <ele>625.72</ele>
        <time>2018-06-17T08:43:25Z</time>
      </trkpt>
      <trkpt lat="44.99039" lon="5.64957">
        <ele>625.95</ele>
        <time>2018-06-17T08:43:26Z</time>
      </trkpt>
      <trkpt lat="44.9902" lon="5.64953">
        <ele>626.72</ele>
        <time>2018-06-17T08:43:27Z</time>
      </trkpt>
      <trkpt lat="44.99" lon="5.64948">
        <ele>628.35</ele>
        <time>2018-06-17T08:43:28Z</time>
      </trkpt>
      <trkpt lat="44.9898" lon="5.64942">
        <ele>629.54</ele>
        <time>2018-06-17T08:43:29Z</time>
      </trkpt>
      <trkpt lat="44.98961" lon="5.64935">
        <ele>630.6</ele>
        <time>2018-06-17T08:43:30Z</time>
      </trkpt>
      <trkpt lat="44.98941" lon="5.64927">
        <ele>632.31</ele>
        <time>2018-06-17T08:43:31Z</time>
      </trkpt>
      <trkpt lat="44.98923" lon="5.6492">
        <ele>634.93</ele>
        <time>2018-06-17T08:43:32Z</time>
      </trkpt>
      <trkpt lat="44.9889" lon="5.64903">
        <ele>638.47</ele>
        <time>2018-06-17T08:43:34Z</time>
      </trkpt>
      <trkpt lat="44.98864" lon="5.64884">
        <ele>641.31</ele>
        <time>2018-06-17T08:43:36Z</time>
      </trkpt>
      <trkpt lat="44.98843" lon="5.64861">
        <ele>642.89</ele>
        <time>2018-06-17T08:43:38Z</time>
      </trkpt>
      <trkpt lat="44.98825" lon="5.64839">
        <ele>643.03</ele>
        <time>2018-06-17T08:43:40Z</time>
      </trkpt>
      <trkpt lat="44.98806" lon="5.64834">
        <ele>643.75</ele>
        <time>2018-06-17T08:43:42Z</time>
      </trkpt>
      <trkpt lat="44.98785" lon="5.6483">
        <ele>644.72</ele>
        <time>2018-06-17T08:43:44Z</time>
      </trkpt>
      <trkpt lat="44.98764" lon="5.64823">
        <ele>645.72</ele>
        <time>2018-06-17T08:43:46Z</time>
      </trkpt>
      <trkpt lat="44.98744" lon="5.64821">
        <ele>646.95</ele>
        <time>2018-06-17T08:43:49Z</time>
      </trkpt>
      <trkpt lat="44.98726" lon="5.64814">
        <ele>647.14</ele>
        <time>2018-06-17T08:43:55Z</time>
      </trkpt>
      <trkpt lat="44.987" lon="5.64818">
        <ele>648.02</ele>
        <time>2018-06-17T08:45:50Z</time>
      </trkpt>
      <trkpt lat="44.9868" lon="5.6481">
        <ele>648.96</ele>
        <time>2018-06-17T08:45:52Z</time>
      </trkpt>
      <trkpt lat="44.98654" lon="5.64796">
        <ele>650.65</ele>
        <time>2018-06-17T08:45:54Z</time>
      </trkpt>
      <trkpt lat="44.98623" lon="5.64775">
        <ele>651.71</ele>
        <time>2018-06-17T08:45:56Z</time>
      </trkpt>
      <trkpt lat="44.98606" lon="5.64763">
        <ele>652.65</ele>
        <time>2018-06-17T08:45:57Z</time>
      </trkpt>
      <trkpt lat="44.98589" lon="5.64752">
        <ele>653.63</ele>
        <time>2018-06-17T08:45:58Z</time>
      </trkpt>
      <trkpt lat="44.98571" lon="5.64741">
        <ele>654.62</ele>
        <time>2018-06-17T08:45:59Z</time>
      </trkpt>
      <trkpt lat="44.98552" lon="5.6473">
        <ele>655.62</ele>
        <time>2018-06-17T08:46:00Z</time>
      </trkpt>
      <trkpt lat="44.98533" lon="5.6472">
        <ele>655.92</ele>
        <time>2018-06-17T08:46:01Z</time>
      </trkpt>
      <trkpt lat="44.98514" lon="5.64711">
        <ele>656.71</ele>
        <time>2018-06-17T08:46:02Z</time>
      </trkpt>
      <trkpt lat="44.98494" lon="5.64701">
        <ele>658.35</ele>
        <time>2018-06-17T08:46:03Z</time>
      </trkpt>
      <trkpt lat="44.98474" lon="5.64692">
        <ele>658.84</ele>
        <time>2018-06-17T08:46:04Z</time>
      </trkpt>
      <trkpt lat="44.98455" lon="5.64683">
        <ele>659.69</ele>
        <time>2018-06-17T08:46:05Z</time>
      </trkpt>
      <trkpt lat="44.98435" lon="5.64672">
        <ele>659.94</ele>
        <time>2018-06-17T08:46:06Z</time>
      </trkpt>
      <trkpt lat="44.98415" lon="5.64662">
        <ele>659.32</ele>
        <time>2018-06-17T08:46:07Z</time>
      </trkpt>
      <trkpt lat="44.98395" lon="5.64653">
        <ele>659.13</ele>
        <time>2018-06-17T08:46:08Z</time>
      </trkpt>
      <trkpt lat="44.98374" lon="5.64645">
        <ele>659.07</ele>
        <time>2018-06-17T08:46:09Z</time>
      </trkpt>
      <trkpt lat="44.98352" lon="5.64645">
        <ele>659.06</ele>
        <time>2018-06-17T08:46:10Z</time>
      </trkpt>
      <trkpt lat="44.98329" lon="5.64642">
        <ele>659.05</ele>
        <time>2018-06-17T08:46:11Z</time>
      </trkpt>
      <trkpt lat="44.98306" lon="5.64637">
        <ele>660.45</ele>
        <time>2018-06-17T08:46:12Z</time>
      </trkpt>
      <trkpt lat="44.98283" lon="5.6463">
        <ele>661.57</ele>
        <time>2018-06-17T08:46:13Z</time>
      </trkpt>
      <trkpt lat="44.98261" lon="5.64622">
        <ele>662.61</ele>
        <time>2018-06-17T08:46:14Z</time>
      </trkpt>
      <trkpt lat="44.98241" lon="5.64605">
        <ele>663.62</ele>
        <time>2018-06-17T08:46:15Z</time>
      </trkpt>
      <trkpt lat="44.98216" lon="5.64596">
        <ele>664.62</ele>
        <time>2018-06-17T08:46:16Z</time>
      </trkpt>
      <trkpt lat="44.98193" lon="5.64586">
        <ele>664.22</ele>
        <time>2018-06-17T08:46:17Z</time>
      </trkpt>
      <trkpt lat="44.9817" lon="5.64579">
        <ele>663.4</ele>
        <time>2018-06-17T08:46:18Z</time>
      </trkpt>
      <trkpt lat="44.98146" lon="5.64572">
        <ele>663.15</ele>
        <time>2018-06-17T08:46:19Z</time>
      </trkpt>
      <trkpt lat="44.98122" lon="5.64563">
        <ele>664.48</ele>
        <time>2018-06-17T08:46:20Z</time>
      </trkpt>
      <trkpt lat="44.98097" lon="5.64554">
        <ele>666.98</ele>
        <time>2018-06-17T08:46:21Z</time>
      </trkpt>
      <trkpt lat="44.98072" lon="5.64545">
        <ele>668.43</ele>
        <time>2018-06-17T08:46:22Z</time>
      </trkpt>
      <trkpt lat="44.98048" lon="5.64537">
        <ele>668.86</ele>
        <time>2018-06-17T08:46:23Z</time>
      </trkpt>
      <trkpt lat="44.98023" lon="5.64529">
        <ele>669.69</ele>
        <time>2018-06-17T08:46:24Z</time>
      </trkpt>
      <trkpt lat="44.97999" lon="5.6452">
        <ele>671.34</ele>
        <time>2018-06-17T08:46:25Z</time>
      </trkpt>
      <trkpt lat="44.97974" lon="5.64511">
        <ele>673.24</ele>
        <time>2018-06-17T08:46:26Z</time>
      </trkpt>
      <trkpt lat="44.9795" lon="5.64502">
        <ele>674.51</ele>
        <time>2018-06-17T08:46:27Z</time>
      </trkpt>
      <trkpt lat="44.97925" lon="5.64491">
        <ele>676.29</ele>
        <time>2018-06-17T08:46:28Z</time>
      </trkpt>
      <trkpt lat="44.979" lon="5.64479">
        <ele>676.82</ele>
        <time>2018-06-17T08:46:29Z</time>
      </trkpt>
      <trkpt lat="44.97874" lon="5.64465">
        <ele>677.68</ele>
        <time>2018-06-17T08:46:30Z</time>
      </trkpt>
      <trkpt lat="44.97849" lon="5.64449">
        <ele>678.64</ele>
        <time>2018-06-17T08:46:31Z</time>
      </trkpt>
      <trkpt lat="44.97824" lon="5.64435">
        <ele>681.03</ele>
        <time>2018-06-17T08:46:32Z</time>
      </trkpt>
      <trkpt lat="44.97798" lon="5.64422">
        <ele>682.44</ele>
        <time>2018-06-17T08:46:33Z</time>
      </trkpt>
      <trkpt lat="44.97771" lon="5.64411">
        <ele>683.57</ele>
        <time>2018-06-17T08:46:34Z</time>
      </trkpt>
      <trkpt lat="44.97745" lon="5.644">
        <ele>683.9</ele>
        <time>2018-06-17T08:46:35Z</time>
      </trkpt>
      <trkpt lat="44.9772" lon="5.6439">
        <ele>684.01</ele>
        <time>2018-06-17T08:46:36Z</time>
      </trkpt>
      <trkpt lat="44.97695" lon="5.64381">
        <ele>683.34</ele>
        <time>2018-06-17T08:46:37Z</time>
      </trkpt>
      <trkpt lat="44.9767" lon="5.64372">
        <ele>683.84</ele>
        <time>2018-06-17T08:46:38Z</time>
      </trkpt>
      <trkpt lat="44.97646" lon="5.64361">
        <ele>683.98</ele>
        <time>2018-06-17T08:46:39Z</time>
      </trkpt>
      <trkpt lat="44.9762" lon="5.6435">
        <ele>684.03</ele>
        <time>2018-06-17T08:46:40Z</time>
      </trkpt>
      <trkpt lat="44.97595" lon="5.64341">
        <ele>684.04</ele>
        <time>2018-06-17T08:46:41Z</time>
      </trkpt>
      <trkpt lat="44.9757" lon="5.64334">
        <ele>684.75</ele>
        <time>2018-06-17T08:46:42Z</time>
      </trkpt>
      <trkpt lat="44.97544" lon="5.64328">
        <ele>685.66</ele>
        <time>2018-06-17T08:46:43Z</time>
      </trkpt>
      <trkpt lat="44.97518" lon="5.64323">
        <ele>685.93</ele>
        <time>2018-06-17T08:46:44Z</time>
      </trkpt>
      <trkpt lat="44.97493" lon="5.64316">
        <ele>686.01</ele>
        <time>2018-06-17T08:46:45Z</time>
      </trkpt>
      <trkpt lat="44.97468" lon="5.64308">
        <ele>686.04</ele>
        <time>2018-06-17T08:46:46Z</time>
      </trkpt>
      <trkpt lat="44.97443" lon="5.64299">
        <ele>686.75</ele>
        <time>2018-06-17T08:46:47Z</time>
      </trkpt>
      <trkpt lat="44.97421" lon="5.64284">
        <ele>686.96</ele>
        <time>2018-06-17T08:46:48Z</time>
      </trkpt>
      <trkpt lat="44.97398" lon="5.64271">
        <ele>687.02</ele>
        <time>2018-06-17T08:46:49Z</time>
      </trkpt>
      <trkpt lat="44.97374" lon="5.64257">
        <ele>687.74</ele>
        <time>2018-06-17T08:46:50Z</time>
      </trkpt>
      <trkpt lat="44.97353" lon="5.64238">
        <ele>688.66</ele>
        <time>2018-06-17T08:46:51Z</time>
      </trkpt>
      <trkpt lat="44.97334" lon="5.6422">
        <ele>689.63</ele>
        <time>2018-06-17T08:46:52Z</time>
      </trkpt>
      <trkpt lat="44.97313" lon="5.64205">
        <ele>689.92</ele>
        <time>2018-06-17T08:46:53Z</time>
      </trkpt>
      <trkpt lat="44.97291" lon="5.64194">
        <ele>690.71</ele>
        <time>2018-06-17T08:46:54Z</time>
      </trkpt>
      <trkpt lat="44.97268" lon="5.64186">
        <ele>691.65</ele>
        <time>2018-06-17T08:46:55Z</time>
      </trkpt>
      <trkpt lat="44.97245" lon="5.64177">
        <ele>692.63</ele>
        <time>2018-06-17T08:46:56Z</time>
      </trkpt>
      <trkpt lat="44.97222" lon="5.64169">
        <ele>692.92</ele>
        <time>2018-06-17T08:46:57Z</time>
      </trkpt>
      <trkpt lat="44.97198" lon="5.6416">
        <ele>693.71</ele>
        <time>2018-06-17T08:46:58Z</time>
      </trkpt>
      <trkpt lat="44.97175" lon="5.6415">
        <ele>693.95</ele>
        <time>2018-06-17T08:46:59Z</time>
      </trkpt>
      <trkpt lat="44.97152" lon="5.64138">
        <ele>694.72</ele>
        <time>2018-06-17T08:47:00Z</time>
      </trkpt>
      <trkpt lat="44.97129" lon="5.64122">
        <ele>694.25</ele>
        <time>2018-06-17T08:47:01Z</time>
      </trkpt>
      <trkpt lat="44.97106" lon="5.64106">
        <ele>694.81</ele>
        <time>2018-06-17T08:47:02Z</time>
      </trkpt>
      <trkpt lat="44.97082" lon="5.64086">
        <ele>694.98</ele>
        <time>2018-06-17T08:47:03Z</time>
      </trkpt>
      <trkpt lat="44.97067" lon="5.6406">
        <ele>695.03</ele>
        <time>2018-06-17T08:47:04Z</time>
      </trkpt>
      <trkpt lat="44.97048" lon="5.64036">
        <ele>695.04</ele>
        <time>2018-06-17T08:47:05Z</time>
      </trkpt>
      <trkpt lat="44.9703" lon="5.6401">
        <ele>695.05</ele>
        <time>2018-06-17T08:47:06Z</time>
      </trkpt>
      <trkpt lat="44.97013" lon="5.63982">
        <ele>695.05</ele>
        <time>2018-06-17T08:47:07Z</time>
      </trkpt>
      <trkpt lat="44.96995" lon="5.63956">
        <ele>694.35</ele>
        <time>2018-06-17T08:47:08Z</time>
      </trkpt>
      <trkpt lat="44.96978" lon="5.63929">
        <ele>694.14</ele>
        <time>2018-06-17T08:47:09Z</time>
      </trkpt>
      <trkpt lat="44.9696" lon="5.63906">
        <ele>694.78</ele>
        <time>2018-06-17T08:47:10Z</time>
      </trkpt>
      <trkpt lat="44.96943" lon="5.63883">
        <ele>695.67</ele>
        <time>2018-06-17T08:47:11Z</time>
      </trkpt>
      <trkpt lat="44.96923" lon="5.63862">
        <ele>695.23</ele>
        <time>2018-06-17T08:47:12Z</time>
      </trkpt>
      <trkpt lat="44.96903" lon="5.63843">
        <ele>696.5</ele>
        <time>2018-06-17T08:47:13Z</time>
      </trkpt>
      <trkpt lat="44.96884" lon="5.63825">
        <ele>697.59</ele>
        <time>2018-06-17T08:47:14Z</time>
      </trkpt>
      <trkpt lat="44.96865" lon="5.63811">
        <ele>697.91</ele>
        <time>2018-06-17T08:47:15Z</time>
      </trkpt>
      <trkpt lat="44.96842" lon="5.63798">
        <ele>699.41</ele>
        <time>2018-06-17T08:47:16Z</time>
      </trkpt>
      <trkpt lat="44.96818" lon="5.63789">
        <ele>699.86</ele>
        <time>2018-06-17T08:47:17Z</time>
      </trkpt>
      <trkpt lat="44.96794" lon="5.63781">
        <ele>699.99</ele>
        <time>2018-06-17T08:47:18Z</time>
      </trkpt>
      <trkpt lat="44.96771" lon="5.6377">
        <ele>700.73</ele>
        <time>2018-06-17T08:47:19Z</time>
      </trkpt>
      <trkpt lat="44.96747" lon="5.63763">
        <ele>700.95</ele>
        <time>2018-06-17T08:47:20Z</time>
      </trkpt>
      <trkpt lat="44.96725" lon="5.63753">
        <ele>701.72</ele>
        <time>2018-06-17T08:47:21Z</time>
      </trkpt>
      <trkpt lat="44.96703" lon="5.63746">
        <ele>701.25</ele>
        <time>2018-06-17T08:47:22Z</time>
      </trkpt>
      <trkpt lat="44.9668" lon="5.63745">
        <ele>701.11</ele>
        <time>2018-06-17T08:47:23Z</time>
      </trkpt>
      <trkpt lat="44.96656" lon="5.63755">
        <ele>701.77</ele>
        <time>2018-06-17T08:47:24Z</time>
      </trkpt>
      <trkpt lat="44.96634" lon="5.63762">
        <ele>701.26</ele>
        <time>2018-06-17T08:47:25Z</time>
      </trkpt>
      <trkpt lat="44.96612" lon="5.63769">
        <ele>701.11</ele>
        <time>2018-06-17T08:47:26Z</time>
      </trkpt>
      <trkpt lat="44.96588" lon="5.63773">
        <ele>701.77</ele>
        <time>2018-06-17T08:47:27Z</time>
      </trkpt>
      <trkpt lat="44.96565" lon="5.63777">
        <ele>701.96</ele>
        <time>2018-06-17T08:47:28Z</time>
      </trkpt>
      <trkpt lat="44.96541" lon="5.6378">
        <ele>702.72</ele>
        <time>2018-06-17T08:47:29Z</time>
      </trkpt>
      <trkpt lat="44.96518" lon="5.63783">
        <ele>703.65</ele>
        <time>2018-06-17T08:47:30Z</time>
      </trkpt>
      <trkpt lat="44.96495" lon="5.63785">
        <ele>704.63</ele>
        <time>2018-06-17T08:47:31Z</time>
      </trkpt>
      <trkpt lat="44.96472" lon="5.63784">
        <ele>704.92</ele>
        <time>2018-06-17T08:47:32Z</time>
      </trkpt>
      <trkpt lat="44.9645" lon="5.63783">
        <ele>705.71</ele>
        <time>2018-06-17T08:47:33Z</time>
      </trkpt>
      <trkpt lat="44.9643" lon="5.63783">
        <ele>705.95</ele>
        <time>2018-06-17T08:47:34Z</time>
      </trkpt>
      <trkpt lat="44.96404" lon="5.63779">
        <ele>703.52</ele>
        <time>2018-06-17T08:47:36Z</time>
      </trkpt>
      <trkpt lat="44.96377" lon="5.63789">
        <ele>701.48</ele>
        <time>2018-06-17T08:47:38Z</time>
      </trkpt>
      <trkpt lat="44.96353" lon="5.63807">
        <ele>701.79</ele>
        <time>2018-06-17T08:47:40Z</time>
      </trkpt>
      <trkpt lat="44.96324" lon="5.63808">
        <ele>704.55</ele>
        <time>2018-06-17T08:47:42Z</time>
      </trkpt>
      <trkpt lat="44.96299" lon="5.63793">
        <ele>705.21</ele>
        <time>2018-06-17T08:47:44Z</time>
      </trkpt>
      <trkpt lat="44.96296" lon="5.6375">
        <ele>703.73</ele>
        <time>2018-06-17T08:47:46Z</time>
      </trkpt>
      <trkpt lat="44.96321" lon="5.63707">
        <ele>708.43</ele>
        <time>2018-06-17T08:47:48Z</time>
      </trkpt>
      <trkpt lat="44.96336" lon="5.6367">
        <ele>713.33</ele>
        <time>2018-06-17T08:47:50Z</time>
      </trkpt>
      <trkpt lat="44.96355" lon="5.6364">
        <ele>714.68</ele>
        <time>2018-06-17T08:47:52Z</time>
      </trkpt>
      <trkpt lat="44.96374" lon="5.63609">
        <ele>712.5</ele>
        <time>2018-06-17T08:47:54Z</time>
      </trkpt>
      <trkpt lat="44.96383" lon="5.6358">
        <ele>714.89</ele>
        <time>2018-06-17T08:47:56Z</time>
      </trkpt>
      <trkpt lat="44.96344" lon="5.63579">
        <ele>717.9</ele>
        <time>2018-06-17T08:47:59Z</time>
      </trkpt>
      <trkpt lat="44.96315" lon="5.63595">
        <ele>720.56</ele>
        <time>2018-06-17T08:48:01Z</time>
      </trkpt>
      <trkpt lat="44.9629" lon="5.63604">
        <ele>720.9</ele>
        <time>2018-06-17T08:48:02Z</time>
      </trkpt>
      <trkpt lat="44.96268" lon="5.63613">
        <ele>719.6</ele>
        <time>2018-06-17T08:48:03Z</time>
      </trkpt>
      <trkpt lat="44.96245" lon="5.63623">
        <ele>719.92</ele>
        <time>2018-06-17T08:48:04Z</time>
      </trkpt>
      <trkpt lat="44.96219" lon="5.63632">
        <ele>720.01</ele>
        <time>2018-06-17T08:48:05Z</time>
      </trkpt>
      <trkpt lat="44.96193" lon="5.63641">
        <ele>720.74</ele>
        <time>2018-06-17T08:48:06Z</time>
      </trkpt>
      <trkpt lat="44.96166" lon="5.63651">
        <ele>721.66</ele>
        <time>2018-06-17T08:48:07Z</time>
      </trkpt>
      <trkpt lat="44.9614" lon="5.6366">
        <ele>722.63</ele>
        <time>2018-06-17T08:48:08Z</time>
      </trkpt>
      <trkpt lat="44.96113" lon="5.63667">
        <ele>722.92</ele>
        <time>2018-06-17T08:48:09Z</time>
      </trkpt>
      <trkpt lat="44.96087" lon="5.63671">
        <ele>723.01</ele>
        <time>2018-06-17T08:48:10Z</time>
      </trkpt>
      <trkpt lat="44.96062" lon="5.63676">
        <ele>722.34</ele>
        <time>2018-06-17T08:48:11Z</time>
      </trkpt>
      <trkpt lat="44.96038" lon="5.63681">
        <ele>722.14</ele>
        <time>2018-06-17T08:48:12Z</time>
      </trkpt>
      <trkpt lat="44.96013" lon="5.63692">
        <ele>722.08</ele>
        <time>2018-06-17T08:48:13Z</time>
      </trkpt>
      <trkpt lat="44.95988" lon="5.63709">
        <ele>722.76</ele>
        <time>2018-06-17T08:48:14Z</time>
      </trkpt>
      <trkpt lat="44.95962" lon="5.63723">
        <ele>722.96</ele>
        <time>2018-06-17T08:48:15Z</time>
      </trkpt>
      <trkpt lat="44.95938" lon="5.63737">
        <ele>723.02</ele>
        <time>2018-06-17T08:48:16Z</time>
      </trkpt>
      <trkpt lat="44.95914" lon="5.63747">
        <ele>723.74</ele>
        <time>2018-06-17T08:48:17Z</time>
      </trkpt>
      <trkpt lat="44.9589" lon="5.63757">
        <ele>724.66</ele>
        <time>2018-06-17T08:48:18Z</time>
      </trkpt>
      <trkpt lat="44.95867" lon="5.63763">
        <ele>724.93</ele>
        <time>2018-06-17T08:48:19Z</time>
      </trkpt>
      <trkpt lat="44.95846" lon="5.63764">
        <ele>722.91</ele>
        <time>2018-06-17T08:48:20Z</time>
      </trkpt>
      <trkpt lat="44.95826" lon="5.63767">
        <ele>722.31</ele>
        <time>2018-06-17T08:48:21Z</time>
      </trkpt>
      <trkpt lat="44.95807" lon="5.63772">
        <ele>722.13</ele>
        <time>2018-06-17T08:48:22Z</time>
      </trkpt>
      <trkpt lat="44.95787" lon="5.63776">
        <ele>722.77</ele>
        <time>2018-06-17T08:48:23Z</time>
      </trkpt>
      <trkpt lat="44.95768" lon="5.63787">
        <ele>722.27</ele>
        <time>2018-06-17T08:48:24Z</time>
      </trkpt>
      <trkpt lat="44.95749" lon="5.638">
        <ele>722.81</ele>
        <time>2018-06-17T08:48:25Z</time>
      </trkpt>
      <trkpt lat="44.95731" lon="5.63814">
        <ele>722.98</ele>
        <time>2018-06-17T08:48:26Z</time>
      </trkpt>
      <trkpt lat="44.95711" lon="5.63831">
        <ele>723.03</ele>
        <time>2018-06-17T08:48:27Z</time>
      </trkpt>
      <trkpt lat="44.95689" lon="5.63852">
        <ele>723.04</ele>
        <time>2018-06-17T08:48:28Z</time>
      </trkpt>
      <trkpt lat="44.95667" lon="5.63872">
        <ele>723.05</ele>
        <time>2018-06-17T08:48:29Z</time>
      </trkpt>
      <trkpt lat="44.95643" lon="5.6389">
        <ele>723.75</ele>
        <time>2018-06-17T08:48:30Z</time>
      </trkpt>
      <trkpt lat="44.95618" lon="5.63906">
        <ele>723.96</ele>
        <time>2018-06-17T08:48:31Z</time>
      </trkpt>
      <trkpt lat="44.95597" lon="5.6392">
        <ele>726.12</ele>
        <time>2018-06-17T08:48:32Z</time>
      </trkpt>
      <trkpt lat="44.95574" lon="5.63936">
        <ele>727.47</ele>
        <time>2018-06-17T08:48:33Z</time>
      </trkpt>
      <trkpt lat="44.95556" lon="5.63954">
        <ele>728.58</ele>
        <time>2018-06-17T08:48:34Z</time>
      </trkpt>
      <trkpt lat="44.95538" lon="5.63975">
        <ele>728.91</ele>
        <time>2018-06-17T08:48:35Z</time>
      </trkpt>
      <trkpt lat="44.95521" lon="5.63996">
        <ele>729.71</ele>
        <time>2018-06-17T08:48:36Z</time>
      </trkpt>
      <trkpt lat="44.95505" lon="5.64016">
        <ele>729.95</ele>
        <time>2018-06-17T08:48:37Z</time>
      </trkpt>
      <trkpt lat="44.95488" lon="5.64035">
        <ele>730.72</ele>
        <time>2018-06-17T08:48:38Z</time>
      </trkpt>
      <trkpt lat="44.95468" lon="5.64042">
        <ele>732.35</ele>
        <time>2018-06-17T08:48:39Z</time>
      </trkpt>
      <trkpt lat="44.95451" lon="5.64053">
        <ele>732.84</ele>
        <time>2018-06-17T08:48:40Z</time>
      </trkpt>
      <trkpt lat="44.95422" lon="5.64051">
        <ele>733.73</ele>
        <time>2018-06-17T08:48:42Z</time>
      </trkpt>
      <trkpt lat="44.95393" lon="5.64035">
        <ele>734.02</ele>
        <time>2018-06-17T08:48:44Z</time>
      </trkpt>
      <trkpt lat="44.95362" lon="5.64014">
        <ele>734.96</ele>
        <time>2018-06-17T08:48:46Z</time>
      </trkpt>
      <trkpt lat="44.95329" lon="5.63996">
        <ele>734.83</ele>
        <time>2018-06-17T08:48:48Z</time>
      </trkpt>
      <trkpt lat="44.95297" lon="5.64007">
        <ele>735.03</ele>
        <time>2018-06-17T08:48:50Z</time>
      </trkpt>
      <trkpt lat="44.95268" lon="5.64034">
        <ele>735.96</ele>
        <time>2018-06-17T08:48:52Z</time>
      </trkpt>
      <trkpt lat="44.95235" lon="5.64036">
        <ele>736.74</ele>
        <time>2018-06-17T08:48:54Z</time>
      </trkpt>
      <trkpt lat="44.952" lon="5.64031">
        <ele>737.93</ele>
        <time>2018-06-17T08:48:56Z</time>
      </trkpt>
      <trkpt lat="44.95186" lon="5.63998">
        <ele>738.01</ele>
        <time>2018-06-17T08:48:57Z</time>
      </trkpt>
      <trkpt lat="44.95171" lon="5.63979">
        <ele>739.44</ele>
        <time>2018-06-17T08:48:58Z</time>
      </trkpt>
      <trkpt lat="44.95156" lon="5.63963">
        <ele>739.87</ele>
        <time>2018-06-17T08:48:59Z</time>
      </trkpt>
      <trkpt lat="44.95121" lon="5.63938">
        <ele>740.03</ele>
        <time>2018-06-17T08:49:01Z</time>
      </trkpt>
      <trkpt lat="44.95095" lon="5.63948">
        <ele>740.74</ele>
        <time>2018-06-17T08:49:02Z</time>
      </trkpt>
      <trkpt lat="44.95072" lon="5.6395">
        <ele>741.66</ele>
        <time>2018-06-17T08:49:03Z</time>
      </trkpt>
      <trkpt lat="44.95047" lon="5.6395">
        <ele>742.63</ele>
        <time>2018-06-17T08:49:04Z</time>
      </trkpt>
      <trkpt lat="44.95022" lon="5.63945">
        <ele>743.62</ele>
        <time>2018-06-17T08:49:05Z</time>
      </trkpt>
      <trkpt lat="44.94997" lon="5.63937">
        <ele>743.92</ele>
        <time>2018-06-17T08:49:06Z</time>
      </trkpt>
      <trkpt lat="44.94969" lon="5.6393">
        <ele>745.41</ele>
        <time>2018-06-17T08:49:07Z</time>
      </trkpt>
      <trkpt lat="44.9494" lon="5.63929">
        <ele>746.56</ele>
        <time>2018-06-17T08:49:08Z</time>
      </trkpt>
      <trkpt lat="44.94911" lon="5.6393">
        <ele>746.2</ele>
        <time>2018-06-17T08:49:09Z</time>
      </trkpt>
      <trkpt lat="44.94881" lon="5.63932">
        <ele>745.39</ele>
        <time>2018-06-17T08:49:10Z</time>
      </trkpt>
      <trkpt lat="44.94853" lon="5.63934">
        <ele>745.15</ele>
        <time>2018-06-17T08:49:11Z</time>
      </trkpt>
      <trkpt lat="44.94826" lon="5.63938">
        <ele>745.08</ele>
        <time>2018-06-17T08:49:12Z</time>
      </trkpt>
      <trkpt lat="44.94798" lon="5.63946">
        <ele>745.06</ele>
        <time>2018-06-17T08:49:13Z</time>
      </trkpt>
      <trkpt lat="44.94771" lon="5.63959">
        <ele>745.75</ele>
        <time>2018-06-17T08:49:14Z</time>
      </trkpt>
      <trkpt lat="44.94745" lon="5.63976">
        <ele>746.66</ele>
        <time>2018-06-17T08:49:15Z</time>
      </trkpt>
      <trkpt lat="44.94719" lon="5.63994">
        <ele>746.93</ele>
        <time>2018-06-17T08:49:16Z</time>
      </trkpt>
      <trkpt lat="44.94694" lon="5.64011">
        <ele>747.71</ele>
        <time>2018-06-17T08:49:17Z</time>
      </trkpt>
      <trkpt lat="44.9467" lon="5.64026">
        <ele>747.95</ele>
        <time>2018-06-17T08:49:18Z</time>
      </trkpt>
      <trkpt lat="44.94648" lon="5.64037">
        <ele>748.72</ele>
        <time>2018-06-17T08:49:19Z</time>
      </trkpt>
      <trkpt lat="44.94629" lon="5.64045">
        <ele>749.65</ele>
        <time>2018-06-17T08:49:20Z</time>
      </trkpt>
      <trkpt lat="44.94609" lon="5.64052">
        <ele>750.63</ele>
        <time>2018-06-17T08:49:21Z</time>
      </trkpt>
      <trkpt lat="44.94579" lon="5.64041">
        <ele>752.62</ele>
        <time>2018-06-17T08:49:23Z</time>
      </trkpt>
      <trkpt lat="44.9455" lon="5.64009">
        <ele>754.62</ele>
        <time>2018-06-17T08:49:25Z</time>
      </trkpt>
      <trkpt lat="44.94536" lon="5.6399">
        <ele>754.92</ele>
        <time>2018-06-17T08:49:26Z</time>
      </trkpt>
      <trkpt lat="44.94522" lon="5.63972">
        <ele>755.01</ele>
        <time>2018-06-17T08:49:27Z</time>
      </trkpt>
      <trkpt lat="44.94506" lon="5.63959">
        <ele>755.04</ele>
        <time>2018-06-17T08:49:28Z</time>
      </trkpt>
      <trkpt lat="44.94488" lon="5.63949">
        <ele>755.05</ele>
        <time>2018-06-17T08:49:29Z</time>
      </trkpt>
      <trkpt lat="44.94466" lon="5.63947">
        <ele>755.75</ele>
        <time>2018-06-17T08:49:30Z</time>
      </trkpt>
      <trkpt lat="44.94446" lon="5.63941">
        <ele>755.96</ele>
        <time>2018-06-17T08:49:31Z</time>
      </trkpt>
      <trkpt lat="44.94427" lon="5.63944">
        <ele>755.32</ele>
        <time>2018-06-17T08:49:32Z</time>
      </trkpt>
      <trkpt lat="44.94389" lon="5.63959">
        <ele>755.77</ele>
        <time>2018-06-17T08:49:34Z</time>
      </trkpt>
      <trkpt lat="44.94369" lon="5.6397">
        <ele>755.97</ele>
        <time>2018-06-17T08:49:35Z</time>
      </trkpt>
      <trkpt lat="44.94348" lon="5.63983">
        <ele>756.72</ele>
        <time>2018-06-17T08:49:36Z</time>
      </trkpt>
      <trkpt lat="44.94327" lon="5.63994">
        <ele>756.25</ele>
        <time>2018-06-17T08:49:37Z</time>
      </trkpt>
      <trkpt lat="44.94303" lon="5.64003">
        <ele>755.41</ele>
        <time>2018-06-17T08:49:38Z</time>
      </trkpt>
      <trkpt lat="44.94277" lon="5.64009">
        <ele>755.86</ele>
        <time>2018-06-17T08:49:39Z</time>
      </trkpt>
      <trkpt lat="44.94248" lon="5.6402">
        <ele>755.99</ele>
        <time>2018-06-17T08:49:40Z</time>
      </trkpt>
      <trkpt lat="44.94221" lon="5.64034">
        <ele>756.73</ele>
        <time>2018-06-17T08:49:41Z</time>
      </trkpt>
      <trkpt lat="44.94193" lon="5.64048">
        <ele>756.95</ele>
        <time>2018-06-17T08:49:42Z</time>
      </trkpt>
      <trkpt lat="44.94164" lon="5.64059">
        <ele>757.72</ele>
        <time>2018-06-17T08:49:43Z</time>
      </trkpt>
      <trkpt lat="44.94137" lon="5.64068">
        <ele>758.65</ele>
        <time>2018-06-17T08:49:44Z</time>
      </trkpt>
      <trkpt lat="44.94108" lon="5.64076">
        <ele>759.63</ele>
        <time>2018-06-17T08:49:45Z</time>
      </trkpt>
      <trkpt lat="44.94079" lon="5.64081">
        <ele>759.92</ele>
        <time>2018-06-17T08:49:46Z</time>
      </trkpt>
      <trkpt lat="44.94049" lon="5.64081">
        <ele>760.71</ele>
        <time>2018-06-17T08:49:47Z</time>
      </trkpt>
      <trkpt lat="44.94019" lon="5.64077">
        <ele>760.95</ele>
        <time>2018-06-17T08:49:48Z</time>
      </trkpt>
      <trkpt lat="44.9399" lon="5.64076">
        <ele>761.72</ele>
        <time>2018-06-17T08:49:49Z</time>
      </trkpt>
      <trkpt lat="44.93962" lon="5.64072">
        <ele>762.65</ele>
        <time>2018-06-17T08:49:50Z</time>
      </trkpt>
      <trkpt lat="44.93935" lon="5.64069">
        <ele>762.93</ele>
        <time>2018-06-17T08:49:51Z</time>
      </trkpt>
      <trkpt lat="44.93912" lon="5.64059">
        <ele>763.71</ele>
        <time>2018-06-17T08:49:52Z</time>
      </trkpt>
      <trkpt lat="44.9389" lon="5.64054">
        <ele>763.25</ele>
        <time>2018-06-17T08:49:53Z</time>
      </trkpt>
      <trkpt lat="44.93869" lon="5.6405">
        <ele>763.81</ele>
        <time>2018-06-17T08:49:54Z</time>
      </trkpt>
      <trkpt lat="44.9385" lon="5.64049">
        <ele>764.68</ele>
        <time>2018-06-17T08:49:55Z</time>
      </trkpt>
      <trkpt lat="44.93817" lon="5.64044">
        <ele>765.02</ele>
        <time>2018-06-17T08:49:57Z</time>
      </trkpt>
      <trkpt lat="44.93786" lon="5.6405">
        <ele>766.24</ele>
        <time>2018-06-17T08:49:59Z</time>
      </trkpt>
      <trkpt lat="44.93767" lon="5.6406">
        <ele>767.51</ele>
        <time>2018-06-17T08:50:00Z</time>
      </trkpt>
      <trkpt lat="44.93742" lon="5.6407">
        <ele>768.59</ele>
        <time>2018-06-17T08:50:01Z</time>
      </trkpt>
      <trkpt lat="44.93717" lon="5.64078">
        <ele>769.61</ele>
        <time>2018-06-17T08:50:02Z</time>
      </trkpt>
      <trkpt lat="44.9369" lon="5.64083">
        <ele>770.62</ele>
        <time>2018-06-17T08:50:03Z</time>
      </trkpt>
      <trkpt lat="44.93665" lon="5.64085">
        <ele>771.62</ele>
        <time>2018-06-17T08:50:04Z</time>
      </trkpt>
      <trkpt lat="44.93639" lon="5.64087">
        <ele>772.62</ele>
        <time>2018-06-17T08:50:05Z</time>
      </trkpt>
      <trkpt lat="44.93614" lon="5.64089">
        <ele>773.62</ele>
        <time>2018-06-17T08:50:06Z</time>
      </trkpt>
      <trkpt lat="44.93591" lon="5.64091">
        <ele>773.22</ele>
        <time>2018-06-17T08:50:07Z</time>
      </trkpt>
      <trkpt lat="44.93568" lon="5.64093">
        <ele>773.1</ele>
        <time>2018-06-17T08:50:08Z</time>
      </trkpt>
      <trkpt lat="44.93544" lon="5.64095">
        <ele>774.46</ele>
        <time>2018-06-17T08:50:09Z</time>
      </trkpt>
      <trkpt lat="44.93521" lon="5.64096">
        <ele>774.87</ele>
        <time>2018-06-17T08:50:10Z</time>
      </trkpt>
      <trkpt lat="44.93497" lon="5.64099">
        <ele>775.7</ele>
        <time>2018-06-17T08:50:11Z</time>
      </trkpt>
      <trkpt lat="44.93475" lon="5.64096">
        <ele>774.54</ele>
        <time>2018-06-17T08:50:12Z</time>
      </trkpt>
      <trkpt lat="44.93453" lon="5.64094">
        <ele>773.5</ele>
        <time>2018-06-17T08:50:13Z</time>
      </trkpt>
      <trkpt lat="44.93431" lon="5.64091">
        <ele>774.58</ele>
        <time>2018-06-17T08:50:14Z</time>
      </trkpt>
      <trkpt lat="44.9341" lon="5.64087">
        <ele>775.61</ele>
        <time>2018-06-17T08:50:15Z</time>
      </trkpt>
      <trkpt lat="44.93388" lon="5.64083">
        <ele>776.62</ele>
        <time>2018-06-17T08:50:16Z</time>
      </trkpt>
      <trkpt lat="44.93367" lon="5.64078">
        <ele>778.32</ele>
        <time>2018-06-17T08:50:17Z</time>
      </trkpt>
      <trkpt lat="44.93346" lon="5.64072">
        <ele>780.23</ele>
        <time>2018-06-17T08:50:18Z</time>
      </trkpt>
      <trkpt lat="44.93326" lon="5.64064">
        <ele>781.5</ele>
        <time>2018-06-17T08:50:19Z</time>
      </trkpt>
      <trkpt lat="44.93307" lon="5.64055">
        <ele>781.89</ele>
        <time>2018-06-17T08:50:20Z</time>
      </trkpt>
      <trkpt lat="44.93287" lon="5.64046">
        <ele>783.4</ele>
        <time>2018-06-17T08:50:21Z</time>
      </trkpt>
      <trkpt lat="44.93268" lon="5.64037">
        <ele>785.95</ele>
        <time>2018-06-17T08:50:22Z</time>
      </trkpt>
      <trkpt lat="44.93249" lon="5.6403">
        <ele>787.42</ele>
        <time>2018-06-17T08:50:23Z</time>
      </trkpt>
      <trkpt lat="44.9323" lon="5.64022">
        <ele>787.16</ele>
        <time>2018-06-17T08:50:24Z</time>
      </trkpt>
      <trkpt lat="44.93211" lon="5.64016">
        <ele>787.08</ele>
        <time>2018-06-17T08:50:25Z</time>
      </trkpt>
      <trkpt lat="44.93193" lon="5.64009">
        <ele>787.76</ele>
        <time>2018-06-17T08:50:26Z</time>
      </trkpt>
      <trkpt lat="44.9316" lon="5.63998">
        <ele>788.72</ele>
        <time>2018-06-17T08:50:28Z</time>
      </trkpt>
      <trkpt lat="44.93127" lon="5.63987">
        <ele>789.51</ele>
        <time>2018-06-17T08:50:30Z</time>
      </trkpt>
      <trkpt lat="44.93093" lon="5.63976">
        <ele>790</ele>
        <time>2018-06-17T08:50:32Z</time>
      </trkpt>
      <trkpt lat="44.9306" lon="5.63965">
        <ele>790.04</ele>
        <time>2018-06-17T08:50:34Z</time>
      </trkpt>
      <trkpt lat="44.93027" lon="5.63955">
        <ele>791.66</ele>
        <time>2018-06-17T08:50:36Z</time>
      </trkpt>
      <trkpt lat="44.92998" lon="5.63949">
        <ele>792.01</ele>
        <time>2018-06-17T08:50:38Z</time>
      </trkpt>
      <trkpt lat="44.92972" lon="5.63946">
        <ele>792.96</ele>
        <time>2018-06-17T08:50:40Z</time>
      </trkpt>
      <trkpt lat="44.92951" lon="5.63943">
        <ele>793.74</ele>
        <time>2018-06-17T08:50:42Z</time>
      </trkpt>
      <trkpt lat="44.92933" lon="5.63932">
        <ele>794.04</ele>
        <time>2018-06-17T08:50:45Z</time>
      </trkpt>
      <trkpt lat="44.92914" lon="5.63922">
        <ele>796.63</ele>
        <time>2018-06-17T08:50:48Z</time>
      </trkpt>
      <trkpt lat="44.92893" lon="5.6392">
        <ele>797.71</ele>
        <time>2018-06-17T08:50:50Z</time>
      </trkpt>
      <trkpt lat="44.92866" lon="5.63908">
        <ele>798.02</ele>
        <time>2018-06-17T08:50:52Z</time>
      </trkpt>
      <trkpt lat="44.92836" lon="5.63892">
        <ele>797.84</ele>
        <time>2018-06-17T08:50:54Z</time>
      </trkpt>
      <trkpt lat="44.92803" lon="5.63879">
        <ele>798.73</ele>
        <time>2018-06-17T08:50:56Z</time>
      </trkpt>
      <trkpt lat="44.9277" lon="5.63868">
        <ele>799.93</ele>
        <time>2018-06-17T08:50:58Z</time>
      </trkpt>
      <trkpt lat="44.92737" lon="5.63857">
        <ele>800.74</ele>
        <time>2018-06-17T08:51:00Z</time>
      </trkpt>
      <trkpt lat="44.92705" lon="5.63846">
        <ele>801.72</ele>
        <time>2018-06-17T08:51:02Z</time>
      </trkpt>
      <trkpt lat="44.92674" lon="5.63833">
        <ele>802.02</ele>
        <time>2018-06-17T08:51:04Z</time>
      </trkpt>
      <trkpt lat="44.92645" lon="5.63819">
        <ele>802.05</ele>
        <time>2018-06-17T08:51:06Z</time>
      </trkpt>
      <trkpt lat="44.9262" lon="5.63808">
        <ele>802.96</ele>
        <time>2018-06-17T08:51:08Z</time>
      </trkpt>
      <trkpt lat="44.92599" lon="5.63799">
        <ele>803.95</ele>
        <time>2018-06-17T08:51:10Z</time>
      </trkpt>
      <trkpt lat="44.92581" lon="5.63794">
        <ele>803.83</ele>
        <time>2018-06-17T08:51:12Z</time>
      </trkpt>
      <trkpt lat="44.92559" lon="5.63796">
        <ele>803.33</ele>
        <time>2018-06-17T08:51:14Z</time>
      </trkpt>
      <trkpt lat="44.92538" lon="5.63789">
        <ele>804.68</ele>
        <time>2018-06-17T08:51:16Z</time>
      </trkpt>
      <trkpt lat="44.92514" lon="5.63781">
        <ele>805.02</ele>
        <time>2018-06-17T08:51:18Z</time>
      </trkpt>
      <trkpt lat="44.9249" lon="5.63774">
        <ele>805.96</ele>
        <time>2018-06-17T08:51:20Z</time>
      </trkpt>
      <trkpt lat="44.92465" lon="5.63767">
        <ele>806.95</ele>
        <time>2018-06-17T08:51:22Z</time>
      </trkpt>
      <trkpt lat="44.92439" lon="5.63759">
        <ele>807.74</ele>
        <time>2018-06-17T08:51:24Z</time>
      </trkpt>
      <trkpt lat="44.92413" lon="5.63751">
        <ele>807.81</ele>
        <time>2018-06-17T08:51:26Z</time>
      </trkpt>
      <trkpt lat="44.92388" lon="5.63741">
        <ele>808.73</ele>
        <time>2018-06-17T08:51:28Z</time>
      </trkpt>
      <trkpt lat="44.92363" lon="5.63732">
        <ele>809.02</ele>
        <time>2018-06-17T08:51:30Z</time>
      </trkpt>
      <trkpt lat="44.92338" lon="5.63723">
        <ele>809.05</ele>
        <time>2018-06-17T08:51:32Z</time>
      </trkpt>
      <trkpt lat="44.92312" lon="5.63714">
        <ele>809.75</ele>
        <time>2018-06-17T08:51:34Z</time>
      </trkpt>
      <trkpt lat="44.92287" lon="5.63706">
        <ele>810.02</ele>
        <time>2018-06-17T08:51:36Z</time>
      </trkpt>
      <trkpt lat="44.92262" lon="5.63698">
        <ele>810.75</ele>
        <time>2018-06-17T08:51:38Z</time>
      </trkpt>
      <trkpt lat="44.92237" lon="5.63689">
        <ele>810.11</ele>
        <time>2018-06-17T08:51:40Z</time>
      </trkpt>
      <trkpt lat="44.92212" lon="5.63679">
        <ele>810.96</ele>
        <time>2018-06-17T08:51:42Z</time>
      </trkpt>
      <trkpt lat="44.92187" lon="5.63671">
        <ele>811.04</ele>
        <time>2018-06-17T08:51:44Z</time>
      </trkpt>
      <trkpt lat="44.92163" lon="5.63664">
        <ele>811.05</ele>
        <time>2018-06-17T08:51:46Z</time>
      </trkpt>
      <trkpt lat="44.92143" lon="5.63656">
        <ele>811.05</ele>
        <time>2018-06-17T08:51:48Z</time>
      </trkpt>
      <trkpt lat="44.92129" lon="5.63632">
        <ele>810.14</ele>
        <time>2018-06-17T08:51:51Z</time>
      </trkpt>
      <trkpt lat="44.92119" lon="5.63609">
        <ele>809.35</ele>
        <time>2018-06-17T08:51:54Z</time>
      </trkpt>
      <trkpt lat="44.92108" lon="5.63585">
        <ele>808.17</ele>
        <time>2018-06-17T08:51:56Z</time>
      </trkpt>
      <trkpt lat="44.92095" lon="5.63556">
        <ele>808.06</ele>
        <time>2018-06-17T08:51:58Z</time>
      </trkpt>
      <trkpt lat="44.92078" lon="5.63524">
        <ele>808.96</ele>
        <time>2018-06-17T08:52:00Z</time>
      </trkpt>
      <trkpt lat="44.92053" lon="5.63496">
        <ele>810.65</ele>
        <time>2018-06-17T08:52:02Z</time>
      </trkpt>
      <trkpt lat="44.92024" lon="5.63476">
        <ele>812.41</ele>
        <time>2018-06-17T08:52:04Z</time>
      </trkpt>
      <trkpt lat="44.9199" lon="5.63467">
        <ele>812.99</ele>
        <time>2018-06-17T08:52:06Z</time>
      </trkpt>
      <trkpt lat="44.91955" lon="5.63463">
        <ele>814.86</ele>
        <time>2018-06-17T08:52:08Z</time>
      </trkpt>
      <trkpt lat="44.91921" lon="5.63453">
        <ele>817.34</ele>
        <time>2018-06-17T08:52:10Z</time>
      </trkpt>
      <trkpt lat="44.91891" lon="5.63428">
        <ele>818.69</ele>
        <time>2018-06-17T08:52:12Z</time>
      </trkpt>
      <trkpt lat="44.91862" lon="5.63398">
        <ele>821.54</ele>
        <time>2018-06-17T08:52:14Z</time>
      </trkpt>
      <trkpt lat="44.91833" lon="5.63369">
        <ele>822.7</ele>
        <time>2018-06-17T08:52:16Z</time>
      </trkpt>
      <trkpt lat="44.91805" lon="5.6334">
        <ele>824.63</ele>
        <time>2018-06-17T08:52:18Z</time>
      </trkpt>
      <trkpt lat="44.91777" lon="5.63314">
        <ele>826.62</ele>
        <time>2018-06-17T08:52:20Z</time>
      </trkpt>
      <trkpt lat="44.91747" lon="5.63298">
        <ele>827.01</ele>
        <time>2018-06-17T08:52:22Z</time>
      </trkpt>
      <trkpt lat="44.91715" lon="5.63299">
        <ele>827.96</ele>
        <time>2018-06-17T08:52:24Z</time>
      </trkpt>
      <trkpt lat="44.91684" lon="5.63316">
        <ele>828.95</ele>
        <time>2018-06-17T08:52:26Z</time>
      </trkpt>
      <trkpt lat="44.91659" lon="5.63342">
        <ele>829.04</ele>
        <time>2018-06-17T08:52:28Z</time>
      </trkpt>
      <trkpt lat="44.91638" lon="5.63367">
        <ele>830.87</ele>
        <time>2018-06-17T08:52:30Z</time>
      </trkpt>
      <trkpt lat="44.91618" lon="5.63388">
        <ele>831.03</ele>
        <time>2018-06-17T08:52:32Z</time>
      </trkpt>
      <trkpt lat="44.91599" lon="5.63403">
        <ele>832.66</ele>
        <time>2018-06-17T08:52:34Z</time>
      </trkpt>
      <trkpt lat="44.91578" lon="5.63406">
        <ele>833.71</ele>
        <time>2018-06-17T08:52:36Z</time>
      </trkpt>
      <trkpt lat="44.91556" lon="5.634">
        <ele>834.02</ele>
        <time>2018-06-17T08:52:38Z</time>
      </trkpt>
      <trkpt lat="44.91534" lon="5.6339">
        <ele>835.87</ele>
        <time>2018-06-17T08:52:40Z</time>
      </trkpt>
      <trkpt lat="44.91511" lon="5.63377">
        <ele>836.94</ele>
        <time>2018-06-17T08:52:42Z</time>
      </trkpt>
      <trkpt lat="44.91487" lon="5.63364">
        <ele>837.95</ele>
        <time>2018-06-17T08:52:44Z</time>
      </trkpt>
      <trkpt lat="44.91464" lon="5.63351">
        <ele>839.65</ele>
        <time>2018-06-17T08:52:46Z</time>
      </trkpt>
      <trkpt lat="44.9144" lon="5.63338">
        <ele>841.62</ele>
        <time>2018-06-17T08:52:48Z</time>
      </trkpt>
      <trkpt lat="44.91416" lon="5.63326">
        <ele>842.71</ele>
        <time>2018-06-17T08:52:50Z</time>
      </trkpt>
      <trkpt lat="44.91391" lon="5.63312">
        <ele>843.72</ele>
        <time>2018-06-17T08:52:52Z</time>
      </trkpt>
      <trkpt lat="44.91366" lon="5.63299">
        <ele>844.72</ele>
        <time>2018-06-17T08:52:54Z</time>
      </trkpt>
      <trkpt lat="44.91341" lon="5.63286">
        <ele>846.63</ele>
        <time>2018-06-17T08:52:56Z</time>
      </trkpt>
      <trkpt lat="44.91317" lon="5.63272">
        <ele>847.71</ele>
        <time>2018-06-17T08:52:58Z</time>
      </trkpt>
      <trkpt lat="44.91296" lon="5.63258">
        <ele>848.93</ele>
        <time>2018-06-17T08:53:00Z</time>
      </trkpt>
      <trkpt lat="44.91271" lon="5.63245">
        <ele>849.74</ele>
        <time>2018-06-17T08:53:02Z</time>
      </trkpt>
      <trkpt lat="44.91245" lon="5.63232">
        <ele>850.93</ele>
        <time>2018-06-17T08:53:04Z</time>
      </trkpt>
      <trkpt lat="44.91219" lon="5.63217">
        <ele>851.04</ele>
        <time>2018-06-17T08:53:06Z</time>
      </trkpt>
      <trkpt lat="44.91192" lon="5.63204">
        <ele>852.66</ele>
        <time>2018-06-17T08:53:08Z</time>
      </trkpt>
      <trkpt lat="44.91165" lon="5.63188">
        <ele>853.71</ele>
        <time>2018-06-17T08:53:10Z</time>
      </trkpt>
      <trkpt lat="44.91138" lon="5.63174">
        <ele>854.72</ele>
        <time>2018-06-17T08:53:12Z</time>
      </trkpt>
      <trkpt lat="44.91111" lon="5.63161">
        <ele>856.63</ele>
        <time>2018-06-17T08:53:14Z</time>
      </trkpt>
      <trkpt lat="44.91084" lon="5.63146">
        <ele>857.71</ele>
        <time>2018-06-17T08:53:16Z</time>
      </trkpt>
      <trkpt lat="44.91057" lon="5.6313">
        <ele>859.63</ele>
        <time>2018-06-17T08:53:18Z</time>
      </trkpt>
      <trkpt lat="44.9103" lon="5.63113">
        <ele>861.62</ele>
        <time>2018-06-17T08:53:20Z</time>
      </trkpt>
      <trkpt lat="44.91001" lon="5.63097">
        <ele>865.23</ele>
        <time>2018-06-17T08:53:22Z</time>
      </trkpt>
      <trkpt lat="44.90973" lon="5.63082">
        <ele>868.29</ele>
        <time>2018-06-17T08:53:24Z</time>
      </trkpt>
      <trkpt lat="44.90944" lon="5.63068">
        <ele>869.89</ele>
        <time>2018-06-17T08:53:26Z</time>
      </trkpt>
      <trkpt lat="44.90917" lon="5.63052">
        <ele>872.55</ele>
        <time>2018-06-17T08:53:28Z</time>
      </trkpt>
      <trkpt lat="44.90891" lon="5.63033">
        <ele>873.91</ele>
        <time>2018-06-17T08:53:30Z</time>
      </trkpt>
      <trkpt lat="44.90864" lon="5.63009">
        <ele>876.56</ele>
        <time>2018-06-17T08:53:32Z</time>
      </trkpt>
      <trkpt lat="44.90837" lon="5.62978">
        <ele>878.61</ele>
        <time>2018-06-17T08:53:34Z</time>
      </trkpt>
      <trkpt lat="44.90813" lon="5.62939">
        <ele>881.53</ele>
        <time>2018-06-17T08:53:36Z</time>
      </trkpt>
      <trkpt lat="44.90803" lon="5.62917">
        <ele>882.59</ele>
        <time>2018-06-17T08:53:37Z</time>
      </trkpt>
      <trkpt lat="44.90793" lon="5.62895">
        <ele>883.61</ele>
        <time>2018-06-17T08:53:38Z</time>
      </trkpt>
      <trkpt lat="44.90785" lon="5.62872">
        <ele>885.32</ele>
        <time>2018-06-17T08:53:39Z</time>
      </trkpt>
      <trkpt lat="44.90774" lon="5.62825">
        <ele>888.29</ele>
        <time>2018-06-17T08:53:41Z</time>
      </trkpt>
      <trkpt lat="44.90779" lon="5.62782">
        <ele>890.59</ele>
        <time>2018-06-17T08:53:43Z</time>
      </trkpt>
      <trkpt lat="44.90795" lon="5.62748">
        <ele>892.62</ele>
        <time>2018-06-17T08:53:45Z</time>
      </trkpt>
      <trkpt lat="44.90806" lon="5.62713">
        <ele>893.71</ele>
        <time>2018-06-17T08:53:47Z</time>
      </trkpt>
      <trkpt lat="44.90813" lon="5.62677">
        <ele>894.02</ele>
        <time>2018-06-17T08:53:49Z</time>
      </trkpt>
      <trkpt lat="44.90821" lon="5.62648">
        <ele>894.26</ele>
        <time>2018-06-17T08:53:51Z</time>
      </trkpt>
      <trkpt lat="44.90819" lon="5.62623">
        <ele>894.77</ele>
        <time>2018-06-17T08:53:53Z</time>
      </trkpt>
      <trkpt lat="44.90796" lon="5.62611">
        <ele>895.04</ele>
        <time>2018-06-17T08:53:56Z</time>
      </trkpt>
      <trkpt lat="44.90781" lon="5.62626">
        <ele>895.96</ele>
        <time>2018-06-17T08:53:58Z</time>
      </trkpt>
      <trkpt lat="44.90762" lon="5.62641">
        <ele>896.04</ele>
        <time>2018-06-17T08:54:00Z</time>
      </trkpt>
      <trkpt lat="44.90733" lon="5.62645">
        <ele>896.05</ele>
        <time>2018-06-17T08:54:02Z</time>
      </trkpt>
      <trkpt lat="44.90699" lon="5.62641">
        <ele>896.05</ele>
        <time>2018-06-17T08:54:04Z</time>
      </trkpt>
      <trkpt lat="44.90681" lon="5.62638">
        <ele>896.75</ele>
        <time>2018-06-17T08:54:05Z</time>
      </trkpt>
      <trkpt lat="44.90663" lon="5.6263">
        <ele>897.66</ele>
        <time>2018-06-17T08:54:06Z</time>
      </trkpt>
      <trkpt lat="44.90645" lon="5.62621">
        <ele>898.63</ele>
        <time>2018-06-17T08:54:07Z</time>
      </trkpt>
      <trkpt lat="44.90627" lon="5.6261">
        <ele>898.92</ele>
        <time>2018-06-17T08:54:08Z</time>
      </trkpt>
      <trkpt lat="44.90609" lon="5.62596">
        <ele>899.71</ele>
        <time>2018-06-17T08:54:09Z</time>
      </trkpt>
      <trkpt lat="44.90592" lon="5.62581">
        <ele>900.65</ele>
        <time>2018-06-17T08:54:10Z</time>
      </trkpt>
      <trkpt lat="44.90575" lon="5.62564">
        <ele>901.63</ele>
        <time>2018-06-17T08:54:11Z</time>
      </trkpt>
      <trkpt lat="44.9056" lon="5.62546">
        <ele>901.92</ele>
        <time>2018-06-17T08:54:12Z</time>
      </trkpt>
      <trkpt lat="44.90545" lon="5.62524">
        <ele>902.01</ele>
        <time>2018-06-17T08:54:13Z</time>
      </trkpt>
      <trkpt lat="44.90532" lon="5.62501">
        <ele>901.34</ele>
        <time>2018-06-17T08:54:14Z</time>
      </trkpt>
      <trkpt lat="44.9052" lon="5.62477">
        <ele>900.44</ele>
        <time>2018-06-17T08:54:15Z</time>
      </trkpt>
      <trkpt lat="44.90508" lon="5.62452">
        <ele>899.46</ele>
        <time>2018-06-17T08:54:16Z</time>
      </trkpt>
      <trkpt lat="44.90498" lon="5.62426">
        <ele>898.47</ele>
        <time>2018-06-17T08:54:17Z</time>
      </trkpt>
      <trkpt lat="44.9049" lon="5.62399">
        <ele>897.48</ele>
        <time>2018-06-17T08:54:18Z</time>
      </trkpt>
      <trkpt lat="44.90483" lon="5.62371">
        <ele>897.18</ele>
        <time>2018-06-17T08:54:19Z</time>
      </trkpt>
      <trkpt lat="44.90478" lon="5.62342">
        <ele>896.39</ele>
        <time>2018-06-17T08:54:20Z</time>
      </trkpt>
      <trkpt lat="44.90472" lon="5.62312">
        <ele>895.45</ele>
        <time>2018-06-17T08:54:21Z</time>
      </trkpt>
      <trkpt lat="44.90466" lon="5.62284">
        <ele>895.17</ele>
        <time>2018-06-17T08:54:22Z</time>
      </trkpt>
      <trkpt lat="44.90458" lon="5.62255">
        <ele>894.39</ele>
        <time>2018-06-17T08:54:23Z</time>
      </trkpt>
      <trkpt lat="44.90448" lon="5.62228">
        <ele>893.45</ele>
        <time>2018-06-17T08:54:24Z</time>
      </trkpt>
      <trkpt lat="44.90437" lon="5.62202">
        <ele>893.17</ele>
        <time>2018-06-17T08:54:25Z</time>
      </trkpt>
      <trkpt lat="44.90425" lon="5.62177">
        <ele>893.09</ele>
        <time>2018-06-17T08:54:26Z</time>
      </trkpt>
      <trkpt lat="44.90407" lon="5.62152">
        <ele>892.36</ele>
        <time>2018-06-17T08:54:27Z</time>
      </trkpt>
      <trkpt lat="44.90392" lon="5.62128">
        <ele>892.14</ele>
        <time>2018-06-17T08:54:28Z</time>
      </trkpt>
      <trkpt lat="44.90373" lon="5.62101">
        <ele>889.28</ele>
        <time>2018-06-17T08:54:29Z</time>
      </trkpt>
      <trkpt lat="44.90354" lon="5.62076">
        <ele>887.72</ele>
        <time>2018-06-17T08:54:30Z</time>
      </trkpt>
      <trkpt lat="44.90336" lon="5.6205">
        <ele>885.85</ele>
        <time>2018-06-17T08:54:31Z</time>
      </trkpt>
      <trkpt lat="44.90319" lon="5.62025">
        <ele>884.59</ele>
        <time>2018-06-17T08:54:32Z</time>
      </trkpt>
      <trkpt lat="44.90302" lon="5.62001">
        <ele>883.51</ele>
        <time>2018-06-17T08:54:33Z</time>
      </trkpt>
      <trkpt lat="44.90284" lon="5.61977">
        <ele>882.49</ele>
        <time>2018-06-17T08:54:34Z</time>
      </trkpt>
      <trkpt lat="44.90267" lon="5.61953">
        <ele>881.48</ele>
        <time>2018-06-17T08:54:35Z</time>
      </trkpt>
      <trkpt lat="44.9025" lon="5.61929">
        <ele>880.48</ele>
        <time>2018-06-17T08:54:36Z</time>
      </trkpt>
      <trkpt lat="44.90233" lon="5.61905">
        <ele>878.78</ele>
        <time>2018-06-17T08:54:37Z</time>
      </trkpt>
      <trkpt lat="44.90215" lon="5.61882">
        <ele>876.87</ele>
        <time>2018-06-17T08:54:38Z</time>
      </trkpt>
      <trkpt lat="44.90198" lon="5.6186">
        <ele>875.59</ele>
        <time>2018-06-17T08:54:39Z</time>
      </trkpt>
      <trkpt lat="44.90181" lon="5.61838">
        <ele>874.51</ele>
        <time>2018-06-17T08:54:40Z</time>
      </trkpt>
      <trkpt lat="44.90165" lon="5.61816">
        <ele>873.49</ele>
        <time>2018-06-17T08:54:41Z</time>
      </trkpt>
      <trkpt lat="44.9015" lon="5.61794">
        <ele>872.48</ele>
        <time>2018-06-17T08:54:42Z</time>
      </trkpt>
      <trkpt lat="44.90137" lon="5.61772">
        <ele>871.48</ele>
        <time>2018-06-17T08:54:43Z</time>
      </trkpt>
      <trkpt lat="44.90125" lon="5.6175">
        <ele>870.48</ele>
        <time>2018-06-17T08:54:44Z</time>
      </trkpt>
      <trkpt lat="44.90116" lon="5.61724">
        <ele>869.48</ele>
        <time>2018-06-17T08:54:45Z</time>
      </trkpt>
      <trkpt lat="44.90109" lon="5.61697">
        <ele>869.18</ele>
        <time>2018-06-17T08:54:46Z</time>
      </trkpt>
      <trkpt lat="44.90101" lon="5.6167">
        <ele>868.39</ele>
        <time>2018-06-17T08:54:47Z</time>
      </trkpt>
      <trkpt lat="44.90092" lon="5.61644">
        <ele>867.45</ele>
        <time>2018-06-17T08:54:48Z</time>
      </trkpt>
      <trkpt lat="44.9008" lon="5.61619">
        <ele>867.17</ele>
        <time>2018-06-17T08:54:49Z</time>
      </trkpt>
      <trkpt lat="44.90068" lon="5.61595">
        <ele>866.39</ele>
        <time>2018-06-17T08:54:50Z</time>
      </trkpt>
      <trkpt lat="44.90057" lon="5.61572">
        <ele>865.45</ele>
        <time>2018-06-17T08:54:51Z</time>
      </trkpt>
      <trkpt lat="44.90033" lon="5.61535">
        <ele>864.39</ele>
        <time>2018-06-17T08:54:53Z</time>
      </trkpt>
      <trkpt lat="44.90017" lon="5.61522">
        <ele>862.05</ele>
        <time>2018-06-17T08:54:54Z</time>
      </trkpt>
      <trkpt lat="44.89998" lon="5.61514">
        <ele>860.65</ele>
        <time>2018-06-17T08:54:55Z</time>
      </trkpt>
      <trkpt lat="44.89977" lon="5.61509">
        <ele>860.23</ele>
        <time>2018-06-17T08:54:56Z</time>
      </trkpt>
      <trkpt lat="44.89956" lon="5.61505">
        <ele>860.1</ele>
        <time>2018-06-17T08:54:57Z</time>
      </trkpt>
      <trkpt lat="44.89934" lon="5.61501">
        <ele>860.07</ele>
        <time>2018-06-17T08:54:58Z</time>
      </trkpt>
      <trkpt lat="44.89909" lon="5.61501">
        <ele>859.35</ele>
        <time>2018-06-17T08:54:59Z</time>
      </trkpt>
      <trkpt lat="44.89886" lon="5.61499">
        <ele>859.14</ele>
        <time>2018-06-17T08:55:00Z</time>
      </trkpt>
      <trkpt lat="44.89863" lon="5.61496">
        <ele>858.38</ele>
        <time>2018-06-17T08:55:01Z</time>
      </trkpt>
      <trkpt lat="44.8984" lon="5.61495">
        <ele>857.45</ele>
        <time>2018-06-17T08:55:02Z</time>
      </trkpt>
      <trkpt lat="44.89817" lon="5.61495">
        <ele>856.47</ele>
        <time>2018-06-17T08:55:03Z</time>
      </trkpt>
      <trkpt lat="44.89797" lon="5.61497">
        <ele>856.17</ele>
        <time>2018-06-17T08:55:04Z</time>
      </trkpt>
      <trkpt lat="44.89777" lon="5.61502">
        <ele>855.39</ele>
        <time>2018-06-17T08:55:05Z</time>
      </trkpt>
      <trkpt lat="44.89759" lon="5.61508">
        <ele>854.45</ele>
        <time>2018-06-17T08:55:06Z</time>
      </trkpt>
      <trkpt lat="44.89741" lon="5.61516">
        <ele>854.17</ele>
        <time>2018-06-17T08:55:07Z</time>
      </trkpt>
      <trkpt lat="44.89723" lon="5.61523">
        <ele>854.09</ele>
        <time>2018-06-17T08:55:08Z</time>
      </trkpt>
      <trkpt lat="44.89704" lon="5.61532">
        <ele>854.06</ele>
        <time>2018-06-17T08:55:09Z</time>
      </trkpt>
      <trkpt lat="44.89685" lon="5.6154">
        <ele>854.05</ele>
        <time>2018-06-17T08:55:10Z</time>
      </trkpt>
      <trkpt lat="44.89667" lon="5.61549">
        <ele>854.05</ele>
        <time>2018-06-17T08:55:11Z</time>
      </trkpt>
      <trkpt lat="44.89646" lon="5.61561">
        <ele>854.75</ele>
        <time>2018-06-17T08:55:12Z</time>
      </trkpt>
      <trkpt lat="44.89623" lon="5.61571">
        <ele>855.66</ele>
        <time>2018-06-17T08:55:13Z</time>
      </trkpt>
      <trkpt lat="44.896" lon="5.6158">
        <ele>855.23</ele>
        <time>2018-06-17T08:55:14Z</time>
      </trkpt>
      <trkpt lat="44.89578" lon="5.61591">
        <ele>855.1</ele>
        <time>2018-06-17T08:55:15Z</time>
      </trkpt>
      <trkpt lat="44.89556" lon="5.61604">
        <ele>854.37</ele>
        <time>2018-06-17T08:55:16Z</time>
      </trkpt>
      <trkpt lat="44.89535" lon="5.61622">
        <ele>853.44</ele>
        <time>2018-06-17T08:55:17Z</time>
      </trkpt>
      <trkpt lat="44.89512" lon="5.61644">
        <ele>853.17</ele>
        <time>2018-06-17T08:55:18Z</time>
      </trkpt>
      <trkpt lat="44.8949" lon="5.61667">
        <ele>853.08</ele>
        <time>2018-06-17T08:55:19Z</time>
      </trkpt>
      <trkpt lat="44.89469" lon="5.61687">
        <ele>853.06</ele>
        <time>2018-06-17T08:55:20Z</time>
      </trkpt>
      <trkpt lat="44.89449" lon="5.61705">
        <ele>853.05</ele>
        <time>2018-06-17T08:55:21Z</time>
      </trkpt>
      <trkpt lat="44.89431" lon="5.6172">
        <ele>853.05</ele>
        <time>2018-06-17T08:55:22Z</time>
      </trkpt>
      <trkpt lat="44.89413" lon="5.61735">
        <ele>853.05</ele>
        <time>2018-06-17T08:55:23Z</time>
      </trkpt>
      <trkpt lat="44.89396" lon="5.61748">
        <ele>852.35</ele>
        <time>2018-06-17T08:55:24Z</time>
      </trkpt>
      <trkpt lat="44.89378" lon="5.6176">
        <ele>852.14</ele>
        <time>2018-06-17T08:55:25Z</time>
      </trkpt>
      <trkpt lat="44.8936" lon="5.6177">
        <ele>851.38</ele>
        <time>2018-06-17T08:55:26Z</time>
      </trkpt>
      <trkpt lat="44.89342" lon="5.61779">
        <ele>851.85</ele>
        <time>2018-06-17T08:55:27Z</time>
      </trkpt>
      <trkpt lat="44.89323" lon="5.61785">
        <ele>851.29</ele>
        <time>2018-06-17T08:55:28Z</time>
      </trkpt>
      <trkpt lat="44.89304" lon="5.6179">
        <ele>850.42</ele>
        <time>2018-06-17T08:55:29Z</time>
      </trkpt>
      <trkpt lat="44.89285" lon="5.61794">
        <ele>850.16</ele>
        <time>2018-06-17T08:55:30Z</time>
      </trkpt>
      <trkpt lat="44.89266" lon="5.61795">
        <ele>850.08</ele>
        <time>2018-06-17T08:55:31Z</time>
      </trkpt>
      <trkpt lat="44.89246" lon="5.61794">
        <ele>850.06</ele>
        <time>2018-06-17T08:55:32Z</time>
      </trkpt>
      <trkpt lat="44.89227" lon="5.61792">
        <ele>850.05</ele>
        <time>2018-06-17T08:55:33Z</time>
      </trkpt>
      <trkpt lat="44.89207" lon="5.61787">
        <ele>850.05</ele>
        <time>2018-06-17T08:55:34Z</time>
      </trkpt>
      <trkpt lat="44.89188" lon="5.6178">
        <ele>850.05</ele>
        <time>2018-06-17T08:55:35Z</time>
      </trkpt>
      <trkpt lat="44.89169" lon="5.61772">
        <ele>850.75</ele>
        <time>2018-06-17T08:55:36Z</time>
      </trkpt>
      <trkpt lat="44.89151" lon="5.61761">
        <ele>850.96</ele>
        <time>2018-06-17T08:55:37Z</time>
      </trkpt>
      <trkpt lat="44.89133" lon="5.61749">
        <ele>851.02</ele>
        <time>2018-06-17T08:55:38Z</time>
      </trkpt>
      <trkpt lat="44.89116" lon="5.61734">
        <ele>850.34</ele>
        <time>2018-06-17T08:55:39Z</time>
      </trkpt>
      <trkpt lat="44.891" lon="5.61718">
        <ele>850.14</ele>
        <time>2018-06-17T08:55:40Z</time>
      </trkpt>
      <trkpt lat="44.89085" lon="5.61701">
        <ele>849.38</ele>
        <time>2018-06-17T08:55:41Z</time>
      </trkpt>
      <trkpt lat="44.8907" lon="5.61683">
        <ele>849.15</ele>
        <time>2018-06-17T08:55:42Z</time>
      </trkpt>
      <trkpt lat="44.89055" lon="5.61664">
        <ele>849.08</ele>
        <time>2018-06-17T08:55:43Z</time>
      </trkpt>
      <trkpt lat="44.89043" lon="5.61643">
        <ele>849.06</ele>
        <time>2018-06-17T08:55:44Z</time>
      </trkpt>
      <trkpt lat="44.8903" lon="5.61623">
        <ele>849.05</ele>
        <time>2018-06-17T08:55:45Z</time>
      </trkpt>
      <trkpt lat="44.89017" lon="5.61604">
        <ele>848.35</ele>
        <time>2018-06-17T08:55:46Z</time>
      </trkpt>
      <trkpt lat="44.89003" lon="5.61587">
        <ele>848.14</ele>
        <time>2018-06-17T08:55:47Z</time>
      </trkpt>
      <trkpt lat="44.88988" lon="5.61573">
        <ele>848.08</ele>
        <time>2018-06-17T08:55:48Z</time>
      </trkpt>
      <trkpt lat="44.88969" lon="5.61562">
        <ele>848.06</ele>
        <time>2018-06-17T08:55:49Z</time>
      </trkpt>
      <trkpt lat="44.88947" lon="5.61553">
        <ele>848.05</ele>
        <time>2018-06-17T08:55:50Z</time>
      </trkpt>
      <trkpt lat="44.88924" lon="5.61543">
        <ele>848.05</ele>
        <time>2018-06-17T08:55:51Z</time>
      </trkpt>
      <trkpt lat="44.88899" lon="5.61533">
        <ele>847.35</ele>
        <time>2018-06-17T08:55:52Z</time>
      </trkpt>
      <trkpt lat="44.88875" lon="5.61525">
        <ele>847.84</ele>
        <time>2018-06-17T08:55:53Z</time>
      </trkpt>
      <trkpt lat="44.88851" lon="5.61518">
        <ele>848.69</ele>
        <time>2018-06-17T08:55:54Z</time>
      </trkpt>
      <trkpt lat="44.8883" lon="5.61512">
        <ele>848.94</ele>
        <time>2018-06-17T08:55:55Z</time>
      </trkpt>
      <trkpt lat="44.88809" lon="5.61506">
        <ele>849.72</ele>
        <time>2018-06-17T08:55:56Z</time>
      </trkpt>
      <trkpt lat="44.88789" lon="5.615">
        <ele>849.25</ele>
        <time>2018-06-17T08:55:57Z</time>
      </trkpt>
      <trkpt lat="44.88767" lon="5.61497">
        <ele>849.11</ele>
        <time>2018-06-17T08:55:58Z</time>
      </trkpt>
      <trkpt lat="44.88746" lon="5.61498">
        <ele>848.37</ele>
        <time>2018-06-17T08:55:59Z</time>
      </trkpt>
      <trkpt lat="44.88724" lon="5.61504">
        <ele>847.44</ele>
        <time>2018-06-17T08:56:00Z</time>
      </trkpt>
      <trkpt lat="44.88704" lon="5.61513">
        <ele>846.47</ele>
        <time>2018-06-17T08:56:01Z</time>
      </trkpt>
      <trkpt lat="44.88681" lon="5.61525">
        <ele>845.47</ele>
        <time>2018-06-17T08:56:02Z</time>
      </trkpt>
      <trkpt lat="44.88659" lon="5.61542">
        <ele>845.18</ele>
        <time>2018-06-17T08:56:03Z</time>
      </trkpt>
      <trkpt lat="44.8864" lon="5.61563">
        <ele>845.09</ele>
        <time>2018-06-17T08:56:04Z</time>
      </trkpt>
      <trkpt lat="44.88621" lon="5.61586">
        <ele>845.06</ele>
        <time>2018-06-17T08:56:05Z</time>
      </trkpt>
      <trkpt lat="44.88602" lon="5.6161">
        <ele>844.35</ele>
        <time>2018-06-17T08:56:06Z</time>
      </trkpt>
      <trkpt lat="44.88584" lon="5.61633">
        <ele>844.14</ele>
        <time>2018-06-17T08:56:07Z</time>
      </trkpt>
      <trkpt lat="44.88564" lon="5.61656">
        <ele>844.08</ele>
        <time>2018-06-17T08:56:08Z</time>
      </trkpt>
      <trkpt lat="44.88545" lon="5.61679">
        <ele>844.06</ele>
        <time>2018-06-17T08:56:09Z</time>
      </trkpt>
      <trkpt lat="44.88526" lon="5.61702">
        <ele>843.35</ele>
        <time>2018-06-17T08:56:10Z</time>
      </trkpt>
      <trkpt lat="44.88507" lon="5.61726">
        <ele>843.84</ele>
        <time>2018-06-17T08:56:11Z</time>
      </trkpt>
      <trkpt lat="44.88487" lon="5.61749">
        <ele>843.99</ele>
        <time>2018-06-17T08:56:12Z</time>
      </trkpt>
      <trkpt lat="44.88469" lon="5.61771">
        <ele>844.03</ele>
        <time>2018-06-17T08:56:13Z</time>
      </trkpt>
      <trkpt lat="44.8845" lon="5.61794">
        <ele>843.34</ele>
        <time>2018-06-17T08:56:14Z</time>
      </trkpt>
      <trkpt lat="44.88429" lon="5.61814">
        <ele>842.44</ele>
        <time>2018-06-17T08:56:15Z</time>
      </trkpt>
      <trkpt lat="44.88408" lon="5.61831">
        <ele>842.17</ele>
        <time>2018-06-17T08:56:16Z</time>
      </trkpt>
      <trkpt lat="44.88385" lon="5.61846">
        <ele>841.38</ele>
        <time>2018-06-17T08:56:17Z</time>
      </trkpt>
      <trkpt lat="44.88361" lon="5.6186">
        <ele>841.15</ele>
        <time>2018-06-17T08:56:18Z</time>
      </trkpt>
      <trkpt lat="44.88338" lon="5.61872">
        <ele>841.08</ele>
        <time>2018-06-17T08:56:19Z</time>
      </trkpt>
      <trkpt lat="44.88313" lon="5.61884">
        <ele>841.06</ele>
        <time>2018-06-17T08:56:20Z</time>
      </trkpt>
      <trkpt lat="44.88289" lon="5.61895">
        <ele>840.35</ele>
        <time>2018-06-17T08:56:21Z</time>
      </trkpt>
      <trkpt lat="44.88264" lon="5.61905">
        <ele>839.44</ele>
        <time>2018-06-17T08:56:22Z</time>
      </trkpt>
      <trkpt lat="44.88239" lon="5.61914">
        <ele>838.47</ele>
        <time>2018-06-17T08:56:23Z</time>
      </trkpt>
      <trkpt lat="44.88216" lon="5.61922">
        <ele>837.47</ele>
        <time>2018-06-17T08:56:24Z</time>
      </trkpt>
      <trkpt lat="44.88191" lon="5.6193">
        <ele>837.18</ele>
        <time>2018-06-17T08:56:25Z</time>
      </trkpt>
      <trkpt lat="44.88167" lon="5.6194">
        <ele>836.39</ele>
        <time>2018-06-17T08:56:26Z</time>
      </trkpt>
      <trkpt lat="44.88143" lon="5.61951">
        <ele>836.85</ele>
        <time>2018-06-17T08:56:27Z</time>
      </trkpt>
      <trkpt lat="44.88121" lon="5.61965">
        <ele>836.99</ele>
        <time>2018-06-17T08:56:28Z</time>
      </trkpt>
      <trkpt lat="44.881" lon="5.61981">
        <ele>837.03</ele>
        <time>2018-06-17T08:56:29Z</time>
      </trkpt>
      <trkpt lat="44.8808" lon="5.62002">
        <ele>837.04</ele>
        <time>2018-06-17T08:56:30Z</time>
      </trkpt>
      <trkpt lat="44.8806" lon="5.62023">
        <ele>837.05</ele>
        <time>2018-06-17T08:56:31Z</time>
      </trkpt>
      <trkpt lat="44.88042" lon="5.62047">
        <ele>837.05</ele>
        <time>2018-06-17T08:56:32Z</time>
      </trkpt>
      <trkpt lat="44.88025" lon="5.62074">
        <ele>837.75</ele>
        <time>2018-06-17T08:56:33Z</time>
      </trkpt>
      <trkpt lat="44.88008" lon="5.62101">
        <ele>837.96</ele>
        <time>2018-06-17T08:56:34Z</time>
      </trkpt>
      <trkpt lat="44.87991" lon="5.62129">
        <ele>837.32</ele>
        <time>2018-06-17T08:56:35Z</time>
      </trkpt>
      <trkpt lat="44.87975" lon="5.62157">
        <ele>838.53</ele>
        <time>2018-06-17T08:56:36Z</time>
      </trkpt>
      <trkpt lat="44.87958" lon="5.62184">
        <ele>838.89</ele>
        <time>2018-06-17T08:56:37Z</time>
      </trkpt>
      <trkpt lat="44.87942" lon="5.62212">
        <ele>839.7</ele>
        <time>2018-06-17T08:56:38Z</time>
      </trkpt>
      <trkpt lat="44.87926" lon="5.62238">
        <ele>841.35</ele>
        <time>2018-06-17T08:56:39Z</time>
      </trkpt>
      <trkpt lat="44.87909" lon="5.62266">
        <ele>841.84</ele>
        <time>2018-06-17T08:56:40Z</time>
      </trkpt>
      <trkpt lat="44.87893" lon="5.62294">
        <ele>842.69</ele>
        <time>2018-06-17T08:56:41Z</time>
      </trkpt>
      <trkpt lat="44.87877" lon="5.62321">
        <ele>842.94</ele>
        <time>2018-06-17T08:56:42Z</time>
      </trkpt>
      <trkpt lat="44.8786" lon="5.62349">
        <ele>843.02</ele>
        <time>2018-06-17T08:56:43Z</time>
      </trkpt>
      <trkpt lat="44.87844" lon="5.62377">
        <ele>843.04</ele>
        <time>2018-06-17T08:56:44Z</time>
      </trkpt>
      <trkpt lat="44.87827" lon="5.62404">
        <ele>843.05</ele>
        <time>2018-06-17T08:56:45Z</time>
      </trkpt>
      <trkpt lat="44.87809" lon="5.6243">
        <ele>844.45</ele>
        <time>2018-06-17T08:56:46Z</time>
      </trkpt>
      <trkpt lat="44.87791" lon="5.62455">
        <ele>844.87</ele>
        <time>2018-06-17T08:56:47Z</time>
      </trkpt>
      <trkpt lat="44.87773" lon="5.6248">
        <ele>844.99</ele>
        <time>2018-06-17T08:56:48Z</time>
      </trkpt>
      <trkpt lat="44.87754" lon="5.62503">
        <ele>845.73</ele>
        <time>2018-06-17T08:56:49Z</time>
      </trkpt>
      <trkpt lat="44.87733" lon="5.62521">
        <ele>846.65</ele>
        <time>2018-06-17T08:56:50Z</time>
      </trkpt>
      <trkpt lat="44.87709" lon="5.6254">
        <ele>847.63</ele>
        <time>2018-06-17T08:56:51Z</time>
      </trkpt>
      <trkpt lat="44.87684" lon="5.62555">
        <ele>847.92</ele>
        <time>2018-06-17T08:56:52Z</time>
      </trkpt>
      <trkpt lat="44.87659" lon="5.62556">
        <ele>848.71</ele>
        <time>2018-06-17T08:56:53Z</time>
      </trkpt>
      <trkpt lat="44.87633" lon="5.6256">
        <ele>849.65</ele>
        <time>2018-06-17T08:56:54Z</time>
      </trkpt>
      <trkpt lat="44.87607" lon="5.62553">
        <ele>848.53</ele>
        <time>2018-06-17T08:56:55Z</time>
      </trkpt>
      <trkpt lat="44.87582" lon="5.62552">
        <ele>848.19</ele>
        <time>2018-06-17T08:56:56Z</time>
      </trkpt>
      <trkpt lat="44.87556" lon="5.62548">
        <ele>848.79</ele>
        <time>2018-06-17T08:56:57Z</time>
      </trkpt>
      <trkpt lat="44.87532" lon="5.62538">
        <ele>848.97</ele>
        <time>2018-06-17T08:56:58Z</time>
      </trkpt>
      <trkpt lat="44.87508" lon="5.62526">
        <ele>848.33</ele>
        <time>2018-06-17T08:56:59Z</time>
      </trkpt>
      <trkpt lat="44.87484" lon="5.62514">
        <ele>847.43</ele>
        <time>2018-06-17T08:57:00Z</time>
      </trkpt>
      <trkpt lat="44.87459" lon="5.62501">
        <ele>847.16</ele>
        <time>2018-06-17T08:57:01Z</time>
      </trkpt>
      <trkpt lat="44.87436" lon="5.62485">
        <ele>846.38</ele>
        <time>2018-06-17T08:57:02Z</time>
      </trkpt>
      <trkpt lat="44.87412" lon="5.62469">
        <ele>845.45</ele>
        <time>2018-06-17T08:57:03Z</time>
      </trkpt>
      <trkpt lat="44.87389" lon="5.62453">
        <ele>844.47</ele>
        <time>2018-06-17T08:57:04Z</time>
      </trkpt>
      <trkpt lat="44.87367" lon="5.62434">
        <ele>844.88</ele>
        <time>2018-06-17T08:57:05Z</time>
      </trkpt>
      <trkpt lat="44.87345" lon="5.62415">
        <ele>845.7</ele>
        <time>2018-06-17T08:57:06Z</time>
      </trkpt>
      <trkpt lat="44.87324" lon="5.62394">
        <ele>846.64</ele>
        <time>2018-06-17T08:57:07Z</time>
      </trkpt>
      <trkpt lat="44.87303" lon="5.62371">
        <ele>847.63</ele>
        <time>2018-06-17T08:57:08Z</time>
      </trkpt>
      <trkpt lat="44.87283" lon="5.62349">
        <ele>848.62</ele>
        <time>2018-06-17T08:57:09Z</time>
      </trkpt>
      <trkpt lat="44.87262" lon="5.62325">
        <ele>848.92</ele>
        <time>2018-06-17T08:57:10Z</time>
      </trkpt>
      <trkpt lat="44.87242" lon="5.62301">
        <ele>849.71</ele>
        <time>2018-06-17T08:57:11Z</time>
      </trkpt>
      <trkpt lat="44.87223" lon="5.62276">
        <ele>850.65</ele>
        <time>2018-06-17T08:57:12Z</time>
      </trkpt>
      <trkpt lat="44.87202" lon="5.62251">
        <ele>850.23</ele>
        <time>2018-06-17T08:57:13Z</time>
      </trkpt>
      <trkpt lat="44.87182" lon="5.62226">
        <ele>850.1</ele>
        <time>2018-06-17T08:57:14Z</time>
      </trkpt>
      <trkpt lat="44.87162" lon="5.62202">
        <ele>850.07</ele>
        <time>2018-06-17T08:57:15Z</time>
      </trkpt>
      <trkpt lat="44.87143" lon="5.62178">
        <ele>850.05</ele>
        <time>2018-06-17T08:57:16Z</time>
      </trkpt>
      <trkpt lat="44.87123" lon="5.62153">
        <ele>849.35</ele>
        <time>2018-06-17T08:57:17Z</time>
      </trkpt>
      <trkpt lat="44.87104" lon="5.62129">
        <ele>849.14</ele>
        <time>2018-06-17T08:57:18Z</time>
      </trkpt>
      <trkpt lat="44.87083" lon="5.62105">
        <ele>848.38</ele>
        <time>2018-06-17T08:57:19Z</time>
      </trkpt>
      <trkpt lat="44.87064" lon="5.62081">
        <ele>848.15</ele>
        <time>2018-06-17T08:57:20Z</time>
      </trkpt>
      <trkpt lat="44.87043" lon="5.62058">
        <ele>847.38</ele>
        <time>2018-06-17T08:57:21Z</time>
      </trkpt>
      <trkpt lat="44.87024" lon="5.62034">
        <ele>847.15</ele>
        <time>2018-06-17T08:57:22Z</time>
      </trkpt>
      <trkpt lat="44.87004" lon="5.6201">
        <ele>846.38</ele>
        <time>2018-06-17T08:57:23Z</time>
      </trkpt>
      <trkpt lat="44.86985" lon="5.61987">
        <ele>845.45</ele>
        <time>2018-06-17T08:57:24Z</time>
      </trkpt>
      <trkpt lat="44.86965" lon="5.61963">
        <ele>845.87</ele>
        <time>2018-06-17T08:57:25Z</time>
      </trkpt>
      <trkpt lat="44.86946" lon="5.61939">
        <ele>845.99</ele>
        <time>2018-06-17T08:57:26Z</time>
      </trkpt>
      <trkpt lat="44.86927" lon="5.61915">
        <ele>845.33</ele>
        <time>2018-06-17T08:57:27Z</time>
      </trkpt>
      <trkpt lat="44.86908" lon="5.61891">
        <ele>845.83</ele>
        <time>2018-06-17T08:57:28Z</time>
      </trkpt>
      <trkpt lat="44.86888" lon="5.61867">
        <ele>845.28</ele>
        <time>2018-06-17T08:57:29Z</time>
      </trkpt>
      <trkpt lat="44.86869" lon="5.61844">
        <ele>845.12</ele>
        <time>2018-06-17T08:57:30Z</time>
      </trkpt>
      <trkpt lat="44.86851" lon="5.6182">
        <ele>845.07</ele>
        <time>2018-06-17T08:57:31Z</time>
      </trkpt>
      <trkpt lat="44.86832" lon="5.61798">
        <ele>845.06</ele>
        <time>2018-06-17T08:57:32Z</time>
      </trkpt>
      <trkpt lat="44.86814" lon="5.61774">
        <ele>844.35</ele>
        <time>2018-06-17T08:57:33Z</time>
      </trkpt>
      <trkpt lat="44.86796" lon="5.61752">
        <ele>844.14</ele>
        <time>2018-06-17T08:57:34Z</time>
      </trkpt>
      <trkpt lat="44.86779" lon="5.61728">
        <ele>844.78</ele>
        <time>2018-06-17T08:57:35Z</time>
      </trkpt>
      <trkpt lat="44.86763" lon="5.61703">
        <ele>844.97</ele>
        <time>2018-06-17T08:57:36Z</time>
      </trkpt>
      <trkpt lat="44.8675" lon="5.61675">
        <ele>845.02</ele>
        <time>2018-06-17T08:57:37Z</time>
      </trkpt>
      <trkpt lat="44.86739" lon="5.61647">
        <ele>845.74</ele>
        <time>2018-06-17T08:57:38Z</time>
      </trkpt>
      <trkpt lat="44.8673" lon="5.61617">
        <ele>846.66</ele>
        <time>2018-06-17T08:57:39Z</time>
      </trkpt>
      <trkpt lat="44.86723" lon="5.61585">
        <ele>847.63</ele>
        <time>2018-06-17T08:57:40Z</time>
      </trkpt>
      <trkpt lat="44.86718" lon="5.61552">
        <ele>848.62</ele>
        <time>2018-06-17T08:57:41Z</time>
      </trkpt>
      <trkpt lat="44.86716" lon="5.6152">
        <ele>850.32</ele>
        <time>2018-06-17T08:57:42Z</time>
      </trkpt>
      <trkpt lat="44.86716" lon="5.61487">
        <ele>850.83</ele>
        <time>2018-06-17T08:57:43Z</time>
      </trkpt>
      <trkpt lat="44.86718" lon="5.61454">
        <ele>851.68</ele>
        <time>2018-06-17T08:57:44Z</time>
      </trkpt>
      <trkpt lat="44.86722" lon="5.61422">
        <ele>851.94</ele>
        <time>2018-06-17T08:57:45Z</time>
      </trkpt>
      <trkpt lat="44.86728" lon="5.61391">
        <ele>852.02</ele>
        <time>2018-06-17T08:57:46Z</time>
      </trkpt>
      <trkpt lat="44.86737" lon="5.61359">
        <ele>850.64</ele>
        <time>2018-06-17T08:57:47Z</time>
      </trkpt>
      <trkpt lat="44.86747" lon="5.6133">
        <ele>849.53</ele>
        <time>2018-06-17T08:57:48Z</time>
      </trkpt>
      <trkpt lat="44.86758" lon="5.61301">
        <ele>848.49</ele>
        <time>2018-06-17T08:57:49Z</time>
      </trkpt>
      <trkpt lat="44.86768" lon="5.61272">
        <ele>847.48</ele>
        <time>2018-06-17T08:57:50Z</time>
      </trkpt>
      <trkpt lat="44.86775" lon="5.61243">
        <ele>846.48</ele>
        <time>2018-06-17T08:57:51Z</time>
      </trkpt>
      <trkpt lat="44.86781" lon="5.61212">
        <ele>845.48</ele>
        <time>2018-06-17T08:57:52Z</time>
      </trkpt>
      <trkpt lat="44.86785" lon="5.6118">
        <ele>843.78</ele>
        <time>2018-06-17T08:57:53Z</time>
      </trkpt>
      <trkpt lat="44.86785" lon="5.61148">
        <ele>841.87</ele>
        <time>2018-06-17T08:57:54Z</time>
      </trkpt>
      <trkpt lat="44.86783" lon="5.61114">
        <ele>840.59</ele>
        <time>2018-06-17T08:57:55Z</time>
      </trkpt>
      <trkpt lat="44.86776" lon="5.61081">
        <ele>838.81</ele>
        <time>2018-06-17T08:57:56Z</time>
      </trkpt>
      <trkpt lat="44.86767" lon="5.6105">
        <ele>837.58</ele>
        <time>2018-06-17T08:57:57Z</time>
      </trkpt>
      <trkpt lat="44.86758" lon="5.61019">
        <ele>836.51</ele>
        <time>2018-06-17T08:57:58Z</time>
      </trkpt>
      <trkpt lat="44.86748" lon="5.60987">
        <ele>835.49</ele>
        <time>2018-06-17T08:57:59Z</time>
      </trkpt>
      <trkpt lat="44.86743" lon="5.60956">
        <ele>834.48</ele>
        <time>2018-06-17T08:58:00Z</time>
      </trkpt>
      <trkpt lat="44.86739" lon="5.60922">
        <ele>832.08</ele>
        <time>2018-06-17T08:58:01Z</time>
      </trkpt>
      <trkpt lat="44.86738" lon="5.60889">
        <ele>829.96</ele>
        <time>2018-06-17T08:58:02Z</time>
      </trkpt>
      <trkpt lat="44.86741" lon="5.60856">
        <ele>827.92</ele>
        <time>2018-06-17T08:58:03Z</time>
      </trkpt>
      <trkpt lat="44.86747" lon="5.60823">
        <ele>826.61</ele>
        <time>2018-06-17T08:58:04Z</time>
      </trkpt>
      <trkpt lat="44.86754" lon="5.60791">
        <ele>824.82</ele>
        <time>2018-06-17T08:58:05Z</time>
      </trkpt>
      <trkpt lat="44.86761" lon="5.60758">
        <ele>822.88</ele>
        <time>2018-06-17T08:58:06Z</time>
      </trkpt>
      <trkpt lat="44.86766" lon="5.60726">
        <ele>820.9</ele>
        <time>2018-06-17T08:58:07Z</time>
      </trkpt>
      <trkpt lat="44.86768" lon="5.60694">
        <ele>820.3</ele>
        <time>2018-06-17T08:58:08Z</time>
      </trkpt>
      <trkpt lat="44.86768" lon="5.60661">
        <ele>819.43</ele>
        <time>2018-06-17T08:58:09Z</time>
      </trkpt>
      <trkpt lat="44.86765" lon="5.60629">
        <ele>819.16</ele>
        <time>2018-06-17T08:58:10Z</time>
      </trkpt>
      <trkpt lat="44.86758" lon="5.60598">
        <ele>818.38</ele>
        <time>2018-06-17T08:58:11Z</time>
      </trkpt>
      <trkpt lat="44.86748" lon="5.60568">
        <ele>817.45</ele>
        <time>2018-06-17T08:58:12Z</time>
      </trkpt>
      <trkpt lat="44.86736" lon="5.60538">
        <ele>816.47</ele>
        <time>2018-06-17T08:58:13Z</time>
      </trkpt>
      <trkpt lat="44.86725" lon="5.60509">
        <ele>814.08</ele>
        <time>2018-06-17T08:58:14Z</time>
      </trkpt>
      <trkpt lat="44.86715" lon="5.6048">
        <ele>812.66</ele>
        <time>2018-06-17T08:58:15Z</time>
      </trkpt>
      <trkpt lat="44.86705" lon="5.60449">
        <ele>810.83</ele>
        <time>2018-06-17T08:58:16Z</time>
      </trkpt>
      <trkpt lat="44.86696" lon="5.60418">
        <ele>809.58</ele>
        <time>2018-06-17T08:58:17Z</time>
      </trkpt>
      <trkpt lat="44.86691" lon="5.60385">
        <ele>808.51</ele>
        <time>2018-06-17T08:58:18Z</time>
      </trkpt>
      <trkpt lat="44.86687" lon="5.6035">
        <ele>807.49</ele>
        <time>2018-06-17T08:58:19Z</time>
      </trkpt>
      <trkpt lat="44.86689" lon="5.60316">
        <ele>805.78</ele>
        <time>2018-06-17T08:58:20Z</time>
      </trkpt>
      <trkpt lat="44.86691" lon="5.60282">
        <ele>803.87</ele>
        <time>2018-06-17T08:58:21Z</time>
      </trkpt>
      <trkpt lat="44.86692" lon="5.60247">
        <ele>802.59</ele>
        <time>2018-06-17T08:58:22Z</time>
      </trkpt>
      <trkpt lat="44.86693" lon="5.60211">
        <ele>802.21</ele>
        <time>2018-06-17T08:58:23Z</time>
      </trkpt>
      <trkpt lat="44.86694" lon="5.60177">
        <ele>800</ele>
        <time>2018-06-17T08:58:24Z</time>
      </trkpt>
      <trkpt lat="44.86692" lon="5.60142">
        <ele>797.93</ele>
        <time>2018-06-17T08:58:25Z</time>
      </trkpt>
      <trkpt lat="44.8669" lon="5.60109">
        <ele>796.61</ele>
        <time>2018-06-17T08:58:26Z</time>
      </trkpt>
      <trkpt lat="44.86682" lon="5.60077">
        <ele>794.82</ele>
        <time>2018-06-17T08:58:27Z</time>
      </trkpt>
      <trkpt lat="44.86673" lon="5.60046">
        <ele>794.28</ele>
        <time>2018-06-17T08:58:28Z</time>
      </trkpt>
      <trkpt lat="44.86663" lon="5.60016">
        <ele>793.42</ele>
        <time>2018-06-17T08:58:29Z</time>
      </trkpt>
      <trkpt lat="44.8665" lon="5.59988">
        <ele>791.06</ele>
        <time>2018-06-17T08:58:30Z</time>
      </trkpt>
      <trkpt lat="44.86635" lon="5.59962">
        <ele>789.65</ele>
        <time>2018-06-17T08:58:31Z</time>
      </trkpt>
      <trkpt lat="44.86618" lon="5.59938">
        <ele>787.83</ele>
        <time>2018-06-17T08:58:32Z</time>
      </trkpt>
      <trkpt lat="44.866" lon="5.59915">
        <ele>784.48</ele>
        <time>2018-06-17T08:58:33Z</time>
      </trkpt>
      <trkpt lat="44.86579" lon="5.59897">
        <ele>782.78</ele>
        <time>2018-06-17T08:58:34Z</time>
      </trkpt>
      <trkpt lat="44.86557" lon="5.59882">
        <ele>780.87</ele>
        <time>2018-06-17T08:58:35Z</time>
      </trkpt>
      <trkpt lat="44.86535" lon="5.59869">
        <ele>778.89</ele>
        <time>2018-06-17T08:58:36Z</time>
      </trkpt>
      <trkpt lat="44.86512" lon="5.5986">
        <ele>776.9</ele>
        <time>2018-06-17T08:58:37Z</time>
      </trkpt>
      <trkpt lat="44.86489" lon="5.59853">
        <ele>777.01</ele>
        <time>2018-06-17T08:58:38Z</time>
      </trkpt>
      <trkpt lat="44.86466" lon="5.59851">
        <ele>777.04</ele>
        <time>2018-06-17T08:58:39Z</time>
      </trkpt>
      <trkpt lat="44.86443" lon="5.59852">
        <ele>777.75</ele>
        <time>2018-06-17T08:58:40Z</time>
      </trkpt>
      <trkpt lat="44.8642" lon="5.59856">
        <ele>777.96</ele>
        <time>2018-06-17T08:58:41Z</time>
      </trkpt>
      <trkpt lat="44.86397" lon="5.59863">
        <ele>778.72</ele>
        <time>2018-06-17T08:58:42Z</time>
      </trkpt>
      <trkpt lat="44.86376" lon="5.5987">
        <ele>779.65</ele>
        <time>2018-06-17T08:58:43Z</time>
      </trkpt>
      <trkpt lat="44.86354" lon="5.5988">
        <ele>779.93</ele>
        <time>2018-06-17T08:58:44Z</time>
      </trkpt>
      <trkpt lat="44.86333" lon="5.59894">
        <ele>780.71</ele>
        <time>2018-06-17T08:58:45Z</time>
      </trkpt>
      <trkpt lat="44.86313" lon="5.59913">
        <ele>783.05</ele>
        <time>2018-06-17T08:58:46Z</time>
      </trkpt>
      <trkpt lat="44.86295" lon="5.59931">
        <ele>783.75</ele>
        <time>2018-06-17T08:58:47Z</time>
      </trkpt>
      <trkpt lat="44.86277" lon="5.59951">
        <ele>784.66</ele>
        <time>2018-06-17T08:58:48Z</time>
      </trkpt>
      <trkpt lat="44.86261" lon="5.59973">
        <ele>784.93</ele>
        <time>2018-06-17T08:58:49Z</time>
      </trkpt>
      <trkpt lat="44.86245" lon="5.59997">
        <ele>785.71</ele>
        <time>2018-06-17T08:58:50Z</time>
      </trkpt>
      <trkpt lat="44.8623" lon="5.60023">
        <ele>786.65</ele>
        <time>2018-06-17T08:58:51Z</time>
      </trkpt>
      <trkpt lat="44.86215" lon="5.60049">
        <ele>786.93</ele>
        <time>2018-06-17T08:58:52Z</time>
      </trkpt>
      <trkpt lat="44.86203" lon="5.6008">
        <ele>788.41</ele>
        <time>2018-06-17T08:58:53Z</time>
      </trkpt>
      <trkpt lat="44.86191" lon="5.60111">
        <ele>788.86</ele>
        <time>2018-06-17T08:58:54Z</time>
      </trkpt>
      <trkpt lat="44.8618" lon="5.60142">
        <ele>789.69</ele>
        <time>2018-06-17T08:58:55Z</time>
      </trkpt>
      <trkpt lat="44.86169" lon="5.60173">
        <ele>790.64</ele>
        <time>2018-06-17T08:58:56Z</time>
      </trkpt>
      <trkpt lat="44.86157" lon="5.60204">
        <ele>792.33</ele>
        <time>2018-06-17T08:58:57Z</time>
      </trkpt>
      <trkpt lat="44.86146" lon="5.60233">
        <ele>794.23</ele>
        <time>2018-06-17T08:58:58Z</time>
      </trkpt>
      <trkpt lat="44.86134" lon="5.60263">
        <ele>795.5</ele>
        <time>2018-06-17T08:58:59Z</time>
      </trkpt>
      <trkpt lat="44.86122" lon="5.60293">
        <ele>796.59</ele>
        <time>2018-06-17T08:59:00Z</time>
      </trkpt>
      <trkpt lat="44.86111" lon="5.60323">
        <ele>798.31</ele>
        <time>2018-06-17T08:59:01Z</time>
      </trkpt>
      <trkpt lat="44.86099" lon="5.60352">
        <ele>800.23</ele>
        <time>2018-06-17T08:59:02Z</time>
      </trkpt>
      <trkpt lat="44.86087" lon="5.60381">
        <ele>800.8</ele>
        <time>2018-06-17T08:59:03Z</time>
      </trkpt>
      <trkpt lat="44.86075" lon="5.6041">
        <ele>800.98</ele>
        <time>2018-06-17T08:59:04Z</time>
      </trkpt>
      <trkpt lat="44.86064" lon="5.60439">
        <ele>801.73</ele>
        <time>2018-06-17T08:59:05Z</time>
      </trkpt>
      <trkpt lat="44.86053" lon="5.60469">
        <ele>801.25</ele>
        <time>2018-06-17T08:59:06Z</time>
      </trkpt>
      <trkpt lat="44.86042" lon="5.60497">
        <ele>801.11</ele>
        <time>2018-06-17T08:59:07Z</time>
      </trkpt>
      <trkpt lat="44.86031" lon="5.60526">
        <ele>801.07</ele>
        <time>2018-06-17T08:59:08Z</time>
      </trkpt>
      <trkpt lat="44.8602" lon="5.60554">
        <ele>800.35</ele>
        <time>2018-06-17T08:59:09Z</time>
      </trkpt>
      <trkpt lat="44.8601" lon="5.60583">
        <ele>800.14</ele>
        <time>2018-06-17T08:59:10Z</time>
      </trkpt>
      <trkpt lat="44.85999" lon="5.60612">
        <ele>800.08</ele>
        <time>2018-06-17T08:59:11Z</time>
      </trkpt>
      <trkpt lat="44.85988" lon="5.60641">
        <ele>799.36</ele>
        <time>2018-06-17T08:59:12Z</time>
      </trkpt>
      <trkpt lat="44.85976" lon="5.6067">
        <ele>799.14</ele>
        <time>2018-06-17T08:59:13Z</time>
      </trkpt>
      <trkpt lat="44.85964" lon="5.607">
        <ele>799.08</ele>
        <time>2018-06-17T08:59:14Z</time>
      </trkpt>
      <trkpt lat="44.85951" lon="5.60728">
        <ele>797.66</ele>
        <time>2018-06-17T08:59:15Z</time>
      </trkpt>
      <trkpt lat="44.85938" lon="5.60755">
        <ele>797.23</ele>
        <time>2018-06-17T08:59:16Z</time>
      </trkpt>
      <trkpt lat="44.85924" lon="5.60781">
        <ele>796.4</ele>
        <time>2018-06-17T08:59:17Z</time>
      </trkpt>
      <trkpt lat="44.85909" lon="5.60807">
        <ele>796.16</ele>
        <time>2018-06-17T08:59:18Z</time>
      </trkpt>
      <trkpt lat="44.85895" lon="5.60832">
        <ele>796.08</ele>
        <time>2018-06-17T08:59:19Z</time>
      </trkpt>
      <trkpt lat="44.85879" lon="5.60855">
        <ele>795.36</ele>
        <time>2018-06-17T08:59:20Z</time>
      </trkpt>
      <trkpt lat="44.85863" lon="5.60878">
        <ele>795.14</ele>
        <time>2018-06-17T08:59:21Z</time>
      </trkpt>
      <trkpt lat="44.85847" lon="5.609">
        <ele>794.38</ele>
        <time>2018-06-17T08:59:22Z</time>
      </trkpt>
      <trkpt lat="44.8583" lon="5.60922">
        <ele>794.15</ele>
        <time>2018-06-17T08:59:23Z</time>
      </trkpt>
      <trkpt lat="44.85813" lon="5.60942">
        <ele>793.38</ele>
        <time>2018-06-17T08:59:24Z</time>
      </trkpt>
      <trkpt lat="44.85796" lon="5.60963">
        <ele>792.45</ele>
        <time>2018-06-17T08:59:25Z</time>
      </trkpt>
      <trkpt lat="44.85778" lon="5.60983">
        <ele>792.17</ele>
        <time>2018-06-17T08:59:26Z</time>
      </trkpt>
      <trkpt lat="44.8576" lon="5.61003">
        <ele>792.08</ele>
        <time>2018-06-17T08:59:27Z</time>
      </trkpt>
      <trkpt lat="44.85742" lon="5.61024">
        <ele>792.06</ele>
        <time>2018-06-17T08:59:28Z</time>
      </trkpt>
      <trkpt lat="44.85724" lon="5.61044">
        <ele>792.05</ele>
        <time>2018-06-17T08:59:29Z</time>
      </trkpt>
      <trkpt lat="44.85706" lon="5.61063">
        <ele>791.35</ele>
        <time>2018-06-17T08:59:30Z</time>
      </trkpt>
      <trkpt lat="44.85686" lon="5.61084">
        <ele>790.44</ele>
        <time>2018-06-17T08:59:31Z</time>
      </trkpt>
      <trkpt lat="44.85668" lon="5.61106">
        <ele>790.17</ele>
        <time>2018-06-17T08:59:32Z</time>
      </trkpt>
      <trkpt lat="44.85651" lon="5.61129">
        <ele>790.08</ele>
        <time>2018-06-17T08:59:33Z</time>
      </trkpt>
      <trkpt lat="44.85635" lon="5.61155">
        <ele>790.06</ele>
        <time>2018-06-17T08:59:34Z</time>
      </trkpt>
      <trkpt lat="44.85621" lon="5.6118">
        <ele>787.25</ele>
        <time>2018-06-17T08:59:35Z</time>
      </trkpt>
      <trkpt lat="44.85608" lon="5.61212">
        <ele>786.41</ele>
        <time>2018-06-17T08:59:36Z</time>
      </trkpt>
      <trkpt lat="44.85594" lon="5.61243">
        <ele>784.76</ele>
        <time>2018-06-17T08:59:37Z</time>
      </trkpt>
      <trkpt lat="44.85581" lon="5.61272">
        <ele>783.56</ele>
        <time>2018-06-17T08:59:38Z</time>
      </trkpt>
      <trkpt lat="44.85568" lon="5.61302">
        <ele>783.9</ele>
        <time>2018-06-17T08:59:39Z</time>
      </trkpt>
      <trkpt lat="44.85554" lon="5.61331">
        <ele>784.01</ele>
        <time>2018-06-17T08:59:40Z</time>
      </trkpt>
      <trkpt lat="44.85541" lon="5.61358">
        <ele>784.04</ele>
        <time>2018-06-17T08:59:41Z</time>
      </trkpt>
      <trkpt lat="44.85529" lon="5.61386">
        <ele>783.35</ele>
        <time>2018-06-17T08:59:42Z</time>
      </trkpt>
      <trkpt lat="44.85515" lon="5.61413">
        <ele>782.44</ele>
        <time>2018-06-17T08:59:43Z</time>
      </trkpt>
      <trkpt lat="44.85504" lon="5.61441">
        <ele>780.77</ele>
        <time>2018-06-17T08:59:44Z</time>
      </trkpt>
      <trkpt lat="44.85491" lon="5.61468">
        <ele>778.86</ele>
        <time>2018-06-17T08:59:45Z</time>
      </trkpt>
      <trkpt lat="44.85478" lon="5.61495">
        <ele>778.29</ele>
        <time>2018-06-17T08:59:46Z</time>
      </trkpt>
      <trkpt lat="44.85466" lon="5.61523">
        <ele>775.32</ele>
        <time>2018-06-17T08:59:47Z</time>
      </trkpt>
      <trkpt lat="44.85453" lon="5.61549">
        <ele>774.43</ele>
        <time>2018-06-17T08:59:48Z</time>
      </trkpt>
      <trkpt lat="44.8544" lon="5.61576">
        <ele>772.06</ele>
        <time>2018-06-17T08:59:49Z</time>
      </trkpt>
      <trkpt lat="44.85428" lon="5.61604">
        <ele>772.05</ele>
        <time>2018-06-17T08:59:50Z</time>
      </trkpt>
      <trkpt lat="44.85416" lon="5.61632">
        <ele>770.65</ele>
        <time>2018-06-17T08:59:51Z</time>
      </trkpt>
      <trkpt lat="44.85404" lon="5.61661">
        <ele>769.53</ele>
        <time>2018-06-17T08:59:52Z</time>
      </trkpt>
      <trkpt lat="44.85394" lon="5.6169">
        <ele>769.19</ele>
        <time>2018-06-17T08:59:53Z</time>
      </trkpt>
      <trkpt lat="44.85385" lon="5.61719">
        <ele>767.69</ele>
        <time>2018-06-17T08:59:54Z</time>
      </trkpt>
      <trkpt lat="44.85376" lon="5.61749">
        <ele>766.54</ele>
        <time>2018-06-17T08:59:55Z</time>
      </trkpt>
      <trkpt lat="44.85367" lon="5.61779">
        <ele>765.5</ele>
        <time>2018-06-17T08:59:56Z</time>
      </trkpt>
      <trkpt lat="44.85358" lon="5.61808">
        <ele>764.48</ele>
        <time>2018-06-17T08:59:57Z</time>
      </trkpt>
      <trkpt lat="44.85349" lon="5.61838">
        <ele>763.48</ele>
        <time>2018-06-17T08:59:58Z</time>
      </trkpt>
      <trkpt lat="44.85339" lon="5.61867">
        <ele>762.48</ele>
        <time>2018-06-17T08:59:59Z</time>
      </trkpt>
      <trkpt lat="44.85328" lon="5.61895">
        <ele>761.48</ele>
        <time>2018-06-17T09:00:00Z</time>
      </trkpt>
      <trkpt lat="44.85316" lon="5.61922">
        <ele>761.18</ele>
        <time>2018-06-17T09:00:01Z</time>
      </trkpt>
      <trkpt lat="44.85302" lon="5.61948">
        <ele>761.09</ele>
        <time>2018-06-17T09:00:02Z</time>
      </trkpt>
      <trkpt lat="44.85286" lon="5.61973">
        <ele>760.36</ele>
        <time>2018-06-17T09:00:03Z</time>
      </trkpt>
      <trkpt lat="44.85269" lon="5.61996">
        <ele>758.74</ele>
        <time>2018-06-17T09:00:04Z</time>
      </trkpt>
      <trkpt lat="44.8525" lon="5.62016">
        <ele>757.56</ele>
        <time>2018-06-17T09:00:05Z</time>
      </trkpt>
      <trkpt lat="44.85229" lon="5.62032">
        <ele>757.2</ele>
        <time>2018-06-17T09:00:06Z</time>
      </trkpt>
      <trkpt lat="44.85208" lon="5.62047">
        <ele>757.09</ele>
        <time>2018-06-17T09:00:07Z</time>
      </trkpt>
      <trkpt lat="44.85186" lon="5.62059">
        <ele>757.06</ele>
        <time>2018-06-17T09:00:08Z</time>
      </trkpt>
      <trkpt lat="44.85163" lon="5.6207">
        <ele>757.75</ele>
        <time>2018-06-17T09:00:09Z</time>
      </trkpt>
      <trkpt lat="44.8514" lon="5.62078">
        <ele>757.96</ele>
        <time>2018-06-17T09:00:10Z</time>
      </trkpt>
      <trkpt lat="44.85116" lon="5.62083">
        <ele>759.42</ele>
        <time>2018-06-17T09:00:11Z</time>
      </trkpt>
      <trkpt lat="44.85093" lon="5.62086">
        <ele>759.86</ele>
        <time>2018-06-17T09:00:12Z</time>
      </trkpt>
      <trkpt lat="44.85069" lon="5.62085">
        <ele>759.99</ele>
        <time>2018-06-17T09:00:13Z</time>
      </trkpt>
      <trkpt lat="44.85046" lon="5.62081">
        <ele>760.73</ele>
        <time>2018-06-17T09:00:14Z</time>
      </trkpt>
      <trkpt lat="44.85023" lon="5.62074">
        <ele>760.95</ele>
        <time>2018-06-17T09:00:15Z</time>
      </trkpt>
      <trkpt lat="44.85002" lon="5.62063">
        <ele>761.02</ele>
        <time>2018-06-17T09:00:16Z</time>
      </trkpt>
      <trkpt lat="44.8498" lon="5.6205">
        <ele>760.34</ele>
        <time>2018-06-17T09:00:17Z</time>
      </trkpt>
      <trkpt lat="44.84959" lon="5.62035">
        <ele>760.14</ele>
        <time>2018-06-17T09:00:18Z</time>
      </trkpt>
      <trkpt lat="44.8494" lon="5.62016">
        <ele>759.38</ele>
        <time>2018-06-17T09:00:19Z</time>
      </trkpt>
      <trkpt lat="44.84921" lon="5.61994">
        <ele>759.15</ele>
        <time>2018-06-17T09:00:20Z</time>
      </trkpt>
      <trkpt lat="44.84902" lon="5.61969">
        <ele>758.38</ele>
        <time>2018-06-17T09:00:21Z</time>
      </trkpt>
      <trkpt lat="44.84886" lon="5.61944">
        <ele>757.45</ele>
        <time>2018-06-17T09:00:22Z</time>
      </trkpt>
      <trkpt lat="44.84868" lon="5.61919">
        <ele>756.47</ele>
        <time>2018-06-17T09:00:23Z</time>
      </trkpt>
      <trkpt lat="44.8485" lon="5.61897">
        <ele>755.47</ele>
        <time>2018-06-17T09:00:24Z</time>
      </trkpt>
      <trkpt lat="44.84831" lon="5.61879">
        <ele>755.18</ele>
        <time>2018-06-17T09:00:25Z</time>
      </trkpt>
      <trkpt lat="44.8481" lon="5.61863">
        <ele>755.09</ele>
        <time>2018-06-17T09:00:26Z</time>
      </trkpt>
      <trkpt lat="44.84788" lon="5.61852">
        <ele>755.76</ele>
        <time>2018-06-17T09:00:27Z</time>
      </trkpt>
      <trkpt lat="44.84766" lon="5.61844">
        <ele>756.66</ele>
        <time>2018-06-17T09:00:28Z</time>
      </trkpt>
      <trkpt lat="44.84742" lon="5.61842">
        <ele>756.93</ele>
        <time>2018-06-17T09:00:29Z</time>
      </trkpt>
      <trkpt lat="44.84719" lon="5.61842">
        <ele>757.71</ele>
        <time>2018-06-17T09:00:30Z</time>
      </trkpt>
      <trkpt lat="44.84696" lon="5.61847">
        <ele>758.65</ele>
        <time>2018-06-17T09:00:31Z</time>
      </trkpt>
      <trkpt lat="44.84673" lon="5.61852">
        <ele>758.93</ele>
        <time>2018-06-17T09:00:32Z</time>
      </trkpt>
      <trkpt lat="44.8465" lon="5.61855">
        <ele>760.41</ele>
        <time>2018-06-17T09:00:33Z</time>
      </trkpt>
      <trkpt lat="44.84627" lon="5.61855">
        <ele>760.86</ele>
        <time>2018-06-17T09:00:34Z</time>
      </trkpt>
      <trkpt lat="44.84604" lon="5.61852">
        <ele>761.69</ele>
        <time>2018-06-17T09:00:35Z</time>
      </trkpt>
      <trkpt lat="44.84581" lon="5.61845">
        <ele>761.94</ele>
        <time>2018-06-17T09:00:36Z</time>
      </trkpt>
      <trkpt lat="44.84559" lon="5.61836">
        <ele>762.72</ele>
        <time>2018-06-17T09:00:37Z</time>
      </trkpt>
      <trkpt lat="44.84537" lon="5.61825">
        <ele>762.95</ele>
        <time>2018-06-17T09:00:38Z</time>
      </trkpt>
      <trkpt lat="44.84518" lon="5.61804">
        <ele>763.02</ele>
        <time>2018-06-17T09:00:39Z</time>
      </trkpt>
      <trkpt lat="44.84498" lon="5.61786">
        <ele>763.74</ele>
        <time>2018-06-17T09:00:40Z</time>
      </trkpt>
      <trkpt lat="44.84478" lon="5.61769">
        <ele>763.26</ele>
        <time>2018-06-17T09:00:41Z</time>
      </trkpt>
      <trkpt lat="44.84458" lon="5.61756">
        <ele>762.41</ele>
        <time>2018-06-17T09:00:42Z</time>
      </trkpt>
      <trkpt lat="44.84436" lon="5.61747">
        <ele>762.86</ele>
        <time>2018-06-17T09:00:43Z</time>
      </trkpt>
      <trkpt lat="44.84413" lon="5.61742">
        <ele>762.99</ele>
        <time>2018-06-17T09:00:44Z</time>
      </trkpt>
      <trkpt lat="44.84391" lon="5.61739">
        <ele>763.03</ele>
        <time>2018-06-17T09:00:45Z</time>
      </trkpt>
      <trkpt lat="44.84369" lon="5.6175">
        <ele>764.44</ele>
        <time>2018-06-17T09:00:46Z</time>
      </trkpt>
      <trkpt lat="44.84348" lon="5.61757">
        <ele>764.87</ele>
        <time>2018-06-17T09:00:47Z</time>
      </trkpt>
      <trkpt lat="44.84327" lon="5.61769">
        <ele>764.99</ele>
        <time>2018-06-17T09:00:48Z</time>
      </trkpt>
      <trkpt lat="44.84307" lon="5.61787">
        <ele>765.73</ele>
        <time>2018-06-17T09:00:49Z</time>
      </trkpt>
      <trkpt lat="44.84287" lon="5.61801">
        <ele>766.65</ele>
        <time>2018-06-17T09:00:50Z</time>
      </trkpt>
      <trkpt lat="44.84267" lon="5.61812">
        <ele>767.63</ele>
        <time>2018-06-17T09:00:51Z</time>
      </trkpt>
      <trkpt lat="44.84246" lon="5.61821">
        <ele>767.92</ele>
        <time>2018-06-17T09:00:52Z</time>
      </trkpt>
      <trkpt lat="44.84222" lon="5.61814">
        <ele>768.01</ele>
        <time>2018-06-17T09:00:53Z</time>
      </trkpt>
      <trkpt lat="44.84202" lon="5.61809">
        <ele>768.74</ele>
        <time>2018-06-17T09:00:54Z</time>
      </trkpt>
      <trkpt lat="44.84182" lon="5.61802">
        <ele>769.66</ele>
        <time>2018-06-17T09:00:55Z</time>
      </trkpt>
      <trkpt lat="44.84164" lon="5.61788">
        <ele>769.93</ele>
        <time>2018-06-17T09:00:56Z</time>
      </trkpt>
      <trkpt lat="44.84146" lon="5.6177">
        <ele>769.31</ele>
        <time>2018-06-17T09:00:57Z</time>
      </trkpt>
      <trkpt lat="44.84132" lon="5.6175">
        <ele>769.13</ele>
        <time>2018-06-17T09:00:58Z</time>
      </trkpt>
      <trkpt lat="44.8412" lon="5.61721">
        <ele>768.37</ele>
        <time>2018-06-17T09:00:59Z</time>
      </trkpt>
      <trkpt lat="44.84108" lon="5.61692">
        <ele>768.85</ele>
        <time>2018-06-17T09:01:00Z</time>
      </trkpt>
      <trkpt lat="44.84096" lon="5.61665">
        <ele>768.99</ele>
        <time>2018-06-17T09:01:01Z</time>
      </trkpt>
      <trkpt lat="44.84074" lon="5.61626">
        <ele>768.83</ele>
        <time>2018-06-17T09:01:03Z</time>
      </trkpt>
      <trkpt lat="44.84056" lon="5.61586">
        <ele>768.82</ele>
        <time>2018-06-17T09:01:05Z</time>
      </trkpt>
      <trkpt lat="44.84047" lon="5.61561">
        <ele>768.98</ele>
        <time>2018-06-17T09:01:06Z</time>
      </trkpt>
      <trkpt lat="44.84039" lon="5.61533">
        <ele>769.73</ele>
        <time>2018-06-17T09:01:07Z</time>
      </trkpt>
      <trkpt lat="44.84033" lon="5.615">
        <ele>769.95</ele>
        <time>2018-06-17T09:01:08Z</time>
      </trkpt>
      <trkpt lat="44.8403" lon="5.61463">
        <ele>770.02</ele>
        <time>2018-06-17T09:01:09Z</time>
      </trkpt>
      <trkpt lat="44.84027" lon="5.61426">
        <ele>770.74</ele>
        <time>2018-06-17T09:01:10Z</time>
      </trkpt>
      <trkpt lat="44.84024" lon="5.61388">
        <ele>770.96</ele>
        <time>2018-06-17T09:01:11Z</time>
      </trkpt>
      <trkpt lat="44.84018" lon="5.61353">
        <ele>771.02</ele>
        <time>2018-06-17T09:01:12Z</time>
      </trkpt>
      <trkpt lat="44.84009" lon="5.61319">
        <ele>771.74</ele>
        <time>2018-06-17T09:01:13Z</time>
      </trkpt>
      <trkpt lat="44.84" lon="5.61287">
        <ele>772.66</ele>
        <time>2018-06-17T09:01:14Z</time>
      </trkpt>
      <trkpt lat="44.83989" lon="5.61256">
        <ele>772.93</ele>
        <time>2018-06-17T09:01:15Z</time>
      </trkpt>
      <trkpt lat="44.83977" lon="5.61226">
        <ele>773.01</ele>
        <time>2018-06-17T09:01:16Z</time>
      </trkpt>
      <trkpt lat="44.83963" lon="5.61198">
        <ele>773.04</ele>
        <time>2018-06-17T09:01:17Z</time>
      </trkpt>
      <trkpt lat="44.83948" lon="5.61172">
        <ele>773.75</ele>
        <time>2018-06-17T09:01:18Z</time>
      </trkpt>
      <trkpt lat="44.8393" lon="5.61149">
        <ele>773.26</ele>
        <time>2018-06-17T09:01:19Z</time>
      </trkpt>
      <trkpt lat="44.83912" lon="5.61126">
        <ele>773.81</ele>
        <time>2018-06-17T09:01:20Z</time>
      </trkpt>
      <trkpt lat="44.83893" lon="5.61103">
        <ele>773.98</ele>
        <time>2018-06-17T09:01:21Z</time>
      </trkpt>
      <trkpt lat="44.83875" lon="5.61081">
        <ele>773.33</ele>
        <time>2018-06-17T09:01:22Z</time>
      </trkpt>
      <trkpt lat="44.83856" lon="5.61059">
        <ele>773.83</ele>
        <time>2018-06-17T09:01:23Z</time>
      </trkpt>
      <trkpt lat="44.83838" lon="5.61037">
        <ele>773.98</ele>
        <time>2018-06-17T09:01:24Z</time>
      </trkpt>
      <trkpt lat="44.8382" lon="5.61015">
        <ele>774.03</ele>
        <time>2018-06-17T09:01:25Z</time>
      </trkpt>
      <trkpt lat="44.83803" lon="5.6099">
        <ele>774.04</ele>
        <time>2018-06-17T09:01:26Z</time>
      </trkpt>
      <trkpt lat="44.83789" lon="5.60963">
        <ele>774.75</ele>
        <time>2018-06-17T09:01:27Z</time>
      </trkpt>
      <trkpt lat="44.83777" lon="5.60934">
        <ele>775.66</ele>
        <time>2018-06-17T09:01:28Z</time>
      </trkpt>
      <trkpt lat="44.83767" lon="5.60902">
        <ele>777.33</ele>
        <time>2018-06-17T09:01:29Z</time>
      </trkpt>
      <trkpt lat="44.83761" lon="5.60869">
        <ele>778.53</ele>
        <time>2018-06-17T09:01:30Z</time>
      </trkpt>
      <trkpt lat="44.83757" lon="5.60835">
        <ele>778.89</ele>
        <time>2018-06-17T09:01:31Z</time>
      </trkpt>
      <trkpt lat="44.83754" lon="5.60801">
        <ele>779</ele>
        <time>2018-06-17T09:01:32Z</time>
      </trkpt>
      <trkpt lat="44.83749" lon="5.60768">
        <ele>779.04</ele>
        <time>2018-06-17T09:01:33Z</time>
      </trkpt>
      <trkpt lat="44.83741" lon="5.60737">
        <ele>779.04</ele>
        <time>2018-06-17T09:01:34Z</time>
      </trkpt>
      <trkpt lat="44.83731" lon="5.60709">
        <ele>779.05</ele>
        <time>2018-06-17T09:01:35Z</time>
      </trkpt>
      <trkpt lat="44.83718" lon="5.60683">
        <ele>779.05</ele>
        <time>2018-06-17T09:01:36Z</time>
      </trkpt>
      <trkpt lat="44.83703" lon="5.60659">
        <ele>779.75</ele>
        <time>2018-06-17T09:01:37Z</time>
      </trkpt>
      <trkpt lat="44.83686" lon="5.60637">
        <ele>779.96</ele>
        <time>2018-06-17T09:01:38Z</time>
      </trkpt>
      <trkpt lat="44.83669" lon="5.60614">
        <ele>780.02</ele>
        <time>2018-06-17T09:01:39Z</time>
      </trkpt>
      <trkpt lat="44.83652" lon="5.6059">
        <ele>780.04</ele>
        <time>2018-06-17T09:01:40Z</time>
      </trkpt>
      <trkpt lat="44.83637" lon="5.60565">
        <ele>780.05</ele>
        <time>2018-06-17T09:01:41Z</time>
      </trkpt>
      <trkpt lat="44.83622" lon="5.60537">
        <ele>780.75</ele>
        <time>2018-06-17T09:01:42Z</time>
      </trkpt>
      <trkpt lat="44.8361" lon="5.60508">
        <ele>780.96</ele>
        <time>2018-06-17T09:01:43Z</time>
      </trkpt>
      <trkpt lat="44.83599" lon="5.60478">
        <ele>781.72</ele>
        <time>2018-06-17T09:01:44Z</time>
      </trkpt>
      <trkpt lat="44.83591" lon="5.60446">
        <ele>782.65</ele>
        <time>2018-06-17T09:01:45Z</time>
      </trkpt>
      <trkpt lat="44.83584" lon="5.60412">
        <ele>783.63</ele>
        <time>2018-06-17T09:01:46Z</time>
      </trkpt>
      <trkpt lat="44.8358" lon="5.60377">
        <ele>783.92</ele>
        <time>2018-06-17T09:01:47Z</time>
      </trkpt>
      <trkpt lat="44.83578" lon="5.60342">
        <ele>784.71</ele>
        <time>2018-06-17T09:01:48Z</time>
      </trkpt>
      <trkpt lat="44.83577" lon="5.60306">
        <ele>785.65</ele>
        <time>2018-06-17T09:01:49Z</time>
      </trkpt>
      <trkpt lat="44.83575" lon="5.60272">
        <ele>785.23</ele>
        <time>2018-06-17T09:01:50Z</time>
      </trkpt>
      <trkpt lat="44.83572" lon="5.60238">
        <ele>785.1</ele>
        <time>2018-06-17T09:01:51Z</time>
      </trkpt>
      <trkpt lat="44.83566" lon="5.60205">
        <ele>785.07</ele>
        <time>2018-06-17T09:01:52Z</time>
      </trkpt>
      <trkpt lat="44.83559" lon="5.60173">
        <ele>784.35</ele>
        <time>2018-06-17T09:01:53Z</time>
      </trkpt>
      <trkpt lat="44.83548" lon="5.60143">
        <ele>784.84</ele>
        <time>2018-06-17T09:01:54Z</time>
      </trkpt>
      <trkpt lat="44.83534" lon="5.60115">
        <ele>785.69</ele>
        <time>2018-06-17T09:01:55Z</time>
      </trkpt>
      <trkpt lat="44.83519" lon="5.60088">
        <ele>785.94</ele>
        <time>2018-06-17T09:01:56Z</time>
      </trkpt>
      <trkpt lat="44.83502" lon="5.60064">
        <ele>786.02</ele>
        <time>2018-06-17T09:01:57Z</time>
      </trkpt>
      <trkpt lat="44.83484" lon="5.6004">
        <ele>786.74</ele>
        <time>2018-06-17T09:01:58Z</time>
      </trkpt>
      <trkpt lat="44.83465" lon="5.60018">
        <ele>786.96</ele>
        <time>2018-06-17T09:01:59Z</time>
      </trkpt>
      <trkpt lat="44.83446" lon="5.59994">
        <ele>787.02</ele>
        <time>2018-06-17T09:02:00Z</time>
      </trkpt>
      <trkpt lat="44.83428" lon="5.5997">
        <ele>787.04</ele>
        <time>2018-06-17T09:02:01Z</time>
      </trkpt>
      <trkpt lat="44.83411" lon="5.59945">
        <ele>787.05</ele>
        <time>2018-06-17T09:02:02Z</time>
      </trkpt>
      <trkpt lat="44.83396" lon="5.59919">
        <ele>788.45</ele>
        <time>2018-06-17T09:02:03Z</time>
      </trkpt>
      <trkpt lat="44.8338" lon="5.59894">
        <ele>788.87</ele>
        <time>2018-06-17T09:02:04Z</time>
      </trkpt>
      <trkpt lat="44.83363" lon="5.59872">
        <ele>789.69</ele>
        <time>2018-06-17T09:02:05Z</time>
      </trkpt>
      <trkpt lat="44.83344" lon="5.59852">
        <ele>790.64</ele>
        <time>2018-06-17T09:02:06Z</time>
      </trkpt>
      <trkpt lat="44.83324" lon="5.59836">
        <ele>791.63</ele>
        <time>2018-06-17T09:02:07Z</time>
      </trkpt>
      <trkpt lat="44.83306" lon="5.5982">
        <ele>791.92</ele>
        <time>2018-06-17T09:02:08Z</time>
      </trkpt>
      <trkpt lat="44.8329" lon="5.59802">
        <ele>792.71</ele>
        <time>2018-06-17T09:02:09Z</time>
      </trkpt>
      <trkpt lat="44.83262" lon="5.59773">
        <ele>793.72</ele>
        <time>2018-06-17T09:02:11Z</time>
      </trkpt>
      <trkpt lat="44.8323" lon="5.59767">
        <ele>795.63</ele>
        <time>2018-06-17T09:02:13Z</time>
      </trkpt>
      <trkpt lat="44.83198" lon="5.59786">
        <ele>796.92</ele>
        <time>2018-06-17T09:02:15Z</time>
      </trkpt>
      <trkpt lat="44.83183" lon="5.598">
        <ele>797.01</ele>
        <time>2018-06-17T09:02:16Z</time>
      </trkpt>
      <trkpt lat="44.83168" lon="5.5982">
        <ele>797.04</ele>
        <time>2018-06-17T09:02:17Z</time>
      </trkpt>
      <trkpt lat="44.83156" lon="5.59842">
        <ele>797.05</ele>
        <time>2018-06-17T09:02:18Z</time>
      </trkpt>
      <trkpt lat="44.83152" lon="5.59903">
        <ele>796.35</ele>
        <time>2018-06-17T09:02:20Z</time>
      </trkpt>
      <trkpt lat="44.83161" lon="5.59934">
        <ele>794.74</ele>
        <time>2018-06-17T09:02:21Z</time>
      </trkpt>
      <trkpt lat="44.83166" lon="5.59962">
        <ele>794.26</ele>
        <time>2018-06-17T09:02:22Z</time>
      </trkpt>
      <trkpt lat="44.83193" lon="5.59978">
        <ele>794.81</ele>
        <time>2018-06-17T09:02:23Z</time>
      </trkpt>
      <trkpt lat="44.83216" lon="5.59992">
        <ele>795.68</ele>
        <time>2018-06-17T09:02:24Z</time>
      </trkpt>
      <trkpt lat="44.83237" lon="5.60006">
        <ele>795.24</ele>
        <time>2018-06-17T09:02:25Z</time>
      </trkpt>
      <trkpt lat="44.83255" lon="5.60023">
        <ele>797.21</ele>
        <time>2018-06-17T09:02:26Z</time>
      </trkpt>
      <trkpt lat="44.83268" lon="5.60044">
        <ele>799.2</ele>
        <time>2018-06-17T09:02:27Z</time>
      </trkpt>
      <trkpt lat="44.83289" lon="5.60087">
        <ele>799.76</ele>
        <time>2018-06-17T09:02:29Z</time>
      </trkpt>
      <trkpt lat="44.83296" lon="5.60131">
        <ele>803.24</ele>
        <time>2018-06-17T09:02:31Z</time>
      </trkpt>
      <trkpt lat="44.83298" lon="5.60175">
        <ele>807.41</ele>
        <time>2018-06-17T09:02:33Z</time>
      </trkpt>
      <trkpt lat="44.83294" lon="5.60221">
        <ele>811.21</ele>
        <time>2018-06-17T09:02:35Z</time>
      </trkpt>
      <trkpt lat="44.83291" lon="5.60248">
        <ele>813.2</ele>
        <time>2018-06-17T09:02:36Z</time>
      </trkpt>
      <trkpt lat="44.83285" lon="5.60275">
        <ele>814.49</ele>
        <time>2018-06-17T09:02:37Z</time>
      </trkpt>
      <trkpt lat="44.83274" lon="5.60304">
        <ele>815.58</ele>
        <time>2018-06-17T09:02:38Z</time>
      </trkpt>
      <trkpt lat="44.83261" lon="5.60333">
        <ele>816.61</ele>
        <time>2018-06-17T09:02:39Z</time>
      </trkpt>
      <trkpt lat="44.8325" lon="5.60361">
        <ele>817.62</ele>
        <time>2018-06-17T09:02:40Z</time>
      </trkpt>
      <trkpt lat="44.83241" lon="5.6039">
        <ele>819.32</ele>
        <time>2018-06-17T09:02:41Z</time>
      </trkpt>
      <trkpt lat="44.83235" lon="5.60421">
        <ele>821.23</ele>
        <time>2018-06-17T09:02:42Z</time>
      </trkpt>
      <trkpt lat="44.83232" lon="5.60453">
        <ele>822.5</ele>
        <time>2018-06-17T09:02:43Z</time>
      </trkpt>
      <trkpt lat="44.8323" lon="5.60485">
        <ele>823.59</ele>
        <time>2018-06-17T09:02:44Z</time>
      </trkpt>
      <trkpt lat="44.83231" lon="5.60518">
        <ele>825.31</ele>
        <time>2018-06-17T09:02:45Z</time>
      </trkpt>
      <trkpt lat="44.83232" lon="5.60551">
        <ele>826.53</ele>
        <time>2018-06-17T09:02:46Z</time>
      </trkpt>
      <trkpt lat="44.83233" lon="5.60583">
        <ele>827.59</ele>
        <time>2018-06-17T09:02:47Z</time>
      </trkpt>
      <trkpt lat="44.83232" lon="5.60613">
        <ele>829.31</ele>
        <time>2018-06-17T09:02:48Z</time>
      </trkpt>
      <trkpt lat="44.8323" lon="5.60641">
        <ele>830.53</ele>
        <time>2018-06-17T09:02:49Z</time>
      </trkpt>
      <trkpt lat="44.83224" lon="5.60686">
        <ele>831.21</ele>
        <time>2018-06-17T09:02:51Z</time>
      </trkpt>
      <trkpt lat="44.83208" lon="5.6072">
        <ele>831.06</ele>
        <time>2018-06-17T09:02:53Z</time>
      </trkpt>
      <trkpt lat="44.83186" lon="5.60743">
        <ele>831.05</ele>
        <time>2018-06-17T09:02:55Z</time>
      </trkpt>
      <trkpt lat="44.83138" lon="5.60731">
        <ele>830.35</ele>
        <time>2018-06-17T09:02:57Z</time>
      </trkpt>
      <trkpt lat="44.83114" lon="5.60726">
        <ele>831.54</ele>
        <time>2018-06-17T09:02:58Z</time>
      </trkpt>
      <trkpt lat="44.83092" lon="5.60722">
        <ele>831.9</ele>
        <time>2018-06-17T09:02:59Z</time>
      </trkpt>
      <trkpt lat="44.8307" lon="5.6072">
        <ele>832.7</ele>
        <time>2018-06-17T09:03:00Z</time>
      </trkpt>
      <trkpt lat="44.83049" lon="5.6072">
        <ele>833.65</ele>
        <time>2018-06-17T09:03:01Z</time>
      </trkpt>
      <trkpt lat="44.83027" lon="5.6072">
        <ele>834.63</ele>
        <time>2018-06-17T09:03:02Z</time>
      </trkpt>
      <trkpt lat="44.83005" lon="5.60722">
        <ele>834.92</ele>
        <time>2018-06-17T09:03:03Z</time>
      </trkpt>
      <trkpt lat="44.82984" lon="5.60726">
        <ele>835.01</ele>
        <time>2018-06-17T09:03:04Z</time>
      </trkpt>
      <trkpt lat="44.82963" lon="5.60731">
        <ele>835.04</ele>
        <time>2018-06-17T09:03:05Z</time>
      </trkpt>
      <trkpt lat="44.82941" lon="5.6074">
        <ele>835.05</ele>
        <time>2018-06-17T09:03:06Z</time>
      </trkpt>
      <trkpt lat="44.82919" lon="5.60751">
        <ele>834.35</ele>
        <time>2018-06-17T09:03:07Z</time>
      </trkpt>
      <trkpt lat="44.82899" lon="5.60764">
        <ele>833.44</ele>
        <time>2018-06-17T09:03:08Z</time>
      </trkpt>
      <trkpt lat="44.82878" lon="5.60779">
        <ele>832.47</ele>
        <time>2018-06-17T09:03:09Z</time>
      </trkpt>
      <trkpt lat="44.82859" lon="5.60796">
        <ele>831.47</ele>
        <time>2018-06-17T09:03:10Z</time>
      </trkpt>
      <trkpt lat="44.8284" lon="5.60815">
        <ele>831.18</ele>
        <time>2018-06-17T09:03:11Z</time>
      </trkpt>
      <trkpt lat="44.82821" lon="5.60836">
        <ele>830.39</ele>
        <time>2018-06-17T09:03:12Z</time>
      </trkpt>
      <trkpt lat="44.82804" lon="5.6086">
        <ele>829.45</ele>
        <time>2018-06-17T09:03:13Z</time>
      </trkpt>
      <trkpt lat="44.82787" lon="5.60884">
        <ele>829.17</ele>
        <time>2018-06-17T09:03:14Z</time>
      </trkpt>
      <trkpt lat="44.82772" lon="5.6091">
        <ele>829.09</ele>
        <time>2018-06-17T09:03:15Z</time>
      </trkpt>
      <trkpt lat="44.82756" lon="5.60937">
        <ele>829.06</ele>
        <time>2018-06-17T09:03:16Z</time>
      </trkpt>
      <trkpt lat="44.82745" lon="5.60966">
        <ele>830.45</ele>
        <time>2018-06-17T09:03:17Z</time>
      </trkpt>
      <trkpt lat="44.82732" lon="5.60995">
        <ele>830.87</ele>
        <time>2018-06-17T09:03:18Z</time>
      </trkpt>
      <trkpt lat="44.82721" lon="5.61026">
        <ele>831.7</ele>
        <time>2018-06-17T09:03:19Z</time>
      </trkpt>
      <trkpt lat="44.82712" lon="5.61057">
        <ele>833.34</ele>
        <time>2018-06-17T09:03:20Z</time>
      </trkpt>
      <trkpt lat="44.82705" lon="5.61089">
        <ele>833.84</ele>
        <time>2018-06-17T09:03:21Z</time>
      </trkpt>
      <trkpt lat="44.82699" lon="5.61122">
        <ele>834.69</ele>
        <time>2018-06-17T09:03:22Z</time>
      </trkpt>
      <trkpt lat="44.82693" lon="5.61155">
        <ele>835.64</ele>
        <time>2018-06-17T09:03:23Z</time>
      </trkpt>
      <trkpt lat="44.82688" lon="5.61189">
        <ele>835.93</ele>
        <time>2018-06-17T09:03:24Z</time>
      </trkpt>
      <trkpt lat="44.82682" lon="5.61222">
        <ele>836.01</ele>
        <time>2018-06-17T09:03:25Z</time>
      </trkpt>
      <trkpt lat="44.82676" lon="5.61256">
        <ele>836.04</ele>
        <time>2018-06-17T09:03:26Z</time>
      </trkpt>
      <trkpt lat="44.82669" lon="5.61288">
        <ele>836.05</ele>
        <time>2018-06-17T09:03:27Z</time>
      </trkpt>
      <trkpt lat="44.8266" lon="5.61319">
        <ele>836.05</ele>
        <time>2018-06-17T09:03:28Z</time>
      </trkpt>
      <trkpt lat="44.8265" lon="5.6135">
        <ele>835.35</ele>
        <time>2018-06-17T09:03:29Z</time>
      </trkpt>
      <trkpt lat="44.82638" lon="5.6138">
        <ele>833.74</ele>
        <time>2018-06-17T09:03:30Z</time>
      </trkpt>
      <trkpt lat="44.82625" lon="5.61408">
        <ele>833.26</ele>
        <time>2018-06-17T09:03:31Z</time>
      </trkpt>
      <trkpt lat="44.8261" lon="5.61436">
        <ele>833.11</ele>
        <time>2018-06-17T09:03:32Z</time>
      </trkpt>
      <trkpt lat="44.82594" lon="5.61461">
        <ele>832.37</ele>
        <time>2018-06-17T09:03:33Z</time>
      </trkpt>
      <trkpt lat="44.82577" lon="5.61486">
        <ele>832.14</ele>
        <time>2018-06-17T09:03:34Z</time>
      </trkpt>
      <trkpt lat="44.82559" lon="5.6151">
        <ele>831.38</ele>
        <time>2018-06-17T09:03:35Z</time>
      </trkpt>
      <trkpt lat="44.82539" lon="5.61532">
        <ele>831.15</ele>
        <time>2018-06-17T09:03:36Z</time>
      </trkpt>
      <trkpt lat="44.8252" lon="5.61553">
        <ele>831.08</ele>
        <time>2018-06-17T09:03:37Z</time>
      </trkpt>
      <trkpt lat="44.82501" lon="5.61574">
        <ele>831.06</ele>
        <time>2018-06-17T09:03:38Z</time>
      </trkpt>
      <trkpt lat="44.82482" lon="5.61596">
        <ele>831.05</ele>
        <time>2018-06-17T09:03:39Z</time>
      </trkpt>
      <trkpt lat="44.82465" lon="5.61618">
        <ele>831.05</ele>
        <time>2018-06-17T09:03:40Z</time>
      </trkpt>
      <trkpt lat="44.82448" lon="5.61641">
        <ele>829.65</ele>
        <time>2018-06-17T09:03:41Z</time>
      </trkpt>
      <trkpt lat="44.82432" lon="5.61666">
        <ele>829.23</ele>
        <time>2018-06-17T09:03:42Z</time>
      </trkpt>
      <trkpt lat="44.82418" lon="5.61692">
        <ele>828.4</ele>
        <time>2018-06-17T09:03:43Z</time>
      </trkpt>
      <trkpt lat="44.82404" lon="5.61719">
        <ele>828.16</ele>
        <time>2018-06-17T09:03:44Z</time>
      </trkpt>
      <trkpt lat="44.82391" lon="5.61748">
        <ele>828.08</ele>
        <time>2018-06-17T09:03:45Z</time>
      </trkpt>
      <trkpt lat="44.82379" lon="5.61778">
        <ele>828.06</ele>
        <time>2018-06-17T09:03:46Z</time>
      </trkpt>
      <trkpt lat="44.82368" lon="5.61809">
        <ele>828.05</ele>
        <time>2018-06-17T09:03:47Z</time>
      </trkpt>
      <trkpt lat="44.82357" lon="5.6184">
        <ele>828.05</ele>
        <time>2018-06-17T09:03:48Z</time>
      </trkpt>
      <trkpt lat="44.82349" lon="5.61874">
        <ele>828.05</ele>
        <time>2018-06-17T09:03:49Z</time>
      </trkpt>
      <trkpt lat="44.82341" lon="5.61906">
        <ele>828.75</ele>
        <time>2018-06-17T09:03:50Z</time>
      </trkpt>
      <trkpt lat="44.82333" lon="5.61939">
        <ele>828.96</ele>
        <time>2018-06-17T09:03:51Z</time>
      </trkpt>
      <trkpt lat="44.82326" lon="5.61971">
        <ele>829.02</ele>
        <time>2018-06-17T09:03:52Z</time>
      </trkpt>
      <trkpt lat="44.82318" lon="5.62002">
        <ele>829.74</ele>
        <time>2018-06-17T09:03:53Z</time>
      </trkpt>
      <trkpt lat="44.82311" lon="5.62032">
        <ele>829.26</ele>
        <time>2018-06-17T09:03:54Z</time>
      </trkpt>
      <trkpt lat="44.82304" lon="5.62061">
        <ele>829.81</ele>
        <time>2018-06-17T09:03:55Z</time>
      </trkpt>
      <trkpt lat="44.82297" lon="5.6209">
        <ele>829.28</ele>
        <time>2018-06-17T09:03:56Z</time>
      </trkpt>
      <trkpt lat="44.82291" lon="5.62119">
        <ele>829.12</ele>
        <time>2018-06-17T09:03:57Z</time>
      </trkpt>
      <trkpt lat="44.82283" lon="5.62147">
        <ele>829.07</ele>
        <time>2018-06-17T09:03:58Z</time>
      </trkpt>
      <trkpt lat="44.82276" lon="5.62174">
        <ele>829.06</ele>
        <time>2018-06-17T09:03:59Z</time>
      </trkpt>
      <trkpt lat="44.82268" lon="5.62202">
        <ele>829.05</ele>
        <time>2018-06-17T09:04:00Z</time>
      </trkpt>
      <trkpt lat="44.82259" lon="5.62228">
        <ele>828.35</ele>
        <time>2018-06-17T09:04:01Z</time>
      </trkpt>
      <trkpt lat="44.82249" lon="5.62255">
        <ele>828.14</ele>
        <time>2018-06-17T09:04:02Z</time>
      </trkpt>
      <trkpt lat="44.82237" lon="5.62281">
        <ele>827.38</ele>
        <time>2018-06-17T09:04:03Z</time>
      </trkpt>
      <trkpt lat="44.82224" lon="5.62308">
        <ele>827.85</ele>
        <time>2018-06-17T09:04:04Z</time>
      </trkpt>
      <trkpt lat="44.82211" lon="5.62334">
        <ele>827.29</ele>
        <time>2018-06-17T09:04:05Z</time>
      </trkpt>
      <trkpt lat="44.82198" lon="5.62361">
        <ele>827.12</ele>
        <time>2018-06-17T09:04:06Z</time>
      </trkpt>
      <trkpt lat="44.82184" lon="5.62387">
        <ele>827.07</ele>
        <time>2018-06-17T09:04:07Z</time>
      </trkpt>
      <trkpt lat="44.8217" lon="5.62413">
        <ele>827.06</ele>
        <time>2018-06-17T09:04:08Z</time>
      </trkpt>
      <trkpt lat="44.82155" lon="5.62438">
        <ele>827.05</ele>
        <time>2018-06-17T09:04:09Z</time>
      </trkpt>
      <trkpt lat="44.82137" lon="5.62461">
        <ele>826.35</ele>
        <time>2018-06-17T09:04:10Z</time>
      </trkpt>
      <trkpt lat="44.82118" lon="5.62482">
        <ele>826.14</ele>
        <time>2018-06-17T09:04:11Z</time>
      </trkpt>
      <trkpt lat="44.82098" lon="5.62501">
        <ele>826.08</ele>
        <time>2018-06-17T09:04:12Z</time>
      </trkpt>
      <trkpt lat="44.82077" lon="5.62518">
        <ele>826.06</ele>
        <time>2018-06-17T09:04:13Z</time>
      </trkpt>
      <trkpt lat="44.82055" lon="5.62533">
        <ele>826.05</ele>
        <time>2018-06-17T09:04:14Z</time>
      </trkpt>
      <trkpt lat="44.82033" lon="5.62547">
        <ele>826.75</ele>
        <time>2018-06-17T09:04:15Z</time>
      </trkpt>
      <trkpt lat="44.82011" lon="5.6256">
        <ele>826.96</ele>
        <time>2018-06-17T09:04:16Z</time>
      </trkpt>
      <trkpt lat="44.8199" lon="5.62574">
        <ele>826.32</ele>
        <time>2018-06-17T09:04:17Z</time>
      </trkpt>
      <trkpt lat="44.81969" lon="5.62589">
        <ele>826.83</ele>
        <time>2018-06-17T09:04:18Z</time>
      </trkpt>
      <trkpt lat="44.81948" lon="5.62606">
        <ele>826.98</ele>
        <time>2018-06-17T09:04:19Z</time>
      </trkpt>
      <trkpt lat="44.8193" lon="5.62627">
        <ele>826.33</ele>
        <time>2018-06-17T09:04:20Z</time>
      </trkpt>
      <trkpt lat="44.81912" lon="5.62649">
        <ele>826.13</ele>
        <time>2018-06-17T09:04:21Z</time>
      </trkpt>
      <trkpt lat="44.81895" lon="5.62675">
        <ele>826.77</ele>
        <time>2018-06-17T09:04:22Z</time>
      </trkpt>
      <trkpt lat="44.8188" lon="5.62703">
        <ele>826.97</ele>
        <time>2018-06-17T09:04:23Z</time>
      </trkpt>
      <trkpt lat="44.81867" lon="5.62732">
        <ele>827.02</ele>
        <time>2018-06-17T09:04:24Z</time>
      </trkpt>
      <trkpt lat="44.81854" lon="5.62761">
        <ele>827.04</ele>
        <time>2018-06-17T09:04:25Z</time>
      </trkpt>
      <trkpt lat="44.81842" lon="5.6279">
        <ele>827.05</ele>
        <time>2018-06-17T09:04:26Z</time>
      </trkpt>
      <trkpt lat="44.8183" lon="5.62818">
        <ele>827.05</ele>
        <time>2018-06-17T09:04:27Z</time>
      </trkpt>
      <trkpt lat="44.81818" lon="5.62845">
        <ele>827.05</ele>
        <time>2018-06-17T09:04:28Z</time>
      </trkpt>
      <trkpt lat="44.81806" lon="5.62871">
        <ele>827.05</ele>
        <time>2018-06-17T09:04:29Z</time>
      </trkpt>
      <trkpt lat="44.81792" lon="5.62896">
        <ele>827.05</ele>
        <time>2018-06-17T09:04:30Z</time>
      </trkpt>
      <trkpt lat="44.81777" lon="5.6292">
        <ele>826.35</ele>
        <time>2018-06-17T09:04:31Z</time>
      </trkpt>
      <trkpt lat="44.81761" lon="5.6294">
        <ele>826.84</ele>
        <time>2018-06-17T09:04:32Z</time>
      </trkpt>
      <trkpt lat="44.81744" lon="5.62959">
        <ele>826.99</ele>
        <time>2018-06-17T09:04:33Z</time>
      </trkpt>
      <trkpt lat="44.81725" lon="5.62976">
        <ele>827.73</ele>
        <time>2018-06-17T09:04:34Z</time>
      </trkpt>
      <trkpt lat="44.81706" lon="5.6299">
        <ele>827.95</ele>
        <time>2018-06-17T09:04:35Z</time>
      </trkpt>
      <trkpt lat="44.81688" lon="5.63002">
        <ele>828.02</ele>
        <time>2018-06-17T09:04:36Z</time>
      </trkpt>
      <trkpt lat="44.81669" lon="5.63012">
        <ele>828.04</ele>
        <time>2018-06-17T09:04:37Z</time>
      </trkpt>
      <trkpt lat="44.81651" lon="5.6302">
        <ele>828.05</ele>
        <time>2018-06-17T09:04:38Z</time>
      </trkpt>
      <trkpt lat="44.81632" lon="5.63027">
        <ele>828.75</ele>
        <time>2018-06-17T09:04:39Z</time>
      </trkpt>
      <trkpt lat="44.81614" lon="5.63031">
        <ele>828.96</ele>
        <time>2018-06-17T09:04:40Z</time>
      </trkpt>
      <trkpt lat="44.81593" lon="5.63033">
        <ele>829.02</ele>
        <time>2018-06-17T09:04:41Z</time>
      </trkpt>
      <trkpt lat="44.8157" lon="5.63033">
        <ele>829.04</ele>
        <time>2018-06-17T09:04:42Z</time>
      </trkpt>
      <trkpt lat="44.81547" lon="5.63032">
        <ele>829.75</ele>
        <time>2018-06-17T09:04:43Z</time>
      </trkpt>
      <trkpt lat="44.81525" lon="5.63032">
        <ele>830.66</ele>
        <time>2018-06-17T09:04:44Z</time>
      </trkpt>
      <trkpt lat="44.81503" lon="5.63028">
        <ele>830.23</ele>
        <time>2018-06-17T09:04:45Z</time>
      </trkpt>
      <trkpt lat="44.81479" lon="5.63022">
        <ele>830.1</ele>
        <time>2018-06-17T09:04:46Z</time>
      </trkpt>
      <trkpt lat="44.81455" lon="5.63009">
        <ele>830.07</ele>
        <time>2018-06-17T09:04:47Z</time>
      </trkpt>
      <trkpt lat="44.8143" lon="5.62994">
        <ele>829.35</ele>
        <time>2018-06-17T09:04:48Z</time>
      </trkpt>
      <trkpt lat="44.81406" lon="5.62978">
        <ele>829.14</ele>
        <time>2018-06-17T09:04:49Z</time>
      </trkpt>
      <trkpt lat="44.81383" lon="5.62963">
        <ele>828.38</ele>
        <time>2018-06-17T09:04:50Z</time>
      </trkpt>
      <trkpt lat="44.81362" lon="5.62948">
        <ele>827.45</ele>
        <time>2018-06-17T09:04:51Z</time>
      </trkpt>
      <trkpt lat="44.81342" lon="5.62937">
        <ele>827.17</ele>
        <time>2018-06-17T09:04:52Z</time>
      </trkpt>
      <trkpt lat="44.81323" lon="5.6293">
        <ele>827.08</ele>
        <time>2018-06-17T09:04:53Z</time>
      </trkpt>
      <trkpt lat="44.81304" lon="5.62925">
        <ele>827.06</ele>
        <time>2018-06-17T09:04:54Z</time>
      </trkpt>
      <trkpt lat="44.81285" lon="5.62922">
        <ele>827.75</ele>
        <time>2018-06-17T09:04:55Z</time>
      </trkpt>
      <trkpt lat="44.81266" lon="5.62921">
        <ele>827.96</ele>
        <time>2018-06-17T09:04:56Z</time>
      </trkpt>
      <trkpt lat="44.81247" lon="5.62921">
        <ele>826.62</ele>
        <time>2018-06-17T09:04:57Z</time>
      </trkpt>
      <trkpt lat="44.81229" lon="5.62923">
        <ele>826.22</ele>
        <time>2018-06-17T09:04:58Z</time>
      </trkpt>
      <trkpt lat="44.8121" lon="5.62931">
        <ele>826.8</ele>
        <time>2018-06-17T09:04:59Z</time>
      </trkpt>
      <trkpt lat="44.8119" lon="5.62938">
        <ele>827.67</ele>
        <time>2018-06-17T09:05:00Z</time>
      </trkpt>
      <trkpt lat="44.81168" lon="5.62946">
        <ele>827.94</ele>
        <time>2018-06-17T09:05:01Z</time>
      </trkpt>
      <trkpt lat="44.8114" lon="5.62956">
        <ele>828.72</ele>
        <time>2018-06-17T09:05:02Z</time>
      </trkpt>
      <trkpt lat="44.81115" lon="5.62962">
        <ele>828.95</ele>
        <time>2018-06-17T09:05:03Z</time>
      </trkpt>
      <trkpt lat="44.81091" lon="5.62968">
        <ele>829.02</ele>
        <time>2018-06-17T09:05:04Z</time>
      </trkpt>
      <trkpt lat="44.81067" lon="5.6297">
        <ele>829.04</ele>
        <time>2018-06-17T09:05:05Z</time>
      </trkpt>
      <trkpt lat="44.81042" lon="5.62971">
        <ele>829.05</ele>
        <time>2018-06-17T09:05:06Z</time>
      </trkpt>
      <trkpt lat="44.81019" lon="5.62969">
        <ele>829.05</ele>
        <time>2018-06-17T09:05:07Z</time>
      </trkpt>
      <trkpt lat="44.80995" lon="5.62964">
        <ele>829.05</ele>
        <time>2018-06-17T09:05:08Z</time>
      </trkpt>
      <trkpt lat="44.8097" lon="5.62954">
        <ele>829.05</ele>
        <time>2018-06-17T09:05:09Z</time>
      </trkpt>
      <trkpt lat="44.80948" lon="5.6294">
        <ele>829.05</ele>
        <time>2018-06-17T09:05:10Z</time>
      </trkpt>
      <trkpt lat="44.80927" lon="5.62925">
        <ele>829.75</ele>
        <time>2018-06-17T09:05:11Z</time>
      </trkpt>
      <trkpt lat="44.80906" lon="5.62912">
        <ele>831.36</ele>
        <time>2018-06-17T09:05:12Z</time>
      </trkpt>
      <trkpt lat="44.80882" lon="5.62901">
        <ele>831.14</ele>
        <time>2018-06-17T09:05:13Z</time>
      </trkpt>
      <trkpt lat="44.80858" lon="5.62894">
        <ele>831.08</ele>
        <time>2018-06-17T09:05:14Z</time>
      </trkpt>
      <trkpt lat="44.80833" lon="5.6289">
        <ele>830.36</ele>
        <time>2018-06-17T09:05:15Z</time>
      </trkpt>
      <trkpt lat="44.80808" lon="5.62889">
        <ele>830.84</ele>
        <time>2018-06-17T09:05:16Z</time>
      </trkpt>
      <trkpt lat="44.80783" lon="5.6289">
        <ele>830.99</ele>
        <time>2018-06-17T09:05:17Z</time>
      </trkpt>
      <trkpt lat="44.80758" lon="5.62895">
        <ele>832.43</ele>
        <time>2018-06-17T09:05:18Z</time>
      </trkpt>
      <trkpt lat="44.80733" lon="5.62903">
        <ele>832.86</ele>
        <time>2018-06-17T09:05:19Z</time>
      </trkpt>
      <trkpt lat="44.80709" lon="5.62914">
        <ele>834.39</ele>
        <time>2018-06-17T09:05:20Z</time>
      </trkpt>
      <trkpt lat="44.80686" lon="5.62926">
        <ele>834.85</ele>
        <time>2018-06-17T09:05:21Z</time>
      </trkpt>
      <trkpt lat="44.80662" lon="5.62939">
        <ele>835.69</ele>
        <time>2018-06-17T09:05:22Z</time>
      </trkpt>
      <trkpt lat="44.80639" lon="5.6295">
        <ele>836.64</ele>
        <time>2018-06-17T09:05:23Z</time>
      </trkpt>
      <trkpt lat="44.80615" lon="5.62958">
        <ele>837.63</ele>
        <time>2018-06-17T09:05:24Z</time>
      </trkpt>
      <trkpt lat="44.80591" lon="5.62963">
        <ele>837.92</ele>
        <time>2018-06-17T09:05:25Z</time>
      </trkpt>
      <trkpt lat="44.80566" lon="5.62966">
        <ele>838.01</ele>
        <time>2018-06-17T09:05:26Z</time>
      </trkpt>
      <trkpt lat="44.80541" lon="5.62967">
        <ele>839.44</ele>
        <time>2018-06-17T09:05:27Z</time>
      </trkpt>
      <trkpt lat="44.80516" lon="5.62968">
        <ele>839.87</ele>
        <time>2018-06-17T09:05:28Z</time>
      </trkpt>
      <trkpt lat="44.80492" lon="5.62972">
        <ele>839.99</ele>
        <time>2018-06-17T09:05:29Z</time>
      </trkpt>
      <trkpt lat="44.80468" lon="5.6298">
        <ele>840.73</ele>
        <time>2018-06-17T09:05:30Z</time>
      </trkpt>
      <trkpt lat="44.80446" lon="5.62993">
        <ele>840.25</ele>
        <time>2018-06-17T09:05:31Z</time>
      </trkpt>
      <trkpt lat="44.80425" lon="5.6301">
        <ele>840.11</ele>
        <time>2018-06-17T09:05:32Z</time>
      </trkpt>
      <trkpt lat="44.80405" lon="5.63031">
        <ele>840.77</ele>
        <time>2018-06-17T09:05:33Z</time>
      </trkpt>
      <trkpt lat="44.80388" lon="5.63055">
        <ele>840.96</ele>
        <time>2018-06-17T09:05:34Z</time>
      </trkpt>
      <trkpt lat="44.80374" lon="5.63083">
        <ele>841.72</ele>
        <time>2018-06-17T09:05:35Z</time>
      </trkpt>
      <trkpt lat="44.80363" lon="5.63113">
        <ele>841.25</ele>
        <time>2018-06-17T09:05:36Z</time>
      </trkpt>
      <trkpt lat="44.80354" lon="5.63147">
        <ele>841.81</ele>
        <time>2018-06-17T09:05:37Z</time>
      </trkpt>
      <trkpt lat="44.80348" lon="5.63181">
        <ele>843.38</ele>
        <time>2018-06-17T09:05:38Z</time>
      </trkpt>
      <trkpt lat="44.80346" lon="5.63216">
        <ele>843.85</ele>
        <time>2018-06-17T09:05:39Z</time>
      </trkpt>
      <trkpt lat="44.80347" lon="5.63252">
        <ele>844.69</ele>
        <time>2018-06-17T09:05:40Z</time>
      </trkpt>
      <trkpt lat="44.80351" lon="5.63287">
        <ele>844.94</ele>
        <time>2018-06-17T09:05:41Z</time>
      </trkpt>
      <trkpt lat="44.80356" lon="5.63321">
        <ele>845.02</ele>
        <time>2018-06-17T09:05:42Z</time>
      </trkpt>
      <trkpt lat="44.80363" lon="5.63355">
        <ele>845.04</ele>
        <time>2018-06-17T09:05:43Z</time>
      </trkpt>
      <trkpt lat="44.80369" lon="5.63389">
        <ele>844.35</ele>
        <time>2018-06-17T09:05:44Z</time>
      </trkpt>
      <trkpt lat="44.80371" lon="5.63424">
        <ele>843.44</ele>
        <time>2018-06-17T09:05:45Z</time>
      </trkpt>
      <trkpt lat="44.80371" lon="5.63459">
        <ele>842.47</ele>
        <time>2018-06-17T09:05:46Z</time>
      </trkpt>
      <trkpt lat="44.80368" lon="5.63493">
        <ele>842.17</ele>
        <time>2018-06-17T09:05:47Z</time>
      </trkpt>
      <trkpt lat="44.80363" lon="5.63527">
        <ele>842.09</ele>
        <time>2018-06-17T09:05:48Z</time>
      </trkpt>
      <trkpt lat="44.80355" lon="5.6356">
        <ele>842.06</ele>
        <time>2018-06-17T09:05:49Z</time>
      </trkpt>
      <trkpt lat="44.80344" lon="5.63592">
        <ele>842.05</ele>
        <time>2018-06-17T09:05:50Z</time>
      </trkpt>
      <trkpt lat="44.80331" lon="5.63621">
        <ele>842.05</ele>
        <time>2018-06-17T09:05:51Z</time>
      </trkpt>
      <trkpt lat="44.80315" lon="5.63649">
        <ele>842.05</ele>
        <time>2018-06-17T09:05:52Z</time>
      </trkpt>
      <trkpt lat="44.80296" lon="5.63674">
        <ele>842.05</ele>
        <time>2018-06-17T09:05:53Z</time>
      </trkpt>
      <trkpt lat="44.80276" lon="5.63696">
        <ele>842.05</ele>
        <time>2018-06-17T09:05:54Z</time>
      </trkpt>
      <trkpt lat="44.80255" lon="5.63715">
        <ele>842.05</ele>
        <time>2018-06-17T09:05:55Z</time>
      </trkpt>
      <trkpt lat="44.80232" lon="5.63731">
        <ele>842.05</ele>
        <time>2018-06-17T09:05:56Z</time>
      </trkpt>
      <trkpt lat="44.80209" lon="5.63744">
        <ele>842.05</ele>
        <time>2018-06-17T09:05:57Z</time>
      </trkpt>
      <trkpt lat="44.80184" lon="5.63749">
        <ele>842.05</ele>
        <time>2018-06-17T09:05:58Z</time>
      </trkpt>
      <trkpt lat="44.80159" lon="5.63752">
        <ele>842.05</ele>
        <time>2018-06-17T09:05:59Z</time>
      </trkpt>
      <trkpt lat="44.80134" lon="5.63751">
        <ele>842.05</ele>
        <time>2018-06-17T09:06:00Z</time>
      </trkpt>
      <trkpt lat="44.80109" lon="5.63746">
        <ele>842.75</ele>
        <time>2018-06-17T09:06:01Z</time>
      </trkpt>
      <trkpt lat="44.80084" lon="5.63737">
        <ele>842.26</ele>
        <time>2018-06-17T09:06:02Z</time>
      </trkpt>
      <trkpt lat="44.80059" lon="5.63724">
        <ele>842.11</ele>
        <time>2018-06-17T09:06:03Z</time>
      </trkpt>
      <trkpt lat="44.80036" lon="5.63708">
        <ele>842.07</ele>
        <time>2018-06-17T09:06:04Z</time>
      </trkpt>
      <trkpt lat="44.80015" lon="5.6369">
        <ele>842.05</ele>
        <time>2018-06-17T09:06:05Z</time>
      </trkpt>
      <trkpt lat="44.79994" lon="5.63668">
        <ele>842.75</ele>
        <time>2018-06-17T09:06:06Z</time>
      </trkpt>
      <trkpt lat="44.79975" lon="5.63646">
        <ele>842.96</ele>
        <time>2018-06-17T09:06:07Z</time>
      </trkpt>
      <trkpt lat="44.79955" lon="5.63625">
        <ele>843.02</ele>
        <time>2018-06-17T09:06:08Z</time>
      </trkpt>
      <trkpt lat="44.79935" lon="5.63606">
        <ele>843.74</ele>
        <time>2018-06-17T09:06:09Z</time>
      </trkpt>
      <trkpt lat="44.79914" lon="5.63589">
        <ele>843.96</ele>
        <time>2018-06-17T09:06:10Z</time>
      </trkpt>
      <trkpt lat="44.79891" lon="5.63575">
        <ele>844.02</ele>
        <time>2018-06-17T09:06:11Z</time>
      </trkpt>
      <trkpt lat="44.79867" lon="5.63564">
        <ele>844.74</ele>
        <time>2018-06-17T09:06:12Z</time>
      </trkpt>
      <trkpt lat="44.79843" lon="5.63557">
        <ele>845.66</ele>
        <time>2018-06-17T09:06:13Z</time>
      </trkpt>
      <trkpt lat="44.79819" lon="5.63553">
        <ele>845.93</ele>
        <time>2018-06-17T09:06:14Z</time>
      </trkpt>
      <trkpt lat="44.79794" lon="5.6355">
        <ele>846.71</ele>
        <time>2018-06-17T09:06:15Z</time>
      </trkpt>
      <trkpt lat="44.79769" lon="5.63553">
        <ele>846.95</ele>
        <time>2018-06-17T09:06:16Z</time>
      </trkpt>
      <trkpt lat="44.79745" lon="5.63559">
        <ele>847.02</ele>
        <time>2018-06-17T09:06:17Z</time>
      </trkpt>
      <trkpt lat="44.7972" lon="5.6357">
        <ele>847.04</ele>
        <time>2018-06-17T09:06:18Z</time>
      </trkpt>
      <trkpt lat="44.79696" lon="5.63581">
        <ele>847.05</ele>
        <time>2018-06-17T09:06:19Z</time>
      </trkpt>
      <trkpt lat="44.79672" lon="5.63591">
        <ele>846.35</ele>
        <time>2018-06-17T09:06:20Z</time>
      </trkpt>
      <trkpt lat="44.79648" lon="5.63599">
        <ele>846.14</ele>
        <time>2018-06-17T09:06:21Z</time>
      </trkpt>
      <trkpt lat="44.79624" lon="5.63606">
        <ele>846.08</ele>
        <time>2018-06-17T09:06:22Z</time>
      </trkpt>
      <trkpt lat="44.796" lon="5.63611">
        <ele>846.06</ele>
        <time>2018-06-17T09:06:23Z</time>
      </trkpt>
      <trkpt lat="44.79574" lon="5.63606">
        <ele>846.05</ele>
        <time>2018-06-17T09:06:24Z</time>
      </trkpt>
      <trkpt lat="44.79548" lon="5.63601">
        <ele>845.35</ele>
        <time>2018-06-17T09:06:25Z</time>
      </trkpt>
      <trkpt lat="44.79523" lon="5.63594">
        <ele>845.14</ele>
        <time>2018-06-17T09:06:26Z</time>
      </trkpt>
      <trkpt lat="44.79499" lon="5.63582">
        <ele>845.08</ele>
        <time>2018-06-17T09:06:27Z</time>
      </trkpt>
      <trkpt lat="44.79475" lon="5.63567">
        <ele>844.36</ele>
        <time>2018-06-17T09:06:28Z</time>
      </trkpt>
      <trkpt lat="44.79452" lon="5.63552">
        <ele>842.74</ele>
        <time>2018-06-17T09:06:29Z</time>
      </trkpt>
      <trkpt lat="44.79429" lon="5.63536">
        <ele>842.96</ele>
        <time>2018-06-17T09:06:30Z</time>
      </trkpt>
      <trkpt lat="44.79407" lon="5.6352">
        <ele>842.32</ele>
        <time>2018-06-17T09:06:31Z</time>
      </trkpt>
      <trkpt lat="44.79384" lon="5.63504">
        <ele>841.43</ele>
        <time>2018-06-17T09:06:32Z</time>
      </trkpt>
      <trkpt lat="44.79362" lon="5.63488">
        <ele>840.46</ele>
        <time>2018-06-17T09:06:33Z</time>
      </trkpt>
      <trkpt lat="44.7934" lon="5.63473">
        <ele>840.17</ele>
        <time>2018-06-17T09:06:34Z</time>
      </trkpt>
      <trkpt lat="44.79317" lon="5.63457">
        <ele>839.39</ele>
        <time>2018-06-17T09:06:35Z</time>
      </trkpt>
      <trkpt lat="44.79294" lon="5.63441">
        <ele>838.45</ele>
        <time>2018-06-17T09:06:36Z</time>
      </trkpt>
      <trkpt lat="44.79271" lon="5.63426">
        <ele>838.17</ele>
        <time>2018-06-17T09:06:37Z</time>
      </trkpt>
      <trkpt lat="44.79248" lon="5.63411">
        <ele>837.39</ele>
        <time>2018-06-17T09:06:38Z</time>
      </trkpt>
      <trkpt lat="44.79224" lon="5.63397">
        <ele>835.75</ele>
        <time>2018-06-17T09:06:39Z</time>
      </trkpt>
      <trkpt lat="44.792" lon="5.63385">
        <ele>834.56</ele>
        <time>2018-06-17T09:06:40Z</time>
      </trkpt>
      <trkpt lat="44.79175" lon="5.63378">
        <ele>832.8</ele>
        <time>2018-06-17T09:06:41Z</time>
      </trkpt>
      <trkpt lat="44.7915" lon="5.6337">
        <ele>831.57</ele>
        <time>2018-06-17T09:06:42Z</time>
      </trkpt>
      <trkpt lat="44.79123" lon="5.63367">
        <ele>830.51</ele>
        <time>2018-06-17T09:06:43Z</time>
      </trkpt>
      <trkpt lat="44.79097" lon="5.63366">
        <ele>829.49</ele>
        <time>2018-06-17T09:06:44Z</time>
      </trkpt>
      <trkpt lat="44.79071" lon="5.63368">
        <ele>828.48</ele>
        <time>2018-06-17T09:06:45Z</time>
      </trkpt>
      <trkpt lat="44.79044" lon="5.63371">
        <ele>827.48</ele>
        <time>2018-06-17T09:06:46Z</time>
      </trkpt>
      <trkpt lat="44.79018" lon="5.63378">
        <ele>826.48</ele>
        <time>2018-06-17T09:06:47Z</time>
      </trkpt>
      <trkpt lat="44.78992" lon="5.63387">
        <ele>824.78</ele>
        <time>2018-06-17T09:06:48Z</time>
      </trkpt>
      <trkpt lat="44.78967" lon="5.63399">
        <ele>824.27</ele>
        <time>2018-06-17T09:06:49Z</time>
      </trkpt>
      <trkpt lat="44.78943" lon="5.63415">
        <ele>822.71</ele>
        <time>2018-06-17T09:06:50Z</time>
      </trkpt>
      <trkpt lat="44.7892" lon="5.63433">
        <ele>821.55</ele>
        <time>2018-06-17T09:06:51Z</time>
      </trkpt>
      <trkpt lat="44.78898" lon="5.63453">
        <ele>820.5</ele>
        <time>2018-06-17T09:06:52Z</time>
      </trkpt>
      <trkpt lat="44.78876" lon="5.63476">
        <ele>820.18</ele>
        <time>2018-06-17T09:06:53Z</time>
      </trkpt>
      <trkpt lat="44.78856" lon="5.63501">
        <ele>820.09</ele>
        <time>2018-06-17T09:06:54Z</time>
      </trkpt>
      <trkpt lat="44.78837" lon="5.63528">
        <ele>819.36</ele>
        <time>2018-06-17T09:06:55Z</time>
      </trkpt>
      <trkpt lat="44.78819" lon="5.63556">
        <ele>819.84</ele>
        <time>2018-06-17T09:06:56Z</time>
      </trkpt>
      <trkpt lat="44.78802" lon="5.63586">
        <ele>819.99</ele>
        <time>2018-06-17T09:06:57Z</time>
      </trkpt>
      <trkpt lat="44.78787" lon="5.63618">
        <ele>820.03</ele>
        <time>2018-06-17T09:06:58Z</time>
      </trkpt>
      <trkpt lat="44.78774" lon="5.6365">
        <ele>820.74</ele>
        <time>2018-06-17T09:06:59Z</time>
      </trkpt>
      <trkpt lat="44.78764" lon="5.63684">
        <ele>821.66</ele>
        <time>2018-06-17T09:07:00Z</time>
      </trkpt>
      <trkpt lat="44.78756" lon="5.63718">
        <ele>821.93</ele>
        <time>2018-06-17T09:07:01Z</time>
      </trkpt>
      <trkpt lat="44.78749" lon="5.63753">
        <ele>822.01</ele>
        <time>2018-06-17T09:07:02Z</time>
      </trkpt>
      <trkpt lat="44.78744" lon="5.63789">
        <ele>821.34</ele>
        <time>2018-06-17T09:07:03Z</time>
      </trkpt>
      <trkpt lat="44.78741" lon="5.63825">
        <ele>821.84</ele>
        <time>2018-06-17T09:07:04Z</time>
      </trkpt>
      <trkpt lat="44.78739" lon="5.63861">
        <ele>822.69</ele>
        <time>2018-06-17T09:07:05Z</time>
      </trkpt>
      <trkpt lat="44.78739" lon="5.63897">
        <ele>823.64</ele>
        <time>2018-06-17T09:07:06Z</time>
      </trkpt>
      <trkpt lat="44.78741" lon="5.63932">
        <ele>823.93</ele>
        <time>2018-06-17T09:07:07Z</time>
      </trkpt>
      <trkpt lat="44.78745" lon="5.63968">
        <ele>824.71</ele>
        <time>2018-06-17T09:07:08Z</time>
      </trkpt>
      <trkpt lat="44.7875" lon="5.64004">
        <ele>824.95</ele>
        <time>2018-06-17T09:07:09Z</time>
      </trkpt>
      <trkpt lat="44.78755" lon="5.64039">
        <ele>825.72</ele>
        <time>2018-06-17T09:07:10Z</time>
      </trkpt>
      <trkpt lat="44.7876" lon="5.64075">
        <ele>825.95</ele>
        <time>2018-06-17T09:07:11Z</time>
      </trkpt>
      <trkpt lat="44.78764" lon="5.64109">
        <ele>826.02</ele>
        <time>2018-06-17T09:07:12Z</time>
      </trkpt>
      <trkpt lat="44.78768" lon="5.64143">
        <ele>826.74</ele>
        <time>2018-06-17T09:07:13Z</time>
      </trkpt>
      <trkpt lat="44.78771" lon="5.64178">
        <ele>826.96</ele>
        <time>2018-06-17T09:07:14Z</time>
      </trkpt>
      <trkpt lat="44.7877" lon="5.64213">
        <ele>826.32</ele>
        <time>2018-06-17T09:07:15Z</time>
      </trkpt>
      <trkpt lat="44.78768" lon="5.64249">
        <ele>825.43</ele>
        <time>2018-06-17T09:07:16Z</time>
      </trkpt>
      <trkpt lat="44.78765" lon="5.64284">
        <ele>825.86</ele>
        <time>2018-06-17T09:07:17Z</time>
      </trkpt>
      <trkpt lat="44.7876" lon="5.64318">
        <ele>825.29</ele>
        <time>2018-06-17T09:07:18Z</time>
      </trkpt>
      <trkpt lat="44.78753" lon="5.64352">
        <ele>825.12</ele>
        <time>2018-06-17T09:07:19Z</time>
      </trkpt>
      <trkpt lat="44.78745" lon="5.64385">
        <ele>825.07</ele>
        <time>2018-06-17T09:07:20Z</time>
      </trkpt>
      <trkpt lat="44.78735" lon="5.64418">
        <ele>825.06</ele>
        <time>2018-06-17T09:07:21Z</time>
      </trkpt>
      <trkpt lat="44.78725" lon="5.6445">
        <ele>825.05</ele>
        <time>2018-06-17T09:07:22Z</time>
      </trkpt>
      <trkpt lat="44.78713" lon="5.64482">
        <ele>825.75</ele>
        <time>2018-06-17T09:07:23Z</time>
      </trkpt>
      <trkpt lat="44.787" lon="5.64512">
        <ele>826.66</ele>
        <time>2018-06-17T09:07:24Z</time>
      </trkpt>
      <trkpt lat="44.78685" lon="5.6454">
        <ele>827.63</ele>
        <time>2018-06-17T09:07:25Z</time>
      </trkpt>
      <trkpt lat="44.78667" lon="5.64566">
        <ele>828.62</ele>
        <time>2018-06-17T09:07:26Z</time>
      </trkpt>
      <trkpt lat="44.78649" lon="5.64589">
        <ele>829.62</ele>
        <time>2018-06-17T09:07:27Z</time>
      </trkpt>
      <trkpt lat="44.78629" lon="5.64611">
        <ele>830.62</ele>
        <time>2018-06-17T09:07:28Z</time>
      </trkpt>
      <trkpt lat="44.78608" lon="5.64631">
        <ele>831.62</ele>
        <time>2018-06-17T09:07:29Z</time>
      </trkpt>
      <trkpt lat="44.78586" lon="5.64649">
        <ele>832.62</ele>
        <time>2018-06-17T09:07:30Z</time>
      </trkpt>
      <trkpt lat="44.78564" lon="5.64665">
        <ele>833.62</ele>
        <time>2018-06-17T09:07:31Z</time>
      </trkpt>
      <trkpt lat="44.7854" lon="5.64679">
        <ele>834.62</ele>
        <time>2018-06-17T09:07:32Z</time>
      </trkpt>
      <trkpt lat="44.78516" lon="5.64691">
        <ele>834.92</ele>
        <time>2018-06-17T09:07:33Z</time>
      </trkpt>
      <trkpt lat="44.78491" lon="5.647">
        <ele>835.01</ele>
        <time>2018-06-17T09:07:34Z</time>
      </trkpt>
      <trkpt lat="44.78465" lon="5.64706">
        <ele>835.74</ele>
        <time>2018-06-17T09:07:35Z</time>
      </trkpt>
      <trkpt lat="44.7844" lon="5.6471">
        <ele>835.96</ele>
        <time>2018-06-17T09:07:36Z</time>
      </trkpt>
      <trkpt lat="44.78413" lon="5.64711">
        <ele>836.02</ele>
        <time>2018-06-17T09:07:37Z</time>
      </trkpt>
      <trkpt lat="44.78388" lon="5.64709">
        <ele>835.34</ele>
        <time>2018-06-17T09:07:38Z</time>
      </trkpt>
      <trkpt lat="44.78362" lon="5.64706">
        <ele>835.14</ele>
        <time>2018-06-17T09:07:39Z</time>
      </trkpt>
      <trkpt lat="44.78336" lon="5.64699">
        <ele>835.08</ele>
        <time>2018-06-17T09:07:40Z</time>
      </trkpt>
      <trkpt lat="44.78311" lon="5.6469">
        <ele>835.76</ele>
        <time>2018-06-17T09:07:41Z</time>
      </trkpt>
      <trkpt lat="44.78286" lon="5.64679">
        <ele>836.66</ele>
        <time>2018-06-17T09:07:42Z</time>
      </trkpt>
      <trkpt lat="44.78262" lon="5.64667">
        <ele>836.93</ele>
        <time>2018-06-17T09:07:43Z</time>
      </trkpt>
      <trkpt lat="44.78238" lon="5.64656">
        <ele>837.01</ele>
        <time>2018-06-17T09:07:44Z</time>
      </trkpt>
      <trkpt lat="44.78214" lon="5.64645">
        <ele>837.04</ele>
        <time>2018-06-17T09:07:45Z</time>
      </trkpt>
      <trkpt lat="44.78189" lon="5.64636">
        <ele>837.05</ele>
        <time>2018-06-17T09:07:46Z</time>
      </trkpt>
      <trkpt lat="44.78165" lon="5.64627">
        <ele>837.75</ele>
        <time>2018-06-17T09:07:47Z</time>
      </trkpt>
      <trkpt lat="44.7814" lon="5.6462">
        <ele>837.96</ele>
        <time>2018-06-17T09:07:48Z</time>
      </trkpt>
      <trkpt lat="44.78115" lon="5.64612">
        <ele>839.42</ele>
        <time>2018-06-17T09:07:49Z</time>
      </trkpt>
      <trkpt lat="44.7809" lon="5.64602">
        <ele>839.86</ele>
        <time>2018-06-17T09:07:50Z</time>
      </trkpt>
      <trkpt lat="44.78066" lon="5.64593">
        <ele>839.99</ele>
        <time>2018-06-17T09:07:51Z</time>
      </trkpt>
      <trkpt lat="44.78043" lon="5.64582">
        <ele>839.33</ele>
        <time>2018-06-17T09:07:52Z</time>
      </trkpt>
      <trkpt lat="44.7802" lon="5.64571">
        <ele>839.83</ele>
        <time>2018-06-17T09:07:53Z</time>
      </trkpt>
      <trkpt lat="44.77998" lon="5.64559">
        <ele>839.98</ele>
        <time>2018-06-17T09:07:54Z</time>
      </trkpt>
      <trkpt lat="44.77977" lon="5.64545">
        <ele>840.03</ele>
        <time>2018-06-17T09:07:55Z</time>
      </trkpt>
      <trkpt lat="44.77955" lon="5.64528">
        <ele>840.04</ele>
        <time>2018-06-17T09:07:56Z</time>
      </trkpt>
      <trkpt lat="44.77935" lon="5.6451">
        <ele>839.35</ele>
        <time>2018-06-17T09:07:57Z</time>
      </trkpt>
      <trkpt lat="44.77916" lon="5.64491">
        <ele>839.14</ele>
        <time>2018-06-17T09:07:58Z</time>
      </trkpt>
      <trkpt lat="44.77913" lon="5.64465">
        <ele>839.97</ele>
        <time>2018-06-17T09:08:00Z</time>
      </trkpt>
      <trkpt lat="44.77888" lon="5.64464">
        <ele>842.56</ele>
        <time>2018-06-17T09:08:02Z</time>
      </trkpt>
      <trkpt lat="44.77863" lon="5.6448">
        <ele>842.1</ele>
        <time>2018-06-17T09:08:04Z</time>
      </trkpt>
      <trkpt lat="44.77851" lon="5.64502">
        <ele>843.46</ele>
        <time>2018-06-17T09:08:05Z</time>
      </trkpt>
      <trkpt lat="44.77845" lon="5.64528">
        <ele>844.57</ele>
        <time>2018-06-17T09:08:06Z</time>
      </trkpt>
      <trkpt lat="44.77842" lon="5.64558">
        <ele>844.91</ele>
        <time>2018-06-17T09:08:07Z</time>
      </trkpt>
      <trkpt lat="44.77843" lon="5.64595">
        <ele>844.31</ele>
        <time>2018-06-17T09:08:08Z</time>
      </trkpt>
      <trkpt lat="44.77902" lon="5.64637">
        <ele>845.53</ele>
        <time>2018-06-17T09:08:09Z</time>
      </trkpt>
      <trkpt lat="44.77919" lon="5.64668">
        <ele>845.89</ele>
        <time>2018-06-17T09:08:10Z</time>
      </trkpt>
      <trkpt lat="44.77934" lon="5.64697">
        <ele>845.3</ele>
        <time>2018-06-17T09:08:11Z</time>
      </trkpt>
      <trkpt lat="44.7795" lon="5.64725">
        <ele>845.12</ele>
        <time>2018-06-17T09:08:12Z</time>
      </trkpt>
      <trkpt lat="44.7797" lon="5.64748">
        <ele>845.07</ele>
        <time>2018-06-17T09:08:13Z</time>
      </trkpt>
      <trkpt lat="44.77991" lon="5.6477">
        <ele>845.76</ele>
        <time>2018-06-17T09:08:14Z</time>
      </trkpt>
      <trkpt lat="44.78014" lon="5.64786">
        <ele>845.96</ele>
        <time>2018-06-17T09:08:15Z</time>
      </trkpt>
      <trkpt lat="44.78034" lon="5.64803">
        <ele>846.02</ele>
        <time>2018-06-17T09:08:16Z</time>
      </trkpt>
      <trkpt lat="44.7805" lon="5.64823">
        <ele>846.74</ele>
        <time>2018-06-17T09:08:17Z</time>
      </trkpt>
      <trkpt lat="44.78067" lon="5.64843">
        <ele>846.96</ele>
        <time>2018-06-17T09:08:18Z</time>
      </trkpt>
      <trkpt lat="44.78074" lon="5.64871">
        <ele>847.02</ele>
        <time>2018-06-17T09:08:19Z</time>
      </trkpt>
      <trkpt lat="44.78081" lon="5.64897">
        <ele>845.64</ele>
        <time>2018-06-17T09:08:20Z</time>
      </trkpt>
      <trkpt lat="44.78083" lon="5.6493">
        <ele>844.53</ele>
        <time>2018-06-17T09:08:21Z</time>
      </trkpt>
      <trkpt lat="44.78083" lon="5.64963">
        <ele>844.19</ele>
        <time>2018-06-17T09:08:22Z</time>
      </trkpt>
      <trkpt lat="44.78072" lon="5.64999">
        <ele>844.79</ele>
        <time>2018-06-17T09:08:23Z</time>
      </trkpt>
      <trkpt lat="44.78068" lon="5.6503">
        <ele>844.97</ele>
        <time>2018-06-17T09:08:24Z</time>
      </trkpt>
      <trkpt lat="44.78063" lon="5.65062">
        <ele>845.03</ele>
        <time>2018-06-17T09:08:25Z</time>
      </trkpt>
      <trkpt lat="44.78057" lon="5.65092">
        <ele>845.04</ele>
        <time>2018-06-17T09:08:26Z</time>
      </trkpt>
      <trkpt lat="44.78048" lon="5.65122">
        <ele>844.35</ele>
        <time>2018-06-17T09:08:27Z</time>
      </trkpt>
      <trkpt lat="44.78036" lon="5.65151">
        <ele>844.14</ele>
        <time>2018-06-17T09:08:28Z</time>
      </trkpt>
      <trkpt lat="44.78021" lon="5.65177">
        <ele>844.78</ele>
        <time>2018-06-17T09:08:29Z</time>
      </trkpt>
      <trkpt lat="44.78003" lon="5.652">
        <ele>844.97</ele>
        <time>2018-06-17T09:08:30Z</time>
      </trkpt>
      <trkpt lat="44.77984" lon="5.65221">
        <ele>845.02</ele>
        <time>2018-06-17T09:08:31Z</time>
      </trkpt>
      <trkpt lat="44.77963" lon="5.65239">
        <ele>845.04</ele>
        <time>2018-06-17T09:08:32Z</time>
      </trkpt>
      <trkpt lat="44.7794" lon="5.65252">
        <ele>845.05</ele>
        <time>2018-06-17T09:08:33Z</time>
      </trkpt>
      <trkpt lat="44.77917" lon="5.65264">
        <ele>845.75</ele>
        <time>2018-06-17T09:08:34Z</time>
      </trkpt>
      <trkpt lat="44.77895" lon="5.65277">
        <ele>845.96</ele>
        <time>2018-06-17T09:08:35Z</time>
      </trkpt>
      <trkpt lat="44.77872" lon="5.65287">
        <ele>846.02</ele>
        <time>2018-06-17T09:08:36Z</time>
      </trkpt>
      <trkpt lat="44.77848" lon="5.6529">
        <ele>847.44</ele>
        <time>2018-06-17T09:08:37Z</time>
      </trkpt>
      <trkpt lat="44.77824" lon="5.6529">
        <ele>847.17</ele>
        <time>2018-06-17T09:08:38Z</time>
      </trkpt>
      <trkpt lat="44.77799" lon="5.65288">
        <ele>847.78</ele>
        <time>2018-06-17T09:08:39Z</time>
      </trkpt>
      <trkpt lat="44.77774" lon="5.65285">
        <ele>848.67</ele>
        <time>2018-06-17T09:08:40Z</time>
      </trkpt>
      <trkpt lat="44.77749" lon="5.65282">
        <ele>849.64</ele>
        <time>2018-06-17T09:08:41Z</time>
      </trkpt>
      <trkpt lat="44.77723" lon="5.65279">
        <ele>850.62</ele>
        <time>2018-06-17T09:08:42Z</time>
      </trkpt>
      <trkpt lat="44.77698" lon="5.65275">
        <ele>850.92</ele>
        <time>2018-06-17T09:08:43Z</time>
      </trkpt>
      <trkpt lat="44.77674" lon="5.6527">
        <ele>851.71</ele>
        <time>2018-06-17T09:08:44Z</time>
      </trkpt>
      <trkpt lat="44.7765" lon="5.65264">
        <ele>851.25</ele>
        <time>2018-06-17T09:08:45Z</time>
      </trkpt>
      <trkpt lat="44.77626" lon="5.65261">
        <ele>851.11</ele>
        <time>2018-06-17T09:08:46Z</time>
      </trkpt>
      <trkpt lat="44.77603" lon="5.6526">
        <ele>851.77</ele>
        <time>2018-06-17T09:08:47Z</time>
      </trkpt>
      <trkpt lat="44.77581" lon="5.65259">
        <ele>851.96</ele>
        <time>2018-06-17T09:08:48Z</time>
      </trkpt>
      <trkpt lat="44.7756" lon="5.65258">
        <ele>852.72</ele>
        <time>2018-06-17T09:08:49Z</time>
      </trkpt>
      <trkpt lat="44.77541" lon="5.65258">
        <ele>852.95</ele>
        <time>2018-06-17T09:08:50Z</time>
      </trkpt>
      <trkpt lat="44.77508" lon="5.65259">
        <ele>853.74</ele>
        <time>2018-06-17T09:08:52Z</time>
      </trkpt>
      <trkpt lat="44.77481" lon="5.65273">
        <ele>854.02</ele>
        <time>2018-06-17T09:08:54Z</time>
      </trkpt>
      <trkpt lat="44.77467" lon="5.65302">
        <ele>855.66</ele>
        <time>2018-06-17T09:08:56Z</time>
      </trkpt>
      <trkpt lat="44.77481" lon="5.65357">
        <ele>852.51</ele>
        <time>2018-06-17T09:08:58Z</time>
      </trkpt>
      <trkpt lat="44.77491" lon="5.65386">
        <ele>850.09</ele>
        <time>2018-06-17T09:08:59Z</time>
      </trkpt>
      <trkpt lat="44.77513" lon="5.65412">
        <ele>849.36</ele>
        <time>2018-06-17T09:09:00Z</time>
      </trkpt>
      <trkpt lat="44.77551" lon="5.65428">
        <ele>850.54</ele>
        <time>2018-06-17T09:09:01Z</time>
      </trkpt>
      <trkpt lat="44.77574" lon="5.65453">
        <ele>851.6</ele>
        <time>2018-06-17T09:09:02Z</time>
      </trkpt>
      <trkpt lat="44.77593" lon="5.65477">
        <ele>852.61</ele>
        <time>2018-06-17T09:09:03Z</time>
      </trkpt>
      <trkpt lat="44.77613" lon="5.65501">
        <ele>853.62</ele>
        <time>2018-06-17T09:09:04Z</time>
      </trkpt>
      <trkpt lat="44.77632" lon="5.65528">
        <ele>853.92</ele>
        <time>2018-06-17T09:09:05Z</time>
      </trkpt>
      <trkpt lat="44.77645" lon="5.65554">
        <ele>854.01</ele>
        <time>2018-06-17T09:09:06Z</time>
      </trkpt>
      <trkpt lat="44.77654" lon="5.65598">
        <ele>854.04</ele>
        <time>2018-06-17T09:09:07Z</time>
      </trkpt>
      <trkpt lat="44.77664" lon="5.65633">
        <ele>854.75</ele>
        <time>2018-06-17T09:09:08Z</time>
      </trkpt>
      <trkpt lat="44.77674" lon="5.65669">
        <ele>855.66</ele>
        <time>2018-06-17T09:09:09Z</time>
      </trkpt>
      <trkpt lat="44.77682" lon="5.65704">
        <ele>855.93</ele>
        <time>2018-06-17T09:09:10Z</time>
      </trkpt>
      <trkpt lat="44.7769" lon="5.65738">
        <ele>856.01</ele>
        <time>2018-06-17T09:09:11Z</time>
      </trkpt>
      <trkpt lat="44.77698" lon="5.65772">
        <ele>856.74</ele>
        <time>2018-06-17T09:09:12Z</time>
      </trkpt>
      <trkpt lat="44.77706" lon="5.65806">
        <ele>856.96</ele>
        <time>2018-06-17T09:09:13Z</time>
      </trkpt>
      <trkpt lat="44.77712" lon="5.65839">
        <ele>857.72</ele>
        <time>2018-06-17T09:09:14Z</time>
      </trkpt>
      <trkpt lat="44.77714" lon="5.65873">
        <ele>857.95</ele>
        <time>2018-06-17T09:09:15Z</time>
      </trkpt>
      <trkpt lat="44.77713" lon="5.65906">
        <ele>858.02</ele>
        <time>2018-06-17T09:09:16Z</time>
      </trkpt>
      <trkpt lat="44.77706" lon="5.65937">
        <ele>858.74</ele>
        <time>2018-06-17T09:09:17Z</time>
      </trkpt>
      <trkpt lat="44.77696" lon="5.65965">
        <ele>858.96</ele>
        <time>2018-06-17T09:09:18Z</time>
      </trkpt>
      <trkpt lat="44.77685" lon="5.65993">
        <ele>859.02</ele>
        <time>2018-06-17T09:09:19Z</time>
      </trkpt>
      <trkpt lat="44.77671" lon="5.6602">
        <ele>859.74</ele>
        <time>2018-06-17T09:09:20Z</time>
      </trkpt>
      <trkpt lat="44.77654" lon="5.66044">
        <ele>859.26</ele>
        <time>2018-06-17T09:09:21Z</time>
      </trkpt>
      <trkpt lat="44.77608" lon="5.66053">
        <ele>859.28</ele>
        <time>2018-06-17T09:09:23Z</time>
      </trkpt>
      <trkpt lat="44.77589" lon="5.66058">
        <ele>859.12</ele>
        <time>2018-06-17T09:09:24Z</time>
      </trkpt>
      <trkpt lat="44.77568" lon="5.6606">
        <ele>859.07</ele>
        <time>2018-06-17T09:09:25Z</time>
      </trkpt>
      <trkpt lat="44.77544" lon="5.66054">
        <ele>859.76</ele>
        <time>2018-06-17T09:09:26Z</time>
      </trkpt>
      <trkpt lat="44.7752" lon="5.66045">
        <ele>860.66</ele>
        <time>2018-06-17T09:09:27Z</time>
      </trkpt>
      <trkpt lat="44.77497" lon="5.66028">
        <ele>861.63</ele>
        <time>2018-06-17T09:09:28Z</time>
      </trkpt>
      <trkpt lat="44.77474" lon="5.66008">
        <ele>861.22</ele>
        <time>2018-06-17T09:09:29Z</time>
      </trkpt>
      <trkpt lat="44.77448" lon="5.65983">
        <ele>861.8</ele>
        <time>2018-06-17T09:09:30Z</time>
      </trkpt>
      <trkpt lat="44.77426" lon="5.65963">
        <ele>864.07</ele>
        <time>2018-06-17T09:09:31Z</time>
      </trkpt>
      <trkpt lat="44.77404" lon="5.65953">
        <ele>866.86</ele>
        <time>2018-06-17T09:09:32Z</time>
      </trkpt>
      <trkpt lat="44.77383" lon="5.65949">
        <ele>868.39</ele>
        <time>2018-06-17T09:09:33Z</time>
      </trkpt>
      <trkpt lat="44.77362" lon="5.65947">
        <ele>869.55</ele>
        <time>2018-06-17T09:09:34Z</time>
      </trkpt>
      <trkpt lat="44.77342" lon="5.65948">
        <ele>869.9</ele>
        <time>2018-06-17T09:09:35Z</time>
      </trkpt>
      <trkpt lat="44.77323" lon="5.65951">
        <ele>870</ele>
        <time>2018-06-17T09:09:36Z</time>
      </trkpt>
      <trkpt lat="44.77304" lon="5.65957">
        <ele>869.34</ele>
        <time>2018-06-17T09:09:37Z</time>
      </trkpt>
      <trkpt lat="44.77286" lon="5.6598">
        <ele>868.43</ele>
        <time>2018-06-17T09:09:38Z</time>
      </trkpt>
      <trkpt lat="44.77271" lon="5.66014">
        <ele>868.16</ele>
        <time>2018-06-17T09:09:39Z</time>
      </trkpt>
      <trkpt lat="44.77256" lon="5.66052">
        <ele>869.48</ele>
        <time>2018-06-17T09:09:40Z</time>
      </trkpt>
      <trkpt lat="44.7724" lon="5.6608">
        <ele>869.88</ele>
        <time>2018-06-17T09:09:41Z</time>
      </trkpt>
      <trkpt lat="44.77224" lon="5.66102">
        <ele>870</ele>
        <time>2018-06-17T09:09:42Z</time>
      </trkpt>
      <trkpt lat="44.77209" lon="5.66121">
        <ele>870.03</ele>
        <time>2018-06-17T09:09:43Z</time>
      </trkpt>
      <trkpt lat="44.77193" lon="5.66137">
        <ele>870.04</ele>
        <time>2018-06-17T09:09:44Z</time>
      </trkpt>
      <trkpt lat="44.77176" lon="5.66152">
        <ele>870.05</ele>
        <time>2018-06-17T09:09:45Z</time>
      </trkpt>
      <trkpt lat="44.77159" lon="5.66167">
        <ele>870.05</ele>
        <time>2018-06-17T09:09:46Z</time>
      </trkpt>
      <trkpt lat="44.77141" lon="5.66181">
        <ele>870.75</ele>
        <time>2018-06-17T09:09:47Z</time>
      </trkpt>
      <trkpt lat="44.77123" lon="5.66193">
        <ele>871.66</ele>
        <time>2018-06-17T09:09:48Z</time>
      </trkpt>
      <trkpt lat="44.77103" lon="5.66204">
        <ele>871.23</ele>
        <time>2018-06-17T09:09:49Z</time>
      </trkpt>
      <trkpt lat="44.77084" lon="5.66215">
        <ele>871.1</ele>
        <time>2018-06-17T09:09:50Z</time>
      </trkpt>
      <trkpt lat="44.77064" lon="5.66225">
        <ele>871.07</ele>
        <time>2018-06-17T09:09:51Z</time>
      </trkpt>
      <trkpt lat="44.77045" lon="5.66235">
        <ele>871.05</ele>
        <time>2018-06-17T09:09:52Z</time>
      </trkpt>
      <trkpt lat="44.77025" lon="5.66246">
        <ele>871.05</ele>
        <time>2018-06-17T09:09:53Z</time>
      </trkpt>
      <trkpt lat="44.77005" lon="5.66255">
        <ele>871.05</ele>
        <time>2018-06-17T09:09:54Z</time>
      </trkpt>
      <trkpt lat="44.76983" lon="5.66259">
        <ele>870.35</ele>
        <time>2018-06-17T09:09:55Z</time>
      </trkpt>
      <trkpt lat="44.7696" lon="5.66262">
        <ele>869.44</ele>
        <time>2018-06-17T09:09:56Z</time>
      </trkpt>
      <trkpt lat="44.76938" lon="5.66265">
        <ele>869.87</ele>
        <time>2018-06-17T09:09:57Z</time>
      </trkpt>
      <trkpt lat="44.76918" lon="5.66267">
        <ele>869.99</ele>
        <time>2018-06-17T09:09:58Z</time>
      </trkpt>
      <trkpt lat="44.76898" lon="5.66267">
        <ele>870.73</ele>
        <time>2018-06-17T09:09:59Z</time>
      </trkpt>
      <trkpt lat="44.76879" lon="5.66263">
        <ele>870.95</ele>
        <time>2018-06-17T09:10:00Z</time>
      </trkpt>
      <trkpt lat="44.76861" lon="5.66253">
        <ele>871.02</ele>
        <time>2018-06-17T09:10:01Z</time>
      </trkpt>
      <trkpt lat="44.76843" lon="5.6624">
        <ele>871.04</ele>
        <time>2018-06-17T09:10:02Z</time>
      </trkpt>
      <trkpt lat="44.76826" lon="5.66223">
        <ele>871.05</ele>
        <time>2018-06-17T09:10:03Z</time>
      </trkpt>
      <trkpt lat="44.7681" lon="5.66207">
        <ele>871.75</ele>
        <time>2018-06-17T09:10:04Z</time>
      </trkpt>
      <trkpt lat="44.76795" lon="5.6619">
        <ele>871.96</ele>
        <time>2018-06-17T09:10:05Z</time>
      </trkpt>
      <trkpt lat="44.76779" lon="5.66173">
        <ele>872.02</ele>
        <time>2018-06-17T09:10:06Z</time>
      </trkpt>
      <trkpt lat="44.76762" lon="5.66154">
        <ele>872.04</ele>
        <time>2018-06-17T09:10:07Z</time>
      </trkpt>
      <trkpt lat="44.76744" lon="5.66138">
        <ele>872.75</ele>
        <time>2018-06-17T09:10:08Z</time>
      </trkpt>
      <trkpt lat="44.76723" lon="5.66125">
        <ele>872.96</ele>
        <time>2018-06-17T09:10:09Z</time>
      </trkpt>
      <trkpt lat="44.76703" lon="5.66113">
        <ele>873.72</ele>
        <time>2018-06-17T09:10:10Z</time>
      </trkpt>
      <trkpt lat="44.76683" lon="5.66102">
        <ele>873.95</ele>
        <time>2018-06-17T09:10:11Z</time>
      </trkpt>
      <trkpt lat="44.76663" lon="5.6609">
        <ele>874.02</ele>
        <time>2018-06-17T09:10:12Z</time>
      </trkpt>
      <trkpt lat="44.76644" lon="5.66079">
        <ele>874.04</ele>
        <time>2018-06-17T09:10:13Z</time>
      </trkpt>
      <trkpt lat="44.76623" lon="5.66068">
        <ele>874.05</ele>
        <time>2018-06-17T09:10:14Z</time>
      </trkpt>
      <trkpt lat="44.76603" lon="5.66058">
        <ele>874.05</ele>
        <time>2018-06-17T09:10:15Z</time>
      </trkpt>
      <trkpt lat="44.76584" lon="5.66049">
        <ele>874.75</ele>
        <time>2018-06-17T09:10:16Z</time>
      </trkpt>
      <trkpt lat="44.76567" lon="5.66041">
        <ele>874.96</ele>
        <time>2018-06-17T09:10:17Z</time>
      </trkpt>
      <trkpt lat="44.76537" lon="5.66019">
        <ele>874.34</ele>
        <time>2018-06-17T09:10:19Z</time>
      </trkpt>
      <trkpt lat="44.76509" lon="5.65998">
        <ele>874.99</ele>
        <time>2018-06-17T09:10:21Z</time>
      </trkpt>
      <trkpt lat="44.76481" lon="5.65971">
        <ele>875.04</ele>
        <time>2018-06-17T09:10:23Z</time>
      </trkpt>
      <trkpt lat="44.76466" lon="5.65957">
        <ele>875.05</ele>
        <time>2018-06-17T09:10:24Z</time>
      </trkpt>
      <trkpt lat="44.76449" lon="5.65944">
        <ele>874.35</ele>
        <time>2018-06-17T09:10:25Z</time>
      </trkpt>
      <trkpt lat="44.76432" lon="5.65935">
        <ele>874.84</ele>
        <time>2018-06-17T09:10:26Z</time>
      </trkpt>
      <trkpt lat="44.76401" lon="5.65922">
        <ele>875.73</ele>
        <time>2018-06-17T09:10:28Z</time>
      </trkpt>
      <trkpt lat="44.76369" lon="5.65925">
        <ele>876.72</ele>
        <time>2018-06-17T09:10:30Z</time>
      </trkpt>
      <trkpt lat="44.76339" lon="5.6594">
        <ele>877.02</ele>
        <time>2018-06-17T09:10:32Z</time>
      </trkpt>
      <trkpt lat="44.76324" lon="5.65955">
        <ele>877.74</ele>
        <time>2018-06-17T09:10:33Z</time>
      </trkpt>
      <trkpt lat="44.76308" lon="5.65975">
        <ele>877.96</ele>
        <time>2018-06-17T09:10:34Z</time>
      </trkpt>
      <trkpt lat="44.76295" lon="5.66005">
        <ele>877.32</ele>
        <time>2018-06-17T09:10:35Z</time>
      </trkpt>
      <trkpt lat="44.76281" lon="5.66026">
        <ele>876.43</ele>
        <time>2018-06-17T09:10:36Z</time>
      </trkpt>
      <trkpt lat="44.76265" lon="5.66048">
        <ele>876.16</ele>
        <time>2018-06-17T09:10:37Z</time>
      </trkpt>
      <trkpt lat="44.7625" lon="5.66071">
        <ele>875.38</ele>
        <time>2018-06-17T09:10:38Z</time>
      </trkpt>
      <trkpt lat="44.76235" lon="5.66094">
        <ele>875.15</ele>
        <time>2018-06-17T09:10:39Z</time>
      </trkpt>
      <trkpt lat="44.76221" lon="5.66116">
        <ele>875.08</ele>
        <time>2018-06-17T09:10:40Z</time>
      </trkpt>
      <trkpt lat="44.76206" lon="5.66137">
        <ele>875.06</ele>
        <time>2018-06-17T09:10:41Z</time>
      </trkpt>
      <trkpt lat="44.76193" lon="5.66156">
        <ele>875.05</ele>
        <time>2018-06-17T09:10:42Z</time>
      </trkpt>
      <trkpt lat="44.7618" lon="5.66176">
        <ele>875.75</ele>
        <time>2018-06-17T09:10:43Z</time>
      </trkpt>
      <trkpt lat="44.76168" lon="5.66195">
        <ele>875.96</ele>
        <time>2018-06-17T09:10:44Z</time>
      </trkpt>
      <trkpt lat="44.76155" lon="5.66215">
        <ele>875.32</ele>
        <time>2018-06-17T09:10:45Z</time>
      </trkpt>
      <trkpt lat="44.76141" lon="5.66236">
        <ele>875.13</ele>
        <time>2018-06-17T09:10:46Z</time>
      </trkpt>
      <trkpt lat="44.76127" lon="5.66258">
        <ele>875.07</ele>
        <time>2018-06-17T09:10:47Z</time>
      </trkpt>
      <trkpt lat="44.76112" lon="5.6628">
        <ele>875.76</ele>
        <time>2018-06-17T09:10:48Z</time>
      </trkpt>
      <trkpt lat="44.76098" lon="5.66304">
        <ele>875.26</ele>
        <time>2018-06-17T09:10:49Z</time>
      </trkpt>
      <trkpt lat="44.76087" lon="5.6633">
        <ele>875.11</ele>
        <time>2018-06-17T09:10:50Z</time>
      </trkpt>
      <trkpt lat="44.76078" lon="5.66357">
        <ele>875.77</ele>
        <time>2018-06-17T09:10:51Z</time>
      </trkpt>
      <trkpt lat="44.76072" lon="5.66385">
        <ele>876.66</ele>
        <time>2018-06-17T09:10:52Z</time>
      </trkpt>
      <trkpt lat="44.76069" lon="5.66418">
        <ele>876.93</ele>
        <time>2018-06-17T09:10:53Z</time>
      </trkpt>
      <trkpt lat="44.76066" lon="5.66453">
        <ele>877.01</ele>
        <time>2018-06-17T09:10:54Z</time>
      </trkpt>
      <trkpt lat="44.76063" lon="5.6649">
        <ele>877.04</ele>
        <time>2018-06-17T09:10:55Z</time>
      </trkpt>
      <trkpt lat="44.7606" lon="5.66523">
        <ele>877.75</ele>
        <time>2018-06-17T09:10:56Z</time>
      </trkpt>
      <trkpt lat="44.76058" lon="5.66558">
        <ele>877.96</ele>
        <time>2018-06-17T09:10:57Z</time>
      </trkpt>
      <trkpt lat="44.7606" lon="5.66593">
        <ele>878.72</ele>
        <time>2018-06-17T09:10:58Z</time>
      </trkpt>
      <trkpt lat="44.76067" lon="5.66627">
        <ele>878.25</ele>
        <time>2018-06-17T09:10:59Z</time>
      </trkpt>
      <trkpt lat="44.76072" lon="5.66659">
        <ele>878.81</ele>
        <time>2018-06-17T09:11:00Z</time>
      </trkpt>
      <trkpt lat="44.76076" lon="5.66691">
        <ele>878.98</ele>
        <time>2018-06-17T09:11:01Z</time>
      </trkpt>
      <trkpt lat="44.76079" lon="5.66718">
        <ele>879.03</ele>
        <time>2018-06-17T09:11:02Z</time>
      </trkpt>
      <trkpt lat="44.76071" lon="5.66743">
        <ele>878.34</ele>
        <time>2018-06-17T09:11:03Z</time>
      </trkpt>
      <trkpt lat="44.76058" lon="5.66764">
        <ele>877.44</ele>
        <time>2018-06-17T09:11:04Z</time>
      </trkpt>
      <trkpt lat="44.76043" lon="5.6678">
        <ele>877.17</ele>
        <time>2018-06-17T09:11:05Z</time>
      </trkpt>
      <trkpt lat="44.76015" lon="5.66797">
        <ele>877.97</ele>
        <time>2018-06-17T09:11:07Z</time>
      </trkpt>
      <trkpt lat="44.75995" lon="5.66796">
        <ele>878.03</ele>
        <time>2018-06-17T09:11:08Z</time>
      </trkpt>
      <trkpt lat="44.75975" lon="5.66776">
        <ele>878.74</ele>
        <time>2018-06-17T09:11:09Z</time>
      </trkpt>
      <trkpt lat="44.75958" lon="5.66763">
        <ele>879.66</ele>
        <time>2018-06-17T09:11:10Z</time>
      </trkpt>
      <trkpt lat="44.75942" lon="5.66747">
        <ele>880.63</ele>
        <time>2018-06-17T09:11:11Z</time>
      </trkpt>
      <trkpt lat="44.75924" lon="5.66727">
        <ele>880.92</ele>
        <time>2018-06-17T09:11:12Z</time>
      </trkpt>
      <trkpt lat="44.75904" lon="5.66707">
        <ele>882.41</ele>
        <time>2018-06-17T09:11:13Z</time>
      </trkpt>
      <trkpt lat="44.75884" lon="5.66687">
        <ele>883.56</ele>
        <time>2018-06-17T09:11:14Z</time>
      </trkpt>
      <trkpt lat="44.75862" lon="5.66666">
        <ele>885.3</ele>
        <time>2018-06-17T09:11:15Z</time>
      </trkpt>
      <trkpt lat="44.75842" lon="5.66645">
        <ele>887.22</ele>
        <time>2018-06-17T09:11:16Z</time>
      </trkpt>
      <trkpt lat="44.75826" lon="5.66622">
        <ele>889.2</ele>
        <time>2018-06-17T09:11:17Z</time>
      </trkpt>
      <trkpt lat="44.75814" lon="5.66601">
        <ele>890.49</ele>
        <time>2018-06-17T09:11:18Z</time>
      </trkpt>
      <trkpt lat="44.75797" lon="5.66568">
        <ele>892.61</ele>
        <time>2018-06-17T09:11:20Z</time>
      </trkpt>
      <trkpt lat="44.75778" lon="5.66554">
        <ele>894.41</ele>
        <time>2018-06-17T09:11:22Z</time>
      </trkpt>
      <trkpt lat="44.7576" lon="5.66564">
        <ele>895.9</ele>
        <time>2018-06-17T09:11:24Z</time>
      </trkpt>
      <trkpt lat="44.75748" lon="5.66602">
        <ele>897.65</ele>
        <time>2018-06-17T09:11:26Z</time>
      </trkpt>
      <trkpt lat="44.75742" lon="5.66629">
        <ele>898.63</ele>
        <time>2018-06-17T09:11:27Z</time>
      </trkpt>
      <trkpt lat="44.7574" lon="5.66665">
        <ele>900.32</ele>
        <time>2018-06-17T09:11:28Z</time>
      </trkpt>
      <trkpt lat="44.75737" lon="5.66695">
        <ele>901.53</ele>
        <time>2018-06-17T09:11:29Z</time>
      </trkpt>
      <trkpt lat="44.75734" lon="5.66724">
        <ele>903.29</ele>
        <time>2018-06-17T09:11:30Z</time>
      </trkpt>
      <trkpt lat="44.75731" lon="5.66754">
        <ele>904.52</ele>
        <time>2018-06-17T09:11:31Z</time>
      </trkpt>
      <trkpt lat="44.75725" lon="5.66782">
        <ele>904.19</ele>
        <time>2018-06-17T09:11:32Z</time>
      </trkpt>
      <trkpt lat="44.75709" lon="5.66806">
        <ele>905.49</ele>
        <time>2018-06-17T09:11:33Z</time>
      </trkpt>
      <trkpt lat="44.75696" lon="5.6683">
        <ele>907.28</ele>
        <time>2018-06-17T09:11:34Z</time>
      </trkpt>
      <trkpt lat="44.75682" lon="5.66851">
        <ele>908.52</ele>
        <time>2018-06-17T09:11:35Z</time>
      </trkpt>
      <trkpt lat="44.75664" lon="5.66869">
        <ele>909.59</ele>
        <time>2018-06-17T09:11:36Z</time>
      </trkpt>
      <trkpt lat="44.75645" lon="5.66885">
        <ele>912.01</ele>
        <time>2018-06-17T09:11:37Z</time>
      </trkpt>
      <trkpt lat="44.75626" lon="5.66898">
        <ele>912.74</ele>
        <time>2018-06-17T09:11:38Z</time>
      </trkpt>
      <trkpt lat="44.75606" lon="5.66907">
        <ele>913.66</ele>
        <time>2018-06-17T09:11:39Z</time>
      </trkpt>
      <trkpt lat="44.75588" lon="5.66904">
        <ele>915.33</ele>
        <time>2018-06-17T09:11:40Z</time>
      </trkpt>
      <trkpt lat="44.75569" lon="5.66902">
        <ele>916.53</ele>
        <time>2018-06-17T09:11:41Z</time>
      </trkpt>
      <trkpt lat="44.75549" lon="5.66893">
        <ele>918.29</ele>
        <time>2018-06-17T09:11:42Z</time>
      </trkpt>
      <trkpt lat="44.75531" lon="5.66875">
        <ele>920.22</ele>
        <time>2018-06-17T09:11:43Z</time>
      </trkpt>
      <trkpt lat="44.75512" lon="5.66862">
        <ele>920.8</ele>
        <time>2018-06-17T09:11:44Z</time>
      </trkpt>
      <trkpt lat="44.75493" lon="5.66848">
        <ele>921.67</ele>
        <time>2018-06-17T09:11:45Z</time>
      </trkpt>
      <trkpt lat="44.75474" lon="5.66832">
        <ele>924.04</ele>
        <time>2018-06-17T09:11:46Z</time>
      </trkpt>
      <trkpt lat="44.75456" lon="5.66816">
        <ele>926.15</ele>
        <time>2018-06-17T09:11:47Z</time>
      </trkpt>
      <trkpt lat="44.75438" lon="5.66801">
        <ele>928.18</ele>
        <time>2018-06-17T09:11:48Z</time>
      </trkpt>
      <trkpt lat="44.75422" lon="5.66789">
        <ele>930.19</ele>
        <time>2018-06-17T09:11:49Z</time>
      </trkpt>
      <trkpt lat="44.75394" lon="5.66775">
        <ele>933.49</ele>
        <time>2018-06-17T09:11:51Z</time>
      </trkpt>
      <trkpt lat="44.75372" lon="5.66787">
        <ele>936.31</ele>
        <time>2018-06-17T09:11:53Z</time>
      </trkpt>
      <trkpt lat="44.75362" lon="5.66823">
        <ele>937.89</ele>
        <time>2018-06-17T09:11:55Z</time>
      </trkpt>
      <trkpt lat="44.75368" lon="5.66871">
        <ele>939.64</ele>
        <time>2018-06-17T09:11:57Z</time>
      </trkpt>
      <trkpt lat="44.7537" lon="5.66898">
        <ele>940.63</ele>
        <time>2018-06-17T09:11:58Z</time>
      </trkpt>
      <trkpt lat="44.75369" lon="5.66923">
        <ele>941.62</ele>
        <time>2018-06-17T09:11:59Z</time>
      </trkpt>
      <trkpt lat="44.75365" lon="5.66949">
        <ele>941.92</ele>
        <time>2018-06-17T09:12:00Z</time>
      </trkpt>
      <trkpt lat="44.75359" lon="5.66973">
        <ele>942.71</ele>
        <time>2018-06-17T09:12:01Z</time>
      </trkpt>
      <trkpt lat="44.75339" lon="5.67014">
        <ele>944.63</ele>
        <time>2018-06-17T09:12:03Z</time>
      </trkpt>
      <trkpt lat="44.75317" lon="5.67047">
        <ele>948.23</ele>
        <time>2018-06-17T09:12:05Z</time>
      </trkpt>
      <trkpt lat="44.75304" lon="5.67064">
        <ele>948.8</ele>
        <time>2018-06-17T09:12:06Z</time>
      </trkpt>
      <trkpt lat="44.75288" lon="5.67084">
        <ele>950.38</ele>
        <time>2018-06-17T09:12:07Z</time>
      </trkpt>
      <trkpt lat="44.75272" lon="5.67104">
        <ele>951.55</ele>
        <time>2018-06-17T09:12:08Z</time>
      </trkpt>
      <trkpt lat="44.75254" lon="5.67124">
        <ele>953.3</ele>
        <time>2018-06-17T09:12:09Z</time>
      </trkpt>
      <trkpt lat="44.75236" lon="5.67144">
        <ele>954.52</ele>
        <time>2018-06-17T09:12:10Z</time>
      </trkpt>
      <trkpt lat="44.7522" lon="5.67164">
        <ele>955.59</ele>
        <time>2018-06-17T09:12:11Z</time>
      </trkpt>
      <trkpt lat="44.75205" lon="5.67183">
        <ele>956.61</ele>
        <time>2018-06-17T09:12:12Z</time>
      </trkpt>
      <trkpt lat="44.7519" lon="5.67202">
        <ele>958.32</ele>
        <time>2018-06-17T09:12:13Z</time>
      </trkpt>
      <trkpt lat="44.75176" lon="5.67218">
        <ele>959.53</ele>
        <time>2018-06-17T09:12:14Z</time>
      </trkpt>
      <trkpt lat="44.75162" lon="5.67236">
        <ele>960.59</ele>
        <time>2018-06-17T09:12:15Z</time>
      </trkpt>
      <trkpt lat="44.75135" lon="5.6727">
        <ele>962.83</ele>
        <time>2018-06-17T09:12:17Z</time>
      </trkpt>
      <trkpt lat="44.75121" lon="5.6729">
        <ele>964.38</ele>
        <time>2018-06-17T09:12:18Z</time>
      </trkpt>
      <trkpt lat="44.75107" lon="5.67309">
        <ele>965.55</ele>
        <time>2018-06-17T09:12:19Z</time>
      </trkpt>
      <trkpt lat="44.75084" lon="5.67344">
        <ele>966.7</ele>
        <time>2018-06-17T09:12:21Z</time>
      </trkpt>
      <trkpt lat="44.75062" lon="5.67379">
        <ele>968.84</ele>
        <time>2018-06-17T09:12:23Z</time>
      </trkpt>
      <trkpt lat="44.75037" lon="5.67415">
        <ele>971.55</ele>
        <time>2018-06-17T09:12:25Z</time>
      </trkpt>
      <trkpt lat="44.75021" lon="5.67433">
        <ele>973.3</ele>
        <time>2018-06-17T09:12:26Z</time>
      </trkpt>
      <trkpt lat="44.75005" lon="5.67449">
        <ele>973.82</ele>
        <time>2018-06-17T09:12:27Z</time>
      </trkpt>
      <trkpt lat="44.7499" lon="5.67466">
        <ele>974.33</ele>
        <time>2018-06-17T09:12:28Z</time>
      </trkpt>
      <trkpt lat="44.74976" lon="5.67483">
        <ele>974.48</ele>
        <time>2018-06-17T09:12:29Z</time>
      </trkpt>
      <trkpt lat="44.74962" lon="5.67504">
        <ele>975.23</ele>
        <time>2018-06-17T09:12:30Z</time>
      </trkpt>
      <trkpt lat="44.74948" lon="5.67526">
        <ele>975.45</ele>
        <time>2018-06-17T09:12:31Z</time>
      </trkpt>
      <trkpt lat="44.74934" lon="5.67565">
        <ele>976.92</ele>
        <time>2018-06-17T09:12:32Z</time>
      </trkpt>
      <trkpt lat="44.74918" lon="5.67592">
        <ele>979.46</ele>
        <time>2018-06-17T09:12:33Z</time>
      </trkpt>
      <trkpt lat="44.74903" lon="5.67623">
        <ele>981.62</ele>
        <time>2018-06-17T09:12:34Z</time>
      </trkpt>
      <trkpt lat="44.74887" lon="5.67651">
        <ele>983.67</ele>
        <time>2018-06-17T09:12:35Z</time>
      </trkpt>
      <trkpt lat="44.74873" lon="5.67677">
        <ele>984.98</ele>
        <time>2018-06-17T09:12:36Z</time>
      </trkpt>
      <trkpt lat="44.74858" lon="5.67703">
        <ele>986.78</ele>
        <time>2018-06-17T09:12:37Z</time>
      </trkpt>
      <trkpt lat="44.74841" lon="5.67729">
        <ele>987.32</ele>
        <time>2018-06-17T09:12:38Z</time>
      </trkpt>
      <trkpt lat="44.74824" lon="5.67753">
        <ele>989.58</ele>
        <time>2018-06-17T09:12:39Z</time>
      </trkpt>
      <trkpt lat="44.74807" lon="5.67775">
        <ele>991.66</ele>
        <time>2018-06-17T09:12:40Z</time>
      </trkpt>
      <trkpt lat="44.7479" lon="5.67795">
        <ele>992.98</ele>
        <time>2018-06-17T09:12:41Z</time>
      </trkpt>
      <trkpt lat="44.74775" lon="5.67814">
        <ele>994.08</ele>
        <time>2018-06-17T09:12:42Z</time>
      </trkpt>
      <trkpt lat="44.74747" lon="5.67844">
        <ele>997.73</ele>
        <time>2018-06-17T09:12:44Z</time>
      </trkpt>
      <trkpt lat="44.74716" lon="5.67863">
        <ele>1000.99</ele>
        <time>2018-06-17T09:12:46Z</time>
      </trkpt>
      <trkpt lat="44.74682" lon="5.67877">
        <ele>1003.11</ele>
        <time>2018-06-17T09:12:48Z</time>
      </trkpt>
      <trkpt lat="44.7465" lon="5.67878">
        <ele>1005.12</ele>
        <time>2018-06-17T09:12:50Z</time>
      </trkpt>
      <trkpt lat="44.74619" lon="5.679">
        <ele>1007.12</ele>
        <time>2018-06-17T09:12:52Z</time>
      </trkpt>
      <trkpt lat="44.74602" lon="5.67923">
        <ele>1008.82</ele>
        <time>2018-06-17T09:12:53Z</time>
      </trkpt>
      <trkpt lat="44.7459" lon="5.67954">
        <ele>1010.73</ele>
        <time>2018-06-17T09:12:54Z</time>
      </trkpt>
      <trkpt lat="44.74575" lon="5.67976">
        <ele>1012</ele>
        <time>2018-06-17T09:12:55Z</time>
      </trkpt>
      <trkpt lat="44.74551" lon="5.68007">
        <ele>1014.81</ele>
        <time>2018-06-17T09:12:57Z</time>
      </trkpt>
      <trkpt lat="44.74526" lon="5.68033">
        <ele>1017.79</ele>
        <time>2018-06-17T09:12:59Z</time>
      </trkpt>
      <trkpt lat="44.745" lon="5.68052">
        <ele>1020.09</ele>
        <time>2018-06-17T09:13:01Z</time>
      </trkpt>
      <trkpt lat="44.74476" lon="5.68075">
        <ele>1021.42</ele>
        <time>2018-06-17T09:13:03Z</time>
      </trkpt>
      <trkpt lat="44.74454" lon="5.68103">
        <ele>1021.75</ele>
        <time>2018-06-17T09:13:05Z</time>
      </trkpt>
      <trkpt lat="44.74428" lon="5.6813">
        <ele>1024.09</ele>
        <time>2018-06-17T09:13:07Z</time>
      </trkpt>
      <trkpt lat="44.74402" lon="5.68152">
        <ele>1024.51</ele>
        <time>2018-06-17T09:13:09Z</time>
      </trkpt>
      <trkpt lat="44.74373" lon="5.68148">
        <ele>1027.76</ele>
        <time>2018-06-17T09:13:11Z</time>
      </trkpt>
      <trkpt lat="44.74345" lon="5.68136">
        <ele>1030.09</ele>
        <time>2018-06-17T09:13:13Z</time>
      </trkpt>
      <trkpt lat="44.74326" lon="5.68128">
        <ele>1031.11</ele>
        <time>2018-06-17T09:13:14Z</time>
      </trkpt>
      <trkpt lat="44.74305" lon="5.68121">
        <ele>1032.82</ele>
        <time>2018-06-17T09:13:15Z</time>
      </trkpt>
      <trkpt lat="44.74282" lon="5.68116">
        <ele>1033.33</ele>
        <time>2018-06-17T09:13:16Z</time>
      </trkpt>
      <trkpt lat="44.74258" lon="5.68109">
        <ele>1034.88</ele>
        <time>2018-06-17T09:13:17Z</time>
      </trkpt>
      <trkpt lat="44.74228" lon="5.68105">
        <ele>1036.75</ele>
        <time>2018-06-17T09:13:18Z</time>
      </trkpt>
      <trkpt lat="44.74199" lon="5.68101">
        <ele>1038.71</ele>
        <time>2018-06-17T09:13:19Z</time>
      </trkpt>
      <trkpt lat="44.7417" lon="5.68097">
        <ele>1041.4</ele>
        <time>2018-06-17T09:13:20Z</time>
      </trkpt>
      <trkpt lat="44.74143" lon="5.68091">
        <ele>1044.3</ele>
        <time>2018-06-17T09:13:21Z</time>
      </trkpt>
      <trkpt lat="44.74115" lon="5.68082">
        <ele>1047.27</ele>
        <time>2018-06-17T09:13:22Z</time>
      </trkpt>
      <trkpt lat="44.74086" lon="5.68069">
        <ele>1049.57</ele>
        <time>2018-06-17T09:13:23Z</time>
      </trkpt>
      <trkpt lat="44.74058" lon="5.68056">
        <ele>1051.65</ele>
        <time>2018-06-17T09:13:24Z</time>
      </trkpt>
      <trkpt lat="44.74033" lon="5.68043">
        <ele>1053.68</ele>
        <time>2018-06-17T09:13:25Z</time>
      </trkpt>
      <trkpt lat="44.74012" lon="5.68032">
        <ele>1055.69</ele>
        <time>2018-06-17T09:13:26Z</time>
      </trkpt>
      <trkpt lat="44.73994" lon="5.6802">
        <ele>1056.99</ele>
        <time>2018-06-17T09:13:27Z</time>
      </trkpt>
      <trkpt lat="44.73976" lon="5.68006">
        <ele>1057.38</ele>
        <time>2018-06-17T09:13:28Z</time>
      </trkpt>
      <trkpt lat="44.7395" lon="5.67975">
        <ele>1059.14</ele>
        <time>2018-06-17T09:13:30Z</time>
      </trkpt>
      <trkpt lat="44.73941" lon="5.67928">
        <ele>1061.12</ele>
        <time>2018-06-17T09:13:32Z</time>
      </trkpt>
      <trkpt lat="44.73935" lon="5.67893">
        <ele>1062.82</ele>
        <time>2018-06-17T09:13:33Z</time>
      </trkpt>
      <trkpt lat="44.73926" lon="5.67862">
        <ele>1064.03</ele>
        <time>2018-06-17T09:13:34Z</time>
      </trkpt>
      <trkpt lat="44.73919" lon="5.67833">
        <ele>1065.79</ele>
        <time>2018-06-17T09:13:35Z</time>
      </trkpt>
      <trkpt lat="44.73913" lon="5.67809">
        <ele>1066.32</ele>
        <time>2018-06-17T09:13:36Z</time>
      </trkpt>
      <trkpt lat="44.73896" lon="5.67774">
        <ele>1068.84</ele>
        <time>2018-06-17T09:13:38Z</time>
      </trkpt>
      <trkpt lat="44.73876" lon="5.67769">
        <ele>1070.39</ele>
        <time>2018-06-17T09:13:40Z</time>
      </trkpt>
      <trkpt lat="44.73853" lon="5.67778">
        <ele>1071.23</ele>
        <time>2018-06-17T09:13:42Z</time>
      </trkpt>
      <trkpt lat="44.73837" lon="5.67811">
        <ele>1071.73</ele>
        <time>2018-06-17T09:13:44Z</time>
      </trkpt>
      <trkpt lat="44.73829" lon="5.6784">
        <ele>1070.2</ele>
        <time>2018-06-17T09:13:45Z</time>
      </trkpt>
      <trkpt lat="44.73817" lon="5.6786">
        <ele>1070.44</ele>
        <time>2018-06-17T09:13:46Z</time>
      </trkpt>
      <trkpt lat="44.738" lon="5.67899">
        <ele>1072.15</ele>
        <time>2018-06-17T09:13:48Z</time>
      </trkpt>
      <trkpt lat="44.73782" lon="5.67943">
        <ele>1077.13</ele>
        <time>2018-06-17T09:13:50Z</time>
      </trkpt>
      <trkpt lat="44.73773" lon="5.67991">
        <ele>1082.83</ele>
        <time>2018-06-17T09:13:52Z</time>
      </trkpt>
      <trkpt lat="44.73759" lon="5.68025">
        <ele>1081.66</ele>
        <time>2018-06-17T09:13:54Z</time>
      </trkpt>
      <trkpt lat="44.73742" lon="5.6805">
        <ele>1083.17</ele>
        <time>2018-06-17T09:13:56Z</time>
      </trkpt>
      <trkpt lat="44.73719" lon="5.68049">
        <ele>1082.73</ele>
        <time>2018-06-17T09:13:57Z</time>
      </trkpt>
      <trkpt lat="44.73699" lon="5.68049">
        <ele>1082.6</ele>
        <time>2018-06-17T09:13:58Z</time>
      </trkpt>
      <trkpt lat="44.73674" lon="5.68046">
        <ele>1081.86</ele>
        <time>2018-06-17T09:13:59Z</time>
      </trkpt>
      <trkpt lat="44.73653" lon="5.68048">
        <ele>1082.34</ele>
        <time>2018-06-17T09:14:00Z</time>
      </trkpt>
      <trkpt lat="44.73631" lon="5.68058">
        <ele>1083.19</ele>
        <time>2018-06-17T09:14:01Z</time>
      </trkpt>
      <trkpt lat="44.73612" lon="5.6807">
        <ele>1085.54</ele>
        <time>2018-06-17T09:14:02Z</time>
      </trkpt>
      <trkpt lat="44.73583" lon="5.68092">
        <ele>1088.07</ele>
        <time>2018-06-17T09:14:04Z</time>
      </trkpt>
      <trkpt lat="44.73559" lon="5.68106">
        <ele>1091.02</ele>
        <time>2018-06-17T09:14:06Z</time>
      </trkpt>
      <trkpt lat="44.73532" lon="5.68119">
        <ele>1093.81</ele>
        <time>2018-06-17T09:14:08Z</time>
      </trkpt>
      <trkpt lat="44.73499" lon="5.68125">
        <ele>1096.58</ele>
        <time>2018-06-17T09:14:10Z</time>
      </trkpt>
      <trkpt lat="44.73461" lon="5.6812">
        <ele>1100.68</ele>
        <time>2018-06-17T09:14:12Z</time>
      </trkpt>
      <trkpt lat="44.7344" lon="5.68113">
        <ele>1101.99</ele>
        <time>2018-06-17T09:14:13Z</time>
      </trkpt>
      <trkpt lat="44.73416" lon="5.68102">
        <ele>1104.48</ele>
        <time>2018-06-17T09:14:14Z</time>
      </trkpt>
      <trkpt lat="44.73391" lon="5.68096">
        <ele>1107.33</ele>
        <time>2018-06-17T09:14:15Z</time>
      </trkpt>
      <trkpt lat="44.73367" lon="5.68091">
        <ele>1109.58</ele>
        <time>2018-06-17T09:14:16Z</time>
      </trkpt>
      <trkpt lat="44.73345" lon="5.68082">
        <ele>1111.66</ele>
        <time>2018-06-17T09:14:17Z</time>
      </trkpt>
      <trkpt lat="44.73325" lon="5.68072">
        <ele>1112.98</ele>
        <time>2018-06-17T09:14:18Z</time>
      </trkpt>
      <trkpt lat="44.73306" lon="5.68063">
        <ele>1114.78</ele>
        <time>2018-06-17T09:14:19Z</time>
      </trkpt>
      <trkpt lat="44.73288" lon="5.68055">
        <ele>1116.02</ele>
        <time>2018-06-17T09:14:20Z</time>
      </trkpt>
      <trkpt lat="44.7327" lon="5.68042">
        <ele>1116.39</ele>
        <time>2018-06-17T09:14:21Z</time>
      </trkpt>
      <trkpt lat="44.73254" lon="5.68001">
        <ele>1117.23</ele>
        <time>2018-06-17T09:14:23Z</time>
      </trkpt>
      <trkpt lat="44.73247" lon="5.67967">
        <ele>1118.43</ele>
        <time>2018-06-17T09:14:25Z</time>
      </trkpt>
      <trkpt lat="44.73233" lon="5.67951">
        <ele>1119.24</ele>
        <time>2018-06-17T09:14:27Z</time>
      </trkpt>
      <trkpt lat="44.7321" lon="5.6795">
        <ele>1120.64</ele>
        <time>2018-06-17T09:14:29Z</time>
      </trkpt>
      <trkpt lat="44.73192" lon="5.67959">
        <ele>1120.58</ele>
        <time>2018-06-17T09:14:30Z</time>
      </trkpt>
      <trkpt lat="44.73178" lon="5.67985">
        <ele>1121.26</ele>
        <time>2018-06-17T09:14:31Z</time>
      </trkpt>
      <trkpt lat="44.73168" lon="5.68019">
        <ele>1122.86</ele>
        <time>2018-06-17T09:14:32Z</time>
      </trkpt>
      <trkpt lat="44.73147" lon="5.68039">
        <ele>1126.92</ele>
        <time>2018-06-17T09:14:34Z</time>
      </trkpt>
      <trkpt lat="44.73123" lon="5.68035">
        <ele>1127.49</ele>
        <time>2018-06-17T09:14:36Z</time>
      </trkpt>
      <trkpt lat="44.73091" lon="5.68012">
        <ele>1127.33</ele>
        <time>2018-06-17T09:14:38Z</time>
      </trkpt>
      <trkpt lat="44.7307" lon="5.67991">
        <ele>1128.88</ele>
        <time>2018-06-17T09:14:39Z</time>
      </trkpt>
      <trkpt lat="44.7305" lon="5.67974">
        <ele>1131.45</ele>
        <time>2018-06-17T09:14:40Z</time>
      </trkpt>
      <trkpt lat="44.73031" lon="5.67964">
        <ele>1134.32</ele>
        <time>2018-06-17T09:14:41Z</time>
      </trkpt>
      <trkpt lat="44.73013" lon="5.67955">
        <ele>1135.88</ele>
        <time>2018-06-17T09:14:42Z</time>
      </trkpt>
      <trkpt lat="44.7298" lon="5.67941">
        <ele>1139.01</ele>
        <time>2018-06-17T09:14:44Z</time>
      </trkpt>
      <trkpt lat="44.72964" lon="5.67929">
        <ele>1140.09</ele>
        <time>2018-06-17T09:14:45Z</time>
      </trkpt>
      <trkpt lat="44.72948" lon="5.67913">
        <ele>1141.11</ele>
        <time>2018-06-17T09:14:46Z</time>
      </trkpt>
      <trkpt lat="44.72927" lon="5.67884">
        <ele>1144.73</ele>
        <time>2018-06-17T09:14:48Z</time>
      </trkpt>
      <trkpt lat="44.72891" lon="5.67865">
        <ele>1147.78</ele>
        <time>2018-06-17T09:14:50Z</time>
      </trkpt>
      <trkpt lat="44.7287" lon="5.67857">
        <ele>1149.02</ele>
        <time>2018-06-17T09:14:51Z</time>
      </trkpt>
      <trkpt lat="44.72847" lon="5.67846">
        <ele>1148.69</ele>
        <time>2018-06-17T09:14:52Z</time>
      </trkpt>
      <trkpt lat="44.72822" lon="5.67828">
        <ele>1149.99</ele>
        <time>2018-06-17T09:14:53Z</time>
      </trkpt>
      <trkpt lat="44.72795" lon="5.67816">
        <ele>1152.48</ele>
        <time>2018-06-17T09:14:54Z</time>
      </trkpt>
      <trkpt lat="44.72768" lon="5.67805">
        <ele>1153.93</ele>
        <time>2018-06-17T09:14:55Z</time>
      </trkpt>
      <trkpt lat="44.7274" lon="5.67797">
        <ele>1155.06</ele>
        <time>2018-06-17T09:14:56Z</time>
      </trkpt>
      <trkpt lat="44.72712" lon="5.67793">
        <ele>1156.1</ele>
        <time>2018-06-17T09:14:57Z</time>
      </trkpt>
      <trkpt lat="44.72685" lon="5.67789">
        <ele>1157.81</ele>
        <time>2018-06-17T09:14:58Z</time>
      </trkpt>
      <trkpt lat="44.7266" lon="5.67784">
        <ele>1160.43</ele>
        <time>2018-06-17T09:14:59Z</time>
      </trkpt>
      <trkpt lat="44.72636" lon="5.67782">
        <ele>1161.21</ele>
        <time>2018-06-17T09:15:00Z</time>
      </trkpt>
      <trkpt lat="44.72612" lon="5.6778">
        <ele>1163.55</ele>
        <time>2018-06-17T09:15:01Z</time>
      </trkpt>
      <trkpt lat="44.72589" lon="5.67778">
        <ele>1165.65</ele>
        <time>2018-06-17T09:15:02Z</time>
      </trkpt>
      <trkpt lat="44.72567" lon="5.67777">
        <ele>1166.98</ele>
        <time>2018-06-17T09:15:03Z</time>
      </trkpt>
      <trkpt lat="44.72548" lon="5.67777">
        <ele>1168.78</ele>
        <time>2018-06-17T09:15:04Z</time>
      </trkpt>
      <trkpt lat="44.72529" lon="5.67775">
        <ele>1170.02</ele>
        <time>2018-06-17T09:15:05Z</time>
      </trkpt>
      <trkpt lat="44.72511" lon="5.67774">
        <ele>1171.09</ele>
        <time>2018-06-17T09:15:06Z</time>
      </trkpt>
      <trkpt lat="44.72479" lon="5.67772">
        <ele>1174.03</ele>
        <time>2018-06-17T09:15:08Z</time>
      </trkpt>
      <trkpt lat="44.72453" lon="5.67767">
        <ele>1176.11</ele>
        <time>2018-06-17T09:15:10Z</time>
      </trkpt>
      <trkpt lat="44.72431" lon="5.6776">
        <ele>1177.21</ele>
        <time>2018-06-17T09:15:12Z</time>
      </trkpt>
      <trkpt lat="44.72411" lon="5.67753">
        <ele>1177.52</ele>
        <time>2018-06-17T09:15:14Z</time>
      </trkpt>
      <trkpt lat="44.7239" lon="5.67747">
        <ele>1177.55</ele>
        <time>2018-06-17T09:15:17Z</time>
      </trkpt>
      <trkpt lat="44.72369" lon="5.67738">
        <ele>1178.55</ele>
        <time>2018-06-17T09:15:43Z</time>
      </trkpt>
      <trkpt lat="44.7235" lon="5.67733">
        <ele>1177.85</ele>
        <time>2018-06-17T09:15:45Z</time>
      </trkpt>
      <trkpt lat="44.72324" lon="5.67726">
        <ele>1176.67</ele>
        <time>2018-06-17T09:15:47Z</time>
      </trkpt>
      <trkpt lat="44.72292" lon="5.67717">
        <ele>1174.95</ele>
        <time>2018-06-17T09:15:49Z</time>
      </trkpt>
      <trkpt lat="44.72274" lon="5.67712">
        <ele>1173.97</ele>
        <time>2018-06-17T09:15:50Z</time>
      </trkpt>
      <trkpt lat="44.72254" lon="5.67706">
        <ele>1172.97</ele>
        <time>2018-06-17T09:15:51Z</time>
      </trkpt>
      <trkpt lat="44.72233" lon="5.677">
        <ele>1171.98</ele>
        <time>2018-06-17T09:15:52Z</time>
      </trkpt>
      <trkpt lat="44.72211" lon="5.67693">
        <ele>1170.98</ele>
        <time>2018-06-17T09:15:53Z</time>
      </trkpt>
      <trkpt lat="44.72188" lon="5.67686">
        <ele>1170.68</ele>
        <time>2018-06-17T09:15:54Z</time>
      </trkpt>
      <trkpt lat="44.72165" lon="5.67679">
        <ele>1169.89</ele>
        <time>2018-06-17T09:15:55Z</time>
      </trkpt>
      <trkpt lat="44.72141" lon="5.67671">
        <ele>1168.95</ele>
        <time>2018-06-17T09:15:56Z</time>
      </trkpt>
      <trkpt lat="44.72117" lon="5.67665">
        <ele>1167.97</ele>
        <time>2018-06-17T09:15:57Z</time>
      </trkpt>
      <trkpt lat="44.72091" lon="5.6766">
        <ele>1167.67</ele>
        <time>2018-06-17T09:15:58Z</time>
      </trkpt>
      <trkpt lat="44.72066" lon="5.67657">
        <ele>1166.89</ele>
        <time>2018-06-17T09:15:59Z</time>
      </trkpt>
      <trkpt lat="44.72039" lon="5.67654">
        <ele>1165.25</ele>
        <time>2018-06-17T09:16:00Z</time>
      </trkpt>
      <trkpt lat="44.72012" lon="5.67651">
        <ele>1164.76</ele>
        <time>2018-06-17T09:16:01Z</time>
      </trkpt>
      <trkpt lat="44.71984" lon="5.67649">
        <ele>1163.91</ele>
        <time>2018-06-17T09:16:02Z</time>
      </trkpt>
      <trkpt lat="44.71958" lon="5.67647">
        <ele>1163.66</ele>
        <time>2018-06-17T09:16:03Z</time>
      </trkpt>
      <trkpt lat="44.71931" lon="5.67646">
        <ele>1162.88</ele>
        <time>2018-06-17T09:16:04Z</time>
      </trkpt>
      <trkpt lat="44.71904" lon="5.67644">
        <ele>1162.65</ele>
        <time>2018-06-17T09:16:05Z</time>
      </trkpt>
      <trkpt lat="44.71877" lon="5.67643">
        <ele>1162.58</ele>
        <time>2018-06-17T09:16:06Z</time>
      </trkpt>
      <trkpt lat="44.7185" lon="5.67642">
        <ele>1162.56</ele>
        <time>2018-06-17T09:16:07Z</time>
      </trkpt>
      <trkpt lat="44.71824" lon="5.6764">
        <ele>1162.55</ele>
        <time>2018-06-17T09:16:08Z</time>
      </trkpt>
      <trkpt lat="44.71797" lon="5.67642">
        <ele>1161.85</ele>
        <time>2018-06-17T09:16:09Z</time>
      </trkpt>
      <trkpt lat="44.7177" lon="5.67644">
        <ele>1160.94</ele>
        <time>2018-06-17T09:16:10Z</time>
      </trkpt>
      <trkpt lat="44.71743" lon="5.67646">
        <ele>1159.97</ele>
        <time>2018-06-17T09:16:11Z</time>
      </trkpt>
      <trkpt lat="44.71717" lon="5.67649">
        <ele>1158.97</ele>
        <time>2018-06-17T09:16:12Z</time>
      </trkpt>
      <trkpt lat="44.71691" lon="5.67653">
        <ele>1158.68</ele>
        <time>2018-06-17T09:16:13Z</time>
      </trkpt>
      <trkpt lat="44.71664" lon="5.67658">
        <ele>1157.89</ele>
        <time>2018-06-17T09:16:14Z</time>
      </trkpt>
      <trkpt lat="44.71638" lon="5.67663">
        <ele>1158.35</ele>
        <time>2018-06-17T09:16:15Z</time>
      </trkpt>
      <trkpt lat="44.71613" lon="5.67669">
        <ele>1157.79</ele>
        <time>2018-06-17T09:16:16Z</time>
      </trkpt>
      <trkpt lat="44.71587" lon="5.67674">
        <ele>1157.62</ele>
        <time>2018-06-17T09:16:17Z</time>
      </trkpt>
      <trkpt lat="44.71561" lon="5.67678">
        <ele>1156.87</ele>
        <time>2018-06-17T09:16:18Z</time>
      </trkpt>
      <trkpt lat="44.71536" lon="5.67681">
        <ele>1156.64</ele>
        <time>2018-06-17T09:16:19Z</time>
      </trkpt>
      <trkpt lat="44.71511" lon="5.6768">
        <ele>1155.88</ele>
        <time>2018-06-17T09:16:20Z</time>
      </trkpt>
      <trkpt lat="44.71488" lon="5.67679">
        <ele>1155.65</ele>
        <time>2018-06-17T09:16:21Z</time>
      </trkpt>
      <trkpt lat="44.71465" lon="5.67678">
        <ele>1154.88</ele>
        <time>2018-06-17T09:16:22Z</time>
      </trkpt>
      <trkpt lat="44.71433" lon="5.67691">
        <ele>1154.58</ele>
        <time>2018-06-17T09:16:24Z</time>
      </trkpt>
      <trkpt lat="44.71416" lon="5.67703">
        <ele>1154.56</ele>
        <time>2018-06-17T09:16:25Z</time>
      </trkpt>
      <trkpt lat="44.714" lon="5.67715">
        <ele>1153.85</ele>
        <time>2018-06-17T09:16:26Z</time>
      </trkpt>
      <trkpt lat="44.71383" lon="5.67726">
        <ele>1153.64</ele>
        <time>2018-06-17T09:16:27Z</time>
      </trkpt>
      <trkpt lat="44.71347" lon="5.67734">
        <ele>1152.86</ele>
        <time>2018-06-17T09:16:29Z</time>
      </trkpt>
      <trkpt lat="44.71329" lon="5.67731">
        <ele>1151.94</ele>
        <time>2018-06-17T09:16:30Z</time>
      </trkpt>
      <trkpt lat="44.71309" lon="5.67727">
        <ele>1151.67</ele>
        <time>2018-06-17T09:16:31Z</time>
      </trkpt>
      <trkpt lat="44.71289" lon="5.67722">
        <ele>1150.88</ele>
        <time>2018-06-17T09:16:32Z</time>
      </trkpt>
      <trkpt lat="44.7127" lon="5.67718">
        <ele>1150.65</ele>
        <time>2018-06-17T09:16:33Z</time>
      </trkpt>
      <trkpt lat="44.71251" lon="5.67714">
        <ele>1149.88</ele>
        <time>2018-06-17T09:16:34Z</time>
      </trkpt>
      <trkpt lat="44.71217" lon="5.67715">
        <ele>1149.09</ele>
        <time>2018-06-17T09:16:36Z</time>
      </trkpt>
      <trkpt lat="44.71185" lon="5.67731">
        <ele>1147.9</ele>
        <time>2018-06-17T09:16:38Z</time>
      </trkpt>
      <trkpt lat="44.71154" lon="5.67744">
        <ele>1145.97</ele>
        <time>2018-06-17T09:16:40Z</time>
      </trkpt>
      <trkpt lat="44.7112" lon="5.67748">
        <ele>1143.77</ele>
        <time>2018-06-17T09:16:42Z</time>
      </trkpt>
      <trkpt lat="44.71094" lon="5.67742">
        <ele>1143.61</ele>
        <time>2018-06-17T09:16:43Z</time>
      </trkpt>
      <trkpt lat="44.71067" lon="5.67737">
        <ele>1142.17</ele>
        <time>2018-06-17T09:16:44Z</time>
      </trkpt>
      <trkpt lat="44.7104" lon="5.67733">
        <ele>1141.03</ele>
        <time>2018-06-17T09:16:45Z</time>
      </trkpt>
      <trkpt lat="44.71013" lon="5.67731">
        <ele>1140.69</ele>
        <time>2018-06-17T09:16:46Z</time>
      </trkpt>
      <trkpt lat="44.70984" lon="5.67729">
        <ele>1139.89</ele>
        <time>2018-06-17T09:16:47Z</time>
      </trkpt>
      <trkpt lat="44.70957" lon="5.6773">
        <ele>1138.95</ele>
        <time>2018-06-17T09:16:48Z</time>
      </trkpt>
      <trkpt lat="44.70929" lon="5.67733">
        <ele>1137.27</ele>
        <time>2018-06-17T09:16:49Z</time>
      </trkpt>
      <trkpt lat="44.70902" lon="5.67738">
        <ele>1137.46</ele>
        <time>2018-06-17T09:16:50Z</time>
      </trkpt>
      <trkpt lat="44.70874" lon="5.67743">
        <ele>1137.52</ele>
        <time>2018-06-17T09:16:51Z</time>
      </trkpt>
      <trkpt lat="44.70847" lon="5.67748">
        <ele>1136.14</ele>
        <time>2018-06-17T09:16:52Z</time>
      </trkpt>
      <trkpt lat="44.7082" lon="5.67755">
        <ele>1133.63</ele>
        <time>2018-06-17T09:16:53Z</time>
      </trkpt>
      <trkpt lat="44.70794" lon="5.67764">
        <ele>1131.47</ele>
        <time>2018-06-17T09:16:54Z</time>
      </trkpt>
      <trkpt lat="44.70768" lon="5.67775">
        <ele>1130.12</ele>
        <time>2018-06-17T09:16:55Z</time>
      </trkpt>
      <trkpt lat="44.70742" lon="5.67785">
        <ele>1129.02</ele>
        <time>2018-06-17T09:16:56Z</time>
      </trkpt>
      <trkpt lat="44.70716" lon="5.67795">
        <ele>1127.99</ele>
        <time>2018-06-17T09:16:57Z</time>
      </trkpt>
      <trkpt lat="44.70691" lon="5.67806">
        <ele>1126.98</ele>
        <time>2018-06-17T09:16:58Z</time>
      </trkpt>
      <trkpt lat="44.70666" lon="5.67819">
        <ele>1125.28</ele>
        <time>2018-06-17T09:16:59Z</time>
      </trkpt>
      <trkpt lat="44.70641" lon="5.67834">
        <ele>1124.07</ele>
        <time>2018-06-17T09:17:00Z</time>
      </trkpt>
      <trkpt lat="44.70616" lon="5.6785">
        <ele>1123.7</ele>
        <time>2018-06-17T09:17:01Z</time>
      </trkpt>
      <trkpt lat="44.70591" lon="5.67866">
        <ele>1122.89</ele>
        <time>2018-06-17T09:17:02Z</time>
      </trkpt>
      <trkpt lat="44.70566" lon="5.67881">
        <ele>1121.95</ele>
        <time>2018-06-17T09:17:03Z</time>
      </trkpt>
      <trkpt lat="44.70542" lon="5.67896">
        <ele>1120.97</ele>
        <time>2018-06-17T09:17:04Z</time>
      </trkpt>
      <trkpt lat="44.70517" lon="5.67912">
        <ele>1120.67</ele>
        <time>2018-06-17T09:17:05Z</time>
      </trkpt>
      <trkpt lat="44.70492" lon="5.67927">
        <ele>1119.89</ele>
        <time>2018-06-17T09:17:06Z</time>
      </trkpt>
      <trkpt lat="44.70467" lon="5.67942">
        <ele>1119.65</ele>
        <time>2018-06-17T09:17:07Z</time>
      </trkpt>
      <trkpt lat="44.70444" lon="5.67958">
        <ele>1118.88</ele>
        <time>2018-06-17T09:17:08Z</time>
      </trkpt>
      <trkpt lat="44.7042" lon="5.67977">
        <ele>1117.95</ele>
        <time>2018-06-17T09:17:09Z</time>
      </trkpt>
      <trkpt lat="44.70397" lon="5.67996">
        <ele>1117.67</ele>
        <time>2018-06-17T09:17:10Z</time>
      </trkpt>
      <trkpt lat="44.70375" lon="5.68016">
        <ele>1117.58</ele>
        <time>2018-06-17T09:17:11Z</time>
      </trkpt>
      <trkpt lat="44.70354" lon="5.68036">
        <ele>1116.86</ele>
        <time>2018-06-17T09:17:12Z</time>
      </trkpt>
      <trkpt lat="44.70332" lon="5.68056">
        <ele>1116.64</ele>
        <time>2018-06-17T09:17:13Z</time>
      </trkpt>
      <trkpt lat="44.70311" lon="5.68074">
        <ele>1115.18</ele>
        <time>2018-06-17T09:17:14Z</time>
      </trkpt>
      <trkpt lat="44.70289" lon="5.68093">
        <ele>1114.04</ele>
        <time>2018-06-17T09:17:15Z</time>
      </trkpt>
      <trkpt lat="44.70268" lon="5.6811">
        <ele>1112.99</ele>
        <time>2018-06-17T09:17:16Z</time>
      </trkpt>
      <trkpt lat="44.70245" lon="5.68125">
        <ele>1112.68</ele>
        <time>2018-06-17T09:17:17Z</time>
      </trkpt>
      <trkpt lat="44.70222" lon="5.68138">
        <ele>1112.59</ele>
        <time>2018-06-17T09:17:18Z</time>
      </trkpt>
      <trkpt lat="44.70199" lon="5.68152">
        <ele>1112.56</ele>
        <time>2018-06-17T09:17:19Z</time>
      </trkpt>
      <trkpt lat="44.70177" lon="5.68161">
        <ele>1112.55</ele>
        <time>2018-06-17T09:17:20Z</time>
      </trkpt>
      <trkpt lat="44.70156" lon="5.68165">
        <ele>1111.85</ele>
        <time>2018-06-17T09:17:21Z</time>
      </trkpt>
      <trkpt lat="44.70135" lon="5.68173">
        <ele>1111.64</ele>
        <time>2018-06-17T09:17:22Z</time>
      </trkpt>
      <trkpt lat="44.70115" lon="5.6818">
        <ele>1110.88</ele>
        <time>2018-06-17T09:17:23Z</time>
      </trkpt>
      <trkpt lat="44.70095" lon="5.68188">
        <ele>1110.65</ele>
        <time>2018-06-17T09:17:24Z</time>
      </trkpt>
      <trkpt lat="44.70076" lon="5.68196">
        <ele>1109.88</ele>
        <time>2018-06-17T09:17:25Z</time>
      </trkpt>
      <trkpt lat="44.70057" lon="5.68202">
        <ele>1108.95</ele>
        <time>2018-06-17T09:17:26Z</time>
      </trkpt>
      <trkpt lat="44.70037" lon="5.68209">
        <ele>1108.67</ele>
        <time>2018-06-17T09:17:27Z</time>
      </trkpt>
      <trkpt lat="44.70017" lon="5.68216">
        <ele>1108.58</ele>
        <time>2018-06-17T09:17:28Z</time>
      </trkpt>
      <trkpt lat="44.69997" lon="5.68222">
        <ele>1108.56</ele>
        <time>2018-06-17T09:17:29Z</time>
      </trkpt>
      <trkpt lat="44.69977" lon="5.68225">
        <ele>1108.55</ele>
        <time>2018-06-17T09:17:30Z</time>
      </trkpt>
      <trkpt lat="44.69956" lon="5.6823">
        <ele>1107.85</ele>
        <time>2018-06-17T09:17:31Z</time>
      </trkpt>
      <trkpt lat="44.69935" lon="5.68235">
        <ele>1107.64</ele>
        <time>2018-06-17T09:17:32Z</time>
      </trkpt>
      <trkpt lat="44.69913" lon="5.68243">
        <ele>1106.18</ele>
        <time>2018-06-17T09:17:33Z</time>
      </trkpt>
      <trkpt lat="44.69893" lon="5.6825">
        <ele>1104.34</ele>
        <time>2018-06-17T09:17:34Z</time>
      </trkpt>
      <trkpt lat="44.69872" lon="5.68257">
        <ele>1103.78</ele>
        <time>2018-06-17T09:17:35Z</time>
      </trkpt>
      <trkpt lat="44.69851" lon="5.68264">
        <ele>1102.22</ele>
        <time>2018-06-17T09:17:36Z</time>
      </trkpt>
      <trkpt lat="44.6983" lon="5.68272">
        <ele>1097.55</ele>
        <time>2018-06-17T09:17:37Z</time>
      </trkpt>
      <trkpt lat="44.69808" lon="5.68279">
        <ele>1095.45</ele>
        <time>2018-06-17T09:17:38Z</time>
      </trkpt>
      <trkpt lat="44.69786" lon="5.68287">
        <ele>1089.22</ele>
        <time>2018-06-17T09:17:39Z</time>
      </trkpt>
      <trkpt lat="44.69763" lon="5.68294">
        <ele>1083.85</ele>
        <time>2018-06-17T09:17:40Z</time>
      </trkpt>
      <trkpt lat="44.69739" lon="5.68301">
        <ele>1080.84</ele>
        <time>2018-06-17T09:17:41Z</time>
      </trkpt>
      <trkpt lat="44.69715" lon="5.68309">
        <ele>1078.54</ele>
        <time>2018-06-17T09:17:42Z</time>
      </trkpt>
      <trkpt lat="44.69691" lon="5.68316">
        <ele>1077.14</ele>
        <time>2018-06-17T09:17:43Z</time>
      </trkpt>
      <trkpt lat="44.69666" lon="5.68324">
        <ele>1075.33</ele>
        <time>2018-06-17T09:17:44Z</time>
      </trkpt>
      <trkpt lat="44.69641" lon="5.68333">
        <ele>1074.78</ele>
        <time>2018-06-17T09:17:45Z</time>
      </trkpt>
      <trkpt lat="44.69617" lon="5.68341">
        <ele>1073.92</ele>
        <time>2018-06-17T09:17:46Z</time>
      </trkpt>
      <trkpt lat="44.69592" lon="5.68348">
        <ele>1072.96</ele>
        <time>2018-06-17T09:17:47Z</time>
      </trkpt>
      <trkpt lat="44.69567" lon="5.68357">
        <ele>1072.67</ele>
        <time>2018-06-17T09:17:48Z</time>
      </trkpt>
      <trkpt lat="44.69543" lon="5.68365">
        <ele>1071.89</ele>
        <time>2018-06-17T09:17:49Z</time>
      </trkpt>
      <trkpt lat="44.69519" lon="5.68372">
        <ele>1070.95</ele>
        <time>2018-06-17T09:17:50Z</time>
      </trkpt>
      <trkpt lat="44.69496" lon="5.6838">
        <ele>1070.67</ele>
        <time>2018-06-17T09:17:51Z</time>
      </trkpt>
      <trkpt lat="44.69473" lon="5.68388">
        <ele>1069.88</ele>
        <time>2018-06-17T09:17:52Z</time>
      </trkpt>
      <trkpt lat="44.69451" lon="5.68395">
        <ele>1069.65</ele>
        <time>2018-06-17T09:17:53Z</time>
      </trkpt>
      <trkpt lat="44.6943" lon="5.68402">
        <ele>1069.58</ele>
        <time>2018-06-17T09:17:54Z</time>
      </trkpt>
      <trkpt lat="44.69408" lon="5.6841">
        <ele>1068.16</ele>
        <time>2018-06-17T09:17:55Z</time>
      </trkpt>
      <trkpt lat="44.69386" lon="5.68419">
        <ele>1068.43</ele>
        <time>2018-06-17T09:17:56Z</time>
      </trkpt>
      <trkpt lat="44.69362" lon="5.68431">
        <ele>1067.81</ele>
        <time>2018-06-17T09:17:57Z</time>
      </trkpt>
      <trkpt lat="44.69341" lon="5.68445">
        <ele>1067.63</ele>
        <time>2018-06-17T09:17:58Z</time>
      </trkpt>
      <trkpt lat="44.6932" lon="5.68461">
        <ele>1067.57</ele>
        <time>2018-06-17T09:17:59Z</time>
      </trkpt>
      <trkpt lat="44.69301" lon="5.6848">
        <ele>1067.56</ele>
        <time>2018-06-17T09:18:00Z</time>
      </trkpt>
      <trkpt lat="44.69282" lon="5.68502">
        <ele>1066.85</ele>
        <time>2018-06-17T09:18:01Z</time>
      </trkpt>
      <trkpt lat="44.69264" lon="5.68525">
        <ele>1066.64</ele>
        <time>2018-06-17T09:18:02Z</time>
      </trkpt>
      <trkpt lat="44.69246" lon="5.68547">
        <ele>1065.88</ele>
        <time>2018-06-17T09:18:03Z</time>
      </trkpt>
      <trkpt lat="44.69227" lon="5.6857">
        <ele>1064.95</ele>
        <time>2018-06-17T09:18:04Z</time>
      </trkpt>
      <trkpt lat="44.69209" lon="5.68589">
        <ele>1063.27</ele>
        <time>2018-06-17T09:18:05Z</time>
      </trkpt>
      <trkpt lat="44.69189" lon="5.68605">
        <ele>1061.36</ele>
        <time>2018-06-17T09:18:06Z</time>
      </trkpt>
      <trkpt lat="44.69168" lon="5.68622">
        <ele>1060.79</ele>
        <time>2018-06-17T09:18:07Z</time>
      </trkpt>
      <trkpt lat="44.69145" lon="5.68637">
        <ele>1060.62</ele>
        <time>2018-06-17T09:18:08Z</time>
      </trkpt>
      <trkpt lat="44.6912" lon="5.68643">
        <ele>1059.17</ele>
        <time>2018-06-17T09:18:09Z</time>
      </trkpt>
      <trkpt lat="44.69095" lon="5.68655">
        <ele>1058.73</ele>
        <time>2018-06-17T09:18:10Z</time>
      </trkpt>
      <trkpt lat="44.6907" lon="5.68667">
        <ele>1057.2</ele>
        <time>2018-06-17T09:18:11Z</time>
      </trkpt>
      <trkpt lat="44.69046" lon="5.68679">
        <ele>1055.34</ele>
        <time>2018-06-17T09:18:12Z</time>
      </trkpt>
      <trkpt lat="44.69022" lon="5.68692">
        <ele>1054.09</ele>
        <time>2018-06-17T09:18:13Z</time>
      </trkpt>
      <trkpt lat="44.68999" lon="5.68705">
        <ele>1053.01</ele>
        <time>2018-06-17T09:18:14Z</time>
      </trkpt>
      <trkpt lat="44.68976" lon="5.68719">
        <ele>1051.99</ele>
        <time>2018-06-17T09:18:15Z</time>
      </trkpt>
      <trkpt lat="44.68953" lon="5.68732">
        <ele>1050.28</ele>
        <time>2018-06-17T09:18:16Z</time>
      </trkpt>
      <trkpt lat="44.6893" lon="5.68746">
        <ele>1049.77</ele>
        <time>2018-06-17T09:18:17Z</time>
      </trkpt>
      <trkpt lat="44.68907" lon="5.6876">
        <ele>1048.91</ele>
        <time>2018-06-17T09:18:18Z</time>
      </trkpt>
      <trkpt lat="44.68885" lon="5.68774">
        <ele>1048.66</ele>
        <time>2018-06-17T09:18:19Z</time>
      </trkpt>
      <trkpt lat="44.68862" lon="5.68787">
        <ele>1048.58</ele>
        <time>2018-06-17T09:18:20Z</time>
      </trkpt>
      <trkpt lat="44.68839" lon="5.68801">
        <ele>1047.86</ele>
        <time>2018-06-17T09:18:21Z</time>
      </trkpt>
      <trkpt lat="44.68817" lon="5.68815">
        <ele>1047.64</ele>
        <time>2018-06-17T09:18:22Z</time>
      </trkpt>
      <trkpt lat="44.68794" lon="5.68828">
        <ele>1047.58</ele>
        <time>2018-06-17T09:18:23Z</time>
      </trkpt>
      <trkpt lat="44.68773" lon="5.68842">
        <ele>1048.26</ele>
        <time>2018-06-17T09:18:24Z</time>
      </trkpt>
      <trkpt lat="44.68753" lon="5.68858">
        <ele>1048.46</ele>
        <time>2018-06-17T09:18:25Z</time>
      </trkpt>
      <trkpt lat="44.68732" lon="5.68874">
        <ele>1048.52</ele>
        <time>2018-06-17T09:18:26Z</time>
      </trkpt>
      <trkpt lat="44.68714" lon="5.68894">
        <ele>1047.84</ele>
        <time>2018-06-17T09:18:27Z</time>
      </trkpt>
      <trkpt lat="44.68697" lon="5.68916">
        <ele>1048.34</ele>
        <time>2018-06-17T09:18:28Z</time>
      </trkpt>
      <trkpt lat="44.68682" lon="5.68942">
        <ele>1047.08</ele>
        <time>2018-06-17T09:18:29Z</time>
      </trkpt>
      <trkpt lat="44.68667" lon="5.68968">
        <ele>1045.31</ele>
        <time>2018-06-17T09:18:30Z</time>
      </trkpt>
      <trkpt lat="44.68652" lon="5.68994">
        <ele>1043.38</ele>
        <time>2018-06-17T09:18:31Z</time>
      </trkpt>
      <trkpt lat="44.68637" lon="5.69021">
        <ele>1042.1</ele>
        <time>2018-06-17T09:18:32Z</time>
      </trkpt>
      <trkpt lat="44.68622" lon="5.69048">
        <ele>1041.01</ele>
        <time>2018-06-17T09:18:33Z</time>
      </trkpt>
      <trkpt lat="44.68606" lon="5.69074">
        <ele>1039.99</ele>
        <time>2018-06-17T09:18:34Z</time>
      </trkpt>
      <trkpt lat="44.68591" lon="5.69101">
        <ele>1038.98</ele>
        <time>2018-06-17T09:18:35Z</time>
      </trkpt>
      <trkpt lat="44.68575" lon="5.69129">
        <ele>1038.68</ele>
        <time>2018-06-17T09:18:36Z</time>
      </trkpt>
      <trkpt lat="44.6856" lon="5.69156">
        <ele>1037.19</ele>
        <time>2018-06-17T09:18:37Z</time>
      </trkpt>
      <trkpt lat="44.68544" lon="5.69183">
        <ele>1036.74</ele>
        <time>2018-06-17T09:18:38Z</time>
      </trkpt>
      <trkpt lat="44.68529" lon="5.6921">
        <ele>1036.61</ele>
        <time>2018-06-17T09:18:39Z</time>
      </trkpt>
      <trkpt lat="44.68513" lon="5.69236">
        <ele>1035.87</ele>
        <time>2018-06-17T09:18:40Z</time>
      </trkpt>
      <trkpt lat="44.68497" lon="5.69263">
        <ele>1034.94</ele>
        <time>2018-06-17T09:18:41Z</time>
      </trkpt>
      <trkpt lat="44.6848" lon="5.69288">
        <ele>1034.67</ele>
        <time>2018-06-17T09:18:42Z</time>
      </trkpt>
      <trkpt lat="44.68461" lon="5.6931">
        <ele>1033.88</ele>
        <time>2018-06-17T09:18:43Z</time>
      </trkpt>
      <trkpt lat="44.68441" lon="5.69329">
        <ele>1032.95</ele>
        <time>2018-06-17T09:18:44Z</time>
      </trkpt>
      <trkpt lat="44.68419" lon="5.69344">
        <ele>1031.97</ele>
        <time>2018-06-17T09:18:45Z</time>
      </trkpt>
      <trkpt lat="44.68398" lon="5.69358">
        <ele>1031.67</ele>
        <time>2018-06-17T09:18:46Z</time>
      </trkpt>
      <trkpt lat="44.68373" lon="5.69363">
        <ele>1030.89</ele>
        <time>2018-06-17T09:18:47Z</time>
      </trkpt>
      <trkpt lat="44.68349" lon="5.69367">
        <ele>1030.65</ele>
        <time>2018-06-17T09:18:48Z</time>
      </trkpt>
      <trkpt lat="44.68324" lon="5.69368">
        <ele>1030.58</ele>
        <time>2018-06-17T09:18:49Z</time>
      </trkpt>
      <trkpt lat="44.683" lon="5.69365">
        <ele>1030.56</ele>
        <time>2018-06-17T09:18:50Z</time>
      </trkpt>
      <trkpt lat="44.68274" lon="5.69359">
        <ele>1030.55</ele>
        <time>2018-06-17T09:18:51Z</time>
      </trkpt>
      <trkpt lat="44.68249" lon="5.69353">
        <ele>1030.55</ele>
        <time>2018-06-17T09:18:52Z</time>
      </trkpt>
      <trkpt lat="44.68223" lon="5.69346">
        <ele>1030.55</ele>
        <time>2018-06-17T09:18:53Z</time>
      </trkpt>
      <trkpt lat="44.68198" lon="5.69341">
        <ele>1030.55</ele>
        <time>2018-06-17T09:18:54Z</time>
      </trkpt>
      <trkpt lat="44.68173" lon="5.69335">
        <ele>1030.55</ele>
        <time>2018-06-17T09:18:55Z</time>
      </trkpt>
      <trkpt lat="44.68148" lon="5.69329">
        <ele>1029.85</ele>
        <time>2018-06-17T09:18:56Z</time>
      </trkpt>
      <trkpt lat="44.68123" lon="5.69322">
        <ele>1028.94</ele>
        <time>2018-06-17T09:18:57Z</time>
      </trkpt>
      <trkpt lat="44.68097" lon="5.69316">
        <ele>1029.36</ele>
        <time>2018-06-17T09:18:58Z</time>
      </trkpt>
      <trkpt lat="44.68072" lon="5.6931">
        <ele>1029.49</ele>
        <time>2018-06-17T09:18:59Z</time>
      </trkpt>
      <trkpt lat="44.68048" lon="5.69305">
        <ele>1030.23</ele>
        <time>2018-06-17T09:19:00Z</time>
      </trkpt>
      <trkpt lat="44.68024" lon="5.693">
        <ele>1031.15</ele>
        <time>2018-06-17T09:19:01Z</time>
      </trkpt>
      <trkpt lat="44.68" lon="5.693">
        <ele>1032.13</ele>
        <time>2018-06-17T09:19:02Z</time>
      </trkpt>
      <trkpt lat="44.67977" lon="5.69303">
        <ele>1032.42</ele>
        <time>2018-06-17T09:19:03Z</time>
      </trkpt>
      <trkpt lat="44.67953" lon="5.69312">
        <ele>1033.21</ele>
        <time>2018-06-17T09:19:04Z</time>
      </trkpt>
      <trkpt lat="44.6793" lon="5.69324">
        <ele>1033.45</ele>
        <time>2018-06-17T09:19:05Z</time>
      </trkpt>
      <trkpt lat="44.67909" lon="5.69338">
        <ele>1032.82</ele>
        <time>2018-06-17T09:19:06Z</time>
      </trkpt>
      <trkpt lat="44.67888" lon="5.69357">
        <ele>1032.63</ele>
        <time>2018-06-17T09:19:07Z</time>
      </trkpt>
      <trkpt lat="44.67868" lon="5.69379">
        <ele>1032.57</ele>
        <time>2018-06-17T09:19:08Z</time>
      </trkpt>
      <trkpt lat="44.6785" lon="5.69404">
        <ele>1032.56</ele>
        <time>2018-06-17T09:19:09Z</time>
      </trkpt>
      <trkpt lat="44.67833" lon="5.69432">
        <ele>1031.15</ele>
        <time>2018-06-17T09:19:10Z</time>
      </trkpt>
      <trkpt lat="44.67817" lon="5.69461">
        <ele>1030.73</ele>
        <time>2018-06-17T09:19:11Z</time>
      </trkpt>
      <trkpt lat="44.67802" lon="5.69489">
        <ele>1029.9</ele>
        <time>2018-06-17T09:19:12Z</time>
      </trkpt>
      <trkpt lat="44.67786" lon="5.69517">
        <ele>1028.95</ele>
        <time>2018-06-17T09:19:13Z</time>
      </trkpt>
      <trkpt lat="44.6777" lon="5.69545">
        <ele>1027.97</ele>
        <time>2018-06-17T09:19:14Z</time>
      </trkpt>
      <trkpt lat="44.67754" lon="5.69574">
        <ele>1028.37</ele>
        <time>2018-06-17T09:19:15Z</time>
      </trkpt>
      <trkpt lat="44.67739" lon="5.69602">
        <ele>1028.5</ele>
        <time>2018-06-17T09:19:16Z</time>
      </trkpt>
      <trkpt lat="44.67723" lon="5.6963">
        <ele>1029.23</ele>
        <time>2018-06-17T09:19:17Z</time>
      </trkpt>
      <trkpt lat="44.67707" lon="5.69655">
        <ele>1029.45</ele>
        <time>2018-06-17T09:19:18Z</time>
      </trkpt>
      <trkpt lat="44.67689" lon="5.69678">
        <ele>1029.52</ele>
        <time>2018-06-17T09:19:19Z</time>
      </trkpt>
      <trkpt lat="44.67669" lon="5.69699">
        <ele>1029.54</ele>
        <time>2018-06-17T09:19:20Z</time>
      </trkpt>
      <trkpt lat="44.67649" lon="5.6972">
        <ele>1028.85</ele>
        <time>2018-06-17T09:19:21Z</time>
      </trkpt>
      <trkpt lat="44.67628" lon="5.69741">
        <ele>1028.64</ele>
        <time>2018-06-17T09:19:22Z</time>
      </trkpt>
      <trkpt lat="44.67607" lon="5.6976">
        <ele>1027.87</ele>
        <time>2018-06-17T09:19:23Z</time>
      </trkpt>
      <trkpt lat="44.67585" lon="5.69777">
        <ele>1026.95</ele>
        <time>2018-06-17T09:19:24Z</time>
      </trkpt>
      <trkpt lat="44.67563" lon="5.69793">
        <ele>1026.67</ele>
        <time>2018-06-17T09:19:25Z</time>
      </trkpt>
      <trkpt lat="44.67536" lon="5.69798">
        <ele>1026.58</ele>
        <time>2018-06-17T09:19:26Z</time>
      </trkpt>
      <trkpt lat="44.67509" lon="5.69805">
        <ele>1025.86</ele>
        <time>2018-06-17T09:19:27Z</time>
      </trkpt>
      <trkpt lat="44.67483" lon="5.6981">
        <ele>1025.64</ele>
        <time>2018-06-17T09:19:28Z</time>
      </trkpt>
      <trkpt lat="44.67458" lon="5.69814">
        <ele>1025.58</ele>
        <time>2018-06-17T09:19:29Z</time>
      </trkpt>
      <trkpt lat="44.67431" lon="5.69814">
        <ele>1024.86</ele>
        <time>2018-06-17T09:19:30Z</time>
      </trkpt>
      <trkpt lat="44.67406" lon="5.69815">
        <ele>1024.64</ele>
        <time>2018-06-17T09:19:31Z</time>
      </trkpt>
      <trkpt lat="44.67381" lon="5.69814">
        <ele>1024.58</ele>
        <time>2018-06-17T09:19:32Z</time>
      </trkpt>
      <trkpt lat="44.6736" lon="5.69817">
        <ele>1022.46</ele>
        <time>2018-06-17T09:19:33Z</time>
      </trkpt>
      <trkpt lat="44.67338" lon="5.69821">
        <ele>1021.82</ele>
        <time>2018-06-17T09:19:34Z</time>
      </trkpt>
      <trkpt lat="44.67317" lon="5.6982">
        <ele>1021.63</ele>
        <time>2018-06-17T09:19:35Z</time>
      </trkpt>
      <trkpt lat="44.67298" lon="5.69816">
        <ele>1020.87</ele>
        <time>2018-06-17T09:19:36Z</time>
      </trkpt>
      <trkpt lat="44.67279" lon="5.6981">
        <ele>1020.65</ele>
        <time>2018-06-17T09:19:37Z</time>
      </trkpt>
      <trkpt lat="44.67244" lon="5.69803">
        <ele>1018.04</ele>
        <time>2018-06-17T09:19:39Z</time>
      </trkpt>
      <trkpt lat="44.67208" lon="5.69805">
        <ele>1015.98</ele>
        <time>2018-06-17T09:19:41Z</time>
      </trkpt>
      <trkpt lat="44.6719" lon="5.69807">
        <ele>1014.98</ele>
        <time>2018-06-17T09:19:42Z</time>
      </trkpt>
      <trkpt lat="44.67171" lon="5.6981">
        <ele>1014.68</ele>
        <time>2018-06-17T09:19:43Z</time>
      </trkpt>
      <trkpt lat="44.67153" lon="5.69812">
        <ele>1014.59</ele>
        <time>2018-06-17T09:19:44Z</time>
      </trkpt>
      <trkpt lat="44.67135" lon="5.69812">
        <ele>1014.56</ele>
        <time>2018-06-17T09:19:45Z</time>
      </trkpt>
      <trkpt lat="44.67116" lon="5.69809">
        <ele>1014.55</ele>
        <time>2018-06-17T09:19:46Z</time>
      </trkpt>
      <trkpt lat="44.67098" lon="5.69801">
        <ele>1014.55</ele>
        <time>2018-06-17T09:19:47Z</time>
      </trkpt>
      <trkpt lat="44.67079" lon="5.69793">
        <ele>1013.85</ele>
        <time>2018-06-17T09:19:48Z</time>
      </trkpt>
      <trkpt lat="44.6706" lon="5.69788">
        <ele>1014.34</ele>
        <time>2018-06-17T09:19:49Z</time>
      </trkpt>
      <trkpt lat="44.67042" lon="5.69783">
        <ele>1014.49</ele>
        <time>2018-06-17T09:19:50Z</time>
      </trkpt>
      <trkpt lat="44.67023" lon="5.69783">
        <ele>1013.83</ele>
        <time>2018-06-17T09:19:51Z</time>
      </trkpt>
      <trkpt lat="44.67003" lon="5.69788">
        <ele>1014.33</ele>
        <time>2018-06-17T09:19:52Z</time>
      </trkpt>
      <trkpt lat="44.66977" lon="5.69804">
        <ele>1013.78</ele>
        <time>2018-06-17T09:19:53Z</time>
      </trkpt>
      <trkpt lat="44.66956" lon="5.69814">
        <ele>1014.32</ele>
        <time>2018-06-17T09:19:54Z</time>
      </trkpt>
      <trkpt lat="44.66935" lon="5.69822">
        <ele>1013.78</ele>
        <time>2018-06-17T09:19:55Z</time>
      </trkpt>
      <trkpt lat="44.66902" lon="5.69817">
        <ele>1012.87</ele>
        <time>2018-06-17T09:19:57Z</time>
      </trkpt>
      <trkpt lat="44.66884" lon="5.69808">
        <ele>1012.64</ele>
        <time>2018-06-17T09:19:58Z</time>
      </trkpt>
      <trkpt lat="44.66865" lon="5.69796">
        <ele>1011.88</ele>
        <time>2018-06-17T09:19:59Z</time>
      </trkpt>
      <trkpt lat="44.66843" lon="5.69783">
        <ele>1010.25</ele>
        <time>2018-06-17T09:20:00Z</time>
      </trkpt>
      <trkpt lat="44.6682" lon="5.6977">
        <ele>1009.76</ele>
        <time>2018-06-17T09:20:01Z</time>
      </trkpt>
      <trkpt lat="44.66798" lon="5.69757">
        <ele>1008.91</ele>
        <time>2018-06-17T09:20:02Z</time>
      </trkpt>
      <trkpt lat="44.66777" lon="5.69745">
        <ele>1008.66</ele>
        <time>2018-06-17T09:20:03Z</time>
      </trkpt>
      <trkpt lat="44.66758" lon="5.69736">
        <ele>1009.28</ele>
        <time>2018-06-17T09:20:04Z</time>
      </trkpt>
      <trkpt lat="44.66739" lon="5.69728">
        <ele>1008.77</ele>
        <time>2018-06-17T09:20:05Z</time>
      </trkpt>
      <trkpt lat="44.66706" lon="5.6972">
        <ele>1007.66</ele>
        <time>2018-06-17T09:20:07Z</time>
      </trkpt>
      <trkpt lat="44.6668" lon="5.69716">
        <ele>1005.95</ele>
        <time>2018-06-17T09:20:09Z</time>
      </trkpt>
      <trkpt lat="44.6666" lon="5.69725">
        <ele>1006.47</ele>
        <time>2018-06-17T09:20:12Z</time>
      </trkpt>
      <trkpt lat="44.66682" lon="5.69733">
        <ele>1006.86</ele>
        <time>2018-06-17T09:20:17Z</time>
      </trkpt>
      <trkpt lat="44.667" lon="5.69739">
        <ele>1005.56</ele>
        <time>2018-06-17T09:20:21Z</time>
      </trkpt>
      <trkpt lat="44.66718" lon="5.69745">
        <ele>990.77</ele>
        <time>2018-06-17T09:24:51Z</time>
      </trkpt>
      <trkpt lat="44.66736" lon="5.69747">
        <ele>994.89</ele>
        <time>2018-06-17T09:24:55Z</time>
      </trkpt>
      <trkpt lat="44.66718" lon="5.69726">
        <ele>999.42</ele>
        <time>2018-06-17T09:25:02Z</time>
      </trkpt>
      <trkpt lat="44.66694" lon="5.69722">
        <ele>1000.45</ele>
        <time>2018-06-17T09:25:04Z</time>
      </trkpt>
      <trkpt lat="44.66668" lon="5.69717">
        <ele>1001.24</ele>
        <time>2018-06-17T09:25:06Z</time>
      </trkpt>
      <trkpt lat="44.66641" lon="5.69705">
        <ele>1002.43</ele>
        <time>2018-06-17T09:25:08Z</time>
      </trkpt>
      <trkpt lat="44.66612" lon="5.69689">
        <ele>1003.24</ele>
        <time>2018-06-17T09:25:10Z</time>
      </trkpt>
      <trkpt lat="44.66586" lon="5.69668">
        <ele>1002.61</ele>
        <time>2018-06-17T09:25:12Z</time>
      </trkpt>
      <trkpt lat="44.6656" lon="5.69643">
        <ele>1001.85</ele>
        <time>2018-06-17T09:25:14Z</time>
      </trkpt>
      <trkpt lat="44.66531" lon="5.69618">
        <ele>1001.79</ele>
        <time>2018-06-17T09:25:16Z</time>
      </trkpt>
      <trkpt lat="44.66515" lon="5.69609">
        <ele>1001.62</ele>
        <time>2018-06-17T09:25:17Z</time>
      </trkpt>
      <trkpt lat="44.66497" lon="5.69602">
        <ele>1001.57</ele>
        <time>2018-06-17T09:25:18Z</time>
      </trkpt>
      <trkpt lat="44.66477" lon="5.69597">
        <ele>1000.85</ele>
        <time>2018-06-17T09:25:19Z</time>
      </trkpt>
      <trkpt lat="44.66458" lon="5.69594">
        <ele>1001.34</ele>
        <time>2018-06-17T09:25:20Z</time>
      </trkpt>
      <trkpt lat="44.66437" lon="5.69591">
        <ele>1002.19</ele>
        <time>2018-06-17T09:25:21Z</time>
      </trkpt>
      <trkpt lat="44.66418" lon="5.69589">
        <ele>1002.44</ele>
        <time>2018-06-17T09:25:22Z</time>
      </trkpt>
      <trkpt lat="44.66383" lon="5.69586">
        <ele>1000.72</ele>
        <time>2018-06-17T09:25:24Z</time>
      </trkpt>
      <trkpt lat="44.66348" lon="5.69582">
        <ele>1001.47</ele>
        <time>2018-06-17T09:25:26Z</time>
      </trkpt>
      <trkpt lat="44.66313" lon="5.69573">
        <ele>1000.84</ele>
        <time>2018-06-17T09:25:28Z</time>
      </trkpt>
      <trkpt lat="44.66294" lon="5.69569">
        <ele>1000.64</ele>
        <time>2018-06-17T09:25:29Z</time>
      </trkpt>
      <trkpt lat="44.66275" lon="5.69563">
        <ele>1001.27</ele>
        <time>2018-06-17T09:25:30Z</time>
      </trkpt>
      <trkpt lat="44.66255" lon="5.69557">
        <ele>1001.47</ele>
        <time>2018-06-17T09:25:31Z</time>
      </trkpt>
      <trkpt lat="44.66234" lon="5.69551">
        <ele>1001.52</ele>
        <time>2018-06-17T09:25:32Z</time>
      </trkpt>
      <trkpt lat="44.66212" lon="5.69545">
        <ele>1001.54</ele>
        <time>2018-06-17T09:25:33Z</time>
      </trkpt>
      <trkpt lat="44.66189" lon="5.69537">
        <ele>1001.55</ele>
        <time>2018-06-17T09:25:34Z</time>
      </trkpt>
      <trkpt lat="44.66166" lon="5.6953">
        <ele>1000.85</ele>
        <time>2018-06-17T09:25:35Z</time>
      </trkpt>
      <trkpt lat="44.66143" lon="5.69523">
        <ele>1000.64</ele>
        <time>2018-06-17T09:25:36Z</time>
      </trkpt>
      <trkpt lat="44.66119" lon="5.69516">
        <ele>1000.57</ele>
        <time>2018-06-17T09:25:37Z</time>
      </trkpt>
      <trkpt lat="44.66094" lon="5.69509">
        <ele>1000.56</ele>
        <time>2018-06-17T09:25:38Z</time>
      </trkpt>
      <trkpt lat="44.6607" lon="5.69503">
        <ele>1001.25</ele>
        <time>2018-06-17T09:25:39Z</time>
      </trkpt>
      <trkpt lat="44.66046" lon="5.69496">
        <ele>1001.46</ele>
        <time>2018-06-17T09:25:40Z</time>
      </trkpt>
      <trkpt lat="44.66022" lon="5.69489">
        <ele>1001.52</ele>
        <time>2018-06-17T09:25:41Z</time>
      </trkpt>
      <trkpt lat="44.65999" lon="5.69481">
        <ele>1001.54</ele>
        <time>2018-06-17T09:25:42Z</time>
      </trkpt>
      <trkpt lat="44.65976" lon="5.69473">
        <ele>1001.55</ele>
        <time>2018-06-17T09:25:43Z</time>
      </trkpt>
      <trkpt lat="44.65953" lon="5.69465">
        <ele>1000.85</ele>
        <time>2018-06-17T09:25:44Z</time>
      </trkpt>
      <trkpt lat="44.6593" lon="5.69457">
        <ele>999.94</ele>
        <time>2018-06-17T09:25:45Z</time>
      </trkpt>
      <trkpt lat="44.65907" lon="5.69451">
        <ele>998.96</ele>
        <time>2018-06-17T09:25:46Z</time>
      </trkpt>
      <trkpt lat="44.65883" lon="5.69443">
        <ele>997.97</ele>
        <time>2018-06-17T09:25:47Z</time>
      </trkpt>
      <trkpt lat="44.65859" lon="5.69437">
        <ele>996.98</ele>
        <time>2018-06-17T09:25:48Z</time>
      </trkpt>
      <trkpt lat="44.65834" lon="5.6943">
        <ele>995.98</ele>
        <time>2018-06-17T09:25:49Z</time>
      </trkpt>
      <trkpt lat="44.65811" lon="5.69422">
        <ele>994.98</ele>
        <time>2018-06-17T09:25:50Z</time>
      </trkpt>
      <trkpt lat="44.65787" lon="5.69414">
        <ele>993.98</ele>
        <time>2018-06-17T09:25:51Z</time>
      </trkpt>
      <trkpt lat="44.65763" lon="5.69406">
        <ele>993.68</ele>
        <time>2018-06-17T09:25:52Z</time>
      </trkpt>
      <trkpt lat="44.65739" lon="5.694">
        <ele>993.59</ele>
        <time>2018-06-17T09:25:53Z</time>
      </trkpt>
      <trkpt lat="44.65715" lon="5.69396">
        <ele>993.56</ele>
        <time>2018-06-17T09:25:54Z</time>
      </trkpt>
      <trkpt lat="44.6569" lon="5.69394">
        <ele>993.55</ele>
        <time>2018-06-17T09:25:55Z</time>
      </trkpt>
      <trkpt lat="44.65666" lon="5.69394">
        <ele>993.55</ele>
        <time>2018-06-17T09:25:56Z</time>
      </trkpt>
      <trkpt lat="44.65642" lon="5.69395">
        <ele>994.95</ele>
        <time>2018-06-17T09:25:57Z</time>
      </trkpt>
      <trkpt lat="44.65619" lon="5.69397">
        <ele>996.07</ele>
        <time>2018-06-17T09:25:58Z</time>
      </trkpt>
      <trkpt lat="44.65595" lon="5.69398">
        <ele>995.7</ele>
        <time>2018-06-17T09:25:59Z</time>
      </trkpt>
      <trkpt lat="44.65572" lon="5.694">
        <ele>994.89</ele>
        <time>2018-06-17T09:26:00Z</time>
      </trkpt>
      <trkpt lat="44.65551" lon="5.69404">
        <ele>994.65</ele>
        <time>2018-06-17T09:26:01Z</time>
      </trkpt>
      <trkpt lat="44.6553" lon="5.69415">
        <ele>995.28</ele>
        <time>2018-06-17T09:26:02Z</time>
      </trkpt>
      <trkpt lat="44.65511" lon="5.69429">
        <ele>995.47</ele>
        <time>2018-06-17T09:26:03Z</time>
      </trkpt>
      <trkpt lat="44.65491" lon="5.69446">
        <ele>995.52</ele>
        <time>2018-06-17T09:26:04Z</time>
      </trkpt>
      <trkpt lat="44.65472" lon="5.69465">
        <ele>995.54</ele>
        <time>2018-06-17T09:26:05Z</time>
      </trkpt>
      <trkpt lat="44.65453" lon="5.69484">
        <ele>995.55</ele>
        <time>2018-06-17T09:26:06Z</time>
      </trkpt>
      <trkpt lat="44.65433" lon="5.69504">
        <ele>995.55</ele>
        <time>2018-06-17T09:26:07Z</time>
      </trkpt>
      <trkpt lat="44.65413" lon="5.69523">
        <ele>996.25</ele>
        <time>2018-06-17T09:26:08Z</time>
      </trkpt>
      <trkpt lat="44.65393" lon="5.69539">
        <ele>996.46</ele>
        <time>2018-06-17T09:26:09Z</time>
      </trkpt>
      <trkpt lat="44.65371" lon="5.69554">
        <ele>996.52</ele>
        <time>2018-06-17T09:26:10Z</time>
      </trkpt>
      <trkpt lat="44.65349" lon="5.69566">
        <ele>995.84</ele>
        <time>2018-06-17T09:26:11Z</time>
      </trkpt>
      <trkpt lat="44.65325" lon="5.69573">
        <ele>995.64</ele>
        <time>2018-06-17T09:26:12Z</time>
      </trkpt>
      <trkpt lat="44.65301" lon="5.69581">
        <ele>996.27</ele>
        <time>2018-06-17T09:26:13Z</time>
      </trkpt>
      <trkpt lat="44.65277" lon="5.69589">
        <ele>996.47</ele>
        <time>2018-06-17T09:26:14Z</time>
      </trkpt>
      <trkpt lat="44.65253" lon="5.69597">
        <ele>995.82</ele>
        <time>2018-06-17T09:26:15Z</time>
      </trkpt>
      <trkpt lat="44.6523" lon="5.69606">
        <ele>995.63</ele>
        <time>2018-06-17T09:26:16Z</time>
      </trkpt>
      <trkpt lat="44.65206" lon="5.69615">
        <ele>995.57</ele>
        <time>2018-06-17T09:26:17Z</time>
      </trkpt>
      <trkpt lat="44.65183" lon="5.69627">
        <ele>994.86</ele>
        <time>2018-06-17T09:26:18Z</time>
      </trkpt>
      <trkpt lat="44.65161" lon="5.69643">
        <ele>994.64</ele>
        <time>2018-06-17T09:26:19Z</time>
      </trkpt>
      <trkpt lat="44.65139" lon="5.6966">
        <ele>994.58</ele>
        <time>2018-06-17T09:26:20Z</time>
      </trkpt>
      <trkpt lat="44.65118" lon="5.69677">
        <ele>995.26</ele>
        <time>2018-06-17T09:26:21Z</time>
      </trkpt>
      <trkpt lat="44.65097" lon="5.69697">
        <ele>995.46</ele>
        <time>2018-06-17T09:26:22Z</time>
      </trkpt>
      <trkpt lat="44.65077" lon="5.69718">
        <ele>995.52</ele>
        <time>2018-06-17T09:26:23Z</time>
      </trkpt>
      <trkpt lat="44.65058" lon="5.69741">
        <ele>996.24</ele>
        <time>2018-06-17T09:26:24Z</time>
      </trkpt>
      <trkpt lat="44.65039" lon="5.69765">
        <ele>997.16</ele>
        <time>2018-06-17T09:26:25Z</time>
      </trkpt>
      <trkpt lat="44.65022" lon="5.69789">
        <ele>997.43</ele>
        <time>2018-06-17T09:26:26Z</time>
      </trkpt>
      <trkpt lat="44.65005" lon="5.69815">
        <ele>996.81</ele>
        <time>2018-06-17T09:26:27Z</time>
      </trkpt>
      <trkpt lat="44.64989" lon="5.69841">
        <ele>995.93</ele>
        <time>2018-06-17T09:26:28Z</time>
      </trkpt>
      <trkpt lat="44.64973" lon="5.69868">
        <ele>994.96</ele>
        <time>2018-06-17T09:26:29Z</time>
      </trkpt>
      <trkpt lat="44.64958" lon="5.69895">
        <ele>994.67</ele>
        <time>2018-06-17T09:26:30Z</time>
      </trkpt>
      <trkpt lat="44.64944" lon="5.69922">
        <ele>994.59</ele>
        <time>2018-06-17T09:26:31Z</time>
      </trkpt>
      <trkpt lat="44.64932" lon="5.6995">
        <ele>993.16</ele>
        <time>2018-06-17T09:26:32Z</time>
      </trkpt>
      <trkpt lat="44.64919" lon="5.69979">
        <ele>993.43</ele>
        <time>2018-06-17T09:26:33Z</time>
      </trkpt>
      <trkpt lat="44.64907" lon="5.70007">
        <ele>992.81</ele>
        <time>2018-06-17T09:26:34Z</time>
      </trkpt>
      <trkpt lat="44.64895" lon="5.70035">
        <ele>991.93</ele>
        <time>2018-06-17T09:26:35Z</time>
      </trkpt>
      <trkpt lat="44.64883" lon="5.70062">
        <ele>991.66</ele>
        <time>2018-06-17T09:26:36Z</time>
      </trkpt>
      <trkpt lat="44.64872" lon="5.70089">
        <ele>991.58</ele>
        <time>2018-06-17T09:26:37Z</time>
      </trkpt>
      <trkpt lat="44.6486" lon="5.70116">
        <ele>990.86</ele>
        <time>2018-06-17T09:26:38Z</time>
      </trkpt>
      <trkpt lat="44.64847" lon="5.70142">
        <ele>990.64</ele>
        <time>2018-06-17T09:26:39Z</time>
      </trkpt>
      <trkpt lat="44.64834" lon="5.70168">
        <ele>989.88</ele>
        <time>2018-06-17T09:26:40Z</time>
      </trkpt>
      <trkpt lat="44.64818" lon="5.7019">
        <ele>988.95</ele>
        <time>2018-06-17T09:26:41Z</time>
      </trkpt>
      <trkpt lat="44.648" lon="5.70209">
        <ele>988.67</ele>
        <time>2018-06-17T09:26:42Z</time>
      </trkpt>
      <trkpt lat="44.6478" lon="5.70224">
        <ele>987.88</ele>
        <time>2018-06-17T09:26:43Z</time>
      </trkpt>
      <trkpt lat="44.64761" lon="5.70238">
        <ele>986.95</ele>
        <time>2018-06-17T09:26:44Z</time>
      </trkpt>
      <trkpt lat="44.64741" lon="5.70247">
        <ele>985.97</ele>
        <time>2018-06-17T09:26:45Z</time>
      </trkpt>
      <trkpt lat="44.6472" lon="5.70253">
        <ele>985.67</ele>
        <time>2018-06-17T09:26:46Z</time>
      </trkpt>
      <trkpt lat="44.64696" lon="5.70257">
        <ele>985.59</ele>
        <time>2018-06-17T09:26:47Z</time>
      </trkpt>
      <trkpt lat="44.6467" lon="5.70254">
        <ele>985.56</ele>
        <time>2018-06-17T09:26:48Z</time>
      </trkpt>
      <trkpt lat="44.64643" lon="5.70249">
        <ele>985.55</ele>
        <time>2018-06-17T09:26:49Z</time>
      </trkpt>
      <trkpt lat="44.64618" lon="5.70249">
        <ele>985.55</ele>
        <time>2018-06-17T09:26:50Z</time>
      </trkpt>
      <trkpt lat="44.64593" lon="5.70247">
        <ele>985.55</ele>
        <time>2018-06-17T09:26:51Z</time>
      </trkpt>
      <trkpt lat="44.64568" lon="5.70244">
        <ele>985.55</ele>
        <time>2018-06-17T09:26:52Z</time>
      </trkpt>
      <trkpt lat="44.64543" lon="5.70238">
        <ele>985.55</ele>
        <time>2018-06-17T09:26:53Z</time>
      </trkpt>
      <trkpt lat="44.64519" lon="5.70232">
        <ele>986.25</ele>
        <time>2018-06-17T09:26:54Z</time>
      </trkpt>
      <trkpt lat="44.64495" lon="5.70221">
        <ele>986.46</ele>
        <time>2018-06-17T09:26:55Z</time>
      </trkpt>
      <trkpt lat="44.64473" lon="5.70207">
        <ele>985.82</ele>
        <time>2018-06-17T09:26:56Z</time>
      </trkpt>
      <trkpt lat="44.64451" lon="5.7019">
        <ele>984.93</ele>
        <time>2018-06-17T09:26:57Z</time>
      </trkpt>
      <trkpt lat="44.64432" lon="5.70171">
        <ele>984.66</ele>
        <time>2018-06-17T09:26:58Z</time>
      </trkpt>
      <trkpt lat="44.64414" lon="5.70149">
        <ele>983.88</ele>
        <time>2018-06-17T09:26:59Z</time>
      </trkpt>
      <trkpt lat="44.64395" lon="5.70125">
        <ele>982.95</ele>
        <time>2018-06-17T09:27:00Z</time>
      </trkpt>
      <trkpt lat="44.64377" lon="5.70101">
        <ele>981.97</ele>
        <time>2018-06-17T09:27:01Z</time>
      </trkpt>
      <trkpt lat="44.64357" lon="5.70077">
        <ele>980.97</ele>
        <time>2018-06-17T09:27:02Z</time>
      </trkpt>
      <trkpt lat="44.64338" lon="5.70053">
        <ele>979.98</ele>
        <time>2018-06-17T09:27:03Z</time>
      </trkpt>
      <trkpt lat="44.64319" lon="5.70029">
        <ele>978.28</ele>
        <time>2018-06-17T09:27:04Z</time>
      </trkpt>
      <trkpt lat="44.643" lon="5.70005">
        <ele>977.07</ele>
        <time>2018-06-17T09:27:05Z</time>
      </trkpt>
      <trkpt lat="44.64282" lon="5.69982">
        <ele>976</ele>
        <time>2018-06-17T09:27:06Z</time>
      </trkpt>
      <trkpt lat="44.64264" lon="5.69959">
        <ele>974.98</ele>
        <time>2018-06-17T09:27:07Z</time>
      </trkpt>
      <trkpt lat="44.64245" lon="5.69936">
        <ele>975.38</ele>
        <time>2018-06-17T09:27:08Z</time>
      </trkpt>
      <trkpt lat="44.64227" lon="5.69913">
        <ele>975.5</ele>
        <time>2018-06-17T09:27:09Z</time>
      </trkpt>
      <trkpt lat="44.64208" lon="5.69892">
        <ele>975.53</ele>
        <time>2018-06-17T09:27:10Z</time>
      </trkpt>
      <trkpt lat="44.6419" lon="5.69869">
        <ele>974.84</ele>
        <time>2018-06-17T09:27:11Z</time>
      </trkpt>
      <trkpt lat="44.64172" lon="5.69847">
        <ele>974.64</ele>
        <time>2018-06-17T09:27:12Z</time>
      </trkpt>
      <trkpt lat="44.64153" lon="5.69823">
        <ele>973.87</ele>
        <time>2018-06-17T09:27:13Z</time>
      </trkpt>
      <trkpt lat="44.64134" lon="5.69798">
        <ele>972.95</ele>
        <time>2018-06-17T09:27:14Z</time>
      </trkpt>
      <trkpt lat="44.64114" lon="5.69774">
        <ele>972.67</ele>
        <time>2018-06-17T09:27:15Z</time>
      </trkpt>
      <trkpt lat="44.64094" lon="5.6975">
        <ele>972.58</ele>
        <time>2018-06-17T09:27:16Z</time>
      </trkpt>
      <trkpt lat="44.64075" lon="5.69726">
        <ele>973.26</ele>
        <time>2018-06-17T09:27:17Z</time>
      </trkpt>
      <trkpt lat="44.64056" lon="5.69702">
        <ele>972.76</ele>
        <time>2018-06-17T09:27:18Z</time>
      </trkpt>
      <trkpt lat="44.64037" lon="5.69678">
        <ele>972.61</ele>
        <time>2018-06-17T09:27:19Z</time>
      </trkpt>
      <trkpt lat="44.64017" lon="5.69655">
        <ele>972.57</ele>
        <time>2018-06-17T09:27:20Z</time>
      </trkpt>
      <trkpt lat="44.63996" lon="5.69633">
        <ele>972.55</ele>
        <time>2018-06-17T09:27:21Z</time>
      </trkpt>
      <trkpt lat="44.63974" lon="5.69613">
        <ele>972.55</ele>
        <time>2018-06-17T09:27:22Z</time>
      </trkpt>
      <trkpt lat="44.63951" lon="5.69595">
        <ele>971.85</ele>
        <time>2018-06-17T09:27:23Z</time>
      </trkpt>
      <trkpt lat="44.63927" lon="5.69583">
        <ele>971.64</ele>
        <time>2018-06-17T09:27:24Z</time>
      </trkpt>
      <trkpt lat="44.63903" lon="5.69572">
        <ele>972.28</ele>
        <time>2018-06-17T09:27:25Z</time>
      </trkpt>
      <trkpt lat="44.63879" lon="5.69565">
        <ele>971.77</ele>
        <time>2018-06-17T09:27:26Z</time>
      </trkpt>
      <trkpt lat="44.63855" lon="5.6956">
        <ele>971.61</ele>
        <time>2018-06-17T09:27:27Z</time>
      </trkpt>
      <trkpt lat="44.63832" lon="5.69558">
        <ele>970.87</ele>
        <time>2018-06-17T09:27:28Z</time>
      </trkpt>
      <trkpt lat="44.63808" lon="5.6956">
        <ele>969.24</ele>
        <time>2018-06-17T09:27:29Z</time>
      </trkpt>
      <trkpt lat="44.63784" lon="5.69563">
        <ele>969.46</ele>
        <time>2018-06-17T09:27:30Z</time>
      </trkpt>
      <trkpt lat="44.63761" lon="5.69567">
        <ele>970.22</ele>
        <time>2018-06-17T09:27:31Z</time>
      </trkpt>
      <trkpt lat="44.6374" lon="5.69569">
        <ele>969.05</ele>
        <time>2018-06-17T09:27:32Z</time>
      </trkpt>
      <trkpt lat="44.63719" lon="5.69572">
        <ele>968.7</ele>
        <time>2018-06-17T09:27:33Z</time>
      </trkpt>
      <trkpt lat="44.63699" lon="5.69573">
        <ele>968.59</ele>
        <time>2018-06-17T09:27:34Z</time>
      </trkpt>
      <trkpt lat="44.6368" lon="5.69572">
        <ele>967.86</ele>
        <time>2018-06-17T09:27:35Z</time>
      </trkpt>
      <trkpt lat="44.63661" lon="5.69569">
        <ele>967.64</ele>
        <time>2018-06-17T09:27:36Z</time>
      </trkpt>
      <trkpt lat="44.63642" lon="5.69567">
        <ele>966.18</ele>
        <time>2018-06-17T09:27:37Z</time>
      </trkpt>
      <trkpt lat="44.63621" lon="5.69571">
        <ele>965.04</ele>
        <time>2018-06-17T09:27:38Z</time>
      </trkpt>
      <trkpt lat="44.63598" lon="5.69576">
        <ele>963.99</ele>
        <time>2018-06-17T09:27:39Z</time>
      </trkpt>
      <trkpt lat="44.63574" lon="5.69581">
        <ele>962.98</ele>
        <time>2018-06-17T09:27:40Z</time>
      </trkpt>
      <trkpt lat="44.6355" lon="5.69585">
        <ele>961.28</ele>
        <time>2018-06-17T09:27:41Z</time>
      </trkpt>
      <trkpt lat="44.63525" lon="5.69589">
        <ele>960.07</ele>
        <time>2018-06-17T09:27:42Z</time>
      </trkpt>
      <trkpt lat="44.63499" lon="5.69593">
        <ele>959.7</ele>
        <time>2018-06-17T09:27:43Z</time>
      </trkpt>
      <trkpt lat="44.63474" lon="5.69597">
        <ele>958.89</ele>
        <time>2018-06-17T09:27:44Z</time>
      </trkpt>
      <trkpt lat="44.63449" lon="5.69601">
        <ele>957.95</ele>
        <time>2018-06-17T09:27:45Z</time>
      </trkpt>
      <trkpt lat="44.63423" lon="5.69603">
        <ele>956.97</ele>
        <time>2018-06-17T09:27:46Z</time>
      </trkpt>
      <trkpt lat="44.63398" lon="5.69606">
        <ele>955.97</ele>
        <time>2018-06-17T09:27:47Z</time>
      </trkpt>
      <trkpt lat="44.63373" lon="5.69608">
        <ele>955.68</ele>
        <time>2018-06-17T09:27:48Z</time>
      </trkpt>
      <trkpt lat="44.63348" lon="5.69611">
        <ele>954.89</ele>
        <time>2018-06-17T09:27:49Z</time>
      </trkpt>
      <trkpt lat="44.63323" lon="5.69614">
        <ele>954.65</ele>
        <time>2018-06-17T09:27:50Z</time>
      </trkpt>
      <trkpt lat="44.63299" lon="5.69617">
        <ele>953.88</ele>
        <time>2018-06-17T09:27:51Z</time>
      </trkpt>
      <trkpt lat="44.63274" lon="5.6962">
        <ele>952.95</ele>
        <time>2018-06-17T09:27:52Z</time>
      </trkpt>
      <trkpt lat="44.63249" lon="5.69623">
        <ele>951.97</ele>
        <time>2018-06-17T09:27:53Z</time>
      </trkpt>
      <trkpt lat="44.63224" lon="5.69625">
        <ele>951.67</ele>
        <time>2018-06-17T09:27:54Z</time>
      </trkpt>
      <trkpt lat="44.63201" lon="5.69627">
        <ele>950.89</ele>
        <time>2018-06-17T09:27:55Z</time>
      </trkpt>
      <trkpt lat="44.63177" lon="5.69629">
        <ele>948.55</ele>
        <time>2018-06-17T09:27:56Z</time>
      </trkpt>
      <trkpt lat="44.63153" lon="5.69632">
        <ele>947.85</ele>
        <time>2018-06-17T09:27:57Z</time>
      </trkpt>
      <trkpt lat="44.63129" lon="5.69635">
        <ele>946.94</ele>
        <time>2018-06-17T09:27:58Z</time>
      </trkpt>
      <trkpt lat="44.63105" lon="5.69638">
        <ele>946.67</ele>
        <time>2018-06-17T09:27:59Z</time>
      </trkpt>
      <trkpt lat="44.63082" lon="5.69642">
        <ele>946.58</ele>
        <time>2018-06-17T09:28:00Z</time>
      </trkpt>
      <trkpt lat="44.6306" lon="5.69647">
        <ele>946.56</ele>
        <time>2018-06-17T09:28:01Z</time>
      </trkpt>
      <trkpt lat="44.63038" lon="5.69654">
        <ele>946.55</ele>
        <time>2018-06-17T09:28:02Z</time>
      </trkpt>
      <trkpt lat="44.63016" lon="5.69662">
        <ele>945.85</ele>
        <time>2018-06-17T09:28:03Z</time>
      </trkpt>
      <trkpt lat="44.62993" lon="5.6967">
        <ele>945.64</ele>
        <time>2018-06-17T09:28:04Z</time>
      </trkpt>
      <trkpt lat="44.6297" lon="5.69679">
        <ele>945.58</ele>
        <time>2018-06-17T09:28:05Z</time>
      </trkpt>
      <trkpt lat="44.62947" lon="5.69687">
        <ele>944.86</ele>
        <time>2018-06-17T09:28:06Z</time>
      </trkpt>
      <trkpt lat="44.62923" lon="5.69694">
        <ele>944.64</ele>
        <time>2018-06-17T09:28:07Z</time>
      </trkpt>
      <trkpt lat="44.62899" lon="5.69703">
        <ele>943.88</ele>
        <time>2018-06-17T09:28:08Z</time>
      </trkpt>
      <trkpt lat="44.62875" lon="5.69711">
        <ele>943.65</ele>
        <time>2018-06-17T09:28:09Z</time>
      </trkpt>
      <trkpt lat="44.62851" lon="5.69719">
        <ele>942.88</ele>
        <time>2018-06-17T09:28:10Z</time>
      </trkpt>
      <trkpt lat="44.62825" lon="5.69728">
        <ele>941.95</ele>
        <time>2018-06-17T09:28:11Z</time>
      </trkpt>
      <trkpt lat="44.62799" lon="5.69737">
        <ele>941.67</ele>
        <time>2018-06-17T09:28:12Z</time>
      </trkpt>
      <trkpt lat="44.62771" lon="5.69747">
        <ele>940.88</ele>
        <time>2018-06-17T09:28:13Z</time>
      </trkpt>
      <trkpt lat="44.62743" lon="5.69758">
        <ele>940.65</ele>
        <time>2018-06-17T09:28:14Z</time>
      </trkpt>
      <trkpt lat="44.62715" lon="5.69768">
        <ele>939.88</ele>
        <time>2018-06-17T09:28:15Z</time>
      </trkpt>
      <trkpt lat="44.62687" lon="5.69776">
        <ele>939.65</ele>
        <time>2018-06-17T09:28:16Z</time>
      </trkpt>
      <trkpt lat="44.62659" lon="5.69784">
        <ele>939.58</ele>
        <time>2018-06-17T09:28:17Z</time>
      </trkpt>
      <trkpt lat="44.62633" lon="5.6979">
        <ele>938.86</ele>
        <time>2018-06-17T09:28:18Z</time>
      </trkpt>
      <trkpt lat="44.62608" lon="5.69798">
        <ele>938.64</ele>
        <time>2018-06-17T09:28:19Z</time>
      </trkpt>
      <trkpt lat="44.62584" lon="5.69806">
        <ele>937.18</ele>
        <time>2018-06-17T09:28:20Z</time>
      </trkpt>
      <trkpt lat="44.62559" lon="5.69814">
        <ele>936.74</ele>
        <time>2018-06-17T09:28:21Z</time>
      </trkpt>
      <trkpt lat="44.62535" lon="5.69822">
        <ele>936.6</ele>
        <time>2018-06-17T09:28:22Z</time>
      </trkpt>
      <trkpt lat="44.62511" lon="5.69831">
        <ele>935.86</ele>
        <time>2018-06-17T09:28:23Z</time>
      </trkpt>
      <trkpt lat="44.62488" lon="5.69839">
        <ele>935.64</ele>
        <time>2018-06-17T09:28:24Z</time>
      </trkpt>
      <trkpt lat="44.62465" lon="5.69846">
        <ele>934.88</ele>
        <time>2018-06-17T09:28:25Z</time>
      </trkpt>
      <trkpt lat="44.62443" lon="5.69853">
        <ele>933.95</ele>
        <time>2018-06-17T09:28:26Z</time>
      </trkpt>
      <trkpt lat="44.62421" lon="5.69861">
        <ele>933.67</ele>
        <time>2018-06-17T09:28:27Z</time>
      </trkpt>
      <trkpt lat="44.62399" lon="5.69869">
        <ele>933.58</ele>
        <time>2018-06-17T09:28:28Z</time>
      </trkpt>
      <trkpt lat="44.62374" lon="5.69878">
        <ele>933.56</ele>
        <time>2018-06-17T09:28:29Z</time>
      </trkpt>
      <trkpt lat="44.62348" lon="5.69888">
        <ele>933.55</ele>
        <time>2018-06-17T09:28:30Z</time>
      </trkpt>
      <trkpt lat="44.62322" lon="5.69895">
        <ele>932.85</ele>
        <time>2018-06-17T09:28:31Z</time>
      </trkpt>
      <trkpt lat="44.62298" lon="5.69902">
        <ele>931.94</ele>
        <time>2018-06-17T09:28:32Z</time>
      </trkpt>
      <trkpt lat="44.62275" lon="5.69909">
        <ele>931.67</ele>
        <time>2018-06-17T09:28:33Z</time>
      </trkpt>
      <trkpt lat="44.62252" lon="5.69917">
        <ele>930.88</ele>
        <time>2018-06-17T09:28:34Z</time>
      </trkpt>
      <trkpt lat="44.62229" lon="5.69925">
        <ele>930.65</ele>
        <time>2018-06-17T09:28:35Z</time>
      </trkpt>
      <trkpt lat="44.62207" lon="5.69933">
        <ele>930.58</ele>
        <time>2018-06-17T09:28:36Z</time>
      </trkpt>
      <trkpt lat="44.62185" lon="5.69942">
        <ele>930.56</ele>
        <time>2018-06-17T09:28:37Z</time>
      </trkpt>
      <trkpt lat="44.62165" lon="5.69952">
        <ele>931.25</ele>
        <time>2018-06-17T09:28:38Z</time>
      </trkpt>
      <trkpt lat="44.62146" lon="5.69964">
        <ele>931.46</ele>
        <time>2018-06-17T09:28:39Z</time>
      </trkpt>
      <trkpt lat="44.62127" lon="5.69979">
        <ele>932.22</ele>
        <time>2018-06-17T09:28:40Z</time>
      </trkpt>
      <trkpt lat="44.62109" lon="5.69997">
        <ele>932.45</ele>
        <time>2018-06-17T09:28:41Z</time>
      </trkpt>
      <trkpt lat="44.62093" lon="5.70018">
        <ele>932.52</ele>
        <time>2018-06-17T09:28:42Z</time>
      </trkpt>
      <trkpt lat="44.62078" lon="5.70041">
        <ele>931.84</ele>
        <time>2018-06-17T09:28:43Z</time>
      </trkpt>
      <trkpt lat="44.62065" lon="5.70064">
        <ele>931.64</ele>
        <time>2018-06-17T09:28:44Z</time>
      </trkpt>
      <trkpt lat="44.62052" lon="5.70087">
        <ele>930.87</ele>
        <time>2018-06-17T09:28:45Z</time>
      </trkpt>
      <trkpt lat="44.6204" lon="5.7011">
        <ele>929.95</ele>
        <time>2018-06-17T09:28:46Z</time>
      </trkpt>
      <trkpt lat="44.62028" lon="5.70132">
        <ele>929.67</ele>
        <time>2018-06-17T09:28:47Z</time>
      </trkpt>
      <trkpt lat="44.62006" lon="5.70172">
        <ele>925.43</ele>
        <time>2018-06-17T09:28:49Z</time>
      </trkpt>
      <trkpt lat="44.61995" lon="5.70192">
        <ele>924.81</ele>
        <time>2018-06-17T09:28:50Z</time>
      </trkpt>
      <trkpt lat="44.61973" lon="5.70232">
        <ele>923.87</ele>
        <time>2018-06-17T09:28:52Z</time>
      </trkpt>
      <trkpt lat="44.61962" lon="5.70253">
        <ele>922.95</ele>
        <time>2018-06-17T09:28:53Z</time>
      </trkpt>
      <trkpt lat="44.6195" lon="5.70275">
        <ele>922.67</ele>
        <time>2018-06-17T09:28:54Z</time>
      </trkpt>
      <trkpt lat="44.61939" lon="5.70297">
        <ele>922.58</ele>
        <time>2018-06-17T09:28:55Z</time>
      </trkpt>
      <trkpt lat="44.61927" lon="5.70317">
        <ele>922.56</ele>
        <time>2018-06-17T09:28:56Z</time>
      </trkpt>
      <trkpt lat="44.61915" lon="5.70339">
        <ele>921.85</ele>
        <time>2018-06-17T09:28:57Z</time>
      </trkpt>
      <trkpt lat="44.61903" lon="5.7036">
        <ele>921.64</ele>
        <time>2018-06-17T09:28:58Z</time>
      </trkpt>
      <trkpt lat="44.61891" lon="5.70382">
        <ele>920.88</ele>
        <time>2018-06-17T09:28:59Z</time>
      </trkpt>
      <trkpt lat="44.61879" lon="5.70405">
        <ele>920.65</ele>
        <time>2018-06-17T09:29:00Z</time>
      </trkpt>
      <trkpt lat="44.61866" lon="5.70429">
        <ele>919.88</ele>
        <time>2018-06-17T09:29:01Z</time>
      </trkpt>
      <trkpt lat="44.61854" lon="5.70454">
        <ele>919.65</ele>
        <time>2018-06-17T09:29:02Z</time>
      </trkpt>
      <trkpt lat="44.61841" lon="5.70476">
        <ele>919.58</ele>
        <time>2018-06-17T09:29:03Z</time>
      </trkpt>
      <trkpt lat="44.61828" lon="5.70498">
        <ele>918.86</ele>
        <time>2018-06-17T09:29:04Z</time>
      </trkpt>
      <trkpt lat="44.61816" lon="5.70519">
        <ele>918.64</ele>
        <time>2018-06-17T09:29:05Z</time>
      </trkpt>
      <trkpt lat="44.61803" lon="5.70539">
        <ele>918.58</ele>
        <time>2018-06-17T09:29:06Z</time>
      </trkpt>
      <trkpt lat="44.61792" lon="5.70559">
        <ele>918.56</ele>
        <time>2018-06-17T09:29:07Z</time>
      </trkpt>
      <trkpt lat="44.6177" lon="5.70598">
        <ele>918.55</ele>
        <time>2018-06-17T09:29:09Z</time>
      </trkpt>
      <trkpt lat="44.6175" lon="5.70633">
        <ele>916.94</ele>
        <time>2018-06-17T09:29:11Z</time>
      </trkpt>
      <trkpt lat="44.61734" lon="5.70666">
        <ele>914.97</ele>
        <time>2018-06-17T09:29:13Z</time>
      </trkpt>
      <trkpt lat="44.6173" lon="5.70702">
        <ele>915.29</ele>
        <time>2018-06-17T09:29:15Z</time>
      </trkpt>
      <trkpt lat="44.61729" lon="5.70737">
        <ele>914.61</ele>
        <time>2018-06-17T09:29:17Z</time>
      </trkpt>
      <trkpt lat="44.61723" lon="5.70773">
        <ele>916.16</ele>
        <time>2018-06-17T09:29:19Z</time>
      </trkpt>
      <trkpt lat="44.6171" lon="5.70807">
        <ele>916.51</ele>
        <time>2018-06-17T09:29:21Z</time>
      </trkpt>
      <trkpt lat="44.61689" lon="5.70838">
        <ele>915.84</ele>
        <time>2018-06-17T09:29:23Z</time>
      </trkpt>
      <trkpt lat="44.6166" lon="5.70866">
        <ele>915.57</ele>
        <time>2018-06-17T09:29:25Z</time>
      </trkpt>
      <trkpt lat="44.61639" lon="5.70882">
        <ele>915.56</ele>
        <time>2018-06-17T09:29:26Z</time>
      </trkpt>
      <trkpt lat="44.6162" lon="5.70897">
        <ele>915.55</ele>
        <time>2018-06-17T09:29:27Z</time>
      </trkpt>
      <trkpt lat="44.61601" lon="5.70911">
        <ele>915.55</ele>
        <time>2018-06-17T09:29:28Z</time>
      </trkpt>
      <trkpt lat="44.61582" lon="5.70925">
        <ele>915.55</ele>
        <time>2018-06-17T09:29:29Z</time>
      </trkpt>
      <trkpt lat="44.61563" lon="5.70937">
        <ele>914.85</ele>
        <time>2018-06-17T09:29:30Z</time>
      </trkpt>
      <trkpt lat="44.61544" lon="5.70946">
        <ele>914.64</ele>
        <time>2018-06-17T09:29:31Z</time>
      </trkpt>
      <trkpt lat="44.61524" lon="5.7095">
        <ele>915.28</ele>
        <time>2018-06-17T09:29:32Z</time>
      </trkpt>
      <trkpt lat="44.61504" lon="5.7095">
        <ele>915.47</ele>
        <time>2018-06-17T09:29:33Z</time>
      </trkpt>
      <trkpt lat="44.61483" lon="5.70948">
        <ele>914.82</ele>
        <time>2018-06-17T09:29:34Z</time>
      </trkpt>
      <trkpt lat="44.61462" lon="5.70942">
        <ele>914.63</ele>
        <time>2018-06-17T09:29:35Z</time>
      </trkpt>
      <trkpt lat="44.61441" lon="5.70933">
        <ele>914.57</ele>
        <time>2018-06-17T09:29:36Z</time>
      </trkpt>
      <trkpt lat="44.61419" lon="5.70922">
        <ele>914.56</ele>
        <time>2018-06-17T09:29:37Z</time>
      </trkpt>
      <trkpt lat="44.61398" lon="5.70911">
        <ele>914.55</ele>
        <time>2018-06-17T09:29:38Z</time>
      </trkpt>
      <trkpt lat="44.61375" lon="5.70899">
        <ele>914.55</ele>
        <time>2018-06-17T09:29:39Z</time>
      </trkpt>
      <trkpt lat="44.61353" lon="5.70888">
        <ele>914.55</ele>
        <time>2018-06-17T09:29:40Z</time>
      </trkpt>
      <trkpt lat="44.61331" lon="5.70876">
        <ele>914.55</ele>
        <time>2018-06-17T09:29:41Z</time>
      </trkpt>
      <trkpt lat="44.6131" lon="5.70864">
        <ele>913.85</ele>
        <time>2018-06-17T09:29:42Z</time>
      </trkpt>
      <trkpt lat="44.61287" lon="5.70853">
        <ele>913.64</ele>
        <time>2018-06-17T09:29:43Z</time>
      </trkpt>
      <trkpt lat="44.61265" lon="5.70841">
        <ele>913.58</ele>
        <time>2018-06-17T09:29:44Z</time>
      </trkpt>
      <trkpt lat="44.61242" lon="5.70829">
        <ele>913.56</ele>
        <time>2018-06-17T09:29:45Z</time>
      </trkpt>
      <trkpt lat="44.6122" lon="5.70816">
        <ele>914.25</ele>
        <time>2018-06-17T09:29:46Z</time>
      </trkpt>
      <trkpt lat="44.61197" lon="5.70803">
        <ele>913.76</ele>
        <time>2018-06-17T09:29:47Z</time>
      </trkpt>
      <trkpt lat="44.61177" lon="5.70792">
        <ele>912.91</ele>
        <time>2018-06-17T09:29:48Z</time>
      </trkpt>
      <trkpt lat="44.61154" lon="5.70782">
        <ele>912.66</ele>
        <time>2018-06-17T09:29:49Z</time>
      </trkpt>
      <trkpt lat="44.6113" lon="5.70775">
        <ele>911.88</ele>
        <time>2018-06-17T09:29:50Z</time>
      </trkpt>
      <trkpt lat="44.61105" lon="5.70772">
        <ele>910.95</ele>
        <time>2018-06-17T09:29:51Z</time>
      </trkpt>
      <trkpt lat="44.61078" lon="5.70772">
        <ele>909.97</ele>
        <time>2018-06-17T09:29:52Z</time>
      </trkpt>
      <trkpt lat="44.61051" lon="5.70775">
        <ele>909.67</ele>
        <time>2018-06-17T09:29:53Z</time>
      </trkpt>
      <trkpt lat="44.61022" lon="5.70779">
        <ele>908.89</ele>
        <time>2018-06-17T09:29:54Z</time>
      </trkpt>
      <trkpt lat="44.60994" lon="5.70783">
        <ele>907.95</ele>
        <time>2018-06-17T09:29:55Z</time>
      </trkpt>
      <trkpt lat="44.60965" lon="5.70787">
        <ele>907.67</ele>
        <time>2018-06-17T09:29:56Z</time>
      </trkpt>
      <trkpt lat="44.60938" lon="5.70789">
        <ele>906.18</ele>
        <time>2018-06-17T09:29:57Z</time>
      </trkpt>
      <trkpt lat="44.6091" lon="5.70793">
        <ele>905.74</ele>
        <time>2018-06-17T09:29:58Z</time>
      </trkpt>
      <trkpt lat="44.60883" lon="5.70797">
        <ele>904.91</ele>
        <time>2018-06-17T09:29:59Z</time>
      </trkpt>
      <trkpt lat="44.60857" lon="5.70801">
        <ele>903.96</ele>
        <time>2018-06-17T09:30:00Z</time>
      </trkpt>
      <trkpt lat="44.60831" lon="5.70805">
        <ele>903.67</ele>
        <time>2018-06-17T09:30:01Z</time>
      </trkpt>
      <trkpt lat="44.60805" lon="5.70808">
        <ele>903.58</ele>
        <time>2018-06-17T09:30:02Z</time>
      </trkpt>
      <trkpt lat="44.60779" lon="5.70811">
        <ele>902.86</ele>
        <time>2018-06-17T09:30:03Z</time>
      </trkpt>
      <trkpt lat="44.60754" lon="5.70814">
        <ele>902.64</ele>
        <time>2018-06-17T09:30:04Z</time>
      </trkpt>
      <trkpt lat="44.60728" lon="5.70818">
        <ele>902.58</ele>
        <time>2018-06-17T09:30:05Z</time>
      </trkpt>
      <trkpt lat="44.60702" lon="5.70821">
        <ele>902.56</ele>
        <time>2018-06-17T09:30:06Z</time>
      </trkpt>
      <trkpt lat="44.60677" lon="5.70824">
        <ele>901.85</ele>
        <time>2018-06-17T09:30:07Z</time>
      </trkpt>
      <trkpt lat="44.60651" lon="5.70828">
        <ele>900.94</ele>
        <time>2018-06-17T09:30:08Z</time>
      </trkpt>
      <trkpt lat="44.60626" lon="5.70832">
        <ele>899.97</ele>
        <time>2018-06-17T09:30:09Z</time>
      </trkpt>
      <trkpt lat="44.60601" lon="5.70835">
        <ele>899.67</ele>
        <time>2018-06-17T09:30:10Z</time>
      </trkpt>
      <trkpt lat="44.60576" lon="5.70839">
        <ele>898.89</ele>
        <time>2018-06-17T09:30:11Z</time>
      </trkpt>
      <trkpt lat="44.60551" lon="5.70843">
        <ele>898.65</ele>
        <time>2018-06-17T09:30:12Z</time>
      </trkpt>
      <trkpt lat="44.60527" lon="5.70845">
        <ele>897.88</ele>
        <time>2018-06-17T09:30:13Z</time>
      </trkpt>
      <trkpt lat="44.60502" lon="5.70849">
        <ele>896.95</ele>
        <time>2018-06-17T09:30:14Z</time>
      </trkpt>
      <trkpt lat="44.60478" lon="5.70852">
        <ele>896.67</ele>
        <time>2018-06-17T09:30:15Z</time>
      </trkpt>
      <trkpt lat="44.60453" lon="5.70855">
        <ele>896.58</ele>
        <time>2018-06-17T09:30:16Z</time>
      </trkpt>
      <trkpt lat="44.60428" lon="5.70857">
        <ele>895.86</ele>
        <time>2018-06-17T09:30:17Z</time>
      </trkpt>
      <trkpt lat="44.60402" lon="5.7086">
        <ele>894.94</ele>
        <time>2018-06-17T09:30:18Z</time>
      </trkpt>
      <trkpt lat="44.60376" lon="5.70863">
        <ele>894.67</ele>
        <time>2018-06-17T09:30:19Z</time>
      </trkpt>
      <trkpt lat="44.6035" lon="5.70865">
        <ele>893.88</ele>
        <time>2018-06-17T09:30:20Z</time>
      </trkpt>
      <trkpt lat="44.60324" lon="5.70869">
        <ele>893.65</ele>
        <time>2018-06-17T09:30:21Z</time>
      </trkpt>
      <trkpt lat="44.60298" lon="5.70872">
        <ele>893.58</ele>
        <time>2018-06-17T09:30:22Z</time>
      </trkpt>
      <trkpt lat="44.60272" lon="5.70874">
        <ele>893.56</ele>
        <time>2018-06-17T09:30:23Z</time>
      </trkpt>
      <trkpt lat="44.60246" lon="5.70878">
        <ele>893.55</ele>
        <time>2018-06-17T09:30:24Z</time>
      </trkpt>
      <trkpt lat="44.6022" lon="5.70881">
        <ele>893.55</ele>
        <time>2018-06-17T09:30:25Z</time>
      </trkpt>
      <trkpt lat="44.60193" lon="5.70885">
        <ele>893.55</ele>
        <time>2018-06-17T09:30:26Z</time>
      </trkpt>
      <trkpt lat="44.60167" lon="5.70888">
        <ele>893.55</ele>
        <time>2018-06-17T09:30:27Z</time>
      </trkpt>
      <trkpt lat="44.6014" lon="5.70891">
        <ele>893.55</ele>
        <time>2018-06-17T09:30:28Z</time>
      </trkpt>
      <trkpt lat="44.60114" lon="5.70896">
        <ele>893.55</ele>
        <time>2018-06-17T09:30:29Z</time>
      </trkpt>
      <trkpt lat="44.60088" lon="5.70899">
        <ele>892.15</ele>
        <time>2018-06-17T09:30:30Z</time>
      </trkpt>
      <trkpt lat="44.60062" lon="5.70903">
        <ele>891.73</ele>
        <time>2018-06-17T09:30:31Z</time>
      </trkpt>
      <trkpt lat="44.60036" lon="5.70906">
        <ele>890.9</ele>
        <time>2018-06-17T09:30:32Z</time>
      </trkpt>
      <trkpt lat="44.6001" lon="5.70909">
        <ele>889.95</ele>
        <time>2018-06-17T09:30:33Z</time>
      </trkpt>
      <trkpt lat="44.59985" lon="5.70912">
        <ele>889.67</ele>
        <time>2018-06-17T09:30:34Z</time>
      </trkpt>
      <trkpt lat="44.5996" lon="5.70915">
        <ele>889.58</ele>
        <time>2018-06-17T09:30:35Z</time>
      </trkpt>
      <trkpt lat="44.59936" lon="5.70918">
        <ele>888.86</ele>
        <time>2018-06-17T09:30:36Z</time>
      </trkpt>
      <trkpt lat="44.59912" lon="5.70922">
        <ele>889.34</ele>
        <time>2018-06-17T09:30:37Z</time>
      </trkpt>
      <trkpt lat="44.59888" lon="5.70925">
        <ele>888.79</ele>
        <time>2018-06-17T09:30:38Z</time>
      </trkpt>
      <trkpt lat="44.59864" lon="5.70929">
        <ele>888.62</ele>
        <time>2018-06-17T09:30:39Z</time>
      </trkpt>
      <trkpt lat="44.59839" lon="5.70932">
        <ele>888.57</ele>
        <time>2018-06-17T09:30:40Z</time>
      </trkpt>
      <trkpt lat="44.59816" lon="5.70935">
        <ele>888.55</ele>
        <time>2018-06-17T09:30:41Z</time>
      </trkpt>
      <trkpt lat="44.59794" lon="5.70938">
        <ele>888.55</ele>
        <time>2018-06-17T09:30:42Z</time>
      </trkpt>
      <trkpt lat="44.59771" lon="5.7094">
        <ele>887.85</ele>
        <time>2018-06-17T09:30:43Z</time>
      </trkpt>
      <trkpt lat="44.59749" lon="5.70944">
        <ele>887.64</ele>
        <time>2018-06-17T09:30:44Z</time>
      </trkpt>
      <trkpt lat="44.59727" lon="5.70948">
        <ele>888.98</ele>
        <time>2018-06-17T09:30:45Z</time>
      </trkpt>
      <trkpt lat="44.59704" lon="5.70953">
        <ele>889.38</ele>
        <time>2018-06-17T09:30:46Z</time>
      </trkpt>
      <trkpt lat="44.59681" lon="5.7096">
        <ele>890.2</ele>
        <time>2018-06-17T09:30:47Z</time>
      </trkpt>
      <trkpt lat="44.59658" lon="5.7097">
        <ele>890.44</ele>
        <time>2018-06-17T09:30:48Z</time>
      </trkpt>
      <trkpt lat="44.59637" lon="5.70982">
        <ele>889.82</ele>
        <time>2018-06-17T09:30:49Z</time>
      </trkpt>
      <trkpt lat="44.59615" lon="5.70997">
        <ele>889.63</ele>
        <time>2018-06-17T09:30:50Z</time>
      </trkpt>
      <trkpt lat="44.59593" lon="5.71016">
        <ele>890.27</ele>
        <time>2018-06-17T09:30:51Z</time>
      </trkpt>
      <trkpt lat="44.59571" lon="5.71045">
        <ele>890.47</ele>
        <time>2018-06-17T09:30:52Z</time>
      </trkpt>
      <trkpt lat="44.59552" lon="5.71071">
        <ele>890.52</ele>
        <time>2018-06-17T09:30:53Z</time>
      </trkpt>
      <trkpt lat="44.59534" lon="5.711">
        <ele>889.84</ele>
        <time>2018-06-17T09:30:54Z</time>
      </trkpt>
      <trkpt lat="44.59518" lon="5.7113">
        <ele>889.64</ele>
        <time>2018-06-17T09:30:55Z</time>
      </trkpt>
      <trkpt lat="44.59505" lon="5.71163">
        <ele>889.57</ele>
        <time>2018-06-17T09:30:56Z</time>
      </trkpt>
      <trkpt lat="44.59491" lon="5.71197">
        <ele>888.86</ele>
        <time>2018-06-17T09:30:57Z</time>
      </trkpt>
      <trkpt lat="44.59479" lon="5.71231">
        <ele>888.64</ele>
        <time>2018-06-17T09:30:58Z</time>
      </trkpt>
      <trkpt lat="44.59467" lon="5.71265">
        <ele>887.88</ele>
        <time>2018-06-17T09:30:59Z</time>
      </trkpt>
      <trkpt lat="44.59455" lon="5.713">
        <ele>887.65</ele>
        <time>2018-06-17T09:31:00Z</time>
      </trkpt>
      <trkpt lat="44.59442" lon="5.71334">
        <ele>886.88</ele>
        <time>2018-06-17T09:31:01Z</time>
      </trkpt>
      <trkpt lat="44.59431" lon="5.71368">
        <ele>885.95</ele>
        <time>2018-06-17T09:31:02Z</time>
      </trkpt>
      <trkpt lat="44.59419" lon="5.71402">
        <ele>885.67</ele>
        <time>2018-06-17T09:31:03Z</time>
      </trkpt>
      <trkpt lat="44.59407" lon="5.71436">
        <ele>885.58</ele>
        <time>2018-06-17T09:31:04Z</time>
      </trkpt>
      <trkpt lat="44.59395" lon="5.71471">
        <ele>884.86</ele>
        <time>2018-06-17T09:31:05Z</time>
      </trkpt>
      <trkpt lat="44.59384" lon="5.71504">
        <ele>884.64</ele>
        <time>2018-06-17T09:31:06Z</time>
      </trkpt>
      <trkpt lat="44.59372" lon="5.71538">
        <ele>883.88</ele>
        <time>2018-06-17T09:31:07Z</time>
      </trkpt>
      <trkpt lat="44.5936" lon="5.7157">
        <ele>882.95</ele>
        <time>2018-06-17T09:31:08Z</time>
      </trkpt>
      <trkpt lat="44.59345" lon="5.716">
        <ele>882.67</ele>
        <time>2018-06-17T09:31:09Z</time>
      </trkpt>
      <trkpt lat="44.59329" lon="5.71628">
        <ele>881.88</ele>
        <time>2018-06-17T09:31:10Z</time>
      </trkpt>
      <trkpt lat="44.59311" lon="5.71654">
        <ele>880.95</ele>
        <time>2018-06-17T09:31:11Z</time>
      </trkpt>
      <trkpt lat="44.59292" lon="5.71677">
        <ele>879.97</ele>
        <time>2018-06-17T09:31:12Z</time>
      </trkpt>
      <trkpt lat="44.5927" lon="5.71698">
        <ele>878.97</ele>
        <time>2018-06-17T09:31:13Z</time>
      </trkpt>
      <trkpt lat="44.59247" lon="5.71716">
        <ele>877.98</ele>
        <time>2018-06-17T09:31:14Z</time>
      </trkpt>
      <trkpt lat="44.59224" lon="5.71733">
        <ele>876.98</ele>
        <time>2018-06-17T09:31:15Z</time>
      </trkpt>
      <trkpt lat="44.59199" lon="5.71748">
        <ele>876.68</ele>
        <time>2018-06-17T09:31:16Z</time>
      </trkpt>
      <trkpt lat="44.59175" lon="5.71762">
        <ele>876.59</ele>
        <time>2018-06-17T09:31:17Z</time>
      </trkpt>
      <trkpt lat="44.5915" lon="5.71777">
        <ele>876.56</ele>
        <time>2018-06-17T09:31:18Z</time>
      </trkpt>
      <trkpt lat="44.59125" lon="5.7179">
        <ele>876.55</ele>
        <time>2018-06-17T09:31:19Z</time>
      </trkpt>
      <trkpt lat="44.591" lon="5.71804">
        <ele>876.55</ele>
        <time>2018-06-17T09:31:20Z</time>
      </trkpt>
      <trkpt lat="44.59076" lon="5.71818">
        <ele>876.55</ele>
        <time>2018-06-17T09:31:21Z</time>
      </trkpt>
      <trkpt lat="44.59052" lon="5.71832">
        <ele>877.25</ele>
        <time>2018-06-17T09:31:22Z</time>
      </trkpt>
      <trkpt lat="44.59027" lon="5.71845">
        <ele>876.76</ele>
        <time>2018-06-17T09:31:23Z</time>
      </trkpt>
      <trkpt lat="44.59003" lon="5.71859">
        <ele>877.31</ele>
        <time>2018-06-17T09:31:24Z</time>
      </trkpt>
      <trkpt lat="44.58979" lon="5.71871">
        <ele>876.78</ele>
        <time>2018-06-17T09:31:25Z</time>
      </trkpt>
      <trkpt lat="44.58955" lon="5.71885">
        <ele>876.62</ele>
        <time>2018-06-17T09:31:26Z</time>
      </trkpt>
      <trkpt lat="44.58932" lon="5.71898">
        <ele>876.57</ele>
        <time>2018-06-17T09:31:27Z</time>
      </trkpt>
      <trkpt lat="44.58909" lon="5.71911">
        <ele>877.25</ele>
        <time>2018-06-17T09:31:28Z</time>
      </trkpt>
      <trkpt lat="44.58889" lon="5.71922">
        <ele>877.46</ele>
        <time>2018-06-17T09:31:29Z</time>
      </trkpt>
      <trkpt lat="44.5887" lon="5.71936">
        <ele>878.22</ele>
        <time>2018-06-17T09:31:30Z</time>
      </trkpt>
      <trkpt lat="44.58855" lon="5.71954">
        <ele>879.15</ele>
        <time>2018-06-17T09:31:31Z</time>
      </trkpt>
      <trkpt lat="44.58843" lon="5.71977">
        <ele>880.13</ele>
        <time>2018-06-17T09:31:32Z</time>
      </trkpt>
      <trkpt lat="44.58834" lon="5.72003">
        <ele>879.72</ele>
        <time>2018-06-17T09:31:33Z</time>
      </trkpt>
      <trkpt lat="44.58831" lon="5.7203">
        <ele>878.9</ele>
        <time>2018-06-17T09:31:34Z</time>
      </trkpt>
      <trkpt lat="44.58831" lon="5.72058">
        <ele>878.65</ele>
        <time>2018-06-17T09:31:35Z</time>
      </trkpt>
      <trkpt lat="44.58833" lon="5.72083">
        <ele>879.28</ele>
        <time>2018-06-17T09:31:36Z</time>
      </trkpt>
      <trkpt lat="44.58828" lon="5.72128">
        <ele>878.82</ele>
        <time>2018-06-17T09:31:38Z</time>
      </trkpt>
      <trkpt lat="44.58812" lon="5.72163">
        <ele>877.87</ele>
        <time>2018-06-17T09:31:40Z</time>
      </trkpt>
      <trkpt lat="44.5878" lon="5.72176">
        <ele>877.58</ele>
        <time>2018-06-17T09:31:42Z</time>
      </trkpt>
      <trkpt lat="44.58758" lon="5.72172">
        <ele>876.86</ele>
        <time>2018-06-17T09:31:43Z</time>
      </trkpt>
      <trkpt lat="44.58727" lon="5.72156">
        <ele>875.94</ele>
        <time>2018-06-17T09:31:44Z</time>
      </trkpt>
      <trkpt lat="44.58704" lon="5.72154">
        <ele>875.67</ele>
        <time>2018-06-17T09:31:45Z</time>
      </trkpt>
      <trkpt lat="44.58681" lon="5.72155">
        <ele>875.58</ele>
        <time>2018-06-17T09:31:46Z</time>
      </trkpt>
      <trkpt lat="44.58657" lon="5.72157">
        <ele>875.56</ele>
        <time>2018-06-17T09:31:47Z</time>
      </trkpt>
      <trkpt lat="44.58633" lon="5.72163">
        <ele>874.85</ele>
        <time>2018-06-17T09:31:48Z</time>
      </trkpt>
      <trkpt lat="44.58609" lon="5.72171">
        <ele>874.64</ele>
        <time>2018-06-17T09:31:49Z</time>
      </trkpt>
      <trkpt lat="44.58584" lon="5.72179">
        <ele>873.88</ele>
        <time>2018-06-17T09:31:50Z</time>
      </trkpt>
      <trkpt lat="44.58559" lon="5.72188">
        <ele>873.65</ele>
        <time>2018-06-17T09:31:51Z</time>
      </trkpt>
      <trkpt lat="44.58534" lon="5.72197">
        <ele>872.88</ele>
        <time>2018-06-17T09:31:52Z</time>
      </trkpt>
      <trkpt lat="44.5851" lon="5.72207">
        <ele>871.95</ele>
        <time>2018-06-17T09:31:53Z</time>
      </trkpt>
      <trkpt lat="44.58485" lon="5.72217">
        <ele>870.97</ele>
        <time>2018-06-17T09:31:54Z</time>
      </trkpt>
      <trkpt lat="44.5846" lon="5.72226">
        <ele>870.67</ele>
        <time>2018-06-17T09:31:55Z</time>
      </trkpt>
      <trkpt lat="44.58436" lon="5.72236">
        <ele>869.89</ele>
        <time>2018-06-17T09:31:56Z</time>
      </trkpt>
      <trkpt lat="44.58412" lon="5.72245">
        <ele>868.95</ele>
        <time>2018-06-17T09:31:57Z</time>
      </trkpt>
      <trkpt lat="44.58388" lon="5.72255">
        <ele>868.67</ele>
        <time>2018-06-17T09:31:58Z</time>
      </trkpt>
      <trkpt lat="44.58364" lon="5.72263">
        <ele>868.58</ele>
        <time>2018-06-17T09:31:59Z</time>
      </trkpt>
      <trkpt lat="44.5834" lon="5.72272">
        <ele>867.86</ele>
        <time>2018-06-17T09:32:00Z</time>
      </trkpt>
      <trkpt lat="44.58316" lon="5.72281">
        <ele>868.34</ele>
        <time>2018-06-17T09:32:01Z</time>
      </trkpt>
      <trkpt lat="44.58291" lon="5.7229">
        <ele>867.79</ele>
        <time>2018-06-17T09:32:02Z</time>
      </trkpt>
      <trkpt lat="44.58267" lon="5.72299">
        <ele>866.92</ele>
        <time>2018-06-17T09:32:03Z</time>
      </trkpt>
      <trkpt lat="44.58243" lon="5.72309">
        <ele>866.66</ele>
        <time>2018-06-17T09:32:04Z</time>
      </trkpt>
      <trkpt lat="44.58219" lon="5.72318">
        <ele>865.88</ele>
        <time>2018-06-17T09:32:05Z</time>
      </trkpt>
      <trkpt lat="44.58194" lon="5.72326">
        <ele>865.65</ele>
        <time>2018-06-17T09:32:06Z</time>
      </trkpt>
      <trkpt lat="44.5817" lon="5.72335">
        <ele>864.88</ele>
        <time>2018-06-17T09:32:07Z</time>
      </trkpt>
      <trkpt lat="44.58146" lon="5.72344">
        <ele>864.65</ele>
        <time>2018-06-17T09:32:08Z</time>
      </trkpt>
      <trkpt lat="44.58121" lon="5.72352">
        <ele>864.58</ele>
        <time>2018-06-17T09:32:09Z</time>
      </trkpt>
      <trkpt lat="44.58097" lon="5.72361">
        <ele>864.56</ele>
        <time>2018-06-17T09:32:10Z</time>
      </trkpt>
      <trkpt lat="44.58073" lon="5.7237">
        <ele>864.55</ele>
        <time>2018-06-17T09:32:11Z</time>
      </trkpt>
      <trkpt lat="44.58049" lon="5.72379">
        <ele>863.85</ele>
        <time>2018-06-17T09:32:12Z</time>
      </trkpt>
      <trkpt lat="44.58025" lon="5.72387">
        <ele>862.94</ele>
        <time>2018-06-17T09:32:13Z</time>
      </trkpt>
      <trkpt lat="44.58002" lon="5.72396">
        <ele>862.67</ele>
        <time>2018-06-17T09:32:14Z</time>
      </trkpt>
      <trkpt lat="44.57979" lon="5.72405">
        <ele>861.88</ele>
        <time>2018-06-17T09:32:15Z</time>
      </trkpt>
      <trkpt lat="44.57957" lon="5.72413">
        <ele>861.65</ele>
        <time>2018-06-17T09:32:16Z</time>
      </trkpt>
      <trkpt lat="44.57935" lon="5.72422">
        <ele>860.88</ele>
        <time>2018-06-17T09:32:17Z</time>
      </trkpt>
      <trkpt lat="44.57913" lon="5.72431">
        <ele>860.65</ele>
        <time>2018-06-17T09:32:18Z</time>
      </trkpt>
      <trkpt lat="44.57892" lon="5.72439">
        <ele>859.88</ele>
        <time>2018-06-17T09:32:19Z</time>
      </trkpt>
      <trkpt lat="44.57871" lon="5.72447">
        <ele>859.65</ele>
        <time>2018-06-17T09:32:20Z</time>
      </trkpt>
      <trkpt lat="44.57851" lon="5.72456">
        <ele>858.88</ele>
        <time>2018-06-17T09:32:21Z</time>
      </trkpt>
      <trkpt lat="44.5783" lon="5.72465">
        <ele>858.65</ele>
        <time>2018-06-17T09:32:22Z</time>
      </trkpt>
      <trkpt lat="44.5781" lon="5.72475">
        <ele>858.58</ele>
        <time>2018-06-17T09:32:23Z</time>
      </trkpt>
      <trkpt lat="44.57791" lon="5.72487">
        <ele>859.26</ele>
        <time>2018-06-17T09:32:24Z</time>
      </trkpt>
      <trkpt lat="44.57772" lon="5.72502">
        <ele>859.46</ele>
        <time>2018-06-17T09:32:25Z</time>
      </trkpt>
      <trkpt lat="44.57754" lon="5.72521">
        <ele>859.52</ele>
        <time>2018-06-17T09:32:26Z</time>
      </trkpt>
      <trkpt lat="44.57737" lon="5.72542">
        <ele>859.54</ele>
        <time>2018-06-17T09:32:27Z</time>
      </trkpt>
      <trkpt lat="44.57722" lon="5.72563">
        <ele>859.55</ele>
        <time>2018-06-17T09:32:28Z</time>
      </trkpt>
      <trkpt lat="44.57707" lon="5.72586">
        <ele>860.25</ele>
        <time>2018-06-17T09:32:29Z</time>
      </trkpt>
      <trkpt lat="44.57692" lon="5.72608">
        <ele>859.06</ele>
        <time>2018-06-17T09:32:30Z</time>
      </trkpt>
      <trkpt lat="44.57678" lon="5.72631">
        <ele>858</ele>
        <time>2018-06-17T09:32:31Z</time>
      </trkpt>
      <trkpt lat="44.57663" lon="5.72654">
        <ele>856.98</ele>
        <time>2018-06-17T09:32:32Z</time>
      </trkpt>
      <trkpt lat="44.57648" lon="5.72679">
        <ele>855.98</ele>
        <time>2018-06-17T09:32:33Z</time>
      </trkpt>
      <trkpt lat="44.57631" lon="5.72705">
        <ele>855.68</ele>
        <time>2018-06-17T09:32:34Z</time>
      </trkpt>
      <trkpt lat="44.57614" lon="5.72733">
        <ele>854.89</ele>
        <time>2018-06-17T09:32:35Z</time>
      </trkpt>
      <trkpt lat="44.57595" lon="5.72762">
        <ele>853.95</ele>
        <time>2018-06-17T09:32:36Z</time>
      </trkpt>
      <trkpt lat="44.57576" lon="5.72789">
        <ele>853.67</ele>
        <time>2018-06-17T09:32:37Z</time>
      </trkpt>
      <trkpt lat="44.57557" lon="5.72817">
        <ele>852.88</ele>
        <time>2018-06-17T09:32:38Z</time>
      </trkpt>
      <trkpt lat="44.57538" lon="5.72846">
        <ele>852.65</ele>
        <time>2018-06-17T09:32:39Z</time>
      </trkpt>
      <trkpt lat="44.57521" lon="5.72873">
        <ele>852.58</ele>
        <time>2018-06-17T09:32:40Z</time>
      </trkpt>
      <trkpt lat="44.57502" lon="5.729">
        <ele>851.86</ele>
        <time>2018-06-17T09:32:41Z</time>
      </trkpt>
      <trkpt lat="44.57484" lon="5.72927">
        <ele>851.64</ele>
        <time>2018-06-17T09:32:42Z</time>
      </trkpt>
      <trkpt lat="44.57466" lon="5.72954">
        <ele>851.58</ele>
        <time>2018-06-17T09:32:43Z</time>
      </trkpt>
      <trkpt lat="44.57449" lon="5.7298">
        <ele>851.56</ele>
        <time>2018-06-17T09:32:44Z</time>
      </trkpt>
      <trkpt lat="44.57431" lon="5.73007">
        <ele>850.85</ele>
        <time>2018-06-17T09:32:45Z</time>
      </trkpt>
      <trkpt lat="44.57413" lon="5.73033">
        <ele>849.94</ele>
        <time>2018-06-17T09:32:46Z</time>
      </trkpt>
      <trkpt lat="44.57395" lon="5.7306">
        <ele>849.67</ele>
        <time>2018-06-17T09:32:47Z</time>
      </trkpt>
      <trkpt lat="44.57377" lon="5.73087">
        <ele>849.58</ele>
        <time>2018-06-17T09:32:48Z</time>
      </trkpt>
      <trkpt lat="44.57359" lon="5.73115">
        <ele>849.56</ele>
        <time>2018-06-17T09:32:49Z</time>
      </trkpt>
      <trkpt lat="44.57341" lon="5.73142">
        <ele>849.55</ele>
        <time>2018-06-17T09:32:50Z</time>
      </trkpt>
      <trkpt lat="44.57323" lon="5.7317">
        <ele>849.55</ele>
        <time>2018-06-17T09:32:51Z</time>
      </trkpt>
      <trkpt lat="44.57305" lon="5.73197">
        <ele>848.85</ele>
        <time>2018-06-17T09:32:52Z</time>
      </trkpt>
      <trkpt lat="44.57287" lon="5.73225">
        <ele>848.64</ele>
        <time>2018-06-17T09:32:53Z</time>
      </trkpt>
      <trkpt lat="44.57269" lon="5.73252">
        <ele>848.58</ele>
        <time>2018-06-17T09:32:54Z</time>
      </trkpt>
      <trkpt lat="44.5725" lon="5.73279">
        <ele>848.56</ele>
        <time>2018-06-17T09:32:55Z</time>
      </trkpt>
      <trkpt lat="44.57232" lon="5.73305">
        <ele>847.15</ele>
        <time>2018-06-17T09:32:56Z</time>
      </trkpt>
      <trkpt lat="44.57213" lon="5.73331">
        <ele>846.73</ele>
        <time>2018-06-17T09:32:57Z</time>
      </trkpt>
      <trkpt lat="44.57192" lon="5.73354">
        <ele>845.9</ele>
        <time>2018-06-17T09:32:58Z</time>
      </trkpt>
      <trkpt lat="44.57171" lon="5.73376">
        <ele>845.65</ele>
        <time>2018-06-17T09:32:59Z</time>
      </trkpt>
      <trkpt lat="44.5715" lon="5.73398">
        <ele>845.58</ele>
        <time>2018-06-17T09:33:00Z</time>
      </trkpt>
      <trkpt lat="44.57129" lon="5.73419">
        <ele>844.86</ele>
        <time>2018-06-17T09:33:01Z</time>
      </trkpt>
      <trkpt lat="44.57108" lon="5.73442">
        <ele>844.64</ele>
        <time>2018-06-17T09:33:02Z</time>
      </trkpt>
      <trkpt lat="44.57088" lon="5.73464">
        <ele>844.58</ele>
        <time>2018-06-17T09:33:03Z</time>
      </trkpt>
      <trkpt lat="44.57067" lon="5.73486">
        <ele>843.86</ele>
        <time>2018-06-17T09:33:04Z</time>
      </trkpt>
      <trkpt lat="44.57048" lon="5.73507">
        <ele>843.64</ele>
        <time>2018-06-17T09:33:05Z</time>
      </trkpt>
      <trkpt lat="44.57029" lon="5.73527">
        <ele>842.88</ele>
        <time>2018-06-17T09:33:06Z</time>
      </trkpt>
      <trkpt lat="44.57011" lon="5.73546">
        <ele>842.65</ele>
        <time>2018-06-17T09:33:07Z</time>
      </trkpt>
      <trkpt lat="44.56994" lon="5.73564">
        <ele>842.58</ele>
        <time>2018-06-17T09:33:08Z</time>
      </trkpt>
      <trkpt lat="44.56977" lon="5.73581">
        <ele>842.56</ele>
        <time>2018-06-17T09:33:09Z</time>
      </trkpt>
      <trkpt lat="44.56962" lon="5.73597">
        <ele>843.25</ele>
        <time>2018-06-17T09:33:10Z</time>
      </trkpt>
      <trkpt lat="44.56947" lon="5.73613">
        <ele>843.46</ele>
        <time>2018-06-17T09:33:11Z</time>
      </trkpt>
      <trkpt lat="44.56919" lon="5.73642">
        <ele>844.24</ele>
        <time>2018-06-17T09:33:13Z</time>
      </trkpt>
      <trkpt lat="44.56894" lon="5.73669">
        <ele>844.52</ele>
        <time>2018-06-17T09:33:15Z</time>
      </trkpt>
      <trkpt lat="44.56868" lon="5.7369">
        <ele>843.64</ele>
        <time>2018-06-17T09:33:17Z</time>
      </trkpt>
      <trkpt lat="44.56843" lon="5.73708">
        <ele>842.86</ele>
        <time>2018-06-17T09:33:19Z</time>
      </trkpt>
      <trkpt lat="44.56818" lon="5.73716">
        <ele>840.55</ele>
        <time>2018-06-17T09:33:21Z</time>
      </trkpt>
      <trkpt lat="44.56795" lon="5.73726">
        <ele>840.55</ele>
        <time>2018-06-17T09:33:23Z</time>
      </trkpt>
      <trkpt lat="44.56776" lon="5.73723">
        <ele>840.55</ele>
        <time>2018-06-17T09:33:26Z</time>
      </trkpt>
      <trkpt lat="44.56771" lon="5.73688">
        <ele>841.46</ele>
        <time>2018-06-17T09:33:30Z</time>
      </trkpt>
      <trkpt lat="44.5677" lon="5.73663">
        <ele>841.54</ele>
        <time>2018-06-17T09:33:32Z</time>
      </trkpt>
      <trkpt lat="44.5677" lon="5.73633">
        <ele>840.85</ele>
        <time>2018-06-17T09:33:34Z</time>
      </trkpt>
      <trkpt lat="44.5677" lon="5.73598">
        <ele>840.57</ele>
        <time>2018-06-17T09:33:36Z</time>
      </trkpt>
      <trkpt lat="44.5677" lon="5.73561">
        <ele>841.46</ele>
        <time>2018-06-17T09:33:38Z</time>
      </trkpt>
      <trkpt lat="44.56771" lon="5.73521">
        <ele>841.54</ele>
        <time>2018-06-17T09:33:40Z</time>
      </trkpt>
      <trkpt lat="44.56771" lon="5.7348">
        <ele>842.25</ele>
        <time>2018-06-17T09:33:42Z</time>
      </trkpt>
      <trkpt lat="44.56771" lon="5.73439">
        <ele>841.82</ele>
        <time>2018-06-17T09:33:44Z</time>
      </trkpt>
      <trkpt lat="44.56771" lon="5.73399">
        <ele>842.48</ele>
        <time>2018-06-17T09:33:46Z</time>
      </trkpt>
      <trkpt lat="44.56772" lon="5.73362">
        <ele>842.54</ele>
        <time>2018-06-17T09:33:48Z</time>
      </trkpt>
      <trkpt lat="44.56773" lon="5.73327">
        <ele>844.16</ele>
        <time>2018-06-17T09:33:50Z</time>
      </trkpt>
      <trkpt lat="44.56776" lon="5.73292">
        <ele>844.51</ele>
        <time>2018-06-17T09:33:52Z</time>
      </trkpt>
      <trkpt lat="44.5678" lon="5.73257">
        <ele>845.45</ele>
        <time>2018-06-17T09:33:54Z</time>
      </trkpt>
      <trkpt lat="44.56784" lon="5.73223">
        <ele>845.54</ele>
        <time>2018-06-17T09:33:56Z</time>
      </trkpt>
      <trkpt lat="44.56792" lon="5.73189">
        <ele>845.55</ele>
        <time>2018-06-17T09:33:58Z</time>
      </trkpt>
      <trkpt lat="44.56806" lon="5.73156">
        <ele>846.46</ele>
        <time>2018-06-17T09:34:00Z</time>
      </trkpt>
      <trkpt lat="44.56823" lon="5.73128">
        <ele>846.54</ele>
        <time>2018-06-17T09:34:02Z</time>
      </trkpt>
      <trkpt lat="44.56841" lon="5.73104">
        <ele>845.85</ele>
        <time>2018-06-17T09:34:04Z</time>
      </trkpt>
      <trkpt lat="44.56856" lon="5.73073">
        <ele>846.48</ele>
        <time>2018-06-17T09:34:06Z</time>
      </trkpt>
      <trkpt lat="44.56868" lon="5.73037">
        <ele>847.45</ele>
        <time>2018-06-17T09:34:08Z</time>
      </trkpt>
      <trkpt lat="44.56875" lon="5.72998">
        <ele>846.63</ele>
        <time>2018-06-17T09:34:10Z</time>
      </trkpt>
      <trkpt lat="44.56877" lon="5.72955">
        <ele>847.47</ele>
        <time>2018-06-17T09:34:12Z</time>
      </trkpt>
      <trkpt lat="44.56875" lon="5.7291">
        <ele>848.24</ele>
        <time>2018-06-17T09:34:14Z</time>
      </trkpt>
      <trkpt lat="44.56867" lon="5.72864">
        <ele>848.52</ele>
        <time>2018-06-17T09:34:16Z</time>
      </trkpt>
      <trkpt lat="44.56855" lon="5.72822">
        <ele>849.25</ele>
        <time>2018-06-17T09:34:18Z</time>
      </trkpt>
      <trkpt lat="44.56843" lon="5.72784">
        <ele>848.61</ele>
        <time>2018-06-17T09:34:20Z</time>
      </trkpt>
      <trkpt lat="44.56832" lon="5.7275">
        <ele>848.55</ele>
        <time>2018-06-17T09:34:22Z</time>
      </trkpt>
      <trkpt lat="44.56824" lon="5.7272">
        <ele>848.55</ele>
        <time>2018-06-17T09:34:24Z</time>
      </trkpt>
      <trkpt lat="44.56823" lon="5.72689">
        <ele>848.55</ele>
        <time>2018-06-17T09:34:26Z</time>
      </trkpt>
      <trkpt lat="44.56826" lon="5.72653">
        <ele>849.25</ele>
        <time>2018-06-17T09:34:28Z</time>
      </trkpt>
      <trkpt lat="44.56832" lon="5.72612">
        <ele>849.52</ele>
        <time>2018-06-17T09:34:30Z</time>
      </trkpt>
      <trkpt lat="44.56839" lon="5.7257">
        <ele>850.25</ele>
        <time>2018-06-17T09:34:32Z</time>
      </trkpt>
      <trkpt lat="44.56845" lon="5.72526">
        <ele>850.52</ele>
        <time>2018-06-17T09:34:34Z</time>
      </trkpt>
      <trkpt lat="44.56853" lon="5.72483">
        <ele>850.55</ele>
        <time>2018-06-17T09:34:36Z</time>
      </trkpt>
      <trkpt lat="44.56858" lon="5.7244">
        <ele>850.55</ele>
        <time>2018-06-17T09:34:38Z</time>
      </trkpt>
      <trkpt lat="44.56859" lon="5.72394">
        <ele>852.16</ele>
        <time>2018-06-17T09:34:40Z</time>
      </trkpt>
      <trkpt lat="44.5686" lon="5.72345">
        <ele>854.12</ele>
        <time>2018-06-17T09:34:42Z</time>
      </trkpt>
      <trkpt lat="44.56861" lon="5.72298">
        <ele>855.21</ele>
        <time>2018-06-17T09:34:44Z</time>
      </trkpt>
      <trkpt lat="44.56869" lon="5.72253">
        <ele>857.13</ele>
        <time>2018-06-17T09:34:46Z</time>
      </trkpt>
      <trkpt lat="44.56888" lon="5.72213">
        <ele>858.42</ele>
        <time>2018-06-17T09:34:48Z</time>
      </trkpt>
      <trkpt lat="44.56902" lon="5.72177">
        <ele>860.85</ele>
        <time>2018-06-17T09:34:50Z</time>
      </trkpt>
      <trkpt lat="44.5691" lon="5.72145">
        <ele>861.48</ele>
        <time>2018-06-17T09:34:52Z</time>
      </trkpt>
      <trkpt lat="44.56918" lon="5.7211">
        <ele>862.45</ele>
        <time>2018-06-17T09:34:54Z</time>
      </trkpt>
      <trkpt lat="44.56935" lon="5.72071">
        <ele>864.15</ele>
        <time>2018-06-17T09:34:56Z</time>
      </trkpt>
      <trkpt lat="44.56947" lon="5.7205">
        <ele>865.83</ele>
        <time>2018-06-17T09:34:57Z</time>
      </trkpt>
      <trkpt lat="44.56959" lon="5.72028">
        <ele>867.03</ele>
        <time>2018-06-17T09:34:58Z</time>
      </trkpt>
      <trkpt lat="44.5697" lon="5.72005">
        <ele>868.09</ele>
        <time>2018-06-17T09:34:59Z</time>
      </trkpt>
      <trkpt lat="44.56979" lon="5.71982">
        <ele>869.11</ele>
        <time>2018-06-17T09:35:00Z</time>
      </trkpt>
      <trkpt lat="44.56988" lon="5.71958">
        <ele>870.12</ele>
        <time>2018-06-17T09:35:01Z</time>
      </trkpt>
      <trkpt lat="44.56999" lon="5.71935">
        <ele>871.82</ele>
        <time>2018-06-17T09:35:02Z</time>
      </trkpt>
      <trkpt lat="44.57012" lon="5.71913">
        <ele>873.03</ele>
        <time>2018-06-17T09:35:03Z</time>
      </trkpt>
      <trkpt lat="44.57025" lon="5.71893">
        <ele>874.09</ele>
        <time>2018-06-17T09:35:04Z</time>
      </trkpt>
      <trkpt lat="44.57039" lon="5.71874">
        <ele>874.41</ele>
        <time>2018-06-17T09:35:05Z</time>
      </trkpt>
      <trkpt lat="44.57054" lon="5.71856">
        <ele>874.51</ele>
        <time>2018-06-17T09:35:06Z</time>
      </trkpt>
      <trkpt lat="44.57074" lon="5.71844">
        <ele>875.24</ele>
        <time>2018-06-17T09:35:07Z</time>
      </trkpt>
      <trkpt lat="44.57091" lon="5.71828">
        <ele>876.15</ele>
        <time>2018-06-17T09:35:08Z</time>
      </trkpt>
      <trkpt lat="44.57107" lon="5.71813">
        <ele>876.43</ele>
        <time>2018-06-17T09:35:09Z</time>
      </trkpt>
      <trkpt lat="44.57123" lon="5.71796">
        <ele>877.21</ele>
        <time>2018-06-17T09:35:10Z</time>
      </trkpt>
      <trkpt lat="44.57139" lon="5.71778">
        <ele>877.45</ele>
        <time>2018-06-17T09:35:11Z</time>
      </trkpt>
      <trkpt lat="44.57154" lon="5.71759">
        <ele>878.22</ele>
        <time>2018-06-17T09:35:12Z</time>
      </trkpt>
      <trkpt lat="44.57169" lon="5.71739">
        <ele>879.15</ele>
        <time>2018-06-17T09:35:13Z</time>
      </trkpt>
      <trkpt lat="44.57184" lon="5.71719">
        <ele>879.43</ele>
        <time>2018-06-17T09:35:14Z</time>
      </trkpt>
      <trkpt lat="44.57199" lon="5.717">
        <ele>879.51</ele>
        <time>2018-06-17T09:35:15Z</time>
      </trkpt>
      <trkpt lat="44.57213" lon="5.71679">
        <ele>879.54</ele>
        <time>2018-06-17T09:35:16Z</time>
      </trkpt>
      <trkpt lat="44.57226" lon="5.71658">
        <ele>880.24</ele>
        <time>2018-06-17T09:35:17Z</time>
      </trkpt>
      <trkpt lat="44.57239" lon="5.71637">
        <ele>881.86</ele>
        <time>2018-06-17T09:35:18Z</time>
      </trkpt>
      <trkpt lat="44.57252" lon="5.71614">
        <ele>882.34</ele>
        <time>2018-06-17T09:35:19Z</time>
      </trkpt>
      <trkpt lat="44.57265" lon="5.71593">
        <ele>883.19</ele>
        <time>2018-06-17T09:35:20Z</time>
      </trkpt>
      <trkpt lat="44.57279" lon="5.71572">
        <ele>883.44</ele>
        <time>2018-06-17T09:35:21Z</time>
      </trkpt>
      <trkpt lat="44.57292" lon="5.71551">
        <ele>883.52</ele>
        <time>2018-06-17T09:35:22Z</time>
      </trkpt>
      <trkpt lat="44.57304" lon="5.71531">
        <ele>884.24</ele>
        <time>2018-06-17T09:35:23Z</time>
      </trkpt>
      <trkpt lat="44.57314" lon="5.71509">
        <ele>884.46</ele>
        <time>2018-06-17T09:35:24Z</time>
      </trkpt>
      <trkpt lat="44.57321" lon="5.71484">
        <ele>885.22</ele>
        <time>2018-06-17T09:35:25Z</time>
      </trkpt>
      <trkpt lat="44.57326" lon="5.71457">
        <ele>886.85</ele>
        <time>2018-06-17T09:35:26Z</time>
      </trkpt>
      <trkpt lat="44.5733" lon="5.71428">
        <ele>887.34</ele>
        <time>2018-06-17T09:35:27Z</time>
      </trkpt>
      <trkpt lat="44.57334" lon="5.714">
        <ele>888.19</ele>
        <time>2018-06-17T09:35:28Z</time>
      </trkpt>
      <trkpt lat="44.57338" lon="5.71371">
        <ele>889.14</ele>
        <time>2018-06-17T09:35:29Z</time>
      </trkpt>
      <trkpt lat="44.57342" lon="5.71344">
        <ele>889.43</ele>
        <time>2018-06-17T09:35:30Z</time>
      </trkpt>
      <trkpt lat="44.57346" lon="5.71318">
        <ele>890.21</ele>
        <time>2018-06-17T09:35:31Z</time>
      </trkpt>
      <trkpt lat="44.57348" lon="5.71292">
        <ele>891.15</ele>
        <time>2018-06-17T09:35:32Z</time>
      </trkpt>
      <trkpt lat="44.57349" lon="5.71246">
        <ele>894.94</ele>
        <time>2018-06-17T09:35:34Z</time>
      </trkpt>
      <trkpt lat="44.57341" lon="5.71209">
        <ele>897.8</ele>
        <time>2018-06-17T09:35:36Z</time>
      </trkpt>
      <trkpt lat="44.57325" lon="5.7118">
        <ele>899.39</ele>
        <time>2018-06-17T09:35:38Z</time>
      </trkpt>
      <trkpt lat="44.57319" lon="5.71146">
        <ele>901.14</ele>
        <time>2018-06-17T09:35:40Z</time>
      </trkpt>
      <trkpt lat="44.57319" lon="5.71107">
        <ele>902.42</ele>
        <time>2018-06-17T09:35:42Z</time>
      </trkpt>
      <trkpt lat="44.57324" lon="5.71063">
        <ele>903.45</ele>
        <time>2018-06-17T09:35:44Z</time>
      </trkpt>
      <trkpt lat="44.57335" lon="5.71021">
        <ele>904.24</ele>
        <time>2018-06-17T09:35:46Z</time>
      </trkpt>
      <trkpt lat="44.57351" lon="5.70981">
        <ele>906.13</ele>
        <time>2018-06-17T09:35:48Z</time>
      </trkpt>
      <trkpt lat="44.57366" lon="5.70946">
        <ele>909.03</ele>
        <time>2018-06-17T09:35:50Z</time>
      </trkpt>
      <trkpt lat="44.57388" lon="5.70926">
        <ele>911.32</ele>
        <time>2018-06-17T09:35:52Z</time>
      </trkpt>
      <trkpt lat="44.57416" lon="5.70913">
        <ele>912.44</ele>
        <time>2018-06-17T09:35:54Z</time>
      </trkpt>
      <trkpt lat="44.57443" lon="5.70892">
        <ele>913.45</ele>
        <time>2018-06-17T09:35:56Z</time>
      </trkpt>
      <trkpt lat="44.57465" lon="5.70861">
        <ele>914.45</ele>
        <time>2018-06-17T09:35:58Z</time>
      </trkpt>
      <trkpt lat="44.57489" lon="5.7083">
        <ele>916.64</ele>
        <time>2018-06-17T09:36:00Z</time>
      </trkpt>
      <trkpt lat="44.57515" lon="5.708">
        <ele>919.08</ele>
        <time>2018-06-17T09:36:02Z</time>
      </trkpt>
      <trkpt lat="44.57541" lon="5.70768">
        <ele>920.91</ele>
        <time>2018-06-17T09:36:04Z</time>
      </trkpt>
      <trkpt lat="44.57566" lon="5.70733">
        <ele>922.4</ele>
        <time>2018-06-17T09:36:06Z</time>
      </trkpt>
      <trkpt lat="44.57585" lon="5.70692">
        <ele>924.14</ele>
        <time>2018-06-17T09:36:08Z</time>
      </trkpt>
      <trkpt lat="44.57605" lon="5.70651">
        <ele>924.51</ele>
        <time>2018-06-17T09:36:10Z</time>
      </trkpt>
      <trkpt lat="44.57626" lon="5.70612">
        <ele>925.24</ele>
        <time>2018-06-17T09:36:12Z</time>
      </trkpt>
      <trkpt lat="44.57641" lon="5.70597">
        <ele>924.76</ele>
        <time>2018-06-17T09:36:13Z</time>
      </trkpt>
      <trkpt lat="44.57655" lon="5.70582">
        <ele>926.01</ele>
        <time>2018-06-17T09:36:14Z</time>
      </trkpt>
      <trkpt lat="44.57674" lon="5.70576">
        <ele>926.39</ele>
        <time>2018-06-17T09:36:15Z</time>
      </trkpt>
      <trkpt lat="44.57704" lon="5.70557">
        <ele>925.83</ele>
        <time>2018-06-17T09:36:17Z</time>
      </trkpt>
      <trkpt lat="44.57723" lon="5.70553">
        <ele>926.33</ele>
        <time>2018-06-17T09:36:18Z</time>
      </trkpt>
      <trkpt lat="44.57741" lon="5.70549">
        <ele>926.48</ele>
        <time>2018-06-17T09:36:19Z</time>
      </trkpt>
      <trkpt lat="44.57776" lon="5.70539">
        <ele>926.54</ele>
        <time>2018-06-17T09:36:21Z</time>
      </trkpt>
      <trkpt lat="44.57806" lon="5.70523">
        <ele>925.85</ele>
        <time>2018-06-17T09:36:23Z</time>
      </trkpt>
      <trkpt lat="44.57829" lon="5.70491">
        <ele>925.57</ele>
        <time>2018-06-17T09:36:25Z</time>
      </trkpt>
      <trkpt lat="44.57845" lon="5.7045">
        <ele>926.46</ele>
        <time>2018-06-17T09:36:27Z</time>
      </trkpt>
      <trkpt lat="44.57864" lon="5.70408">
        <ele>928.15</ele>
        <time>2018-06-17T09:36:29Z</time>
      </trkpt>
      <trkpt lat="44.57875" lon="5.70388">
        <ele>929.13</ele>
        <time>2018-06-17T09:36:30Z</time>
      </trkpt>
      <trkpt lat="44.57888" lon="5.70371">
        <ele>928.72</ele>
        <time>2018-06-17T09:36:31Z</time>
      </trkpt>
      <trkpt lat="44.579" lon="5.70351">
        <ele>928.6</ele>
        <time>2018-06-17T09:36:32Z</time>
      </trkpt>
      <trkpt lat="44.57907" lon="5.70325">
        <ele>929.26</ele>
        <time>2018-06-17T09:36:33Z</time>
      </trkpt>
      <trkpt lat="44.57915" lon="5.70302">
        <ele>929.46</ele>
        <time>2018-06-17T09:36:34Z</time>
      </trkpt>
      <trkpt lat="44.57924" lon="5.70277">
        <ele>930.22</ele>
        <time>2018-06-17T09:36:35Z</time>
      </trkpt>
      <trkpt lat="44.57932" lon="5.70252">
        <ele>930.45</ele>
        <time>2018-06-17T09:36:36Z</time>
      </trkpt>
      <trkpt lat="44.5794" lon="5.70228">
        <ele>931.92</ele>
        <time>2018-06-17T09:36:37Z</time>
      </trkpt>
      <trkpt lat="44.57948" lon="5.70203">
        <ele>932.36</ele>
        <time>2018-06-17T09:36:38Z</time>
      </trkpt>
      <trkpt lat="44.57956" lon="5.70179">
        <ele>933.19</ele>
        <time>2018-06-17T09:36:39Z</time>
      </trkpt>
      <trkpt lat="44.57964" lon="5.70154">
        <ele>934.14</ele>
        <time>2018-06-17T09:36:40Z</time>
      </trkpt>
      <trkpt lat="44.57972" lon="5.7013">
        <ele>935.13</ele>
        <time>2018-06-17T09:36:41Z</time>
      </trkpt>
      <trkpt lat="44.57987" lon="5.70087">
        <ele>936.21</ele>
        <time>2018-06-17T09:36:43Z</time>
      </trkpt>
      <trkpt lat="44.58004" lon="5.70052">
        <ele>937.43</ele>
        <time>2018-06-17T09:36:45Z</time>
      </trkpt>
      <trkpt lat="44.58031" lon="5.70021">
        <ele>938.24</ele>
        <time>2018-06-17T09:36:47Z</time>
      </trkpt>
      <trkpt lat="44.58055" lon="5.69986">
        <ele>937.82</ele>
        <time>2018-06-17T09:36:49Z</time>
      </trkpt>
      <trkpt lat="44.58064" lon="5.69961">
        <ele>938.33</ele>
        <time>2018-06-17T09:36:50Z</time>
      </trkpt>
      <trkpt lat="44.58073" lon="5.69937">
        <ele>937.78</ele>
        <time>2018-06-17T09:36:51Z</time>
      </trkpt>
      <trkpt lat="44.58082" lon="5.69915">
        <ele>938.32</ele>
        <time>2018-06-17T09:36:52Z</time>
      </trkpt>
      <trkpt lat="44.58092" lon="5.69892">
        <ele>939.18</ele>
        <time>2018-06-17T09:36:53Z</time>
      </trkpt>
      <trkpt lat="44.58117" lon="5.69856">
        <ele>939.51</ele>
        <time>2018-06-17T09:36:55Z</time>
      </trkpt>
      <trkpt lat="44.5813" lon="5.69838">
        <ele>939.54</ele>
        <time>2018-06-17T09:36:56Z</time>
      </trkpt>
      <trkpt lat="44.58143" lon="5.6982">
        <ele>939.54</ele>
        <time>2018-06-17T09:36:57Z</time>
      </trkpt>
      <trkpt lat="44.58158" lon="5.69801">
        <ele>940.95</ele>
        <time>2018-06-17T09:36:58Z</time>
      </trkpt>
      <trkpt lat="44.58172" lon="5.69784">
        <ele>941.37</ele>
        <time>2018-06-17T09:36:59Z</time>
      </trkpt>
      <trkpt lat="44.58188" lon="5.69769">
        <ele>940.79</ele>
        <time>2018-06-17T09:37:00Z</time>
      </trkpt>
      <trkpt lat="44.58206" lon="5.69756">
        <ele>941.32</ele>
        <time>2018-06-17T09:37:01Z</time>
      </trkpt>
      <trkpt lat="44.58235" lon="5.69727">
        <ele>943.35</ele>
        <time>2018-06-17T09:37:03Z</time>
      </trkpt>
      <trkpt lat="44.58264" lon="5.69695">
        <ele>945.35</ele>
        <time>2018-06-17T09:37:05Z</time>
      </trkpt>
      <trkpt lat="44.58278" lon="5.69679">
        <ele>945.49</ele>
        <time>2018-06-17T09:37:06Z</time>
      </trkpt>
      <trkpt lat="44.58294" lon="5.69662">
        <ele>945.53</ele>
        <time>2018-06-17T09:37:07Z</time>
      </trkpt>
      <trkpt lat="44.58308" lon="5.69646">
        <ele>945.54</ele>
        <time>2018-06-17T09:37:08Z</time>
      </trkpt>
      <trkpt lat="44.58322" lon="5.69629">
        <ele>945.55</ele>
        <time>2018-06-17T09:37:09Z</time>
      </trkpt>
      <trkpt lat="44.58335" lon="5.6961">
        <ele>944.85</ele>
        <time>2018-06-17T09:37:10Z</time>
      </trkpt>
      <trkpt lat="44.58347" lon="5.69589">
        <ele>946.04</ele>
        <time>2018-06-17T09:37:11Z</time>
      </trkpt>
      <trkpt lat="44.58359" lon="5.69568">
        <ele>946.39</ele>
        <time>2018-06-17T09:37:12Z</time>
      </trkpt>
      <trkpt lat="44.5837" lon="5.69547">
        <ele>946.5</ele>
        <time>2018-06-17T09:37:13Z</time>
      </trkpt>
      <trkpt lat="44.58382" lon="5.69527">
        <ele>947.23</ele>
        <time>2018-06-17T09:37:14Z</time>
      </trkpt>
      <trkpt lat="44.58393" lon="5.69507">
        <ele>947.45</ele>
        <time>2018-06-17T09:37:15Z</time>
      </trkpt>
      <trkpt lat="44.58405" lon="5.69488">
        <ele>947.52</ele>
        <time>2018-06-17T09:37:16Z</time>
      </trkpt>
      <trkpt lat="44.58416" lon="5.69468">
        <ele>948.24</ele>
        <time>2018-06-17T09:37:17Z</time>
      </trkpt>
      <trkpt lat="44.58438" lon="5.6943">
        <ele>950.13</ele>
        <time>2018-06-17T09:37:19Z</time>
      </trkpt>
      <trkpt lat="44.5846" lon="5.69392">
        <ele>949.81</ele>
        <time>2018-06-17T09:37:21Z</time>
      </trkpt>
      <trkpt lat="44.58481" lon="5.69355">
        <ele>949.57</ele>
        <time>2018-06-17T09:37:23Z</time>
      </trkpt>
      <trkpt lat="44.58497" lon="5.69314">
        <ele>949.55</ele>
        <time>2018-06-17T09:37:25Z</time>
      </trkpt>
      <trkpt lat="44.58504" lon="5.69267">
        <ele>949.55</ele>
        <time>2018-06-17T09:37:27Z</time>
      </trkpt>
      <trkpt lat="44.58509" lon="5.69224">
        <ele>949.55</ele>
        <time>2018-06-17T09:37:29Z</time>
      </trkpt>
      <trkpt lat="44.58522" lon="5.69191">
        <ele>950.46</ele>
        <time>2018-06-17T09:37:31Z</time>
      </trkpt>
      <trkpt lat="44.58536" lon="5.69158">
        <ele>950.54</ele>
        <time>2018-06-17T09:37:33Z</time>
      </trkpt>
      <trkpt lat="44.58546" lon="5.69118">
        <ele>951.46</ele>
        <time>2018-06-17T09:37:35Z</time>
      </trkpt>
      <trkpt lat="44.58555" lon="5.69081">
        <ele>951.54</ele>
        <time>2018-06-17T09:37:37Z</time>
      </trkpt>
      <trkpt lat="44.58563" lon="5.69045">
        <ele>952.46</ele>
        <time>2018-06-17T09:37:39Z</time>
      </trkpt>
      <trkpt lat="44.5857" lon="5.69012">
        <ele>953.24</ele>
        <time>2018-06-17T09:37:41Z</time>
      </trkpt>
      <trkpt lat="44.58576" lon="5.68979">
        <ele>954.22</ele>
        <time>2018-06-17T09:37:43Z</time>
      </trkpt>
      <trkpt lat="44.58585" lon="5.68944">
        <ele>955.43</ele>
        <time>2018-06-17T09:37:45Z</time>
      </trkpt>
      <trkpt lat="44.58597" lon="5.68907">
        <ele>955.54</ele>
        <time>2018-06-17T09:37:47Z</time>
      </trkpt>
      <trkpt lat="44.58612" lon="5.68865">
        <ele>956.25</ele>
        <time>2018-06-17T09:37:49Z</time>
      </trkpt>
      <trkpt lat="44.58626" lon="5.68823">
        <ele>956.52</ele>
        <time>2018-06-17T09:37:51Z</time>
      </trkpt>
      <trkpt lat="44.58642" lon="5.68778">
        <ele>956.55</ele>
        <time>2018-06-17T09:37:53Z</time>
      </trkpt>
      <trkpt lat="44.5865" lon="5.68756">
        <ele>956.55</ele>
        <time>2018-06-17T09:37:54Z</time>
      </trkpt>
      <trkpt lat="44.58658" lon="5.68733">
        <ele>957.25</ele>
        <time>2018-06-17T09:37:55Z</time>
      </trkpt>
      <trkpt lat="44.58666" lon="5.6871">
        <ele>957.46</ele>
        <time>2018-06-17T09:37:56Z</time>
      </trkpt>
      <trkpt lat="44.58675" lon="5.68687">
        <ele>958.22</ele>
        <time>2018-06-17T09:37:57Z</time>
      </trkpt>
      <trkpt lat="44.58685" lon="5.68665">
        <ele>959.15</ele>
        <time>2018-06-17T09:37:58Z</time>
      </trkpt>
      <trkpt lat="44.58696" lon="5.68645">
        <ele>959.43</ele>
        <time>2018-06-17T09:37:59Z</time>
      </trkpt>
      <trkpt lat="44.5871" lon="5.68627">
        <ele>960.21</ele>
        <time>2018-06-17T09:38:00Z</time>
      </trkpt>
      <trkpt lat="44.58724" lon="5.68611">
        <ele>961.15</ele>
        <time>2018-06-17T09:38:01Z</time>
      </trkpt>
      <trkpt lat="44.5874" lon="5.68596">
        <ele>962.13</ele>
        <time>2018-06-17T09:38:02Z</time>
      </trkpt>
      <trkpt lat="44.58756" lon="5.68582">
        <ele>963.12</ele>
        <time>2018-06-17T09:38:03Z</time>
      </trkpt>
      <trkpt lat="44.58772" lon="5.68567">
        <ele>964.12</ele>
        <time>2018-06-17T09:38:04Z</time>
      </trkpt>
      <trkpt lat="44.58788" lon="5.68553">
        <ele>965.12</ele>
        <time>2018-06-17T09:38:05Z</time>
      </trkpt>
      <trkpt lat="44.58804" lon="5.6854">
        <ele>965.42</ele>
        <time>2018-06-17T09:38:06Z</time>
      </trkpt>
      <trkpt lat="44.5883" lon="5.68515">
        <ele>966.24</ele>
        <time>2018-06-17T09:38:08Z</time>
      </trkpt>
      <trkpt lat="44.58851" lon="5.68495">
        <ele>967.43</ele>
        <time>2018-06-17T09:38:10Z</time>
      </trkpt>
      <trkpt lat="44.58869" lon="5.68473">
        <ele>968.24</ele>
        <time>2018-06-17T09:38:12Z</time>
      </trkpt>
      <trkpt lat="44.5889" lon="5.68448">
        <ele>969.22</ele>
        <time>2018-06-17T09:38:14Z</time>
      </trkpt>
      <trkpt lat="44.58911" lon="5.68422">
        <ele>970.22</ele>
        <time>2018-06-17T09:38:16Z</time>
      </trkpt>
      <trkpt lat="44.58933" lon="5.68395">
        <ele>971.43</ele>
        <time>2018-06-17T09:38:18Z</time>
      </trkpt>
      <trkpt lat="44.58954" lon="5.68374">
        <ele>972.45</ele>
        <time>2018-06-17T09:38:20Z</time>
      </trkpt>
      <trkpt lat="44.5898" lon="5.68361">
        <ele>973.24</ele>
        <time>2018-06-17T09:38:22Z</time>
      </trkpt>
      <trkpt lat="44.5901" lon="5.68347">
        <ele>973.52</ele>
        <time>2018-06-17T09:38:24Z</time>
      </trkpt>
      <trkpt lat="44.5904" lon="5.68331">
        <ele>974.46</ele>
        <time>2018-06-17T09:38:26Z</time>
      </trkpt>
      <trkpt lat="44.59068" lon="5.68312">
        <ele>974.54</ele>
        <time>2018-06-17T09:38:28Z</time>
      </trkpt>
      <trkpt lat="44.59091" lon="5.68289">
        <ele>975.25</ele>
        <time>2018-06-17T09:38:30Z</time>
      </trkpt>
      <trkpt lat="44.59111" lon="5.68267">
        <ele>976.92</ele>
        <time>2018-06-17T09:38:32Z</time>
      </trkpt>
      <trkpt lat="44.59129" lon="5.68248">
        <ele>979.1</ele>
        <time>2018-06-17T09:38:34Z</time>
      </trkpt>
      <trkpt lat="44.59139" lon="5.68225">
        <ele>980.42</ele>
        <time>2018-06-17T09:38:36Z</time>
      </trkpt>
      <trkpt lat="44.59149" lon="5.68196">
        <ele>981.52</ele>
        <time>2018-06-17T09:38:39Z</time>
      </trkpt>
      <trkpt lat="44.59161" lon="5.68177">
        <ele>981.55</ele>
        <time>2018-06-17T09:38:41Z</time>
      </trkpt>
      <trkpt lat="44.59174" lon="5.68155">
        <ele>982.25</ele>
        <time>2018-06-17T09:38:43Z</time>
      </trkpt>
      <trkpt lat="44.59185" lon="5.68128">
        <ele>982.52</ele>
        <time>2018-06-17T09:38:45Z</time>
      </trkpt>
      <trkpt lat="44.59193" lon="5.68097">
        <ele>983.25</ele>
        <time>2018-06-17T09:38:47Z</time>
      </trkpt>
      <trkpt lat="44.59204" lon="5.68062">
        <ele>984.22</ele>
        <time>2018-06-17T09:38:49Z</time>
      </trkpt>
      <trkpt lat="44.59214" lon="5.68026">
        <ele>984.52</ele>
        <time>2018-06-17T09:38:51Z</time>
      </trkpt>
      <trkpt lat="44.59225" lon="5.6799">
        <ele>985.46</ele>
        <time>2018-06-17T09:38:53Z</time>
      </trkpt>
      <trkpt lat="44.59236" lon="5.67956">
        <ele>985.54</ele>
        <time>2018-06-17T09:38:55Z</time>
      </trkpt>
      <trkpt lat="44.59249" lon="5.67921">
        <ele>986.46</ele>
        <time>2018-06-17T09:38:57Z</time>
      </trkpt>
      <trkpt lat="44.59265" lon="5.67888">
        <ele>987.45</ele>
        <time>2018-06-17T09:38:59Z</time>
      </trkpt>
      <trkpt lat="44.59278" lon="5.67853">
        <ele>987.54</ele>
        <time>2018-06-17T09:39:01Z</time>
      </trkpt>
      <trkpt lat="44.59287" lon="5.67814">
        <ele>988.25</ele>
        <time>2018-06-17T09:39:03Z</time>
      </trkpt>
      <trkpt lat="44.59294" lon="5.67774">
        <ele>989.22</ele>
        <time>2018-06-17T09:39:05Z</time>
      </trkpt>
      <trkpt lat="44.59302" lon="5.67738">
        <ele>989.52</ele>
        <time>2018-06-17T09:39:07Z</time>
      </trkpt>
      <trkpt lat="44.59306" lon="5.67702">
        <ele>989.55</ele>
        <time>2018-06-17T09:39:09Z</time>
      </trkpt>
      <trkpt lat="44.59301" lon="5.67665">
        <ele>989.55</ele>
        <time>2018-06-17T09:39:11Z</time>
      </trkpt>
      <trkpt lat="44.59295" lon="5.67627">
        <ele>989.76</ele>
        <time>2018-06-17T09:39:13Z</time>
      </trkpt>
      <trkpt lat="44.59299" lon="5.67588">
        <ele>990.48</ele>
        <time>2018-06-17T09:39:15Z</time>
      </trkpt>
      <trkpt lat="44.593" lon="5.67552">
        <ele>990.54</ele>
        <time>2018-06-17T09:39:17Z</time>
      </trkpt>
      <trkpt lat="44.59291" lon="5.67522">
        <ele>990.55</ele>
        <time>2018-06-17T09:39:19Z</time>
      </trkpt>
      <trkpt lat="44.59273" lon="5.67502">
        <ele>990.55</ele>
        <time>2018-06-17T09:39:21Z</time>
      </trkpt>
      <trkpt lat="44.59255" lon="5.67494">
        <ele>991.25</ele>
        <time>2018-06-17T09:39:23Z</time>
      </trkpt>
      <trkpt lat="44.5924" lon="5.67465">
        <ele>992.39</ele>
        <time>2018-06-17T09:39:26Z</time>
      </trkpt>
      <trkpt lat="44.59241" lon="5.67436">
        <ele>991.83</ele>
        <time>2018-06-17T09:39:28Z</time>
      </trkpt>
      <trkpt lat="44.59243" lon="5.67404">
        <ele>992.48</ele>
        <time>2018-06-17T09:39:30Z</time>
      </trkpt>
      <trkpt lat="44.59245" lon="5.67371">
        <ele>992.54</ele>
        <time>2018-06-17T09:39:32Z</time>
      </trkpt>
      <trkpt lat="44.59247" lon="5.67334">
        <ele>994.16</ele>
        <time>2018-06-17T09:39:34Z</time>
      </trkpt>
      <trkpt lat="44.59248" lon="5.67297">
        <ele>995.42</ele>
        <time>2018-06-17T09:39:36Z</time>
      </trkpt>
      <trkpt lat="44.59245" lon="5.67258">
        <ele>996.45</ele>
        <time>2018-06-17T09:39:38Z</time>
      </trkpt>
      <trkpt lat="44.59238" lon="5.67218">
        <ele>995.84</ele>
        <time>2018-06-17T09:39:40Z</time>
      </trkpt>
      <trkpt lat="44.5923" lon="5.67176">
        <ele>995.78</ele>
        <time>2018-06-17T09:39:42Z</time>
      </trkpt>
      <trkpt lat="44.5922" lon="5.67132">
        <ele>996.48</ele>
        <time>2018-06-17T09:39:44Z</time>
      </trkpt>
      <trkpt lat="44.59208" lon="5.67086">
        <ele>997.24</ele>
        <time>2018-06-17T09:39:46Z</time>
      </trkpt>
      <trkpt lat="44.59196" lon="5.6704">
        <ele>997.52</ele>
        <time>2018-06-17T09:39:48Z</time>
      </trkpt>
      <trkpt lat="44.59183" lon="5.66993">
        <ele>997.55</ele>
        <time>2018-06-17T09:39:50Z</time>
      </trkpt>
      <trkpt lat="44.59177" lon="5.66968">
        <ele>998.25</ele>
        <time>2018-06-17T09:39:51Z</time>
      </trkpt>
      <trkpt lat="44.5917" lon="5.66944">
        <ele>999.16</ele>
        <time>2018-06-17T09:39:52Z</time>
      </trkpt>
      <trkpt lat="44.59164" lon="5.66921">
        <ele>1000.13</ele>
        <time>2018-06-17T09:39:53Z</time>
      </trkpt>
      <trkpt lat="44.59157" lon="5.66897">
        <ele>1000.42</ele>
        <time>2018-06-17T09:39:54Z</time>
      </trkpt>
      <trkpt lat="44.59147" lon="5.66849">
        <ele>1000.54</ele>
        <time>2018-06-17T09:39:56Z</time>
      </trkpt>
      <trkpt lat="44.5914" lon="5.66825">
        <ele>1001.24</ele>
        <time>2018-06-17T09:39:57Z</time>
      </trkpt>
      <trkpt lat="44.59128" lon="5.66778">
        <ele>1002.43</ele>
        <time>2018-06-17T09:39:59Z</time>
      </trkpt>
      <trkpt lat="44.59123" lon="5.66729">
        <ele>1004.15</ele>
        <time>2018-06-17T09:40:01Z</time>
      </trkpt>
      <trkpt lat="44.59118" lon="5.66681">
        <ele>1004.51</ele>
        <time>2018-06-17T09:40:03Z</time>
      </trkpt>
      <trkpt lat="44.59108" lon="5.66634">
        <ele>1005.45</ele>
        <time>2018-06-17T09:40:05Z</time>
      </trkpt>
      <trkpt lat="44.59098" lon="5.66587">
        <ele>1006.45</ele>
        <time>2018-06-17T09:40:07Z</time>
      </trkpt>
      <trkpt lat="44.59092" lon="5.66541">
        <ele>1008.15</ele>
        <time>2018-06-17T09:40:09Z</time>
      </trkpt>
      <trkpt lat="44.59096" lon="5.66501">
        <ele>1011.03</ele>
        <time>2018-06-17T09:40:11Z</time>
      </trkpt>
      <trkpt lat="44.59106" lon="5.66471">
        <ele>1013.11</ele>
        <time>2018-06-17T09:40:13Z</time>
      </trkpt>
      <trkpt lat="44.59122" lon="5.66445">
        <ele>1014.21</ele>
        <time>2018-06-17T09:40:15Z</time>
      </trkpt>
      <trkpt lat="44.59134" lon="5.66417">
        <ele>1016.21</ele>
        <time>2018-06-17T09:40:18Z</time>
      </trkpt>
      <trkpt lat="44.59123" lon="5.66391">
        <ele>1016.81</ele>
        <time>2018-06-17T09:40:21Z</time>
      </trkpt>
      <trkpt lat="44.59111" lon="5.66369">
        <ele>1015.66</ele>
        <time>2018-06-17T09:40:23Z</time>
      </trkpt>
      <trkpt lat="44.59096" lon="5.6635">
        <ele>1014.65</ele>
        <time>2018-06-17T09:40:25Z</time>
      </trkpt>
      <trkpt lat="44.59077" lon="5.66334">
        <ele>1015.47</ele>
        <time>2018-06-17T09:40:27Z</time>
      </trkpt>
      <trkpt lat="44.59058" lon="5.66318">
        <ele>1016.24</ele>
        <time>2018-06-17T09:40:29Z</time>
      </trkpt>
      <trkpt lat="44.59044" lon="5.66301">
        <ele>1017.43</ele>
        <time>2018-06-17T09:40:31Z</time>
      </trkpt>
      <trkpt lat="44.59026" lon="5.66284">
        <ele>1018.24</ele>
        <time>2018-06-17T09:40:33Z</time>
      </trkpt>
      <trkpt lat="44.59007" lon="5.66268">
        <ele>1019.22</ele>
        <time>2018-06-17T09:40:35Z</time>
      </trkpt>
      <trkpt lat="44.58989" lon="5.66251">
        <ele>1021.34</ele>
        <time>2018-06-17T09:40:37Z</time>
      </trkpt>
      <trkpt lat="44.58977" lon="5.66223">
        <ele>1022.93</ele>
        <time>2018-06-17T09:40:39Z</time>
      </trkpt>
      <trkpt lat="44.58966" lon="5.66188">
        <ele>1024.4</ele>
        <time>2018-06-17T09:40:41Z</time>
      </trkpt>
      <trkpt lat="44.5895" lon="5.66158">
        <ele>1027.75</ele>
        <time>2018-06-17T09:40:43Z</time>
      </trkpt>
      <trkpt lat="44.5893" lon="5.66134">
        <ele>1030.09</ele>
        <time>2018-06-17T09:40:45Z</time>
      </trkpt>
      <trkpt lat="44.58907" lon="5.66111">
        <ele>1031.21</ele>
        <time>2018-06-17T09:40:47Z</time>
      </trkpt>
      <trkpt lat="44.58885" lon="5.66088">
        <ele>1034.53</ele>
        <time>2018-06-17T09:40:49Z</time>
      </trkpt>
      <trkpt lat="44.58867" lon="5.66058">
        <ele>1037.28</ele>
        <time>2018-06-17T09:40:51Z</time>
      </trkpt>
      <trkpt lat="44.58858" lon="5.66024">
        <ele>1040.04</ele>
        <time>2018-06-17T09:40:53Z</time>
      </trkpt>
      <trkpt lat="44.58848" lon="5.66002">
        <ele>1041.41</ele>
        <time>2018-06-17T09:40:55Z</time>
      </trkpt>
      <trkpt lat="44.58868" lon="5.66008">
        <ele>1044.16</ele>
        <time>2018-06-17T09:41:00Z</time>
      </trkpt>
      <trkpt lat="44.58882" lon="5.66032">
        <ele>1044.11</ele>
        <time>2018-06-17T09:41:03Z</time>
      </trkpt>
      <trkpt lat="44.58908" lon="5.66032">
        <ele>1045.24</ele>
        <time>2018-06-17T09:41:06Z</time>
      </trkpt>
      <trkpt lat="44.58932" lon="5.66026">
        <ele>1046.43</ele>
        <time>2018-06-17T09:41:08Z</time>
      </trkpt>
      <trkpt lat="44.58953" lon="5.66032">
        <ele>1046.54</ele>
        <time>2018-06-17T09:41:10Z</time>
      </trkpt>
      <trkpt lat="44.58969" lon="5.66054">
        <ele>1048.86</ele>
        <time>2018-06-17T09:41:12Z</time>
      </trkpt>
      <trkpt lat="44.58988" lon="5.6605">
        <ele>1053.04</ele>
        <time>2018-06-17T09:41:16Z</time>
      </trkpt>
      <trkpt lat="44.58975" lon="5.66029">
        <ele>1055.21</ele>
        <time>2018-06-17T09:41:19Z</time>
      </trkpt>
      <trkpt lat="44.58963" lon="5.66008">
        <ele>1055.52</ele>
        <time>2018-06-17T09:41:21Z</time>
      </trkpt>
      <trkpt lat="44.58945" lon="5.65984">
        <ele>1056.25</ele>
        <time>2018-06-17T09:41:23Z</time>
      </trkpt>
      <trkpt lat="44.58922" lon="5.65961">
        <ele>1058.13</ele>
        <time>2018-06-17T09:41:25Z</time>
      </trkpt>
      <trkpt lat="44.589" lon="5.65934">
        <ele>1061.03</ele>
        <time>2018-06-17T09:41:27Z</time>
      </trkpt>
      <trkpt lat="44.58885" lon="5.65901">
        <ele>1062.41</ele>
        <time>2018-06-17T09:41:29Z</time>
      </trkpt>
      <trkpt lat="44.58872" lon="5.65867">
        <ele>1063.94</ele>
        <time>2018-06-17T09:41:31Z</time>
      </trkpt>
      <trkpt lat="44.58859" lon="5.65832">
        <ele>1066.8</ele>
        <time>2018-06-17T09:41:33Z</time>
      </trkpt>
      <trkpt lat="44.58843" lon="5.65796">
        <ele>1069.09</ele>
        <time>2018-06-17T09:41:35Z</time>
      </trkpt>
      <trkpt lat="44.58829" lon="5.6576">
        <ele>1071.12</ele>
        <time>2018-06-17T09:41:37Z</time>
      </trkpt>
      <trkpt lat="44.58816" lon="5.65724">
        <ele>1072.42</ele>
        <time>2018-06-17T09:41:39Z</time>
      </trkpt>
      <trkpt lat="44.588" lon="5.65689">
        <ele>1073.24</ele>
        <time>2018-06-17T09:41:41Z</time>
      </trkpt>
      <trkpt lat="44.58778" lon="5.6566">
        <ele>1075.13</ele>
        <time>2018-06-17T09:41:43Z</time>
      </trkpt>
      <trkpt lat="44.58755" lon="5.65635">
        <ele>1078.73</ele>
        <time>2018-06-17T09:41:45Z</time>
      </trkpt>
      <trkpt lat="44.58734" lon="5.65618">
        <ele>1081.29</ele>
        <time>2018-06-17T09:41:47Z</time>
      </trkpt>
      <trkpt lat="44.58711" lon="5.65605">
        <ele>1083.63</ele>
        <time>2018-06-17T09:41:49Z</time>
      </trkpt>
      <trkpt lat="44.5869" lon="5.65591">
        <ele>1085.16</ele>
        <time>2018-06-17T09:41:51Z</time>
      </trkpt>
      <trkpt lat="44.58673" lon="5.65569">
        <ele>1087.42</ele>
        <time>2018-06-17T09:41:54Z</time>
      </trkpt>
      <trkpt lat="44.58672" lon="5.65542">
        <ele>1088.45</ele>
        <time>2018-06-17T09:41:57Z</time>
      </trkpt>
      <trkpt lat="44.58675" lon="5.65504">
        <ele>1089.52</ele>
        <time>2018-06-17T09:42:00Z</time>
      </trkpt>
      <trkpt lat="44.58672" lon="5.65474">
        <ele>1089.55</ele>
        <time>2018-06-17T09:42:02Z</time>
      </trkpt>
      <trkpt lat="44.58668" lon="5.65441">
        <ele>1090.46</ele>
        <time>2018-06-17T09:42:04Z</time>
      </trkpt>
      <trkpt lat="44.58661" lon="5.65407">
        <ele>1091.24</ele>
        <time>2018-06-17T09:42:06Z</time>
      </trkpt>
      <trkpt lat="44.58651" lon="5.65375">
        <ele>1091.52</ele>
        <time>2018-06-17T09:42:08Z</time>
      </trkpt>
      <trkpt lat="44.58633" lon="5.65346">
        <ele>1092.95</ele>
        <time>2018-06-17T09:42:10Z</time>
      </trkpt>
      <trkpt lat="44.5862" lon="5.65314">
        <ele>1094.89</ele>
        <time>2018-06-17T09:42:12Z</time>
      </trkpt>
      <trkpt lat="44.5861" lon="5.65284">
        <ele>1097.1</ele>
        <time>2018-06-17T09:42:14Z</time>
      </trkpt>
      <trkpt lat="44.58591" lon="5.65262">
        <ele>1099.12</ele>
        <time>2018-06-17T09:42:16Z</time>
      </trkpt>
      <trkpt lat="44.58569" lon="5.65245">
        <ele>1100.21</ele>
        <time>2018-06-17T09:42:18Z</time>
      </trkpt>
      <trkpt lat="44.58545" lon="5.65239">
        <ele>1102.13</ele>
        <time>2018-06-17T09:42:20Z</time>
      </trkpt>
      <trkpt lat="44.58524" lon="5.6523">
        <ele>1104.33</ele>
        <time>2018-06-17T09:42:22Z</time>
      </trkpt>
      <trkpt lat="44.58511" lon="5.65209">
        <ele>1104.53</ele>
        <time>2018-06-17T09:42:24Z</time>
      </trkpt>
      <trkpt lat="44.58499" lon="5.65181">
        <ele>1104.55</ele>
        <time>2018-06-17T09:42:26Z</time>
      </trkpt>
      <trkpt lat="44.58482" lon="5.65154">
        <ele>1105.46</ele>
        <time>2018-06-17T09:42:28Z</time>
      </trkpt>
      <trkpt lat="44.58464" lon="5.65128">
        <ele>1105.54</ele>
        <time>2018-06-17T09:42:30Z</time>
      </trkpt>
      <trkpt lat="44.58453" lon="5.65104">
        <ele>1105.55</ele>
        <time>2018-06-17T09:42:32Z</time>
      </trkpt>
      <trkpt lat="44.58447" lon="5.65074">
        <ele>1107.16</ele>
        <time>2018-06-17T09:42:34Z</time>
      </trkpt>
      <trkpt lat="44.58441" lon="5.65039">
        <ele>1108.21</ele>
        <time>2018-06-17T09:42:36Z</time>
      </trkpt>
      <trkpt lat="44.58435" lon="5.65004">
        <ele>1109.43</ele>
        <time>2018-06-17T09:42:38Z</time>
      </trkpt>
      <trkpt lat="44.58424" lon="5.64971">
        <ele>1110.24</ele>
        <time>2018-06-17T09:42:40Z</time>
      </trkpt>
      <trkpt lat="44.58412" lon="5.64942">
        <ele>1111.43</ele>
        <time>2018-06-17T09:42:42Z</time>
      </trkpt>
      <trkpt lat="44.58396" lon="5.64924">
        <ele>1112.24</ele>
        <time>2018-06-17T09:42:44Z</time>
      </trkpt>
      <trkpt lat="44.58385" lon="5.64902">
        <ele>1114.13</ele>
        <time>2018-06-17T09:42:46Z</time>
      </trkpt>
      <trkpt lat="44.58384" lon="5.64869">
        <ele>1116.12</ele>
        <time>2018-06-17T09:42:48Z</time>
      </trkpt>
      <trkpt lat="44.58374" lon="5.64833">
        <ele>1118.33</ele>
        <time>2018-06-17T09:42:50Z</time>
      </trkpt>
      <trkpt lat="44.58367" lon="5.64798">
        <ele>1119.44</ele>
        <time>2018-06-17T09:42:52Z</time>
      </trkpt>
      <trkpt lat="44.58376" lon="5.64769">
        <ele>1122.06</ele>
        <time>2018-06-17T09:42:54Z</time>
      </trkpt>
      <trkpt lat="44.58388" lon="5.64734">
        <ele>1123.41</ele>
        <time>2018-06-17T09:42:56Z</time>
      </trkpt>
      <trkpt lat="44.58398" lon="5.64701">
        <ele>1125.15</ele>
        <time>2018-06-17T09:42:58Z</time>
      </trkpt>
      <trkpt lat="44.58397" lon="5.64672">
        <ele>1126.21</ele>
        <time>2018-06-17T09:43:00Z</time>
      </trkpt>
      <trkpt lat="44.58384" lon="5.64643">
        <ele>1127.92</ele>
        <time>2018-06-17T09:43:02Z</time>
      </trkpt>
      <trkpt lat="44.58362" lon="5.64623">
        <ele>1130.1</ele>
        <time>2018-06-17T09:43:04Z</time>
      </trkpt>
      <trkpt lat="44.58337" lon="5.64614">
        <ele>1131.42</ele>
        <time>2018-06-17T09:43:06Z</time>
      </trkpt>
      <trkpt lat="44.58316" lon="5.646">
        <ele>1132.24</ele>
        <time>2018-06-17T09:43:08Z</time>
      </trkpt>
      <trkpt lat="44.583" lon="5.64575">
        <ele>1134.13</ele>
        <time>2018-06-17T09:43:10Z</time>
      </trkpt>
      <trkpt lat="44.5828" lon="5.64561">
        <ele>1135.42</ele>
        <time>2018-06-17T09:43:12Z</time>
      </trkpt>
      <trkpt lat="44.58256" lon="5.64564">
        <ele>1138.06</ele>
        <time>2018-06-17T09:43:14Z</time>
      </trkpt>
      <trkpt lat="44.58228" lon="5.64558">
        <ele>1140.11</ele>
        <time>2018-06-17T09:43:16Z</time>
      </trkpt>
      <trkpt lat="44.582" lon="5.64547">
        <ele>1142.33</ele>
        <time>2018-06-17T09:43:18Z</time>
      </trkpt>
      <trkpt lat="44.58173" lon="5.64542">
        <ele>1144.14</ele>
        <time>2018-06-17T09:43:20Z</time>
      </trkpt>
      <trkpt lat="44.58148" lon="5.64537">
        <ele>1145.63</ele>
        <time>2018-06-17T09:43:22Z</time>
      </trkpt>
      <trkpt lat="44.58124" lon="5.64524">
        <ele>1146.26</ele>
        <time>2018-06-17T09:43:24Z</time>
      </trkpt>
      <trkpt lat="44.58104" lon="5.64515">
        <ele>1149.53</ele>
        <time>2018-06-17T09:43:26Z</time>
      </trkpt>
      <trkpt lat="44.58079" lon="5.64513">
        <ele>1151.86</ele>
        <time>2018-06-17T09:43:28Z</time>
      </trkpt>
      <trkpt lat="44.58051" lon="5.64505">
        <ele>1154.1</ele>
        <time>2018-06-17T09:43:30Z</time>
      </trkpt>
      <trkpt lat="44.58025" lon="5.64489">
        <ele>1156.12</ele>
        <time>2018-06-17T09:43:32Z</time>
      </trkpt>
      <trkpt lat="44.58001" lon="5.64469">
        <ele>1157.42</ele>
        <time>2018-06-17T09:43:34Z</time>
      </trkpt>
      <trkpt lat="44.57987" lon="5.64448">
        <ele>1159.15</ele>
        <time>2018-06-17T09:43:36Z</time>
      </trkpt>
      <trkpt lat="44.57965" lon="5.64447">
        <ele>1160.45</ele>
        <time>2018-06-17T09:43:39Z</time>
      </trkpt>
      <trkpt lat="44.57938" lon="5.64443">
        <ele>1162.16</ele>
        <time>2018-06-17T09:43:42Z</time>
      </trkpt>
      <trkpt lat="44.5792" lon="5.64429">
        <ele>1163.42</ele>
        <time>2018-06-17T09:43:44Z</time>
      </trkpt>
      <trkpt lat="44.579" lon="5.64418">
        <ele>1163.54</ele>
        <time>2018-06-17T09:43:46Z</time>
      </trkpt>
      <trkpt lat="44.57881" lon="5.64423">
        <ele>1165.16</ele>
        <time>2018-06-17T09:43:48Z</time>
      </trkpt>
      <trkpt lat="44.57864" lon="5.64437">
        <ele>1168.03</ele>
        <time>2018-06-17T09:43:50Z</time>
      </trkpt>
      <trkpt lat="44.57842" lon="5.64434">
        <ele>1171.72</ele>
        <time>2018-06-17T09:43:52Z</time>
      </trkpt>
      <trkpt lat="44.57826" lon="5.64422">
        <ele>1172.26</ele>
        <time>2018-06-17T09:43:54Z</time>
      </trkpt>
      <trkpt lat="44.57808" lon="5.64397">
        <ele>1172.52</ele>
        <time>2018-06-17T09:43:56Z</time>
      </trkpt>
      <trkpt lat="44.57786" lon="5.64369">
        <ele>1172.55</ele>
        <time>2018-06-17T09:43:58Z</time>
      </trkpt>
      <trkpt lat="44.5776" lon="5.64342">
        <ele>1173.46</ele>
        <time>2018-06-17T09:44:00Z</time>
      </trkpt>
      <trkpt lat="44.57738" lon="5.64316">
        <ele>1173.54</ele>
        <time>2018-06-17T09:44:02Z</time>
      </trkpt>
      <trkpt lat="44.57717" lon="5.643">
        <ele>1174.25</ele>
        <time>2018-06-17T09:44:04Z</time>
      </trkpt>
      <trkpt lat="44.57688" lon="5.64294">
        <ele>1175.22</ele>
        <time>2018-06-17T09:44:06Z</time>
      </trkpt>
      <trkpt lat="44.57668" lon="5.6427">
        <ele>1176.22</ele>
        <time>2018-06-17T09:44:08Z</time>
      </trkpt>
      <trkpt lat="44.57647" lon="5.64237">
        <ele>1177.92</ele>
        <time>2018-06-17T09:44:10Z</time>
      </trkpt>
      <trkpt lat="44.5763" lon="5.64195">
        <ele>1179.19</ele>
        <time>2018-06-17T09:44:12Z</time>
      </trkpt>
      <trkpt lat="44.57616" lon="5.6415">
        <ele>1181.13</ele>
        <time>2018-06-17T09:44:14Z</time>
      </trkpt>
      <trkpt lat="44.57601" lon="5.64109">
        <ele>1180.6</ele>
        <time>2018-06-17T09:44:16Z</time>
      </trkpt>
      <trkpt lat="44.57584" lon="5.64074">
        <ele>1181.25</ele>
        <time>2018-06-17T09:44:18Z</time>
      </trkpt>
      <trkpt lat="44.57571" lon="5.64036">
        <ele>1182.22</ele>
        <time>2018-06-17T09:44:20Z</time>
      </trkpt>
      <trkpt lat="44.57559" lon="5.63995">
        <ele>1184.13</ele>
        <time>2018-06-17T09:44:22Z</time>
      </trkpt>
      <trkpt lat="44.57547" lon="5.63953">
        <ele>1187.73</ele>
        <time>2018-06-17T09:44:24Z</time>
      </trkpt>
      <trkpt lat="44.57538" lon="5.63909">
        <ele>1191.48</ele>
        <time>2018-06-17T09:44:26Z</time>
      </trkpt>
      <trkpt lat="44.57524" lon="5.63863">
        <ele>1194.27</ele>
        <time>2018-06-17T09:44:28Z</time>
      </trkpt>
      <trkpt lat="44.5751" lon="5.63818">
        <ele>1197.74</ele>
        <time>2018-06-17T09:44:30Z</time>
      </trkpt>
      <trkpt lat="44.57497" lon="5.63782">
        <ele>1200.09</ele>
        <time>2018-06-17T09:44:32Z</time>
      </trkpt>
      <trkpt lat="44.57494" lon="5.63755">
        <ele>1201.42</ele>
        <time>2018-06-17T09:44:34Z</time>
      </trkpt>
      <trkpt lat="44.57501" lon="5.6372">
        <ele>1202.24</ele>
        <time>2018-06-17T09:44:37Z</time>
      </trkpt>
      <trkpt lat="44.57503" lon="5.6369">
        <ele>1202.52</ele>
        <time>2018-06-17T09:44:39Z</time>
      </trkpt>
      <trkpt lat="44.57501" lon="5.63657">
        <ele>1202.55</ele>
        <time>2018-06-17T09:44:41Z</time>
      </trkpt>
      <trkpt lat="44.575" lon="5.63624">
        <ele>1202.55</ele>
        <time>2018-06-17T09:44:43Z</time>
      </trkpt>
      <trkpt lat="44.57497" lon="5.63595">
        <ele>1203.25</ele>
        <time>2018-06-17T09:44:45Z</time>
      </trkpt>
      <trkpt lat="44.57483" lon="5.63576">
        <ele>1203.52</ele>
        <time>2018-06-17T09:44:47Z</time>
      </trkpt>
      <trkpt lat="44.57466" lon="5.63566">
        <ele>1203.34</ele>
        <time>2018-06-17T09:44:49Z</time>
      </trkpt>
      <trkpt lat="44.57449" lon="5.63552">
        <ele>1205.35</ele>
        <time>2018-06-17T09:44:51Z</time>
      </trkpt>
      <trkpt lat="44.57436" lon="5.6353">
        <ele>1206.93</ele>
        <time>2018-06-17T09:44:53Z</time>
      </trkpt>
      <trkpt lat="44.57431" lon="5.63499">
        <ele>1207.49</ele>
        <time>2018-06-17T09:44:55Z</time>
      </trkpt>
      <trkpt lat="44.57432" lon="5.63462">
        <ele>1209.15</ele>
        <time>2018-06-17T09:44:57Z</time>
      </trkpt>
      <trkpt lat="44.57431" lon="5.63422">
        <ele>1209.51</ele>
        <time>2018-06-17T09:44:59Z</time>
      </trkpt>
      <trkpt lat="44.57429" lon="5.63384">
        <ele>1210.24</ele>
        <time>2018-06-17T09:45:01Z</time>
      </trkpt>
      <trkpt lat="44.57436" lon="5.63347">
        <ele>1212.13</ele>
        <time>2018-06-17T09:45:03Z</time>
      </trkpt>
      <trkpt lat="44.57439" lon="5.63315">
        <ele>1215.73</ele>
        <time>2018-06-17T09:45:05Z</time>
      </trkpt>
      <trkpt lat="44.5744" lon="5.63284">
        <ele>1217.17</ele>
        <time>2018-06-17T09:45:07Z</time>
      </trkpt>
      <trkpt lat="44.57433" lon="5.6325">
        <ele>1218.21</ele>
        <time>2018-06-17T09:45:09Z</time>
      </trkpt>
      <trkpt lat="44.57428" lon="5.63213">
        <ele>1219.43</ele>
        <time>2018-06-17T09:45:11Z</time>
      </trkpt>
      <trkpt lat="44.57421" lon="5.63183">
        <ele>1222.06</ele>
        <time>2018-06-17T09:45:13Z</time>
      </trkpt>
      <trkpt lat="44.57404" lon="5.63167">
        <ele>1223.44</ele>
        <time>2018-06-17T09:45:16Z</time>
      </trkpt>
      <trkpt lat="44.57385" lon="5.63165">
        <ele>1225.36</ele>
        <time>2018-06-17T09:45:18Z</time>
      </trkpt>
      <trkpt lat="44.5737" lon="5.6315">
        <ele>1227.14</ele>
        <time>2018-06-17T09:45:20Z</time>
      </trkpt>
      <trkpt lat="44.57352" lon="5.63127">
        <ele>1228.21</ele>
        <time>2018-06-17T09:45:22Z</time>
      </trkpt>
      <trkpt lat="44.57337" lon="5.63102">
        <ele>1229.43</ele>
        <time>2018-06-17T09:45:24Z</time>
      </trkpt>
      <trkpt lat="44.57332" lon="5.63074">
        <ele>1230.52</ele>
        <time>2018-06-17T09:45:27Z</time>
      </trkpt>
      <trkpt lat="44.57317" lon="5.63061">
        <ele>1231.52</ele>
        <time>2018-06-17T09:45:30Z</time>
      </trkpt>
      <trkpt lat="44.57291" lon="5.63052">
        <ele>1232.95</ele>
        <time>2018-06-17T09:45:33Z</time>
      </trkpt>
      <trkpt lat="44.57273" lon="5.63034">
        <ele>1234.4</ele>
        <time>2018-06-17T09:45:35Z</time>
      </trkpt>
      <trkpt lat="44.57253" lon="5.63017">
        <ele>1235.45</ele>
        <time>2018-06-17T09:45:37Z</time>
      </trkpt>
      <trkpt lat="44.57229" lon="5.6301">
        <ele>1235.54</ele>
        <time>2018-06-17T09:45:39Z</time>
      </trkpt>
      <trkpt lat="44.57207" lon="5.63009">
        <ele>1241.29</ele>
        <time>2018-06-17T09:45:41Z</time>
      </trkpt>
      <trkpt lat="44.57191" lon="5.62996">
        <ele>1243.34</ele>
        <time>2018-06-17T09:45:43Z</time>
      </trkpt>
      <trkpt lat="44.57177" lon="5.62973">
        <ele>1245.14</ele>
        <time>2018-06-17T09:45:45Z</time>
      </trkpt>
      <trkpt lat="44.57164" lon="5.62949">
        <ele>1245.51</ele>
        <time>2018-06-17T09:45:47Z</time>
      </trkpt>
      <trkpt lat="44.5715" lon="5.6293">
        <ele>1246.45</ele>
        <time>2018-06-17T09:45:49Z</time>
      </trkpt>
      <trkpt lat="44.57132" lon="5.62923">
        <ele>1248.22</ele>
        <time>2018-06-17T09:45:52Z</time>
      </trkpt>
      <trkpt lat="44.5712" lon="5.62948">
        <ele>1250.37</ele>
        <time>2018-06-17T09:45:56Z</time>
      </trkpt>
      <trkpt lat="44.57127" lon="5.62972">
        <ele>1250.53</ele>
        <time>2018-06-17T09:45:58Z</time>
      </trkpt>
      <trkpt lat="44.57133" lon="5.63002">
        <ele>1252.16</ele>
        <time>2018-06-17T09:46:00Z</time>
      </trkpt>
      <trkpt lat="44.57135" lon="5.63033">
        <ele>1254.33</ele>
        <time>2018-06-17T09:46:02Z</time>
      </trkpt>
      <trkpt lat="44.57133" lon="5.63061">
        <ele>1255.23</ele>
        <time>2018-06-17T09:46:04Z</time>
      </trkpt>
      <trkpt lat="44.57124" lon="5.6309">
        <ele>1257.15</ele>
        <time>2018-06-17T09:46:07Z</time>
      </trkpt>
      <trkpt lat="44.57106" lon="5.63103">
        <ele>1257.76</ele>
        <time>2018-06-17T09:46:13Z</time>
      </trkpt>
      <trkpt lat="44.57094" lon="5.63122">
        <ele>1256.82</ele>
        <time>2018-06-17T09:57:59Z</time>
      </trkpt>
      <trkpt lat="44.5708" lon="5.63143">
        <ele>1255.65</ele>
        <time>2018-06-17T09:58:02Z</time>
      </trkpt>
      <trkpt lat="44.57063" lon="5.63164">
        <ele>1254.37</ele>
        <time>2018-06-17T09:58:05Z</time>
      </trkpt>
      <trkpt lat="44.57047" lon="5.6318">
        <ele>1252.93</ele>
        <time>2018-06-17T09:58:08Z</time>
      </trkpt>
      <trkpt lat="44.57028" lon="5.63186">
        <ele>1250.95</ele>
        <time>2018-06-17T09:58:11Z</time>
      </trkpt>
      <trkpt lat="44.57007" lon="5.63203">
        <ele>1249.79</ele>
        <time>2018-06-17T09:58:15Z</time>
      </trkpt>
      <trkpt lat="44.56988" lon="5.63225">
        <ele>1249.55</ele>
        <time>2018-06-17T09:58:18Z</time>
      </trkpt>
      <trkpt lat="44.56973" lon="5.6324">
        <ele>1250.46</ele>
        <time>2018-06-17T09:58:20Z</time>
      </trkpt>
      <trkpt lat="44.56958" lon="5.6326">
        <ele>1249.84</ele>
        <time>2018-06-17T09:58:22Z</time>
      </trkpt>
      <trkpt lat="44.56943" lon="5.63281">
        <ele>1246.35</ele>
        <time>2018-06-17T09:58:24Z</time>
      </trkpt>
      <trkpt lat="44.56923" lon="5.63296">
        <ele>1244.71</ele>
        <time>2018-06-17T09:58:26Z</time>
      </trkpt>
      <trkpt lat="44.56904" lon="5.63308">
        <ele>1242.04</ele>
        <time>2018-06-17T09:58:28Z</time>
      </trkpt>
      <trkpt lat="44.56887" lon="5.63321">
        <ele>1238.37</ele>
        <time>2018-06-17T09:58:30Z</time>
      </trkpt>
      <trkpt lat="44.56869" lon="5.63328">
        <ele>1235.1</ele>
        <time>2018-06-17T09:58:34Z</time>
      </trkpt>
      <trkpt lat="44.56879" lon="5.633">
        <ele>1229</ele>
        <time>2018-06-17T09:58:39Z</time>
      </trkpt>
      <trkpt lat="44.56899" lon="5.63275">
        <ele>1227.92</ele>
        <time>2018-06-17T09:58:42Z</time>
      </trkpt>
      <trkpt lat="44.56916" lon="5.63261">
        <ele>1226.18</ele>
        <time>2018-06-17T09:58:44Z</time>
      </trkpt>
      <trkpt lat="44.56932" lon="5.63242">
        <ele>1223.89</ele>
        <time>2018-06-17T09:58:47Z</time>
      </trkpt>
      <trkpt lat="44.5692" lon="5.63211">
        <ele>1221.67</ele>
        <time>2018-06-17T09:58:51Z</time>
      </trkpt>
      <trkpt lat="44.56908" lon="5.63191">
        <ele>1219.25</ele>
        <time>2018-06-17T09:58:53Z</time>
      </trkpt>
      <trkpt lat="44.56895" lon="5.63162">
        <ele>1217.66</ele>
        <time>2018-06-17T09:58:56Z</time>
      </trkpt>
      <trkpt lat="44.56874" lon="5.63154">
        <ele>1215.88</ele>
        <time>2018-06-17T09:58:59Z</time>
      </trkpt>
      <trkpt lat="44.56855" lon="5.63152">
        <ele>1213.97</ele>
        <time>2018-06-17T09:59:01Z</time>
      </trkpt>
      <trkpt lat="44.56835" lon="5.63148">
        <ele>1211.07</ele>
        <time>2018-06-17T09:59:03Z</time>
      </trkpt>
      <trkpt lat="44.56816" lon="5.6314">
        <ele>1208.28</ele>
        <time>2018-06-17T09:59:05Z</time>
      </trkpt>
      <trkpt lat="44.56798" lon="5.63132">
        <ele>1206.91</ele>
        <time>2018-06-17T09:59:07Z</time>
      </trkpt>
      <trkpt lat="44.56783" lon="5.63113">
        <ele>1205.86</ele>
        <time>2018-06-17T09:59:10Z</time>
      </trkpt>
      <trkpt lat="44.56769" lon="5.63091">
        <ele>1203.88</ele>
        <time>2018-06-17T09:59:13Z</time>
      </trkpt>
      <trkpt lat="44.56746" lon="5.63078">
        <ele>1201.18</ele>
        <time>2018-06-17T09:59:16Z</time>
      </trkpt>
      <trkpt lat="44.56729" lon="5.63069">
        <ele>1199</ele>
        <time>2018-06-17T09:59:18Z</time>
      </trkpt>
      <trkpt lat="44.5671" lon="5.63068">
        <ele>1197.68</ele>
        <time>2018-06-17T09:59:20Z</time>
      </trkpt>
      <trkpt lat="44.5669" lon="5.63073">
        <ele>1195.95</ele>
        <time>2018-06-17T09:59:22Z</time>
      </trkpt>
      <trkpt lat="44.56668" lon="5.63079">
        <ele>1194.88</ele>
        <time>2018-06-17T09:59:24Z</time>
      </trkpt>
      <trkpt lat="44.56644" lon="5.63087">
        <ele>1193.67</ele>
        <time>2018-06-17T09:59:26Z</time>
      </trkpt>
      <trkpt lat="44.56621" lon="5.63087">
        <ele>1191.04</ele>
        <time>2018-06-17T09:59:28Z</time>
      </trkpt>
      <trkpt lat="44.56603" lon="5.63083">
        <ele>1188.98</ele>
        <time>2018-06-17T09:59:30Z</time>
      </trkpt>
      <trkpt lat="44.56588" lon="5.63063">
        <ele>1186.68</ele>
        <time>2018-06-17T09:59:33Z</time>
      </trkpt>
      <trkpt lat="44.56584" lon="5.63037">
        <ele>1184.88</ele>
        <time>2018-06-17T09:59:36Z</time>
      </trkpt>
      <trkpt lat="44.56561" lon="5.63027">
        <ele>1182.94</ele>
        <time>2018-06-17T09:59:40Z</time>
      </trkpt>
      <trkpt lat="44.56542" lon="5.63026">
        <ele>1181.67</ele>
        <time>2018-06-17T09:59:42Z</time>
      </trkpt>
      <trkpt lat="44.56521" lon="5.63024">
        <ele>1179.95</ele>
        <time>2018-06-17T09:59:44Z</time>
      </trkpt>
      <trkpt lat="44.56499" lon="5.63023">
        <ele>1177.97</ele>
        <time>2018-06-17T09:59:46Z</time>
      </trkpt>
      <trkpt lat="44.56477" lon="5.63023">
        <ele>1175.98</ele>
        <time>2018-06-17T09:59:48Z</time>
      </trkpt>
      <trkpt lat="44.56452" lon="5.63021">
        <ele>1173.19</ele>
        <time>2018-06-17T09:59:51Z</time>
      </trkpt>
      <trkpt lat="44.56434" lon="5.63028">
        <ele>1170.68</ele>
        <time>2018-06-17T09:59:54Z</time>
      </trkpt>
      <trkpt lat="44.5643" lon="5.63059">
        <ele>1170.53</ele>
        <time>2018-06-17T09:59:58Z</time>
      </trkpt>
      <trkpt lat="44.5643" lon="5.63094">
        <ele>1167.96</ele>
        <time>2018-06-17T10:00:01Z</time>
      </trkpt>
      <trkpt lat="44.56411" lon="5.6312">
        <ele>1165.95</ele>
        <time>2018-06-17T10:00:04Z</time>
      </trkpt>
      <trkpt lat="44.56392" lon="5.63135">
        <ele>1164.18</ele>
        <time>2018-06-17T10:00:06Z</time>
      </trkpt>
      <trkpt lat="44.56371" lon="5.63145">
        <ele>1162</ele>
        <time>2018-06-17T10:00:08Z</time>
      </trkpt>
      <trkpt lat="44.5635" lon="5.63151">
        <ele>1161.59</ele>
        <time>2018-06-17T10:00:10Z</time>
      </trkpt>
      <trkpt lat="44.5633" lon="5.63156">
        <ele>1160.85</ele>
        <time>2018-06-17T10:00:12Z</time>
      </trkpt>
      <trkpt lat="44.56309" lon="5.63162">
        <ele>1158.06</ele>
        <time>2018-06-17T10:00:14Z</time>
      </trkpt>
      <trkpt lat="44.56288" lon="5.63172">
        <ele>1155.98</ele>
        <time>2018-06-17T10:00:16Z</time>
      </trkpt>
      <trkpt lat="44.56268" lon="5.6319">
        <ele>1153.77</ele>
        <time>2018-06-17T10:00:18Z</time>
      </trkpt>
      <trkpt lat="44.5625" lon="5.63211">
        <ele>1151.75</ele>
        <time>2018-06-17T10:00:20Z</time>
      </trkpt>
      <trkpt lat="44.56232" lon="5.63229">
        <ele>1150.87</ele>
        <time>2018-06-17T10:00:22Z</time>
      </trkpt>
      <trkpt lat="44.56214" lon="5.63238">
        <ele>1149.88</ele>
        <time>2018-06-17T10:00:24Z</time>
      </trkpt>
      <trkpt lat="44.56193" lon="5.63238">
        <ele>1148.67</ele>
        <time>2018-06-17T10:00:26Z</time>
      </trkpt>
      <trkpt lat="44.56169" lon="5.6324">
        <ele>1147.65</ele>
        <time>2018-06-17T10:00:28Z</time>
      </trkpt>
      <trkpt lat="44.56144" lon="5.63244">
        <ele>1145.74</ele>
        <time>2018-06-17T10:00:30Z</time>
      </trkpt>
      <trkpt lat="44.56121" lon="5.63239">
        <ele>1143.05</ele>
        <time>2018-06-17T10:00:32Z</time>
      </trkpt>
      <trkpt lat="44.56099" lon="5.63227">
        <ele>1140.07</ele>
        <time>2018-06-17T10:00:34Z</time>
      </trkpt>
      <trkpt lat="44.56075" lon="5.6322">
        <ele>1137.08</ele>
        <time>2018-06-17T10:00:36Z</time>
      </trkpt>
      <trkpt lat="44.56053" lon="5.63219">
        <ele>1134.29</ele>
        <time>2018-06-17T10:00:38Z</time>
      </trkpt>
      <trkpt lat="44.56031" lon="5.63221">
        <ele>1132</ele>
        <time>2018-06-17T10:00:40Z</time>
      </trkpt>
      <trkpt lat="44.56014" lon="5.63213">
        <ele>1128.98</ele>
        <time>2018-06-17T10:00:43Z</time>
      </trkpt>
      <trkpt lat="44.56008" lon="5.63188">
        <ele>1127.88</ele>
        <time>2018-06-17T10:02:25Z</time>
      </trkpt>
      <trkpt lat="44.56006" lon="5.6316">
        <ele>1125.97</ele>
        <time>2018-06-17T10:02:27Z</time>
      </trkpt>
      <trkpt lat="44.56008" lon="5.63126">
        <ele>1123.07</ele>
        <time>2018-06-17T10:02:29Z</time>
      </trkpt>
      <trkpt lat="44.56015" lon="5.63086">
        <ele>1120.07</ele>
        <time>2018-06-17T10:02:31Z</time>
      </trkpt>
      <trkpt lat="44.56022" lon="5.63047">
        <ele>1117.99</ele>
        <time>2018-06-17T10:02:33Z</time>
      </trkpt>
      <trkpt lat="44.5603" lon="5.63015">
        <ele>1115.77</ele>
        <time>2018-06-17T10:02:35Z</time>
      </trkpt>
      <trkpt lat="44.56047" lon="5.62984">
        <ele>1114.66</ele>
        <time>2018-06-17T10:02:37Z</time>
      </trkpt>
      <trkpt lat="44.56062" lon="5.62955">
        <ele>1112.95</ele>
        <time>2018-06-17T10:02:39Z</time>
      </trkpt>
      <trkpt lat="44.56073" lon="5.6293">
        <ele>1110.06</ele>
        <time>2018-06-17T10:02:41Z</time>
      </trkpt>
      <trkpt lat="44.5608" lon="5.629">
        <ele>1108.86</ele>
        <time>2018-06-17T10:02:44Z</time>
      </trkpt>
      <trkpt lat="44.56067" lon="5.62881">
        <ele>1107.65</ele>
        <time>2018-06-17T10:02:47Z</time>
      </trkpt>
      <trkpt lat="44.5604" lon="5.62891">
        <ele>1105.74</ele>
        <time>2018-06-17T10:02:49Z</time>
      </trkpt>
      <trkpt lat="44.56022" lon="5.62877">
        <ele>1102.76</ele>
        <time>2018-06-17T10:02:52Z</time>
      </trkpt>
      <trkpt lat="44.56023" lon="5.62851">
        <ele>1101.87</ele>
        <time>2018-06-17T10:02:54Z</time>
      </trkpt>
      <trkpt lat="44.5602" lon="5.6282">
        <ele>1100.58</ele>
        <time>2018-06-17T10:02:57Z</time>
      </trkpt>
      <trkpt lat="44.56003" lon="5.62829">
        <ele>1099.64</ele>
        <time>2018-06-17T10:02:59Z</time>
      </trkpt>
      <trkpt lat="44.55991" lon="5.62851">
        <ele>1099.56</ele>
        <time>2018-06-17T10:03:01Z</time>
      </trkpt>
      <trkpt lat="44.55972" lon="5.62876">
        <ele>1098.85</ele>
        <time>2018-06-17T10:03:03Z</time>
      </trkpt>
      <trkpt lat="44.55949" lon="5.62903">
        <ele>1099.49</ele>
        <time>2018-06-17T10:03:05Z</time>
      </trkpt>
      <trkpt lat="44.55936" lon="5.62922">
        <ele>1098.83</ele>
        <time>2018-06-17T10:03:06Z</time>
      </trkpt>
      <trkpt lat="44.55913" lon="5.62963">
        <ele>1096.26</ele>
        <time>2018-06-17T10:03:08Z</time>
      </trkpt>
      <trkpt lat="44.55902" lon="5.62985">
        <ele>1095.06</ele>
        <time>2018-06-17T10:03:09Z</time>
      </trkpt>
      <trkpt lat="44.55892" lon="5.63007">
        <ele>1094</ele>
        <time>2018-06-17T10:03:10Z</time>
      </trkpt>
      <trkpt lat="44.5588" lon="5.63051">
        <ele>1092.68</ele>
        <time>2018-06-17T10:03:12Z</time>
      </trkpt>
      <trkpt lat="44.55875" lon="5.63097">
        <ele>1090.95</ele>
        <time>2018-06-17T10:03:14Z</time>
      </trkpt>
      <trkpt lat="44.55868" lon="5.63148">
        <ele>1090.79</ele>
        <time>2018-06-17T10:03:16Z</time>
      </trkpt>
      <trkpt lat="44.55858" lon="5.63193">
        <ele>1089.66</ele>
        <time>2018-06-17T10:03:18Z</time>
      </trkpt>
      <trkpt lat="44.55849" lon="5.63228">
        <ele>1088.44</ele>
        <time>2018-06-17T10:03:20Z</time>
      </trkpt>
      <trkpt lat="44.55834" lon="5.63257">
        <ele>1087.14</ele>
        <time>2018-06-17T10:03:22Z</time>
      </trkpt>
      <trkpt lat="44.55801" lon="5.63275">
        <ele>1086.6</ele>
        <time>2018-06-17T10:03:24Z</time>
      </trkpt>
      <trkpt lat="44.55779" lon="5.63279">
        <ele>1086.56</ele>
        <time>2018-06-17T10:03:25Z</time>
      </trkpt>
      <trkpt lat="44.55746" lon="5.63288">
        <ele>1085.85</ele>
        <time>2018-06-17T10:03:27Z</time>
      </trkpt>
      <trkpt lat="44.55722" lon="5.63286">
        <ele>1084.94</ele>
        <time>2018-06-17T10:03:28Z</time>
      </trkpt>
      <trkpt lat="44.557" lon="5.63288">
        <ele>1083.97</ele>
        <time>2018-06-17T10:03:29Z</time>
      </trkpt>
      <trkpt lat="44.5568" lon="5.63291">
        <ele>1082.97</ele>
        <time>2018-06-17T10:03:30Z</time>
      </trkpt>
      <trkpt lat="44.55661" lon="5.63298">
        <ele>1082.68</ele>
        <time>2018-06-17T10:03:31Z</time>
      </trkpt>
      <trkpt lat="44.55644" lon="5.63308">
        <ele>1081.89</ele>
        <time>2018-06-17T10:03:32Z</time>
      </trkpt>
      <trkpt lat="44.55617" lon="5.63332">
        <ele>1081.58</ele>
        <time>2018-06-17T10:03:34Z</time>
      </trkpt>
      <trkpt lat="44.55595" lon="5.63347">
        <ele>1081.06</ele>
        <time>2018-06-17T10:03:36Z</time>
      </trkpt>
      <trkpt lat="44.55579" lon="5.63332">
        <ele>1074.99</ele>
        <time>2018-06-17T10:03:40Z</time>
      </trkpt>
      <trkpt lat="44.55584" lon="5.63306">
        <ele>1072.28</ele>
        <time>2018-06-17T10:03:42Z</time>
      </trkpt>
      <trkpt lat="44.5559" lon="5.63273">
        <ele>1067.69</ele>
        <time>2018-06-17T10:03:44Z</time>
      </trkpt>
      <trkpt lat="44.55597" lon="5.63241">
        <ele>1063.09</ele>
        <time>2018-06-17T10:03:47Z</time>
      </trkpt>
      <trkpt lat="44.55603" lon="5.63217">
        <ele>1058.58</ele>
        <time>2018-06-17T10:04:00Z</time>
      </trkpt>
      <trkpt lat="44.5561" lon="5.63191">
        <ele>1054.96</ele>
        <time>2018-06-17T10:04:16Z</time>
      </trkpt>
      <trkpt lat="44.55614" lon="5.63163">
        <ele>1052.07</ele>
        <time>2018-06-17T10:04:18Z</time>
      </trkpt>
      <trkpt lat="44.55618" lon="5.63123">
        <ele>1050.19</ele>
        <time>2018-06-17T10:04:20Z</time>
      </trkpt>
      <trkpt lat="44.55624" lon="5.6308">
        <ele>1047.3</ele>
        <time>2018-06-17T10:04:22Z</time>
      </trkpt>
      <trkpt lat="44.55634" lon="5.63044">
        <ele>1045.22</ele>
        <time>2018-06-17T10:04:24Z</time>
      </trkpt>
      <trkpt lat="44.55644" lon="5.63009">
        <ele>1043</ele>
        <time>2018-06-17T10:04:26Z</time>
      </trkpt>
      <trkpt lat="44.55645" lon="5.62966">
        <ele>1041.19</ele>
        <time>2018-06-17T10:04:28Z</time>
      </trkpt>
      <trkpt lat="44.55644" lon="5.62919">
        <ele>1039.7</ele>
        <time>2018-06-17T10:04:30Z</time>
      </trkpt>
      <trkpt lat="44.55642" lon="5.62879">
        <ele>1037.04</ele>
        <time>2018-06-17T10:04:32Z</time>
      </trkpt>
      <trkpt lat="44.55636" lon="5.6284">
        <ele>1034.98</ele>
        <time>2018-06-17T10:04:34Z</time>
      </trkpt>
      <trkpt lat="44.55628" lon="5.62801">
        <ele>1033.19</ele>
        <time>2018-06-17T10:04:36Z</time>
      </trkpt>
      <trkpt lat="44.55625" lon="5.62757">
        <ele>1030.79</ele>
        <time>2018-06-17T10:04:38Z</time>
      </trkpt>
      <trkpt lat="44.55615" lon="5.62714">
        <ele>1029.66</ele>
        <time>2018-06-17T10:04:40Z</time>
      </trkpt>
      <trkpt lat="44.55606" lon="5.62691">
        <ele>1028.18</ele>
        <time>2018-06-17T10:04:41Z</time>
      </trkpt>
      <trkpt lat="44.55596" lon="5.62669">
        <ele>1027.04</ele>
        <time>2018-06-17T10:04:42Z</time>
      </trkpt>
      <trkpt lat="44.55587" lon="5.62647">
        <ele>1025.3</ele>
        <time>2018-06-17T10:04:43Z</time>
      </trkpt>
      <trkpt lat="44.55571" lon="5.6261">
        <ele>1021.4</ele>
        <time>2018-06-17T10:04:45Z</time>
      </trkpt>
      <trkpt lat="44.55564" lon="5.62573">
        <ele>1018.52</ele>
        <time>2018-06-17T10:04:47Z</time>
      </trkpt>
      <trkpt lat="44.55556" lon="5.62527">
        <ele>1016.03</ele>
        <time>2018-06-17T10:04:49Z</time>
      </trkpt>
      <trkpt lat="44.55549" lon="5.62504">
        <ele>1014.99</ele>
        <time>2018-06-17T10:04:50Z</time>
      </trkpt>
      <trkpt lat="44.55532" lon="5.62462">
        <ele>1011.37</ele>
        <time>2018-06-17T10:04:52Z</time>
      </trkpt>
      <trkpt lat="44.55521" lon="5.62424">
        <ele>1009.01</ele>
        <time>2018-06-17T10:04:54Z</time>
      </trkpt>
      <trkpt lat="44.55515" lon="5.62384">
        <ele>1008.59</ele>
        <time>2018-06-17T10:04:56Z</time>
      </trkpt>
      <trkpt lat="44.55519" lon="5.62341">
        <ele>1005.12</ele>
        <time>2018-06-17T10:04:58Z</time>
      </trkpt>
      <trkpt lat="44.5552" lon="5.62299">
        <ele>1003.9</ele>
        <time>2018-06-17T10:05:00Z</time>
      </trkpt>
      <trkpt lat="44.55522" lon="5.6226">
        <ele>1001.27</ele>
        <time>2018-06-17T10:05:02Z</time>
      </trkpt>
      <trkpt lat="44.55523" lon="5.6223">
        <ele>999.21</ele>
        <time>2018-06-17T10:05:04Z</time>
      </trkpt>
      <trkpt lat="44.55524" lon="5.62203">
        <ele>996.68</ele>
        <time>2018-06-17T10:05:07Z</time>
      </trkpt>
      <trkpt lat="44.55516" lon="5.62178">
        <ele>990.39</ele>
        <time>2018-06-17T10:05:35Z</time>
      </trkpt>
      <trkpt lat="44.55503" lon="5.62145">
        <ele>992.22</ele>
        <time>2018-06-17T10:05:38Z</time>
      </trkpt>
      <trkpt lat="44.55488" lon="5.62121">
        <ele>993.43</ele>
        <time>2018-06-17T10:05:40Z</time>
      </trkpt>
      <trkpt lat="44.55472" lon="5.62096">
        <ele>993.54</ele>
        <time>2018-06-17T10:05:42Z</time>
      </trkpt>
      <trkpt lat="44.55462" lon="5.62065">
        <ele>994.25</ele>
        <time>2018-06-17T10:05:44Z</time>
      </trkpt>
      <trkpt lat="44.5545" lon="5.62033">
        <ele>996.13</ele>
        <time>2018-06-17T10:05:46Z</time>
      </trkpt>
      <trkpt lat="44.55435" lon="5.62003">
        <ele>997.63</ele>
        <time>2018-06-17T10:05:48Z</time>
      </trkpt>
      <trkpt lat="44.55425" lon="5.61972">
        <ele>999.17</ele>
        <time>2018-06-17T10:05:50Z</time>
      </trkpt>
      <trkpt lat="44.55436" lon="5.61939">
        <ele>999.51</ele>
        <time>2018-06-17T10:05:52Z</time>
      </trkpt>
      <trkpt lat="44.55449" lon="5.61906">
        <ele>1002.76</ele>
        <time>2018-06-17T10:05:54Z</time>
      </trkpt>
      <trkpt lat="44.55458" lon="5.61862">
        <ele>1005.09</ele>
        <time>2018-06-17T10:05:56Z</time>
      </trkpt>
      <trkpt lat="44.55455" lon="5.6183">
        <ele>1008.21</ele>
        <time>2018-06-17T10:05:57Z</time>
      </trkpt>
      <trkpt lat="44.55458" lon="5.61802">
        <ele>1010.55</ele>
        <time>2018-06-17T10:05:58Z</time>
      </trkpt>
      <trkpt lat="44.55462" lon="5.61775">
        <ele>1012.65</ele>
        <time>2018-06-17T10:05:59Z</time>
      </trkpt>
      <trkpt lat="44.55464" lon="5.61745">
        <ele>1013.98</ele>
        <time>2018-06-17T10:06:00Z</time>
      </trkpt>
      <trkpt lat="44.5547" lon="5.61715">
        <ele>1015.78</ele>
        <time>2018-06-17T10:06:01Z</time>
      </trkpt>
      <trkpt lat="44.55478" lon="5.61686">
        <ele>1017.72</ele>
        <time>2018-06-17T10:06:02Z</time>
      </trkpt>
      <trkpt lat="44.55487" lon="5.61655">
        <ele>1019.7</ele>
        <time>2018-06-17T10:06:03Z</time>
      </trkpt>
      <trkpt lat="44.55495" lon="5.61622">
        <ele>1021.69</ele>
        <time>2018-06-17T10:06:04Z</time>
      </trkpt>
      <trkpt lat="44.55503" lon="5.61588">
        <ele>1022.99</ele>
        <time>2018-06-17T10:06:05Z</time>
      </trkpt>
      <trkpt lat="44.55511" lon="5.61555">
        <ele>1024.78</ele>
        <time>2018-06-17T10:06:06Z</time>
      </trkpt>
      <trkpt lat="44.55519" lon="5.61524">
        <ele>1026.72</ele>
        <time>2018-06-17T10:06:07Z</time>
      </trkpt>
      <trkpt lat="44.55527" lon="5.61494">
        <ele>1028.7</ele>
        <time>2018-06-17T10:06:08Z</time>
      </trkpt>
      <trkpt lat="44.55533" lon="5.61468">
        <ele>1029.99</ele>
        <time>2018-06-17T10:06:09Z</time>
      </trkpt>
      <trkpt lat="44.55539" lon="5.61443">
        <ele>1032.48</ele>
        <time>2018-06-17T10:06:10Z</time>
      </trkpt>
      <trkpt lat="44.55548" lon="5.61419">
        <ele>1034.63</ele>
        <time>2018-06-17T10:06:11Z</time>
      </trkpt>
      <trkpt lat="44.55557" lon="5.61396">
        <ele>1035.27</ele>
        <time>2018-06-17T10:06:12Z</time>
      </trkpt>
      <trkpt lat="44.55568" lon="5.61374">
        <ele>1035.47</ele>
        <time>2018-06-17T10:06:13Z</time>
      </trkpt>
      <trkpt lat="44.55578" lon="5.6135">
        <ele>1035.52</ele>
        <time>2018-06-17T10:06:14Z</time>
      </trkpt>
      <trkpt lat="44.55595" lon="5.61331">
        <ele>1036.24</ele>
        <time>2018-06-17T10:06:15Z</time>
      </trkpt>
      <trkpt lat="44.55612" lon="5.61315">
        <ele>1036.46</ele>
        <time>2018-06-17T10:06:16Z</time>
      </trkpt>
      <trkpt lat="44.5563" lon="5.61296">
        <ele>1036.52</ele>
        <time>2018-06-17T10:06:17Z</time>
      </trkpt>
      <trkpt lat="44.55648" lon="5.6128">
        <ele>1037.24</ele>
        <time>2018-06-17T10:06:18Z</time>
      </trkpt>
      <trkpt lat="44.55664" lon="5.61265">
        <ele>1038.86</ele>
        <time>2018-06-17T10:06:19Z</time>
      </trkpt>
      <trkpt lat="44.55679" lon="5.61249">
        <ele>1040.74</ele>
        <time>2018-06-17T10:06:20Z</time>
      </trkpt>
      <trkpt lat="44.55692" lon="5.61232">
        <ele>1042.01</ele>
        <time>2018-06-17T10:06:21Z</time>
      </trkpt>
      <trkpt lat="44.55712" lon="5.61194">
        <ele>1044.32</ele>
        <time>2018-06-17T10:06:23Z</time>
      </trkpt>
      <trkpt lat="44.5573" lon="5.61156">
        <ele>1045.44</ele>
        <time>2018-06-17T10:06:25Z</time>
      </trkpt>
      <trkpt lat="44.55752" lon="5.61126">
        <ele>1045.54</ele>
        <time>2018-06-17T10:06:27Z</time>
      </trkpt>
      <trkpt lat="44.55793" lon="5.6111">
        <ele>1047.65</ele>
        <time>2018-06-17T10:06:29Z</time>
      </trkpt>
      <trkpt lat="44.55811" lon="5.611">
        <ele>1048.98</ele>
        <time>2018-06-17T10:06:30Z</time>
      </trkpt>
      <trkpt lat="44.55839" lon="5.61078">
        <ele>1053.63</ele>
        <time>2018-06-17T10:06:32Z</time>
      </trkpt>
      <trkpt lat="44.55857" lon="5.61043">
        <ele>1056.08</ele>
        <time>2018-06-17T10:06:34Z</time>
      </trkpt>
      <trkpt lat="44.55857" lon="5.60998">
        <ele>1057.91</ele>
        <time>2018-06-17T10:06:36Z</time>
      </trkpt>
      <trkpt lat="44.55848" lon="5.60972">
        <ele>1058.36</ele>
        <time>2018-06-17T10:06:37Z</time>
      </trkpt>
      <trkpt lat="44.55836" lon="5.60949">
        <ele>1059.19</ele>
        <time>2018-06-17T10:06:38Z</time>
      </trkpt>
      <trkpt lat="44.55823" lon="5.60931">
        <ele>1060.84</ele>
        <time>2018-06-17T10:06:39Z</time>
      </trkpt>
      <trkpt lat="44.55803" lon="5.60917">
        <ele>1062.04</ele>
        <time>2018-06-17T10:06:40Z</time>
      </trkpt>
      <trkpt lat="44.55774" lon="5.60916">
        <ele>1064.49</ele>
        <time>2018-06-17T10:06:41Z</time>
      </trkpt>
      <trkpt lat="44.55754" lon="5.60909">
        <ele>1065.93</ele>
        <time>2018-06-17T10:06:42Z</time>
      </trkpt>
      <trkpt lat="44.55734" lon="5.60907">
        <ele>1067.76</ele>
        <time>2018-06-17T10:06:43Z</time>
      </trkpt>
      <trkpt lat="44.55714" lon="5.60905">
        <ele>1069.01</ele>
        <time>2018-06-17T10:06:44Z</time>
      </trkpt>
      <trkpt lat="44.55693" lon="5.60905">
        <ele>1070.09</ele>
        <time>2018-06-17T10:06:45Z</time>
      </trkpt>
      <trkpt lat="44.55672" lon="5.60907">
        <ele>1070.41</ele>
        <time>2018-06-17T10:06:46Z</time>
      </trkpt>
      <trkpt lat="44.55651" lon="5.6091">
        <ele>1070.51</ele>
        <time>2018-06-17T10:06:47Z</time>
      </trkpt>
      <trkpt lat="44.55627" lon="5.60917">
        <ele>1071.94</ele>
        <time>2018-06-17T10:06:48Z</time>
      </trkpt>
      <trkpt lat="44.55604" lon="5.60926">
        <ele>1073.06</ele>
        <time>2018-06-17T10:06:49Z</time>
      </trkpt>
      <trkpt lat="44.55582" lon="5.60939">
        <ele>1073.4</ele>
        <time>2018-06-17T10:06:50Z</time>
      </trkpt>
      <trkpt lat="44.55561" lon="5.60948">
        <ele>1074.2</ele>
        <time>2018-06-17T10:06:51Z</time>
      </trkpt>
      <trkpt lat="44.55542" lon="5.60954">
        <ele>1075.84</ele>
        <time>2018-06-17T10:06:52Z</time>
      </trkpt>
      <trkpt lat="44.5551" lon="5.60962">
        <ele>1078.09</ele>
        <time>2018-06-17T10:06:54Z</time>
      </trkpt>
      <trkpt lat="44.55479" lon="5.6096">
        <ele>1080.12</ele>
        <time>2018-06-17T10:06:56Z</time>
      </trkpt>
      <trkpt lat="44.55457" lon="5.60946">
        <ele>1080.51</ele>
        <time>2018-06-17T10:06:58Z</time>
      </trkpt>
      <trkpt lat="44.55442" lon="5.60902">
        <ele>1079.84</ele>
        <time>2018-06-17T10:07:00Z</time>
      </trkpt>
      <trkpt lat="44.55458" lon="5.60824">
        <ele>1081.18</ele>
        <time>2018-06-17T10:07:02Z</time>
      </trkpt>
      <trkpt lat="44.55475" lon="5.60796">
        <ele>1082.84</ele>
        <time>2018-06-17T10:07:03Z</time>
      </trkpt>
      <trkpt lat="44.55474" lon="5.60771">
        <ele>1084.74</ele>
        <time>2018-06-17T10:07:04Z</time>
      </trkpt>
      <trkpt lat="44.55473" lon="5.60745">
        <ele>1086.7</ele>
        <time>2018-06-17T10:07:05Z</time>
      </trkpt>
      <trkpt lat="44.55465" lon="5.6072">
        <ele>1087.29</ele>
        <time>2018-06-17T10:07:06Z</time>
      </trkpt>
      <trkpt lat="44.55448" lon="5.60693">
        <ele>1090.27</ele>
        <time>2018-06-17T10:07:07Z</time>
      </trkpt>
      <trkpt lat="44.55437" lon="5.60669">
        <ele>1091.17</ele>
        <time>2018-06-17T10:07:08Z</time>
      </trkpt>
      <trkpt lat="44.55424" lon="5.60646">
        <ele>1092.83</ele>
        <time>2018-06-17T10:07:09Z</time>
      </trkpt>
      <trkpt lat="44.55411" lon="5.60624">
        <ele>1094.73</ele>
        <time>2018-06-17T10:07:10Z</time>
      </trkpt>
      <trkpt lat="44.55394" lon="5.60604">
        <ele>1097.4</ele>
        <time>2018-06-17T10:07:11Z</time>
      </trkpt>
      <trkpt lat="44.55376" lon="5.60587">
        <ele>1099.6</ele>
        <time>2018-06-17T10:07:12Z</time>
      </trkpt>
      <trkpt lat="44.55357" lon="5.60574">
        <ele>1100.96</ele>
        <time>2018-06-17T10:07:13Z</time>
      </trkpt>
      <trkpt lat="44.55341" lon="5.60559">
        <ele>1102.07</ele>
        <time>2018-06-17T10:07:14Z</time>
      </trkpt>
      <trkpt lat="44.55326" lon="5.60543">
        <ele>1103.11</ele>
        <time>2018-06-17T10:07:15Z</time>
      </trkpt>
      <trkpt lat="44.55293" lon="5.60524">
        <ele>1105.33</ele>
        <time>2018-06-17T10:07:17Z</time>
      </trkpt>
      <trkpt lat="44.55273" lon="5.60523">
        <ele>1106.18</ele>
        <time>2018-06-17T10:07:18Z</time>
      </trkpt>
      <trkpt lat="44.55254" lon="5.60524">
        <ele>1106.44</ele>
        <time>2018-06-17T10:07:19Z</time>
      </trkpt>
      <trkpt lat="44.55235" lon="5.6053">
        <ele>1108.62</ele>
        <time>2018-06-17T10:07:20Z</time>
      </trkpt>
      <trkpt lat="44.55216" lon="5.60539">
        <ele>1109.97</ele>
        <time>2018-06-17T10:07:21Z</time>
      </trkpt>
      <trkpt lat="44.55199" lon="5.60551">
        <ele>1111.07</ele>
        <time>2018-06-17T10:07:22Z</time>
      </trkpt>
      <trkpt lat="44.55184" lon="5.60567">
        <ele>1110.71</ele>
        <time>2018-06-17T10:07:23Z</time>
      </trkpt>
      <trkpt lat="44.55169" lon="5.60589">
        <ele>1110.6</ele>
        <time>2018-06-17T10:07:24Z</time>
      </trkpt>
      <trkpt lat="44.55156" lon="5.60618">
        <ele>1111.26</ele>
        <time>2018-06-17T10:07:25Z</time>
      </trkpt>
      <trkpt lat="44.55145" lon="5.6064">
        <ele>1112.16</ele>
        <time>2018-06-17T10:07:26Z</time>
      </trkpt>
      <trkpt lat="44.55127" lon="5.6067">
        <ele>1115.73</ele>
        <time>2018-06-17T10:07:28Z</time>
      </trkpt>
      <trkpt lat="44.55104" lon="5.60682">
        <ele>1117.38</ele>
        <time>2018-06-17T10:07:30Z</time>
      </trkpt>
      <trkpt lat="44.55082" lon="5.60684">
        <ele>1116.83</ele>
        <time>2018-06-17T10:07:32Z</time>
      </trkpt>
      <trkpt lat="44.55062" lon="5.60653">
        <ele>1117.48</ele>
        <time>2018-06-17T10:07:34Z</time>
      </trkpt>
      <trkpt lat="44.55052" lon="5.60628">
        <ele>1118.93</ele>
        <time>2018-06-17T10:07:35Z</time>
      </trkpt>
      <trkpt lat="44.55056" lon="5.60575">
        <ele>1120.06</ele>
        <time>2018-06-17T10:07:36Z</time>
      </trkpt>
      <trkpt lat="44.55048" lon="5.6055">
        <ele>1121.1</ele>
        <time>2018-06-17T10:07:37Z</time>
      </trkpt>
      <trkpt lat="44.55036" lon="5.60512">
        <ele>1124.94</ele>
        <time>2018-06-17T10:07:39Z</time>
      </trkpt>
      <trkpt lat="44.55046" lon="5.60474">
        <ele>1128.92</ele>
        <time>2018-06-17T10:07:41Z</time>
      </trkpt>
      <trkpt lat="44.55046" lon="5.60433">
        <ele>1132.71</ele>
        <time>2018-06-17T10:07:43Z</time>
      </trkpt>
      <trkpt lat="44.55032" lon="5.60393">
        <ele>1135.08</ele>
        <time>2018-06-17T10:07:45Z</time>
      </trkpt>
      <trkpt lat="44.55009" lon="5.60357">
        <ele>1137.33</ele>
        <time>2018-06-17T10:07:47Z</time>
      </trkpt>
      <trkpt lat="44.54993" lon="5.60322">
        <ele>1139.35</ele>
        <time>2018-06-17T10:07:49Z</time>
      </trkpt>
      <trkpt lat="44.54993" lon="5.60289">
        <ele>1140.02</ele>
        <time>2018-06-17T10:07:51Z</time>
      </trkpt>
      <trkpt lat="44.55022" lon="5.60259">
        <ele>1143.51</ele>
        <time>2018-06-17T10:07:53Z</time>
      </trkpt>
      <trkpt lat="44.55028" lon="5.60236">
        <ele>1144.94</ele>
        <time>2018-06-17T10:07:54Z</time>
      </trkpt>
      <trkpt lat="44.55033" lon="5.60211">
        <ele>1146.06</ele>
        <time>2018-06-17T10:07:55Z</time>
      </trkpt>
      <trkpt lat="44.55041" lon="5.60161">
        <ele>1148.81</ele>
        <time>2018-06-17T10:07:57Z</time>
      </trkpt>
      <trkpt lat="44.55051" lon="5.60119">
        <ele>1151.09</ele>
        <time>2018-06-17T10:07:59Z</time>
      </trkpt>
      <trkpt lat="44.55043" lon="5.60082">
        <ele>1153.82</ele>
        <time>2018-06-17T10:08:01Z</time>
      </trkpt>
      <trkpt lat="44.55023" lon="5.60047">
        <ele>1155.39</ele>
        <time>2018-06-17T10:08:03Z</time>
      </trkpt>
      <trkpt lat="44.55007" lon="5.60007">
        <ele>1157.14</ele>
        <time>2018-06-17T10:08:05Z</time>
      </trkpt>
      <trkpt lat="44.55" lon="5.59963">
        <ele>1159.82</ele>
        <time>2018-06-17T10:08:07Z</time>
      </trkpt>
      <trkpt lat="44.54992" lon="5.59923">
        <ele>1163</ele>
        <time>2018-06-17T10:08:09Z</time>
      </trkpt>
      <trkpt lat="44.54985" lon="5.59891">
        <ele>1165.81</ele>
        <time>2018-06-17T10:08:11Z</time>
      </trkpt>
      <trkpt lat="44.54978" lon="5.59862">
        <ele>1167.18</ele>
        <time>2018-06-17T10:08:13Z</time>
      </trkpt>
      <trkpt lat="44.54965" lon="5.59839">
        <ele>1170.12</ele>
        <time>2018-06-17T10:08:16Z</time>
      </trkpt>
      <trkpt lat="44.54952" lon="5.5982">
        <ele>1170.54</ele>
        <time>2018-06-17T10:08:20Z</time>
      </trkpt>
      <trkpt lat="44.54922" lon="5.59806">
        <ele>1171.82</ele>
        <time>2018-06-17T10:09:28Z</time>
      </trkpt>
      <trkpt lat="44.54901" lon="5.59803">
        <ele>1171.57</ele>
        <time>2018-06-17T10:09:30Z</time>
      </trkpt>
      <trkpt lat="44.54878" lon="5.5981">
        <ele>1171.55</ele>
        <time>2018-06-17T10:09:32Z</time>
      </trkpt>
      <trkpt lat="44.54857" lon="5.59809">
        <ele>1169.73</ele>
        <time>2018-06-17T10:09:34Z</time>
      </trkpt>
      <trkpt lat="44.5484" lon="5.5979">
        <ele>1169.56</ele>
        <time>2018-06-17T10:09:36Z</time>
      </trkpt>
      <trkpt lat="44.54833" lon="5.59754">
        <ele>1168.85</ele>
        <time>2018-06-17T10:09:38Z</time>
      </trkpt>
      <trkpt lat="44.54849" lon="5.59711">
        <ele>1166.97</ele>
        <time>2018-06-17T10:09:40Z</time>
      </trkpt>
      <trkpt lat="44.54854" lon="5.59662">
        <ele>1165.68</ele>
        <time>2018-06-17T10:09:42Z</time>
      </trkpt>
      <trkpt lat="44.54857" lon="5.59612">
        <ele>1163.04</ele>
        <time>2018-06-17T10:09:44Z</time>
      </trkpt>
      <trkpt lat="44.5486" lon="5.59586">
        <ele>1162.7</ele>
        <time>2018-06-17T10:09:45Z</time>
      </trkpt>
      <trkpt lat="44.54864" lon="5.5956">
        <ele>1161.89</ele>
        <time>2018-06-17T10:09:46Z</time>
      </trkpt>
      <trkpt lat="44.54868" lon="5.59535">
        <ele>1160.95</ele>
        <time>2018-06-17T10:09:47Z</time>
      </trkpt>
      <trkpt lat="44.54873" lon="5.5951">
        <ele>1159.27</ele>
        <time>2018-06-17T10:09:48Z</time>
      </trkpt>
      <trkpt lat="44.54878" lon="5.59483">
        <ele>1157.36</ele>
        <time>2018-06-17T10:09:49Z</time>
      </trkpt>
      <trkpt lat="44.54882" lon="5.59457">
        <ele>1156.79</ele>
        <time>2018-06-17T10:09:50Z</time>
      </trkpt>
      <trkpt lat="44.54884" lon="5.59431">
        <ele>1155.92</ele>
        <time>2018-06-17T10:09:51Z</time>
      </trkpt>
      <trkpt lat="44.54885" lon="5.59406">
        <ele>1155.66</ele>
        <time>2018-06-17T10:09:52Z</time>
      </trkpt>
      <trkpt lat="44.54881" lon="5.59367">
        <ele>1154.16</ele>
        <time>2018-06-17T10:09:54Z</time>
      </trkpt>
      <trkpt lat="44.54879" lon="5.59341">
        <ele>1153.6</ele>
        <time>2018-06-17T10:09:56Z</time>
      </trkpt>
      <trkpt lat="44.54897" lon="5.59321">
        <ele>1151.6</ele>
        <time>2018-06-17T10:10:00Z</time>
      </trkpt>
      <trkpt lat="44.54904" lon="5.59354">
        <ele>1150.85</ele>
        <time>2018-06-17T10:10:02Z</time>
      </trkpt>
      <trkpt lat="44.54901" lon="5.59406">
        <ele>1151.28</ele>
        <time>2018-06-17T10:10:04Z</time>
      </trkpt>
      <trkpt lat="44.54898" lon="5.59443">
        <ele>1150.07</ele>
        <time>2018-06-17T10:10:05Z</time>
      </trkpt>
      <trkpt lat="44.54896" lon="5.59472">
        <ele>1149.7</ele>
        <time>2018-06-17T10:10:06Z</time>
      </trkpt>
      <trkpt lat="44.54895" lon="5.595">
        <ele>1149.59</ele>
        <time>2018-06-17T10:10:07Z</time>
      </trkpt>
      <trkpt lat="44.54894" lon="5.59529">
        <ele>1148.86</ele>
        <time>2018-06-17T10:10:08Z</time>
      </trkpt>
      <trkpt lat="44.54898" lon="5.59558">
        <ele>1147.94</ele>
        <time>2018-06-17T10:10:09Z</time>
      </trkpt>
      <trkpt lat="44.54902" lon="5.59584">
        <ele>1146.97</ele>
        <time>2018-06-17T10:10:10Z</time>
      </trkpt>
      <trkpt lat="44.5491" lon="5.59625">
        <ele>1145.68</ele>
        <time>2018-06-17T10:10:12Z</time>
      </trkpt>
      <trkpt lat="44.54921" lon="5.59655">
        <ele>1145.56</ele>
        <time>2018-06-17T10:10:14Z</time>
      </trkpt>
      <trkpt lat="44.54938" lon="5.59671">
        <ele>1143.94</ele>
        <time>2018-06-17T10:10:16Z</time>
      </trkpt>
      <trkpt lat="44.54964" lon="5.59648">
        <ele>1141.27</ele>
        <time>2018-06-17T10:10:18Z</time>
      </trkpt>
      <trkpt lat="44.54984" lon="5.59614">
        <ele>1140.77</ele>
        <time>2018-06-17T10:10:19Z</time>
      </trkpt>
      <trkpt lat="44.54998" lon="5.59597">
        <ele>1140.61</ele>
        <time>2018-06-17T10:10:20Z</time>
      </trkpt>
      <trkpt lat="44.55012" lon="5.59579">
        <ele>1139.87</ele>
        <time>2018-06-17T10:10:21Z</time>
      </trkpt>
      <trkpt lat="44.55022" lon="5.59551">
        <ele>1138.94</ele>
        <time>2018-06-17T10:10:22Z</time>
      </trkpt>
      <trkpt lat="44.55036" lon="5.59526">
        <ele>1137.97</ele>
        <time>2018-06-17T10:10:23Z</time>
      </trkpt>
      <trkpt lat="44.5505" lon="5.59502">
        <ele>1136.97</ele>
        <time>2018-06-17T10:10:24Z</time>
      </trkpt>
      <trkpt lat="44.55062" lon="5.59481">
        <ele>1136.68</ele>
        <time>2018-06-17T10:10:25Z</time>
      </trkpt>
      <trkpt lat="44.55073" lon="5.59461">
        <ele>1136.59</ele>
        <time>2018-06-17T10:10:26Z</time>
      </trkpt>
      <trkpt lat="44.55089" lon="5.59423">
        <ele>1133.33</ele>
        <time>2018-06-17T10:10:28Z</time>
      </trkpt>
      <trkpt lat="44.55105" lon="5.59397">
        <ele>1132.62</ele>
        <time>2018-06-17T10:10:30Z</time>
      </trkpt>
      <trkpt lat="44.55125" lon="5.59391">
        <ele>1132.57</ele>
        <time>2018-06-17T10:10:31Z</time>
      </trkpt>
      <trkpt lat="44.55144" lon="5.59388">
        <ele>1132.55</ele>
        <time>2018-06-17T10:10:32Z</time>
      </trkpt>
      <trkpt lat="44.55172" lon="5.59362">
        <ele>1130.03</ele>
        <time>2018-06-17T10:10:34Z</time>
      </trkpt>
      <trkpt lat="44.55186" lon="5.59345">
        <ele>1127.59</ele>
        <time>2018-06-17T10:10:35Z</time>
      </trkpt>
      <trkpt lat="44.55211" lon="5.59321">
        <ele>1125.73</ele>
        <time>2018-06-17T10:10:37Z</time>
      </trkpt>
      <trkpt lat="44.5523" lon="5.59294">
        <ele>1124.44</ele>
        <time>2018-06-17T10:10:39Z</time>
      </trkpt>
      <trkpt lat="44.55226" lon="5.59238">
        <ele>1124.54</ele>
        <time>2018-06-17T10:10:41Z</time>
      </trkpt>
      <trkpt lat="44.55233" lon="5.59191">
        <ele>1122.73</ele>
        <time>2018-06-17T10:10:43Z</time>
      </trkpt>
      <trkpt lat="44.55249" lon="5.59159">
        <ele>1122.56</ele>
        <time>2018-06-17T10:10:45Z</time>
      </trkpt>
      <trkpt lat="44.55268" lon="5.59146">
        <ele>1121.85</ele>
        <time>2018-06-17T10:10:47Z</time>
      </trkpt>
      <trkpt lat="44.55289" lon="5.59139">
        <ele>1122.28</ele>
        <time>2018-06-17T10:10:49Z</time>
      </trkpt>
      <trkpt lat="44.55277" lon="5.59109">
        <ele>1120.72</ele>
        <time>2018-06-17T10:10:52Z</time>
      </trkpt>
      <trkpt lat="44.55255" lon="5.59111">
        <ele>1118.25</ele>
        <time>2018-06-17T10:10:54Z</time>
      </trkpt>
      <trkpt lat="44.55229" lon="5.59142">
        <ele>1115.09</ele>
        <time>2018-06-17T10:10:56Z</time>
      </trkpt>
      <trkpt lat="44.55207" lon="5.5918">
        <ele>1113.69</ele>
        <time>2018-06-17T10:10:58Z</time>
      </trkpt>
      <trkpt lat="44.55195" lon="5.59221">
        <ele>1111.95</ele>
        <time>2018-06-17T10:11:00Z</time>
      </trkpt>
      <trkpt lat="44.55192" lon="5.59263">
        <ele>1109.97</ele>
        <time>2018-06-17T10:11:02Z</time>
      </trkpt>
      <trkpt lat="44.55181" lon="5.59297">
        <ele>1108.68</ele>
        <time>2018-06-17T10:11:04Z</time>
      </trkpt>
      <trkpt lat="44.55151" lon="5.59319">
        <ele>1107.65</ele>
        <time>2018-06-17T10:11:06Z</time>
      </trkpt>
      <trkpt lat="44.5512" lon="5.59339">
        <ele>1105.95</ele>
        <time>2018-06-17T10:11:08Z</time>
      </trkpt>
      <trkpt lat="44.55086" lon="5.59342">
        <ele>1102.36</ele>
        <time>2018-06-17T10:11:10Z</time>
      </trkpt>
      <trkpt lat="44.55054" lon="5.59349">
        <ele>1100.92</ele>
        <time>2018-06-17T10:11:12Z</time>
      </trkpt>
      <trkpt lat="44.55032" lon="5.59366">
        <ele>1099.88</ele>
        <time>2018-06-17T10:11:14Z</time>
      </trkpt>
      <trkpt lat="44.5501" lon="5.59373">
        <ele>1098.18</ele>
        <time>2018-06-17T10:11:16Z</time>
      </trkpt>
      <trkpt lat="44.54995" lon="5.59359">
        <ele>1096.9</ele>
        <time>2018-06-17T10:11:18Z</time>
      </trkpt>
      <trkpt lat="44.54995" lon="5.59318">
        <ele>1094.76</ele>
        <time>2018-06-17T10:11:20Z</time>
      </trkpt>
      <trkpt lat="44.55011" lon="5.59274">
        <ele>1092.26</ele>
        <time>2018-06-17T10:11:22Z</time>
      </trkpt>
      <trkpt lat="44.55019" lon="5.59245">
        <ele>1091.76</ele>
        <time>2018-06-17T10:11:23Z</time>
      </trkpt>
      <trkpt lat="44.55028" lon="5.59214">
        <ele>1090.91</ele>
        <time>2018-06-17T10:11:24Z</time>
      </trkpt>
      <trkpt lat="44.55036" lon="5.59183">
        <ele>1091.36</ele>
        <time>2018-06-17T10:11:25Z</time>
      </trkpt>
      <trkpt lat="44.5504" lon="5.59153">
        <ele>1090.09</ele>
        <time>2018-06-17T10:11:26Z</time>
      </trkpt>
      <trkpt lat="44.55043" lon="5.59123">
        <ele>1089.01</ele>
        <time>2018-06-17T10:11:27Z</time>
      </trkpt>
      <trkpt lat="44.55045" lon="5.59091">
        <ele>1087.29</ele>
        <time>2018-06-17T10:11:28Z</time>
      </trkpt>
      <trkpt lat="44.55047" lon="5.59059">
        <ele>1085.37</ele>
        <time>2018-06-17T10:11:29Z</time>
      </trkpt>
      <trkpt lat="44.55047" lon="5.59026">
        <ele>1084.09</ele>
        <time>2018-06-17T10:11:30Z</time>
      </trkpt>
      <trkpt lat="44.55048" lon="5.58993">
        <ele>1083.71</ele>
        <time>2018-06-17T10:11:31Z</time>
      </trkpt>
      <trkpt lat="44.55049" lon="5.5896">
        <ele>1082.9</ele>
        <time>2018-06-17T10:11:32Z</time>
      </trkpt>
      <trkpt lat="44.55051" lon="5.58928">
        <ele>1082.65</ele>
        <time>2018-06-17T10:11:33Z</time>
      </trkpt>
      <trkpt lat="44.55054" lon="5.58897">
        <ele>1082.58</ele>
        <time>2018-06-17T10:11:34Z</time>
      </trkpt>
      <trkpt lat="44.55057" lon="5.58867">
        <ele>1080.46</ele>
        <time>2018-06-17T10:11:35Z</time>
      </trkpt>
      <trkpt lat="44.55062" lon="5.58836">
        <ele>1079.82</ele>
        <time>2018-06-17T10:11:36Z</time>
      </trkpt>
      <trkpt lat="44.5507" lon="5.58807">
        <ele>1078.23</ele>
        <time>2018-06-17T10:11:37Z</time>
      </trkpt>
      <trkpt lat="44.55078" lon="5.58777">
        <ele>1077.05</ele>
        <time>2018-06-17T10:11:38Z</time>
      </trkpt>
      <trkpt lat="44.55086" lon="5.58747">
        <ele>1075.3</ele>
        <time>2018-06-17T10:11:39Z</time>
      </trkpt>
      <trkpt lat="44.55092" lon="5.58718">
        <ele>1074.07</ele>
        <time>2018-06-17T10:11:40Z</time>
      </trkpt>
      <trkpt lat="44.55099" lon="5.58692">
        <ele>1073.01</ele>
        <time>2018-06-17T10:11:41Z</time>
      </trkpt>
      <trkpt lat="44.55107" lon="5.58667">
        <ele>1071.99</ele>
        <time>2018-06-17T10:11:42Z</time>
      </trkpt>
      <trkpt lat="44.55118" lon="5.58644">
        <ele>1071.68</ele>
        <time>2018-06-17T10:11:43Z</time>
      </trkpt>
      <trkpt lat="44.55132" lon="5.58625">
        <ele>1070.89</ele>
        <time>2018-06-17T10:11:44Z</time>
      </trkpt>
      <trkpt lat="44.55146" lon="5.58605">
        <ele>1070.65</ele>
        <time>2018-06-17T10:11:45Z</time>
      </trkpt>
      <trkpt lat="44.55163" lon="5.5859">
        <ele>1069.18</ele>
        <time>2018-06-17T10:11:46Z</time>
      </trkpt>
      <trkpt lat="44.55182" lon="5.58576">
        <ele>1068.04</ele>
        <time>2018-06-17T10:11:47Z</time>
      </trkpt>
      <trkpt lat="44.552" lon="5.58561">
        <ele>1067.69</ele>
        <time>2018-06-17T10:11:48Z</time>
      </trkpt>
      <trkpt lat="44.55216" lon="5.58546">
        <ele>1067.59</ele>
        <time>2018-06-17T10:11:49Z</time>
      </trkpt>
      <trkpt lat="44.55232" lon="5.58531">
        <ele>1067.56</ele>
        <time>2018-06-17T10:11:50Z</time>
      </trkpt>
      <trkpt lat="44.55248" lon="5.58512">
        <ele>1067.55</ele>
        <time>2018-06-17T10:11:51Z</time>
      </trkpt>
      <trkpt lat="44.55262" lon="5.58486">
        <ele>1066.85</ele>
        <time>2018-06-17T10:11:52Z</time>
      </trkpt>
      <trkpt lat="44.55275" lon="5.58453">
        <ele>1065.94</ele>
        <time>2018-06-17T10:11:53Z</time>
      </trkpt>
      <trkpt lat="44.55282" lon="5.58424">
        <ele>1063.57</ele>
        <time>2018-06-17T10:11:54Z</time>
      </trkpt>
      <trkpt lat="44.55292" lon="5.58397">
        <ele>1061.45</ele>
        <time>2018-06-17T10:11:55Z</time>
      </trkpt>
      <trkpt lat="44.55301" lon="5.58368">
        <ele>1060.12</ele>
        <time>2018-06-17T10:11:56Z</time>
      </trkpt>
      <trkpt lat="44.55305" lon="5.58339">
        <ele>1059.02</ele>
        <time>2018-06-17T10:11:57Z</time>
      </trkpt>
      <trkpt lat="44.55308" lon="5.5831">
        <ele>1057.99</ele>
        <time>2018-06-17T10:11:58Z</time>
      </trkpt>
      <trkpt lat="44.55311" lon="5.58281">
        <ele>1056.98</ele>
        <time>2018-06-17T10:11:59Z</time>
      </trkpt>
      <trkpt lat="44.55323" lon="5.5823">
        <ele>1053.16</ele>
        <time>2018-06-17T10:12:01Z</time>
      </trkpt>
      <trkpt lat="44.55336" lon="5.58186">
        <ele>1050.08</ele>
        <time>2018-06-17T10:12:03Z</time>
      </trkpt>
      <trkpt lat="44.55351" lon="5.58171">
        <ele>1047.61</ele>
        <time>2018-06-17T10:12:04Z</time>
      </trkpt>
      <trkpt lat="44.55377" lon="5.58145">
        <ele>1045.03</ele>
        <time>2018-06-17T10:12:06Z</time>
      </trkpt>
      <trkpt lat="44.554" lon="5.5811">
        <ele>1042.77</ele>
        <time>2018-06-17T10:12:08Z</time>
      </trkpt>
      <trkpt lat="44.5542" lon="5.58062">
        <ele>1041.87</ele>
        <time>2018-06-17T10:12:10Z</time>
      </trkpt>
      <trkpt lat="44.55431" lon="5.58033">
        <ele>1040.94</ele>
        <time>2018-06-17T10:12:11Z</time>
      </trkpt>
      <trkpt lat="44.55444" lon="5.58008">
        <ele>1039.97</ele>
        <time>2018-06-17T10:12:12Z</time>
      </trkpt>
      <trkpt lat="44.55458" lon="5.57984">
        <ele>1038.97</ele>
        <time>2018-06-17T10:12:13Z</time>
      </trkpt>
      <trkpt lat="44.55472" lon="5.57962">
        <ele>1038.68</ele>
        <time>2018-06-17T10:12:14Z</time>
      </trkpt>
      <trkpt lat="44.55485" lon="5.5794">
        <ele>1037.89</ele>
        <time>2018-06-17T10:12:15Z</time>
      </trkpt>
      <trkpt lat="44.55507" lon="5.57918">
        <ele>1036.88</ele>
        <time>2018-06-17T10:12:17Z</time>
      </trkpt>
      <trkpt lat="44.55528" lon="5.57902">
        <ele>1034.97</ele>
        <time>2018-06-17T10:12:19Z</time>
      </trkpt>
      <trkpt lat="44.55551" lon="5.579">
        <ele>1033.89</ele>
        <time>2018-06-17T10:12:21Z</time>
      </trkpt>
      <trkpt lat="44.55577" lon="5.57911">
        <ele>1033.65</ele>
        <time>2018-06-17T10:12:22Z</time>
      </trkpt>
      <trkpt lat="44.55601" lon="5.57917">
        <ele>1033.58</ele>
        <time>2018-06-17T10:12:23Z</time>
      </trkpt>
      <trkpt lat="44.55622" lon="5.57925">
        <ele>1032.16</ele>
        <time>2018-06-17T10:12:24Z</time>
      </trkpt>
      <trkpt lat="44.55641" lon="5.57932">
        <ele>1031.73</ele>
        <time>2018-06-17T10:12:25Z</time>
      </trkpt>
      <trkpt lat="44.55676" lon="5.57948">
        <ele>1029.25</ele>
        <time>2018-06-17T10:12:27Z</time>
      </trkpt>
      <trkpt lat="44.5571" lon="5.57946">
        <ele>1024.9</ele>
        <time>2018-06-17T10:12:29Z</time>
      </trkpt>
      <trkpt lat="44.55727" lon="5.57933">
        <ele>1021.85</ele>
        <time>2018-06-17T10:12:30Z</time>
      </trkpt>
      <trkpt lat="44.55743" lon="5.57918">
        <ele>1020.24</ele>
        <time>2018-06-17T10:12:31Z</time>
      </trkpt>
      <trkpt lat="44.55763" lon="5.57895">
        <ele>1019.06</ele>
        <time>2018-06-17T10:12:32Z</time>
      </trkpt>
      <trkpt lat="44.5578" lon="5.57859">
        <ele>1019.4</ele>
        <time>2018-06-17T10:12:33Z</time>
      </trkpt>
      <trkpt lat="44.55796" lon="5.57835">
        <ele>1018.8</ele>
        <time>2018-06-17T10:12:34Z</time>
      </trkpt>
      <trkpt lat="44.5581" lon="5.5781">
        <ele>1017.92</ele>
        <time>2018-06-17T10:12:35Z</time>
      </trkpt>
      <trkpt lat="44.55822" lon="5.57786">
        <ele>1016.26</ele>
        <time>2018-06-17T10:12:36Z</time>
      </trkpt>
      <trkpt lat="44.55835" lon="5.57756">
        <ele>1017.16</ele>
        <time>2018-06-17T10:12:37Z</time>
      </trkpt>
      <trkpt lat="44.55843" lon="5.57727">
        <ele>1017.43</ele>
        <time>2018-06-17T10:12:38Z</time>
      </trkpt>
      <trkpt lat="44.55842" lon="5.5769">
        <ele>1015.41</ele>
        <time>2018-06-17T10:12:39Z</time>
      </trkpt>
      <trkpt lat="44.55847" lon="5.57658">
        <ele>1012.71</ele>
        <time>2018-06-17T10:12:40Z</time>
      </trkpt>
      <trkpt lat="44.55851" lon="5.57626">
        <ele>1009.1</ele>
        <time>2018-06-17T10:12:41Z</time>
      </trkpt>
      <trkpt lat="44.55857" lon="5.57593">
        <ele>1007.31</ele>
        <time>2018-06-17T10:12:42Z</time>
      </trkpt>
      <trkpt lat="44.55865" lon="5.57562">
        <ele>1005.38</ele>
        <time>2018-06-17T10:12:43Z</time>
      </trkpt>
      <trkpt lat="44.55878" lon="5.57532">
        <ele>1002.7</ele>
        <time>2018-06-17T10:12:44Z</time>
      </trkpt>
      <trkpt lat="44.55888" lon="5.57502">
        <ele>999.09</ele>
        <time>2018-06-17T10:12:45Z</time>
      </trkpt>
      <trkpt lat="44.55896" lon="5.57471">
        <ele>997.31</ele>
        <time>2018-06-17T10:12:46Z</time>
      </trkpt>
      <trkpt lat="44.55903" lon="5.57441">
        <ele>995.38</ele>
        <time>2018-06-17T10:12:47Z</time>
      </trkpt>
      <trkpt lat="44.55909" lon="5.57415">
        <ele>993.4</ele>
        <time>2018-06-17T10:12:48Z</time>
      </trkpt>
      <trkpt lat="44.55914" lon="5.57372">
        <ele>990.1</ele>
        <time>2018-06-17T10:12:50Z</time>
      </trkpt>
      <trkpt lat="44.5592" lon="5.57344">
        <ele>985.68</ele>
        <time>2018-06-17T10:12:52Z</time>
      </trkpt>
      <trkpt lat="44.5593" lon="5.57322">
        <ele>984.65</ele>
        <time>2018-06-17T10:12:54Z</time>
      </trkpt>
      <trkpt lat="44.55944" lon="5.57347">
        <ele>982.88</ele>
        <time>2018-06-17T10:12:57Z</time>
      </trkpt>
      <trkpt lat="44.5594" lon="5.57373">
        <ele>982.65</ele>
        <time>2018-06-17T10:12:58Z</time>
      </trkpt>
      <trkpt lat="44.55926" lon="5.5745">
        <ele>982.56</ele>
        <time>2018-06-17T10:13:00Z</time>
      </trkpt>
      <trkpt lat="44.55922" lon="5.57486">
        <ele>981.85</ele>
        <time>2018-06-17T10:13:01Z</time>
      </trkpt>
      <trkpt lat="44.55918" lon="5.57523">
        <ele>980.94</ele>
        <time>2018-06-17T10:13:02Z</time>
      </trkpt>
      <trkpt lat="44.55915" lon="5.57558">
        <ele>979.27</ele>
        <time>2018-06-17T10:13:03Z</time>
      </trkpt>
      <trkpt lat="44.55909" lon="5.57593">
        <ele>978.06</ele>
        <time>2018-06-17T10:13:04Z</time>
      </trkpt>
      <trkpt lat="44.55906" lon="5.57629">
        <ele>976.3</ele>
        <time>2018-06-17T10:13:05Z</time>
      </trkpt>
      <trkpt lat="44.55904" lon="5.57665">
        <ele>974.37</ele>
        <time>2018-06-17T10:13:06Z</time>
      </trkpt>
      <trkpt lat="44.55902" lon="5.577">
        <ele>972.4</ele>
        <time>2018-06-17T10:13:07Z</time>
      </trkpt>
      <trkpt lat="44.559" lon="5.57735">
        <ele>970.4</ele>
        <time>2018-06-17T10:13:08Z</time>
      </trkpt>
      <trkpt lat="44.55898" lon="5.5777">
        <ele>969.1</ele>
        <time>2018-06-17T10:13:09Z</time>
      </trkpt>
      <trkpt lat="44.55896" lon="5.57805">
        <ele>967.31</ele>
        <time>2018-06-17T10:13:10Z</time>
      </trkpt>
      <trkpt lat="44.55894" lon="5.57839">
        <ele>966.08</ele>
        <time>2018-06-17T10:13:11Z</time>
      </trkpt>
      <trkpt lat="44.55891" lon="5.57875">
        <ele>964.31</ele>
        <time>2018-06-17T10:13:12Z</time>
      </trkpt>
      <trkpt lat="44.55889" lon="5.5791">
        <ele>963.78</ele>
        <time>2018-06-17T10:13:13Z</time>
      </trkpt>
      <trkpt lat="44.55884" lon="5.57944">
        <ele>962.92</ele>
        <time>2018-06-17T10:13:14Z</time>
      </trkpt>
      <trkpt lat="44.55879" lon="5.57978">
        <ele>961.96</ele>
        <time>2018-06-17T10:13:15Z</time>
      </trkpt>
      <trkpt lat="44.55872" lon="5.5801">
        <ele>960.97</ele>
        <time>2018-06-17T10:13:16Z</time>
      </trkpt>
      <trkpt lat="44.55864" lon="5.58039">
        <ele>959.27</ele>
        <time>2018-06-17T10:13:17Z</time>
      </trkpt>
      <trkpt lat="44.55856" lon="5.58064">
        <ele>958.77</ele>
        <time>2018-06-17T10:13:18Z</time>
      </trkpt>
      <trkpt lat="44.55848" lon="5.58089">
        <ele>958.61</ele>
        <time>2018-06-17T10:13:19Z</time>
      </trkpt>
      <trkpt lat="44.55832" lon="5.58123">
        <ele>958.55</ele>
        <time>2018-06-17T10:13:21Z</time>
      </trkpt>
      <trkpt lat="44.55818" lon="5.58148">
        <ele>957.85</ele>
        <time>2018-06-17T10:13:23Z</time>
      </trkpt>
      <trkpt lat="44.55833" lon="5.58168">
        <ele>955.04</ele>
        <time>2018-06-17T10:13:26Z</time>
      </trkpt>
      <trkpt lat="44.55847" lon="5.58148">
        <ele>952.89</ele>
        <time>2018-06-17T10:13:29Z</time>
      </trkpt>
      <trkpt lat="44.55872" lon="5.58102">
        <ele>953.35</ele>
        <time>2018-06-17T10:13:30Z</time>
      </trkpt>
      <trkpt lat="44.55886" lon="5.58077">
        <ele>952.09</ele>
        <time>2018-06-17T10:13:31Z</time>
      </trkpt>
      <trkpt lat="44.559" lon="5.58056">
        <ele>950.31</ele>
        <time>2018-06-17T10:13:32Z</time>
      </trkpt>
      <trkpt lat="44.55911" lon="5.58034">
        <ele>949.78</ele>
        <time>2018-06-17T10:13:33Z</time>
      </trkpt>
      <trkpt lat="44.5592" lon="5.58009">
        <ele>948.92</ele>
        <time>2018-06-17T10:13:34Z</time>
      </trkpt>
      <trkpt lat="44.5593" lon="5.57983">
        <ele>947.96</ele>
        <time>2018-06-17T10:13:35Z</time>
      </trkpt>
      <trkpt lat="44.55937" lon="5.57956">
        <ele>946.27</ele>
        <time>2018-06-17T10:13:36Z</time>
      </trkpt>
      <trkpt lat="44.55945" lon="5.57929">
        <ele>944.36</ele>
        <time>2018-06-17T10:13:37Z</time>
      </trkpt>
      <trkpt lat="44.55952" lon="5.579">
        <ele>942.39</ele>
        <time>2018-06-17T10:13:38Z</time>
      </trkpt>
      <trkpt lat="44.55956" lon="5.57871">
        <ele>940.4</ele>
        <time>2018-06-17T10:13:39Z</time>
      </trkpt>
      <trkpt lat="44.5596" lon="5.57842">
        <ele>939.1</ele>
        <time>2018-06-17T10:13:40Z</time>
      </trkpt>
      <trkpt lat="44.55963" lon="5.57813">
        <ele>938.01</ele>
        <time>2018-06-17T10:13:41Z</time>
      </trkpt>
      <trkpt lat="44.55969" lon="5.57785">
        <ele>936.99</ele>
        <time>2018-06-17T10:13:42Z</time>
      </trkpt>
      <trkpt lat="44.55978" lon="5.57759">
        <ele>935.28</ele>
        <time>2018-06-17T10:13:43Z</time>
      </trkpt>
      <trkpt lat="44.55988" lon="5.57731">
        <ele>934.07</ele>
        <time>2018-06-17T10:13:44Z</time>
      </trkpt>
      <trkpt lat="44.55998" lon="5.577">
        <ele>933</ele>
        <time>2018-06-17T10:13:45Z</time>
      </trkpt>
      <trkpt lat="44.56007" lon="5.5767">
        <ele>931.98</ele>
        <time>2018-06-17T10:13:46Z</time>
      </trkpt>
      <trkpt lat="44.56016" lon="5.57641">
        <ele>929.58</ele>
        <time>2018-06-17T10:13:47Z</time>
      </trkpt>
      <trkpt lat="44.56026" lon="5.57612">
        <ele>928.16</ele>
        <time>2018-06-17T10:13:48Z</time>
      </trkpt>
      <trkpt lat="44.56035" lon="5.57583">
        <ele>925.63</ele>
        <time>2018-06-17T10:13:49Z</time>
      </trkpt>
      <trkpt lat="44.56046" lon="5.57554">
        <ele>924.17</ele>
        <time>2018-06-17T10:13:50Z</time>
      </trkpt>
      <trkpt lat="44.56056" lon="5.57527">
        <ele>922.34</ele>
        <time>2018-06-17T10:13:51Z</time>
      </trkpt>
      <trkpt lat="44.56069" lon="5.575">
        <ele>921.78</ele>
        <time>2018-06-17T10:13:52Z</time>
      </trkpt>
      <trkpt lat="44.5608" lon="5.57473">
        <ele>920.22</ele>
        <time>2018-06-17T10:13:53Z</time>
      </trkpt>
      <trkpt lat="44.5609" lon="5.57448">
        <ele>919.05</ele>
        <time>2018-06-17T10:13:54Z</time>
      </trkpt>
      <trkpt lat="44.561" lon="5.57424">
        <ele>918.7</ele>
        <time>2018-06-17T10:13:55Z</time>
      </trkpt>
      <trkpt lat="44.56102" lon="5.57388">
        <ele>916.95</ele>
        <time>2018-06-17T10:13:57Z</time>
      </trkpt>
      <trkpt lat="44.56094" lon="5.5735">
        <ele>914.76</ele>
        <time>2018-06-17T10:13:59Z</time>
      </trkpt>
      <trkpt lat="44.56079" lon="5.57317">
        <ele>915.27</ele>
        <time>2018-06-17T10:14:01Z</time>
      </trkpt>
      <trkpt lat="44.56058" lon="5.57311">
        <ele>915.46</ele>
        <time>2018-06-17T10:14:02Z</time>
      </trkpt>
      <trkpt lat="44.56031" lon="5.57281">
        <ele>915.54</ele>
        <time>2018-06-17T10:14:04Z</time>
      </trkpt>
      <trkpt lat="44.5602" lon="5.57258">
        <ele>916.25</ele>
        <time>2018-06-17T10:14:05Z</time>
      </trkpt>
      <trkpt lat="44.56012" lon="5.57232">
        <ele>915.76</ele>
        <time>2018-06-17T10:14:06Z</time>
      </trkpt>
      <trkpt lat="44.56007" lon="5.57207">
        <ele>915.61</ele>
        <time>2018-06-17T10:14:07Z</time>
      </trkpt>
      <trkpt lat="44.56004" lon="5.57167">
        <ele>913.94</ele>
        <time>2018-06-17T10:14:09Z</time>
      </trkpt>
      <trkpt lat="44.56019" lon="5.57124">
        <ele>911.76</ele>
        <time>2018-06-17T10:14:11Z</time>
      </trkpt>
      <trkpt lat="44.56027" lon="5.571">
        <ele>910.21</ele>
        <time>2018-06-17T10:14:12Z</time>
      </trkpt>
      <trkpt lat="44.56041" lon="5.57082">
        <ele>908.35</ele>
        <time>2018-06-17T10:14:13Z</time>
      </trkpt>
      <trkpt lat="44.56063" lon="5.57047">
        <ele>906.01</ele>
        <time>2018-06-17T10:14:15Z</time>
      </trkpt>
      <trkpt lat="44.5609" lon="5.57015">
        <ele>906.29</ele>
        <time>2018-06-17T10:14:17Z</time>
      </trkpt>
      <trkpt lat="44.56121" lon="5.57">
        <ele>905.07</ele>
        <time>2018-06-17T10:14:18Z</time>
      </trkpt>
      <trkpt lat="44.56147" lon="5.56986">
        <ele>903.3</ele>
        <time>2018-06-17T10:14:19Z</time>
      </trkpt>
      <trkpt lat="44.56167" lon="5.56972">
        <ele>902.78</ele>
        <time>2018-06-17T10:14:20Z</time>
      </trkpt>
      <trkpt lat="44.56189" lon="5.56964">
        <ele>901.22</ele>
        <time>2018-06-17T10:14:21Z</time>
      </trkpt>
      <trkpt lat="44.56208" lon="5.56953">
        <ele>900.75</ele>
        <time>2018-06-17T10:14:22Z</time>
      </trkpt>
      <trkpt lat="44.56225" lon="5.56943">
        <ele>900.61</ele>
        <time>2018-06-17T10:14:23Z</time>
      </trkpt>
      <trkpt lat="44.56248" lon="5.56915">
        <ele>899.64</ele>
        <time>2018-06-17T10:14:25Z</time>
      </trkpt>
      <trkpt lat="44.56259" lon="5.56868">
        <ele>898.86</ele>
        <time>2018-06-17T10:14:27Z</time>
      </trkpt>
      <trkpt lat="44.56251" lon="5.56839">
        <ele>897.24</ele>
        <time>2018-06-17T10:14:28Z</time>
      </trkpt>
      <trkpt lat="44.56255" lon="5.56791">
        <ele>894.79</ele>
        <time>2018-06-17T10:14:30Z</time>
      </trkpt>
      <trkpt lat="44.56267" lon="5.56742">
        <ele>890.65</ele>
        <time>2018-06-17T10:14:32Z</time>
      </trkpt>
      <trkpt lat="44.56283" lon="5.56718">
        <ele>888.48</ele>
        <time>2018-06-17T10:14:33Z</time>
      </trkpt>
      <trkpt lat="44.5629" lon="5.56693">
        <ele>887.13</ele>
        <time>2018-06-17T10:14:34Z</time>
      </trkpt>
      <trkpt lat="44.56296" lon="5.56645">
        <ele>884.29</ele>
        <time>2018-06-17T10:14:36Z</time>
      </trkpt>
      <trkpt lat="44.56289" lon="5.566">
        <ele>882.21</ele>
        <time>2018-06-17T10:14:38Z</time>
      </trkpt>
      <trkpt lat="44.56268" lon="5.56561">
        <ele>880.7</ele>
        <time>2018-06-17T10:14:40Z</time>
      </trkpt>
      <trkpt lat="44.56244" lon="5.56527">
        <ele>879.86</ele>
        <time>2018-06-17T10:14:42Z</time>
      </trkpt>
      <trkpt lat="44.56226" lon="5.56493">
        <ele>877.27</ele>
        <time>2018-06-17T10:14:44Z</time>
      </trkpt>
      <trkpt lat="44.56217" lon="5.56453">
        <ele>875.91</ele>
        <time>2018-06-17T10:14:46Z</time>
      </trkpt>
      <trkpt lat="44.56225" lon="5.56428">
        <ele>874.26</ele>
        <time>2018-06-17T10:14:47Z</time>
      </trkpt>
      <trkpt lat="44.56237" lon="5.56406">
        <ele>872.36</ele>
        <time>2018-06-17T10:14:48Z</time>
      </trkpt>
      <trkpt lat="44.56262" lon="5.56371">
        <ele>870.92</ele>
        <time>2018-06-17T10:14:50Z</time>
      </trkpt>
      <trkpt lat="44.56286" lon="5.56339">
        <ele>868.97</ele>
        <time>2018-06-17T10:14:52Z</time>
      </trkpt>
      <trkpt lat="44.56303" lon="5.56328">
        <ele>867.98</ele>
        <time>2018-06-17T10:14:53Z</time>
      </trkpt>
      <trkpt lat="44.56324" lon="5.56295">
        <ele>868.5</ele>
        <time>2018-06-17T10:14:55Z</time>
      </trkpt>
      <trkpt lat="44.56346" lon="5.56257">
        <ele>868.75</ele>
        <time>2018-06-17T10:14:57Z</time>
      </trkpt>
      <trkpt lat="44.56343" lon="5.56225">
        <ele>865.81</ele>
        <time>2018-06-17T10:14:58Z</time>
      </trkpt>
      <trkpt lat="44.56348" lon="5.56198">
        <ele>864.93</ele>
        <time>2018-06-17T10:14:59Z</time>
      </trkpt>
      <trkpt lat="44.56355" lon="5.56173">
        <ele>863.96</ele>
        <time>2018-06-17T10:15:00Z</time>
      </trkpt>
      <trkpt lat="44.56366" lon="5.56149">
        <ele>860.87</ele>
        <time>2018-06-17T10:15:01Z</time>
      </trkpt>
      <trkpt lat="44.56375" lon="5.56106">
        <ele>858.06</ele>
        <time>2018-06-17T10:15:03Z</time>
      </trkpt>
      <trkpt lat="44.56383" lon="5.56069">
        <ele>856.68</ele>
        <time>2018-06-17T10:15:05Z</time>
      </trkpt>
      <trkpt lat="44.56404" lon="5.56046">
        <ele>856.77</ele>
        <time>2018-06-17T10:15:07Z</time>
      </trkpt>
      <trkpt lat="44.56427" lon="5.56048">
        <ele>855.91</ele>
        <time>2018-06-17T10:15:08Z</time>
      </trkpt>
      <trkpt lat="44.56446" lon="5.56049">
        <ele>854.96</ele>
        <time>2018-06-17T10:15:09Z</time>
      </trkpt>
      <trkpt lat="44.56465" lon="5.56053">
        <ele>853.27</ele>
        <time>2018-06-17T10:15:10Z</time>
      </trkpt>
      <trkpt lat="44.56489" lon="5.56051">
        <ele>852.82</ele>
        <time>2018-06-17T10:15:12Z</time>
      </trkpt>
      <trkpt lat="44.56506" lon="5.56032">
        <ele>852.57</ele>
        <time>2018-06-17T10:15:14Z</time>
      </trkpt>
      <trkpt lat="44.56494" lon="5.56002">
        <ele>851.86</ele>
        <time>2018-06-17T10:15:15Z</time>
      </trkpt>
      <trkpt lat="44.56496" lon="5.55965">
        <ele>848.36</ele>
        <time>2018-06-17T10:15:17Z</time>
      </trkpt>
      <trkpt lat="44.56505" lon="5.55932">
        <ele>846.01</ele>
        <time>2018-06-17T10:15:19Z</time>
      </trkpt>
      <trkpt lat="44.56525" lon="5.55895">
        <ele>845.38</ele>
        <time>2018-06-17T10:15:21Z</time>
      </trkpt>
      <trkpt lat="44.56533" lon="5.55851">
        <ele>844.62</ele>
        <time>2018-06-17T10:15:23Z</time>
      </trkpt>
      <trkpt lat="44.5654" lon="5.55811">
        <ele>843.85</ele>
        <time>2018-06-17T10:15:25Z</time>
      </trkpt>
      <trkpt lat="44.56548" lon="5.55779">
        <ele>839.79</ele>
        <time>2018-06-17T10:15:28Z</time>
      </trkpt>
      <trkpt lat="44.56571" lon="5.5578">
        <ele>839.78</ele>
        <time>2018-06-17T10:15:30Z</time>
      </trkpt>
      <trkpt lat="44.56583" lon="5.55805">
        <ele>837.26</ele>
        <time>2018-06-17T10:15:32Z</time>
      </trkpt>
      <trkpt lat="44.56584" lon="5.55839">
        <ele>836.76</ele>
        <time>2018-06-17T10:15:33Z</time>
      </trkpt>
      <trkpt lat="44.56581" lon="5.55874">
        <ele>835.91</ele>
        <time>2018-06-17T10:15:34Z</time>
      </trkpt>
      <trkpt lat="44.56577" lon="5.55903">
        <ele>834.96</ele>
        <time>2018-06-17T10:15:35Z</time>
      </trkpt>
      <trkpt lat="44.56573" lon="5.55946">
        <ele>833.67</ele>
        <time>2018-06-17T10:15:37Z</time>
      </trkpt>
      <trkpt lat="44.56565" lon="5.5598">
        <ele>832.86</ele>
        <time>2018-06-17T10:15:39Z</time>
      </trkpt>
      <trkpt lat="44.56564" lon="5.56011">
        <ele>830.97</ele>
        <time>2018-06-17T10:15:41Z</time>
      </trkpt>
      <trkpt lat="44.56594" lon="5.56039">
        <ele>831.5</ele>
        <time>2018-06-17T10:15:43Z</time>
      </trkpt>
      <trkpt lat="44.56615" lon="5.56075">
        <ele>829.93</ele>
        <time>2018-06-17T10:15:45Z</time>
      </trkpt>
      <trkpt lat="44.56609" lon="5.56119">
        <ele>827.27</ele>
        <time>2018-06-17T10:15:47Z</time>
      </trkpt>
      <trkpt lat="44.56601" lon="5.56152">
        <ele>825</ele>
        <time>2018-06-17T10:15:49Z</time>
      </trkpt>
      <trkpt lat="44.56588" lon="5.56175">
        <ele>822.98</ele>
        <time>2018-06-17T10:15:51Z</time>
      </trkpt>
      <trkpt lat="44.5656" lon="5.56199">
        <ele>820.77</ele>
        <time>2018-06-17T10:15:53Z</time>
      </trkpt>
      <trkpt lat="44.56524" lon="5.56205">
        <ele>819.66</ele>
        <time>2018-06-17T10:15:55Z</time>
      </trkpt>
      <trkpt lat="44.56491" lon="5.56206">
        <ele>819.56</ele>
        <time>2018-06-17T10:15:57Z</time>
      </trkpt>
      <trkpt lat="44.56467" lon="5.56226">
        <ele>819.76</ele>
        <time>2018-06-17T10:15:59Z</time>
      </trkpt>
      <trkpt lat="44.56458" lon="5.56274">
        <ele>818.66</ele>
        <time>2018-06-17T10:16:01Z</time>
      </trkpt>
      <trkpt lat="44.56459" lon="5.56305">
        <ele>817.18</ele>
        <time>2018-06-17T10:16:02Z</time>
      </trkpt>
      <trkpt lat="44.5646" lon="5.56338">
        <ele>816.74</ele>
        <time>2018-06-17T10:16:03Z</time>
      </trkpt>
      <trkpt lat="44.56472" lon="5.56375">
        <ele>816.6</ele>
        <time>2018-06-17T10:16:04Z</time>
      </trkpt>
      <trkpt lat="44.56473" lon="5.56408">
        <ele>815.17</ele>
        <time>2018-06-17T10:16:05Z</time>
      </trkpt>
      <trkpt lat="44.56472" lon="5.56437">
        <ele>813.33</ele>
        <time>2018-06-17T10:16:06Z</time>
      </trkpt>
      <trkpt lat="44.5647" lon="5.56466">
        <ele>812.08</ele>
        <time>2018-06-17T10:16:07Z</time>
      </trkpt>
      <trkpt lat="44.5646" lon="5.56508">
        <ele>807.47</ele>
        <time>2018-06-17T10:16:09Z</time>
      </trkpt>
      <trkpt lat="44.5646" lon="5.5654">
        <ele>805.02</ele>
        <time>2018-06-17T10:16:11Z</time>
      </trkpt>
      <trkpt lat="44.56476" lon="5.56564">
        <ele>804.8</ele>
        <time>2018-06-17T10:16:13Z</time>
      </trkpt>
      <trkpt lat="44.56495" lon="5.56575">
        <ele>803.22</ele>
        <time>2018-06-17T10:16:14Z</time>
      </trkpt>
      <trkpt lat="44.56517" lon="5.566">
        <ele>800.79</ele>
        <time>2018-06-17T10:16:16Z</time>
      </trkpt>
      <trkpt lat="44.56535" lon="5.5664">
        <ele>798.47</ele>
        <time>2018-06-17T10:16:18Z</time>
      </trkpt>
      <trkpt lat="44.56544" lon="5.56684">
        <ele>796.93</ele>
        <time>2018-06-17T10:16:20Z</time>
      </trkpt>
      <trkpt lat="44.56549" lon="5.56725">
        <ele>796.79</ele>
        <time>2018-06-17T10:16:22Z</time>
      </trkpt>
      <trkpt lat="44.56551" lon="5.56763">
        <ele>794.96</ele>
        <time>2018-06-17T10:16:24Z</time>
      </trkpt>
      <trkpt lat="44.56553" lon="5.56803">
        <ele>792.98</ele>
        <time>2018-06-17T10:16:26Z</time>
      </trkpt>
      <trkpt lat="44.56549" lon="5.56845">
        <ele>790.98</ele>
        <time>2018-06-17T10:16:28Z</time>
      </trkpt>
      <trkpt lat="44.56541" lon="5.5689">
        <ele>788.98</ele>
        <time>2018-06-17T10:16:30Z</time>
      </trkpt>
      <trkpt lat="44.56535" lon="5.56933">
        <ele>787.89</ele>
        <time>2018-06-17T10:16:32Z</time>
      </trkpt>
      <trkpt lat="44.56525" lon="5.56968">
        <ele>786.88</ele>
        <time>2018-06-17T10:16:34Z</time>
      </trkpt>
      <trkpt lat="44.56516" lon="5.56994">
        <ele>785.67</ele>
        <time>2018-06-17T10:16:36Z</time>
      </trkpt>
      <trkpt lat="44.56539" lon="5.57003">
        <ele>784.85</ele>
        <time>2018-06-17T10:16:39Z</time>
      </trkpt>
      <trkpt lat="44.56549" lon="5.5698">
        <ele>783.67</ele>
        <time>2018-06-17T10:16:41Z</time>
      </trkpt>
      <trkpt lat="44.56555" lon="5.56945">
        <ele>781.95</ele>
        <time>2018-06-17T10:16:43Z</time>
      </trkpt>
      <trkpt lat="44.56565" lon="5.56905">
        <ele>779.97</ele>
        <time>2018-06-17T10:16:45Z</time>
      </trkpt>
      <trkpt lat="44.56579" lon="5.56863">
        <ele>777.98</ele>
        <time>2018-06-17T10:16:47Z</time>
      </trkpt>
      <trkpt lat="44.56593" lon="5.56841">
        <ele>776.28</ele>
        <time>2018-06-17T10:16:48Z</time>
      </trkpt>
      <trkpt lat="44.56602" lon="5.56817">
        <ele>775.77</ele>
        <time>2018-06-17T10:16:49Z</time>
      </trkpt>
      <trkpt lat="44.56612" lon="5.56792">
        <ele>775.61</ele>
        <time>2018-06-17T10:16:50Z</time>
      </trkpt>
      <trkpt lat="44.56622" lon="5.56768">
        <ele>774.17</ele>
        <time>2018-06-17T10:16:51Z</time>
      </trkpt>
      <trkpt lat="44.56633" lon="5.56744">
        <ele>772.33</ele>
        <time>2018-06-17T10:16:52Z</time>
      </trkpt>
      <trkpt lat="44.56642" lon="5.56719">
        <ele>771.78</ele>
        <time>2018-06-17T10:16:53Z</time>
      </trkpt>
      <trkpt lat="44.5665" lon="5.56693">
        <ele>770.22</ele>
        <time>2018-06-17T10:16:54Z</time>
      </trkpt>
      <trkpt lat="44.56658" lon="5.56668">
        <ele>769.05</ele>
        <time>2018-06-17T10:16:55Z</time>
      </trkpt>
      <trkpt lat="44.56665" lon="5.56643">
        <ele>768.7</ele>
        <time>2018-06-17T10:16:56Z</time>
      </trkpt>
      <trkpt lat="44.56674" lon="5.56619">
        <ele>767.89</ele>
        <time>2018-06-17T10:16:57Z</time>
      </trkpt>
      <trkpt lat="44.56683" lon="5.56595">
        <ele>766.95</ele>
        <time>2018-06-17T10:16:58Z</time>
      </trkpt>
      <trkpt lat="44.56693" lon="5.56571">
        <ele>765.97</ele>
        <time>2018-06-17T10:16:59Z</time>
      </trkpt>
      <trkpt lat="44.56703" lon="5.56547">
        <ele>764.27</ele>
        <time>2018-06-17T10:17:00Z</time>
      </trkpt>
      <trkpt lat="44.56712" lon="5.56522">
        <ele>763.07</ele>
        <time>2018-06-17T10:17:01Z</time>
      </trkpt>
      <trkpt lat="44.56721" lon="5.565">
        <ele>762</ele>
        <time>2018-06-17T10:17:02Z</time>
      </trkpt>
      <trkpt lat="44.56734" lon="5.5648">
        <ele>760.98</ele>
        <time>2018-06-17T10:17:03Z</time>
      </trkpt>
      <trkpt lat="44.56749" lon="5.56465">
        <ele>759.98</ele>
        <time>2018-06-17T10:17:04Z</time>
      </trkpt>
      <trkpt lat="44.56779" lon="5.56442">
        <ele>757.28</ele>
        <time>2018-06-17T10:17:06Z</time>
      </trkpt>
      <trkpt lat="44.56796" lon="5.56429">
        <ele>756.07</ele>
        <time>2018-06-17T10:17:07Z</time>
      </trkpt>
      <trkpt lat="44.56812" lon="5.56415">
        <ele>754.3</ele>
        <time>2018-06-17T10:17:08Z</time>
      </trkpt>
      <trkpt lat="44.56828" lon="5.56401">
        <ele>753.07</ele>
        <time>2018-06-17T10:17:09Z</time>
      </trkpt>
      <trkpt lat="44.56844" lon="5.56387">
        <ele>752.01</ele>
        <time>2018-06-17T10:17:10Z</time>
      </trkpt>
      <trkpt lat="44.56874" lon="5.56358">
        <ele>749.98</ele>
        <time>2018-06-17T10:17:12Z</time>
      </trkpt>
      <trkpt lat="44.56889" lon="5.56343">
        <ele>749.68</ele>
        <time>2018-06-17T10:17:13Z</time>
      </trkpt>
      <trkpt lat="44.56903" lon="5.56326">
        <ele>749.59</ele>
        <time>2018-06-17T10:17:14Z</time>
      </trkpt>
      <trkpt lat="44.56925" lon="5.56292">
        <ele>747.24</ele>
        <time>2018-06-17T10:17:16Z</time>
      </trkpt>
      <trkpt lat="44.56948" lon="5.56271">
        <ele>745.7</ele>
        <time>2018-06-17T10:17:18Z</time>
      </trkpt>
      <trkpt lat="44.56968" lon="5.56266">
        <ele>744.86</ele>
        <time>2018-06-17T10:17:20Z</time>
      </trkpt>
      <trkpt lat="44.56985" lon="5.56258">
        <ele>742.97</ele>
        <time>2018-06-17T10:17:22Z</time>
      </trkpt>
      <trkpt lat="44.56996" lon="5.56229">
        <ele>740.07</ele>
        <time>2018-06-17T10:17:24Z</time>
      </trkpt>
      <trkpt lat="44.57002" lon="5.56197">
        <ele>738.89</ele>
        <time>2018-06-17T10:17:26Z</time>
      </trkpt>
      <trkpt lat="44.57008" lon="5.56167">
        <ele>738.79</ele>
        <time>2018-06-17T10:17:28Z</time>
      </trkpt>
      <trkpt lat="44.57015" lon="5.56137">
        <ele>737.87</ele>
        <time>2018-06-17T10:17:30Z</time>
      </trkpt>
      <trkpt lat="44.57022" lon="5.56106">
        <ele>737.58</ele>
        <time>2018-06-17T10:17:32Z</time>
      </trkpt>
      <trkpt lat="44.57028" lon="5.56076">
        <ele>735.94</ele>
        <time>2018-06-17T10:17:34Z</time>
      </trkpt>
      <trkpt lat="44.57034" lon="5.56044">
        <ele>733.04</ele>
        <time>2018-06-17T10:17:37Z</time>
      </trkpt>
      <trkpt lat="44.57037" lon="5.56015">
        <ele>733.31</ele>
        <time>2018-06-17T10:17:42Z</time>
      </trkpt>
      <trkpt lat="44.57034" lon="5.55987">
        <ele>733.55</ele>
        <time>2018-06-17T10:17:46Z</time>
      </trkpt>
      <trkpt lat="44.57034" lon="5.55956">
        <ele>733.55</ele>
        <time>2018-06-17T10:17:49Z</time>
      </trkpt>
      <trkpt lat="44.57033" lon="5.55921">
        <ele>733.55</ele>
        <time>2018-06-17T10:17:52Z</time>
      </trkpt>
      <trkpt lat="44.57032" lon="5.55895">
        <ele>732.64</ele>
        <time>2018-06-17T10:17:54Z</time>
      </trkpt>
      <trkpt lat="44.57031" lon="5.55868">
        <ele>732.56</ele>
        <time>2018-06-17T10:17:56Z</time>
      </trkpt>
      <trkpt lat="44.5703" lon="5.55841">
        <ele>732.76</ele>
        <time>2018-06-17T10:17:58Z</time>
      </trkpt>
      <trkpt lat="44.5703" lon="5.55806">
        <ele>732.76</ele>
        <time>2018-06-17T10:18:01Z</time>
      </trkpt>
      <trkpt lat="44.5703" lon="5.55774">
        <ele>733.46</ele>
        <time>2018-06-17T10:18:04Z</time>
      </trkpt>
      <trkpt lat="44.57028" lon="5.55744">
        <ele>733.62</ele>
        <time>2018-06-17T10:18:31Z</time>
      </trkpt>
      <trkpt lat="44.5702" lon="5.55717">
        <ele>732.58</ele>
        <time>2018-06-17T10:18:34Z</time>
      </trkpt>
      <trkpt lat="44.57004" lon="5.55689">
        <ele>730.81</ele>
        <time>2018-06-17T10:18:37Z</time>
      </trkpt>
      <trkpt lat="44.56991" lon="5.55669">
        <ele>730.57</ele>
        <time>2018-06-17T10:18:39Z</time>
      </trkpt>
      <trkpt lat="44.56977" lon="5.55641">
        <ele>729.64</ele>
        <time>2018-06-17T10:18:41Z</time>
      </trkpt>
      <trkpt lat="44.56965" lon="5.55605">
        <ele>729.56</ele>
        <time>2018-06-17T10:18:43Z</time>
      </trkpt>
      <trkpt lat="44.5695" lon="5.55561">
        <ele>729.55</ele>
        <time>2018-06-17T10:18:45Z</time>
      </trkpt>
      <trkpt lat="44.56941" lon="5.55537">
        <ele>729.55</ele>
        <time>2018-06-17T10:18:46Z</time>
      </trkpt>
      <trkpt lat="44.56932" lon="5.55511">
        <ele>729.55</ele>
        <time>2018-06-17T10:18:47Z</time>
      </trkpt>
      <trkpt lat="44.56923" lon="5.55484">
        <ele>728.85</ele>
        <time>2018-06-17T10:18:48Z</time>
      </trkpt>
      <trkpt lat="44.56914" lon="5.55457">
        <ele>728.64</ele>
        <time>2018-06-17T10:18:49Z</time>
      </trkpt>
      <trkpt lat="44.56905" lon="5.55429">
        <ele>728.58</ele>
        <time>2018-06-17T10:18:50Z</time>
      </trkpt>
      <trkpt lat="44.56896" lon="5.55401">
        <ele>727.86</ele>
        <time>2018-06-17T10:18:51Z</time>
      </trkpt>
      <trkpt lat="44.56886" lon="5.55371">
        <ele>727.64</ele>
        <time>2018-06-17T10:18:52Z</time>
      </trkpt>
      <trkpt lat="44.56877" lon="5.55341">
        <ele>726.88</ele>
        <time>2018-06-17T10:18:53Z</time>
      </trkpt>
      <trkpt lat="44.56867" lon="5.55312">
        <ele>726.65</ele>
        <time>2018-06-17T10:18:54Z</time>
      </trkpt>
      <trkpt lat="44.56857" lon="5.55282">
        <ele>726.58</ele>
        <time>2018-06-17T10:18:55Z</time>
      </trkpt>
      <trkpt lat="44.56847" lon="5.55251">
        <ele>725.16</ele>
        <time>2018-06-17T10:18:56Z</time>
      </trkpt>
      <trkpt lat="44.56837" lon="5.55219">
        <ele>724.03</ele>
        <time>2018-06-17T10:18:57Z</time>
      </trkpt>
      <trkpt lat="44.56827" lon="5.55188">
        <ele>723.69</ele>
        <time>2018-06-17T10:18:58Z</time>
      </trkpt>
      <trkpt lat="44.56817" lon="5.55157">
        <ele>722.89</ele>
        <time>2018-06-17T10:18:59Z</time>
      </trkpt>
      <trkpt lat="44.56806" lon="5.55125">
        <ele>722.65</ele>
        <time>2018-06-17T10:19:00Z</time>
      </trkpt>
      <trkpt lat="44.56796" lon="5.55093">
        <ele>721.88</ele>
        <time>2018-06-17T10:19:01Z</time>
      </trkpt>
      <trkpt lat="44.56786" lon="5.55061">
        <ele>720.95</ele>
        <time>2018-06-17T10:19:02Z</time>
      </trkpt>
      <trkpt lat="44.56775" lon="5.55028">
        <ele>720.67</ele>
        <time>2018-06-17T10:19:03Z</time>
      </trkpt>
      <trkpt lat="44.56765" lon="5.54995">
        <ele>719.88</ele>
        <time>2018-06-17T10:19:04Z</time>
      </trkpt>
      <trkpt lat="44.56754" lon="5.54962">
        <ele>719.65</ele>
        <time>2018-06-17T10:19:05Z</time>
      </trkpt>
      <trkpt lat="44.56744" lon="5.5493">
        <ele>718.88</ele>
        <time>2018-06-17T10:19:06Z</time>
      </trkpt>
      <trkpt lat="44.56733" lon="5.54899">
        <ele>718.65</ele>
        <time>2018-06-17T10:19:07Z</time>
      </trkpt>
      <trkpt lat="44.56723" lon="5.54869">
        <ele>717.88</ele>
        <time>2018-06-17T10:19:08Z</time>
      </trkpt>
      <trkpt lat="44.56712" lon="5.54839">
        <ele>716.95</ele>
        <time>2018-06-17T10:19:09Z</time>
      </trkpt>
      <trkpt lat="44.56702" lon="5.54808">
        <ele>716.67</ele>
        <time>2018-06-17T10:19:10Z</time>
      </trkpt>
      <trkpt lat="44.56691" lon="5.54777">
        <ele>715.88</ele>
        <time>2018-06-17T10:19:11Z</time>
      </trkpt>
      <trkpt lat="44.56677" lon="5.54747">
        <ele>715.65</ele>
        <time>2018-06-17T10:19:12Z</time>
      </trkpt>
      <trkpt lat="44.5666" lon="5.54718">
        <ele>715.58</ele>
        <time>2018-06-17T10:19:13Z</time>
      </trkpt>
      <trkpt lat="44.56641" lon="5.54692">
        <ele>714.86</ele>
        <time>2018-06-17T10:19:14Z</time>
      </trkpt>
      <trkpt lat="44.56621" lon="5.54667">
        <ele>714.64</ele>
        <time>2018-06-17T10:19:15Z</time>
      </trkpt>
      <trkpt lat="44.56603" lon="5.5464">
        <ele>713.88</ele>
        <time>2018-06-17T10:19:16Z</time>
      </trkpt>
      <trkpt lat="44.56585" lon="5.54615">
        <ele>712.95</ele>
        <time>2018-06-17T10:19:17Z</time>
      </trkpt>
      <trkpt lat="44.56565" lon="5.54589">
        <ele>711.97</ele>
        <time>2018-06-17T10:19:18Z</time>
      </trkpt>
      <trkpt lat="44.56546" lon="5.54563">
        <ele>710.97</ele>
        <time>2018-06-17T10:19:19Z</time>
      </trkpt>
      <trkpt lat="44.56526" lon="5.54537">
        <ele>710.68</ele>
        <time>2018-06-17T10:19:20Z</time>
      </trkpt>
      <trkpt lat="44.56507" lon="5.54511">
        <ele>709.89</ele>
        <time>2018-06-17T10:19:21Z</time>
      </trkpt>
      <trkpt lat="44.56489" lon="5.54485">
        <ele>708.95</ele>
        <time>2018-06-17T10:19:22Z</time>
      </trkpt>
      <trkpt lat="44.5647" lon="5.54458">
        <ele>707.97</ele>
        <time>2018-06-17T10:19:23Z</time>
      </trkpt>
      <trkpt lat="44.5645" lon="5.54433">
        <ele>706.97</ele>
        <time>2018-06-17T10:19:24Z</time>
      </trkpt>
      <trkpt lat="44.56432" lon="5.54408">
        <ele>706.68</ele>
        <time>2018-06-17T10:19:25Z</time>
      </trkpt>
      <trkpt lat="44.56414" lon="5.54384">
        <ele>706.59</ele>
        <time>2018-06-17T10:19:26Z</time>
      </trkpt>
      <trkpt lat="44.56397" lon="5.54361">
        <ele>705.86</ele>
        <time>2018-06-17T10:19:27Z</time>
      </trkpt>
      <trkpt lat="44.5638" lon="5.54339">
        <ele>705.64</ele>
        <time>2018-06-17T10:19:28Z</time>
      </trkpt>
      <trkpt lat="44.56364" lon="5.54317">
        <ele>704.88</ele>
        <time>2018-06-17T10:19:29Z</time>
      </trkpt>
      <trkpt lat="44.56349" lon="5.54297">
        <ele>704.65</ele>
        <time>2018-06-17T10:19:30Z</time>
      </trkpt>
      <trkpt lat="44.56332" lon="5.5428">
        <ele>704.58</ele>
        <time>2018-06-17T10:19:31Z</time>
      </trkpt>
      <trkpt lat="44.56315" lon="5.54265">
        <ele>703.86</ele>
        <time>2018-06-17T10:19:32Z</time>
      </trkpt>
      <trkpt lat="44.5629" lon="5.54259">
        <ele>702.94</ele>
        <time>2018-06-17T10:19:33Z</time>
      </trkpt>
      <trkpt lat="44.56269" lon="5.54252">
        <ele>701.97</ele>
        <time>2018-06-17T10:19:34Z</time>
      </trkpt>
      <trkpt lat="44.56245" lon="5.54248">
        <ele>700.97</ele>
        <time>2018-06-17T10:19:35Z</time>
      </trkpt>
      <trkpt lat="44.56222" lon="5.54246">
        <ele>699.28</ele>
        <time>2018-06-17T10:19:36Z</time>
      </trkpt>
      <trkpt lat="44.562" lon="5.54246">
        <ele>698.77</ele>
        <time>2018-06-17T10:19:37Z</time>
      </trkpt>
      <trkpt lat="44.56179" lon="5.54247">
        <ele>697.91</ele>
        <time>2018-06-17T10:19:38Z</time>
      </trkpt>
      <trkpt lat="44.5616" lon="5.54244">
        <ele>696.96</ele>
        <time>2018-06-17T10:19:39Z</time>
      </trkpt>
      <trkpt lat="44.56142" lon="5.54237">
        <ele>696.67</ele>
        <time>2018-06-17T10:19:40Z</time>
      </trkpt>
      <trkpt lat="44.56124" lon="5.54226">
        <ele>695.88</ele>
        <time>2018-06-17T10:19:41Z</time>
      </trkpt>
      <trkpt lat="44.56104" lon="5.54214">
        <ele>694.95</ele>
        <time>2018-06-17T10:19:42Z</time>
      </trkpt>
      <trkpt lat="44.56083" lon="5.54202">
        <ele>694.67</ele>
        <time>2018-06-17T10:19:43Z</time>
      </trkpt>
      <trkpt lat="44.56063" lon="5.54188">
        <ele>693.18</ele>
        <time>2018-06-17T10:19:44Z</time>
      </trkpt>
      <trkpt lat="44.56043" lon="5.54176">
        <ele>692.74</ele>
        <time>2018-06-17T10:19:45Z</time>
      </trkpt>
      <trkpt lat="44.56023" lon="5.54163">
        <ele>691.91</ele>
        <time>2018-06-17T10:19:46Z</time>
      </trkpt>
      <trkpt lat="44.56003" lon="5.54151">
        <ele>690.96</ele>
        <time>2018-06-17T10:19:47Z</time>
      </trkpt>
      <trkpt lat="44.55983" lon="5.5414">
        <ele>690.67</ele>
        <time>2018-06-17T10:19:48Z</time>
      </trkpt>
      <trkpt lat="44.55965" lon="5.54129">
        <ele>689.88</ele>
        <time>2018-06-17T10:19:49Z</time>
      </trkpt>
      <trkpt lat="44.55948" lon="5.54118">
        <ele>688.95</ele>
        <time>2018-06-17T10:19:50Z</time>
      </trkpt>
      <trkpt lat="44.55931" lon="5.54108">
        <ele>688.67</ele>
        <time>2018-06-17T10:19:51Z</time>
      </trkpt>
      <trkpt lat="44.55913" lon="5.541">
        <ele>687.88</ele>
        <time>2018-06-17T10:19:52Z</time>
      </trkpt>
      <trkpt lat="44.55894" lon="5.54097">
        <ele>687.65</ele>
        <time>2018-06-17T10:19:53Z</time>
      </trkpt>
      <trkpt lat="44.55873" lon="5.54099">
        <ele>687.58</ele>
        <time>2018-06-17T10:19:54Z</time>
      </trkpt>
      <trkpt lat="44.55851" lon="5.54107">
        <ele>686.86</ele>
        <time>2018-06-17T10:19:55Z</time>
      </trkpt>
      <trkpt lat="44.5583" lon="5.54121">
        <ele>686.64</ele>
        <time>2018-06-17T10:19:56Z</time>
      </trkpt>
      <trkpt lat="44.55808" lon="5.54136">
        <ele>685.88</ele>
        <time>2018-06-17T10:19:57Z</time>
      </trkpt>
      <trkpt lat="44.55787" lon="5.54151">
        <ele>686.35</ele>
        <time>2018-06-17T10:19:58Z</time>
      </trkpt>
      <trkpt lat="44.55766" lon="5.54165">
        <ele>685.79</ele>
        <time>2018-06-17T10:19:59Z</time>
      </trkpt>
      <trkpt lat="44.55746" lon="5.54178">
        <ele>686.32</ele>
        <time>2018-06-17T10:20:00Z</time>
      </trkpt>
      <trkpt lat="44.55727" lon="5.54189">
        <ele>685.78</ele>
        <time>2018-06-17T10:20:01Z</time>
      </trkpt>
      <trkpt lat="44.55709" lon="5.54199">
        <ele>685.62</ele>
        <time>2018-06-17T10:20:02Z</time>
      </trkpt>
      <trkpt lat="44.55691" lon="5.54204">
        <ele>684.87</ele>
        <time>2018-06-17T10:20:03Z</time>
      </trkpt>
      <trkpt lat="44.55673" lon="5.54209">
        <ele>685.34</ele>
        <time>2018-06-17T10:20:04Z</time>
      </trkpt>
      <trkpt lat="44.55652" lon="5.54211">
        <ele>684.79</ele>
        <time>2018-06-17T10:20:05Z</time>
      </trkpt>
      <trkpt lat="44.5563" lon="5.54204">
        <ele>684.62</ele>
        <time>2018-06-17T10:20:06Z</time>
      </trkpt>
      <trkpt lat="44.55614" lon="5.54181">
        <ele>684.57</ele>
        <time>2018-06-17T10:20:07Z</time>
      </trkpt>
      <trkpt lat="44.55596" lon="5.54152">
        <ele>683.15</ele>
        <time>2018-06-17T10:20:08Z</time>
      </trkpt>
      <trkpt lat="44.55576" lon="5.54134">
        <ele>681.33</ele>
        <time>2018-06-17T10:20:09Z</time>
      </trkpt>
      <trkpt lat="44.55555" lon="5.54116">
        <ele>681.48</ele>
        <time>2018-06-17T10:20:10Z</time>
      </trkpt>
      <trkpt lat="44.55535" lon="5.54097">
        <ele>681.53</ele>
        <time>2018-06-17T10:20:11Z</time>
      </trkpt>
      <trkpt lat="44.55515" lon="5.54078">
        <ele>680.84</ele>
        <time>2018-06-17T10:20:12Z</time>
      </trkpt>
      <trkpt lat="44.55495" lon="5.5406">
        <ele>679.94</ele>
        <time>2018-06-17T10:20:13Z</time>
      </trkpt>
      <trkpt lat="44.55474" lon="5.54041">
        <ele>679.66</ele>
        <time>2018-06-17T10:20:14Z</time>
      </trkpt>
      <trkpt lat="44.55453" lon="5.54022">
        <ele>679.58</ele>
        <time>2018-06-17T10:20:15Z</time>
      </trkpt>
      <trkpt lat="44.55432" lon="5.54003">
        <ele>679.56</ele>
        <time>2018-06-17T10:20:16Z</time>
      </trkpt>
      <trkpt lat="44.55411" lon="5.53984">
        <ele>678.85</ele>
        <time>2018-06-17T10:20:17Z</time>
      </trkpt>
      <trkpt lat="44.55391" lon="5.53965">
        <ele>678.64</ele>
        <time>2018-06-17T10:20:18Z</time>
      </trkpt>
      <trkpt lat="44.55368" lon="5.53947">
        <ele>678.58</ele>
        <time>2018-06-17T10:20:19Z</time>
      </trkpt>
      <trkpt lat="44.55348" lon="5.53929">
        <ele>678.56</ele>
        <time>2018-06-17T10:20:20Z</time>
      </trkpt>
      <trkpt lat="44.55325" lon="5.53913">
        <ele>677.85</ele>
        <time>2018-06-17T10:20:21Z</time>
      </trkpt>
      <trkpt lat="44.55303" lon="5.53899">
        <ele>677.64</ele>
        <time>2018-06-17T10:20:22Z</time>
      </trkpt>
      <trkpt lat="44.5528" lon="5.53886">
        <ele>676.88</ele>
        <time>2018-06-17T10:20:23Z</time>
      </trkpt>
      <trkpt lat="44.55257" lon="5.53874">
        <ele>676.65</ele>
        <time>2018-06-17T10:20:24Z</time>
      </trkpt>
      <trkpt lat="44.55233" lon="5.53862">
        <ele>675.88</ele>
        <time>2018-06-17T10:20:25Z</time>
      </trkpt>
      <trkpt lat="44.5521" lon="5.5385">
        <ele>675.65</ele>
        <time>2018-06-17T10:20:26Z</time>
      </trkpt>
      <trkpt lat="44.55186" lon="5.5384">
        <ele>674.88</ele>
        <time>2018-06-17T10:20:27Z</time>
      </trkpt>
      <trkpt lat="44.55164" lon="5.53829">
        <ele>673.95</ele>
        <time>2018-06-17T10:20:28Z</time>
      </trkpt>
      <trkpt lat="44.55141" lon="5.53817">
        <ele>673.67</ele>
        <time>2018-06-17T10:20:29Z</time>
      </trkpt>
      <trkpt lat="44.55119" lon="5.53806">
        <ele>672.88</ele>
        <time>2018-06-17T10:20:30Z</time>
      </trkpt>
      <trkpt lat="44.55097" lon="5.53795">
        <ele>671.95</ele>
        <time>2018-06-17T10:20:31Z</time>
      </trkpt>
      <trkpt lat="44.55075" lon="5.53785">
        <ele>671.67</ele>
        <time>2018-06-17T10:20:32Z</time>
      </trkpt>
      <trkpt lat="44.55055" lon="5.53775">
        <ele>671.58</ele>
        <time>2018-06-17T10:20:33Z</time>
      </trkpt>
      <trkpt lat="44.55035" lon="5.53765">
        <ele>670.86</ele>
        <time>2018-06-17T10:20:34Z</time>
      </trkpt>
      <trkpt lat="44.55016" lon="5.53756">
        <ele>670.64</ele>
        <time>2018-06-17T10:20:35Z</time>
      </trkpt>
      <trkpt lat="44.54999" lon="5.53746">
        <ele>669.88</ele>
        <time>2018-06-17T10:20:36Z</time>
      </trkpt>
      <trkpt lat="44.54971" lon="5.53723">
        <ele>669.58</ele>
        <time>2018-06-17T10:20:38Z</time>
      </trkpt>
      <trkpt lat="44.54956" lon="5.53696">
        <ele>668.64</ele>
        <time>2018-06-17T10:20:40Z</time>
      </trkpt>
      <trkpt lat="44.54952" lon="5.53666">
        <ele>670.16</ele>
        <time>2018-06-17T10:20:43Z</time>
      </trkpt>
      <trkpt lat="44.54934" lon="5.53658">
        <ele>669.57</ele>
        <time>2018-06-17T10:20:47Z</time>
      </trkpt>
      <trkpt lat="44.54922" lon="5.53688">
        <ele>669.49</ele>
        <time>2018-06-17T10:20:50Z</time>
      </trkpt>
      <trkpt lat="44.54919" lon="5.53718">
        <ele>669.54</ele>
        <time>2018-06-17T10:20:52Z</time>
      </trkpt>
      <trkpt lat="44.54912" lon="5.53748">
        <ele>671.16</ele>
        <time>2018-06-17T10:20:54Z</time>
      </trkpt>
      <trkpt lat="44.54902" lon="5.53782">
        <ele>672.21</ele>
        <time>2018-06-17T10:20:56Z</time>
      </trkpt>
      <trkpt lat="44.54891" lon="5.53821">
        <ele>672.52</ele>
        <time>2018-06-17T10:20:58Z</time>
      </trkpt>
      <trkpt lat="44.54878" lon="5.53863">
        <ele>672.55</ele>
        <time>2018-06-17T10:21:00Z</time>
      </trkpt>
      <trkpt lat="44.54871" lon="5.53887">
        <ele>672.55</ele>
        <time>2018-06-17T10:21:01Z</time>
      </trkpt>
      <trkpt lat="44.54864" lon="5.53911">
        <ele>672.55</ele>
        <time>2018-06-17T10:21:02Z</time>
      </trkpt>
      <trkpt lat="44.54852" lon="5.53935">
        <ele>673.25</ele>
        <time>2018-06-17T10:21:03Z</time>
      </trkpt>
      <trkpt lat="44.54841" lon="5.53959">
        <ele>674.16</ele>
        <time>2018-06-17T10:21:04Z</time>
      </trkpt>
      <trkpt lat="44.54825" lon="5.53984">
        <ele>674.43</ele>
        <time>2018-06-17T10:21:05Z</time>
      </trkpt>
      <trkpt lat="44.54811" lon="5.54009">
        <ele>675.21</ele>
        <time>2018-06-17T10:21:06Z</time>
      </trkpt>
      <trkpt lat="44.54797" lon="5.54035">
        <ele>675.45</ele>
        <time>2018-06-17T10:21:07Z</time>
      </trkpt>
      <trkpt lat="44.54782" lon="5.54059">
        <ele>675.52</ele>
        <time>2018-06-17T10:21:08Z</time>
      </trkpt>
      <trkpt lat="44.54766" lon="5.54083">
        <ele>675.54</ele>
        <time>2018-06-17T10:21:09Z</time>
      </trkpt>
      <trkpt lat="44.5475" lon="5.54107">
        <ele>675.55</ele>
        <time>2018-06-17T10:21:10Z</time>
      </trkpt>
      <trkpt lat="44.54733" lon="5.54133">
        <ele>675.55</ele>
        <time>2018-06-17T10:21:11Z</time>
      </trkpt>
      <trkpt lat="44.54718" lon="5.54157">
        <ele>675.55</ele>
        <time>2018-06-17T10:21:12Z</time>
      </trkpt>
      <trkpt lat="44.54703" lon="5.54181">
        <ele>676.95</ele>
        <time>2018-06-17T10:21:13Z</time>
      </trkpt>
      <trkpt lat="44.54687" lon="5.54204">
        <ele>677.37</ele>
        <time>2018-06-17T10:21:14Z</time>
      </trkpt>
      <trkpt lat="44.54673" lon="5.54226">
        <ele>678.19</ele>
        <time>2018-06-17T10:21:15Z</time>
      </trkpt>
      <trkpt lat="44.54657" lon="5.54246">
        <ele>678.44</ele>
        <time>2018-06-17T10:21:16Z</time>
      </trkpt>
      <trkpt lat="44.54641" lon="5.54263">
        <ele>677.82</ele>
        <time>2018-06-17T10:21:17Z</time>
      </trkpt>
      <trkpt lat="44.54612" lon="5.54289">
        <ele>679.39</ele>
        <time>2018-06-17T10:21:19Z</time>
      </trkpt>
      <trkpt lat="44.54578" lon="5.54302">
        <ele>679.74</ele>
        <time>2018-06-17T10:21:21Z</time>
      </trkpt>
      <trkpt lat="44.54561" lon="5.54308">
        <ele>680.31</ele>
        <time>2018-06-17T10:21:22Z</time>
      </trkpt>
      <trkpt lat="44.54533" lon="5.54308">
        <ele>681.18</ele>
        <time>2018-06-17T10:21:23Z</time>
      </trkpt>
      <trkpt lat="44.54511" lon="5.5431">
        <ele>680.74</ele>
        <time>2018-06-17T10:21:24Z</time>
      </trkpt>
      <trkpt lat="44.5449" lon="5.54312">
        <ele>680.6</ele>
        <time>2018-06-17T10:21:25Z</time>
      </trkpt>
      <trkpt lat="44.5447" lon="5.54314">
        <ele>681.26</ele>
        <time>2018-06-17T10:21:26Z</time>
      </trkpt>
      <trkpt lat="44.5445" lon="5.54317">
        <ele>680.76</ele>
        <time>2018-06-17T10:21:27Z</time>
      </trkpt>
      <trkpt lat="44.54432" lon="5.54322">
        <ele>681.31</ele>
        <time>2018-06-17T10:21:28Z</time>
      </trkpt>
      <trkpt lat="44.54412" lon="5.54332">
        <ele>681.48</ele>
        <time>2018-06-17T10:21:29Z</time>
      </trkpt>
      <trkpt lat="44.5439" lon="5.54349">
        <ele>681.53</ele>
        <time>2018-06-17T10:21:30Z</time>
      </trkpt>
      <trkpt lat="44.54372" lon="5.54369">
        <ele>681.54</ele>
        <time>2018-06-17T10:21:31Z</time>
      </trkpt>
      <trkpt lat="44.54351" lon="5.54383">
        <ele>682.25</ele>
        <time>2018-06-17T10:21:32Z</time>
      </trkpt>
      <trkpt lat="44.54331" lon="5.54392">
        <ele>683.16</ele>
        <time>2018-06-17T10:21:33Z</time>
      </trkpt>
      <trkpt lat="44.54311" lon="5.54402">
        <ele>684.13</ele>
        <time>2018-06-17T10:21:34Z</time>
      </trkpt>
      <trkpt lat="44.54291" lon="5.54413">
        <ele>682.32</ele>
        <time>2018-06-17T10:21:35Z</time>
      </trkpt>
      <trkpt lat="44.54274" lon="5.54428">
        <ele>683.18</ele>
        <time>2018-06-17T10:21:36Z</time>
      </trkpt>
      <trkpt lat="44.54256" lon="5.54444">
        <ele>683.44</ele>
        <time>2018-06-17T10:21:37Z</time>
      </trkpt>
      <trkpt lat="44.54236" lon="5.54458">
        <ele>684.21</ele>
        <time>2018-06-17T10:21:38Z</time>
      </trkpt>
      <trkpt lat="44.54215" lon="5.54472">
        <ele>684.45</ele>
        <time>2018-06-17T10:21:39Z</time>
      </trkpt>
      <trkpt lat="44.54193" lon="5.54486">
        <ele>684.52</ele>
        <time>2018-06-17T10:21:40Z</time>
      </trkpt>
      <trkpt lat="44.54171" lon="5.54501">
        <ele>684.54</ele>
        <time>2018-06-17T10:21:41Z</time>
      </trkpt>
      <trkpt lat="44.54148" lon="5.54515">
        <ele>685.25</ele>
        <time>2018-06-17T10:21:42Z</time>
      </trkpt>
      <trkpt lat="44.54125" lon="5.5453">
        <ele>684.76</ele>
        <time>2018-06-17T10:21:43Z</time>
      </trkpt>
      <trkpt lat="44.54104" lon="5.54544">
        <ele>684.61</ele>
        <time>2018-06-17T10:21:44Z</time>
      </trkpt>
      <trkpt lat="44.54083" lon="5.54557">
        <ele>684.57</ele>
        <time>2018-06-17T10:21:45Z</time>
      </trkpt>
      <trkpt lat="44.54063" lon="5.54568">
        <ele>683.85</ele>
        <time>2018-06-17T10:21:46Z</time>
      </trkpt>
      <trkpt lat="44.54047" lon="5.54583">
        <ele>682.94</ele>
        <time>2018-06-17T10:21:47Z</time>
      </trkpt>
      <trkpt lat="44.5403" lon="5.54599">
        <ele>682.67</ele>
        <time>2018-06-17T10:21:48Z</time>
      </trkpt>
      <trkpt lat="44.54018" lon="5.54619">
        <ele>683.28</ele>
        <time>2018-06-17T10:21:49Z</time>
      </trkpt>
      <trkpt lat="44.54007" lon="5.54649">
        <ele>682.77</ele>
        <time>2018-06-17T10:21:50Z</time>
      </trkpt>
      <trkpt lat="44.54002" lon="5.54683">
        <ele>684.01</ele>
        <time>2018-06-17T10:21:51Z</time>
      </trkpt>
      <trkpt lat="44.53991" lon="5.54711">
        <ele>685.09</ele>
        <time>2018-06-17T10:21:52Z</time>
      </trkpt>
      <trkpt lat="44.53979" lon="5.54737">
        <ele>685.41</ele>
        <time>2018-06-17T10:21:53Z</time>
      </trkpt>
      <trkpt lat="44.53966" lon="5.54765">
        <ele>686.21</ele>
        <time>2018-06-17T10:21:54Z</time>
      </trkpt>
      <trkpt lat="44.53955" lon="5.54793">
        <ele>686.45</ele>
        <time>2018-06-17T10:21:55Z</time>
      </trkpt>
      <trkpt lat="44.53943" lon="5.54822">
        <ele>687.92</ele>
        <time>2018-06-17T10:21:56Z</time>
      </trkpt>
      <trkpt lat="44.53931" lon="5.54849">
        <ele>688.36</ele>
        <time>2018-06-17T10:21:57Z</time>
      </trkpt>
      <trkpt lat="44.53916" lon="5.54878">
        <ele>689.19</ele>
        <time>2018-06-17T10:21:58Z</time>
      </trkpt>
      <trkpt lat="44.53902" lon="5.54904">
        <ele>689.44</ele>
        <time>2018-06-17T10:21:59Z</time>
      </trkpt>
      <trkpt lat="44.53888" lon="5.54927">
        <ele>690.22</ele>
        <time>2018-06-17T10:22:00Z</time>
      </trkpt>
      <trkpt lat="44.53875" lon="5.54952">
        <ele>689.75</ele>
        <time>2018-06-17T10:22:01Z</time>
      </trkpt>
      <trkpt lat="44.53864" lon="5.54976">
        <ele>691.01</ele>
        <time>2018-06-17T10:22:02Z</time>
      </trkpt>
      <trkpt lat="44.53855" lon="5.55004">
        <ele>691.39</ele>
        <time>2018-06-17T10:22:03Z</time>
      </trkpt>
      <trkpt lat="44.53845" lon="5.55028">
        <ele>692.2</ele>
        <time>2018-06-17T10:22:04Z</time>
      </trkpt>
      <trkpt lat="44.53837" lon="5.55052">
        <ele>692.44</ele>
        <time>2018-06-17T10:22:05Z</time>
      </trkpt>
      <trkpt lat="44.53829" lon="5.55079">
        <ele>694.62</ele>
        <time>2018-06-17T10:22:06Z</time>
      </trkpt>
      <trkpt lat="44.53829" lon="5.5511">
        <ele>695.97</ele>
        <time>2018-06-17T10:22:07Z</time>
      </trkpt>
      <trkpt lat="44.53833" lon="5.55143">
        <ele>697.77</ele>
        <time>2018-06-17T10:22:08Z</time>
      </trkpt>
      <trkpt lat="44.5383" lon="5.55175">
        <ele>697.62</ele>
        <time>2018-06-17T10:22:09Z</time>
      </trkpt>
      <trkpt lat="44.53827" lon="5.55204">
        <ele>698.97</ele>
        <time>2018-06-17T10:22:10Z</time>
      </trkpt>
      <trkpt lat="44.53822" lon="5.55233">
        <ele>700.77</ele>
        <time>2018-06-17T10:22:11Z</time>
      </trkpt>
      <trkpt lat="44.53815" lon="5.55261">
        <ele>702.72</ele>
        <time>2018-06-17T10:22:12Z</time>
      </trkpt>
      <trkpt lat="44.53804" lon="5.55288">
        <ele>704</ele>
        <time>2018-06-17T10:22:13Z</time>
      </trkpt>
      <trkpt lat="44.53792" lon="5.55313">
        <ele>704.38</ele>
        <time>2018-06-17T10:22:14Z</time>
      </trkpt>
      <trkpt lat="44.5378" lon="5.55337">
        <ele>703.8</ele>
        <time>2018-06-17T10:22:15Z</time>
      </trkpt>
      <trkpt lat="44.53772" lon="5.55363">
        <ele>703.62</ele>
        <time>2018-06-17T10:22:16Z</time>
      </trkpt>
      <trkpt lat="44.53763" lon="5.5539">
        <ele>703.57</ele>
        <time>2018-06-17T10:22:17Z</time>
      </trkpt>
      <trkpt lat="44.53759" lon="5.55422">
        <ele>704.95</ele>
        <time>2018-06-17T10:22:18Z</time>
      </trkpt>
      <trkpt lat="44.53752" lon="5.55452">
        <ele>706.07</ele>
        <time>2018-06-17T10:22:19Z</time>
      </trkpt>
      <trkpt lat="44.53746" lon="5.55482">
        <ele>707.8</ele>
        <time>2018-06-17T10:22:20Z</time>
      </trkpt>
      <trkpt lat="44.53741" lon="5.5551">
        <ele>709.02</ele>
        <time>2018-06-17T10:22:21Z</time>
      </trkpt>
      <trkpt lat="44.53735" lon="5.55539">
        <ele>709.39</ele>
        <time>2018-06-17T10:22:22Z</time>
      </trkpt>
      <trkpt lat="44.53743" lon="5.55569">
        <ele>710.9</ele>
        <time>2018-06-17T10:22:23Z</time>
      </trkpt>
      <trkpt lat="44.53746" lon="5.55595">
        <ele>712.05</ele>
        <time>2018-06-17T10:22:24Z</time>
      </trkpt>
      <trkpt lat="44.53746" lon="5.55643">
        <ele>713.2</ele>
        <time>2018-06-17T10:22:26Z</time>
      </trkpt>
      <trkpt lat="44.53736" lon="5.5569">
        <ele>715.34</ele>
        <time>2018-06-17T10:22:28Z</time>
      </trkpt>
      <trkpt lat="44.53723" lon="5.55711">
        <ele>715.48</ele>
        <time>2018-06-17T10:22:29Z</time>
      </trkpt>
      <trkpt lat="44.53704" lon="5.55728">
        <ele>716.23</ele>
        <time>2018-06-17T10:22:30Z</time>
      </trkpt>
      <trkpt lat="44.53691" lon="5.55749">
        <ele>716.45</ele>
        <time>2018-06-17T10:22:31Z</time>
      </trkpt>
      <trkpt lat="44.53682" lon="5.55775">
        <ele>717.22</ele>
        <time>2018-06-17T10:22:32Z</time>
      </trkpt>
      <trkpt lat="44.53668" lon="5.55799">
        <ele>717.45</ele>
        <time>2018-06-17T10:22:33Z</time>
      </trkpt>
      <trkpt lat="44.5365" lon="5.55819">
        <ele>718.22</ele>
        <time>2018-06-17T10:22:34Z</time>
      </trkpt>
      <trkpt lat="44.53632" lon="5.55839">
        <ele>718.45</ele>
        <time>2018-06-17T10:22:35Z</time>
      </trkpt>
      <trkpt lat="44.53614" lon="5.5586">
        <ele>718.52</ele>
        <time>2018-06-17T10:22:36Z</time>
      </trkpt>
      <trkpt lat="44.53596" lon="5.55882">
        <ele>718.54</ele>
        <time>2018-06-17T10:22:37Z</time>
      </trkpt>
      <trkpt lat="44.53578" lon="5.55901">
        <ele>719.25</ele>
        <time>2018-06-17T10:22:38Z</time>
      </trkpt>
      <trkpt lat="44.53559" lon="5.55917">
        <ele>719.46</ele>
        <time>2018-06-17T10:22:39Z</time>
      </trkpt>
      <trkpt lat="44.53541" lon="5.55933">
        <ele>720.92</ele>
        <time>2018-06-17T10:22:40Z</time>
      </trkpt>
      <trkpt lat="44.53524" lon="5.5595">
        <ele>721.36</ele>
        <time>2018-06-17T10:22:41Z</time>
      </trkpt>
      <trkpt lat="44.53507" lon="5.55965">
        <ele>721.49</ele>
        <time>2018-06-17T10:22:42Z</time>
      </trkpt>
      <trkpt lat="44.5349" lon="5.55979">
        <ele>720.83</ele>
        <time>2018-06-17T10:22:43Z</time>
      </trkpt>
      <trkpt lat="44.53475" lon="5.55993">
        <ele>720.63</ele>
        <time>2018-06-17T10:22:44Z</time>
      </trkpt>
      <trkpt lat="44.53461" lon="5.56013">
        <ele>720.57</ele>
        <time>2018-06-17T10:22:45Z</time>
      </trkpt>
      <trkpt lat="44.5345" lon="5.56035">
        <ele>720.56</ele>
        <time>2018-06-17T10:22:46Z</time>
      </trkpt>
      <trkpt lat="44.53426" lon="5.56074">
        <ele>719.64</ele>
        <time>2018-06-17T10:22:48Z</time>
      </trkpt>
      <trkpt lat="44.53409" lon="5.56088">
        <ele>719.58</ele>
        <time>2018-06-17T10:22:49Z</time>
      </trkpt>
      <trkpt lat="44.53391" lon="5.561">
        <ele>719.56</ele>
        <time>2018-06-17T10:22:50Z</time>
      </trkpt>
      <trkpt lat="44.53374" lon="5.56111">
        <ele>719.55</ele>
        <time>2018-06-17T10:22:51Z</time>
      </trkpt>
      <trkpt lat="44.53353" lon="5.5612">
        <ele>719.55</ele>
        <time>2018-06-17T10:22:52Z</time>
      </trkpt>
      <trkpt lat="44.53331" lon="5.56127">
        <ele>719.55</ele>
        <time>2018-06-17T10:22:53Z</time>
      </trkpt>
      <trkpt lat="44.53307" lon="5.56135">
        <ele>719.55</ele>
        <time>2018-06-17T10:22:54Z</time>
      </trkpt>
      <trkpt lat="44.53285" lon="5.56144">
        <ele>719.55</ele>
        <time>2018-06-17T10:22:55Z</time>
      </trkpt>
      <trkpt lat="44.53263" lon="5.56153">
        <ele>719.55</ele>
        <time>2018-06-17T10:22:56Z</time>
      </trkpt>
      <trkpt lat="44.53242" lon="5.56163">
        <ele>719.55</ele>
        <time>2018-06-17T10:22:57Z</time>
      </trkpt>
      <trkpt lat="44.53223" lon="5.56174">
        <ele>718.85</ele>
        <time>2018-06-17T10:22:58Z</time>
      </trkpt>
      <trkpt lat="44.53204" lon="5.56184">
        <ele>719.34</ele>
        <time>2018-06-17T10:22:59Z</time>
      </trkpt>
      <trkpt lat="44.53184" lon="5.56193">
        <ele>718.78</ele>
        <time>2018-06-17T10:23:00Z</time>
      </trkpt>
      <trkpt lat="44.53166" lon="5.56201">
        <ele>718.62</ele>
        <time>2018-06-17T10:23:01Z</time>
      </trkpt>
      <trkpt lat="44.53148" lon="5.56209">
        <ele>718.57</ele>
        <time>2018-06-17T10:23:02Z</time>
      </trkpt>
      <trkpt lat="44.53131" lon="5.56224">
        <ele>717.15</ele>
        <time>2018-06-17T10:23:03Z</time>
      </trkpt>
      <trkpt lat="44.53114" lon="5.56249">
        <ele>716.81</ele>
        <time>2018-06-17T10:23:05Z</time>
      </trkpt>
      <trkpt lat="44.53099" lon="5.56293">
        <ele>717.27</ele>
        <time>2018-06-17T10:23:07Z</time>
      </trkpt>
      <trkpt lat="44.53088" lon="5.56313">
        <ele>717.47</ele>
        <time>2018-06-17T10:23:08Z</time>
      </trkpt>
      <trkpt lat="44.53061" lon="5.56347">
        <ele>715.93</ele>
        <time>2018-06-17T10:23:10Z</time>
      </trkpt>
      <trkpt lat="44.53044" lon="5.56361">
        <ele>715.66</ele>
        <time>2018-06-17T10:23:11Z</time>
      </trkpt>
      <trkpt lat="44.53026" lon="5.56375">
        <ele>715.58</ele>
        <time>2018-06-17T10:23:12Z</time>
      </trkpt>
      <trkpt lat="44.53006" lon="5.56389">
        <ele>716.26</ele>
        <time>2018-06-17T10:23:13Z</time>
      </trkpt>
      <trkpt lat="44.52987" lon="5.56403">
        <ele>716.46</ele>
        <time>2018-06-17T10:23:14Z</time>
      </trkpt>
      <trkpt lat="44.52968" lon="5.56416">
        <ele>716.52</ele>
        <time>2018-06-17T10:23:15Z</time>
      </trkpt>
      <trkpt lat="44.52951" lon="5.56429">
        <ele>715.84</ele>
        <time>2018-06-17T10:23:16Z</time>
      </trkpt>
      <trkpt lat="44.52924" lon="5.56457">
        <ele>717.67</ele>
        <time>2018-06-17T10:23:18Z</time>
      </trkpt>
      <trkpt lat="44.52913" lon="5.56478">
        <ele>717.59</ele>
        <time>2018-06-17T10:23:19Z</time>
      </trkpt>
      <trkpt lat="44.52905" lon="5.56505">
        <ele>718.26</ele>
        <time>2018-06-17T10:23:20Z</time>
      </trkpt>
      <trkpt lat="44.52899" lon="5.56536">
        <ele>718.46</ele>
        <time>2018-06-17T10:23:21Z</time>
      </trkpt>
      <trkpt lat="44.5289" lon="5.56561">
        <ele>719.22</ele>
        <time>2018-06-17T10:23:22Z</time>
      </trkpt>
      <trkpt lat="44.52883" lon="5.56586">
        <ele>720.15</ele>
        <time>2018-06-17T10:23:23Z</time>
      </trkpt>
      <trkpt lat="44.52876" lon="5.56611">
        <ele>721.13</ele>
        <time>2018-06-17T10:23:24Z</time>
      </trkpt>
      <trkpt lat="44.52869" lon="5.56634">
        <ele>722.82</ele>
        <time>2018-06-17T10:23:25Z</time>
      </trkpt>
      <trkpt lat="44.52854" lon="5.56649">
        <ele>724.03</ele>
        <time>2018-06-17T10:23:26Z</time>
      </trkpt>
      <trkpt lat="44.52839" lon="5.56665">
        <ele>724.39</ele>
        <time>2018-06-17T10:23:27Z</time>
      </trkpt>
      <trkpt lat="44.52823" lon="5.56679">
        <ele>724.5</ele>
        <time>2018-06-17T10:23:28Z</time>
      </trkpt>
      <trkpt lat="44.52808" lon="5.56694">
        <ele>724.53</ele>
        <time>2018-06-17T10:23:29Z</time>
      </trkpt>
      <trkpt lat="44.52789" lon="5.56708">
        <ele>725.24</ele>
        <time>2018-06-17T10:23:30Z</time>
      </trkpt>
      <trkpt lat="44.52771" lon="5.56723">
        <ele>726.16</ele>
        <time>2018-06-17T10:23:31Z</time>
      </trkpt>
      <trkpt lat="44.52752" lon="5.56734">
        <ele>726.43</ele>
        <time>2018-06-17T10:23:32Z</time>
      </trkpt>
      <trkpt lat="44.52719" lon="5.56757">
        <ele>726.54</ele>
        <time>2018-06-17T10:23:34Z</time>
      </trkpt>
      <trkpt lat="44.52707" lon="5.56778">
        <ele>727.24</ele>
        <time>2018-06-17T10:23:35Z</time>
      </trkpt>
      <trkpt lat="44.52695" lon="5.56799">
        <ele>727.46</ele>
        <time>2018-06-17T10:23:36Z</time>
      </trkpt>
      <trkpt lat="44.52683" lon="5.56821">
        <ele>728.22</ele>
        <time>2018-06-17T10:23:37Z</time>
      </trkpt>
      <trkpt lat="44.52671" lon="5.56843">
        <ele>729.15</ele>
        <time>2018-06-17T10:23:38Z</time>
      </trkpt>
      <trkpt lat="44.52658" lon="5.56868">
        <ele>729.43</ele>
        <time>2018-06-17T10:23:39Z</time>
      </trkpt>
      <trkpt lat="44.52647" lon="5.56894">
        <ele>730.91</ele>
        <time>2018-06-17T10:23:40Z</time>
      </trkpt>
      <trkpt lat="44.52642" lon="5.56924">
        <ele>731.36</ele>
        <time>2018-06-17T10:23:41Z</time>
      </trkpt>
      <trkpt lat="44.52633" lon="5.56952">
        <ele>730.79</ele>
        <time>2018-06-17T10:23:42Z</time>
      </trkpt>
      <trkpt lat="44.52623" lon="5.56981">
        <ele>731.32</ele>
        <time>2018-06-17T10:23:43Z</time>
      </trkpt>
      <trkpt lat="44.5261" lon="5.57006">
        <ele>731.48</ele>
        <time>2018-06-17T10:23:44Z</time>
      </trkpt>
      <trkpt lat="44.52595" lon="5.57027">
        <ele>732.23</ele>
        <time>2018-06-17T10:23:45Z</time>
      </trkpt>
      <trkpt lat="44.52576" lon="5.57045">
        <ele>732.45</ele>
        <time>2018-06-17T10:23:46Z</time>
      </trkpt>
      <trkpt lat="44.52559" lon="5.5706">
        <ele>732.52</ele>
        <time>2018-06-17T10:23:47Z</time>
      </trkpt>
      <trkpt lat="44.52541" lon="5.57073">
        <ele>732.54</ele>
        <time>2018-06-17T10:23:48Z</time>
      </trkpt>
      <trkpt lat="44.52511" lon="5.57098">
        <ele>732.55</ele>
        <time>2018-06-17T10:23:50Z</time>
      </trkpt>
      <trkpt lat="44.52496" lon="5.57113">
        <ele>731.85</ele>
        <time>2018-06-17T10:23:51Z</time>
      </trkpt>
      <trkpt lat="44.5248" lon="5.57155">
        <ele>733.18</ele>
        <time>2018-06-17T10:23:53Z</time>
      </trkpt>
      <trkpt lat="44.52481" lon="5.57198">
        <ele>737.65</ele>
        <time>2018-06-17T10:23:55Z</time>
      </trkpt>
      <trkpt lat="44.52469" lon="5.57229">
        <ele>739.17</ele>
        <time>2018-06-17T10:23:57Z</time>
      </trkpt>
      <trkpt lat="44.52448" lon="5.5725">
        <ele>741.82</ele>
        <time>2018-06-17T10:23:59Z</time>
      </trkpt>
      <trkpt lat="44.52422" lon="5.57267">
        <ele>741.78</ele>
        <time>2018-06-17T10:24:01Z</time>
      </trkpt>
      <trkpt lat="44.52392" lon="5.57285">
        <ele>741.57</ele>
        <time>2018-06-17T10:24:03Z</time>
      </trkpt>
      <trkpt lat="44.52359" lon="5.5731">
        <ele>741.34</ele>
        <time>2018-06-17T10:24:05Z</time>
      </trkpt>
      <trkpt lat="44.52345" lon="5.57326">
        <ele>742.89</ele>
        <time>2018-06-17T10:24:06Z</time>
      </trkpt>
      <trkpt lat="44.52332" lon="5.57344">
        <ele>743.35</ele>
        <time>2018-06-17T10:24:07Z</time>
      </trkpt>
      <trkpt lat="44.52318" lon="5.57362">
        <ele>744.19</ele>
        <time>2018-06-17T10:24:08Z</time>
      </trkpt>
      <trkpt lat="44.52292" lon="5.57389">
        <ele>746.13</ele>
        <time>2018-06-17T10:24:10Z</time>
      </trkpt>
      <trkpt lat="44.52262" lon="5.57404">
        <ele>745.81</ele>
        <time>2018-06-17T10:24:12Z</time>
      </trkpt>
      <trkpt lat="44.52241" lon="5.57402">
        <ele>745.63</ele>
        <time>2018-06-17T10:24:13Z</time>
      </trkpt>
      <trkpt lat="44.52222" lon="5.57405">
        <ele>745.57</ele>
        <time>2018-06-17T10:24:14Z</time>
      </trkpt>
      <trkpt lat="44.522" lon="5.57407">
        <ele>744.86</ele>
        <time>2018-06-17T10:24:15Z</time>
      </trkpt>
      <trkpt lat="44.52178" lon="5.57408">
        <ele>744.64</ele>
        <time>2018-06-17T10:24:16Z</time>
      </trkpt>
      <trkpt lat="44.52157" lon="5.57406">
        <ele>744.58</ele>
        <time>2018-06-17T10:24:17Z</time>
      </trkpt>
      <trkpt lat="44.52134" lon="5.57406">
        <ele>743.86</ele>
        <time>2018-06-17T10:24:18Z</time>
      </trkpt>
      <trkpt lat="44.51629" lon="5.5745">
        <ele>750.55</ele>
        <time>2018-06-17T10:24:41Z</time>
      </trkpt>
      <trkpt lat="44.51573" lon="5.57456">
        <ele>750.55</ele>
        <time>2018-06-17T10:24:43Z</time>
      </trkpt>
      <trkpt lat="44.51548" lon="5.5746">
        <ele>745.65</ele>
        <time>2018-06-17T10:24:44Z</time>
      </trkpt>
      <trkpt lat="44.51525" lon="5.57462">
        <ele>742.78</ele>
        <time>2018-06-17T10:24:45Z</time>
      </trkpt>
      <trkpt lat="44.515" lon="5.57458">
        <ele>741.92</ele>
        <time>2018-06-17T10:24:46Z</time>
      </trkpt>
      <trkpt lat="44.51475" lon="5.57451">
        <ele>742.36</ele>
        <time>2018-06-17T10:24:47Z</time>
      </trkpt>
      <trkpt lat="44.51452" lon="5.57446">
        <ele>743.89</ele>
        <time>2018-06-17T10:24:48Z</time>
      </trkpt>
      <trkpt lat="44.51427" lon="5.57442">
        <ele>746.45</ele>
        <time>2018-06-17T10:24:49Z</time>
      </trkpt>
      <trkpt lat="44.51402" lon="5.57439">
        <ele>747.92</ele>
        <time>2018-06-17T10:24:50Z</time>
      </trkpt>
      <trkpt lat="44.51377" lon="5.57436">
        <ele>749.06</ele>
        <time>2018-06-17T10:24:51Z</time>
      </trkpt>
      <trkpt lat="44.51353" lon="5.57432">
        <ele>750.1</ele>
        <time>2018-06-17T10:24:52Z</time>
      </trkpt>
      <trkpt lat="44.5133" lon="5.5743">
        <ele>750.41</ele>
        <time>2018-06-17T10:24:53Z</time>
      </trkpt>
      <trkpt lat="44.51307" lon="5.57429">
        <ele>750.51</ele>
        <time>2018-06-17T10:24:54Z</time>
      </trkpt>
      <trkpt lat="44.51286" lon="5.57428">
        <ele>750.54</ele>
        <time>2018-06-17T10:24:55Z</time>
      </trkpt>
      <trkpt lat="44.51266" lon="5.57428">
        <ele>754.04</ele>
        <time>2018-06-17T10:24:56Z</time>
      </trkpt>
      <trkpt lat="44.51247" lon="5.57432">
        <ele>755.8</ele>
        <time>2018-06-17T10:24:57Z</time>
      </trkpt>
      <trkpt lat="44.51227" lon="5.57441">
        <ele>754.92</ele>
        <time>2018-06-17T10:24:58Z</time>
      </trkpt>
      <trkpt lat="44.51209" lon="5.57449">
        <ele>755.36</ele>
        <time>2018-06-17T10:24:59Z</time>
      </trkpt>
      <trkpt lat="44.51192" lon="5.57458">
        <ele>755.49</ele>
        <time>2018-06-17T10:25:00Z</time>
      </trkpt>
      <trkpt lat="44.51175" lon="5.57473">
        <ele>755.53</ele>
        <time>2018-06-17T10:25:01Z</time>
      </trkpt>
      <trkpt lat="44.51157" lon="5.57487">
        <ele>756.24</ele>
        <time>2018-06-17T10:25:02Z</time>
      </trkpt>
      <trkpt lat="44.51138" lon="5.57497">
        <ele>756.46</ele>
        <time>2018-06-17T10:25:03Z</time>
      </trkpt>
      <trkpt lat="44.51118" lon="5.57506">
        <ele>757.22</ele>
        <time>2018-06-17T10:25:04Z</time>
      </trkpt>
      <trkpt lat="44.51095" lon="5.57512">
        <ele>758.85</ele>
        <time>2018-06-17T10:25:05Z</time>
      </trkpt>
      <trkpt lat="44.51073" lon="5.57518">
        <ele>758.64</ele>
        <time>2018-06-17T10:25:06Z</time>
      </trkpt>
      <trkpt lat="44.51049" lon="5.5752">
        <ele>758.58</ele>
        <time>2018-06-17T10:25:07Z</time>
      </trkpt>
      <trkpt lat="44.51026" lon="5.57523">
        <ele>759.26</ele>
        <time>2018-06-17T10:25:08Z</time>
      </trkpt>
      <trkpt lat="44.51002" lon="5.57525">
        <ele>759.46</ele>
        <time>2018-06-17T10:25:09Z</time>
      </trkpt>
      <trkpt lat="44.50979" lon="5.57524">
        <ele>759.52</ele>
        <time>2018-06-17T10:25:10Z</time>
      </trkpt>
      <trkpt lat="44.50957" lon="5.57521">
        <ele>759.54</ele>
        <time>2018-06-17T10:25:11Z</time>
      </trkpt>
      <trkpt lat="44.50937" lon="5.57515">
        <ele>760.95</ele>
        <time>2018-06-17T10:25:12Z</time>
      </trkpt>
      <trkpt lat="44.50918" lon="5.57508">
        <ele>760.67</ele>
        <time>2018-06-17T10:25:13Z</time>
      </trkpt>
      <trkpt lat="44.509" lon="5.57501">
        <ele>760.58</ele>
        <time>2018-06-17T10:25:14Z</time>
      </trkpt>
      <trkpt lat="44.50867" lon="5.57494">
        <ele>762.16</ele>
        <time>2018-06-17T10:25:16Z</time>
      </trkpt>
      <trkpt lat="44.50848" lon="5.57494">
        <ele>763.13</ele>
        <time>2018-06-17T10:25:17Z</time>
      </trkpt>
      <trkpt lat="44.50829" lon="5.57495">
        <ele>764.12</ele>
        <time>2018-06-17T10:25:18Z</time>
      </trkpt>
      <trkpt lat="44.50811" lon="5.57494">
        <ele>764.42</ele>
        <time>2018-06-17T10:25:19Z</time>
      </trkpt>
      <trkpt lat="44.50778" lon="5.57493">
        <ele>767.06</ele>
        <time>2018-06-17T10:25:21Z</time>
      </trkpt>
      <trkpt lat="44.50747" lon="5.57507">
        <ele>768.41</ele>
        <time>2018-06-17T10:25:23Z</time>
      </trkpt>
      <trkpt lat="44.5073" lon="5.57519">
        <ele>768.51</ele>
        <time>2018-06-17T10:25:24Z</time>
      </trkpt>
      <trkpt lat="44.50714" lon="5.57532">
        <ele>769.24</ele>
        <time>2018-06-17T10:25:25Z</time>
      </trkpt>
      <trkpt lat="44.50699" lon="5.57545">
        <ele>770.15</ele>
        <time>2018-06-17T10:25:26Z</time>
      </trkpt>
      <trkpt lat="44.50681" lon="5.57557">
        <ele>770.43</ele>
        <time>2018-06-17T10:25:27Z</time>
      </trkpt>
      <trkpt lat="44.50653" lon="5.57571">
        <ele>772.15</ele>
        <time>2018-06-17T10:25:29Z</time>
      </trkpt>
      <trkpt lat="44.50634" lon="5.57579">
        <ele>772.51</ele>
        <time>2018-06-17T10:25:31Z</time>
      </trkpt>
      <trkpt lat="44.50612" lon="5.57563">
        <ele>772.26</ele>
        <time>2018-06-17T10:25:35Z</time>
      </trkpt>
      <trkpt lat="44.50599" lon="5.57541">
        <ele>775.12</ele>
        <time>2018-06-17T10:25:38Z</time>
      </trkpt>
      <trkpt lat="44.50582" lon="5.57515">
        <ele>775.54</ele>
        <time>2018-06-17T10:25:42Z</time>
      </trkpt>
      <trkpt lat="44.50569" lon="5.5749">
        <ele>777.22</ele>
        <time>2018-06-17T10:25:45Z</time>
      </trkpt>
      <trkpt lat="44.50566" lon="5.57462">
        <ele>778.33</ele>
        <time>2018-06-17T10:25:49Z</time>
      </trkpt>
      <trkpt lat="44.50557" lon="5.57432">
        <ele>779.52</ele>
        <time>2018-06-17T10:25:53Z</time>
      </trkpt>
      <trkpt lat="44.50543" lon="5.574">
        <ele>783.8</ele>
        <time>2018-06-17T10:25:56Z</time>
      </trkpt>
      <trkpt lat="44.5053" lon="5.57371">
        <ele>786.2</ele>
        <time>2018-06-17T10:25:59Z</time>
      </trkpt>
      <trkpt lat="44.50515" lon="5.57347">
        <ele>789.12</ele>
        <time>2018-06-17T10:26:02Z</time>
      </trkpt>
      <trkpt lat="44.50501" lon="5.57319">
        <ele>791.15</ele>
        <time>2018-06-17T10:26:05Z</time>
      </trkpt>
      <trkpt lat="44.50486" lon="5.57291">
        <ele>794.82</ele>
        <time>2018-06-17T10:26:08Z</time>
      </trkpt>
      <trkpt lat="44.50472" lon="5.57273">
        <ele>795.53</ele>
        <time>2018-06-17T10:26:11Z</time>
      </trkpt>
      <trkpt lat="44.50455" lon="5.57258">
        <ele>795.48</ele>
        <time>2018-06-17T10:26:15Z</time>
      </trkpt>
      <trkpt lat="44.50476" lon="5.57263">
        <ele>797.34</ele>
        <time>2018-06-17T11:43:17Z</time>
      </trkpt>
      <trkpt lat="44.50492" lon="5.57277">
        <ele>794.96</ele>
        <time>2018-06-17T11:43:20Z</time>
      </trkpt>
      <trkpt lat="44.50505" lon="5.57302">
        <ele>795.32</ele>
        <time>2018-06-17T11:43:23Z</time>
      </trkpt>
      <trkpt lat="44.50518" lon="5.57328">
        <ele>799.1</ele>
        <time>2018-06-17T11:43:26Z</time>
      </trkpt>
      <trkpt lat="44.50534" lon="5.57357">
        <ele>798.5</ele>
        <time>2018-06-17T11:43:29Z</time>
      </trkpt>
      <trkpt lat="44.50546" lon="5.57386">
        <ele>798.76</ele>
        <time>2018-06-17T11:43:32Z</time>
      </trkpt>
      <trkpt lat="44.50558" lon="5.57413">
        <ele>799.59</ele>
        <time>2018-06-17T11:43:35Z</time>
      </trkpt>
      <trkpt lat="44.50566" lon="5.57439">
        <ele>800.73</ele>
        <time>2018-06-17T11:43:38Z</time>
      </trkpt>
      <trkpt lat="44.50566" lon="5.57465">
        <ele>798.88</ele>
        <time>2018-06-17T11:43:41Z</time>
      </trkpt>
      <trkpt lat="44.5055" lon="5.57483">
        <ele>798.28</ele>
        <time>2018-06-17T11:43:44Z</time>
      </trkpt>
      <trkpt lat="44.50526" lon="5.57498">
        <ele>796.17</ele>
        <time>2018-06-17T11:43:47Z</time>
      </trkpt>
      <trkpt lat="44.5051" lon="5.57511">
        <ele>794.9</ele>
        <time>2018-06-17T11:43:49Z</time>
      </trkpt>
      <trkpt lat="44.50489" lon="5.5753">
        <ele>794.56</ele>
        <time>2018-06-17T11:43:52Z</time>
      </trkpt>
      <trkpt lat="44.50473" lon="5.57553">
        <ele>795.46</ele>
        <time>2018-06-17T11:43:55Z</time>
      </trkpt>
      <trkpt lat="44.50459" lon="5.57577">
        <ele>797.49</ele>
        <time>2018-06-17T11:43:58Z</time>
      </trkpt>
      <trkpt lat="44.50442" lon="5.57604">
        <ele>797.48</ele>
        <time>2018-06-17T11:44:01Z</time>
      </trkpt>
      <trkpt lat="44.50428" lon="5.57622">
        <ele>798.24</ele>
        <time>2018-06-17T11:44:03Z</time>
      </trkpt>
      <trkpt lat="44.50409" lon="5.57635">
        <ele>799.43</ele>
        <time>2018-06-17T11:44:05Z</time>
      </trkpt>
      <trkpt lat="44.50387" lon="5.57648">
        <ele>800.24</ele>
        <time>2018-06-17T11:44:07Z</time>
      </trkpt>
      <trkpt lat="44.50366" lon="5.57662">
        <ele>801.22</ele>
        <time>2018-06-17T11:44:09Z</time>
      </trkpt>
      <trkpt lat="44.50345" lon="5.57682">
        <ele>800.82</ele>
        <time>2018-06-17T11:44:11Z</time>
      </trkpt>
      <trkpt lat="44.50324" lon="5.57706">
        <ele>800.57</ele>
        <time>2018-06-17T11:44:13Z</time>
      </trkpt>
      <trkpt lat="44.50304" lon="5.57732">
        <ele>800.55</ele>
        <time>2018-06-17T11:44:15Z</time>
      </trkpt>
      <trkpt lat="44.50284" lon="5.5776">
        <ele>801.25</ele>
        <time>2018-06-17T11:44:17Z</time>
      </trkpt>
      <trkpt lat="44.50267" lon="5.57783">
        <ele>801.52</ele>
        <time>2018-06-17T11:44:19Z</time>
      </trkpt>
      <trkpt lat="44.50249" lon="5.57796">
        <ele>802.95</ele>
        <time>2018-06-17T11:44:21Z</time>
      </trkpt>
      <trkpt lat="44.50231" lon="5.57792">
        <ele>804.89</ele>
        <time>2018-06-17T11:44:23Z</time>
      </trkpt>
      <trkpt lat="44.5021" lon="5.57763">
        <ele>804.79</ele>
        <time>2018-06-17T11:44:25Z</time>
      </trkpt>
      <trkpt lat="44.50187" lon="5.57742">
        <ele>805.48</ele>
        <time>2018-06-17T11:44:27Z</time>
      </trkpt>
      <trkpt lat="44.50162" lon="5.5772">
        <ele>806.24</ele>
        <time>2018-06-17T11:44:29Z</time>
      </trkpt>
      <trkpt lat="44.50136" lon="5.57697">
        <ele>807.43</ele>
        <time>2018-06-17T11:44:31Z</time>
      </trkpt>
      <trkpt lat="44.5011" lon="5.57676">
        <ele>807.75</ele>
        <time>2018-06-17T11:44:33Z</time>
      </trkpt>
      <trkpt lat="44.50084" lon="5.57661">
        <ele>807.78</ele>
        <time>2018-06-17T11:44:35Z</time>
      </trkpt>
      <trkpt lat="44.50058" lon="5.57661">
        <ele>808.48</ele>
        <time>2018-06-17T11:44:37Z</time>
      </trkpt>
      <trkpt lat="44.50032" lon="5.57673">
        <ele>809.45</ele>
        <time>2018-06-17T11:44:39Z</time>
      </trkpt>
      <trkpt lat="44.50009" lon="5.57695">
        <ele>808.84</ele>
        <time>2018-06-17T11:44:41Z</time>
      </trkpt>
      <trkpt lat="44.49983" lon="5.57709">
        <ele>808.57</ele>
        <time>2018-06-17T11:44:43Z</time>
      </trkpt>
      <trkpt lat="44.49954" lon="5.5771">
        <ele>808.55</ele>
        <time>2018-06-17T11:44:45Z</time>
      </trkpt>
      <trkpt lat="44.49923" lon="5.57695">
        <ele>809.04</ele>
        <time>2018-06-17T11:44:47Z</time>
      </trkpt>
      <trkpt lat="44.49894" lon="5.57678">
        <ele>811.11</ele>
        <time>2018-06-17T11:44:49Z</time>
      </trkpt>
      <trkpt lat="44.49865" lon="5.57674">
        <ele>814.03</ele>
        <time>2018-06-17T11:44:51Z</time>
      </trkpt>
      <trkpt lat="44.49834" lon="5.57679">
        <ele>815.9</ele>
        <time>2018-06-17T11:44:53Z</time>
      </trkpt>
      <trkpt lat="44.49802" lon="5.57686">
        <ele>818.8</ele>
        <time>2018-06-17T11:44:55Z</time>
      </trkpt>
      <trkpt lat="44.49771" lon="5.57697">
        <ele>822</ele>
        <time>2018-06-17T11:44:57Z</time>
      </trkpt>
      <trkpt lat="44.49745" lon="5.57704">
        <ele>824.81</ele>
        <time>2018-06-17T11:44:59Z</time>
      </trkpt>
      <trkpt lat="44.49725" lon="5.57712">
        <ele>824.57</ele>
        <time>2018-06-17T11:45:01Z</time>
      </trkpt>
      <trkpt lat="44.49704" lon="5.57704">
        <ele>826.16</ele>
        <time>2018-06-17T11:45:03Z</time>
      </trkpt>
      <trkpt lat="44.49684" lon="5.57702">
        <ele>827.21</ele>
        <time>2018-06-17T11:45:05Z</time>
      </trkpt>
      <trkpt lat="44.49663" lon="5.5771">
        <ele>829.83</ele>
        <time>2018-06-17T11:45:07Z</time>
      </trkpt>
      <trkpt lat="44.49641" lon="5.57717">
        <ele>830.48</ele>
        <time>2018-06-17T11:45:09Z</time>
      </trkpt>
      <trkpt lat="44.49618" lon="5.57722">
        <ele>832.36</ele>
        <time>2018-06-17T11:45:11Z</time>
      </trkpt>
      <trkpt lat="44.49594" lon="5.57724">
        <ele>833.44</ele>
        <time>2018-06-17T11:45:13Z</time>
      </trkpt>
      <trkpt lat="44.49569" lon="5.57727">
        <ele>834.24</ele>
        <time>2018-06-17T11:45:15Z</time>
      </trkpt>
      <trkpt lat="44.49544" lon="5.57736">
        <ele>834.52</ele>
        <time>2018-06-17T11:45:17Z</time>
      </trkpt>
      <trkpt lat="44.4952" lon="5.5776">
        <ele>836.86</ele>
        <time>2018-06-17T11:45:19Z</time>
      </trkpt>
      <trkpt lat="44.495" lon="5.57791">
        <ele>839.8</ele>
        <time>2018-06-17T11:45:21Z</time>
      </trkpt>
      <trkpt lat="44.49479" lon="5.57819">
        <ele>844.19</ele>
        <time>2018-06-17T11:45:23Z</time>
      </trkpt>
      <trkpt lat="44.49457" lon="5.57844">
        <ele>850.26</ele>
        <time>2018-06-17T11:45:25Z</time>
      </trkpt>
      <trkpt lat="44.49437" lon="5.5787">
        <ele>853.74</ele>
        <time>2018-06-17T11:45:27Z</time>
      </trkpt>
      <trkpt lat="44.49418" lon="5.57898">
        <ele>857</ele>
        <time>2018-06-17T11:45:29Z</time>
      </trkpt>
      <trkpt lat="44.49413" lon="5.57934">
        <ele>859.11</ele>
        <time>2018-06-17T11:45:31Z</time>
      </trkpt>
      <trkpt lat="44.49402" lon="5.57961">
        <ele>859.51</ele>
        <time>2018-06-17T11:45:33Z</time>
      </trkpt>
      <trkpt lat="44.4938" lon="5.57975">
        <ele>864.79</ele>
        <time>2018-06-17T11:45:35Z</time>
      </trkpt>
      <trkpt lat="44.49359" lon="5.57988">
        <ele>869.82</ele>
        <time>2018-06-17T11:45:37Z</time>
      </trkpt>
      <trkpt lat="44.49334" lon="5.57999">
        <ele>870.48</ele>
        <time>2018-06-17T11:45:39Z</time>
      </trkpt>
      <trkpt lat="44.49313" lon="5.58012">
        <ele>874.46</ele>
        <time>2018-06-17T11:45:41Z</time>
      </trkpt>
      <trkpt lat="44.49294" lon="5.58029">
        <ele>879.58</ele>
        <time>2018-06-17T11:45:43Z</time>
      </trkpt>
      <trkpt lat="44.49275" lon="5.58044">
        <ele>883.47</ele>
        <time>2018-06-17T11:45:45Z</time>
      </trkpt>
      <trkpt lat="44.49256" lon="5.58055">
        <ele>886.97</ele>
        <time>2018-06-17T11:45:47Z</time>
      </trkpt>
      <trkpt lat="44.49237" lon="5.58068">
        <ele>890.72</ele>
        <time>2018-06-17T11:45:49Z</time>
      </trkpt>
      <trkpt lat="44.49224" lon="5.5809">
        <ele>893.29</ele>
        <time>2018-06-17T11:45:51Z</time>
      </trkpt>
      <trkpt lat="44.49216" lon="5.58119">
        <ele>895.14</ele>
        <time>2018-06-17T11:45:53Z</time>
      </trkpt>
      <trkpt lat="44.49204" lon="5.5815">
        <ele>896.42</ele>
        <time>2018-06-17T11:45:55Z</time>
      </trkpt>
      <trkpt lat="44.49188" lon="5.58177">
        <ele>897.45</ele>
        <time>2018-06-17T11:45:57Z</time>
      </trkpt>
      <trkpt lat="44.49165" lon="5.58192">
        <ele>899.85</ele>
        <time>2018-06-17T11:45:59Z</time>
      </trkpt>
      <trkpt lat="44.4914" lon="5.58198">
        <ele>902.8</ele>
        <time>2018-06-17T11:46:01Z</time>
      </trkpt>
      <trkpt lat="44.49113" lon="5.58192">
        <ele>906.49</ele>
        <time>2018-06-17T11:46:03Z</time>
      </trkpt>
      <trkpt lat="44.4909" lon="5.58187">
        <ele>909.97</ele>
        <time>2018-06-17T11:46:05Z</time>
      </trkpt>
      <trkpt lat="44.49086" lon="5.5816">
        <ele>910.53</ele>
        <time>2018-06-17T11:46:08Z</time>
      </trkpt>
      <trkpt lat="44.4911" lon="5.58149">
        <ele>912.16</ele>
        <time>2018-06-17T11:46:10Z</time>
      </trkpt>
      <trkpt lat="44.49123" lon="5.58127">
        <ele>915.03</ele>
        <time>2018-06-17T11:46:12Z</time>
      </trkpt>
      <trkpt lat="44.49127" lon="5.58099">
        <ele>916.9</ele>
        <time>2018-06-17T11:46:14Z</time>
      </trkpt>
      <trkpt lat="44.49119" lon="5.58076">
        <ele>919.84</ele>
        <time>2018-06-17T11:46:17Z</time>
      </trkpt>
      <trkpt lat="44.49094" lon="5.581">
        <ele>923.75</ele>
        <time>2018-06-17T11:46:20Z</time>
      </trkpt>
      <trkpt lat="44.49071" lon="5.58112">
        <ele>928.4</ele>
        <time>2018-06-17T11:46:22Z</time>
      </trkpt>
      <trkpt lat="44.49043" lon="5.58118">
        <ele>931.05</ele>
        <time>2018-06-17T11:46:24Z</time>
      </trkpt>
      <trkpt lat="44.49023" lon="5.58113">
        <ele>936.54</ele>
        <time>2018-06-17T11:46:26Z</time>
      </trkpt>
      <trkpt lat="44.49012" lon="5.58092">
        <ele>940.19</ele>
        <time>2018-06-17T11:46:28Z</time>
      </trkpt>
      <trkpt lat="44.49012" lon="5.58059">
        <ele>944.65</ele>
        <time>2018-06-17T11:46:30Z</time>
      </trkpt>
      <trkpt lat="44.49022" lon="5.58027">
        <ele>947.99</ele>
        <time>2018-06-17T11:46:32Z</time>
      </trkpt>
      <trkpt lat="44.49046" lon="5.58012">
        <ele>951.93</ele>
        <time>2018-06-17T11:46:34Z</time>
      </trkpt>
      <trkpt lat="44.49074" lon="5.58002">
        <ele>954.1</ele>
        <time>2018-06-17T11:46:36Z</time>
      </trkpt>
      <trkpt lat="44.49096" lon="5.57982">
        <ele>955.21</ele>
        <time>2018-06-17T11:46:38Z</time>
      </trkpt>
      <trkpt lat="44.49109" lon="5.57957">
        <ele>957.13</ele>
        <time>2018-06-17T11:46:40Z</time>
      </trkpt>
      <trkpt lat="44.49115" lon="5.57932">
        <ele>956.77</ele>
        <time>2018-06-17T11:46:43Z</time>
      </trkpt>
      <trkpt lat="44.4909" lon="5.57935">
        <ele>955.87</ele>
        <time>2018-06-17T11:46:45Z</time>
      </trkpt>
      <trkpt lat="44.49063" lon="5.57944">
        <ele>957.04</ele>
        <time>2018-06-17T11:46:46Z</time>
      </trkpt>
      <trkpt lat="44.49038" lon="5.57963">
        <ele>959.5</ele>
        <time>2018-06-17T11:46:47Z</time>
      </trkpt>
      <trkpt lat="44.49006" lon="5.5798">
        <ele>962.97</ele>
        <time>2018-06-17T11:46:49Z</time>
      </trkpt>
      <trkpt lat="44.48977" lon="5.57997">
        <ele>965.11</ele>
        <time>2018-06-17T11:46:51Z</time>
      </trkpt>
      <trkpt lat="44.4895" lon="5.58021">
        <ele>967.82</ele>
        <time>2018-06-17T11:46:53Z</time>
      </trkpt>
      <trkpt lat="44.48943" lon="5.58051">
        <ele>971</ele>
        <time>2018-06-17T11:46:55Z</time>
      </trkpt>
      <trkpt lat="44.48928" lon="5.58066">
        <ele>974.72</ele>
        <time>2018-06-17T11:46:57Z</time>
      </trkpt>
      <trkpt lat="44.48911" lon="5.58058">
        <ele>977.08</ele>
        <time>2018-06-17T11:46:59Z</time>
      </trkpt>
      <trkpt lat="44.48898" lon="5.58034">
        <ele>978.21</ele>
        <time>2018-06-17T11:47:01Z</time>
      </trkpt>
      <trkpt lat="44.48887" lon="5.58003">
        <ele>981.74</ele>
        <time>2018-06-17T11:47:03Z</time>
      </trkpt>
      <trkpt lat="44.48879" lon="5.57966">
        <ele>986.4</ele>
        <time>2018-06-17T11:47:05Z</time>
      </trkpt>
      <trkpt lat="44.48866" lon="5.57929">
        <ele>991.36</ele>
        <time>2018-06-17T11:47:07Z</time>
      </trkpt>
      <trkpt lat="44.4886" lon="5.57891">
        <ele>995.45</ele>
        <time>2018-06-17T11:47:09Z</time>
      </trkpt>
      <trkpt lat="44.48862" lon="5.57857">
        <ele>998.97</ele>
        <time>2018-06-17T11:47:11Z</time>
      </trkpt>
      <trkpt lat="44.48867" lon="5.57825">
        <ele>1001.11</ele>
        <time>2018-06-17T11:47:13Z</time>
      </trkpt>
      <trkpt lat="44.48867" lon="5.57794">
        <ele>1002.21</ele>
        <time>2018-06-17T11:47:15Z</time>
      </trkpt>
      <trkpt lat="44.48849" lon="5.57772">
        <ele>1003.22</ele>
        <time>2018-06-17T11:47:17Z</time>
      </trkpt>
      <trkpt lat="44.48828" lon="5.57758">
        <ele>1006.04</ele>
        <time>2018-06-17T11:47:19Z</time>
      </trkpt>
      <trkpt lat="44.48803" lon="5.57755">
        <ele>1007.2</ele>
        <time>2018-06-17T11:47:21Z</time>
      </trkpt>
      <trkpt lat="44.4878" lon="5.57751">
        <ele>1009.13</ele>
        <time>2018-06-17T11:47:23Z</time>
      </trkpt>
      <trkpt lat="44.48757" lon="5.57736">
        <ele>1011.33</ele>
        <time>2018-06-17T11:47:25Z</time>
      </trkpt>
      <trkpt lat="44.48737" lon="5.5772">
        <ele>1012.23</ele>
        <time>2018-06-17T11:47:27Z</time>
      </trkpt>
      <trkpt lat="44.48717" lon="5.5771">
        <ele>1013.43</ele>
        <time>2018-06-17T11:47:29Z</time>
      </trkpt>
      <trkpt lat="44.48691" lon="5.57701">
        <ele>1019.28</ele>
        <time>2018-06-17T11:47:31Z</time>
      </trkpt>
      <trkpt lat="44.48667" lon="5.57691">
        <ele>1021.83</ele>
        <time>2018-06-17T11:47:33Z</time>
      </trkpt>
      <trkpt lat="44.48644" lon="5.57685">
        <ele>1025.7</ele>
        <time>2018-06-17T11:47:35Z</time>
      </trkpt>
      <trkpt lat="44.48625" lon="5.57689">
        <ele>1027.17</ele>
        <time>2018-06-17T11:47:37Z</time>
      </trkpt>
      <trkpt lat="44.48614" lon="5.57718">
        <ele>1030.03</ele>
        <time>2018-06-17T11:47:39Z</time>
      </trkpt>
      <trkpt lat="44.48606" lon="5.57748">
        <ele>1032.11</ele>
        <time>2018-06-17T11:47:41Z</time>
      </trkpt>
      <trkpt lat="44.48589" lon="5.57767">
        <ele>1034.12</ele>
        <time>2018-06-17T11:47:43Z</time>
      </trkpt>
      <trkpt lat="44.48567" lon="5.57757">
        <ele>1036.12</ele>
        <time>2018-06-17T11:47:45Z</time>
      </trkpt>
      <trkpt lat="44.48548" lon="5.57739">
        <ele>1038.12</ele>
        <time>2018-06-17T11:47:47Z</time>
      </trkpt>
      <trkpt lat="44.48526" lon="5.57736">
        <ele>1040.82</ele>
        <time>2018-06-17T11:47:49Z</time>
      </trkpt>
      <trkpt lat="44.48501" lon="5.57747">
        <ele>1043.79</ele>
        <time>2018-06-17T11:47:51Z</time>
      </trkpt>
      <trkpt lat="44.48476" lon="5.57761">
        <ele>1047</ele>
        <time>2018-06-17T11:47:53Z</time>
      </trkpt>
      <trkpt lat="44.48455" lon="5.57786">
        <ele>1053.45</ele>
        <time>2018-06-17T11:47:55Z</time>
      </trkpt>
      <trkpt lat="44.4844" lon="5.57812">
        <ele>1057.67</ele>
        <time>2018-06-17T11:47:57Z</time>
      </trkpt>
      <trkpt lat="44.4842" lon="5.57828">
        <ele>1063.69</ele>
        <time>2018-06-17T11:48:00Z</time>
      </trkpt>
      <trkpt lat="44.48401" lon="5.57832">
        <ele>1067.81</ele>
        <time>2018-06-17T11:48:03Z</time>
      </trkpt>
      <trkpt lat="44.4838" lon="5.57829">
        <ele>1071.75</ele>
        <time>2018-06-17T11:48:06Z</time>
      </trkpt>
      <trkpt lat="44.48358" lon="5.57854">
        <ele>1075.81</ele>
        <time>2018-06-17T11:48:09Z</time>
      </trkpt>
      <trkpt lat="44.48343" lon="5.57879">
        <ele>1079.7</ele>
        <time>2018-06-17T11:48:11Z</time>
      </trkpt>
      <trkpt lat="44.48324" lon="5.57906">
        <ele>1081.38</ele>
        <time>2018-06-17T11:48:13Z</time>
      </trkpt>
      <trkpt lat="44.483" lon="5.57928">
        <ele>1084.75</ele>
        <time>2018-06-17T11:48:15Z</time>
      </trkpt>
      <trkpt lat="44.48278" lon="5.57949">
        <ele>1088.7</ele>
        <time>2018-06-17T11:48:17Z</time>
      </trkpt>
      <trkpt lat="44.48259" lon="5.57973">
        <ele>1090.38</ele>
        <time>2018-06-17T11:48:19Z</time>
      </trkpt>
      <trkpt lat="44.48246" lon="5.57997">
        <ele>1092.14</ele>
        <time>2018-06-17T11:48:21Z</time>
      </trkpt>
      <trkpt lat="44.48254" lon="5.58034">
        <ele>1093.42</ele>
        <time>2018-06-17T11:48:23Z</time>
      </trkpt>
      <trkpt lat="44.48253" lon="5.58065">
        <ele>1092.63</ele>
        <time>2018-06-17T11:48:25Z</time>
      </trkpt>
      <trkpt lat="44.48233" lon="5.58084">
        <ele>1096.69</ele>
        <time>2018-06-17T11:48:27Z</time>
      </trkpt>
      <trkpt lat="44.48225" lon="5.58113">
        <ele>1099.99</ele>
        <time>2018-06-17T11:48:29Z</time>
      </trkpt>
      <trkpt lat="44.48223" lon="5.58144">
        <ele>1102.11</ele>
        <time>2018-06-17T11:48:31Z</time>
      </trkpt>
      <trkpt lat="44.48221" lon="5.58176">
        <ele>1102.51</ele>
        <time>2018-06-17T11:48:33Z</time>
      </trkpt>
      <trkpt lat="44.48217" lon="5.58206">
        <ele>1106.67</ele>
        <time>2018-06-17T11:48:35Z</time>
      </trkpt>
      <trkpt lat="44.4821" lon="5.58237">
        <ele>1109.78</ele>
        <time>2018-06-17T11:48:37Z</time>
      </trkpt>
      <trkpt lat="44.48208" lon="5.58269">
        <ele>1113</ele>
        <time>2018-06-17T11:48:39Z</time>
      </trkpt>
      <trkpt lat="44.48208" lon="5.58299">
        <ele>1116.02</ele>
        <time>2018-06-17T11:48:41Z</time>
      </trkpt>
      <trkpt lat="44.48196" lon="5.58321">
        <ele>1117.23</ele>
        <time>2018-06-17T11:48:44Z</time>
      </trkpt>
      <trkpt lat="44.48177" lon="5.58306">
        <ele>1119</ele>
        <time>2018-06-17T11:48:47Z</time>
      </trkpt>
      <trkpt lat="44.48176" lon="5.58271">
        <ele>1120.2</ele>
        <time>2018-06-17T11:48:49Z</time>
      </trkpt>
      <trkpt lat="44.4817" lon="5.58236">
        <ele>1124.44</ele>
        <time>2018-06-17T11:48:51Z</time>
      </trkpt>
      <trkpt lat="44.48157" lon="5.58204">
        <ele>1127.76</ele>
        <time>2018-06-17T11:48:53Z</time>
      </trkpt>
      <trkpt lat="44.48139" lon="5.58172">
        <ele>1131.7</ele>
        <time>2018-06-17T11:48:55Z</time>
      </trkpt>
      <trkpt lat="44.48126" lon="5.58134">
        <ele>1135.69</ele>
        <time>2018-06-17T11:48:57Z</time>
      </trkpt>
      <trkpt lat="44.48115" lon="5.58094">
        <ele>1139.48</ele>
        <time>2018-06-17T11:48:59Z</time>
      </trkpt>
      <trkpt lat="44.48099" lon="5.58059">
        <ele>1142.76</ele>
        <time>2018-06-17T11:49:01Z</time>
      </trkpt>
      <trkpt lat="44.48079" lon="5.58033">
        <ele>1144.39</ele>
        <time>2018-06-17T11:49:03Z</time>
      </trkpt>
      <trkpt lat="44.4807" lon="5.58002">
        <ele>1145.44</ele>
        <time>2018-06-17T11:49:05Z</time>
      </trkpt>
      <trkpt lat="44.48079" lon="5.57967">
        <ele>1148.55</ele>
        <time>2018-06-17T11:49:07Z</time>
      </trkpt>
      <trkpt lat="44.48084" lon="5.57928">
        <ele>1151.98</ele>
        <time>2018-06-17T11:49:09Z</time>
      </trkpt>
      <trkpt lat="44.48084" lon="5.57888">
        <ele>1153.9</ele>
        <time>2018-06-17T11:49:11Z</time>
      </trkpt>
      <trkpt lat="44.48091" lon="5.57854">
        <ele>1156.1</ele>
        <time>2018-06-17T11:49:13Z</time>
      </trkpt>
      <trkpt lat="44.48101" lon="5.57819">
        <ele>1159.03</ele>
        <time>2018-06-17T11:49:15Z</time>
      </trkpt>
      <trkpt lat="44.48109" lon="5.57783">
        <ele>1160.2</ele>
        <time>2018-06-17T11:49:17Z</time>
      </trkpt>
      <trkpt lat="44.48117" lon="5.57745">
        <ele>1161.43</ele>
        <time>2018-06-17T11:49:19Z</time>
      </trkpt>
      <trkpt lat="44.48124" lon="5.57702">
        <ele>1164.06</ele>
        <time>2018-06-17T11:49:21Z</time>
      </trkpt>
      <trkpt lat="44.48125" lon="5.57656">
        <ele>1165.2</ele>
        <time>2018-06-17T11:49:23Z</time>
      </trkpt>
      <trkpt lat="44.48125" lon="5.57611">
        <ele>1167.83</ele>
        <time>2018-06-17T11:49:25Z</time>
      </trkpt>
      <trkpt lat="44.48124" lon="5.57567">
        <ele>1169.18</ele>
        <time>2018-06-17T11:49:27Z</time>
      </trkpt>
      <trkpt lat="44.48127" lon="5.57525">
        <ele>1171.13</ele>
        <time>2018-06-17T11:49:29Z</time>
      </trkpt>
      <trkpt lat="44.48138" lon="5.57494">
        <ele>1173.12</ele>
        <time>2018-06-17T11:49:31Z</time>
      </trkpt>
      <trkpt lat="44.48155" lon="5.57473">
        <ele>1176.52</ele>
        <time>2018-06-17T11:49:33Z</time>
      </trkpt>
      <trkpt lat="44.4816" lon="5.57442">
        <ele>1179.77</ele>
        <time>2018-06-17T11:49:35Z</time>
      </trkpt>
      <trkpt lat="44.48161" lon="5.57411">
        <ele>1183</ele>
        <time>2018-06-17T11:49:37Z</time>
      </trkpt>
      <trkpt lat="44.48142" lon="5.57407">
        <ele>1185.22</ele>
        <time>2018-06-17T11:49:41Z</time>
      </trkpt>
      <trkpt lat="44.48132" lon="5.57436">
        <ele>1187.42</ele>
        <time>2018-06-17T11:49:44Z</time>
      </trkpt>
      <trkpt lat="44.48115" lon="5.57444">
        <ele>1190.12</ele>
        <time>2018-06-17T11:50:24Z</time>
      </trkpt>
      <trkpt lat="44.48115" lon="5.57413">
        <ele>1193.24</ele>
        <time>2018-06-17T11:50:29Z</time>
      </trkpt>
      <trkpt lat="44.48108" lon="5.57384">
        <ele>1196.97</ele>
        <time>2018-06-17T11:50:33Z</time>
      </trkpt>
      <trkpt lat="44.48098" lon="5.57357">
        <ele>1198.22</ele>
        <time>2018-06-17T11:50:37Z</time>
      </trkpt>
      <trkpt lat="44.48087" lon="5.57331">
        <ele>1198.82</ele>
        <time>2018-06-17T11:50:41Z</time>
      </trkpt>
      <trkpt lat="44.48074" lon="5.57304">
        <ele>1199.52</ele>
        <time>2018-06-17T11:50:45Z</time>
      </trkpt>
      <trkpt lat="44.48067" lon="5.57276">
        <ele>1202.23</ele>
        <time>2018-06-17T11:50:49Z</time>
      </trkpt>
      <trkpt lat="44.4805" lon="5.57286">
        <ele>1208.32</ele>
        <time>2018-06-17T11:50:54Z</time>
      </trkpt>
      <trkpt lat="44.48044" lon="5.57316">
        <ele>1210.45</ele>
        <time>2018-06-17T11:50:58Z</time>
      </trkpt>
      <trkpt lat="44.48035" lon="5.57347">
        <ele>1215.05</ele>
        <time>2018-06-17T11:51:02Z</time>
      </trkpt>
      <trkpt lat="44.48027" lon="5.57372">
        <ele>1216.58</ele>
        <time>2018-06-17T11:51:06Z</time>
      </trkpt>
      <trkpt lat="44.48011" lon="5.57356">
        <ele>1219.86</ele>
        <time>2018-06-17T11:51:13Z</time>
      </trkpt>
      <trkpt lat="44.48018" lon="5.57327">
        <ele>1221.55</ele>
        <time>2018-06-17T11:51:45Z</time>
      </trkpt>
      <trkpt lat="44.4802" lon="5.57302">
        <ele>1225.25</ele>
        <time>2018-06-17T11:51:48Z</time>
      </trkpt>
      <trkpt lat="44.48017" lon="5.57276">
        <ele>1226.24</ele>
        <time>2018-06-17T11:51:51Z</time>
      </trkpt>
      <trkpt lat="44.48013" lon="5.57248">
        <ele>1227.45</ele>
        <time>2018-06-17T11:51:54Z</time>
      </trkpt>
      <trkpt lat="44.4801" lon="5.5722">
        <ele>1229.16</ele>
        <time>2018-06-17T11:51:57Z</time>
      </trkpt>
      <trkpt lat="44.48009" lon="5.57191">
        <ele>1232.82</ele>
        <time>2018-06-17T11:52:00Z</time>
      </trkpt>
      <trkpt lat="44.48012" lon="5.57166">
        <ele>1235.41</ele>
        <time>2018-06-17T11:52:03Z</time>
      </trkpt>
      <trkpt lat="44.48025" lon="5.57149">
        <ele>1236.45</ele>
        <time>2018-06-17T11:52:06Z</time>
      </trkpt>
      <trkpt lat="44.48049" lon="5.57143">
        <ele>1238.43</ele>
        <time>2018-06-17T11:52:10Z</time>
      </trkpt>
      <trkpt lat="44.4807" lon="5.57144">
        <ele>1238.54</ele>
        <time>2018-06-17T11:52:13Z</time>
      </trkpt>
      <trkpt lat="44.4809" lon="5.57143">
        <ele>1238.55</ele>
        <time>2018-06-17T11:52:16Z</time>
      </trkpt>
      <trkpt lat="44.48108" lon="5.57137">
        <ele>1239.95</ele>
        <time>2018-06-17T11:52:19Z</time>
      </trkpt>
      <trkpt lat="44.48114" lon="5.57111">
        <ele>1243.21</ele>
        <time>2018-06-17T11:52:23Z</time>
      </trkpt>
      <trkpt lat="44.48128" lon="5.5709">
        <ele>1242.84</ele>
        <time>2018-06-17T11:52:26Z</time>
      </trkpt>
      <trkpt lat="44.48147" lon="5.57079">
        <ele>1243.54</ele>
        <time>2018-06-17T11:52:30Z</time>
      </trkpt>
      <trkpt lat="44.48168" lon="5.57074">
        <ele>1242.85</ele>
        <time>2018-06-17T11:52:33Z</time>
      </trkpt>
      <trkpt lat="44.48192" lon="5.57076">
        <ele>1240.88</ele>
        <time>2018-06-17T11:52:36Z</time>
      </trkpt>
      <trkpt lat="44.48215" lon="5.5708">
        <ele>1239.58</ele>
        <time>2018-06-17T11:52:39Z</time>
      </trkpt>
      <trkpt lat="44.4824" lon="5.5708">
        <ele>1238.58</ele>
        <time>2018-06-17T11:52:42Z</time>
      </trkpt>
      <trkpt lat="44.48264" lon="5.57079">
        <ele>1236.73</ele>
        <time>2018-06-17T11:52:45Z</time>
      </trkpt>
      <trkpt lat="44.48283" lon="5.5708">
        <ele>1236.4</ele>
        <time>2018-06-17T11:52:50Z</time>
      </trkpt>
      <trkpt lat="44.4829" lon="5.57053">
        <ele>1237.55</ele>
        <time>2018-06-17T11:52:55Z</time>
      </trkpt>
      <trkpt lat="44.48293" lon="5.57023">
        <ele>1235.86</ele>
        <time>2018-06-17T11:52:59Z</time>
      </trkpt>
      <trkpt lat="44.483" lon="5.57">
        <ele>1235.56</ele>
        <time>2018-06-17T11:53:02Z</time>
      </trkpt>
      <trkpt lat="44.48316" lon="5.56976">
        <ele>1233.45</ele>
        <time>2018-06-17T11:53:06Z</time>
      </trkpt>
      <trkpt lat="44.48334" lon="5.56962">
        <ele>1231.87</ele>
        <time>2018-06-17T11:53:09Z</time>
      </trkpt>
      <trkpt lat="44.48349" lon="5.56944">
        <ele>1230.58</ele>
        <time>2018-06-17T11:53:12Z</time>
      </trkpt>
      <trkpt lat="44.48362" lon="5.56924">
        <ele>1228.46</ele>
        <time>2018-06-17T11:53:15Z</time>
      </trkpt>
      <trkpt lat="44.48377" lon="5.56897">
        <ele>1226.66</ele>
        <time>2018-06-17T11:53:19Z</time>
      </trkpt>
      <trkpt lat="44.48384" lon="5.56874">
        <ele>1225.58</ele>
        <time>2018-06-17T11:53:22Z</time>
      </trkpt>
      <trkpt lat="44.4839" lon="5.56841">
        <ele>1224.37</ele>
        <time>2018-06-17T11:53:26Z</time>
      </trkpt>
      <trkpt lat="44.48396" lon="5.56815">
        <ele>1223.84</ele>
        <time>2018-06-17T11:53:29Z</time>
      </trkpt>
      <trkpt lat="44.48403" lon="5.56788">
        <ele>1225.44</ele>
        <time>2018-06-17T11:53:32Z</time>
      </trkpt>
      <trkpt lat="44.48413" lon="5.56759">
        <ele>1225.76</ele>
        <time>2018-06-17T11:53:36Z</time>
      </trkpt>
      <trkpt lat="44.48425" lon="5.56738">
        <ele>1224.58</ele>
        <time>2018-06-17T11:53:39Z</time>
      </trkpt>
      <trkpt lat="44.48436" lon="5.56717">
        <ele>1223.58</ele>
        <time>2018-06-17T11:53:42Z</time>
      </trkpt>
      <trkpt lat="44.4844" lon="5.5669">
        <ele>1224.25</ele>
        <time>2018-06-17T11:53:46Z</time>
      </trkpt>
      <trkpt lat="44.48431" lon="5.56663">
        <ele>1226.16</ele>
        <time>2018-06-17T11:53:51Z</time>
      </trkpt>
      <trkpt lat="44.48417" lon="5.56647">
        <ele>1225.56</ele>
        <time>2018-06-17T11:53:54Z</time>
      </trkpt>
      <trkpt lat="44.48405" lon="5.56626">
        <ele>1225.55</ele>
        <time>2018-06-17T11:53:57Z</time>
      </trkpt>
      <trkpt lat="44.48395" lon="5.566">
        <ele>1226.46</ele>
        <time>2018-06-17T11:54:00Z</time>
      </trkpt>
      <trkpt lat="44.48387" lon="5.56569">
        <ele>1223.9</ele>
        <time>2018-06-17T11:54:03Z</time>
      </trkpt>
      <trkpt lat="44.48382" lon="5.5654">
        <ele>1223.49</ele>
        <time>2018-06-17T11:54:06Z</time>
      </trkpt>
      <trkpt lat="44.48376" lon="5.56511">
        <ele>1223.34</ele>
        <time>2018-06-17T11:54:09Z</time>
      </trkpt>
      <trkpt lat="44.4837" lon="5.56483">
        <ele>1223.05</ele>
        <time>2018-06-17T11:54:12Z</time>
      </trkpt>
      <trkpt lat="44.4837" lon="5.56454">
        <ele>1222.62</ele>
        <time>2018-06-17T11:54:16Z</time>
      </trkpt>
      <trkpt lat="44.48386" lon="5.5643">
        <ele>1222.84</ele>
        <time>2018-06-17T11:54:20Z</time>
      </trkpt>
      <trkpt lat="44.48392" lon="5.56404">
        <ele>1222.55</ele>
        <time>2018-06-17T11:54:24Z</time>
      </trkpt>
      <trkpt lat="44.48385" lon="5.5638">
        <ele>1220.67</ele>
        <time>2018-06-17T11:54:28Z</time>
      </trkpt>
      <trkpt lat="44.48367" lon="5.56361">
        <ele>1221.54</ele>
        <time>2018-06-17T11:54:32Z</time>
      </trkpt>
      <trkpt lat="44.48344" lon="5.56354">
        <ele>1222.54</ele>
        <time>2018-06-17T11:54:36Z</time>
      </trkpt>
      <trkpt lat="44.48323" lon="5.56351">
        <ele>1223.73</ele>
        <time>2018-06-17T11:54:39Z</time>
      </trkpt>
      <trkpt lat="44.48301" lon="5.56353">
        <ele>1225.44</ele>
        <time>2018-06-17T11:54:42Z</time>
      </trkpt>
      <trkpt lat="44.48283" lon="5.56352">
        <ele>1224.63</ele>
        <time>2018-06-17T11:54:44Z</time>
      </trkpt>
      <trkpt lat="44.48263" lon="5.56348">
        <ele>1223.86</ele>
        <time>2018-06-17T11:54:46Z</time>
      </trkpt>
      <trkpt lat="44.48244" lon="5.56346">
        <ele>1222.67</ele>
        <time>2018-06-17T11:54:48Z</time>
      </trkpt>
      <trkpt lat="44.48226" lon="5.56343">
        <ele>1224.38</ele>
        <time>2018-06-17T11:54:50Z</time>
      </trkpt>
      <trkpt lat="44.48208" lon="5.56342">
        <ele>1224.74</ele>
        <time>2018-06-17T11:54:52Z</time>
      </trkpt>
      <trkpt lat="44.48183" lon="5.56341">
        <ele>1224.55</ele>
        <time>2018-06-17T11:54:55Z</time>
      </trkpt>
      <trkpt lat="44.48161" lon="5.56343">
        <ele>1225.46</ele>
        <time>2018-06-17T11:54:57Z</time>
      </trkpt>
      <trkpt lat="44.48137" lon="5.56342">
        <ele>1225.33</ele>
        <time>2018-06-17T11:54:59Z</time>
      </trkpt>
      <trkpt lat="44.48113" lon="5.56347">
        <ele>1223.92</ele>
        <time>2018-06-17T11:55:01Z</time>
      </trkpt>
      <trkpt lat="44.48088" lon="5.56349">
        <ele>1221.97</ele>
        <time>2018-06-17T11:55:03Z</time>
      </trkpt>
      <trkpt lat="44.48063" lon="5.56351">
        <ele>1221.59</ele>
        <time>2018-06-17T11:55:05Z</time>
      </trkpt>
      <trkpt lat="44.48041" lon="5.56353">
        <ele>1222.46</ele>
        <time>2018-06-17T11:55:07Z</time>
      </trkpt>
      <trkpt lat="44.48019" lon="5.56357">
        <ele>1223.45</ele>
        <time>2018-06-17T11:55:09Z</time>
      </trkpt>
      <trkpt lat="44.47998" lon="5.5636">
        <ele>1224.45</ele>
        <time>2018-06-17T11:55:11Z</time>
      </trkpt>
      <trkpt lat="44.47974" lon="5.56363">
        <ele>1223.36</ele>
        <time>2018-06-17T11:55:14Z</time>
      </trkpt>
      <trkpt lat="44.47955" lon="5.56366">
        <ele>1222.48</ele>
        <time>2018-06-17T11:55:37Z</time>
      </trkpt>
      <trkpt lat="44.4793" lon="5.56367">
        <ele>1223.52</ele>
        <time>2018-06-17T11:55:40Z</time>
      </trkpt>
      <trkpt lat="44.47909" lon="5.56368">
        <ele>1224.46</ele>
        <time>2018-06-17T11:55:43Z</time>
      </trkpt>
      <trkpt lat="44.47889" lon="5.56367">
        <ele>1223</ele>
        <time>2018-06-17T11:55:46Z</time>
      </trkpt>
      <trkpt lat="44.47868" lon="5.56364">
        <ele>1220.25</ele>
        <time>2018-06-17T11:55:49Z</time>
      </trkpt>
      <trkpt lat="44.47844" lon="5.56366">
        <ele>1218.72</ele>
        <time>2018-06-17T11:55:52Z</time>
      </trkpt>
      <trkpt lat="44.47823" lon="5.56367">
        <ele>1218.76</ele>
        <time>2018-06-17T11:55:55Z</time>
      </trkpt>
      <trkpt lat="44.47804" lon="5.56375">
        <ele>1218.55</ele>
        <time>2018-06-17T11:55:58Z</time>
      </trkpt>
      <trkpt lat="44.47786" lon="5.5638">
        <ele>1215.76</ele>
        <time>2018-06-17T11:56:01Z</time>
      </trkpt>
      <trkpt lat="44.47767" lon="5.56386">
        <ele>1215.34</ele>
        <time>2018-06-17T11:56:05Z</time>
      </trkpt>
      <trkpt lat="44.47745" lon="5.56392">
        <ele>1213.44</ele>
        <time>2018-06-17T11:56:10Z</time>
      </trkpt>
      <trkpt lat="44.47723" lon="5.56394">
        <ele>1215.15</ele>
        <time>2018-06-17T11:56:13Z</time>
      </trkpt>
      <trkpt lat="44.47704" lon="5.56403">
        <ele>1214.63</ele>
        <time>2018-06-17T11:56:16Z</time>
      </trkpt>
      <trkpt lat="44.47687" lon="5.56415">
        <ele>1213.58</ele>
        <time>2018-06-17T11:56:19Z</time>
      </trkpt>
      <trkpt lat="44.47666" lon="5.56422">
        <ele>1213.28</ele>
        <time>2018-06-17T11:56:22Z</time>
      </trkpt>
      <trkpt lat="44.47646" lon="5.56431">
        <ele>1215.42</ele>
        <time>2018-06-17T11:56:25Z</time>
      </trkpt>
      <trkpt lat="44.47626" lon="5.56439">
        <ele>1217.22</ele>
        <time>2018-06-17T11:56:28Z</time>
      </trkpt>
      <trkpt lat="44.47607" lon="5.56451">
        <ele>1215.87</ele>
        <time>2018-06-17T11:56:31Z</time>
      </trkpt>
      <trkpt lat="44.47586" lon="5.56459">
        <ele>1218.2</ele>
        <time>2018-06-17T11:56:34Z</time>
      </trkpt>
      <trkpt lat="44.47568" lon="5.56468">
        <ele>1218.54</ele>
        <time>2018-06-17T11:56:37Z</time>
      </trkpt>
      <trkpt lat="44.47549" lon="5.5648">
        <ele>1220.22</ele>
        <time>2018-06-17T11:56:40Z</time>
      </trkpt>
      <trkpt lat="44.47528" lon="5.56494">
        <ele>1220.6</ele>
        <time>2018-06-17T11:56:43Z</time>
      </trkpt>
      <trkpt lat="44.47507" lon="5.56511">
        <ele>1219.85</ele>
        <time>2018-06-17T11:56:46Z</time>
      </trkpt>
      <trkpt lat="44.47488" lon="5.56531">
        <ele>1221.23</ele>
        <time>2018-06-17T11:56:49Z</time>
      </trkpt>
      <trkpt lat="44.47468" lon="5.56546">
        <ele>1223.15</ele>
        <time>2018-06-17T11:56:52Z</time>
      </trkpt>
      <trkpt lat="44.47449" lon="5.56564">
        <ele>1227.03</ele>
        <time>2018-06-17T11:56:55Z</time>
      </trkpt>
      <trkpt lat="44.4743" lon="5.56577">
        <ele>1228.51</ele>
        <time>2018-06-17T11:56:58Z</time>
      </trkpt>
      <trkpt lat="44.47414" lon="5.56592">
        <ele>1229.25</ele>
        <time>2018-06-17T11:57:01Z</time>
      </trkpt>
      <trkpt lat="44.47397" lon="5.5661">
        <ele>1230.24</ele>
        <time>2018-06-17T11:57:04Z</time>
      </trkpt>
      <trkpt lat="44.47383" lon="5.56627">
        <ele>1231.51</ele>
        <time>2018-06-17T11:57:07Z</time>
      </trkpt>
      <trkpt lat="44.47367" lon="5.56643">
        <ele>1231.76</ele>
        <time>2018-06-17T11:57:10Z</time>
      </trkpt>
      <trkpt lat="44.47347" lon="5.56661">
        <ele>1232.52</ele>
        <time>2018-06-17T11:57:14Z</time>
      </trkpt>
      <trkpt lat="44.47332" lon="5.56678">
        <ele>1234.22</ele>
        <time>2018-06-17T11:57:17Z</time>
      </trkpt>
      <trkpt lat="44.47318" lon="5.56696">
        <ele>1236.49</ele>
        <time>2018-06-17T11:57:20Z</time>
      </trkpt>
      <trkpt lat="44.47299" lon="5.56712">
        <ele>1237.46</ele>
        <time>2018-06-17T11:57:24Z</time>
      </trkpt>
      <trkpt lat="44.47282" lon="5.56726">
        <ele>1241.04</ele>
        <time>2018-06-17T11:57:28Z</time>
      </trkpt>
      <trkpt lat="44.4726" lon="5.56743">
        <ele>1243.78</ele>
        <time>2018-06-17T11:57:32Z</time>
      </trkpt>
      <trkpt lat="44.47244" lon="5.56757">
        <ele>1242.85</ele>
        <time>2018-06-17T11:57:35Z</time>
      </trkpt>
      <trkpt lat="44.47229" lon="5.56773">
        <ele>1243.32</ele>
        <time>2018-06-17T11:57:38Z</time>
      </trkpt>
      <trkpt lat="44.47213" lon="5.56791">
        <ele>1243.33</ele>
        <time>2018-06-17T11:57:41Z</time>
      </trkpt>
      <trkpt lat="44.47195" lon="5.5681">
        <ele>1243.54</ele>
        <time>2018-06-17T11:57:44Z</time>
      </trkpt>
      <trkpt lat="44.47175" lon="5.56831">
        <ele>1242.64</ele>
        <time>2018-06-17T11:57:47Z</time>
      </trkpt>
      <trkpt lat="44.47158" lon="5.56852">
        <ele>1243.46</ele>
        <time>2018-06-17T11:57:50Z</time>
      </trkpt>
      <trkpt lat="44.4714" lon="5.56873">
        <ele>1245.22</ele>
        <time>2018-06-17T11:57:54Z</time>
      </trkpt>
      <trkpt lat="44.47123" lon="5.56888">
        <ele>1245.54</ele>
        <time>2018-06-17T11:57:57Z</time>
      </trkpt>
      <trkpt lat="44.47104" lon="5.569">
        <ele>1246.52</ele>
        <time>2018-06-17T11:58:01Z</time>
      </trkpt>
      <trkpt lat="44.47086" lon="5.56909">
        <ele>1247.25</ele>
        <time>2018-06-17T11:58:04Z</time>
      </trkpt>
      <trkpt lat="44.47067" lon="5.56918">
        <ele>1247.54</ele>
        <time>2018-06-17T11:58:07Z</time>
      </trkpt>
      <trkpt lat="44.47046" lon="5.56927">
        <ele>1249.22</ele>
        <time>2018-06-17T11:58:10Z</time>
      </trkpt>
      <trkpt lat="44.47025" lon="5.56936">
        <ele>1251.42</ele>
        <time>2018-06-17T11:58:13Z</time>
      </trkpt>
      <trkpt lat="44.47006" lon="5.56945">
        <ele>1252.39</ele>
        <time>2018-06-17T11:58:16Z</time>
      </trkpt>
      <trkpt lat="44.46987" lon="5.56954">
        <ele>1252.48</ele>
        <time>2018-06-17T11:58:19Z</time>
      </trkpt>
      <trkpt lat="44.46967" lon="5.56963">
        <ele>1253.25</ele>
        <time>2018-06-17T11:58:22Z</time>
      </trkpt>
      <trkpt lat="44.46945" lon="5.5697">
        <ele>1256.42</ele>
        <time>2018-06-17T11:58:26Z</time>
      </trkpt>
      <trkpt lat="44.46926" lon="5.56971">
        <ele>1260.22</ele>
        <time>2018-06-17T11:58:31Z</time>
      </trkpt>
      <trkpt lat="44.46905" lon="5.56972">
        <ele>1259.43</ele>
        <time>2018-06-17T11:58:35Z</time>
      </trkpt>
      <trkpt lat="44.46886" lon="5.56971">
        <ele>1260.52</ele>
        <time>2018-06-17T11:58:50Z</time>
      </trkpt>
      <trkpt lat="44.46864" lon="5.56968">
        <ele>1260.55</ele>
        <time>2018-06-17T11:58:53Z</time>
      </trkpt>
      <trkpt lat="44.4684" lon="5.56967">
        <ele>1263.07</ele>
        <time>2018-06-17T11:58:56Z</time>
      </trkpt>
      <trkpt lat="44.4682" lon="5.56967">
        <ele>1263.74</ele>
        <time>2018-06-17T11:58:59Z</time>
      </trkpt>
      <trkpt lat="44.46798" lon="5.56966">
        <ele>1263.55</ele>
        <time>2018-06-17T11:59:02Z</time>
      </trkpt>
      <trkpt lat="44.46776" lon="5.56959">
        <ele>1264.52</ele>
        <time>2018-06-17T11:59:05Z</time>
      </trkpt>
      <trkpt lat="44.46755" lon="5.56961">
        <ele>1263.57</ele>
        <time>2018-06-17T11:59:08Z</time>
      </trkpt>
      <trkpt lat="44.46731" lon="5.56963">
        <ele>1264.79</ele>
        <time>2018-06-17T11:59:11Z</time>
      </trkpt>
      <trkpt lat="44.46705" lon="5.56965">
        <ele>1264.28</ele>
        <time>2018-06-17T11:59:14Z</time>
      </trkpt>
      <trkpt lat="44.46679" lon="5.56966">
        <ele>1263.84</ele>
        <time>2018-06-17T11:59:17Z</time>
      </trkpt>
      <trkpt lat="44.46654" lon="5.56967">
        <ele>1264.26</ele>
        <time>2018-06-17T11:59:20Z</time>
      </trkpt>
      <trkpt lat="44.4663" lon="5.56969">
        <ele>1264.54</ele>
        <time>2018-06-17T11:59:23Z</time>
      </trkpt>
      <trkpt lat="44.46605" lon="5.56973">
        <ele>1265.25</ele>
        <time>2018-06-17T11:59:26Z</time>
      </trkpt>
      <trkpt lat="44.46586" lon="5.56978">
        <ele>1267.21</ele>
        <time>2018-06-17T11:59:29Z</time>
      </trkpt>
      <trkpt lat="44.46584" lon="5.56951">
        <ele>1265.58</ele>
        <time>2018-06-17T12:00:32Z</time>
      </trkpt>
      <trkpt lat="44.46599" lon="5.56927">
        <ele>1262.67</ele>
        <time>2018-06-17T12:00:37Z</time>
      </trkpt>
      <trkpt lat="44.46609" lon="5.56905">
        <ele>1261.58</ele>
        <time>2018-06-17T12:00:40Z</time>
      </trkpt>
      <trkpt lat="44.46622" lon="5.56885">
        <ele>1260.79</ele>
        <time>2018-06-17T12:00:43Z</time>
      </trkpt>
      <trkpt lat="44.46635" lon="5.56863">
        <ele>1259.85</ele>
        <time>2018-06-17T12:00:46Z</time>
      </trkpt>
      <trkpt lat="44.46649" lon="5.56842">
        <ele>1261.17</ele>
        <time>2018-06-17T12:00:49Z</time>
      </trkpt>
      <trkpt lat="44.46662" lon="5.5682">
        <ele>1263.15</ele>
        <time>2018-06-17T12:00:52Z</time>
      </trkpt>
      <trkpt lat="44.46674" lon="5.568">
        <ele>1262.29</ele>
        <time>2018-06-17T12:00:55Z</time>
      </trkpt>
      <trkpt lat="44.46686" lon="5.56781">
        <ele>1261.78</ele>
        <time>2018-06-17T12:00:59Z</time>
      </trkpt>
      <trkpt lat="44.46668" lon="5.568">
        <ele>1262.15</ele>
        <time>2018-06-17T12:02:23Z</time>
      </trkpt>
      <trkpt lat="44.46652" lon="5.56816">
        <ele>1260.86</ele>
        <time>2018-06-17T12:02:26Z</time>
      </trkpt>
      <trkpt lat="44.46634" lon="5.56833">
        <ele>1259.58</ele>
        <time>2018-06-17T12:02:29Z</time>
      </trkpt>
      <trkpt lat="44.46617" lon="5.5685">
        <ele>1257.88</ele>
        <time>2018-06-17T12:02:32Z</time>
      </trkpt>
      <trkpt lat="44.46603" lon="5.56866">
        <ele>1256.65</ele>
        <time>2018-06-17T12:02:35Z</time>
      </trkpt>
      <trkpt lat="44.46582" lon="5.56884">
        <ele>1254.88</ele>
        <time>2018-06-17T12:02:39Z</time>
      </trkpt>
      <trkpt lat="44.46564" lon="5.56899">
        <ele>1253.58</ele>
        <time>2018-06-17T12:02:42Z</time>
      </trkpt>
      <trkpt lat="44.46546" lon="5.56913">
        <ele>1251.94</ele>
        <time>2018-06-17T12:02:45Z</time>
      </trkpt>
      <trkpt lat="44.46529" lon="5.56923">
        <ele>1252.26</ele>
        <time>2018-06-17T12:02:48Z</time>
      </trkpt>
      <trkpt lat="44.46512" lon="5.56933">
        <ele>1251.16</ele>
        <time>2018-06-17T12:02:52Z</time>
      </trkpt>
      <trkpt lat="44.46495" lon="5.56941">
        <ele>1249.51</ele>
        <time>2018-06-17T12:02:55Z</time>
      </trkpt>
      <trkpt lat="44.46476" lon="5.56947">
        <ele>1249.34</ele>
        <time>2018-06-17T12:02:58Z</time>
      </trkpt>
      <trkpt lat="44.46458" lon="5.56956">
        <ele>1247.87</ele>
        <time>2018-06-17T12:03:01Z</time>
      </trkpt>
      <trkpt lat="44.46438" lon="5.56966">
        <ele>1245.67</ele>
        <time>2018-06-17T12:03:05Z</time>
      </trkpt>
      <trkpt lat="44.46421" lon="5.56976">
        <ele>1243.03</ele>
        <time>2018-06-17T12:03:08Z</time>
      </trkpt>
      <trkpt lat="44.46403" lon="5.56996">
        <ele>1242.28</ele>
        <time>2018-06-17T12:03:12Z</time>
      </trkpt>
      <trkpt lat="44.46385" lon="5.57011">
        <ele>1239.6</ele>
        <time>2018-06-17T12:03:17Z</time>
      </trkpt>
      <trkpt lat="44.46364" lon="5.57026">
        <ele>1237.86</ele>
        <time>2018-06-17T12:03:21Z</time>
      </trkpt>
      <trkpt lat="44.46345" lon="5.57039">
        <ele>1235.88</ele>
        <time>2018-06-17T12:03:25Z</time>
      </trkpt>
      <trkpt lat="44.46328" lon="5.57053">
        <ele>1232.95</ele>
        <time>2018-06-17T12:03:29Z</time>
      </trkpt>
      <trkpt lat="44.46313" lon="5.57068">
        <ele>1231.64</ele>
        <time>2018-06-17T12:03:33Z</time>
      </trkpt>
      <trkpt lat="44.46296" lon="5.57081">
        <ele>1230.23</ele>
        <time>2018-06-17T12:03:37Z</time>
      </trkpt>
      <trkpt lat="44.46276" lon="5.5709">
        <ele>1228.64</ele>
        <time>2018-06-17T12:03:41Z</time>
      </trkpt>
      <trkpt lat="44.46258" lon="5.57092">
        <ele>1227.58</ele>
        <time>2018-06-17T12:03:44Z</time>
      </trkpt>
      <trkpt lat="44.46236" lon="5.571">
        <ele>1225.73</ele>
        <time>2018-06-17T12:03:48Z</time>
      </trkpt>
      <trkpt lat="44.46217" lon="5.57104">
        <ele>1225.34</ele>
        <time>2018-06-17T12:03:51Z</time>
      </trkpt>
      <trkpt lat="44.46194" lon="5.57114">
        <ele>1223.85</ele>
        <time>2018-06-17T12:03:55Z</time>
      </trkpt>
      <trkpt lat="44.46176" lon="5.57118">
        <ele>1223.62</ele>
        <time>2018-06-17T12:03:58Z</time>
      </trkpt>
      <trkpt lat="44.46156" lon="5.57131">
        <ele>1219.55</ele>
        <time>2018-06-17T12:04:02Z</time>
      </trkpt>
      <trkpt lat="44.46134" lon="5.57134">
        <ele>1217.65</ele>
        <time>2018-06-17T12:04:06Z</time>
      </trkpt>
      <trkpt lat="44.46112" lon="5.57131">
        <ele>1218.23</ele>
        <time>2018-06-17T12:04:10Z</time>
      </trkpt>
      <trkpt lat="44.46095" lon="5.57145">
        <ele>1215.88</ele>
        <time>2018-06-17T12:04:14Z</time>
      </trkpt>
      <trkpt lat="44.46076" lon="5.57158">
        <ele>1211.29</ele>
        <time>2018-06-17T12:04:18Z</time>
      </trkpt>
      <trkpt lat="44.46055" lon="5.57161">
        <ele>1209.64</ele>
        <time>2018-06-17T12:04:22Z</time>
      </trkpt>
      <trkpt lat="44.46034" lon="5.5716">
        <ele>1207.58</ele>
        <time>2018-06-17T12:04:26Z</time>
      </trkpt>
      <trkpt lat="44.46013" lon="5.57165">
        <ele>1207.55</ele>
        <time>2018-06-17T12:04:30Z</time>
      </trkpt>
      <trkpt lat="44.45991" lon="5.57174">
        <ele>1206.57</ele>
        <time>2018-06-17T12:04:34Z</time>
      </trkpt>
      <trkpt lat="44.4597" lon="5.57181">
        <ele>1201.9</ele>
        <time>2018-06-17T12:04:38Z</time>
      </trkpt>
      <trkpt lat="44.4595" lon="5.57178">
        <ele>1202.25</ele>
        <time>2018-06-17T12:04:42Z</time>
      </trkpt>
      <trkpt lat="44.45932" lon="5.57173">
        <ele>1202.55</ele>
        <time>2018-06-17T12:04:46Z</time>
      </trkpt>
      <trkpt lat="44.45913" lon="5.57168">
        <ele>1200.94</ele>
        <time>2018-06-17T12:04:50Z</time>
      </trkpt>
      <trkpt lat="44.45895" lon="5.57161">
        <ele>1196.33</ele>
        <time>2018-06-17T12:04:55Z</time>
      </trkpt>
      <trkpt lat="44.45878" lon="5.57147">
        <ele>1195.49</ele>
        <time>2018-06-17T12:04:59Z</time>
      </trkpt>
      <trkpt lat="44.45859" lon="5.57142">
        <ele>1190.96</ele>
        <time>2018-06-17T12:05:03Z</time>
      </trkpt>
      <trkpt lat="44.45843" lon="5.57128">
        <ele>1188.15</ele>
        <time>2018-06-17T12:05:08Z</time>
      </trkpt>
      <trkpt lat="44.45839" lon="5.57098">
        <ele>1180.91</ele>
        <time>2018-06-17T12:05:13Z</time>
      </trkpt>
      <trkpt lat="44.45833" lon="5.57071">
        <ele>1178.58</ele>
        <time>2018-06-17T12:05:18Z</time>
      </trkpt>
      <trkpt lat="44.45826" lon="5.57044">
        <ele>1170.71</ele>
        <time>2018-06-17T12:05:24Z</time>
      </trkpt>
      <trkpt lat="44.45842" lon="5.57056">
        <ele>1165.65</ele>
        <time>2018-06-17T12:05:36Z</time>
      </trkpt>
      <trkpt lat="44.45861" lon="5.57071">
        <ele>1165.16</ele>
        <time>2018-06-17T12:06:01Z</time>
      </trkpt>
      <trkpt lat="44.45877" lon="5.57084">
        <ele>1163.64</ele>
        <time>2018-06-17T12:06:06Z</time>
      </trkpt>
      <trkpt lat="44.45894" lon="5.57079">
        <ele>1163.49</ele>
        <time>2018-06-17T12:06:10Z</time>
      </trkpt>
      <trkpt lat="44.45912" lon="5.57067">
        <ele>1164.79</ele>
        <time>2018-06-17T12:06:14Z</time>
      </trkpt>
      <trkpt lat="44.45928" lon="5.57046">
        <ele>1160.6</ele>
        <time>2018-06-17T12:06:18Z</time>
      </trkpt>
      <trkpt lat="44.45948" lon="5.57037">
        <ele>1160.55</ele>
        <time>2018-06-17T12:06:22Z</time>
      </trkpt>
      <trkpt lat="44.45967" lon="5.57027">
        <ele>1159.64</ele>
        <time>2018-06-17T12:06:26Z</time>
      </trkpt>
      <trkpt lat="44.45986" lon="5.57017">
        <ele>1158.64</ele>
        <time>2018-06-17T12:06:30Z</time>
      </trkpt>
      <trkpt lat="44.46002" lon="5.56998">
        <ele>1157.62</ele>
        <time>2018-06-17T12:06:34Z</time>
      </trkpt>
      <trkpt lat="44.46016" lon="5.5698">
        <ele>1155.59</ele>
        <time>2018-06-17T12:06:38Z</time>
      </trkpt>
      <trkpt lat="44.46028" lon="5.56956">
        <ele>1150.71</ele>
        <time>2018-06-17T12:06:42Z</time>
      </trkpt>
      <trkpt lat="44.4604" lon="5.56931">
        <ele>1145.96</ele>
        <time>2018-06-17T12:06:46Z</time>
      </trkpt>
      <trkpt lat="44.46055" lon="5.56916">
        <ele>1143.92</ele>
        <time>2018-06-17T12:06:50Z</time>
      </trkpt>
      <trkpt lat="44.46074" lon="5.56925">
        <ele>1141.86</ele>
        <time>2018-06-17T12:06:55Z</time>
      </trkpt>
      <trkpt lat="44.46093" lon="5.56919">
        <ele>1139.57</ele>
        <time>2018-06-17T12:06:59Z</time>
      </trkpt>
      <trkpt lat="44.46112" lon="5.56904">
        <ele>1138.77</ele>
        <time>2018-06-17T12:07:03Z</time>
      </trkpt>
      <trkpt lat="44.46131" lon="5.5689">
        <ele>1136.67</ele>
        <time>2018-06-17T12:07:07Z</time>
      </trkpt>
      <trkpt lat="44.46149" lon="5.56878">
        <ele>1138.58</ele>
        <time>2018-06-17T12:07:11Z</time>
      </trkpt>
      <trkpt lat="44.46166" lon="5.56862">
        <ele>1137.58</ele>
        <time>2018-06-17T12:07:15Z</time>
      </trkpt>
      <trkpt lat="44.46181" lon="5.56847">
        <ele>1134.2</ele>
        <time>2018-06-17T12:07:18Z</time>
      </trkpt>
      <trkpt lat="44.46162" lon="5.5685">
        <ele>1125.46</ele>
        <time>2018-06-17T12:07:37Z</time>
      </trkpt>
      <trkpt lat="44.46145" lon="5.56861">
        <ele>1124.57</ele>
        <time>2018-06-17T12:07:43Z</time>
      </trkpt>
      <trkpt lat="44.46124" lon="5.56847">
        <ele>1124.63</ele>
        <time>2018-06-17T12:07:49Z</time>
      </trkpt>
      <trkpt lat="44.46107" lon="5.56831">
        <ele>1122.5</ele>
        <time>2018-06-17T12:07:53Z</time>
      </trkpt>
      <trkpt lat="44.46087" lon="5.56827">
        <ele>1120.58</ele>
        <time>2018-06-17T12:07:57Z</time>
      </trkpt>
      <trkpt lat="44.46067" lon="5.56842">
        <ele>1116.89</ele>
        <time>2018-06-17T12:08:02Z</time>
      </trkpt>
      <trkpt lat="44.46046" lon="5.56847">
        <ele>1113.92</ele>
        <time>2018-06-17T12:08:07Z</time>
      </trkpt>
      <trkpt lat="44.46028" lon="5.56839">
        <ele>1113.26</ele>
        <time>2018-06-17T12:08:12Z</time>
      </trkpt>
      <trkpt lat="44.46038" lon="5.56817">
        <ele>1109.67</ele>
        <time>2018-06-17T12:08:23Z</time>
      </trkpt>
      <trkpt lat="44.46057" lon="5.56811">
        <ele>1105.65</ele>
        <time>2018-06-17T12:08:31Z</time>
      </trkpt>
      <trkpt lat="44.46071" lon="5.56791">
        <ele>1099.68</ele>
        <time>2018-06-17T12:08:38Z</time>
      </trkpt>
      <trkpt lat="44.46084" lon="5.56773">
        <ele>1097.58</ele>
        <time>2018-06-17T12:08:43Z</time>
      </trkpt>
      <trkpt lat="44.461" lon="5.56759">
        <ele>1094.94</ele>
        <time>2018-06-17T12:08:50Z</time>
      </trkpt>
      <trkpt lat="44.4608" lon="5.56752">
        <ele>1097.46</ele>
        <time>2018-06-17T12:08:57Z</time>
      </trkpt>
      <trkpt lat="44.46066" lon="5.5677">
        <ele>1097.55</ele>
        <time>2018-06-17T12:09:02Z</time>
      </trkpt>
      <trkpt lat="44.46045" lon="5.5678">
        <ele>1096.06</ele>
        <time>2018-06-17T12:09:07Z</time>
      </trkpt>
      <trkpt lat="44.46028" lon="5.56789">
        <ele>1091.06</ele>
        <time>2018-06-17T12:09:13Z</time>
      </trkpt>
      <trkpt lat="44.46034" lon="5.56765">
        <ele>1088.97</ele>
        <time>2018-06-17T12:09:26Z</time>
      </trkpt>
      <trkpt lat="44.46054" lon="5.56746">
        <ele>1084.7</ele>
        <time>2018-06-17T12:09:32Z</time>
      </trkpt>
      <trkpt lat="44.46068" lon="5.56728">
        <ele>1081.9</ele>
        <time>2018-06-17T12:09:36Z</time>
      </trkpt>
      <trkpt lat="44.46087" lon="5.56714">
        <ele>1083.46</ele>
        <time>2018-06-17T12:09:41Z</time>
      </trkpt>
      <trkpt lat="44.46106" lon="5.56705">
        <ele>1082.64</ele>
        <time>2018-06-17T12:09:45Z</time>
      </trkpt>
      <trkpt lat="44.46124" lon="5.56701">
        <ele>1080.18</ele>
        <time>2018-06-17T12:09:49Z</time>
      </trkpt>
      <trkpt lat="44.46107" lon="5.56685">
        <ele>1077.31</ele>
        <time>2018-06-17T12:10:09Z</time>
      </trkpt>
      <trkpt lat="44.46088" lon="5.56684">
        <ele>1076.85</ele>
        <time>2018-06-17T12:10:14Z</time>
      </trkpt>
      <trkpt lat="44.46066" lon="5.56676">
        <ele>1076.33</ele>
        <time>2018-06-17T12:10:19Z</time>
      </trkpt>
      <trkpt lat="44.46047" lon="5.56667">
        <ele>1076.53</ele>
        <time>2018-06-17T12:10:23Z</time>
      </trkpt>
      <trkpt lat="44.46026" lon="5.56672">
        <ele>1069.29</ele>
        <time>2018-06-17T12:10:28Z</time>
      </trkpt>
      <trkpt lat="44.46036" lon="5.5665">
        <ele>1061.58</ele>
        <time>2018-06-17T12:10:45Z</time>
      </trkpt>
      <trkpt lat="44.46056" lon="5.56638">
        <ele>1060.55</ele>
        <time>2018-06-17T12:10:51Z</time>
      </trkpt>
      <trkpt lat="44.46074" lon="5.56633">
        <ele>1059.56</ele>
        <time>2018-06-17T12:10:55Z</time>
      </trkpt>
      <trkpt lat="44.46092" lon="5.56623">
        <ele>1059.14</ele>
        <time>2018-06-17T12:10:59Z</time>
      </trkpt>
      <trkpt lat="44.4611" lon="5.56614">
        <ele>1058.55</ele>
        <time>2018-06-17T12:11:05Z</time>
      </trkpt>
      <trkpt lat="44.46113" lon="5.56586">
        <ele>1049.95</ele>
        <time>2018-06-17T12:11:18Z</time>
      </trkpt>
      <trkpt lat="44.46105" lon="5.56563">
        <ele>1048.55</ele>
        <time>2018-06-17T12:11:23Z</time>
      </trkpt>
      <trkpt lat="44.46098" lon="5.5654">
        <ele>1049.74</ele>
        <time>2018-06-17T12:11:28Z</time>
      </trkpt>
      <trkpt lat="44.46093" lon="5.56514">
        <ele>1039.98</ele>
        <time>2018-06-17T12:11:34Z</time>
      </trkpt>
      <trkpt lat="44.46101" lon="5.56489">
        <ele>1035.95</ele>
        <time>2018-06-17T12:11:40Z</time>
      </trkpt>
      <trkpt lat="44.46111" lon="5.56467">
        <ele>1032.59</ele>
        <time>2018-06-17T12:11:45Z</time>
      </trkpt>
      <trkpt lat="44.46121" lon="5.56444">
        <ele>1029.88</ele>
        <time>2018-06-17T12:11:50Z</time>
      </trkpt>
      <trkpt lat="44.46131" lon="5.56419">
        <ele>1025.97</ele>
        <time>2018-06-17T12:11:55Z</time>
      </trkpt>
      <trkpt lat="44.46138" lon="5.56393">
        <ele>1023.69</ele>
        <time>2018-06-17T12:11:59Z</time>
      </trkpt>
      <trkpt lat="44.46148" lon="5.56367">
        <ele>1020.95</ele>
        <time>2018-06-17T12:12:04Z</time>
      </trkpt>
      <trkpt lat="44.46151" lon="5.56341">
        <ele>1017.18</ele>
        <time>2018-06-17T12:12:09Z</time>
      </trkpt>
      <trkpt lat="44.4616" lon="5.56318">
        <ele>1013.88</ele>
        <time>2018-06-17T12:12:14Z</time>
      </trkpt>
      <trkpt lat="44.46141" lon="5.56323">
        <ele>1010.55</ele>
        <time>2018-06-17T12:12:30Z</time>
      </trkpt>
      <trkpt lat="44.46131" lon="5.56345">
        <ele>1009.85</ele>
        <time>2018-06-17T12:12:35Z</time>
      </trkpt>
      <trkpt lat="44.46118" lon="5.56368">
        <ele>1008.64</ele>
        <time>2018-06-17T12:12:41Z</time>
      </trkpt>
      <trkpt lat="44.46104" lon="5.56388">
        <ele>1006.85</ele>
        <time>2018-06-17T12:12:46Z</time>
      </trkpt>
      <trkpt lat="44.46088" lon="5.56409">
        <ele>1005.58</ele>
        <time>2018-06-17T12:12:51Z</time>
      </trkpt>
      <trkpt lat="44.46079" lon="5.56431">
        <ele>1003.88</ele>
        <time>2018-06-17T12:12:55Z</time>
      </trkpt>
      <trkpt lat="44.46073" lon="5.56456">
        <ele>1002.82</ele>
        <time>2018-06-17T12:13:00Z</time>
      </trkpt>
      <trkpt lat="44.46068" lon="5.56429">
        <ele>999.58</ele>
        <time>2018-06-17T12:13:14Z</time>
      </trkpt>
      <trkpt lat="44.46071" lon="5.56401">
        <ele>998.64</ele>
        <time>2018-06-17T12:13:18Z</time>
      </trkpt>
      <trkpt lat="44.46077" lon="5.56371">
        <ele>994.97</ele>
        <time>2018-06-17T12:13:22Z</time>
      </trkpt>
      <trkpt lat="44.46084" lon="5.56344">
        <ele>992.61</ele>
        <time>2018-06-17T12:13:26Z</time>
      </trkpt>
      <trkpt lat="44.46091" lon="5.56319">
        <ele>991.56</ele>
        <time>2018-06-17T12:13:30Z</time>
      </trkpt>
      <trkpt lat="44.46099" lon="5.56295">
        <ele>988.65</ele>
        <time>2018-06-17T12:13:35Z</time>
      </trkpt>
      <trkpt lat="44.46103" lon="5.56268">
        <ele>986.49</ele>
        <time>2018-06-17T12:13:43Z</time>
      </trkpt>
      <trkpt lat="44.461" lon="5.56239">
        <ele>982.91</ele>
        <time>2018-06-17T12:13:50Z</time>
      </trkpt>
      <trkpt lat="44.46091" lon="5.56209">
        <ele>982.94</ele>
        <time>2018-06-17T12:14:01Z</time>
      </trkpt>
      <trkpt lat="44.46082" lon="5.56186">
        <ele>980.86</ele>
        <time>2018-06-17T12:14:06Z</time>
      </trkpt>
      <trkpt lat="44.46066" lon="5.56164">
        <ele>979.63</ele>
        <time>2018-06-17T12:14:33Z</time>
      </trkpt>
      <trkpt lat="44.46049" lon="5.5615">
        <ele>978.85</ele>
        <time>2018-06-17T12:14:37Z</time>
      </trkpt>
      <trkpt lat="44.4603" lon="5.5615">
        <ele>974.19</ele>
        <time>2018-06-17T12:14:42Z</time>
      </trkpt>
      <trkpt lat="44.46018" lon="5.56131">
        <ele>969</ele>
        <time>2018-06-17T12:14:47Z</time>
      </trkpt>
      <trkpt lat="44.46013" lon="5.56105">
        <ele>967.58</ele>
        <time>2018-06-17T12:14:52Z</time>
      </trkpt>
      <trkpt lat="44.45994" lon="5.56091">
        <ele>967.55</ele>
        <time>2018-06-17T12:14:56Z</time>
      </trkpt>
      <trkpt lat="44.45978" lon="5.56069">
        <ele>966.77</ele>
        <time>2018-06-17T12:15:00Z</time>
      </trkpt>
      <trkpt lat="44.45961" lon="5.56054">
        <ele>964.94</ele>
        <time>2018-06-17T12:15:03Z</time>
      </trkpt>
      <trkpt lat="44.45942" lon="5.5604">
        <ele>962.89</ele>
        <time>2018-06-17T12:15:06Z</time>
      </trkpt>
      <trkpt lat="44.45929" lon="5.56016">
        <ele>960.03</ele>
        <time>2018-06-17T12:15:10Z</time>
      </trkpt>
      <trkpt lat="44.45927" lon="5.55983">
        <ele>954.01</ele>
        <time>2018-06-17T12:15:14Z</time>
      </trkpt>
      <trkpt lat="44.45929" lon="5.55957">
        <ele>951.74</ele>
        <time>2018-06-17T12:15:17Z</time>
      </trkpt>
      <trkpt lat="44.45939" lon="5.55935">
        <ele>950.64</ele>
        <time>2018-06-17T12:15:20Z</time>
      </trkpt>
      <trkpt lat="44.45944" lon="5.55911">
        <ele>948.88</ele>
        <time>2018-06-17T12:15:23Z</time>
      </trkpt>
      <trkpt lat="44.45933" lon="5.55883">
        <ele>947.85</ele>
        <time>2018-06-17T12:15:27Z</time>
      </trkpt>
      <trkpt lat="44.45925" lon="5.55859">
        <ele>944.7</ele>
        <time>2018-06-17T12:15:30Z</time>
      </trkpt>
      <trkpt lat="44.45911" lon="5.55837">
        <ele>942.94</ele>
        <time>2018-06-17T12:15:33Z</time>
      </trkpt>
      <trkpt lat="44.45896" lon="5.5582">
        <ele>942.35</ele>
        <time>2018-06-17T12:15:36Z</time>
      </trkpt>
      <trkpt lat="44.45883" lon="5.55799">
        <ele>940.87</ele>
        <time>2018-06-17T12:15:40Z</time>
      </trkpt>
      <trkpt lat="44.45861" lon="5.55787">
        <ele>937.68</ele>
        <time>2018-06-17T12:15:44Z</time>
      </trkpt>
      <trkpt lat="44.45846" lon="5.55765">
        <ele>938.46</ele>
        <time>2018-06-17T12:15:48Z</time>
      </trkpt>
      <trkpt lat="44.45836" lon="5.55738">
        <ele>935.67</ele>
        <time>2018-06-17T12:15:53Z</time>
      </trkpt>
      <trkpt lat="44.45829" lon="5.55713">
        <ele>932.67</ele>
        <time>2018-06-17T12:15:58Z</time>
      </trkpt>
      <trkpt lat="44.45841" lon="5.55693">
        <ele>928.95</ele>
        <time>2018-06-17T12:16:03Z</time>
      </trkpt>
      <trkpt lat="44.45857" lon="5.55679">
        <ele>925.82</ele>
        <time>2018-06-17T12:16:08Z</time>
      </trkpt>
      <trkpt lat="44.45864" lon="5.55651">
        <ele>924.64</ele>
        <time>2018-06-17T12:16:13Z</time>
      </trkpt>
      <trkpt lat="44.45865" lon="5.55625">
        <ele>924.34</ele>
        <time>2018-06-17T12:16:17Z</time>
      </trkpt>
      <trkpt lat="44.45865" lon="5.55599">
        <ele>922.58</ele>
        <time>2018-06-17T12:16:21Z</time>
      </trkpt>
      <trkpt lat="44.45866" lon="5.55571">
        <ele>918.95</ele>
        <time>2018-06-17T12:16:25Z</time>
      </trkpt>
      <trkpt lat="44.45859" lon="5.55545">
        <ele>915.88</ele>
        <time>2018-06-17T12:16:31Z</time>
      </trkpt>
      <trkpt lat="44.45844" lon="5.55524">
        <ele>911.27</ele>
        <time>2018-06-17T12:16:36Z</time>
      </trkpt>
      <trkpt lat="44.45835" lon="5.55497">
        <ele>908.59</ele>
        <time>2018-06-17T12:16:40Z</time>
      </trkpt>
      <trkpt lat="44.45825" lon="5.55469">
        <ele>905.38</ele>
        <time>2018-06-17T12:16:44Z</time>
      </trkpt>
      <trkpt lat="44.45811" lon="5.55451">
        <ele>902.67</ele>
        <time>2018-06-17T12:16:48Z</time>
      </trkpt>
      <trkpt lat="44.45796" lon="5.55431">
        <ele>901.34</ele>
        <time>2018-06-17T12:16:53Z</time>
      </trkpt>
      <trkpt lat="44.45786" lon="5.55402">
        <ele>900.55</ele>
        <time>2018-06-17T12:16:57Z</time>
      </trkpt>
      <trkpt lat="44.45776" lon="5.5538">
        <ele>898.94</ele>
        <time>2018-06-17T12:17:00Z</time>
      </trkpt>
      <trkpt lat="44.45764" lon="5.55353">
        <ele>895.74</ele>
        <time>2018-06-17T12:17:04Z</time>
      </trkpt>
      <trkpt lat="44.45751" lon="5.55335">
        <ele>896.36</ele>
        <time>2018-06-17T12:17:41Z</time>
      </trkpt>
      <trkpt lat="44.45736" lon="5.5532">
        <ele>893.96</ele>
        <time>2018-06-17T12:17:44Z</time>
      </trkpt>
      <trkpt lat="44.45726" lon="5.55297">
        <ele>893.55</ele>
        <time>2018-06-17T12:17:48Z</time>
      </trkpt>
      <trkpt lat="44.45724" lon="5.55266">
        <ele>892.56</ele>
        <time>2018-06-17T12:17:53Z</time>
      </trkpt>
      <trkpt lat="44.45714" lon="5.55242">
        <ele>888.25</ele>
        <time>2018-06-17T12:17:57Z</time>
      </trkpt>
      <trkpt lat="44.457" lon="5.55225">
        <ele>885.68</ele>
        <time>2018-06-17T12:18:00Z</time>
      </trkpt>
      <trkpt lat="44.45688" lon="5.55197">
        <ele>879.93</ele>
        <time>2018-06-17T12:18:04Z</time>
      </trkpt>
      <trkpt lat="44.45674" lon="5.5517">
        <ele>878.17</ele>
        <time>2018-06-17T12:18:08Z</time>
      </trkpt>
      <trkpt lat="44.45666" lon="5.55147">
        <ele>875.68</ele>
        <time>2018-06-17T12:18:11Z</time>
      </trkpt>
      <trkpt lat="44.45653" lon="5.55128">
        <ele>873.94</ele>
        <time>2018-06-17T12:18:14Z</time>
      </trkpt>
      <trkpt lat="44.4564" lon="5.55107">
        <ele>871.74</ele>
        <time>2018-06-17T12:18:17Z</time>
      </trkpt>
      <trkpt lat="44.45629" lon="5.55084">
        <ele>868.76</ele>
        <time>2018-06-17T12:18:20Z</time>
      </trkpt>
      <trkpt lat="44.45619" lon="5.55059">
        <ele>867.85</ele>
        <time>2018-06-17T12:18:23Z</time>
      </trkpt>
      <trkpt lat="44.4561" lon="5.55033">
        <ele>865.86</ele>
        <time>2018-06-17T12:18:27Z</time>
      </trkpt>
      <trkpt lat="44.456" lon="5.55008">
        <ele>859.59</ele>
        <time>2018-06-17T12:18:58Z</time>
      </trkpt>
      <trkpt lat="44.45589" lon="5.54979">
        <ele>858.64</ele>
        <time>2018-06-17T12:19:02Z</time>
      </trkpt>
      <trkpt lat="44.45577" lon="5.54957">
        <ele>855.97</ele>
        <time>2018-06-17T12:19:05Z</time>
      </trkpt>
      <trkpt lat="44.45565" lon="5.54932">
        <ele>853.25</ele>
        <time>2018-06-17T12:19:08Z</time>
      </trkpt>
      <trkpt lat="44.45554" lon="5.54905">
        <ele>851.8</ele>
        <time>2018-06-17T12:19:11Z</time>
      </trkpt>
      <trkpt lat="44.45542" lon="5.54875">
        <ele>849.86</ele>
        <time>2018-06-17T12:19:15Z</time>
      </trkpt>
      <trkpt lat="44.45526" lon="5.54857">
        <ele>847.67</ele>
        <time>2018-06-17T12:19:19Z</time>
      </trkpt>
      <trkpt lat="44.45509" lon="5.54844">
        <ele>846.58</ele>
        <time>2018-06-17T12:19:22Z</time>
      </trkpt>
      <trkpt lat="44.45502" lon="5.54811">
        <ele>844.86</ele>
        <time>2018-06-17T12:19:26Z</time>
      </trkpt>
      <trkpt lat="44.45502" lon="5.54779">
        <ele>843.22</ele>
        <time>2018-06-17T12:19:29Z</time>
      </trkpt>
      <trkpt lat="44.45502" lon="5.54742">
        <ele>839.98</ele>
        <time>2018-06-17T12:19:32Z</time>
      </trkpt>
      <trkpt lat="44.45501" lon="5.54713">
        <ele>837.89</ele>
        <time>2018-06-17T12:19:35Z</time>
      </trkpt>
      <trkpt lat="44.45492" lon="5.5469">
        <ele>836.31</ele>
        <time>2018-06-17T12:19:38Z</time>
      </trkpt>
      <trkpt lat="44.45481" lon="5.54665">
        <ele>835.78</ele>
        <time>2018-06-17T12:19:41Z</time>
      </trkpt>
      <trkpt lat="44.4547" lon="5.54639">
        <ele>833.88</ele>
        <time>2018-06-17T12:19:44Z</time>
      </trkpt>
      <trkpt lat="44.45453" lon="5.54614">
        <ele>830.97</ele>
        <time>2018-06-17T12:19:47Z</time>
      </trkpt>
      <trkpt lat="44.45435" lon="5.54594">
        <ele>829.86</ele>
        <time>2018-06-17T12:19:50Z</time>
      </trkpt>
      <trkpt lat="44.45415" lon="5.54583">
        <ele>827.88</ele>
        <time>2018-06-17T12:19:53Z</time>
      </trkpt>
      <trkpt lat="44.45397" lon="5.54572">
        <ele>826.65</ele>
        <time>2018-06-17T12:19:56Z</time>
      </trkpt>
      <trkpt lat="44.45382" lon="5.54555">
        <ele>826.16</ele>
        <time>2018-06-17T12:20:30Z</time>
      </trkpt>
      <trkpt lat="44.45373" lon="5.54527">
        <ele>825.55</ele>
        <time>2018-06-17T12:20:34Z</time>
      </trkpt>
      <trkpt lat="44.4536" lon="5.54508">
        <ele>824.58</ele>
        <time>2018-06-17T12:20:37Z</time>
      </trkpt>
      <trkpt lat="44.45345" lon="5.54485">
        <ele>823.85</ele>
        <time>2018-06-17T12:20:41Z</time>
      </trkpt>
      <trkpt lat="44.45346" lon="5.54458">
        <ele>820.89</ele>
        <time>2018-06-17T12:20:45Z</time>
      </trkpt>
      <trkpt lat="44.45358" lon="5.54436">
        <ele>820.55</ele>
        <time>2018-06-17T12:20:49Z</time>
      </trkpt>
      <trkpt lat="44.45339" lon="5.54435">
        <ele>814.84</ele>
        <time>2018-06-17T12:21:31Z</time>
      </trkpt>
      <trkpt lat="44.45329" lon="5.54462">
        <ele>814.55</ele>
        <time>2018-06-17T12:21:35Z</time>
      </trkpt>
      <trkpt lat="44.45319" lon="5.54487">
        <ele>810.97</ele>
        <time>2018-06-17T12:21:39Z</time>
      </trkpt>
      <trkpt lat="44.45307" lon="5.54507">
        <ele>808.67</ele>
        <time>2018-06-17T12:21:43Z</time>
      </trkpt>
      <trkpt lat="44.45287" lon="5.54494">
        <ele>806.58</ele>
        <time>2018-06-17T12:21:47Z</time>
      </trkpt>
      <trkpt lat="44.4527" lon="5.54478">
        <ele>805.79</ele>
        <time>2018-06-17T12:21:50Z</time>
      </trkpt>
      <trkpt lat="44.45255" lon="5.54459">
        <ele>806.25</ele>
        <time>2018-06-17T12:21:53Z</time>
      </trkpt>
      <trkpt lat="44.4524" lon="5.54437">
        <ele>806.33</ele>
        <time>2018-06-17T12:21:56Z</time>
      </trkpt>
      <trkpt lat="44.45225" lon="5.54419">
        <ele>804.23</ele>
        <time>2018-06-17T12:21:59Z</time>
      </trkpt>
      <trkpt lat="44.4521" lon="5.54404">
        <ele>805.24</ele>
        <time>2018-06-17T12:22:02Z</time>
      </trkpt>
      <trkpt lat="44.45189" lon="5.54388">
        <ele>805.55</ele>
        <time>2018-06-17T12:22:06Z</time>
      </trkpt>
      <trkpt lat="44.45169" lon="5.54376">
        <ele>803.87</ele>
        <time>2018-06-17T12:22:09Z</time>
      </trkpt>
      <trkpt lat="44.45146" lon="5.54365">
        <ele>801.67</ele>
        <time>2018-06-17T12:22:12Z</time>
      </trkpt>
      <trkpt lat="44.45128" lon="5.54359">
        <ele>799.95</ele>
        <time>2018-06-17T12:22:14Z</time>
      </trkpt>
      <trkpt lat="44.4511" lon="5.54354">
        <ele>798.67</ele>
        <time>2018-06-17T12:22:16Z</time>
      </trkpt>
      <trkpt lat="44.45085" lon="5.54346">
        <ele>796.88</ele>
        <time>2018-06-17T12:22:19Z</time>
      </trkpt>
      <trkpt lat="44.45059" lon="5.54338">
        <ele>793.97</ele>
        <time>2018-06-17T12:22:22Z</time>
      </trkpt>
      <trkpt lat="44.45039" lon="5.54322">
        <ele>791.25</ele>
        <time>2018-06-17T12:22:25Z</time>
      </trkpt>
      <trkpt lat="44.4502" lon="5.54316">
        <ele>789.76</ele>
        <time>2018-06-17T12:22:31Z</time>
      </trkpt>
      <trkpt lat="44.45009" lon="5.5434">
        <ele>789.57</ele>
        <time>2018-06-17T12:22:35Z</time>
      </trkpt>
      <trkpt lat="44.45" lon="5.54363">
        <ele>788.64</ele>
        <time>2018-06-17T12:22:38Z</time>
      </trkpt>
      <trkpt lat="44.44987" lon="5.54394">
        <ele>787.64</ele>
        <time>2018-06-17T12:22:41Z</time>
      </trkpt>
      <trkpt lat="44.44973" lon="5.54423">
        <ele>786.64</ele>
        <time>2018-06-17T12:22:44Z</time>
      </trkpt>
      <trkpt lat="44.44963" lon="5.54445">
        <ele>786.56</ele>
        <time>2018-06-17T12:22:46Z</time>
      </trkpt>
      <trkpt lat="44.44951" lon="5.54467">
        <ele>787.25</ele>
        <time>2018-06-17T12:22:48Z</time>
      </trkpt>
      <trkpt lat="44.44939" lon="5.54489">
        <ele>787.52</ele>
        <time>2018-06-17T12:22:50Z</time>
      </trkpt>
      <trkpt lat="44.44926" lon="5.54511">
        <ele>787.55</ele>
        <time>2018-06-17T12:22:52Z</time>
      </trkpt>
      <trkpt lat="44.44915" lon="5.54537">
        <ele>788.25</ele>
        <time>2018-06-17T12:22:54Z</time>
      </trkpt>
      <trkpt lat="44.44909" lon="5.54566">
        <ele>787.82</ele>
        <time>2018-06-17T12:22:56Z</time>
      </trkpt>
      <trkpt lat="44.44905" lon="5.54597">
        <ele>788.48</ele>
        <time>2018-06-17T12:22:58Z</time>
      </trkpt>
      <trkpt lat="44.449" lon="5.5463">
        <ele>789.45</ele>
        <time>2018-06-17T12:23:00Z</time>
      </trkpt>
      <trkpt lat="44.44892" lon="5.54666">
        <ele>791.15</ele>
        <time>2018-06-17T12:23:02Z</time>
      </trkpt>
      <trkpt lat="44.44879" lon="5.54703">
        <ele>794.03</ele>
        <time>2018-06-17T12:23:04Z</time>
      </trkpt>
      <trkpt lat="44.44868" lon="5.54738">
        <ele>796.11</ele>
        <time>2018-06-17T12:23:06Z</time>
      </trkpt>
      <trkpt lat="44.44854" lon="5.54764">
        <ele>798.12</ele>
        <time>2018-06-17T12:23:08Z</time>
      </trkpt>
      <trkpt lat="44.44832" lon="5.54774">
        <ele>800.12</ele>
        <time>2018-06-17T12:23:10Z</time>
      </trkpt>
      <trkpt lat="44.44807" lon="5.54778">
        <ele>800.51</ele>
        <time>2018-06-17T12:23:12Z</time>
      </trkpt>
      <trkpt lat="44.44789" lon="5.54804">
        <ele>802.15</ele>
        <time>2018-06-17T12:23:14Z</time>
      </trkpt>
      <trkpt lat="44.44774" lon="5.54839">
        <ele>804.12</ele>
        <time>2018-06-17T12:23:16Z</time>
      </trkpt>
      <trkpt lat="44.44755" lon="5.5487">
        <ele>806.12</ele>
        <time>2018-06-17T12:23:18Z</time>
      </trkpt>
      <trkpt lat="44.44737" lon="5.549">
        <ele>808.12</ele>
        <time>2018-06-17T12:23:20Z</time>
      </trkpt>
      <trkpt lat="44.44722" lon="5.54934">
        <ele>808.51</ele>
        <time>2018-06-17T12:23:22Z</time>
      </trkpt>
      <trkpt lat="44.44712" lon="5.54969">
        <ele>809.24</ele>
        <time>2018-06-17T12:23:24Z</time>
      </trkpt>
      <trkpt lat="44.44692" lon="5.55">
        <ele>809.52</ele>
        <time>2018-06-17T12:23:26Z</time>
      </trkpt>
      <trkpt lat="44.44663" lon="5.55014">
        <ele>811.37</ele>
        <time>2018-06-17T12:23:28Z</time>
      </trkpt>
      <trkpt lat="44.4464" lon="5.55038">
        <ele>813.14</ele>
        <time>2018-06-17T12:23:30Z</time>
      </trkpt>
      <trkpt lat="44.44618" lon="5.55067">
        <ele>814.21</ele>
        <time>2018-06-17T12:23:32Z</time>
      </trkpt>
      <trkpt lat="44.44595" lon="5.55093">
        <ele>815.22</ele>
        <time>2018-06-17T12:23:34Z</time>
      </trkpt>
      <trkpt lat="44.44568" lon="5.55112">
        <ele>815.52</ele>
        <time>2018-06-17T12:23:36Z</time>
      </trkpt>
      <trkpt lat="44.44543" lon="5.5513">
        <ele>816.46</ele>
        <time>2018-06-17T12:23:38Z</time>
      </trkpt>
      <trkpt lat="44.44521" lon="5.55145">
        <ele>819.76</ele>
        <time>2018-06-17T12:23:40Z</time>
      </trkpt>
      <trkpt lat="44.44503" lon="5.55158">
        <ele>820.69</ele>
        <time>2018-06-17T12:23:42Z</time>
      </trkpt>
      <trkpt lat="44.44492" lon="5.55179">
        <ele>823.46</ele>
        <time>2018-06-17T12:23:56Z</time>
      </trkpt>
      <trkpt lat="44.44484" lon="5.55212">
        <ele>824.25</ele>
        <time>2018-06-17T12:24:00Z</time>
      </trkpt>
      <trkpt lat="44.44476" lon="5.55237">
        <ele>824.52</ele>
        <time>2018-06-17T12:24:02Z</time>
      </trkpt>
      <trkpt lat="44.44468" lon="5.55262">
        <ele>824.55</ele>
        <time>2018-06-17T12:24:04Z</time>
      </trkpt>
      <trkpt lat="44.44459" lon="5.55288">
        <ele>825.46</ele>
        <time>2018-06-17T12:24:06Z</time>
      </trkpt>
      <trkpt lat="44.44447" lon="5.55313">
        <ele>826.24</ele>
        <time>2018-06-17T12:24:08Z</time>
      </trkpt>
      <trkpt lat="44.44432" lon="5.55338">
        <ele>827.43</ele>
        <time>2018-06-17T12:24:10Z</time>
      </trkpt>
      <trkpt lat="44.44418" lon="5.55361">
        <ele>828.94</ele>
        <time>2018-06-17T12:24:12Z</time>
      </trkpt>
      <trkpt lat="44.44406" lon="5.55381">
        <ele>829.49</ele>
        <time>2018-06-17T12:24:14Z</time>
      </trkpt>
      <trkpt lat="44.44396" lon="5.55411">
        <ele>830.46</ele>
        <time>2018-06-17T12:24:17Z</time>
      </trkpt>
      <trkpt lat="44.44392" lon="5.55445">
        <ele>831.31</ele>
        <time>2018-06-17T12:24:20Z</time>
      </trkpt>
      <trkpt lat="44.44385" lon="5.55469">
        <ele>831.53</ele>
        <time>2018-06-17T12:24:22Z</time>
      </trkpt>
      <trkpt lat="44.44381" lon="5.55495">
        <ele>831.55</ele>
        <time>2018-06-17T12:24:24Z</time>
      </trkpt>
      <trkpt lat="44.44383" lon="5.55521">
        <ele>832.46</ele>
        <time>2018-06-17T12:24:26Z</time>
      </trkpt>
      <trkpt lat="44.44401" lon="5.55548">
        <ele>835.4</ele>
        <time>2018-06-17T12:24:29Z</time>
      </trkpt>
      <trkpt lat="44.44413" lon="5.5558">
        <ele>834.42</ele>
        <time>2018-06-17T12:24:32Z</time>
      </trkpt>
      <trkpt lat="44.44412" lon="5.55614">
        <ele>835.73</ele>
        <time>2018-06-17T12:24:35Z</time>
      </trkpt>
      <trkpt lat="44.44403" lon="5.55638">
        <ele>834.92</ele>
        <time>2018-06-17T12:24:38Z</time>
      </trkpt>
      <trkpt lat="44.4439" lon="5.55665">
        <ele>835.19</ele>
        <time>2018-06-17T12:24:41Z</time>
      </trkpt>
      <trkpt lat="44.44383" lon="5.5569">
        <ele>835.31</ele>
        <time>2018-06-17T12:24:43Z</time>
      </trkpt>
      <trkpt lat="44.44378" lon="5.55717">
        <ele>837.14</ele>
        <time>2018-06-17T12:24:45Z</time>
      </trkpt>
      <trkpt lat="44.44372" lon="5.55744">
        <ele>839.12</ele>
        <time>2018-06-17T12:24:47Z</time>
      </trkpt>
      <trkpt lat="44.44369" lon="5.55774">
        <ele>838.81</ele>
        <time>2018-06-17T12:24:49Z</time>
      </trkpt>
      <trkpt lat="44.44371" lon="5.55804">
        <ele>839.48</ele>
        <time>2018-06-17T12:24:51Z</time>
      </trkpt>
      <trkpt lat="44.44371" lon="5.55833">
        <ele>840.45</ele>
        <time>2018-06-17T12:24:53Z</time>
      </trkpt>
      <trkpt lat="44.44367" lon="5.55863">
        <ele>843.13</ele>
        <time>2018-06-17T12:24:56Z</time>
      </trkpt>
      <trkpt lat="44.44365" lon="5.55889">
        <ele>842.61</ele>
        <time>2018-06-17T12:25:02Z</time>
      </trkpt>
      <trkpt lat="44.44371" lon="5.55914">
        <ele>842.63</ele>
        <time>2018-06-17T12:27:54Z</time>
      </trkpt>
      <trkpt lat="44.44373" lon="5.55939">
        <ele>842.55</ele>
        <time>2018-06-17T12:27:57Z</time>
      </trkpt>
      <trkpt lat="44.44375" lon="5.55971">
        <ele>842.76</ele>
        <time>2018-06-17T12:28:00Z</time>
      </trkpt>
      <trkpt lat="44.44376" lon="5.56005">
        <ele>842.49</ele>
        <time>2018-06-17T12:28:03Z</time>
      </trkpt>
      <trkpt lat="44.44381" lon="5.5603">
        <ele>842.54</ele>
        <time>2018-06-17T12:28:05Z</time>
      </trkpt>
      <trkpt lat="44.44387" lon="5.56056">
        <ele>842.76</ele>
        <time>2018-06-17T12:28:07Z</time>
      </trkpt>
      <trkpt lat="44.44392" lon="5.56082">
        <ele>840.75</ele>
        <time>2018-06-17T12:28:09Z</time>
      </trkpt>
      <trkpt lat="44.44398" lon="5.56109">
        <ele>843.09</ele>
        <time>2018-06-17T12:28:11Z</time>
      </trkpt>
      <trkpt lat="44.44402" lon="5.56136">
        <ele>843.51</ele>
        <time>2018-06-17T12:28:13Z</time>
      </trkpt>
      <trkpt lat="44.44403" lon="5.56163">
        <ele>843.75</ele>
        <time>2018-06-17T12:28:15Z</time>
      </trkpt>
      <trkpt lat="44.44407" lon="5.5619">
        <ele>846.79</ele>
        <time>2018-06-17T12:28:17Z</time>
      </trkpt>
      <trkpt lat="44.44412" lon="5.5622">
        <ele>848.39</ele>
        <time>2018-06-17T12:28:19Z</time>
      </trkpt>
      <trkpt lat="44.44414" lon="5.56249">
        <ele>849.23</ele>
        <time>2018-06-17T12:28:21Z</time>
      </trkpt>
      <trkpt lat="44.44415" lon="5.56278">
        <ele>850.43</ele>
        <time>2018-06-17T12:28:23Z</time>
      </trkpt>
      <trkpt lat="44.44416" lon="5.56309">
        <ele>852.15</ele>
        <time>2018-06-17T12:28:25Z</time>
      </trkpt>
      <trkpt lat="44.44422" lon="5.56338">
        <ele>853.21</ele>
        <time>2018-06-17T12:28:27Z</time>
      </trkpt>
      <trkpt lat="44.4443" lon="5.56366">
        <ele>854.43</ele>
        <time>2018-06-17T12:28:29Z</time>
      </trkpt>
      <trkpt lat="44.44436" lon="5.5639">
        <ele>854.54</ele>
        <time>2018-06-17T12:28:31Z</time>
      </trkpt>
      <trkpt lat="44.44438" lon="5.56417">
        <ele>853.64</ele>
        <time>2018-06-17T12:28:33Z</time>
      </trkpt>
      <trkpt lat="44.44439" lon="5.56445">
        <ele>852.65</ele>
        <time>2018-06-17T12:28:35Z</time>
      </trkpt>
      <trkpt lat="44.44443" lon="5.56477">
        <ele>852.34</ele>
        <time>2018-06-17T12:28:38Z</time>
      </trkpt>
      <trkpt lat="44.44458" lon="5.56504">
        <ele>853.45</ele>
        <time>2018-06-17T12:28:41Z</time>
      </trkpt>
      <trkpt lat="44.44483" lon="5.56518">
        <ele>855.16</ele>
        <time>2018-06-17T12:28:44Z</time>
      </trkpt>
      <trkpt lat="44.445" lon="5.56543">
        <ele>858.12</ele>
        <time>2018-06-17T12:28:47Z</time>
      </trkpt>
      <trkpt lat="44.44506" lon="5.56569">
        <ele>858.51</ele>
        <time>2018-06-17T12:28:49Z</time>
      </trkpt>
      <trkpt lat="44.44508" lon="5.56596">
        <ele>858.54</ele>
        <time>2018-06-17T12:28:51Z</time>
      </trkpt>
      <trkpt lat="44.44512" lon="5.56623">
        <ele>858.55</ele>
        <time>2018-06-17T12:28:53Z</time>
      </trkpt>
      <trkpt lat="44.44518" lon="5.5665">
        <ele>859.46</ele>
        <time>2018-06-17T12:28:55Z</time>
      </trkpt>
      <trkpt lat="44.44521" lon="5.56687">
        <ele>861.92</ele>
        <time>2018-06-17T12:28:58Z</time>
      </trkpt>
      <trkpt lat="44.44522" lon="5.56719">
        <ele>863.5</ele>
        <time>2018-06-17T12:29:01Z</time>
      </trkpt>
      <trkpt lat="44.44532" lon="5.56743">
        <ele>864.25</ele>
        <time>2018-06-17T12:29:04Z</time>
      </trkpt>
      <trkpt lat="44.44535" lon="5.5677">
        <ele>868.82</ele>
        <time>2018-06-17T12:29:27Z</time>
      </trkpt>
      <trkpt lat="44.44541" lon="5.56799">
        <ele>868.3</ele>
        <time>2018-06-17T12:29:31Z</time>
      </trkpt>
      <trkpt lat="44.44557" lon="5.56816">
        <ele>869.72</ele>
        <time>2018-06-17T12:29:34Z</time>
      </trkpt>
      <trkpt lat="44.44573" lon="5.56832">
        <ele>870.53</ele>
        <time>2018-06-17T12:29:37Z</time>
      </trkpt>
      <trkpt lat="44.4459" lon="5.56852">
        <ele>870.55</ele>
        <time>2018-06-17T12:29:40Z</time>
      </trkpt>
      <trkpt lat="44.44605" lon="5.56872">
        <ele>870.27</ele>
        <time>2018-06-17T12:29:43Z</time>
      </trkpt>
      <trkpt lat="44.44608" lon="5.56899">
        <ele>873.12</ele>
        <time>2018-06-17T12:29:46Z</time>
      </trkpt>
      <trkpt lat="44.44606" lon="5.56932">
        <ele>875.42</ele>
        <time>2018-06-17T12:29:49Z</time>
      </trkpt>
      <trkpt lat="44.44608" lon="5.56966">
        <ele>874.78</ele>
        <time>2018-06-17T12:29:52Z</time>
      </trkpt>
      <trkpt lat="44.44617" lon="5.56998">
        <ele>875.53</ele>
        <time>2018-06-17T12:29:55Z</time>
      </trkpt>
      <trkpt lat="44.44626" lon="5.57034">
        <ele>875.55</ele>
        <time>2018-06-17T12:29:58Z</time>
      </trkpt>
      <trkpt lat="44.4463" lon="5.57061">
        <ele>876.25</ele>
        <time>2018-06-17T12:30:00Z</time>
      </trkpt>
      <trkpt lat="44.44637" lon="5.57087">
        <ele>876.52</ele>
        <time>2018-06-17T12:30:02Z</time>
      </trkpt>
      <trkpt lat="44.44646" lon="5.57112">
        <ele>877.25</ele>
        <time>2018-06-17T12:30:04Z</time>
      </trkpt>
      <trkpt lat="44.44656" lon="5.57136">
        <ele>877.31</ele>
        <time>2018-06-17T12:30:06Z</time>
      </trkpt>
      <trkpt lat="44.44665" lon="5.57168">
        <ele>879.36</ele>
        <time>2018-06-17T12:30:09Z</time>
      </trkpt>
      <trkpt lat="44.44678" lon="5.57188">
        <ele>881.43</ele>
        <time>2018-06-17T12:30:12Z</time>
      </trkpt>
      <trkpt lat="44.44699" lon="5.57206">
        <ele>882.45</ele>
        <time>2018-06-17T12:30:15Z</time>
      </trkpt>
      <trkpt lat="44.44713" lon="5.57224">
        <ele>883.45</ele>
        <time>2018-06-17T12:30:17Z</time>
      </trkpt>
      <trkpt lat="44.44727" lon="5.57241">
        <ele>883.54</ele>
        <time>2018-06-17T12:30:19Z</time>
      </trkpt>
      <trkpt lat="44.44744" lon="5.57255">
        <ele>883.55</ele>
        <time>2018-06-17T12:30:21Z</time>
      </trkpt>
      <trkpt lat="44.44762" lon="5.57264">
        <ele>884.46</ele>
        <time>2018-06-17T12:30:23Z</time>
      </trkpt>
      <trkpt lat="44.44781" lon="5.57271">
        <ele>885.24</ele>
        <time>2018-06-17T12:30:25Z</time>
      </trkpt>
      <trkpt lat="44.44798" lon="5.5728">
        <ele>887.13</ele>
        <time>2018-06-17T12:30:27Z</time>
      </trkpt>
      <trkpt lat="44.44819" lon="5.57302">
        <ele>888.45</ele>
        <time>2018-06-17T12:30:30Z</time>
      </trkpt>
      <trkpt lat="44.44831" lon="5.57331">
        <ele>888.55</ele>
        <time>2018-06-17T12:30:33Z</time>
      </trkpt>
      <trkpt lat="44.44846" lon="5.57351">
        <ele>889.52</ele>
        <time>2018-06-17T12:30:39Z</time>
      </trkpt>
      <trkpt lat="44.44867" lon="5.57357">
        <ele>892.42</ele>
        <time>2018-06-17T12:30:43Z</time>
      </trkpt>
      <trkpt lat="44.44891" lon="5.57351">
        <ele>895.13</ele>
        <time>2018-06-17T12:30:47Z</time>
      </trkpt>
      <trkpt lat="44.44909" lon="5.57334">
        <ele>899.18</ele>
        <time>2018-06-17T12:30:51Z</time>
      </trkpt>
      <trkpt lat="44.44896" lon="5.5731">
        <ele>901.18</ele>
        <time>2018-06-17T12:30:57Z</time>
      </trkpt>
      <trkpt lat="44.44876" lon="5.57301">
        <ele>902.54</ele>
        <time>2018-06-17T12:31:01Z</time>
      </trkpt>
      <trkpt lat="44.44861" lon="5.57277">
        <ele>901.64</ele>
        <time>2018-06-17T12:31:05Z</time>
      </trkpt>
      <trkpt lat="44.44851" lon="5.57249">
        <ele>903.51</ele>
        <time>2018-06-17T12:31:09Z</time>
      </trkpt>
      <trkpt lat="44.4484" lon="5.5722">
        <ele>904.25</ele>
        <time>2018-06-17T12:31:13Z</time>
      </trkpt>
      <trkpt lat="44.44819" lon="5.57206">
        <ele>905.24</ele>
        <time>2018-06-17T12:31:16Z</time>
      </trkpt>
      <trkpt lat="44.44796" lon="5.57188">
        <ele>905.54</ele>
        <time>2018-06-17T12:31:19Z</time>
      </trkpt>
      <trkpt lat="44.44775" lon="5.57173">
        <ele>907.43</ele>
        <time>2018-06-17T12:31:22Z</time>
      </trkpt>
      <trkpt lat="44.44761" lon="5.57158">
        <ele>908.12</ele>
        <time>2018-06-17T12:31:25Z</time>
      </trkpt>
      <trkpt lat="44.44748" lon="5.5714">
        <ele>910.15</ele>
        <time>2018-06-17T12:31:30Z</time>
      </trkpt>
      <trkpt lat="44.44756" lon="5.57117">
        <ele>913.24</ele>
        <time>2018-06-17T12:32:39Z</time>
      </trkpt>
      <trkpt lat="44.44761" lon="5.57088">
        <ele>912.85</ele>
        <time>2018-06-17T12:32:43Z</time>
      </trkpt>
      <trkpt lat="44.44763" lon="5.5706">
        <ele>911.86</ele>
        <time>2018-06-17T12:32:46Z</time>
      </trkpt>
      <trkpt lat="44.44765" lon="5.57035">
        <ele>911.56</ele>
        <time>2018-06-17T12:32:49Z</time>
      </trkpt>
      <trkpt lat="44.44769" lon="5.57007">
        <ele>911.55</ele>
        <time>2018-06-17T12:32:52Z</time>
      </trkpt>
      <trkpt lat="44.44777" lon="5.56981">
        <ele>913.43</ele>
        <time>2018-06-17T12:32:56Z</time>
      </trkpt>
      <trkpt lat="44.44767" lon="5.57008">
        <ele>911.76</ele>
        <time>2018-06-17T12:34:36Z</time>
      </trkpt>
      <trkpt lat="44.44764" lon="5.57035">
        <ele>912.46</ele>
        <time>2018-06-17T12:34:39Z</time>
      </trkpt>
      <trkpt lat="44.44762" lon="5.57065">
        <ele>911.64</ele>
        <time>2018-06-17T12:34:42Z</time>
      </trkpt>
      <trkpt lat="44.44762" lon="5.5709">
        <ele>912.25</ele>
        <time>2018-06-17T12:34:45Z</time>
      </trkpt>
      <trkpt lat="44.44757" lon="5.57119">
        <ele>910.86</ele>
        <time>2018-06-17T12:34:50Z</time>
      </trkpt>
      <trkpt lat="44.44746" lon="5.57141">
        <ele>909.55</ele>
        <time>2018-06-17T12:34:57Z</time>
      </trkpt>
      <trkpt lat="44.44767" lon="5.57166">
        <ele>908.85</ele>
        <time>2018-06-17T12:35:02Z</time>
      </trkpt>
      <trkpt lat="44.44788" lon="5.57185">
        <ele>908.56</ele>
        <time>2018-06-17T12:35:05Z</time>
      </trkpt>
      <trkpt lat="44.44804" lon="5.57197">
        <ele>908.55</ele>
        <time>2018-06-17T12:35:07Z</time>
      </trkpt>
      <trkpt lat="44.44821" lon="5.57209">
        <ele>908.55</ele>
        <time>2018-06-17T12:35:09Z</time>
      </trkpt>
      <trkpt lat="44.4484" lon="5.57222">
        <ele>907.85</ele>
        <time>2018-06-17T12:35:12Z</time>
      </trkpt>
      <trkpt lat="44.4485" lon="5.5725">
        <ele>906.27</ele>
        <time>2018-06-17T12:35:16Z</time>
      </trkpt>
      <trkpt lat="44.4486" lon="5.57275">
        <ele>903.88</ele>
        <time>2018-06-17T12:35:20Z</time>
      </trkpt>
      <trkpt lat="44.44875" lon="5.57296">
        <ele>902.5</ele>
        <time>2018-06-17T12:35:24Z</time>
      </trkpt>
      <trkpt lat="44.44893" lon="5.57308">
        <ele>900.73</ele>
        <time>2018-06-17T12:35:27Z</time>
      </trkpt>
      <trkpt lat="44.44911" lon="5.57322">
        <ele>899</ele>
        <time>2018-06-17T12:35:31Z</time>
      </trkpt>
      <trkpt lat="44.44902" lon="5.57347">
        <ele>895.05</ele>
        <time>2018-06-17T12:35:36Z</time>
      </trkpt>
      <trkpt lat="44.44883" lon="5.57359">
        <ele>892.89</ele>
        <time>2018-06-17T12:35:39Z</time>
      </trkpt>
      <trkpt lat="44.44861" lon="5.57357">
        <ele>891.58</ele>
        <time>2018-06-17T12:35:42Z</time>
      </trkpt>
      <trkpt lat="44.44841" lon="5.57348">
        <ele>890.64</ele>
        <time>2018-06-17T12:35:46Z</time>
      </trkpt>
      <trkpt lat="44.44846" lon="5.57376">
        <ele>890.85</ele>
        <time>2018-06-17T12:35:55Z</time>
      </trkpt>
      <trkpt lat="44.44865" lon="5.57392">
        <ele>892.22</ele>
        <time>2018-06-17T12:35:59Z</time>
      </trkpt>
      <trkpt lat="44.44882" lon="5.57406">
        <ele>893.46</ele>
        <time>2018-06-17T12:36:03Z</time>
      </trkpt>
      <trkpt lat="44.44898" lon="5.57422">
        <ele>894.52</ele>
        <time>2018-06-17T12:36:06Z</time>
      </trkpt>
      <trkpt lat="44.44917" lon="5.57441">
        <ele>895.46</ele>
        <time>2018-06-17T12:36:09Z</time>
      </trkpt>
      <trkpt lat="44.44936" lon="5.57461">
        <ele>896.52</ele>
        <time>2018-06-17T12:36:12Z</time>
      </trkpt>
      <trkpt lat="44.44952" lon="5.57475">
        <ele>899.07</ele>
        <time>2018-06-17T12:36:14Z</time>
      </trkpt>
      <trkpt lat="44.44973" lon="5.57496">
        <ele>901.14</ele>
        <time>2018-06-17T12:36:17Z</time>
      </trkpt>
      <trkpt lat="44.44991" lon="5.57518">
        <ele>901.54</ele>
        <time>2018-06-17T12:36:20Z</time>
      </trkpt>
      <trkpt lat="44.45006" lon="5.57543">
        <ele>902.52</ele>
        <time>2018-06-17T12:36:23Z</time>
      </trkpt>
      <trkpt lat="44.45023" lon="5.57571">
        <ele>902.55</ele>
        <time>2018-06-17T12:36:26Z</time>
      </trkpt>
      <trkpt lat="44.45036" lon="5.5759">
        <ele>901.64</ele>
        <time>2018-06-17T12:36:28Z</time>
      </trkpt>
      <trkpt lat="44.45049" lon="5.5761">
        <ele>902.47</ele>
        <time>2018-06-17T12:36:30Z</time>
      </trkpt>
      <trkpt lat="44.45061" lon="5.57631">
        <ele>902.54</ele>
        <time>2018-06-17T12:36:32Z</time>
      </trkpt>
      <trkpt lat="44.45075" lon="5.57647">
        <ele>902.55</ele>
        <time>2018-06-17T12:36:34Z</time>
      </trkpt>
      <trkpt lat="44.45096" lon="5.57666">
        <ele>903.31</ele>
        <time>2018-06-17T12:36:37Z</time>
      </trkpt>
      <trkpt lat="44.45115" lon="5.57679">
        <ele>903.74</ele>
        <time>2018-06-17T12:36:39Z</time>
      </trkpt>
      <trkpt lat="44.45133" lon="5.5769">
        <ele>905.17</ele>
        <time>2018-06-17T12:36:41Z</time>
      </trkpt>
      <trkpt lat="44.45156" lon="5.57706">
        <ele>906.51</ele>
        <time>2018-06-17T12:36:44Z</time>
      </trkpt>
      <trkpt lat="44.45179" lon="5.57718">
        <ele>906.55</ele>
        <time>2018-06-17T12:36:47Z</time>
      </trkpt>
      <trkpt lat="44.45197" lon="5.57724">
        <ele>907.31</ele>
        <time>2018-06-17T12:36:50Z</time>
      </trkpt>
      <trkpt lat="44.45215" lon="5.57722">
        <ele>910.33</ele>
        <time>2018-06-17T12:36:53Z</time>
      </trkpt>
      <trkpt lat="44.45235" lon="5.57725">
        <ele>912.43</ele>
        <time>2018-06-17T12:36:56Z</time>
      </trkpt>
      <trkpt lat="44.45253" lon="5.57745">
        <ele>913.75</ele>
        <time>2018-06-17T12:37:00Z</time>
      </trkpt>
      <trkpt lat="44.45259" lon="5.57769">
        <ele>914.95</ele>
        <time>2018-06-17T12:37:03Z</time>
      </trkpt>
      <trkpt lat="44.45272" lon="5.57799">
        <ele>916.23</ele>
        <time>2018-06-17T12:37:06Z</time>
      </trkpt>
      <trkpt lat="44.45282" lon="5.57821">
        <ele>916.52</ele>
        <time>2018-06-17T12:37:08Z</time>
      </trkpt>
      <trkpt lat="44.45301" lon="5.57849">
        <ele>918.22</ele>
        <time>2018-06-17T12:37:11Z</time>
      </trkpt>
      <trkpt lat="44.4532" lon="5.5787">
        <ele>919.94</ele>
        <time>2018-06-17T12:37:14Z</time>
      </trkpt>
      <trkpt lat="44.45344" lon="5.57882">
        <ele>922.35</ele>
        <time>2018-06-17T12:37:17Z</time>
      </trkpt>
      <trkpt lat="44.45367" lon="5.57895">
        <ele>924.49</ele>
        <time>2018-06-17T12:37:20Z</time>
      </trkpt>
      <trkpt lat="44.4539" lon="5.57911">
        <ele>926.43</ele>
        <time>2018-06-17T12:37:23Z</time>
      </trkpt>
      <trkpt lat="44.4541" lon="5.57923">
        <ele>928.15</ele>
        <time>2018-06-17T12:37:26Z</time>
      </trkpt>
      <trkpt lat="44.45427" lon="5.57933">
        <ele>930.22</ele>
        <time>2018-06-17T12:37:30Z</time>
      </trkpt>
      <trkpt lat="44.45447" lon="5.57942">
        <ele>929.86</ele>
        <time>2018-06-17T12:37:34Z</time>
      </trkpt>
      <trkpt lat="44.45465" lon="5.57949">
        <ele>929.77</ele>
        <time>2018-06-17T12:37:37Z</time>
      </trkpt>
      <trkpt lat="44.45486" lon="5.57949">
        <ele>929.55</ele>
        <time>2018-06-17T12:37:40Z</time>
      </trkpt>
      <trkpt lat="44.45505" lon="5.57949">
        <ele>931.22</ele>
        <time>2018-06-17T12:37:43Z</time>
      </trkpt>
      <trkpt lat="44.45525" lon="5.57953">
        <ele>929.72</ele>
        <time>2018-06-17T12:37:46Z</time>
      </trkpt>
      <trkpt lat="44.45545" lon="5.57962">
        <ele>931.5</ele>
        <time>2018-06-17T12:37:49Z</time>
      </trkpt>
      <trkpt lat="44.45564" lon="5.57978">
        <ele>933.22</ele>
        <time>2018-06-17T12:37:52Z</time>
      </trkpt>
      <trkpt lat="44.45582" lon="5.57992">
        <ele>934.94</ele>
        <time>2018-06-17T12:37:55Z</time>
      </trkpt>
      <trkpt lat="44.456" lon="5.58007">
        <ele>935.64</ele>
        <time>2018-06-17T12:38:07Z</time>
      </trkpt>
      <trkpt lat="44.45615" lon="5.58022">
        <ele>935.61</ele>
        <time>2018-06-17T12:38:11Z</time>
      </trkpt>
      <trkpt lat="44.45635" lon="5.5803">
        <ele>935.78</ele>
        <time>2018-06-17T12:38:16Z</time>
      </trkpt>
      <trkpt lat="44.45652" lon="5.5805">
        <ele>937.36</ele>
        <time>2018-06-17T12:38:21Z</time>
      </trkpt>
      <trkpt lat="44.45673" lon="5.58054">
        <ele>940.05</ele>
        <time>2018-06-17T12:38:25Z</time>
      </trkpt>
      <trkpt lat="44.45691" lon="5.58068">
        <ele>942.45</ele>
        <time>2018-06-17T12:38:29Z</time>
      </trkpt>
      <trkpt lat="44.45708" lon="5.5809">
        <ele>943.54</ele>
        <time>2018-06-17T12:38:33Z</time>
      </trkpt>
      <trkpt lat="44.45717" lon="5.5812">
        <ele>943.76</ele>
        <time>2018-06-17T12:38:37Z</time>
      </trkpt>
      <trkpt lat="44.45717" lon="5.58149">
        <ele>944.43</ele>
        <time>2018-06-17T12:38:42Z</time>
      </trkpt>
      <trkpt lat="44.45699" lon="5.5815">
        <ele>948.23</ele>
        <time>2018-06-17T12:38:47Z</time>
      </trkpt>
      <trkpt lat="44.45682" lon="5.58125">
        <ele>949.47</ele>
        <time>2018-06-17T12:38:51Z</time>
      </trkpt>
      <trkpt lat="44.45668" lon="5.58107">
        <ele>951.22</ele>
        <time>2018-06-17T12:38:54Z</time>
      </trkpt>
      <trkpt lat="44.45651" lon="5.58092">
        <ele>953.37</ele>
        <time>2018-06-17T12:38:58Z</time>
      </trkpt>
      <trkpt lat="44.45631" lon="5.58097">
        <ele>957.17</ele>
        <time>2018-06-17T12:39:02Z</time>
      </trkpt>
      <trkpt lat="44.45613" lon="5.58116">
        <ele>959.22</ele>
        <time>2018-06-17T12:39:06Z</time>
      </trkpt>
      <trkpt lat="44.45601" lon="5.58137">
        <ele>961.91</ele>
        <time>2018-06-17T12:39:09Z</time>
      </trkpt>
      <trkpt lat="44.45584" lon="5.58159">
        <ele>962.75</ele>
        <time>2018-06-17T12:39:13Z</time>
      </trkpt>
      <trkpt lat="44.45569" lon="5.58179">
        <ele>964.51</ele>
        <time>2018-06-17T12:39:17Z</time>
      </trkpt>
      <trkpt lat="44.45556" lon="5.58202">
        <ele>965.48</ele>
        <time>2018-06-17T12:39:21Z</time>
      </trkpt>
      <trkpt lat="44.45538" lon="5.58221">
        <ele>967.51</ele>
        <time>2018-06-17T12:39:25Z</time>
      </trkpt>
      <trkpt lat="44.45526" lon="5.58241">
        <ele>970.36</ele>
        <time>2018-06-17T12:39:29Z</time>
      </trkpt>
      <trkpt lat="44.45518" lon="5.5827">
        <ele>973.15</ele>
        <time>2018-06-17T12:39:33Z</time>
      </trkpt>
      <trkpt lat="44.45513" lon="5.58299">
        <ele>974.45</ele>
        <time>2018-06-17T12:39:37Z</time>
      </trkpt>
      <trkpt lat="44.45503" lon="5.58325">
        <ele>975.54</ele>
        <time>2018-06-17T12:39:41Z</time>
      </trkpt>
      <trkpt lat="44.45489" lon="5.58353">
        <ele>975.48</ele>
        <time>2018-06-17T12:39:45Z</time>
      </trkpt>
      <trkpt lat="44.45477" lon="5.58376">
        <ele>975.55</ele>
        <time>2018-06-17T12:39:49Z</time>
      </trkpt>
      <trkpt lat="44.45464" lon="5.58356">
        <ele>979.24</ele>
        <time>2018-06-17T12:39:55Z</time>
      </trkpt>
      <trkpt lat="44.4546" lon="5.58325">
        <ele>982.23</ele>
        <time>2018-06-17T12:39:59Z</time>
      </trkpt>
      <trkpt lat="44.45454" lon="5.583">
        <ele>985.12</ele>
        <time>2018-06-17T12:40:02Z</time>
      </trkpt>
      <trkpt lat="44.45447" lon="5.58268">
        <ele>988.15</ele>
        <time>2018-06-17T12:40:06Z</time>
      </trkpt>
      <trkpt lat="44.45434" lon="5.58251">
        <ele>990.21</ele>
        <time>2018-06-17T12:40:09Z</time>
      </trkpt>
      <trkpt lat="44.45418" lon="5.58237">
        <ele>991.94</ele>
        <time>2018-06-17T12:40:12Z</time>
      </trkpt>
      <trkpt lat="44.45401" lon="5.5822">
        <ele>993.73</ele>
        <time>2018-06-17T12:40:16Z</time>
      </trkpt>
      <trkpt lat="44.45384" lon="5.58205">
        <ele>997.12</ele>
        <time>2018-06-17T12:40:20Z</time>
      </trkpt>
      <trkpt lat="44.45378" lon="5.58176">
        <ele>998.52</ele>
        <time>2018-06-17T12:40:24Z</time>
      </trkpt>
      <trkpt lat="44.45373" lon="5.58151">
        <ele>1000.22</ele>
        <time>2018-06-17T12:40:27Z</time>
      </trkpt>
      <trkpt lat="44.45367" lon="5.58126">
        <ele>1002.24</ele>
        <time>2018-06-17T12:40:31Z</time>
      </trkpt>
      <trkpt lat="44.4536" lon="5.58152">
        <ele>1004.45</ele>
        <time>2018-06-17T12:40:41Z</time>
      </trkpt>
      <trkpt lat="44.45362" lon="5.58182">
        <ele>1005.54</ele>
        <time>2018-06-17T12:40:45Z</time>
      </trkpt>
      <trkpt lat="44.45367" lon="5.58214">
        <ele>1006.25</ele>
        <time>2018-06-17T12:40:49Z</time>
      </trkpt>
      <trkpt lat="44.45373" lon="5.58239">
        <ele>1007.24</ele>
        <time>2018-06-17T12:40:52Z</time>
      </trkpt>
      <trkpt lat="44.45379" lon="5.58265">
        <ele>1008.45</ele>
        <time>2018-06-17T12:40:55Z</time>
      </trkpt>
      <trkpt lat="44.45382" lon="5.58291">
        <ele>1012.33</ele>
        <time>2018-06-17T12:40:59Z</time>
      </trkpt>
      <trkpt lat="44.45392" lon="5.58314">
        <ele>1015.91</ele>
        <time>2018-06-17T12:41:03Z</time>
      </trkpt>
      <trkpt lat="44.45392" lon="5.58345">
        <ele>1018.22</ele>
        <time>2018-06-17T12:41:07Z</time>
      </trkpt>
      <trkpt lat="44.45389" lon="5.58377">
        <ele>1023.94</ele>
        <time>2018-06-17T12:41:11Z</time>
      </trkpt>
      <trkpt lat="44.45379" lon="5.58407">
        <ele>1026.03</ele>
        <time>2018-06-17T12:41:15Z</time>
      </trkpt>
      <trkpt lat="44.45364" lon="5.58424">
        <ele>1029.45</ele>
        <time>2018-06-17T12:41:18Z</time>
      </trkpt>
      <trkpt lat="44.45346" lon="5.58444">
        <ele>1031.22</ele>
        <time>2018-06-17T12:41:22Z</time>
      </trkpt>
      <trkpt lat="44.4535" lon="5.58471">
        <ele>1030.85</ele>
        <time>2018-06-17T12:41:27Z</time>
      </trkpt>
      <trkpt lat="44.45367" lon="5.58485">
        <ele>1032.54</ele>
        <time>2018-06-17T12:41:32Z</time>
      </trkpt>
      <trkpt lat="44.45354" lon="5.58505">
        <ele>1034.03</ele>
        <time>2018-06-17T12:41:38Z</time>
      </trkpt>
      <trkpt lat="44.45337" lon="5.58483">
        <ele>1037.13</ele>
        <time>2018-06-17T12:41:42Z</time>
      </trkpt>
      <trkpt lat="44.45322" lon="5.58463">
        <ele>1037.54</ele>
        <time>2018-06-17T12:41:46Z</time>
      </trkpt>
      <trkpt lat="44.45315" lon="5.58436">
        <ele>1041.59</ele>
        <time>2018-06-17T12:41:50Z</time>
      </trkpt>
      <trkpt lat="44.45325" lon="5.58408">
        <ele>1047.6</ele>
        <time>2018-06-17T12:41:54Z</time>
      </trkpt>
      <trkpt lat="44.45332" lon="5.58381">
        <ele>1049.1</ele>
        <time>2018-06-17T12:41:57Z</time>
      </trkpt>
      <trkpt lat="44.45325" lon="5.58348">
        <ele>1054.81</ele>
        <time>2018-06-17T12:42:01Z</time>
      </trkpt>
      <trkpt lat="44.45316" lon="5.58315">
        <ele>1057.2</ele>
        <time>2018-06-17T12:42:04Z</time>
      </trkpt>
      <trkpt lat="44.45306" lon="5.58284">
        <ele>1058.88</ele>
        <time>2018-06-17T12:42:07Z</time>
      </trkpt>
      <trkpt lat="44.45291" lon="5.58262">
        <ele>1060.4</ele>
        <time>2018-06-17T12:42:09Z</time>
      </trkpt>
      <trkpt lat="44.45286" lon="5.58227">
        <ele>1063.83</ele>
        <time>2018-06-17T12:42:12Z</time>
      </trkpt>
      <trkpt lat="44.45279" lon="5.58191">
        <ele>1066.2</ele>
        <time>2018-06-17T12:42:15Z</time>
      </trkpt>
      <trkpt lat="44.45277" lon="5.58163">
        <ele>1066.06</ele>
        <time>2018-06-17T12:42:18Z</time>
      </trkpt>
      <trkpt lat="44.45268" lon="5.58138">
        <ele>1067.55</ele>
        <time>2018-06-17T12:42:24Z</time>
      </trkpt>
      <trkpt lat="44.45249" lon="5.58148">
        <ele>1071.55</ele>
        <time>2018-06-17T12:43:31Z</time>
      </trkpt>
      <trkpt lat="44.4523" lon="5.58166">
        <ele>1072.46</ele>
        <time>2018-06-17T12:43:35Z</time>
      </trkpt>
      <trkpt lat="44.45207" lon="5.58163">
        <ele>1074.45</ele>
        <time>2018-06-17T12:43:39Z</time>
      </trkpt>
      <trkpt lat="44.45187" lon="5.58159">
        <ele>1075.46</ele>
        <time>2018-06-17T12:43:42Z</time>
      </trkpt>
      <trkpt lat="44.45165" lon="5.58156">
        <ele>1075.55</ele>
        <time>2018-06-17T12:43:45Z</time>
      </trkpt>
      <trkpt lat="44.45145" lon="5.58148">
        <ele>1077.92</ele>
        <time>2018-06-17T12:43:48Z</time>
      </trkpt>
      <trkpt lat="44.45128" lon="5.58133">
        <ele>1080.2</ele>
        <time>2018-06-17T12:43:51Z</time>
      </trkpt>
      <trkpt lat="44.45112" lon="5.58116">
        <ele>1081.24</ele>
        <time>2018-06-17T12:43:54Z</time>
      </trkpt>
      <trkpt lat="44.4509" lon="5.58108">
        <ele>1081.53</ele>
        <time>2018-06-17T12:43:58Z</time>
      </trkpt>
      <trkpt lat="44.45072" lon="5.58108">
        <ele>1081.55</ele>
        <time>2018-06-17T12:44:01Z</time>
      </trkpt>
      <trkpt lat="44.45053" lon="5.58094">
        <ele>1082.75</ele>
        <time>2018-06-17T12:44:05Z</time>
      </trkpt>
      <trkpt lat="44.45033" lon="5.58102">
        <ele>1086.06</ele>
        <time>2018-06-17T12:44:09Z</time>
      </trkpt>
      <trkpt lat="44.45018" lon="5.58124">
        <ele>1090.09</ele>
        <time>2018-06-17T12:44:12Z</time>
      </trkpt>
      <trkpt lat="44.45001" lon="5.58146">
        <ele>1093.33</ele>
        <time>2018-06-17T12:44:15Z</time>
      </trkpt>
      <trkpt lat="44.44988" lon="5.58169">
        <ele>1094.52</ele>
        <time>2018-06-17T12:44:19Z</time>
      </trkpt>
      <trkpt lat="44.44992" lon="5.58196">
        <ele>1097.45</ele>
        <time>2018-06-17T12:44:24Z</time>
      </trkpt>
      <trkpt lat="44.44996" lon="5.58229">
        <ele>1099.16</ele>
        <time>2018-06-17T12:44:28Z</time>
      </trkpt>
      <trkpt lat="44.44988" lon="5.58254">
        <ele>1100.51</ele>
        <time>2018-06-17T12:44:31Z</time>
      </trkpt>
      <trkpt lat="44.44981" lon="5.5828">
        <ele>1101.52</ele>
        <time>2018-06-17T12:44:34Z</time>
      </trkpt>
      <trkpt lat="44.44979" lon="5.58306">
        <ele>1102.25</ele>
        <time>2018-06-17T12:44:37Z</time>
      </trkpt>
      <trkpt lat="44.44981" lon="5.58338">
        <ele>1104.43</ele>
        <time>2018-06-17T12:44:41Z</time>
      </trkpt>
      <trkpt lat="44.44986" lon="5.58368">
        <ele>1107.42</ele>
        <time>2018-06-17T12:44:45Z</time>
      </trkpt>
      <trkpt lat="44.44999" lon="5.58389">
        <ele>1110.83</ele>
        <time>2018-06-17T12:44:48Z</time>
      </trkpt>
      <trkpt lat="44.45016" lon="5.58405">
        <ele>1111.53</ele>
        <time>2018-06-17T12:44:51Z</time>
      </trkpt>
      <trkpt lat="44.45033" lon="5.58422">
        <ele>1114.19</ele>
        <time>2018-06-17T12:44:54Z</time>
      </trkpt>
      <trkpt lat="44.45043" lon="5.58449">
        <ele>1114.54</ele>
        <time>2018-06-17T12:44:57Z</time>
      </trkpt>
      <trkpt lat="44.45049" lon="5.58477">
        <ele>1115.46</ele>
        <time>2018-06-17T12:45:00Z</time>
      </trkpt>
      <trkpt lat="44.45062" lon="5.58504">
        <ele>1119.1</ele>
        <time>2018-06-17T12:45:03Z</time>
      </trkpt>
      <trkpt lat="44.45072" lon="5.58537">
        <ele>1119.54</ele>
        <time>2018-06-17T12:45:06Z</time>
      </trkpt>
      <trkpt lat="44.45081" lon="5.58569">
        <ele>1120.25</ele>
        <time>2018-06-17T12:45:09Z</time>
      </trkpt>
      <trkpt lat="44.45084" lon="5.58605">
        <ele>1120.54</ele>
        <time>2018-06-17T12:45:12Z</time>
      </trkpt>
      <trkpt lat="44.45084" lon="5.58642">
        <ele>1121.95</ele>
        <time>2018-06-17T12:45:15Z</time>
      </trkpt>
      <trkpt lat="44.45082" lon="5.58674">
        <ele>1126.79</ele>
        <time>2018-06-17T12:45:18Z</time>
      </trkpt>
      <trkpt lat="44.45086" lon="5.58705">
        <ele>1131.08</ele>
        <time>2018-06-17T12:45:21Z</time>
      </trkpt>
      <trkpt lat="44.45091" lon="5.58735">
        <ele>1131.54</ele>
        <time>2018-06-17T12:45:24Z</time>
      </trkpt>
      <trkpt lat="44.45102" lon="5.58766">
        <ele>1137.09</ele>
        <time>2018-06-17T12:45:28Z</time>
      </trkpt>
      <trkpt lat="44.45117" lon="5.5879">
        <ele>1140.12</ele>
        <time>2018-06-17T12:45:31Z</time>
      </trkpt>
      <trkpt lat="44.45128" lon="5.58816">
        <ele>1142.15</ele>
        <time>2018-06-17T12:45:34Z</time>
      </trkpt>
      <trkpt lat="44.45142" lon="5.58841">
        <ele>1143.24</ele>
        <time>2018-06-17T12:45:37Z</time>
      </trkpt>
      <trkpt lat="44.45155" lon="5.58861">
        <ele>1146.19</ele>
        <time>2018-06-17T12:45:40Z</time>
      </trkpt>
      <trkpt lat="44.45176" lon="5.58877">
        <ele>1149.36</ele>
        <time>2018-06-17T12:45:44Z</time>
      </trkpt>
      <trkpt lat="44.45193" lon="5.58886">
        <ele>1152.13</ele>
        <time>2018-06-17T12:45:47Z</time>
      </trkpt>
      <trkpt lat="44.45207" lon="5.58906">
        <ele>1152.54</ele>
        <time>2018-06-17T12:45:50Z</time>
      </trkpt>
      <trkpt lat="44.4522" lon="5.58929">
        <ele>1154.22</ele>
        <time>2018-06-17T12:45:53Z</time>
      </trkpt>
      <trkpt lat="44.45237" lon="5.58942">
        <ele>1155.45</ele>
        <time>2018-06-17T12:45:56Z</time>
      </trkpt>
      <trkpt lat="44.45257" lon="5.58954">
        <ele>1159.4</ele>
        <time>2018-06-17T12:46:00Z</time>
      </trkpt>
      <trkpt lat="44.45267" lon="5.58978">
        <ele>1161.52</ele>
        <time>2018-06-17T12:46:06Z</time>
      </trkpt>
      <trkpt lat="44.45273" lon="5.59007">
        <ele>1163.25</ele>
        <time>2018-06-17T12:46:13Z</time>
      </trkpt>
      <trkpt lat="44.45279" lon="5.59034">
        <ele>1163.64</ele>
        <time>2018-06-17T12:46:19Z</time>
      </trkpt>
      <trkpt lat="44.45269" lon="5.59063">
        <ele>1164.34</ele>
        <time>2018-06-17T12:46:24Z</time>
      </trkpt>
      <trkpt lat="44.45258" lon="5.59085">
        <ele>1165.52</ele>
        <time>2018-06-17T12:46:27Z</time>
      </trkpt>
      <trkpt lat="44.45245" lon="5.59104">
        <ele>1169.04</ele>
        <time>2018-06-17T12:46:30Z</time>
      </trkpt>
      <trkpt lat="44.45226" lon="5.59111">
        <ele>1171.63</ele>
        <time>2018-06-17T12:46:33Z</time>
      </trkpt>
      <trkpt lat="44.45208" lon="5.59118">
        <ele>1175.11</ele>
        <time>2018-06-17T12:46:36Z</time>
      </trkpt>
      <trkpt lat="44.45192" lon="5.59132">
        <ele>1179.03</ele>
        <time>2018-06-17T12:46:39Z</time>
      </trkpt>
      <trkpt lat="44.45188" lon="5.5916">
        <ele>1180.22</ele>
        <time>2018-06-17T12:46:43Z</time>
      </trkpt>
      <trkpt lat="44.45206" lon="5.5918">
        <ele>1182.45</ele>
        <time>2018-06-17T12:46:47Z</time>
      </trkpt>
      <trkpt lat="44.45229" lon="5.59188">
        <ele>1184.16</ele>
        <time>2018-06-17T12:46:50Z</time>
      </trkpt>
      <trkpt lat="44.4525" lon="5.59201">
        <ele>1187.12</ele>
        <time>2018-06-17T12:46:53Z</time>
      </trkpt>
      <trkpt lat="44.45265" lon="5.59221">
        <ele>1189.15</ele>
        <time>2018-06-17T12:46:56Z</time>
      </trkpt>
      <trkpt lat="44.45273" lon="5.59249">
        <ele>1192.12</ele>
        <time>2018-06-17T12:46:59Z</time>
      </trkpt>
      <trkpt lat="44.45277" lon="5.59274">
        <ele>1194.42</ele>
        <time>2018-06-17T12:47:02Z</time>
      </trkpt>
      <trkpt lat="44.4529" lon="5.59293">
        <ele>1196.45</ele>
        <time>2018-06-17T12:47:06Z</time>
      </trkpt>
      <trkpt lat="44.453" lon="5.59272">
        <ele>1199.43</ele>
        <time>2018-06-17T12:47:12Z</time>
      </trkpt>
      <trkpt lat="44.45295" lon="5.59244">
        <ele>1200.46</ele>
        <time>2018-06-17T12:47:16Z</time>
      </trkpt>
      <trkpt lat="44.45305" lon="5.59217">
        <ele>1202.16</ele>
        <time>2018-06-17T12:47:21Z</time>
      </trkpt>
      <trkpt lat="44.45317" lon="5.59198">
        <ele>1202.54</ele>
        <time>2018-06-17T12:47:24Z</time>
      </trkpt>
      <trkpt lat="44.45327" lon="5.59176">
        <ele>1203.46</ele>
        <time>2018-06-17T12:47:27Z</time>
      </trkpt>
      <trkpt lat="44.45338" lon="5.59154">
        <ele>1206.89</ele>
        <time>2018-06-17T12:47:30Z</time>
      </trkpt>
      <trkpt lat="44.45355" lon="5.59141">
        <ele>1210.13</ele>
        <time>2018-06-17T12:47:34Z</time>
      </trkpt>
      <trkpt lat="44.45374" lon="5.59146">
        <ele>1211.45</ele>
        <time>2018-06-17T12:47:37Z</time>
      </trkpt>
      <trkpt lat="44.45394" lon="5.59163">
        <ele>1213.86</ele>
        <time>2018-06-17T12:47:40Z</time>
      </trkpt>
      <trkpt lat="44.45418" lon="5.5918">
        <ele>1216.84</ele>
        <time>2018-06-17T12:47:43Z</time>
      </trkpt>
      <trkpt lat="44.45442" lon="5.59189">
        <ele>1217.74</ele>
        <time>2018-06-17T12:47:46Z</time>
      </trkpt>
      <trkpt lat="44.4546" lon="5.59184">
        <ele>1219.5</ele>
        <time>2018-06-17T12:47:49Z</time>
      </trkpt>
      <trkpt lat="44.45479" lon="5.59165">
        <ele>1221.37</ele>
        <time>2018-06-17T12:47:52Z</time>
      </trkpt>
      <trkpt lat="44.45501" lon="5.5915">
        <ele>1225.8</ele>
        <time>2018-06-17T12:47:55Z</time>
      </trkpt>
      <trkpt lat="44.4552" lon="5.59133">
        <ele>1228.14</ele>
        <time>2018-06-17T12:47:58Z</time>
      </trkpt>
      <trkpt lat="44.45536" lon="5.59115">
        <ele>1230.21</ele>
        <time>2018-06-17T12:48:01Z</time>
      </trkpt>
      <trkpt lat="44.45555" lon="5.59112">
        <ele>1232.17</ele>
        <time>2018-06-17T12:48:07Z</time>
      </trkpt>
      <trkpt lat="44.45545" lon="5.59135">
        <ele>1234.24</ele>
        <time>2018-06-17T12:48:12Z</time>
      </trkpt>
      <trkpt lat="44.45524" lon="5.5915">
        <ele>1233.86</ele>
        <time>2018-06-17T12:48:16Z</time>
      </trkpt>
      <trkpt lat="44.4551" lon="5.59171">
        <ele>1234.98</ele>
        <time>2018-06-17T12:48:18Z</time>
      </trkpt>
      <trkpt lat="44.45497" lon="5.59191">
        <ele>1235.5</ele>
        <time>2018-06-17T12:48:20Z</time>
      </trkpt>
      <trkpt lat="44.45489" lon="5.59217">
        <ele>1234.63</ele>
        <time>2018-06-17T12:48:22Z</time>
      </trkpt>
      <trkpt lat="44.4548" lon="5.5924">
        <ele>1236.17</ele>
        <time>2018-06-17T12:48:24Z</time>
      </trkpt>
      <trkpt lat="44.45464" lon="5.59259">
        <ele>1240.03</ele>
        <time>2018-06-17T12:48:27Z</time>
      </trkpt>
      <trkpt lat="44.45447" lon="5.59272">
        <ele>1243.05</ele>
        <time>2018-06-17T12:48:30Z</time>
      </trkpt>
      <trkpt lat="44.45437" lon="5.59302">
        <ele>1245.14</ele>
        <time>2018-06-17T12:48:33Z</time>
      </trkpt>
      <trkpt lat="44.4543" lon="5.59331">
        <ele>1246.42</ele>
        <time>2018-06-17T12:48:35Z</time>
      </trkpt>
      <trkpt lat="44.4542" lon="5.59363">
        <ele>1248.85</ele>
        <time>2018-06-17T12:48:37Z</time>
      </trkpt>
      <trkpt lat="44.45411" lon="5.59393">
        <ele>1250.39</ele>
        <time>2018-06-17T12:48:39Z</time>
      </trkpt>
      <trkpt lat="44.45404" lon="5.59419">
        <ele>1253.05</ele>
        <time>2018-06-17T12:48:41Z</time>
      </trkpt>
      <trkpt lat="44.454" lon="5.59445">
        <ele>1256.02</ele>
        <time>2018-06-17T12:48:43Z</time>
      </trkpt>
      <trkpt lat="44.45398" lon="5.5947">
        <ele>1258.11</ele>
        <time>2018-06-17T12:48:45Z</time>
      </trkpt>
      <trkpt lat="44.454" lon="5.59496">
        <ele>1264.86</ele>
        <time>2018-06-17T12:48:56Z</time>
      </trkpt>
      <trkpt lat="44.45407" lon="5.59525">
        <ele>1268.51</ele>
        <time>2018-06-17T12:49:01Z</time>
      </trkpt>
      <trkpt lat="44.45418" lon="5.59551">
        <ele>1270.22</ele>
        <time>2018-06-17T12:49:05Z</time>
      </trkpt>
      <trkpt lat="44.45431" lon="5.59572">
        <ele>1271.51</ele>
        <time>2018-06-17T12:49:08Z</time>
      </trkpt>
      <trkpt lat="44.45442" lon="5.59596">
        <ele>1274.85</ele>
        <time>2018-06-17T12:49:41Z</time>
      </trkpt>
      <trkpt lat="44.45449" lon="5.59625">
        <ele>1276.52</ele>
        <time>2018-06-17T12:49:45Z</time>
      </trkpt>
      <trkpt lat="44.45433" lon="5.59644">
        <ele>1276.21</ele>
        <time>2018-06-17T12:49:48Z</time>
      </trkpt>
      <trkpt lat="44.45419" lon="5.59666">
        <ele>1278.48</ele>
        <time>2018-06-17T12:49:51Z</time>
      </trkpt>
      <trkpt lat="44.45403" lon="5.5969">
        <ele>1282.04</ele>
        <time>2018-06-17T12:49:54Z</time>
      </trkpt>
      <trkpt lat="44.45393" lon="5.59713">
        <ele>1285.12</ele>
        <time>2018-06-17T12:49:57Z</time>
      </trkpt>
      <trkpt lat="44.45383" lon="5.59737">
        <ele>1287.21</ele>
        <time>2018-06-17T12:50:00Z</time>
      </trkpt>
      <trkpt lat="44.45372" lon="5.59759">
        <ele>1290.06</ele>
        <time>2018-06-17T12:50:03Z</time>
      </trkpt>
      <trkpt lat="44.45372" lon="5.59788">
        <ele>1291.44</ele>
        <time>2018-06-17T12:50:06Z</time>
      </trkpt>
      <trkpt lat="44.45378" lon="5.59823">
        <ele>1293.43</ele>
        <time>2018-06-17T12:50:09Z</time>
      </trkpt>
      <trkpt lat="44.45381" lon="5.59857">
        <ele>1293.54</ele>
        <time>2018-06-17T12:50:12Z</time>
      </trkpt>
      <trkpt lat="44.45381" lon="5.59885">
        <ele>1294.25</ele>
        <time>2018-06-17T12:50:15Z</time>
      </trkpt>
      <trkpt lat="44.45379" lon="5.59912">
        <ele>1296.51</ele>
        <time>2018-06-17T12:50:19Z</time>
      </trkpt>
      <trkpt lat="44.45362" lon="5.59928">
        <ele>1298.51</ele>
        <time>2018-06-17T12:50:23Z</time>
      </trkpt>
      <trkpt lat="44.4534" lon="5.59933">
        <ele>1299.23</ele>
        <time>2018-06-17T12:50:27Z</time>
      </trkpt>
      <trkpt lat="44.45318" lon="5.59936">
        <ele>1302.76</ele>
        <time>2018-06-17T12:50:30Z</time>
      </trkpt>
      <trkpt lat="44.453" lon="5.59946">
        <ele>1304.37</ele>
        <time>2018-06-17T12:50:34Z</time>
      </trkpt>
      <trkpt lat="44.45303" lon="5.5997">
        <ele>1309.55</ele>
        <time>2018-06-17T12:52:20Z</time>
      </trkpt>
      <trkpt lat="44.45317" lon="5.59953">
        <ele>1307.37</ele>
        <time>2018-06-17T12:52:56Z</time>
      </trkpt>
      <trkpt lat="44.45336" lon="5.5995">
        <ele>1311.48</ele>
        <time>2018-06-17T12:53:00Z</time>
      </trkpt>
      <trkpt lat="44.45357" lon="5.59953">
        <ele>1314.28</ele>
        <time>2018-06-17T12:53:03Z</time>
      </trkpt>
      <trkpt lat="44.45378" lon="5.59957">
        <ele>1314.81</ele>
        <time>2018-06-17T12:53:06Z</time>
      </trkpt>
      <trkpt lat="44.45397" lon="5.5995">
        <ele>1312.88</ele>
        <time>2018-06-17T12:53:10Z</time>
      </trkpt>
      <trkpt lat="44.45403" lon="5.59926">
        <ele>1315.92</ele>
        <time>2018-06-17T12:53:13Z</time>
      </trkpt>
      <trkpt lat="44.45408" lon="5.59898">
        <ele>1318.62</ele>
        <time>2018-06-17T12:53:16Z</time>
      </trkpt>
      <trkpt lat="44.45424" lon="5.5987">
        <ele>1320.22</ele>
        <time>2018-06-17T12:53:19Z</time>
      </trkpt>
      <trkpt lat="44.45428" lon="5.59846">
        <ele>1323</ele>
        <time>2018-06-17T12:53:22Z</time>
      </trkpt>
      <trkpt lat="44.4543" lon="5.59815">
        <ele>1321.71</ele>
        <time>2018-06-17T12:53:25Z</time>
      </trkpt>
      <trkpt lat="44.45447" lon="5.59791">
        <ele>1321.05</ele>
        <time>2018-06-17T12:53:30Z</time>
      </trkpt>
      <trkpt lat="44.45461" lon="5.59773">
        <ele>1324.12</ele>
        <time>2018-06-17T12:53:33Z</time>
      </trkpt>
      <trkpt lat="44.45475" lon="5.59755">
        <ele>1324.47</ele>
        <time>2018-06-17T12:53:36Z</time>
      </trkpt>
      <trkpt lat="44.45493" lon="5.59743">
        <ele>1326.16</ele>
        <time>2018-06-17T12:53:39Z</time>
      </trkpt>
      <trkpt lat="44.45512" lon="5.59734">
        <ele>1327.24</ele>
        <time>2018-06-17T12:53:42Z</time>
      </trkpt>
      <trkpt lat="44.4553" lon="5.59725">
        <ele>1329.21</ele>
        <time>2018-06-17T12:53:45Z</time>
      </trkpt>
      <trkpt lat="44.45552" lon="5.5972">
        <ele>1332.12</ele>
        <time>2018-06-17T12:53:48Z</time>
      </trkpt>
      <trkpt lat="44.45577" lon="5.59717">
        <ele>1335.97</ele>
        <time>2018-06-17T12:53:51Z</time>
      </trkpt>
      <trkpt lat="44.45599" lon="5.59707">
        <ele>1337.44</ele>
        <time>2018-06-17T12:53:54Z</time>
      </trkpt>
      <trkpt lat="44.45617" lon="5.59696">
        <ele>1341.1</ele>
        <time>2018-06-17T12:53:57Z</time>
      </trkpt>
      <trkpt lat="44.45636" lon="5.59696">
        <ele>1345.12</ele>
        <time>2018-06-17T12:54:02Z</time>
      </trkpt>
      <trkpt lat="44.45649" lon="5.59721">
        <ele>1345.46</ele>
        <time>2018-06-17T12:54:06Z</time>
      </trkpt>
      <trkpt lat="44.45658" lon="5.59746">
        <ele>1347.22</ele>
        <time>2018-06-17T12:54:09Z</time>
      </trkpt>
      <trkpt lat="44.45668" lon="5.5977">
        <ele>1349.42</ele>
        <time>2018-06-17T12:54:12Z</time>
      </trkpt>
      <trkpt lat="44.45683" lon="5.59795">
        <ele>1351.43</ele>
        <time>2018-06-17T12:54:15Z</time>
      </trkpt>
      <trkpt lat="44.45698" lon="5.59819">
        <ele>1354.06</ele>
        <time>2018-06-17T12:54:18Z</time>
      </trkpt>
      <trkpt lat="44.45712" lon="5.59846">
        <ele>1354.53</ele>
        <time>2018-06-17T12:54:21Z</time>
      </trkpt>
      <trkpt lat="44.45729" lon="5.59865">
        <ele>1356.01</ele>
        <time>2018-06-17T12:54:24Z</time>
      </trkpt>
      <trkpt lat="44.4573" lon="5.59894">
        <ele>1359.51</ele>
        <time>2018-06-17T12:54:30Z</time>
      </trkpt>
      <trkpt lat="44.45712" lon="5.59915">
        <ele>1362.21</ele>
        <time>2018-06-17T12:54:34Z</time>
      </trkpt>
      <trkpt lat="44.45699" lon="5.59937">
        <ele>1364.21</ele>
        <time>2018-06-17T12:54:37Z</time>
      </trkpt>
      <trkpt lat="44.45698" lon="5.59967">
        <ele>1365.54</ele>
        <time>2018-06-17T12:54:42Z</time>
      </trkpt>
      <trkpt lat="44.45717" lon="5.59965">
        <ele>1365.47</ele>
        <time>2018-06-17T12:54:49Z</time>
      </trkpt>
      <trkpt lat="44.45734" lon="5.59959">
        <ele>1369.4</ele>
        <time>2018-06-17T12:54:54Z</time>
      </trkpt>
      <trkpt lat="44.45754" lon="5.59956">
        <ele>1371.24</ele>
        <time>2018-06-17T12:55:00Z</time>
      </trkpt>
      <trkpt lat="44.45739" lon="5.59972">
        <ele>1375.24</ele>
        <time>2018-06-17T12:55:11Z</time>
      </trkpt>
      <trkpt lat="44.4572" lon="5.59979">
        <ele>1375.55</ele>
        <time>2018-06-17T12:55:17Z</time>
      </trkpt>
      <trkpt lat="44.45702" lon="5.59996">
        <ele>1374.56</ele>
        <time>2018-06-17T12:55:23Z</time>
      </trkpt>
      <trkpt lat="44.45686" lon="5.60017">
        <ele>1376.45</ele>
        <time>2018-06-17T12:55:27Z</time>
      </trkpt>
      <trkpt lat="44.45672" lon="5.60035">
        <ele>1374.58</ele>
        <time>2018-06-17T12:55:31Z</time>
      </trkpt>
      <trkpt lat="44.45658" lon="5.60016">
        <ele>1377.96</ele>
        <time>2018-06-17T12:55:35Z</time>
      </trkpt>
      <trkpt lat="44.45657" lon="5.59987">
        <ele>1382.09</ele>
        <time>2018-06-17T12:55:38Z</time>
      </trkpt>
      <trkpt lat="44.45657" lon="5.59958">
        <ele>1386.73</ele>
        <time>2018-06-17T12:55:41Z</time>
      </trkpt>
      <trkpt lat="44.45653" lon="5.5993">
        <ele>1388.43</ele>
        <time>2018-06-17T12:55:45Z</time>
      </trkpt>
      <trkpt lat="44.45636" lon="5.59922">
        <ele>1388.54</ele>
        <time>2018-06-17T12:55:48Z</time>
      </trkpt>
      <trkpt lat="44.45614" lon="5.59915">
        <ele>1389.73</ele>
        <time>2018-06-17T12:55:51Z</time>
      </trkpt>
      <trkpt lat="44.45594" lon="5.59919">
        <ele>1392.2</ele>
        <time>2018-06-17T12:55:55Z</time>
      </trkpt>
      <trkpt lat="44.45584" lon="5.59941">
        <ele>1394.21</ele>
        <time>2018-06-17T12:55:58Z</time>
      </trkpt>
      <trkpt lat="44.45577" lon="5.59974">
        <ele>1397.18</ele>
        <time>2018-06-17T12:56:01Z</time>
      </trkpt>
      <trkpt lat="44.45568" lon="5.60003">
        <ele>1398.51</ele>
        <time>2018-06-17T12:56:04Z</time>
      </trkpt>
      <trkpt lat="44.45553" lon="5.60029">
        <ele>1401.83</ele>
        <time>2018-06-17T12:56:07Z</time>
      </trkpt>
      <trkpt lat="44.45535" lon="5.60053">
        <ele>1404.14</ele>
        <time>2018-06-17T12:56:10Z</time>
      </trkpt>
      <trkpt lat="44.45522" lon="5.60085">
        <ele>1406.42</ele>
        <time>2018-06-17T12:56:13Z</time>
      </trkpt>
      <trkpt lat="44.45515" lon="5.60117">
        <ele>1408.28</ele>
        <time>2018-06-17T12:56:16Z</time>
      </trkpt>
      <trkpt lat="44.45507" lon="5.6015">
        <ele>1411.82</ele>
        <time>2018-06-17T12:56:19Z</time>
      </trkpt>
      <trkpt lat="44.455" lon="5.60184">
        <ele>1413.93</ele>
        <time>2018-06-17T12:56:22Z</time>
      </trkpt>
      <trkpt lat="44.455" lon="5.60215">
        <ele>1417.11</ele>
        <time>2018-06-17T12:56:25Z</time>
      </trkpt>
      <trkpt lat="44.45508" lon="5.60242">
        <ele>1418.51</ele>
        <time>2018-06-17T12:56:28Z</time>
      </trkpt>
      <trkpt lat="44.45515" lon="5.6027">
        <ele>1420.16</ele>
        <time>2018-06-17T12:56:31Z</time>
      </trkpt>
      <trkpt lat="44.45518" lon="5.60301">
        <ele>1422.15</ele>
        <time>2018-06-17T12:56:34Z</time>
      </trkpt>
      <trkpt lat="44.45519" lon="5.60327">
        <ele>1424.91</ele>
        <time>2018-06-17T12:56:37Z</time>
      </trkpt>
      <trkpt lat="44.45519" lon="5.60356">
        <ele>1427.41</ele>
        <time>2018-06-17T12:56:40Z</time>
      </trkpt>
      <trkpt lat="44.4551" lon="5.60385">
        <ele>1425.79</ele>
        <time>2018-06-17T12:56:43Z</time>
      </trkpt>
      <trkpt lat="44.45496" lon="5.60403">
        <ele>1426.53</ele>
        <time>2018-06-17T12:56:46Z</time>
      </trkpt>
      <trkpt lat="44.45481" lon="5.60418">
        <ele>1427.25</ele>
        <time>2018-06-17T12:56:49Z</time>
      </trkpt>
      <trkpt lat="44.45472" lon="5.60442">
        <ele>1429.15</ele>
        <time>2018-06-17T12:56:52Z</time>
      </trkpt>
      <trkpt lat="44.45471" lon="5.60476">
        <ele>1432.36</ele>
        <time>2018-06-17T12:56:56Z</time>
      </trkpt>
      <trkpt lat="44.45477" lon="5.60504">
        <ele>1435.63</ele>
        <time>2018-06-17T12:57:00Z</time>
      </trkpt>
      <trkpt lat="44.45477" lon="5.60538">
        <ele>1439.97</ele>
        <time>2018-06-17T12:57:04Z</time>
      </trkpt>
      <trkpt lat="44.45479" lon="5.60568">
        <ele>1442.14</ele>
        <time>2018-06-17T12:57:07Z</time>
      </trkpt>
      <trkpt lat="44.4548" lon="5.60597">
        <ele>1443.24</ele>
        <time>2018-06-17T12:57:10Z</time>
      </trkpt>
      <trkpt lat="44.45478" lon="5.60623">
        <ele>1445.91</ele>
        <time>2018-06-17T12:57:13Z</time>
      </trkpt>
      <trkpt lat="44.45476" lon="5.6065">
        <ele>1448.44</ele>
        <time>2018-06-17T12:57:17Z</time>
      </trkpt>
      <trkpt lat="44.45492" lon="5.60666">
        <ele>1450.01</ele>
        <time>2018-06-17T12:57:22Z</time>
      </trkpt>
      <trkpt lat="44.45511" lon="5.60668">
        <ele>1450.54</ele>
        <time>2018-06-17T12:57:26Z</time>
      </trkpt>
      <trkpt lat="44.45531" lon="5.60675">
        <ele>1451.54</ele>
        <time>2018-06-17T12:57:30Z</time>
      </trkpt>
      <trkpt lat="44.45553" lon="5.60687">
        <ele>1450.56</ele>
        <time>2018-06-17T12:57:34Z</time>
      </trkpt>
      <trkpt lat="44.45572" lon="5.60695">
        <ele>1449.58</ele>
        <time>2018-06-17T12:57:37Z</time>
      </trkpt>
      <trkpt lat="44.45593" lon="5.60704">
        <ele>1451.43</ele>
        <time>2018-06-17T12:57:41Z</time>
      </trkpt>
      <trkpt lat="44.45613" lon="5.60714">
        <ele>1451.55</ele>
        <time>2018-06-17T12:57:46Z</time>
      </trkpt>
      <trkpt lat="44.4563" lon="5.60721">
        <ele>1448.65</ele>
        <time>2018-06-17T12:57:53Z</time>
      </trkpt>
      <trkpt lat="44.45652" lon="5.60728">
        <ele>1450.57</ele>
        <time>2018-06-17T13:01:32Z</time>
      </trkpt>
      <trkpt lat="44.45671" lon="5.60722">
        <ele>1452.18</ele>
        <time>2018-06-17T13:01:36Z</time>
      </trkpt>
      <trkpt lat="44.4569" lon="5.60708">
        <ele>1453.33</ele>
        <time>2018-06-17T13:01:40Z</time>
      </trkpt>
      <trkpt lat="44.45705" lon="5.60722">
        <ele>1454.53</ele>
        <time>2018-06-17T13:01:45Z</time>
      </trkpt>
      <trkpt lat="44.45715" lon="5.60744">
        <ele>1454.34</ele>
        <time>2018-06-17T13:02:47Z</time>
      </trkpt>
      <trkpt lat="44.45728" lon="5.60773">
        <ele>1454.54</ele>
        <time>2018-06-17T13:02:50Z</time>
      </trkpt>
      <trkpt lat="44.45739" lon="5.60796">
        <ele>1453.85</ele>
        <time>2018-06-17T13:02:52Z</time>
      </trkpt>
      <trkpt lat="44.4575" lon="5.60816">
        <ele>1453.57</ele>
        <time>2018-06-17T13:02:54Z</time>
      </trkpt>
      <trkpt lat="44.45762" lon="5.60839">
        <ele>1452.64</ele>
        <time>2018-06-17T13:02:56Z</time>
      </trkpt>
      <trkpt lat="44.45772" lon="5.60861">
        <ele>1452.56</ele>
        <time>2018-06-17T13:02:58Z</time>
      </trkpt>
      <trkpt lat="44.45782" lon="5.60883">
        <ele>1452.55</ele>
        <time>2018-06-17T13:03:00Z</time>
      </trkpt>
      <trkpt lat="44.45798" lon="5.60913">
        <ele>1452.61</ele>
        <time>2018-06-17T13:03:03Z</time>
      </trkpt>
      <trkpt lat="44.45808" lon="5.60933">
        <ele>1451.85</ele>
        <time>2018-06-17T13:03:05Z</time>
      </trkpt>
      <trkpt lat="44.45823" lon="5.60961">
        <ele>1450.86</ele>
        <time>2018-06-17T13:03:08Z</time>
      </trkpt>
      <trkpt lat="44.45833" lon="5.60987">
        <ele>1450.56</ele>
        <time>2018-06-17T13:03:11Z</time>
      </trkpt>
      <trkpt lat="44.45835" lon="5.61013">
        <ele>1449.85</ele>
        <time>2018-06-17T13:03:14Z</time>
      </trkpt>
      <trkpt lat="44.45832" lon="5.61045">
        <ele>1449.64</ele>
        <time>2018-06-17T13:03:19Z</time>
      </trkpt>
      <trkpt lat="44.45831" lon="5.61076">
        <ele>1449.55</ele>
        <time>2018-06-17T13:03:22Z</time>
      </trkpt>
      <trkpt lat="44.45832" lon="5.61102">
        <ele>1450.46</ele>
        <time>2018-06-17T13:03:25Z</time>
      </trkpt>
      <trkpt lat="44.45836" lon="5.61127">
        <ele>1451.46</ele>
        <time>2018-06-17T13:03:28Z</time>
      </trkpt>
      <trkpt lat="44.45838" lon="5.61158">
        <ele>1450.64</ele>
        <time>2018-06-17T13:03:32Z</time>
      </trkpt>
      <trkpt lat="44.45855" lon="5.61176">
        <ele>1448.77</ele>
        <time>2018-06-17T13:03:37Z</time>
      </trkpt>
      <trkpt lat="44.45877" lon="5.6118">
        <ele>1446.57</ele>
        <time>2018-06-17T13:03:41Z</time>
      </trkpt>
      <trkpt lat="44.45896" lon="5.61197">
        <ele>1447.54</ele>
        <time>2018-06-17T13:03:45Z</time>
      </trkpt>
      <trkpt lat="44.45908" lon="5.61219">
        <ele>1447.55</ele>
        <time>2018-06-17T13:03:48Z</time>
      </trkpt>
      <trkpt lat="44.45927" lon="5.61232">
        <ele>1447.55</ele>
        <time>2018-06-17T13:03:52Z</time>
      </trkpt>
      <trkpt lat="44.45949" lon="5.61237">
        <ele>1447.55</ele>
        <time>2018-06-17T13:03:55Z</time>
      </trkpt>
      <trkpt lat="44.45969" lon="5.61244">
        <ele>1445.94</ele>
        <time>2018-06-17T13:03:58Z</time>
      </trkpt>
      <trkpt lat="44.45986" lon="5.61255">
        <ele>1446.25</ele>
        <time>2018-06-17T13:04:03Z</time>
      </trkpt>
      <trkpt lat="44.46012" lon="5.61262">
        <ele>1450.57</ele>
        <time>2018-06-17T13:05:07Z</time>
      </trkpt>
      <trkpt lat="44.46023" lon="5.6124">
        <ele>1449.77</ele>
        <time>2018-06-17T13:05:13Z</time>
      </trkpt>
      <trkpt lat="44.46027" lon="5.61214">
        <ele>1449.55</ele>
        <time>2018-06-17T13:05:17Z</time>
      </trkpt>
      <trkpt lat="44.46041" lon="5.61194">
        <ele>1448.28</ele>
        <time>2018-06-17T13:05:21Z</time>
      </trkpt>
      <trkpt lat="44.4606" lon="5.61185">
        <ele>1449.52</ele>
        <time>2018-06-17T13:05:25Z</time>
      </trkpt>
      <trkpt lat="44.46081" lon="5.61186">
        <ele>1449.84</ele>
        <time>2018-06-17T13:05:29Z</time>
      </trkpt>
      <trkpt lat="44.46102" lon="5.61183">
        <ele>1448.56</ele>
        <time>2018-06-17T13:05:33Z</time>
      </trkpt>
      <trkpt lat="44.46121" lon="5.61178">
        <ele>1445.95</ele>
        <time>2018-06-17T13:05:37Z</time>
      </trkpt>
      <trkpt lat="44.46143" lon="5.61175">
        <ele>1441.68</ele>
        <time>2018-06-17T13:05:41Z</time>
      </trkpt>
      <trkpt lat="44.46162" lon="5.61174">
        <ele>1440.64</ele>
        <time>2018-06-17T13:05:44Z</time>
      </trkpt>
      <trkpt lat="44.46185" lon="5.61171">
        <ele>1438.56</ele>
        <time>2018-06-17T13:05:48Z</time>
      </trkpt>
      <trkpt lat="44.46203" lon="5.61162">
        <ele>1437.7</ele>
        <time>2018-06-17T13:05:51Z</time>
      </trkpt>
      <trkpt lat="44.46223" lon="5.61161">
        <ele>1434.63</ele>
        <time>2018-06-17T13:05:54Z</time>
      </trkpt>
      <trkpt lat="44.46242" lon="5.61171">
        <ele>1432.18</ele>
        <time>2018-06-17T13:05:57Z</time>
      </trkpt>
      <trkpt lat="44.46264" lon="5.61179">
        <ele>1431.35</ele>
        <time>2018-06-17T13:06:00Z</time>
      </trkpt>
      <trkpt lat="44.46285" lon="5.6119">
        <ele>1426.38</ele>
        <time>2018-06-17T13:06:04Z</time>
      </trkpt>
      <trkpt lat="44.46305" lon="5.61196">
        <ele>1419.09</ele>
        <time>2018-06-17T13:06:09Z</time>
      </trkpt>
      <trkpt lat="44.46324" lon="5.612">
        <ele>1418.91</ele>
        <time>2018-06-17T13:06:13Z</time>
      </trkpt>
      <trkpt lat="44.46343" lon="5.61203">
        <ele>1415.76</ele>
        <time>2018-06-17T13:06:17Z</time>
      </trkpt>
      <trkpt lat="44.46362" lon="5.6121">
        <ele>1414.27</ele>
        <time>2018-06-17T13:06:21Z</time>
      </trkpt>
      <trkpt lat="44.46381" lon="5.61207">
        <ele>1415.52</ele>
        <time>2018-06-17T13:06:25Z</time>
      </trkpt>
      <trkpt lat="44.46399" lon="5.61206">
        <ele>1411.34</ele>
        <time>2018-06-17T13:06:29Z</time>
      </trkpt>
      <trkpt lat="44.46418" lon="5.612">
        <ele>1409.36</ele>
        <time>2018-06-17T13:06:33Z</time>
      </trkpt>
      <trkpt lat="44.46436" lon="5.6118">
        <ele>1406.65</ele>
        <time>2018-06-17T13:06:37Z</time>
      </trkpt>
      <trkpt lat="44.46457" lon="5.6117">
        <ele>1404.58</ele>
        <time>2018-06-17T13:06:41Z</time>
      </trkpt>
      <trkpt lat="44.46476" lon="5.61185">
        <ele>1404.82</ele>
        <time>2018-06-17T13:06:45Z</time>
      </trkpt>
      <trkpt lat="44.46476" lon="5.61217">
        <ele>1402.88</ele>
        <time>2018-06-17T13:06:49Z</time>
      </trkpt>
      <trkpt lat="44.46474" lon="5.61248">
        <ele>1401.86</ele>
        <time>2018-06-17T13:06:52Z</time>
      </trkpt>
      <trkpt lat="44.46477" lon="5.61279">
        <ele>1398.27</ele>
        <time>2018-06-17T13:06:56Z</time>
      </trkpt>
      <trkpt lat="44.46489" lon="5.61302">
        <ele>1393.69</ele>
        <time>2018-06-17T13:07:00Z</time>
      </trkpt>
      <trkpt lat="44.46505" lon="5.6132">
        <ele>1391.58</ele>
        <time>2018-06-17T13:07:04Z</time>
      </trkpt>
      <trkpt lat="44.46524" lon="5.61328">
        <ele>1389.65</ele>
        <time>2018-06-17T13:07:08Z</time>
      </trkpt>
      <trkpt lat="44.46538" lon="5.61351">
        <ele>1387.67</ele>
        <time>2018-06-17T13:07:12Z</time>
      </trkpt>
      <trkpt lat="44.46548" lon="5.61375">
        <ele>1384.67</ele>
        <time>2018-06-17T13:07:16Z</time>
      </trkpt>
      <trkpt lat="44.4656" lon="5.61397">
        <ele>1380.88</ele>
        <time>2018-06-17T13:07:22Z</time>
      </trkpt>
      <trkpt lat="44.46541" lon="5.61403">
        <ele>1379.57</ele>
        <time>2018-06-17T13:07:33Z</time>
      </trkpt>
      <trkpt lat="44.4653" lon="5.61376">
        <ele>1379.55</ele>
        <time>2018-06-17T13:07:37Z</time>
      </trkpt>
      <trkpt lat="44.46514" lon="5.61359">
        <ele>1377.88</ele>
        <time>2018-06-17T13:07:41Z</time>
      </trkpt>
      <trkpt lat="44.46492" lon="5.6135">
        <ele>1376.85</ele>
        <time>2018-06-17T13:07:45Z</time>
      </trkpt>
      <trkpt lat="44.46473" lon="5.61346">
        <ele>1374.88</ele>
        <time>2018-06-17T13:07:48Z</time>
      </trkpt>
      <trkpt lat="44.46457" lon="5.61332">
        <ele>1373.91</ele>
        <time>2018-06-17T13:07:52Z</time>
      </trkpt>
      <trkpt lat="44.46444" lon="5.61313">
        <ele>1371.65</ele>
        <time>2018-06-17T13:07:56Z</time>
      </trkpt>
      <trkpt lat="44.46429" lon="5.61296">
        <ele>1370.28</ele>
        <time>2018-06-17T13:08:00Z</time>
      </trkpt>
      <trkpt lat="44.46408" lon="5.61299">
        <ele>1369.7</ele>
        <time>2018-06-17T13:08:04Z</time>
      </trkpt>
      <trkpt lat="44.46388" lon="5.61307">
        <ele>1366.97</ele>
        <time>2018-06-17T13:08:08Z</time>
      </trkpt>
      <trkpt lat="44.4637" lon="5.61309">
        <ele>1364.04</ele>
        <time>2018-06-17T13:08:11Z</time>
      </trkpt>
      <trkpt lat="44.46351" lon="5.6131">
        <ele>1361.65</ele>
        <time>2018-06-17T13:08:15Z</time>
      </trkpt>
      <trkpt lat="44.46333" lon="5.61317">
        <ele>1360.85</ele>
        <time>2018-06-17T13:08:18Z</time>
      </trkpt>
      <trkpt lat="44.46315" lon="5.61326">
        <ele>1361.26</ele>
        <time>2018-06-17T13:08:21Z</time>
      </trkpt>
      <trkpt lat="44.46296" lon="5.61334">
        <ele>1360.57</ele>
        <time>2018-06-17T13:08:24Z</time>
      </trkpt>
      <trkpt lat="44.46281" lon="5.61349">
        <ele>1359.15</ele>
        <time>2018-06-17T13:08:28Z</time>
      </trkpt>
      <trkpt lat="44.46299" lon="5.61351">
        <ele>1352.68</ele>
        <time>2018-06-17T13:08:40Z</time>
      </trkpt>
      <trkpt lat="44.46318" lon="5.61347">
        <ele>1352.85</ele>
        <time>2018-06-17T13:08:45Z</time>
      </trkpt>
      <trkpt lat="44.46338" lon="5.61358">
        <ele>1352.36</ele>
        <time>2018-06-17T13:08:49Z</time>
      </trkpt>
      <trkpt lat="44.46354" lon="5.61372">
        <ele>1347.66</ele>
        <time>2018-06-17T13:08:54Z</time>
      </trkpt>
      <trkpt lat="44.46373" lon="5.61389">
        <ele>1344.95</ele>
        <time>2018-06-17T13:08:58Z</time>
      </trkpt>
      <trkpt lat="44.46388" lon="5.61411">
        <ele>1342.18</ele>
        <time>2018-06-17T13:09:02Z</time>
      </trkpt>
      <trkpt lat="44.4641" lon="5.61424">
        <ele>1339.94</ele>
        <time>2018-06-17T13:09:06Z</time>
      </trkpt>
      <trkpt lat="44.4643" lon="5.6144">
        <ele>1336.59</ele>
        <time>2018-06-17T13:09:10Z</time>
      </trkpt>
      <trkpt lat="44.46448" lon="5.61459">
        <ele>1332.97</ele>
        <time>2018-06-17T13:09:14Z</time>
      </trkpt>
      <trkpt lat="44.46462" lon="5.61484">
        <ele>1330.65</ele>
        <time>2018-06-17T13:09:18Z</time>
      </trkpt>
      <trkpt lat="44.46472" lon="5.61512">
        <ele>1328.71</ele>
        <time>2018-06-17T13:09:22Z</time>
      </trkpt>
      <trkpt lat="44.46487" lon="5.61532">
        <ele>1325.95</ele>
        <time>2018-06-17T13:09:26Z</time>
      </trkpt>
      <trkpt lat="44.46507" lon="5.61538">
        <ele>1324.58</ele>
        <time>2018-06-17T13:09:30Z</time>
      </trkpt>
      <trkpt lat="44.46522" lon="5.61553">
        <ele>1323.87</ele>
        <time>2018-06-17T13:09:34Z</time>
      </trkpt>
      <trkpt lat="44.46532" lon="5.61575">
        <ele>1322.29</ele>
        <time>2018-06-17T13:09:38Z</time>
      </trkpt>
      <trkpt lat="44.46548" lon="5.61594">
        <ele>1319.96</ele>
        <time>2018-06-17T13:09:42Z</time>
      </trkpt>
      <trkpt lat="44.46563" lon="5.61616">
        <ele>1317.65</ele>
        <time>2018-06-17T13:09:46Z</time>
      </trkpt>
      <trkpt lat="44.46576" lon="5.61634">
        <ele>1316.64</ele>
        <time>2018-06-17T13:09:49Z</time>
      </trkpt>
      <trkpt lat="44.46591" lon="5.61656">
        <ele>1314.86</ele>
        <time>2018-06-17T13:09:53Z</time>
      </trkpt>
      <trkpt lat="44.4661" lon="5.61672">
        <ele>1311.89</ele>
        <time>2018-06-17T13:09:57Z</time>
      </trkpt>
      <trkpt lat="44.46623" lon="5.61697">
        <ele>1310.87</ele>
        <time>2018-06-17T13:10:01Z</time>
      </trkpt>
      <trkpt lat="44.46634" lon="5.61724">
        <ele>1309.35</ele>
        <time>2018-06-17T13:10:05Z</time>
      </trkpt>
      <trkpt lat="44.46649" lon="5.61746">
        <ele>1306.94</ele>
        <time>2018-06-17T13:10:09Z</time>
      </trkpt>
      <trkpt lat="44.46659" lon="5.6177">
        <ele>1302.93</ele>
        <time>2018-06-17T13:10:13Z</time>
      </trkpt>
      <trkpt lat="44.46666" lon="5.61798">
        <ele>1300.86</ele>
        <time>2018-06-17T13:10:17Z</time>
      </trkpt>
      <trkpt lat="44.46678" lon="5.61819">
        <ele>1300.55</ele>
        <time>2018-06-17T13:10:21Z</time>
      </trkpt>
      <trkpt lat="44.46696" lon="5.61827">
        <ele>1300.55</ele>
        <time>2018-06-17T13:10:25Z</time>
      </trkpt>
      <trkpt lat="44.46716" lon="5.61839">
        <ele>1297.73</ele>
        <time>2018-06-17T13:10:30Z</time>
      </trkpt>
      <trkpt lat="44.46729" lon="5.61861">
        <ele>1294.67</ele>
        <time>2018-06-17T13:10:35Z</time>
      </trkpt>
      <trkpt lat="44.46746" lon="5.6188">
        <ele>1294.64</ele>
        <time>2018-06-17T13:10:40Z</time>
      </trkpt>
      <trkpt lat="44.46763" lon="5.61899">
        <ele>1293.56</ele>
        <time>2018-06-17T13:10:45Z</time>
      </trkpt>
      <trkpt lat="44.4678" lon="5.61919">
        <ele>1292.56</ele>
        <time>2018-06-17T13:10:50Z</time>
      </trkpt>
      <trkpt lat="44.46797" lon="5.61931">
        <ele>1292.55</ele>
        <time>2018-06-17T13:10:54Z</time>
      </trkpt>
      <trkpt lat="44.46814" lon="5.61939">
        <ele>1289.95</ele>
        <time>2018-06-17T13:10:58Z</time>
      </trkpt>
      <trkpt lat="44.46833" lon="5.61947">
        <ele>1290.64</ele>
        <time>2018-06-17T13:11:43Z</time>
      </trkpt>
      <trkpt lat="44.46849" lon="5.61965">
        <ele>1287.86</ele>
        <time>2018-06-17T13:11:49Z</time>
      </trkpt>
      <trkpt lat="44.46835" lon="5.61984">
        <ele>1284.88</ele>
        <time>2018-06-17T13:11:55Z</time>
      </trkpt>
      <trkpt lat="44.46818" lon="5.61975">
        <ele>1283.88</ele>
        <time>2018-06-17T13:11:57Z</time>
      </trkpt>
      <trkpt lat="44.46797" lon="5.61969">
        <ele>1281.95</ele>
        <time>2018-06-17T13:12:00Z</time>
      </trkpt>
      <trkpt lat="44.46777" lon="5.61968">
        <ele>1280.65</ele>
        <time>2018-06-17T13:12:03Z</time>
      </trkpt>
      <trkpt lat="44.46758" lon="5.61961">
        <ele>1279.58</ele>
        <time>2018-06-17T13:12:06Z</time>
      </trkpt>
      <trkpt lat="44.46736" lon="5.61956">
        <ele>1277.67</ele>
        <time>2018-06-17T13:12:10Z</time>
      </trkpt>
      <trkpt lat="44.46716" lon="5.61951">
        <ele>1274.67</ele>
        <time>2018-06-17T13:12:14Z</time>
      </trkpt>
      <trkpt lat="44.46699" lon="5.61938">
        <ele>1272.67</ele>
        <time>2018-06-17T13:12:17Z</time>
      </trkpt>
      <trkpt lat="44.46683" lon="5.61924">
        <ele>1271.64</ele>
        <time>2018-06-17T13:12:20Z</time>
      </trkpt>
      <trkpt lat="44.46665" lon="5.61912">
        <ele>1268.97</ele>
        <time>2018-06-17T13:12:23Z</time>
      </trkpt>
      <trkpt lat="44.46647" lon="5.61904">
        <ele>1268.62</ele>
        <time>2018-06-17T13:12:26Z</time>
      </trkpt>
      <trkpt lat="44.46628" lon="5.61894">
        <ele>1268.34</ele>
        <time>2018-06-17T13:12:30Z</time>
      </trkpt>
      <trkpt lat="44.46608" lon="5.61906">
        <ele>1267.62</ele>
        <time>2018-06-17T13:12:34Z</time>
      </trkpt>
      <trkpt lat="44.46588" lon="5.61903">
        <ele>1267.55</ele>
        <time>2018-06-17T13:12:38Z</time>
      </trkpt>
      <trkpt lat="44.46575" lon="5.61878">
        <ele>1270.4</ele>
        <time>2018-06-17T13:12:41Z</time>
      </trkpt>
      <trkpt lat="44.46562" lon="5.61856">
        <ele>1269.57</ele>
        <time>2018-06-17T13:12:44Z</time>
      </trkpt>
      <trkpt lat="44.46541" lon="5.61845">
        <ele>1266.88</ele>
        <time>2018-06-17T13:12:48Z</time>
      </trkpt>
      <trkpt lat="44.46524" lon="5.61863">
        <ele>1267.27</ele>
        <time>2018-06-17T13:12:52Z</time>
      </trkpt>
      <trkpt lat="44.46521" lon="5.61896">
        <ele>1266.55</ele>
        <time>2018-06-17T13:12:56Z</time>
      </trkpt>
      <trkpt lat="44.46517" lon="5.61921">
        <ele>1267.52</ele>
        <time>2018-06-17T13:12:59Z</time>
      </trkpt>
      <trkpt lat="44.46518" lon="5.61949">
        <ele>1266.57</ele>
        <time>2018-06-17T13:13:03Z</time>
      </trkpt>
      <trkpt lat="44.46524" lon="5.61975">
        <ele>1264.35</ele>
        <time>2018-06-17T13:13:07Z</time>
      </trkpt>
      <trkpt lat="44.46534" lon="5.62">
        <ele>1260.7</ele>
        <time>2018-06-17T13:13:11Z</time>
      </trkpt>
      <trkpt lat="44.46546" lon="5.62018">
        <ele>1259.15</ele>
        <time>2018-06-17T13:13:14Z</time>
      </trkpt>
      <trkpt lat="44.46555" lon="5.62043">
        <ele>1254.72</ele>
        <time>2018-06-17T13:13:18Z</time>
      </trkpt>
      <trkpt lat="44.46566" lon="5.62072">
        <ele>1250.96</ele>
        <time>2018-06-17T13:13:22Z</time>
      </trkpt>
      <trkpt lat="44.46574" lon="5.621">
        <ele>1247.74</ele>
        <time>2018-06-17T13:13:27Z</time>
      </trkpt>
      <trkpt lat="44.46565" lon="5.62125">
        <ele>1247.51</ele>
        <time>2018-06-17T13:14:27Z</time>
      </trkpt>
      <trkpt lat="44.46571" lon="5.62158">
        <ele>1244.75</ele>
        <time>2018-06-17T13:14:30Z</time>
      </trkpt>
      <trkpt lat="44.46578" lon="5.62189">
        <ele>1242.52</ele>
        <time>2018-06-17T13:14:33Z</time>
      </trkpt>
      <trkpt lat="44.46578" lon="5.62218">
        <ele>1242.55</ele>
        <time>2018-06-17T13:14:36Z</time>
      </trkpt>
      <trkpt lat="44.46582" lon="5.62246">
        <ele>1239.05</ele>
        <time>2018-06-17T13:14:39Z</time>
      </trkpt>
      <trkpt lat="44.4659" lon="5.62276">
        <ele>1237.65</ele>
        <time>2018-06-17T13:14:42Z</time>
      </trkpt>
      <trkpt lat="44.46601" lon="5.62302">
        <ele>1234.97</ele>
        <time>2018-06-17T13:14:45Z</time>
      </trkpt>
      <trkpt lat="44.46611" lon="5.62324">
        <ele>1236.2</ele>
        <time>2018-06-17T13:14:47Z</time>
      </trkpt>
      <trkpt lat="44.46621" lon="5.62348">
        <ele>1235.82</ele>
        <time>2018-06-17T13:14:49Z</time>
      </trkpt>
      <trkpt lat="44.46628" lon="5.62374">
        <ele>1236.27</ele>
        <time>2018-06-17T13:14:51Z</time>
      </trkpt>
      <trkpt lat="44.46635" lon="5.62402">
        <ele>1235.61</ele>
        <time>2018-06-17T13:14:53Z</time>
      </trkpt>
      <trkpt lat="44.46649" lon="5.62429">
        <ele>1235.55</ele>
        <time>2018-06-17T13:14:55Z</time>
      </trkpt>
      <trkpt lat="44.46658" lon="5.62456">
        <ele>1236.25</ele>
        <time>2018-06-17T13:14:57Z</time>
      </trkpt>
      <trkpt lat="44.46667" lon="5.62482">
        <ele>1237.22</ele>
        <time>2018-06-17T13:14:59Z</time>
      </trkpt>
      <trkpt lat="44.46678" lon="5.62512">
        <ele>1234.96</ele>
        <time>2018-06-17T13:15:02Z</time>
      </trkpt>
      <trkpt lat="44.46686" lon="5.62542">
        <ele>1234.56</ele>
        <time>2018-06-17T13:15:05Z</time>
      </trkpt>
      <trkpt lat="44.46681" lon="5.62579">
        <ele>1237.34</ele>
        <time>2018-06-17T13:15:08Z</time>
      </trkpt>
      <trkpt lat="44.4667" lon="5.62612">
        <ele>1239.15</ele>
        <time>2018-06-17T13:15:11Z</time>
      </trkpt>
      <trkpt lat="44.46657" lon="5.62631">
        <ele>1239.51</ele>
        <time>2018-06-17T13:15:13Z</time>
      </trkpt>
      <trkpt lat="44.46644" lon="5.62649">
        <ele>1240.24</ele>
        <time>2018-06-17T13:15:15Z</time>
      </trkpt>
      <trkpt lat="44.46634" lon="5.62679">
        <ele>1241.45</ele>
        <time>2018-06-17T13:15:18Z</time>
      </trkpt>
      <trkpt lat="44.46632" lon="5.62704">
        <ele>1241.54</ele>
        <time>2018-06-17T13:15:20Z</time>
      </trkpt>
      <trkpt lat="44.46626" lon="5.62738">
        <ele>1241.55</ele>
        <time>2018-06-17T13:15:23Z</time>
      </trkpt>
      <trkpt lat="44.46622" lon="5.62769">
        <ele>1242.52</ele>
        <time>2018-06-17T13:15:26Z</time>
      </trkpt>
      <trkpt lat="44.46623" lon="5.62798">
        <ele>1241.85</ele>
        <time>2018-06-17T13:15:29Z</time>
      </trkpt>
      <trkpt lat="44.46624" lon="5.62831">
        <ele>1243.86</ele>
        <time>2018-06-17T13:15:33Z</time>
      </trkpt>
      <trkpt lat="44.46625" lon="5.62859">
        <ele>1244.59</ele>
        <time>2018-06-17T13:15:36Z</time>
      </trkpt>
      <trkpt lat="44.46622" lon="5.62887">
        <ele>1244.55</ele>
        <time>2018-06-17T13:15:39Z</time>
      </trkpt>
      <trkpt lat="44.46618" lon="5.62915">
        <ele>1245.25</ele>
        <time>2018-06-17T13:15:42Z</time>
      </trkpt>
      <trkpt lat="44.46616" lon="5.62942">
        <ele>1247.42</ele>
        <time>2018-06-17T13:15:45Z</time>
      </trkpt>
      <trkpt lat="44.46612" lon="5.62972">
        <ele>1252.52</ele>
        <time>2018-06-17T13:16:06Z</time>
      </trkpt>
      <trkpt lat="44.46618" lon="5.63">
        <ele>1249.34</ele>
        <time>2018-06-17T13:16:10Z</time>
      </trkpt>
      <trkpt lat="44.46631" lon="5.63019">
        <ele>1249.27</ele>
        <time>2018-06-17T13:17:01Z</time>
      </trkpt>
      <trkpt lat="44.46638" lon="5.63047">
        <ele>1251.9</ele>
        <time>2018-06-17T13:17:06Z</time>
      </trkpt>
      <trkpt lat="44.46639" lon="5.63082">
        <ele>1246.09</ele>
        <time>2018-06-17T13:17:10Z</time>
      </trkpt>
      <trkpt lat="44.4664" lon="5.63108">
        <ele>1245.07</ele>
        <time>2018-06-17T13:17:13Z</time>
      </trkpt>
      <trkpt lat="44.46636" lon="5.63134">
        <ele>1244.28</ele>
        <time>2018-06-17T13:17:17Z</time>
      </trkpt>
      <trkpt lat="44.46616" lon="5.63148">
        <ele>1240.9</ele>
        <time>2018-06-17T13:17:22Z</time>
      </trkpt>
      <trkpt lat="44.46597" lon="5.6316">
        <ele>1236.68</ele>
        <time>2018-06-17T13:17:26Z</time>
      </trkpt>
      <trkpt lat="44.46581" lon="5.63176">
        <ele>1234.58</ele>
        <time>2018-06-17T13:17:31Z</time>
      </trkpt>
      <trkpt lat="44.46562" lon="5.63193">
        <ele>1234.55</ele>
        <time>2018-06-17T13:17:36Z</time>
      </trkpt>
      <trkpt lat="44.46549" lon="5.63217">
        <ele>1233.57</ele>
        <time>2018-06-17T13:17:40Z</time>
      </trkpt>
      <trkpt lat="44.46544" lon="5.63242">
        <ele>1232.85</ele>
        <time>2018-06-17T13:17:43Z</time>
      </trkpt>
      <trkpt lat="44.46541" lon="5.63269">
        <ele>1233.26</ele>
        <time>2018-06-17T13:17:46Z</time>
      </trkpt>
      <trkpt lat="44.46538" lon="5.63296">
        <ele>1233.54</ele>
        <time>2018-06-17T13:17:49Z</time>
      </trkpt>
      <trkpt lat="44.46533" lon="5.63324">
        <ele>1228.8</ele>
        <time>2018-06-17T13:17:52Z</time>
      </trkpt>
      <trkpt lat="44.46527" lon="5.6335">
        <ele>1227.85</ele>
        <time>2018-06-17T13:17:55Z</time>
      </trkpt>
      <trkpt lat="44.46509" lon="5.6337">
        <ele>1226.22</ele>
        <time>2018-06-17T13:17:58Z</time>
      </trkpt>
      <trkpt lat="44.46497" lon="5.63392">
        <ele>1225.63</ele>
        <time>2018-06-17T13:18:01Z</time>
      </trkpt>
      <trkpt lat="44.46496" lon="5.63422">
        <ele>1225.55</ele>
        <time>2018-06-17T13:18:04Z</time>
      </trkpt>
      <trkpt lat="44.46496" lon="5.63461">
        <ele>1224.42</ele>
        <time>2018-06-17T13:18:07Z</time>
      </trkpt>
      <trkpt lat="44.46489" lon="5.63486">
        <ele>1218.07</ele>
        <time>2018-06-17T13:18:10Z</time>
      </trkpt>
      <trkpt lat="44.46496" lon="5.63518">
        <ele>1216.92</ele>
        <time>2018-06-17T13:18:14Z</time>
      </trkpt>
      <trkpt lat="44.46506" lon="5.63549">
        <ele>1216.83</ele>
        <time>2018-06-17T13:18:17Z</time>
      </trkpt>
      <trkpt lat="44.46507" lon="5.63575">
        <ele>1214.4</ele>
        <time>2018-06-17T13:18:20Z</time>
      </trkpt>
      <trkpt lat="44.46509" lon="5.63607">
        <ele>1214.15</ele>
        <time>2018-06-17T13:18:24Z</time>
      </trkpt>
      <trkpt lat="44.46518" lon="5.6363">
        <ele>1213.34</ele>
        <time>2018-06-17T13:18:28Z</time>
      </trkpt>
      <trkpt lat="44.46533" lon="5.63646">
        <ele>1212.57</ele>
        <time>2018-06-17T13:18:32Z</time>
      </trkpt>
      <trkpt lat="44.46549" lon="5.63657">
        <ele>1206.9</ele>
        <time>2018-06-17T13:18:38Z</time>
      </trkpt>
      <trkpt lat="44.46554" lon="5.6363">
        <ele>1200.86</ele>
        <time>2018-06-17T13:19:49Z</time>
      </trkpt>
      <trkpt lat="44.46536" lon="5.63614">
        <ele>1201.19</ele>
        <time>2018-06-17T13:19:53Z</time>
      </trkpt>
      <trkpt lat="44.46531" lon="5.63582">
        <ele>1200.49</ele>
        <time>2018-06-17T13:19:57Z</time>
      </trkpt>
      <trkpt lat="44.46537" lon="5.63548">
        <ele>1201.52</ele>
        <time>2018-06-17T13:20:00Z</time>
      </trkpt>
      <trkpt lat="44.46542" lon="5.63521">
        <ele>1194.71</ele>
        <time>2018-06-17T13:20:03Z</time>
      </trkpt>
      <trkpt lat="44.46553" lon="5.63495">
        <ele>1191.76</ele>
        <time>2018-06-17T13:20:06Z</time>
      </trkpt>
      <trkpt lat="44.46572" lon="5.63476">
        <ele>1191.62</ele>
        <time>2018-06-17T13:20:09Z</time>
      </trkpt>
      <trkpt lat="44.46588" lon="5.63447">
        <ele>1188.48</ele>
        <time>2018-06-17T13:20:12Z</time>
      </trkpt>
      <trkpt lat="44.46597" lon="5.63417">
        <ele>1185.69</ele>
        <time>2018-06-17T13:20:15Z</time>
      </trkpt>
      <trkpt lat="44.46605" lon="5.63394">
        <ele>1183.95</ele>
        <time>2018-06-17T13:20:17Z</time>
      </trkpt>
      <trkpt lat="44.46617" lon="5.6337">
        <ele>1181.25</ele>
        <time>2018-06-17T13:20:20Z</time>
      </trkpt>
      <trkpt lat="44.46634" lon="5.63349">
        <ele>1176.75</ele>
        <time>2018-06-17T13:20:24Z</time>
      </trkpt>
      <trkpt lat="44.46652" lon="5.63336">
        <ele>1177.74</ele>
        <time>2018-06-17T13:20:27Z</time>
      </trkpt>
      <trkpt lat="44.4667" lon="5.63342">
        <ele>1174.8</ele>
        <time>2018-06-17T13:20:32Z</time>
      </trkpt>
      <trkpt lat="44.46653" lon="5.63358">
        <ele>1171.67</ele>
        <time>2018-06-17T13:20:37Z</time>
      </trkpt>
      <trkpt lat="44.46643" lon="5.63384">
        <ele>1169.88</ele>
        <time>2018-06-17T13:20:41Z</time>
      </trkpt>
      <trkpt lat="44.46631" lon="5.63408">
        <ele>1166.76</ele>
        <time>2018-06-17T13:20:44Z</time>
      </trkpt>
      <trkpt lat="44.46622" lon="5.6343">
        <ele>1165.58</ele>
        <time>2018-06-17T13:20:47Z</time>
      </trkpt>
      <trkpt lat="44.46623" lon="5.6346">
        <ele>1164.85</ele>
        <time>2018-06-17T13:20:51Z</time>
      </trkpt>
      <trkpt lat="44.46628" lon="5.63494">
        <ele>1164.49</ele>
        <time>2018-06-17T13:20:54Z</time>
      </trkpt>
      <trkpt lat="44.4663" lon="5.63525">
        <ele>1163.57</ele>
        <time>2018-06-17T13:20:57Z</time>
      </trkpt>
      <trkpt lat="44.46636" lon="5.63556">
        <ele>1162.58</ele>
        <time>2018-06-17T13:21:00Z</time>
      </trkpt>
      <trkpt lat="44.46637" lon="5.63585">
        <ele>1159.96</ele>
        <time>2018-06-17T13:21:03Z</time>
      </trkpt>
      <trkpt lat="44.46632" lon="5.63612">
        <ele>1152.87</ele>
        <time>2018-06-17T13:21:06Z</time>
      </trkpt>
      <trkpt lat="44.46634" lon="5.63645">
        <ele>1149.06</ele>
        <time>2018-06-17T13:21:09Z</time>
      </trkpt>
      <trkpt lat="44.4663" lon="5.63671">
        <ele>1147.86</ele>
        <time>2018-06-17T13:21:12Z</time>
      </trkpt>
      <trkpt lat="44.46638" lon="5.63701">
        <ele>1147.3</ele>
        <time>2018-06-17T13:21:16Z</time>
      </trkpt>
      <trkpt lat="44.46645" lon="5.6373">
        <ele>1146.57</ele>
        <time>2018-06-17T13:21:20Z</time>
      </trkpt>
      <trkpt lat="44.46664" lon="5.63725">
        <ele>1143.01</ele>
        <time>2018-06-17T13:21:27Z</time>
      </trkpt>
      <trkpt lat="44.46653" lon="5.63699">
        <ele>1141.64</ele>
        <time>2018-06-17T13:21:31Z</time>
      </trkpt>
      <trkpt lat="44.46641" lon="5.63677">
        <ele>1139.24</ele>
        <time>2018-06-17T13:21:34Z</time>
      </trkpt>
      <trkpt lat="44.46649" lon="5.63654">
        <ele>1139.05</ele>
        <time>2018-06-17T13:21:37Z</time>
      </trkpt>
      <trkpt lat="44.46662" lon="5.63633">
        <ele>1137.22</ele>
        <time>2018-06-17T13:21:40Z</time>
      </trkpt>
      <trkpt lat="44.46668" lon="5.63605">
        <ele>1137.48</ele>
        <time>2018-06-17T13:21:43Z</time>
      </trkpt>
      <trkpt lat="44.4667" lon="5.63578">
        <ele>1138.46</ele>
        <time>2018-06-17T13:21:46Z</time>
      </trkpt>
      <trkpt lat="44.46675" lon="5.63546">
        <ele>1137.05</ele>
        <time>2018-06-17T13:21:50Z</time>
      </trkpt>
      <trkpt lat="44.46681" lon="5.63519">
        <ele>1135.86</ele>
        <time>2018-06-17T13:21:53Z</time>
      </trkpt>
      <trkpt lat="44.46681" lon="5.63491">
        <ele>1133.88</ele>
        <time>2018-06-17T13:21:56Z</time>
      </trkpt>
      <trkpt lat="44.46688" lon="5.63463">
        <ele>1131.18</ele>
        <time>2018-06-17T13:22:00Z</time>
      </trkpt>
      <trkpt lat="44.46704" lon="5.63445">
        <ele>1127.98</ele>
        <time>2018-06-17T13:22:03Z</time>
      </trkpt>
      <trkpt lat="44.46724" lon="5.63429">
        <ele>1127.56</ele>
        <time>2018-06-17T13:22:06Z</time>
      </trkpt>
      <trkpt lat="44.46736" lon="5.63403">
        <ele>1121.92</ele>
        <time>2018-06-17T13:22:10Z</time>
      </trkpt>
      <trkpt lat="44.4674" lon="5.63373">
        <ele>1121.57</ele>
        <time>2018-06-17T13:22:14Z</time>
      </trkpt>
      <trkpt lat="44.46762" lon="5.63363">
        <ele>1122.31</ele>
        <time>2018-06-17T13:22:17Z</time>
      </trkpt>
      <trkpt lat="44.46784" lon="5.63353">
        <ele>1119.9</ele>
        <time>2018-06-17T13:22:20Z</time>
      </trkpt>
      <trkpt lat="44.46807" lon="5.63342">
        <ele>1116.7</ele>
        <time>2018-06-17T13:22:23Z</time>
      </trkpt>
      <trkpt lat="44.4683" lon="5.63333">
        <ele>1117.74</ele>
        <time>2018-06-17T13:22:26Z</time>
      </trkpt>
      <trkpt lat="44.46849" lon="5.63323">
        <ele>1115.24</ele>
        <time>2018-06-17T13:22:29Z</time>
      </trkpt>
      <trkpt lat="44.46873" lon="5.63315">
        <ele>1111.98</ele>
        <time>2018-06-17T13:22:32Z</time>
      </trkpt>
      <trkpt lat="44.46894" lon="5.63314">
        <ele>1108</ele>
        <time>2018-06-17T13:22:35Z</time>
      </trkpt>
      <trkpt lat="44.46914" lon="5.63314">
        <ele>1105.74</ele>
        <time>2018-06-17T13:22:38Z</time>
      </trkpt>
      <trkpt lat="44.46933" lon="5.6331">
        <ele>1102.97</ele>
        <time>2018-06-17T13:22:41Z</time>
      </trkpt>
      <trkpt lat="44.46948" lon="5.63289">
        <ele>1099.06</ele>
        <time>2018-06-17T13:22:45Z</time>
      </trkpt>
      <trkpt lat="44.46956" lon="5.63262">
        <ele>1094.92</ele>
        <time>2018-06-17T13:22:48Z</time>
      </trkpt>
      <trkpt lat="44.46964" lon="5.63237">
        <ele>1090.58</ele>
        <time>2018-06-17T13:22:51Z</time>
      </trkpt>
      <trkpt lat="44.46971" lon="5.63211">
        <ele>1087.69</ele>
        <time>2018-06-17T13:22:54Z</time>
      </trkpt>
      <trkpt lat="44.46984" lon="5.63186">
        <ele>1087.68</ele>
        <time>2018-06-17T13:22:57Z</time>
      </trkpt>
      <trkpt lat="44.46999" lon="5.63167">
        <ele>1086.91</ele>
        <time>2018-06-17T13:23:00Z</time>
      </trkpt>
      <trkpt lat="44.47013" lon="5.63146">
        <ele>1084.24</ele>
        <time>2018-06-17T13:23:04Z</time>
      </trkpt>
      <trkpt lat="44.47024" lon="5.63166">
        <ele>1081.58</ele>
        <time>2018-06-17T13:23:12Z</time>
      </trkpt>
      <trkpt lat="44.47015" lon="5.63189">
        <ele>1081.55</ele>
        <time>2018-06-17T13:23:16Z</time>
      </trkpt>
      <trkpt lat="44.47008" lon="5.63217">
        <ele>1081.55</ele>
        <time>2018-06-17T13:23:20Z</time>
      </trkpt>
      <trkpt lat="44.47005" lon="5.63251">
        <ele>1081.76</ele>
        <time>2018-06-17T13:23:24Z</time>
      </trkpt>
      <trkpt lat="44.47006" lon="5.63277">
        <ele>1081.55</ele>
        <time>2018-06-17T13:23:28Z</time>
      </trkpt>
      <trkpt lat="44.47021" lon="5.63257">
        <ele>1072.69</ele>
        <time>2018-06-17T13:23:35Z</time>
      </trkpt>
      <trkpt lat="44.47036" lon="5.63232">
        <ele>1069.61</ele>
        <time>2018-06-17T13:23:39Z</time>
      </trkpt>
      <trkpt lat="44.47051" lon="5.63217">
        <ele>1067.67</ele>
        <time>2018-06-17T13:23:42Z</time>
      </trkpt>
      <trkpt lat="44.4706" lon="5.63194">
        <ele>1066.64</ele>
        <time>2018-06-17T13:23:45Z</time>
      </trkpt>
      <trkpt lat="44.47064" lon="5.63166">
        <ele>1063.27</ele>
        <time>2018-06-17T13:23:48Z</time>
      </trkpt>
      <trkpt lat="44.47063" lon="5.63135">
        <ele>1061.59</ele>
        <time>2018-06-17T13:23:51Z</time>
      </trkpt>
      <trkpt lat="44.47061" lon="5.631">
        <ele>1060.85</ele>
        <time>2018-06-17T13:23:54Z</time>
      </trkpt>
      <trkpt lat="44.47058" lon="5.63063">
        <ele>1061.26</ele>
        <time>2018-06-17T13:23:57Z</time>
      </trkpt>
      <trkpt lat="44.47054" lon="5.63027">
        <ele>1059.17</ele>
        <time>2018-06-17T13:24:00Z</time>
      </trkpt>
      <trkpt lat="44.47052" lon="5.62993">
        <ele>1058.56</ele>
        <time>2018-06-17T13:24:03Z</time>
      </trkpt>
      <trkpt lat="44.4706" lon="5.62962">
        <ele>1059.25</ele>
        <time>2018-06-17T13:24:07Z</time>
      </trkpt>
      <trkpt lat="44.47072" lon="5.62939">
        <ele>1058.55</ele>
        <time>2018-06-17T13:24:11Z</time>
      </trkpt>
      <trkpt lat="44.47078" lon="5.62911">
        <ele>1059.46</ele>
        <time>2018-06-17T13:24:16Z</time>
      </trkpt>
      <trkpt lat="44.47075" lon="5.62883">
        <ele>1060.25</ele>
        <time>2018-06-17T13:24:21Z</time>
      </trkpt>
      <trkpt lat="44.47092" lon="5.62874">
        <ele>1062.43</ele>
        <time>2018-06-17T13:24:26Z</time>
      </trkpt>
      <trkpt lat="44.47111" lon="5.62871">
        <ele>1065.45</ele>
        <time>2018-06-17T13:24:31Z</time>
      </trkpt>
      <trkpt lat="44.47113" lon="5.62841">
        <ele>1063.58</ele>
        <time>2018-06-17T13:24:36Z</time>
      </trkpt>
      <trkpt lat="44.4711" lon="5.62813">
        <ele>1065.22</ele>
        <time>2018-06-17T13:24:41Z</time>
      </trkpt>
      <trkpt lat="44.47125" lon="5.62794">
        <ele>1066.27</ele>
        <time>2018-06-17T13:24:46Z</time>
      </trkpt>
      <trkpt lat="44.47145" lon="5.62793">
        <ele>1067.54</ele>
        <time>2018-06-17T13:24:50Z</time>
      </trkpt>
      <trkpt lat="44.47163" lon="5.628">
        <ele>1067.61</ele>
        <time>2018-06-17T13:24:54Z</time>
      </trkpt>
      <trkpt lat="44.47181" lon="5.62814">
        <ele>1066.64</ele>
        <time>2018-06-17T13:25:00Z</time>
      </trkpt>
      <trkpt lat="44.47196" lon="5.62835">
        <ele>1063.86</ele>
        <time>2018-06-17T13:25:06Z</time>
      </trkpt>
      <trkpt lat="44.47208" lon="5.62855">
        <ele>1061.79</ele>
        <time>2018-06-17T13:25:11Z</time>
      </trkpt>
      <trkpt lat="44.47222" lon="5.62875">
        <ele>1059.56</ele>
        <time>2018-06-17T13:25:16Z</time>
      </trkpt>
      <trkpt lat="44.47236" lon="5.62894">
        <ele>1058.66</ele>
        <time>2018-06-17T13:25:21Z</time>
      </trkpt>
      <trkpt lat="44.47249" lon="5.62912">
        <ele>1058.19</ele>
        <time>2018-06-17T13:26:28Z</time>
      </trkpt>
      <trkpt lat="44.47254" lon="5.62939">
        <ele>1058.33</ele>
        <time>2018-06-17T13:26:31Z</time>
      </trkpt>
      <trkpt lat="44.47258" lon="5.62969">
        <ele>1059.46</ele>
        <time>2018-06-17T13:26:35Z</time>
      </trkpt>
      <trkpt lat="44.47272" lon="5.62989">
        <ele>1058</ele>
        <time>2018-06-17T13:26:38Z</time>
      </trkpt>
      <trkpt lat="44.47287" lon="5.63015">
        <ele>1055.46</ele>
        <time>2018-06-17T13:26:41Z</time>
      </trkpt>
      <trkpt lat="44.47295" lon="5.63049">
        <ele>1051.78</ele>
        <time>2018-06-17T13:26:44Z</time>
      </trkpt>
      <trkpt lat="44.47303" lon="5.63085">
        <ele>1051.55</ele>
        <time>2018-06-17T13:26:47Z</time>
      </trkpt>
      <trkpt lat="44.47308" lon="5.6311">
        <ele>1051.55</ele>
        <time>2018-06-17T13:26:49Z</time>
      </trkpt>
      <trkpt lat="44.47305" lon="5.63144">
        <ele>1049.94</ele>
        <time>2018-06-17T13:26:52Z</time>
      </trkpt>
      <trkpt lat="44.473" lon="5.63168">
        <ele>1048.88</ele>
        <time>2018-06-17T13:26:54Z</time>
      </trkpt>
      <trkpt lat="44.47298" lon="5.63195">
        <ele>1047.67</ele>
        <time>2018-06-17T13:26:56Z</time>
      </trkpt>
      <trkpt lat="44.47301" lon="5.63224">
        <ele>1046.65</ele>
        <time>2018-06-17T13:26:58Z</time>
      </trkpt>
      <trkpt lat="44.47313" lon="5.63247">
        <ele>1047.47</ele>
        <time>2018-06-17T13:27:00Z</time>
      </trkpt>
      <trkpt lat="44.4733" lon="5.63265">
        <ele>1045.93</ele>
        <time>2018-06-17T13:27:02Z</time>
      </trkpt>
      <trkpt lat="44.47344" lon="5.63287">
        <ele>1045.58</ele>
        <time>2018-06-17T13:27:04Z</time>
      </trkpt>
      <trkpt lat="44.47354" lon="5.63312">
        <ele>1046.25</ele>
        <time>2018-06-17T13:27:06Z</time>
      </trkpt>
      <trkpt lat="44.47367" lon="5.6334">
        <ele>1044</ele>
        <time>2018-06-17T13:27:08Z</time>
      </trkpt>
      <trkpt lat="44.47377" lon="5.6337">
        <ele>1041.77</ele>
        <time>2018-06-17T13:27:10Z</time>
      </trkpt>
      <trkpt lat="44.47383" lon="5.63401">
        <ele>1039.96</ele>
        <time>2018-06-17T13:27:12Z</time>
      </trkpt>
      <trkpt lat="44.47383" lon="5.63432">
        <ele>1038.67</ele>
        <time>2018-06-17T13:27:14Z</time>
      </trkpt>
      <trkpt lat="44.47371" lon="5.63458">
        <ele>1036.95</ele>
        <time>2018-06-17T13:27:16Z</time>
      </trkpt>
      <trkpt lat="44.47354" lon="5.63483">
        <ele>1034.06</ele>
        <time>2018-06-17T13:27:18Z</time>
      </trkpt>
      <trkpt lat="44.47335" lon="5.63509">
        <ele>1032.89</ele>
        <time>2018-06-17T13:27:20Z</time>
      </trkpt>
      <trkpt lat="44.47322" lon="5.63534">
        <ele>1031.18</ele>
        <time>2018-06-17T13:27:22Z</time>
      </trkpt>
      <trkpt lat="44.47314" lon="5.63564">
        <ele>1029.9</ele>
        <time>2018-06-17T13:27:24Z</time>
      </trkpt>
      <trkpt lat="44.47308" lon="5.63599">
        <ele>1027.97</ele>
        <time>2018-06-17T13:27:26Z</time>
      </trkpt>
      <trkpt lat="44.47303" lon="5.63631">
        <ele>1026.68</ele>
        <time>2018-06-17T13:27:28Z</time>
      </trkpt>
      <trkpt lat="44.47306" lon="5.63663">
        <ele>1025.65</ele>
        <time>2018-06-17T13:27:30Z</time>
      </trkpt>
      <trkpt lat="44.47311" lon="5.63696">
        <ele>1024.65</ele>
        <time>2018-06-17T13:27:32Z</time>
      </trkpt>
      <trkpt lat="44.4732" lon="5.6373">
        <ele>1022.95</ele>
        <time>2018-06-17T13:27:34Z</time>
      </trkpt>
      <trkpt lat="44.47331" lon="5.63762">
        <ele>1019.15</ele>
        <time>2018-06-17T13:27:36Z</time>
      </trkpt>
      <trkpt lat="44.47336" lon="5.63794">
        <ele>1015.01</ele>
        <time>2018-06-17T13:27:39Z</time>
      </trkpt>
      <trkpt lat="44.47314" lon="5.63811">
        <ele>1011.64</ele>
        <time>2018-06-17T13:27:42Z</time>
      </trkpt>
      <trkpt lat="44.47295" lon="5.63812">
        <ele>1009.74</ele>
        <time>2018-06-17T13:27:44Z</time>
      </trkpt>
      <trkpt lat="44.47272" lon="5.63797">
        <ele>1009.07</ele>
        <time>2018-06-17T13:27:46Z</time>
      </trkpt>
      <trkpt lat="44.47257" lon="5.6378">
        <ele>1007.9</ele>
        <time>2018-06-17T13:27:48Z</time>
      </trkpt>
      <trkpt lat="44.4725" lon="5.63752">
        <ele>1005.97</ele>
        <time>2018-06-17T13:27:50Z</time>
      </trkpt>
      <trkpt lat="44.47245" lon="5.63718">
        <ele>1003.98</ele>
        <time>2018-06-17T13:27:52Z</time>
      </trkpt>
      <trkpt lat="44.47232" lon="5.63689">
        <ele>1001.98</ele>
        <time>2018-06-17T13:27:54Z</time>
      </trkpt>
      <trkpt lat="44.47215" lon="5.63669">
        <ele>1000.68</ele>
        <time>2018-06-17T13:27:56Z</time>
      </trkpt>
      <trkpt lat="44.47195" lon="5.63661">
        <ele>1000.35</ele>
        <time>2018-06-17T13:27:58Z</time>
      </trkpt>
      <trkpt lat="44.47176" lon="5.63649">
        <ele>999.83</ele>
        <time>2018-06-17T13:28:00Z</time>
      </trkpt>
      <trkpt lat="44.47158" lon="5.63639">
        <ele>997.96</ele>
        <time>2018-06-17T13:28:02Z</time>
      </trkpt>
      <trkpt lat="44.47136" lon="5.63644">
        <ele>996.86</ele>
        <time>2018-06-17T13:28:05Z</time>
      </trkpt>
      <trkpt lat="44.47119" lon="5.6366">
        <ele>995.88</ele>
        <time>2018-06-17T13:28:07Z</time>
      </trkpt>
      <trkpt lat="44.47115" lon="5.63694">
        <ele>992.57</ele>
        <time>2018-06-17T13:28:09Z</time>
      </trkpt>
      <trkpt lat="44.47099" lon="5.63721">
        <ele>989.69</ele>
        <time>2018-06-17T13:28:12Z</time>
      </trkpt>
      <trkpt lat="44.471" lon="5.63749">
        <ele>987.04</ele>
        <time>2018-06-17T13:28:14Z</time>
      </trkpt>
      <trkpt lat="44.47095" lon="5.6378">
        <ele>984.98</ele>
        <time>2018-06-17T13:28:16Z</time>
      </trkpt>
      <trkpt lat="44.47094" lon="5.63816">
        <ele>982.28</ele>
        <time>2018-06-17T13:28:18Z</time>
      </trkpt>
      <trkpt lat="44.47096" lon="5.63855">
        <ele>980.91</ele>
        <time>2018-06-17T13:28:20Z</time>
      </trkpt>
      <trkpt lat="44.47102" lon="5.63896">
        <ele>978.06</ele>
        <time>2018-06-17T13:28:22Z</time>
      </trkpt>
      <trkpt lat="44.47111" lon="5.63935">
        <ele>976.68</ele>
        <time>2018-06-17T13:28:24Z</time>
      </trkpt>
      <trkpt lat="44.47122" lon="5.63971">
        <ele>974.95</ele>
        <time>2018-06-17T13:28:26Z</time>
      </trkpt>
      <trkpt lat="44.47131" lon="5.64007">
        <ele>974.58</ele>
        <time>2018-06-17T13:28:28Z</time>
      </trkpt>
      <trkpt lat="44.47134" lon="5.64044">
        <ele>973.85</ele>
        <time>2018-06-17T13:28:30Z</time>
      </trkpt>
      <trkpt lat="44.47137" lon="5.64082">
        <ele>971.97</ele>
        <time>2018-06-17T13:28:32Z</time>
      </trkpt>
      <trkpt lat="44.47148" lon="5.64111">
        <ele>970.19</ele>
        <time>2018-06-17T13:28:34Z</time>
      </trkpt>
      <trkpt lat="44.4716" lon="5.64139">
        <ele>969.61</ele>
        <time>2018-06-17T13:28:36Z</time>
      </trkpt>
      <trkpt lat="44.47171" lon="5.64169">
        <ele>967.94</ele>
        <time>2018-06-17T13:28:38Z</time>
      </trkpt>
      <trkpt lat="44.47185" lon="5.64195">
        <ele>966.18</ele>
        <time>2018-06-17T13:28:40Z</time>
      </trkpt>
      <trkpt lat="44.47202" lon="5.64217">
        <ele>964.91</ele>
        <time>2018-06-17T13:28:42Z</time>
      </trkpt>
      <trkpt lat="44.47217" lon="5.64238">
        <ele>962.97</ele>
        <time>2018-06-17T13:28:44Z</time>
      </trkpt>
      <trkpt lat="44.47225" lon="5.64266">
        <ele>960.98</ele>
        <time>2018-06-17T13:28:46Z</time>
      </trkpt>
      <trkpt lat="44.47225" lon="5.64299">
        <ele>957.16</ele>
        <time>2018-06-17T13:28:48Z</time>
      </trkpt>
      <trkpt lat="44.47226" lon="5.64335">
        <ele>955.2</ele>
        <time>2018-06-17T13:28:50Z</time>
      </trkpt>
      <trkpt lat="44.47229" lon="5.64361">
        <ele>953.7</ele>
        <time>2018-06-17T13:28:52Z</time>
      </trkpt>
      <trkpt lat="44.47248" lon="5.64369">
        <ele>953.34</ele>
        <time>2018-06-17T13:28:56Z</time>
      </trkpt>
      <trkpt lat="44.47243" lon="5.64344">
        <ele>952.09</ele>
        <time>2018-06-17T13:28:57Z</time>
      </trkpt>
      <trkpt lat="44.47249" lon="5.64318">
        <ele>950.2</ele>
        <time>2018-06-17T13:28:59Z</time>
      </trkpt>
      <trkpt lat="44.47253" lon="5.64292">
        <ele>947.79</ele>
        <time>2018-06-17T13:29:01Z</time>
      </trkpt>
      <trkpt lat="44.47262" lon="5.64261">
        <ele>947.55</ele>
        <time>2018-06-17T13:29:04Z</time>
      </trkpt>
      <trkpt lat="44.47275" lon="5.64294">
        <ele>949.22</ele>
        <time>2018-06-17T13:29:07Z</time>
      </trkpt>
      <trkpt lat="44.47282" lon="5.64325">
        <ele>948.61</ele>
        <time>2018-06-17T13:29:09Z</time>
      </trkpt>
      <trkpt lat="44.47291" lon="5.64355">
        <ele>946.24</ele>
        <time>2018-06-17T13:29:11Z</time>
      </trkpt>
      <trkpt lat="44.47292" lon="5.64387">
        <ele>943.09</ele>
        <time>2018-06-17T13:29:13Z</time>
      </trkpt>
      <trkpt lat="44.47291" lon="5.6442">
        <ele>941.9</ele>
        <time>2018-06-17T13:29:15Z</time>
      </trkpt>
      <trkpt lat="44.47289" lon="5.64453">
        <ele>940.88</ele>
        <time>2018-06-17T13:29:17Z</time>
      </trkpt>
      <trkpt lat="44.47279" lon="5.64482">
        <ele>938.27</ele>
        <time>2018-06-17T13:29:19Z</time>
      </trkpt>
      <trkpt lat="44.47271" lon="5.64507">
        <ele>936</ele>
        <time>2018-06-17T13:29:21Z</time>
      </trkpt>
      <trkpt lat="44.47278" lon="5.64545">
        <ele>932</ele>
        <time>2018-06-17T13:29:24Z</time>
      </trkpt>
      <trkpt lat="44.4729" lon="5.64573">
        <ele>930.89</ele>
        <time>2018-06-17T13:29:26Z</time>
      </trkpt>
      <trkpt lat="44.47298" lon="5.64602">
        <ele>928.97</ele>
        <time>2018-06-17T13:29:28Z</time>
      </trkpt>
      <trkpt lat="44.47307" lon="5.64629">
        <ele>926.98</ele>
        <time>2018-06-17T13:29:30Z</time>
      </trkpt>
      <trkpt lat="44.47316" lon="5.64655">
        <ele>924.77</ele>
        <time>2018-06-17T13:29:32Z</time>
      </trkpt>
      <trkpt lat="44.47324" lon="5.6468">
        <ele>922.26</ele>
        <time>2018-06-17T13:29:34Z</time>
      </trkpt>
      <trkpt lat="44.47326" lon="5.64706">
        <ele>920</ele>
        <time>2018-06-17T13:29:36Z</time>
      </trkpt>
      <trkpt lat="44.47319" lon="5.64729">
        <ele>918.89</ele>
        <time>2018-06-17T13:29:38Z</time>
      </trkpt>
      <trkpt lat="44.47303" lon="5.64745">
        <ele>916.97</ele>
        <time>2018-06-17T13:29:40Z</time>
      </trkpt>
      <trkpt lat="44.4729" lon="5.64766">
        <ele>914.98</ele>
        <time>2018-06-17T13:29:42Z</time>
      </trkpt>
      <trkpt lat="44.47284" lon="5.64803">
        <ele>911.98</ele>
        <time>2018-06-17T13:29:45Z</time>
      </trkpt>
      <trkpt lat="44.47281" lon="5.6483">
        <ele>911.59</ele>
        <time>2018-06-17T13:29:47Z</time>
      </trkpt>
      <trkpt lat="44.47277" lon="5.64859">
        <ele>910.64</ele>
        <time>2018-06-17T13:29:49Z</time>
      </trkpt>
      <trkpt lat="44.47273" lon="5.64889">
        <ele>910.56</ele>
        <time>2018-06-17T13:29:51Z</time>
      </trkpt>
      <trkpt lat="44.47274" lon="5.64915">
        <ele>908.73</ele>
        <time>2018-06-17T13:29:53Z</time>
      </trkpt>
      <trkpt lat="44.47292" lon="5.64923">
        <ele>907.86</ele>
        <time>2018-06-17T13:29:55Z</time>
      </trkpt>
      <trkpt lat="44.47306" lon="5.64901">
        <ele>904.91</ele>
        <time>2018-06-17T13:29:58Z</time>
      </trkpt>
      <trkpt lat="44.47313" lon="5.64867">
        <ele>902.88</ele>
        <time>2018-06-17T13:30:01Z</time>
      </trkpt>
      <trkpt lat="44.47326" lon="5.64846">
        <ele>900.88</ele>
        <time>2018-06-17T13:30:04Z</time>
      </trkpt>
      <trkpt lat="44.47334" lon="5.64873">
        <ele>899.85</ele>
        <time>2018-06-17T13:30:08Z</time>
      </trkpt>
      <trkpt lat="44.47331" lon="5.64907">
        <ele>897.88</ele>
        <time>2018-06-17T13:30:11Z</time>
      </trkpt>
      <trkpt lat="44.47327" lon="5.64944">
        <ele>895.67</ele>
        <time>2018-06-17T13:30:14Z</time>
      </trkpt>
      <trkpt lat="44.47319" lon="5.6498">
        <ele>895.55</ele>
        <time>2018-06-17T13:30:17Z</time>
      </trkpt>
      <trkpt lat="44.47323" lon="5.65009">
        <ele>893.94</ele>
        <time>2018-06-17T13:30:19Z</time>
      </trkpt>
      <trkpt lat="44.47328" lon="5.65037">
        <ele>891.97</ele>
        <time>2018-06-17T13:30:21Z</time>
      </trkpt>
      <trkpt lat="44.47333" lon="5.65065">
        <ele>891.59</ele>
        <time>2018-06-17T13:30:23Z</time>
      </trkpt>
      <trkpt lat="44.47341" lon="5.65091">
        <ele>890.64</ele>
        <time>2018-06-17T13:30:25Z</time>
      </trkpt>
      <trkpt lat="44.47353" lon="5.65112">
        <ele>888.04</ele>
        <time>2018-06-17T13:30:27Z</time>
      </trkpt>
      <trkpt lat="44.47365" lon="5.65133">
        <ele>887.59</ele>
        <time>2018-06-17T13:30:29Z</time>
      </trkpt>
      <trkpt lat="44.47381" lon="5.65163">
        <ele>888.25</ele>
        <time>2018-06-17T13:30:32Z</time>
      </trkpt>
      <trkpt lat="44.47392" lon="5.65186">
        <ele>887.61</ele>
        <time>2018-06-17T13:30:34Z</time>
      </trkpt>
      <trkpt lat="44.47402" lon="5.65211">
        <ele>887.55</ele>
        <time>2018-06-17T13:30:36Z</time>
      </trkpt>
      <trkpt lat="44.47412" lon="5.65236">
        <ele>887.76</ele>
        <time>2018-06-17T13:30:38Z</time>
      </trkpt>
      <trkpt lat="44.47422" lon="5.6526">
        <ele>887.78</ele>
        <time>2018-06-17T13:30:40Z</time>
      </trkpt>
      <trkpt lat="44.47433" lon="5.65282">
        <ele>886.66</ele>
        <time>2018-06-17T13:30:42Z</time>
      </trkpt>
      <trkpt lat="44.47444" lon="5.65304">
        <ele>886.56</ele>
        <time>2018-06-17T13:30:44Z</time>
      </trkpt>
      <trkpt lat="44.47455" lon="5.65325">
        <ele>885.64</ele>
        <time>2018-06-17T13:30:46Z</time>
      </trkpt>
      <trkpt lat="44.47465" lon="5.65346">
        <ele>886.26</ele>
        <time>2018-06-17T13:30:48Z</time>
      </trkpt>
      <trkpt lat="44.47481" lon="5.65377">
        <ele>886.33</ele>
        <time>2018-06-17T13:30:51Z</time>
      </trkpt>
      <trkpt lat="44.47491" lon="5.65398">
        <ele>885.62</ele>
        <time>2018-06-17T13:30:53Z</time>
      </trkpt>
      <trkpt lat="44.47503" lon="5.65431">
        <ele>886.25</ele>
        <time>2018-06-17T13:30:56Z</time>
      </trkpt>
      <trkpt lat="44.4751" lon="5.6546">
        <ele>887.24</ele>
        <time>2018-06-17T13:30:59Z</time>
      </trkpt>
      <trkpt lat="44.47512" lon="5.65491">
        <ele>886.55</ele>
        <time>2018-06-17T13:31:03Z</time>
      </trkpt>
      <trkpt lat="44.47519" lon="5.65519">
        <ele>885.58</ele>
        <time>2018-06-17T13:31:07Z</time>
      </trkpt>
      <trkpt lat="44.47536" lon="5.65538">
        <ele>881.55</ele>
        <time>2018-06-17T13:33:19Z</time>
      </trkpt>
      <trkpt lat="44.47544" lon="5.65563">
        <ele>884.13</ele>
        <time>2018-06-17T13:33:22Z</time>
      </trkpt>
      <trkpt lat="44.47559" lon="5.6559">
        <ele>887.18</ele>
        <time>2018-06-17T13:33:25Z</time>
      </trkpt>
      <trkpt lat="44.47571" lon="5.65611">
        <ele>887.52</ele>
        <time>2018-06-17T13:33:27Z</time>
      </trkpt>
      <trkpt lat="44.47582" lon="5.65631">
        <ele>886.64</ele>
        <time>2018-06-17T13:33:29Z</time>
      </trkpt>
      <trkpt lat="44.47594" lon="5.65651">
        <ele>887.47</ele>
        <time>2018-06-17T13:33:31Z</time>
      </trkpt>
      <trkpt lat="44.47609" lon="5.65679">
        <ele>888.52</ele>
        <time>2018-06-17T13:33:34Z</time>
      </trkpt>
      <trkpt lat="44.47622" lon="5.65706">
        <ele>889.25</ele>
        <time>2018-06-17T13:33:37Z</time>
      </trkpt>
      <trkpt lat="44.47638" lon="5.65728">
        <ele>889.54</ele>
        <time>2018-06-17T13:33:40Z</time>
      </trkpt>
      <trkpt lat="44.47654" lon="5.65748">
        <ele>889.27</ele>
        <time>2018-06-17T13:33:43Z</time>
      </trkpt>
      <trkpt lat="44.47672" lon="5.65765">
        <ele>888.57</ele>
        <time>2018-06-17T13:33:46Z</time>
      </trkpt>
      <trkpt lat="44.4769" lon="5.65788">
        <ele>890.43</ele>
        <time>2018-06-17T13:33:49Z</time>
      </trkpt>
      <trkpt lat="44.4771" lon="5.65814">
        <ele>891.45</ele>
        <time>2018-06-17T13:33:52Z</time>
      </trkpt>
      <trkpt lat="44.47725" lon="5.65842">
        <ele>893.22</ele>
        <time>2018-06-17T13:33:55Z</time>
      </trkpt>
      <trkpt lat="44.47724" lon="5.65873">
        <ele>894.51</ele>
        <time>2018-06-17T13:33:58Z</time>
      </trkpt>
      <trkpt lat="44.47702" lon="5.65895">
        <ele>898.1</ele>
        <time>2018-06-17T13:34:01Z</time>
      </trkpt>
      <trkpt lat="44.47697" lon="5.65928">
        <ele>899.45</ele>
        <time>2018-06-17T13:34:04Z</time>
      </trkpt>
      <trkpt lat="44.47712" lon="5.6595">
        <ele>902.13</ele>
        <time>2018-06-17T13:34:07Z</time>
      </trkpt>
      <trkpt lat="44.4774" lon="5.65945">
        <ele>904.12</ele>
        <time>2018-06-17T13:34:09Z</time>
      </trkpt>
      <trkpt lat="44.47762" lon="5.65945">
        <ele>905.21</ele>
        <time>2018-06-17T13:34:11Z</time>
      </trkpt>
      <trkpt lat="44.47781" lon="5.65954">
        <ele>905.73</ele>
        <time>2018-06-17T13:34:13Z</time>
      </trkpt>
      <trkpt lat="44.47795" lon="5.65976">
        <ele>906.26</ele>
        <time>2018-06-17T13:34:15Z</time>
      </trkpt>
      <trkpt lat="44.47809" lon="5.65998">
        <ele>907.22</ele>
        <time>2018-06-17T13:34:17Z</time>
      </trkpt>
      <trkpt lat="44.47824" lon="5.66019">
        <ele>907.52</ele>
        <time>2018-06-17T13:34:19Z</time>
      </trkpt>
      <trkpt lat="44.47833" lon="5.66052">
        <ele>910.19</ele>
        <time>2018-06-17T13:34:22Z</time>
      </trkpt>
      <trkpt lat="44.47846" lon="5.66075">
        <ele>912.21</ele>
        <time>2018-06-17T13:34:25Z</time>
      </trkpt>
      <trkpt lat="44.47863" lon="5.66059">
        <ele>913.22</ele>
        <time>2018-06-17T13:34:27Z</time>
      </trkpt>
      <trkpt lat="44.4787" lon="5.66027">
        <ele>917.03</ele>
        <time>2018-06-17T13:34:30Z</time>
      </trkpt>
      <trkpt lat="44.47869" lon="5.65999">
        <ele>918.41</ele>
        <time>2018-06-17T13:34:32Z</time>
      </trkpt>
      <trkpt lat="44.47873" lon="5.6597">
        <ele>919.94</ele>
        <time>2018-06-17T13:34:34Z</time>
      </trkpt>
      <trkpt lat="44.47877" lon="5.65942">
        <ele>922.1</ele>
        <time>2018-06-17T13:34:36Z</time>
      </trkpt>
      <trkpt lat="44.47881" lon="5.65908">
        <ele>923.24</ele>
        <time>2018-06-17T13:34:39Z</time>
      </trkpt>
      <trkpt lat="44.47895" lon="5.65889">
        <ele>924.24</ele>
        <time>2018-06-17T13:34:42Z</time>
      </trkpt>
      <trkpt lat="44.47914" lon="5.65892">
        <ele>924.31</ele>
        <time>2018-06-17T13:34:44Z</time>
      </trkpt>
      <trkpt lat="44.47935" lon="5.65897">
        <ele>926.14</ele>
        <time>2018-06-17T13:34:46Z</time>
      </trkpt>
      <trkpt lat="44.47957" lon="5.65897">
        <ele>926.51</ele>
        <time>2018-06-17T13:34:48Z</time>
      </trkpt>
      <trkpt lat="44.47977" lon="5.65893">
        <ele>927.24</ele>
        <time>2018-06-17T13:34:50Z</time>
      </trkpt>
      <trkpt lat="44.47996" lon="5.65883">
        <ele>929.13</ele>
        <time>2018-06-17T13:34:52Z</time>
      </trkpt>
      <trkpt lat="44.48015" lon="5.65875">
        <ele>930.42</ele>
        <time>2018-06-17T13:34:54Z</time>
      </trkpt>
      <trkpt lat="44.48036" lon="5.65879">
        <ele>931.24</ele>
        <time>2018-06-17T13:34:56Z</time>
      </trkpt>
      <trkpt lat="44.48056" lon="5.65875">
        <ele>933.13</ele>
        <time>2018-06-17T13:34:58Z</time>
      </trkpt>
      <trkpt lat="44.48074" lon="5.65867">
        <ele>936.03</ele>
        <time>2018-06-17T13:35:00Z</time>
      </trkpt>
      <trkpt lat="44.48092" lon="5.65858">
        <ele>939.02</ele>
        <time>2018-06-17T13:35:02Z</time>
      </trkpt>
      <trkpt lat="44.4811" lon="5.65845">
        <ele>942.02</ele>
        <time>2018-06-17T13:35:04Z</time>
      </trkpt>
      <trkpt lat="44.48134" lon="5.65848">
        <ele>945.12</ele>
        <time>2018-06-17T13:35:07Z</time>
      </trkpt>
      <trkpt lat="44.48158" lon="5.65843">
        <ele>948.12</ele>
        <time>2018-06-17T13:35:10Z</time>
      </trkpt>
      <trkpt lat="44.48178" lon="5.65835">
        <ele>948.51</ele>
        <time>2018-06-17T13:35:12Z</time>
      </trkpt>
      <trkpt lat="44.48201" lon="5.65832">
        <ele>949.45</ele>
        <time>2018-06-17T13:35:14Z</time>
      </trkpt>
      <trkpt lat="44.48223" lon="5.65828">
        <ele>950.94</ele>
        <time>2018-06-17T13:35:16Z</time>
      </trkpt>
      <trkpt lat="44.48245" lon="5.65822">
        <ele>951.53</ele>
        <time>2018-06-17T13:35:19Z</time>
      </trkpt>
      <trkpt lat="44.48268" lon="5.6582">
        <ele>956.1</ele>
        <time>2018-06-17T13:35:59Z</time>
      </trkpt>
      <trkpt lat="44.48294" lon="5.65829">
        <ele>956.51</ele>
        <time>2018-06-17T13:36:01Z</time>
      </trkpt>
      <trkpt lat="44.48319" lon="5.6583">
        <ele>956.54</ele>
        <time>2018-06-17T13:36:03Z</time>
      </trkpt>
      <trkpt lat="44.4834" lon="5.65834">
        <ele>958.16</ele>
        <time>2018-06-17T13:36:05Z</time>
      </trkpt>
      <trkpt lat="44.48358" lon="5.65841">
        <ele>958.72</ele>
        <time>2018-06-17T13:36:07Z</time>
      </trkpt>
      <trkpt lat="44.48372" lon="5.65871">
        <ele>959.53</ele>
        <time>2018-06-17T13:36:10Z</time>
      </trkpt>
      <trkpt lat="44.48386" lon="5.6589">
        <ele>961.86</ele>
        <time>2018-06-17T13:36:12Z</time>
      </trkpt>
      <trkpt lat="44.48408" lon="5.65897">
        <ele>965.22</ele>
        <time>2018-06-17T13:36:14Z</time>
      </trkpt>
      <trkpt lat="44.48432" lon="5.65892">
        <ele>966.22</ele>
        <time>2018-06-17T13:36:16Z</time>
      </trkpt>
      <trkpt lat="44.48458" lon="5.65876">
        <ele>967.43</ele>
        <time>2018-06-17T13:36:18Z</time>
      </trkpt>
      <trkpt lat="44.48483" lon="5.65864">
        <ele>968.24</ele>
        <time>2018-06-17T13:36:20Z</time>
      </trkpt>
      <trkpt lat="44.48507" lon="5.65848">
        <ele>968.52</ele>
        <time>2018-06-17T13:36:22Z</time>
      </trkpt>
      <trkpt lat="44.48528" lon="5.65832">
        <ele>970.16</ele>
        <time>2018-06-17T13:36:24Z</time>
      </trkpt>
      <trkpt lat="44.4855" lon="5.65835">
        <ele>974.73</ele>
        <time>2018-06-17T13:36:27Z</time>
      </trkpt>
      <trkpt lat="44.48566" lon="5.65856">
        <ele>977.78</ele>
        <time>2018-06-17T13:36:29Z</time>
      </trkpt>
      <trkpt lat="44.48588" lon="5.65883">
        <ele>979.39</ele>
        <time>2018-06-17T13:36:31Z</time>
      </trkpt>
      <trkpt lat="44.48609" lon="5.65911">
        <ele>982.05</ele>
        <time>2018-06-17T13:36:33Z</time>
      </trkpt>
      <trkpt lat="44.48635" lon="5.65938">
        <ele>983.2</ele>
        <time>2018-06-17T13:36:35Z</time>
      </trkpt>
      <trkpt lat="44.48663" lon="5.65958">
        <ele>984.92</ele>
        <time>2018-06-17T13:36:37Z</time>
      </trkpt>
      <trkpt lat="44.4869" lon="5.65973">
        <ele>986.19</ele>
        <time>2018-06-17T13:36:39Z</time>
      </trkpt>
      <trkpt lat="44.4872" lon="5.65972">
        <ele>988.62</ele>
        <time>2018-06-17T13:36:41Z</time>
      </trkpt>
      <trkpt lat="44.48749" lon="5.65968">
        <ele>991.07</ele>
        <time>2018-06-17T13:36:43Z</time>
      </trkpt>
      <trkpt lat="44.48773" lon="5.65953">
        <ele>994.03</ele>
        <time>2018-06-17T13:36:45Z</time>
      </trkpt>
      <trkpt lat="44.48795" lon="5.65954">
        <ele>997.02</ele>
        <time>2018-06-17T13:36:47Z</time>
      </trkpt>
      <trkpt lat="44.48811" lon="5.65969">
        <ele>999.81</ele>
        <time>2018-06-17T13:36:49Z</time>
      </trkpt>
      <trkpt lat="44.48807" lon="5.65996">
        <ele>1002.9</ele>
        <time>2018-06-17T13:36:52Z</time>
      </trkpt>
      <trkpt lat="44.48791" lon="5.66008">
        <ele>1003.7</ele>
        <time>2018-06-17T13:36:54Z</time>
      </trkpt>
      <trkpt lat="44.48769" lon="5.66028">
        <ele>1002.65</ele>
        <time>2018-06-17T13:36:56Z</time>
      </trkpt>
      <trkpt lat="44.48743" lon="5.66049">
        <ele>1005.08</ele>
        <time>2018-06-17T13:36:58Z</time>
      </trkpt>
      <trkpt lat="44.48712" lon="5.66067">
        <ele>1007.12</ele>
        <time>2018-06-17T13:37:00Z</time>
      </trkpt>
      <trkpt lat="44.48681" lon="5.66084">
        <ele>1008.42</ele>
        <time>2018-06-17T13:37:02Z</time>
      </trkpt>
      <trkpt lat="44.48663" lon="5.66088">
        <ele>1009.21</ele>
        <time>2018-06-17T13:37:03Z</time>
      </trkpt>
      <trkpt lat="44.48629" lon="5.66084">
        <ele>1011.83</ele>
        <time>2018-06-17T13:37:05Z</time>
      </trkpt>
      <trkpt lat="44.48601" lon="5.66087">
        <ele>1015.91</ele>
        <time>2018-06-17T13:37:07Z</time>
      </trkpt>
      <trkpt lat="44.48572" lon="5.66098">
        <ele>1019.71</ele>
        <time>2018-06-17T13:37:09Z</time>
      </trkpt>
      <trkpt lat="44.48546" lon="5.66109">
        <ele>1022.29</ele>
        <time>2018-06-17T13:37:11Z</time>
      </trkpt>
      <trkpt lat="44.48522" lon="5.66114">
        <ele>1024.14</ele>
        <time>2018-06-17T13:37:13Z</time>
      </trkpt>
      <trkpt lat="44.48508" lon="5.66133">
        <ele>1027.18</ele>
        <time>2018-06-17T13:37:16Z</time>
      </trkpt>
      <trkpt lat="44.48528" lon="5.66151">
        <ele>1030.21</ele>
        <time>2018-06-17T13:37:20Z</time>
      </trkpt>
      <trkpt lat="44.48545" lon="5.66161">
        <ele>1031.43</ele>
        <time>2018-06-17T13:37:22Z</time>
      </trkpt>
      <trkpt lat="44.48562" lon="5.66169">
        <ele>1032.03</ele>
        <time>2018-06-17T13:37:24Z</time>
      </trkpt>
      <trkpt lat="44.48587" lon="5.66163">
        <ele>1034.14</ele>
        <time>2018-06-17T13:37:27Z</time>
      </trkpt>
      <trkpt lat="44.48606" lon="5.66164">
        <ele>1037.03</ele>
        <time>2018-06-17T13:37:29Z</time>
      </trkpt>
      <trkpt lat="44.4863" lon="5.66178">
        <ele>1040.02</ele>
        <time>2018-06-17T13:37:31Z</time>
      </trkpt>
      <trkpt lat="44.48657" lon="5.66183">
        <ele>1043.02</ele>
        <time>2018-06-17T13:37:33Z</time>
      </trkpt>
      <trkpt lat="44.48684" lon="5.66185">
        <ele>1044.41</ele>
        <time>2018-06-17T13:37:35Z</time>
      </trkpt>
      <trkpt lat="44.4871" lon="5.66187">
        <ele>1046.15</ele>
        <time>2018-06-17T13:37:37Z</time>
      </trkpt>
      <trkpt lat="44.48734" lon="5.66189">
        <ele>1047.42</ele>
        <time>2018-06-17T13:37:39Z</time>
      </trkpt>
      <trkpt lat="44.48757" lon="5.66189">
        <ele>1049.85</ele>
        <time>2018-06-17T13:37:41Z</time>
      </trkpt>
      <trkpt lat="44.48783" lon="5.66185">
        <ele>1052.09</ele>
        <time>2018-06-17T13:37:43Z</time>
      </trkpt>
      <trkpt lat="44.48809" lon="5.6618">
        <ele>1053</ele>
        <time>2018-06-17T13:37:45Z</time>
      </trkpt>
      <trkpt lat="44.48837" lon="5.66178">
        <ele>1054.2</ele>
        <time>2018-06-17T13:37:47Z</time>
      </trkpt>
      <trkpt lat="44.48867" lon="5.66175">
        <ele>1055.22</ele>
        <time>2018-06-17T13:37:49Z</time>
      </trkpt>
      <trkpt lat="44.48896" lon="5.66176">
        <ele>1057.13</ele>
        <time>2018-06-17T13:37:51Z</time>
      </trkpt>
      <trkpt lat="44.48927" lon="5.66182">
        <ele>1060.03</ele>
        <time>2018-06-17T13:37:53Z</time>
      </trkpt>
      <trkpt lat="44.48956" lon="5.6618">
        <ele>1061.41</ele>
        <time>2018-06-17T13:37:55Z</time>
      </trkpt>
      <trkpt lat="44.48985" lon="5.66162">
        <ele>1063.64</ele>
        <time>2018-06-17T13:37:57Z</time>
      </trkpt>
      <trkpt lat="44.4901" lon="5.66139">
        <ele>1068.39</ele>
        <time>2018-06-17T13:37:59Z</time>
      </trkpt>
      <trkpt lat="44.49038" lon="5.66125">
        <ele>1071.05</ele>
        <time>2018-06-17T13:38:01Z</time>
      </trkpt>
      <trkpt lat="44.49071" lon="5.66119">
        <ele>1073.11</ele>
        <time>2018-06-17T13:38:03Z</time>
      </trkpt>
      <trkpt lat="44.49105" lon="5.66117">
        <ele>1075.33</ele>
        <time>2018-06-17T13:38:05Z</time>
      </trkpt>
      <trkpt lat="44.4914" lon="5.66114">
        <ele>1077.14</ele>
        <time>2018-06-17T13:38:07Z</time>
      </trkpt>
      <trkpt lat="44.49175" lon="5.66118">
        <ele>1079.12</ele>
        <time>2018-06-17T13:38:09Z</time>
      </trkpt>
      <trkpt lat="44.49211" lon="5.6612">
        <ele>1081.12</ele>
        <time>2018-06-17T13:38:11Z</time>
      </trkpt>
      <trkpt lat="44.49229" lon="5.66118">
        <ele>1082.82</ele>
        <time>2018-06-17T13:38:12Z</time>
      </trkpt>
      <trkpt lat="44.49248" lon="5.66116">
        <ele>1084.03</ele>
        <time>2018-06-17T13:38:13Z</time>
      </trkpt>
      <trkpt lat="44.49267" lon="5.66114">
        <ele>1085.09</ele>
        <time>2018-06-17T13:38:14Z</time>
      </trkpt>
      <trkpt lat="44.49285" lon="5.66112">
        <ele>1086.11</ele>
        <time>2018-06-17T13:38:15Z</time>
      </trkpt>
      <trkpt lat="44.49304" lon="5.66108">
        <ele>1086.42</ele>
        <time>2018-06-17T13:38:16Z</time>
      </trkpt>
      <trkpt lat="44.4932" lon="5.66095">
        <ele>1088.61</ele>
        <time>2018-06-17T13:38:17Z</time>
      </trkpt>
      <trkpt lat="44.4934" lon="5.6609">
        <ele>1090.67</ele>
        <time>2018-06-17T13:38:18Z</time>
      </trkpt>
      <trkpt lat="44.49359" lon="5.66085">
        <ele>1091.28</ele>
        <time>2018-06-17T13:38:19Z</time>
      </trkpt>
      <trkpt lat="44.49377" lon="5.66081">
        <ele>1093.57</ele>
        <time>2018-06-17T13:38:20Z</time>
      </trkpt>
      <trkpt lat="44.49406" lon="5.66075">
        <ele>1096.56</ele>
        <time>2018-06-17T13:38:22Z</time>
      </trkpt>
      <trkpt lat="44.49429" lon="5.66061">
        <ele>1100.68</ele>
        <time>2018-06-17T13:38:24Z</time>
      </trkpt>
      <trkpt lat="44.49448" lon="5.66039">
        <ele>1103.08</ele>
        <time>2018-06-17T13:38:26Z</time>
      </trkpt>
      <trkpt lat="44.49467" lon="5.66035">
        <ele>1106.82</ele>
        <time>2018-06-17T13:38:29Z</time>
      </trkpt>
      <trkpt lat="44.49452" lon="5.66059">
        <ele>1110.14</ele>
        <time>2018-06-17T13:38:33Z</time>
      </trkpt>
      <trkpt lat="44.49437" lon="5.66081">
        <ele>1111.21</ele>
        <time>2018-06-17T13:38:35Z</time>
      </trkpt>
      <trkpt lat="44.4942" lon="5.66107">
        <ele>1113.13</ele>
        <time>2018-06-17T13:38:37Z</time>
      </trkpt>
      <trkpt lat="44.49394" lon="5.66126">
        <ele>1114.21</ele>
        <time>2018-06-17T13:38:39Z</time>
      </trkpt>
      <trkpt lat="44.49366" lon="5.66141">
        <ele>1115.92</ele>
        <time>2018-06-17T13:38:41Z</time>
      </trkpt>
      <trkpt lat="44.49337" lon="5.66151">
        <ele>1118.31</ele>
        <time>2018-06-17T13:38:43Z</time>
      </trkpt>
      <trkpt lat="44.49313" lon="5.66159">
        <ele>1119.23</ele>
        <time>2018-06-17T13:38:45Z</time>
      </trkpt>
      <trkpt lat="44.49291" lon="5.66179">
        <ele>1121.13</ele>
        <time>2018-06-17T13:38:47Z</time>
      </trkpt>
      <trkpt lat="44.49269" lon="5.66204">
        <ele>1122.21</ele>
        <time>2018-06-17T13:38:49Z</time>
      </trkpt>
      <trkpt lat="44.49246" lon="5.66224">
        <ele>1124.34</ele>
        <time>2018-06-17T13:38:51Z</time>
      </trkpt>
      <trkpt lat="44.49221" lon="5.66233">
        <ele>1126.84</ele>
        <time>2018-06-17T13:38:53Z</time>
      </trkpt>
      <trkpt lat="44.492" lon="5.66246">
        <ele>1125.38</ele>
        <time>2018-06-17T13:38:55Z</time>
      </trkpt>
      <trkpt lat="44.49175" lon="5.66262">
        <ele>1125.53</ele>
        <time>2018-06-17T13:38:57Z</time>
      </trkpt>
      <trkpt lat="44.49148" lon="5.66277">
        <ele>1128.77</ele>
        <time>2018-06-17T13:38:59Z</time>
      </trkpt>
      <trkpt lat="44.49123" lon="5.66292">
        <ele>1131.09</ele>
        <time>2018-06-17T13:39:01Z</time>
      </trkpt>
      <trkpt lat="44.49099" lon="5.66321">
        <ele>1134.24</ele>
        <time>2018-06-17T13:39:03Z</time>
      </trkpt>
      <trkpt lat="44.49076" lon="5.66348">
        <ele>1137.04</ele>
        <time>2018-06-17T13:39:05Z</time>
      </trkpt>
      <trkpt lat="44.49052" lon="5.66364">
        <ele>1138.41</ele>
        <time>2018-06-17T13:39:07Z</time>
      </trkpt>
      <trkpt lat="44.4903" lon="5.66367">
        <ele>1138.33</ele>
        <time>2018-06-17T13:39:09Z</time>
      </trkpt>
      <trkpt lat="44.49011" lon="5.66382">
        <ele>1140.84</ele>
        <time>2018-06-17T13:39:11Z</time>
      </trkpt>
      <trkpt lat="44.48995" lon="5.66411">
        <ele>1142.18</ele>
        <time>2018-06-17T13:39:13Z</time>
      </trkpt>
      <trkpt lat="44.48974" lon="5.66431">
        <ele>1142.52</ele>
        <time>2018-06-17T13:39:15Z</time>
      </trkpt>
      <trkpt lat="44.48953" lon="5.66436">
        <ele>1144.37</ele>
        <time>2018-06-17T13:39:17Z</time>
      </trkpt>
      <trkpt lat="44.48953" lon="5.66465">
        <ele>1147.5</ele>
        <time>2018-06-17T13:39:22Z</time>
      </trkpt>
      <trkpt lat="44.48981" lon="5.66468">
        <ele>1149.15</ele>
        <time>2018-06-17T13:39:24Z</time>
      </trkpt>
      <trkpt lat="44.49016" lon="5.6645">
        <ele>1149.51</ele>
        <time>2018-06-17T13:39:26Z</time>
      </trkpt>
      <trkpt lat="44.49047" lon="5.66427">
        <ele>1153.46</ele>
        <time>2018-06-17T13:39:28Z</time>
      </trkpt>
      <trkpt lat="44.49076" lon="5.66409">
        <ele>1156.76</ele>
        <time>2018-06-17T13:39:30Z</time>
      </trkpt>
      <trkpt lat="44.49099" lon="5.66381">
        <ele>1160.49</ele>
        <time>2018-06-17T13:39:32Z</time>
      </trkpt>
      <trkpt lat="44.49121" lon="5.66357">
        <ele>1162.85</ele>
        <time>2018-06-17T13:39:34Z</time>
      </trkpt>
      <trkpt lat="44.49145" lon="5.66344">
        <ele>1164.4</ele>
        <time>2018-06-17T13:39:36Z</time>
      </trkpt>
      <trkpt lat="44.49169" lon="5.66356">
        <ele>1165.23</ele>
        <time>2018-06-17T13:39:38Z</time>
      </trkpt>
      <trkpt lat="44.49196" lon="5.66348">
        <ele>1166.22</ele>
        <time>2018-06-17T13:39:40Z</time>
      </trkpt>
      <trkpt lat="44.49222" lon="5.66334">
        <ele>1168.62</ele>
        <time>2018-06-17T13:39:42Z</time>
      </trkpt>
      <trkpt lat="44.49251" lon="5.66333">
        <ele>1170.16</ele>
        <time>2018-06-17T13:39:44Z</time>
      </trkpt>
      <trkpt lat="44.49282" lon="5.66332">
        <ele>1171.21</ele>
        <time>2018-06-17T13:39:46Z</time>
      </trkpt>
      <trkpt lat="44.49312" lon="5.66326">
        <ele>1172.43</ele>
        <time>2018-06-17T13:39:48Z</time>
      </trkpt>
      <trkpt lat="44.49345" lon="5.66325">
        <ele>1173.24</ele>
        <time>2018-06-17T13:39:50Z</time>
      </trkpt>
      <trkpt lat="44.49378" lon="5.6632">
        <ele>1175.13</ele>
        <time>2018-06-17T13:39:52Z</time>
      </trkpt>
      <trkpt lat="44.4941" lon="5.66321">
        <ele>1176.42</ele>
        <time>2018-06-17T13:39:54Z</time>
      </trkpt>
      <trkpt lat="44.4944" lon="5.66321">
        <ele>1177.24</ele>
        <time>2018-06-17T13:39:56Z</time>
      </trkpt>
      <trkpt lat="44.49473" lon="5.66328">
        <ele>1179.13</ele>
        <time>2018-06-17T13:39:58Z</time>
      </trkpt>
      <trkpt lat="44.49501" lon="5.66341">
        <ele>1181.12</ele>
        <time>2018-06-17T13:40:00Z</time>
      </trkpt>
      <trkpt lat="44.49527" lon="5.66362">
        <ele>1184.03</ele>
        <time>2018-06-17T13:40:02Z</time>
      </trkpt>
      <trkpt lat="44.49546" lon="5.66389">
        <ele>1182.68</ele>
        <time>2018-06-17T13:40:04Z</time>
      </trkpt>
      <trkpt lat="44.49561" lon="5.66408">
        <ele>1182.56</ele>
        <time>2018-06-17T13:40:06Z</time>
      </trkpt>
      <trkpt lat="44.4959" lon="5.66405">
        <ele>1185.13</ele>
        <time>2018-06-17T13:40:09Z</time>
      </trkpt>
      <trkpt lat="44.49615" lon="5.66379">
        <ele>1187.12</ele>
        <time>2018-06-17T13:40:11Z</time>
      </trkpt>
      <trkpt lat="44.49641" lon="5.66361">
        <ele>1189.33</ele>
        <time>2018-06-17T13:40:13Z</time>
      </trkpt>
      <trkpt lat="44.49667" lon="5.66336">
        <ele>1193.24</ele>
        <time>2018-06-17T13:40:15Z</time>
      </trkpt>
      <trkpt lat="44.49691" lon="5.66317">
        <ele>1196.04</ele>
        <time>2018-06-17T13:40:17Z</time>
      </trkpt>
      <trkpt lat="44.49712" lon="5.66311">
        <ele>1198.81</ele>
        <time>2018-06-17T13:40:19Z</time>
      </trkpt>
      <trkpt lat="44.4973" lon="5.66307">
        <ele>1200.39</ele>
        <time>2018-06-17T13:40:21Z</time>
      </trkpt>
      <trkpt lat="44.4974" lon="5.66275">
        <ele>1203.96</ele>
        <time>2018-06-17T13:40:23Z</time>
      </trkpt>
      <trkpt lat="44.49741" lon="5.6624">
        <ele>1206.11</ele>
        <time>2018-06-17T13:40:25Z</time>
      </trkpt>
      <trkpt lat="44.49734" lon="5.66206">
        <ele>1206.51</ele>
        <time>2018-06-17T13:40:27Z</time>
      </trkpt>
      <trkpt lat="44.49717" lon="5.66188">
        <ele>1207.94</ele>
        <time>2018-06-17T13:40:28Z</time>
      </trkpt>
      <trkpt lat="44.49699" lon="5.66157">
        <ele>1210.1</ele>
        <time>2018-06-17T13:40:30Z</time>
      </trkpt>
      <trkpt lat="44.49688" lon="5.66125">
        <ele>1212.82</ele>
        <time>2018-06-17T13:40:32Z</time>
      </trkpt>
      <trkpt lat="44.49681" lon="5.66089">
        <ele>1215.79</ele>
        <time>2018-06-17T13:40:34Z</time>
      </trkpt>
      <trkpt lat="44.49674" lon="5.66053">
        <ele>1218.79</ele>
        <time>2018-06-17T13:40:36Z</time>
      </trkpt>
      <trkpt lat="44.4967" lon="5.6602">
        <ele>1220.39</ele>
        <time>2018-06-17T13:40:38Z</time>
      </trkpt>
      <trkpt lat="44.49671" lon="5.65992">
        <ele>1220.74</ele>
        <time>2018-06-17T13:40:40Z</time>
      </trkpt>
      <trkpt lat="44.4968" lon="5.6597">
        <ele>1221.27</ele>
        <time>2018-06-17T13:40:42Z</time>
      </trkpt>
      <trkpt lat="44.49695" lon="5.65952">
        <ele>1222.22</ele>
        <time>2018-06-17T13:40:44Z</time>
      </trkpt>
      <trkpt lat="44.49716" lon="5.65944">
        <ele>1223.92</ele>
        <time>2018-06-17T13:40:46Z</time>
      </trkpt>
      <trkpt lat="44.49745" lon="5.65941">
        <ele>1225.19</ele>
        <time>2018-06-17T13:40:48Z</time>
      </trkpt>
      <trkpt lat="44.49775" lon="5.65944">
        <ele>1226.43</ele>
        <time>2018-06-17T13:40:50Z</time>
      </trkpt>
      <trkpt lat="44.49804" lon="5.65944">
        <ele>1228.15</ele>
        <time>2018-06-17T13:40:52Z</time>
      </trkpt>
      <trkpt lat="44.49834" lon="5.65934">
        <ele>1230.12</ele>
        <time>2018-06-17T13:40:54Z</time>
      </trkpt>
      <trkpt lat="44.49866" lon="5.65915">
        <ele>1231.91</ele>
        <time>2018-06-17T13:40:56Z</time>
      </trkpt>
      <trkpt lat="44.49897" lon="5.65898">
        <ele>1234.1</ele>
        <time>2018-06-17T13:40:58Z</time>
      </trkpt>
      <trkpt lat="44.49918" lon="5.65881">
        <ele>1235.91</ele>
        <time>2018-06-17T13:41:00Z</time>
      </trkpt>
      <trkpt lat="44.49928" lon="5.65857">
        <ele>1236.49</ele>
        <time>2018-06-17T13:41:02Z</time>
      </trkpt>
      <trkpt lat="44.49936" lon="5.65829">
        <ele>1236.54</ele>
        <time>2018-06-17T13:41:04Z</time>
      </trkpt>
      <trkpt lat="44.4995" lon="5.65796">
        <ele>1238.16</ele>
        <time>2018-06-17T13:41:06Z</time>
      </trkpt>
      <trkpt lat="44.49965" lon="5.65767">
        <ele>1240.12</ele>
        <time>2018-06-17T13:41:08Z</time>
      </trkpt>
      <trkpt lat="44.49989" lon="5.65745">
        <ele>1241.42</ele>
        <time>2018-06-17T13:41:10Z</time>
      </trkpt>
      <trkpt lat="44.50011" lon="5.65715">
        <ele>1244.06</ele>
        <time>2018-06-17T13:41:12Z</time>
      </trkpt>
      <trkpt lat="44.50023" lon="5.65671">
        <ele>1246.11</ele>
        <time>2018-06-17T13:41:14Z</time>
      </trkpt>
      <trkpt lat="44.50037" lon="5.6563">
        <ele>1247.42</ele>
        <time>2018-06-17T13:41:16Z</time>
      </trkpt>
      <trkpt lat="44.5005" lon="5.65589">
        <ele>1250.06</ele>
        <time>2018-06-17T13:41:18Z</time>
      </trkpt>
      <trkpt lat="44.50058" lon="5.65554">
        <ele>1251.41</ele>
        <time>2018-06-17T13:41:20Z</time>
      </trkpt>
      <trkpt lat="44.50043" lon="5.6553">
        <ele>1252.66</ele>
        <time>2018-06-17T13:41:22Z</time>
      </trkpt>
      <trkpt lat="44.50048" lon="5.65499">
        <ele>1254.43</ele>
        <time>2018-06-17T13:41:25Z</time>
      </trkpt>
      <trkpt lat="44.50055" lon="5.65473">
        <ele>1256.15</ele>
        <time>2018-06-17T13:41:27Z</time>
      </trkpt>
      <trkpt lat="44.50056" lon="5.65447">
        <ele>1256.51</ele>
        <time>2018-06-17T13:41:29Z</time>
      </trkpt>
      <trkpt lat="44.50053" lon="5.65415">
        <ele>1256.55</ele>
        <time>2018-06-17T13:41:32Z</time>
      </trkpt>
      <trkpt lat="44.50072" lon="5.65393">
        <ele>1263.44</ele>
        <time>2018-06-17T13:42:08Z</time>
      </trkpt>
      <trkpt lat="44.50096" lon="5.6538">
        <ele>1262.15</ele>
        <time>2018-06-17T13:42:11Z</time>
      </trkpt>
      <trkpt lat="44.50116" lon="5.65373">
        <ele>1260.9</ele>
        <time>2018-06-17T13:42:13Z</time>
      </trkpt>
      <trkpt lat="44.50138" lon="5.6537">
        <ele>1258.97</ele>
        <time>2018-06-17T13:42:15Z</time>
      </trkpt>
      <trkpt lat="44.50161" lon="5.65365">
        <ele>1256.28</ele>
        <time>2018-06-17T13:42:17Z</time>
      </trkpt>
      <trkpt lat="44.50183" lon="5.65362">
        <ele>1253.09</ele>
        <time>2018-06-17T13:42:19Z</time>
      </trkpt>
      <trkpt lat="44.50206" lon="5.65352">
        <ele>1251.2</ele>
        <time>2018-06-17T13:42:21Z</time>
      </trkpt>
      <trkpt lat="44.50227" lon="5.65341">
        <ele>1248.79</ele>
        <time>2018-06-17T13:42:23Z</time>
      </trkpt>
      <trkpt lat="44.50247" lon="5.65328">
        <ele>1246.26</ele>
        <time>2018-06-17T13:42:25Z</time>
      </trkpt>
      <trkpt lat="44.50264" lon="5.65306">
        <ele>1244.91</ele>
        <time>2018-06-17T13:42:27Z</time>
      </trkpt>
      <trkpt lat="44.50283" lon="5.65285">
        <ele>1242.97</ele>
        <time>2018-06-17T13:42:29Z</time>
      </trkpt>
      <trkpt lat="44.50302" lon="5.65262">
        <ele>1241.68</ele>
        <time>2018-06-17T13:42:31Z</time>
      </trkpt>
      <trkpt lat="44.50323" lon="5.65243">
        <ele>1241.56</ele>
        <time>2018-06-17T13:42:33Z</time>
      </trkpt>
      <trkpt lat="44.50344" lon="5.65232">
        <ele>1242.25</ele>
        <time>2018-06-17T13:42:35Z</time>
      </trkpt>
      <trkpt lat="44.5037" lon="5.65232">
        <ele>1240.21</ele>
        <time>2018-06-17T13:42:37Z</time>
      </trkpt>
      <trkpt lat="44.50395" lon="5.65234">
        <ele>1238</ele>
        <time>2018-06-17T13:42:39Z</time>
      </trkpt>
      <trkpt lat="44.50421" lon="5.65229">
        <ele>1235.28</ele>
        <time>2018-06-17T13:42:41Z</time>
      </trkpt>
      <trkpt lat="44.5044" lon="5.6522">
        <ele>1234.61</ele>
        <time>2018-06-17T13:42:43Z</time>
      </trkpt>
      <trkpt lat="44.5046" lon="5.65222">
        <ele>1234.34</ele>
        <time>2018-06-17T13:42:45Z</time>
      </trkpt>
      <trkpt lat="44.5048" lon="5.65229">
        <ele>1234.53</ele>
        <time>2018-06-17T13:42:47Z</time>
      </trkpt>
      <trkpt lat="44.50502" lon="5.65227">
        <ele>1233.85</ele>
        <time>2018-06-17T13:42:49Z</time>
      </trkpt>
      <trkpt lat="44.50522" lon="5.65211">
        <ele>1233.57</ele>
        <time>2018-06-17T13:42:51Z</time>
      </trkpt>
      <trkpt lat="44.50542" lon="5.65197">
        <ele>1231.94</ele>
        <time>2018-06-17T13:42:53Z</time>
      </trkpt>
      <trkpt lat="44.5056" lon="5.65182">
        <ele>1229.27</ele>
        <time>2018-06-17T13:42:55Z</time>
      </trkpt>
      <trkpt lat="44.50578" lon="5.65167">
        <ele>1229.52</ele>
        <time>2018-06-17T13:42:57Z</time>
      </trkpt>
      <trkpt lat="44.50597" lon="5.65149">
        <ele>1228.64</ele>
        <time>2018-06-17T13:42:59Z</time>
      </trkpt>
      <trkpt lat="44.50608" lon="5.65125">
        <ele>1228.56</ele>
        <time>2018-06-17T13:43:01Z</time>
      </trkpt>
      <trkpt lat="44.50611" lon="5.65097">
        <ele>1227.15</ele>
        <time>2018-06-17T13:43:03Z</time>
      </trkpt>
      <trkpt lat="44.50629" lon="5.65078">
        <ele>1223.5</ele>
        <time>2018-06-17T13:43:06Z</time>
      </trkpt>
      <trkpt lat="44.5065" lon="5.65074">
        <ele>1220.11</ele>
        <time>2018-06-17T13:43:08Z</time>
      </trkpt>
      <trkpt lat="44.50674" lon="5.65058">
        <ele>1217.78</ele>
        <time>2018-06-17T13:43:10Z</time>
      </trkpt>
      <trkpt lat="44.507" lon="5.65051">
        <ele>1215.26</ele>
        <time>2018-06-17T13:43:12Z</time>
      </trkpt>
      <trkpt lat="44.50724" lon="5.65039">
        <ele>1214.61</ele>
        <time>2018-06-17T13:43:14Z</time>
      </trkpt>
      <trkpt lat="44.5075" lon="5.65021">
        <ele>1210.63</ele>
        <time>2018-06-17T13:43:16Z</time>
      </trkpt>
      <trkpt lat="44.50772" lon="5.65005">
        <ele>1208.95</ele>
        <time>2018-06-17T13:43:18Z</time>
      </trkpt>
      <trkpt lat="44.50783" lon="5.64982">
        <ele>1206.88</ele>
        <time>2018-06-17T13:43:22Z</time>
      </trkpt>
      <trkpt lat="44.50757" lon="5.64985">
        <ele>1204.74</ele>
        <time>2018-06-17T13:43:25Z</time>
      </trkpt>
      <trkpt lat="44.50735" lon="5.64984">
        <ele>1202.05</ele>
        <time>2018-06-17T13:43:27Z</time>
      </trkpt>
      <trkpt lat="44.50714" lon="5.64978">
        <ele>1200.89</ele>
        <time>2018-06-17T13:43:29Z</time>
      </trkpt>
      <trkpt lat="44.50696" lon="5.64964">
        <ele>1198.97</ele>
        <time>2018-06-17T13:43:31Z</time>
      </trkpt>
      <trkpt lat="44.50679" lon="5.64945">
        <ele>1197.19</ele>
        <time>2018-06-17T13:43:33Z</time>
      </trkpt>
      <trkpt lat="44.50663" lon="5.64926">
        <ele>1195</ele>
        <time>2018-06-17T13:43:35Z</time>
      </trkpt>
      <trkpt lat="44.50646" lon="5.64915">
        <ele>1193.89</ele>
        <time>2018-06-17T13:43:37Z</time>
      </trkpt>
      <trkpt lat="44.50627" lon="5.64917">
        <ele>1192.88</ele>
        <time>2018-06-17T13:43:39Z</time>
      </trkpt>
      <trkpt lat="44.50604" lon="5.64922">
        <ele>1190.76</ele>
        <time>2018-06-17T13:43:41Z</time>
      </trkpt>
      <trkpt lat="44.50578" lon="5.64919">
        <ele>1188.96</ele>
        <time>2018-06-17T13:43:43Z</time>
      </trkpt>
      <trkpt lat="44.50555" lon="5.64927">
        <ele>1188.58</ele>
        <time>2018-06-17T13:43:45Z</time>
      </trkpt>
      <trkpt lat="44.50536" lon="5.64928">
        <ele>1186.94</ele>
        <time>2018-06-17T13:43:47Z</time>
      </trkpt>
      <trkpt lat="44.50514" lon="5.64901">
        <ele>1183.98</ele>
        <time>2018-06-17T13:43:50Z</time>
      </trkpt>
      <trkpt lat="44.50498" lon="5.64879">
        <ele>1182.68</ele>
        <time>2018-06-17T13:43:52Z</time>
      </trkpt>
      <trkpt lat="44.50487" lon="5.64851">
        <ele>1179.34</ele>
        <time>2018-06-17T13:43:54Z</time>
      </trkpt>
      <trkpt lat="44.5048" lon="5.64817">
        <ele>1177.01</ele>
        <time>2018-06-17T13:43:56Z</time>
      </trkpt>
      <trkpt lat="44.50475" lon="5.64782">
        <ele>1175.68</ele>
        <time>2018-06-17T13:43:58Z</time>
      </trkpt>
      <trkpt lat="44.50479" lon="5.64755">
        <ele>1175.77</ele>
        <time>2018-06-17T13:44:00Z</time>
      </trkpt>
      <trkpt lat="44.5049" lon="5.64735">
        <ele>1175.57</ele>
        <time>2018-06-17T13:44:02Z</time>
      </trkpt>
      <trkpt lat="44.50509" lon="5.6472">
        <ele>1174.85</ele>
        <time>2018-06-17T13:44:04Z</time>
      </trkpt>
      <trkpt lat="44.50527" lon="5.647">
        <ele>1174.58</ele>
        <time>2018-06-17T13:44:06Z</time>
      </trkpt>
      <trkpt lat="44.50543" lon="5.64681">
        <ele>1173.15</ele>
        <time>2018-06-17T13:44:08Z</time>
      </trkpt>
      <trkpt lat="44.50557" lon="5.64658">
        <ele>1171.69</ele>
        <time>2018-06-17T13:44:10Z</time>
      </trkpt>
      <trkpt lat="44.50565" lon="5.64628">
        <ele>1169.04</ele>
        <time>2018-06-17T13:44:12Z</time>
      </trkpt>
      <trkpt lat="44.50564" lon="5.64597">
        <ele>1167.68</ele>
        <time>2018-06-17T13:44:14Z</time>
      </trkpt>
      <trkpt lat="44.50559" lon="5.64565">
        <ele>1165.25</ele>
        <time>2018-06-17T13:44:16Z</time>
      </trkpt>
      <trkpt lat="44.50564" lon="5.64538">
        <ele>1163.21</ele>
        <time>2018-06-17T13:44:18Z</time>
      </trkpt>
      <trkpt lat="44.50581" lon="5.64519">
        <ele>1162.4</ele>
        <time>2018-06-17T13:44:20Z</time>
      </trkpt>
      <trkpt lat="44.50601" lon="5.64504">
        <ele>1162.53</ele>
        <time>2018-06-17T13:44:22Z</time>
      </trkpt>
      <trkpt lat="44.5062" lon="5.64484">
        <ele>1161.64</ele>
        <time>2018-06-17T13:44:24Z</time>
      </trkpt>
      <trkpt lat="44.50637" lon="5.64456">
        <ele>1161.56</ele>
        <time>2018-06-17T13:44:26Z</time>
      </trkpt>
      <trkpt lat="44.50652" lon="5.64426">
        <ele>1159.24</ele>
        <time>2018-06-17T13:44:28Z</time>
      </trkpt>
      <trkpt lat="44.5067" lon="5.64401">
        <ele>1153.36</ele>
        <time>2018-06-17T13:44:30Z</time>
      </trkpt>
      <trkpt lat="44.50685" lon="5.64384">
        <ele>1150.75</ele>
        <time>2018-06-17T13:44:33Z</time>
      </trkpt>
      <trkpt lat="44.50684" lon="5.64412">
        <ele>1149.56</ele>
        <time>2018-06-17T13:44:37Z</time>
      </trkpt>
      <trkpt lat="44.50675" lon="5.64433">
        <ele>1149.55</ele>
        <time>2018-06-17T13:44:39Z</time>
      </trkpt>
      <trkpt lat="44.50663" lon="5.64459">
        <ele>1148.85</ele>
        <time>2018-06-17T13:44:41Z</time>
      </trkpt>
      <trkpt lat="44.50652" lon="5.64484">
        <ele>1148.57</ele>
        <time>2018-06-17T13:44:43Z</time>
      </trkpt>
      <trkpt lat="44.50655" lon="5.64515">
        <ele>1146.73</ele>
        <time>2018-06-17T13:44:46Z</time>
      </trkpt>
      <trkpt lat="44.50677" lon="5.645">
        <ele>1144.03</ele>
        <time>2018-06-17T13:44:49Z</time>
      </trkpt>
      <trkpt lat="44.50691" lon="5.64475">
        <ele>1142.19</ele>
        <time>2018-06-17T13:44:51Z</time>
      </trkpt>
      <trkpt lat="44.50707" lon="5.64445">
        <ele>1139.09</ele>
        <time>2018-06-17T13:44:53Z</time>
      </trkpt>
      <trkpt lat="44.50727" lon="5.6442">
        <ele>1137.9</ele>
        <time>2018-06-17T13:44:55Z</time>
      </trkpt>
      <trkpt lat="44.50754" lon="5.64404">
        <ele>1137.79</ele>
        <time>2018-06-17T13:44:57Z</time>
      </trkpt>
      <trkpt lat="44.50781" lon="5.64391">
        <ele>1136.66</ele>
        <time>2018-06-17T13:44:59Z</time>
      </trkpt>
      <trkpt lat="44.50801" lon="5.64371">
        <ele>1135.86</ele>
        <time>2018-06-17T13:45:01Z</time>
      </trkpt>
      <trkpt lat="44.50815" lon="5.64346">
        <ele>1134.67</ele>
        <time>2018-06-17T13:45:03Z</time>
      </trkpt>
      <trkpt lat="44.50823" lon="5.64323">
        <ele>1131.34</ele>
        <time>2018-06-17T13:45:05Z</time>
      </trkpt>
      <trkpt lat="44.50826" lon="5.64297">
        <ele>1127.89</ele>
        <time>2018-06-17T13:45:07Z</time>
      </trkpt>
      <trkpt lat="44.50835" lon="5.64266">
        <ele>1125.69</ele>
        <time>2018-06-17T13:45:09Z</time>
      </trkpt>
      <trkpt lat="44.50852" lon="5.64233">
        <ele>1122.13</ele>
        <time>2018-06-17T13:45:11Z</time>
      </trkpt>
      <trkpt lat="44.50871" lon="5.64204">
        <ele>1119.08</ele>
        <time>2018-06-17T13:45:13Z</time>
      </trkpt>
      <trkpt lat="44.50894" lon="5.6418">
        <ele>1116.08</ele>
        <time>2018-06-17T13:45:15Z</time>
      </trkpt>
      <trkpt lat="44.50914" lon="5.64155">
        <ele>1113.08</ele>
        <time>2018-06-17T13:45:17Z</time>
      </trkpt>
      <trkpt lat="44.50933" lon="5.6413">
        <ele>1111.69</ele>
        <time>2018-06-17T13:45:19Z</time>
      </trkpt>
      <trkpt lat="44.50953" lon="5.64113">
        <ele>1110.65</ele>
        <time>2018-06-17T13:45:21Z</time>
      </trkpt>
      <trkpt lat="44.50972" lon="5.64096">
        <ele>1109.65</ele>
        <time>2018-06-17T13:45:23Z</time>
      </trkpt>
      <trkpt lat="44.5099" lon="5.64073">
        <ele>1109.56</ele>
        <time>2018-06-17T13:45:25Z</time>
      </trkpt>
      <trkpt lat="44.51005" lon="5.64049">
        <ele>1108.85</ele>
        <time>2018-06-17T13:45:27Z</time>
      </trkpt>
      <trkpt lat="44.51018" lon="5.64019">
        <ele>1105.57</ele>
        <time>2018-06-17T13:45:29Z</time>
      </trkpt>
      <trkpt lat="44.51033" lon="5.63985">
        <ele>1103.03</ele>
        <time>2018-06-17T13:45:31Z</time>
      </trkpt>
      <trkpt lat="44.51053" lon="5.63956">
        <ele>1100.28</ele>
        <time>2018-06-17T13:45:33Z</time>
      </trkpt>
      <trkpt lat="44.51074" lon="5.63931">
        <ele>1098</ele>
        <time>2018-06-17T13:45:35Z</time>
      </trkpt>
      <trkpt lat="44.51089" lon="5.63902">
        <ele>1096.86</ele>
        <time>2018-06-17T13:45:38Z</time>
      </trkpt>
      <trkpt lat="44.5108" lon="5.63873">
        <ele>1094.97</ele>
        <time>2018-06-17T13:45:40Z</time>
      </trkpt>
      <trkpt lat="44.51069" lon="5.6384">
        <ele>1092.28</ele>
        <time>2018-06-17T13:45:42Z</time>
      </trkpt>
      <trkpt lat="44.51063" lon="5.63801">
        <ele>1090</ele>
        <time>2018-06-17T13:45:44Z</time>
      </trkpt>
      <trkpt lat="44.51059" lon="5.6376">
        <ele>1087.98</ele>
        <time>2018-06-17T13:45:46Z</time>
      </trkpt>
      <trkpt lat="44.51057" lon="5.63719">
        <ele>1083.46</ele>
        <time>2018-06-17T13:45:48Z</time>
      </trkpt>
      <trkpt lat="44.51057" lon="5.63684">
        <ele>1081.93</ele>
        <time>2018-06-17T13:45:50Z</time>
      </trkpt>
      <trkpt lat="44.51042" lon="5.63665">
        <ele>1079.68</ele>
        <time>2018-06-17T13:45:53Z</time>
      </trkpt>
      <trkpt lat="44.51017" lon="5.63655">
        <ele>1075.3</ele>
        <time>2018-06-17T13:45:56Z</time>
      </trkpt>
      <trkpt lat="44.51001" lon="5.63634">
        <ele>1073.92</ele>
        <time>2018-06-17T13:45:58Z</time>
      </trkpt>
      <trkpt lat="44.50979" lon="5.63622">
        <ele>1072.67</ele>
        <time>2018-06-17T13:46:00Z</time>
      </trkpt>
      <trkpt lat="44.50956" lon="5.63614">
        <ele>1073.26</ele>
        <time>2018-06-17T13:46:02Z</time>
      </trkpt>
      <trkpt lat="44.50954" lon="5.63589">
        <ele>1070.35</ele>
        <time>2018-06-17T13:46:08Z</time>
      </trkpt>
      <trkpt lat="44.50977" lon="5.63595">
        <ele>1069.62</ele>
        <time>2018-06-17T13:46:10Z</time>
      </trkpt>
      <trkpt lat="44.50998" lon="5.63597">
        <ele>1067.03</ele>
        <time>2018-06-17T13:46:12Z</time>
      </trkpt>
      <trkpt lat="44.51023" lon="5.63602">
        <ele>1065.19</ele>
        <time>2018-06-17T13:46:14Z</time>
      </trkpt>
      <trkpt lat="44.51045" lon="5.63613">
        <ele>1062.3</ele>
        <time>2018-06-17T13:46:16Z</time>
      </trkpt>
      <trkpt lat="44.51065" lon="5.63613">
        <ele>1060.01</ele>
        <time>2018-06-17T13:46:18Z</time>
      </trkpt>
      <trkpt lat="44.5109" lon="5.63618">
        <ele>1058.59</ele>
        <time>2018-06-17T13:46:21Z</time>
      </trkpt>
      <trkpt lat="44.51109" lon="5.63644">
        <ele>1057.64</ele>
        <time>2018-06-17T13:46:23Z</time>
      </trkpt>
      <trkpt lat="44.51128" lon="5.63664">
        <ele>1057.56</ele>
        <time>2018-06-17T13:46:25Z</time>
      </trkpt>
      <trkpt lat="44.51156" lon="5.63666">
        <ele>1055.81</ele>
        <time>2018-06-17T13:46:28Z</time>
      </trkpt>
      <trkpt lat="44.51174" lon="5.63629">
        <ele>1053.25</ele>
        <time>2018-06-17T13:46:31Z</time>
      </trkpt>
      <trkpt lat="44.51184" lon="5.63599">
        <ele>1050.09</ele>
        <time>2018-06-17T13:46:33Z</time>
      </trkpt>
      <trkpt lat="44.51199" lon="5.63584">
        <ele>1047.89</ele>
        <time>2018-06-17T13:46:36Z</time>
      </trkpt>
      <trkpt lat="44.51209" lon="5.63606">
        <ele>1049.4</ele>
        <time>2018-06-17T13:46:38Z</time>
      </trkpt>
      <trkpt lat="44.51225" lon="5.63634">
        <ele>1047.92</ele>
        <time>2018-06-17T13:46:40Z</time>
      </trkpt>
      <trkpt lat="44.51238" lon="5.63666">
        <ele>1045.27</ele>
        <time>2018-06-17T13:46:42Z</time>
      </trkpt>
      <trkpt lat="44.51245" lon="5.63702">
        <ele>1043.7</ele>
        <time>2018-06-17T13:46:44Z</time>
      </trkpt>
      <trkpt lat="44.51252" lon="5.6374">
        <ele>1042.65</ele>
        <time>2018-06-17T13:46:46Z</time>
      </trkpt>
      <trkpt lat="44.51262" lon="5.63776">
        <ele>1040.74</ele>
        <time>2018-06-17T13:46:48Z</time>
      </trkpt>
      <trkpt lat="44.51275" lon="5.638">
        <ele>1040.57</ele>
        <time>2018-06-17T13:46:50Z</time>
      </trkpt>
      <trkpt lat="44.51294" lon="5.63822">
        <ele>1039.64</ele>
        <time>2018-06-17T13:46:52Z</time>
      </trkpt>
      <trkpt lat="44.51319" lon="5.63835">
        <ele>1040.26</ele>
        <time>2018-06-17T13:46:54Z</time>
      </trkpt>
      <trkpt lat="44.51341" lon="5.63841">
        <ele>1039.61</ele>
        <time>2018-06-17T13:46:56Z</time>
      </trkpt>
      <trkpt lat="44.51362" lon="5.63843">
        <ele>1037.94</ele>
        <time>2018-06-17T13:46:58Z</time>
      </trkpt>
      <trkpt lat="44.51386" lon="5.63849">
        <ele>1037.77</ele>
        <time>2018-06-17T13:47:01Z</time>
      </trkpt>
      <trkpt lat="44.51404" lon="5.63837">
        <ele>1036.85</ele>
        <time>2018-06-17T13:47:05Z</time>
      </trkpt>
      <trkpt lat="44.51415" lon="5.63808">
        <ele>1034.67</ele>
        <time>2018-06-17T13:47:08Z</time>
      </trkpt>
      <trkpt lat="44.51422" lon="5.63784">
        <ele>1032.25</ele>
        <time>2018-06-17T13:47:10Z</time>
      </trkpt>
      <trkpt lat="44.51429" lon="5.63747">
        <ele>1029.96</ele>
        <time>2018-06-17T13:47:13Z</time>
      </trkpt>
      <trkpt lat="44.5142" lon="5.63724">
        <ele>1028.88</ele>
        <time>2018-06-17T13:47:15Z</time>
      </trkpt>
      <trkpt lat="44.51414" lon="5.63694">
        <ele>1027.58</ele>
        <time>2018-06-17T13:47:18Z</time>
      </trkpt>
      <trkpt lat="44.51418" lon="5.63665">
        <ele>1025.94</ele>
        <time>2018-06-17T13:47:21Z</time>
      </trkpt>
      <trkpt lat="44.51415" lon="5.63637">
        <ele>1024.18</ele>
        <time>2018-06-17T13:47:23Z</time>
      </trkpt>
      <trkpt lat="44.51403" lon="5.63608">
        <ele>1022.91</ele>
        <time>2018-06-17T13:47:25Z</time>
      </trkpt>
      <trkpt lat="44.51389" lon="5.63574">
        <ele>1020.97</ele>
        <time>2018-06-17T13:47:27Z</time>
      </trkpt>
      <trkpt lat="44.51382" lon="5.63542">
        <ele>1018.98</ele>
        <time>2018-06-17T13:47:29Z</time>
      </trkpt>
      <trkpt lat="44.51379" lon="5.63508">
        <ele>1015.37</ele>
        <time>2018-06-17T13:47:31Z</time>
      </trkpt>
      <trkpt lat="44.51378" lon="5.63471">
        <ele>1012.1</ele>
        <time>2018-06-17T13:47:33Z</time>
      </trkpt>
      <trkpt lat="44.51374" lon="5.63437">
        <ele>1009.99</ele>
        <time>2018-06-17T13:47:35Z</time>
      </trkpt>
      <trkpt lat="44.51359" lon="5.63413">
        <ele>1007.98</ele>
        <time>2018-06-17T13:47:37Z</time>
      </trkpt>
      <trkpt lat="44.51339" lon="5.63392">
        <ele>1007.38</ele>
        <time>2018-06-17T13:47:39Z</time>
      </trkpt>
      <trkpt lat="44.51321" lon="5.6337">
        <ele>1006.13</ele>
        <time>2018-06-17T13:47:41Z</time>
      </trkpt>
      <trkpt lat="44.5131" lon="5.6334">
        <ele>1004.69</ele>
        <time>2018-06-17T13:47:43Z</time>
      </trkpt>
      <trkpt lat="44.51298" lon="5.63309">
        <ele>1002.74</ele>
        <time>2018-06-17T13:47:45Z</time>
      </trkpt>
      <trkpt lat="44.51284" lon="5.63282">
        <ele>1000.96</ele>
        <time>2018-06-17T13:47:47Z</time>
      </trkpt>
      <trkpt lat="44.5127" lon="5.63257">
        <ele>999.67</ele>
        <time>2018-06-17T13:47:49Z</time>
      </trkpt>
      <trkpt lat="44.51259" lon="5.63229">
        <ele>998.86</ele>
        <time>2018-06-17T13:47:51Z</time>
      </trkpt>
      <trkpt lat="44.51253" lon="5.63194">
        <ele>996.06</ele>
        <time>2018-06-17T13:47:53Z</time>
      </trkpt>
      <trkpt lat="44.51245" lon="5.63157">
        <ele>994.68</ele>
        <time>2018-06-17T13:47:55Z</time>
      </trkpt>
      <trkpt lat="44.51243" lon="5.6312">
        <ele>994.56</ele>
        <time>2018-06-17T13:47:57Z</time>
      </trkpt>
      <trkpt lat="44.51247" lon="5.63081">
        <ele>993.64</ele>
        <time>2018-06-17T13:47:59Z</time>
      </trkpt>
      <trkpt lat="44.51254" lon="5.63046">
        <ele>991.04</ele>
        <time>2018-06-17T13:48:01Z</time>
      </trkpt>
      <trkpt lat="44.51251" lon="5.63011">
        <ele>988.98</ele>
        <time>2018-06-17T13:48:03Z</time>
      </trkpt>
      <trkpt lat="44.5125" lon="5.62971">
        <ele>986.28</ele>
        <time>2018-06-17T13:48:05Z</time>
      </trkpt>
      <trkpt lat="44.51251" lon="5.62929">
        <ele>983.3</ele>
        <time>2018-06-17T13:48:07Z</time>
      </trkpt>
      <trkpt lat="44.51256" lon="5.62892">
        <ele>981.92</ele>
        <time>2018-06-17T13:48:09Z</time>
      </trkpt>
      <trkpt lat="44.51266" lon="5.62855">
        <ele>980.88</ele>
        <time>2018-06-17T13:48:11Z</time>
      </trkpt>
      <trkpt lat="44.5128" lon="5.62824">
        <ele>979.88</ele>
        <time>2018-06-17T13:48:13Z</time>
      </trkpt>
      <trkpt lat="44.51289" lon="5.62789">
        <ele>978.18</ele>
        <time>2018-06-17T13:48:15Z</time>
      </trkpt>
      <trkpt lat="44.51303" lon="5.62757">
        <ele>976.9</ele>
        <time>2018-06-17T13:48:17Z</time>
      </trkpt>
      <trkpt lat="44.51314" lon="5.62723">
        <ele>976.58</ele>
        <time>2018-06-17T13:48:19Z</time>
      </trkpt>
      <trkpt lat="44.51317" lon="5.62679">
        <ele>974.73</ele>
        <time>2018-06-17T13:48:21Z</time>
      </trkpt>
      <trkpt lat="44.51323" lon="5.62637">
        <ele>974.35</ele>
        <time>2018-06-17T13:48:23Z</time>
      </trkpt>
      <trkpt lat="44.51328" lon="5.62594">
        <ele>972.92</ele>
        <time>2018-06-17T13:48:25Z</time>
      </trkpt>
      <trkpt lat="44.51326" lon="5.62553">
        <ele>971.88</ele>
        <time>2018-06-17T13:48:27Z</time>
      </trkpt>
      <trkpt lat="44.51331" lon="5.62517">
        <ele>969.06</ele>
        <time>2018-06-17T13:48:29Z</time>
      </trkpt>
      <trkpt lat="44.5134" lon="5.62479">
        <ele>966.77</ele>
        <time>2018-06-17T13:48:31Z</time>
      </trkpt>
      <trkpt lat="44.51356" lon="5.62442">
        <ele>964.75</ele>
        <time>2018-06-17T13:48:33Z</time>
      </trkpt>
      <trkpt lat="44.5137" lon="5.62411">
        <ele>962.96</ele>
        <time>2018-06-17T13:48:35Z</time>
      </trkpt>
      <trkpt lat="44.51387" lon="5.62391">
        <ele>959.98</ele>
        <time>2018-06-17T13:48:38Z</time>
      </trkpt>
      <trkpt lat="44.51408" lon="5.62406">
        <ele>957.49</ele>
        <time>2018-06-17T13:48:40Z</time>
      </trkpt>
      <trkpt lat="44.5143" lon="5.62421">
        <ele>955.93</ele>
        <time>2018-06-17T13:48:42Z</time>
      </trkpt>
      <trkpt lat="44.51454" lon="5.62425">
        <ele>953.97</ele>
        <time>2018-06-17T13:48:44Z</time>
      </trkpt>
      <trkpt lat="44.51473" lon="5.62413">
        <ele>952.68</ele>
        <time>2018-06-17T13:48:46Z</time>
      </trkpt>
      <trkpt lat="44.51484" lon="5.6239">
        <ele>951.86</ele>
        <time>2018-06-17T13:48:48Z</time>
      </trkpt>
      <trkpt lat="44.51486" lon="5.62363">
        <ele>950.88</ele>
        <time>2018-06-17T13:48:50Z</time>
      </trkpt>
      <trkpt lat="44.51473" lon="5.62337">
        <ele>947.97</ele>
        <time>2018-06-17T13:48:53Z</time>
      </trkpt>
      <trkpt lat="44.5145" lon="5.62349">
        <ele>944.21</ele>
        <time>2018-06-17T13:48:56Z</time>
      </trkpt>
      <trkpt lat="44.51432" lon="5.62354">
        <ele>942.7</ele>
        <time>2018-06-17T13:48:58Z</time>
      </trkpt>
      <trkpt lat="44.51418" lon="5.62333">
        <ele>940.74</ele>
        <time>2018-06-17T13:49:00Z</time>
      </trkpt>
      <trkpt lat="44.51408" lon="5.62305">
        <ele>938.05</ele>
        <time>2018-06-17T13:49:02Z</time>
      </trkpt>
      <trkpt lat="44.51385" lon="5.62278">
        <ele>935.98</ele>
        <time>2018-06-17T13:49:04Z</time>
      </trkpt>
      <trkpt lat="44.51366" lon="5.62251">
        <ele>933.98</ele>
        <time>2018-06-17T13:49:06Z</time>
      </trkpt>
      <trkpt lat="44.5135" lon="5.62239">
        <ele>931.07</ele>
        <time>2018-06-17T13:49:08Z</time>
      </trkpt>
      <trkpt lat="44.51328" lon="5.62242">
        <ele>928.07</ele>
        <time>2018-06-17T13:49:10Z</time>
      </trkpt>
      <trkpt lat="44.51303" lon="5.62238">
        <ele>925.08</ele>
        <time>2018-06-17T13:49:12Z</time>
      </trkpt>
      <trkpt lat="44.51286" lon="5.62213">
        <ele>921.17</ele>
        <time>2018-06-17T13:49:14Z</time>
      </trkpt>
      <trkpt lat="44.51274" lon="5.62179">
        <ele>918.99</ele>
        <time>2018-06-17T13:49:16Z</time>
      </trkpt>
      <trkpt lat="44.51267" lon="5.62143">
        <ele>915.16</ele>
        <time>2018-06-17T13:49:18Z</time>
      </trkpt>
      <trkpt lat="44.51272" lon="5.62102">
        <ele>913.69</ele>
        <time>2018-06-17T13:49:20Z</time>
      </trkpt>
      <trkpt lat="44.51277" lon="5.62057">
        <ele>914.26</ele>
        <time>2018-06-17T13:49:22Z</time>
      </trkpt>
      <trkpt lat="44.51279" lon="5.6201">
        <ele>917.04</ele>
        <time>2018-06-17T13:49:24Z</time>
      </trkpt>
      <trkpt lat="44.51277" lon="5.6197">
        <ele>920.02</ele>
        <time>2018-06-17T13:49:26Z</time>
      </trkpt>
      <trkpt lat="44.51279" lon="5.61927">
        <ele>920.5</ele>
        <time>2018-06-17T13:49:28Z</time>
      </trkpt>
      <trkpt lat="44.51277" lon="5.61883">
        <ele>920.54</ele>
        <time>2018-06-17T13:49:30Z</time>
      </trkpt>
      <trkpt lat="44.5127" lon="5.6184">
        <ele>918.94</ele>
        <time>2018-06-17T13:49:32Z</time>
      </trkpt>
      <trkpt lat="44.51257" lon="5.61798">
        <ele>916.27</ele>
        <time>2018-06-17T13:49:34Z</time>
      </trkpt>
      <trkpt lat="44.51246" lon="5.61758">
        <ele>914.7</ele>
        <time>2018-06-17T13:49:36Z</time>
      </trkpt>
      <trkpt lat="44.51232" lon="5.6172">
        <ele>912.95</ele>
        <time>2018-06-17T13:49:38Z</time>
      </trkpt>
      <trkpt lat="44.51213" lon="5.61685">
        <ele>910.97</ele>
        <time>2018-06-17T13:49:40Z</time>
      </trkpt>
      <trkpt lat="44.51201" lon="5.61648">
        <ele>909.89</ele>
        <time>2018-06-17T13:49:42Z</time>
      </trkpt>
      <trkpt lat="44.51196" lon="5.6161">
        <ele>908.67</ele>
        <time>2018-06-17T13:49:44Z</time>
      </trkpt>
      <trkpt lat="44.51194" lon="5.61568">
        <ele>906.25</ele>
        <time>2018-06-17T13:49:46Z</time>
      </trkpt>
      <trkpt lat="44.51185" lon="5.61523">
        <ele>904.21</ele>
        <time>2018-06-17T13:49:48Z</time>
      </trkpt>
      <trkpt lat="44.51177" lon="5.61475">
        <ele>902</ele>
        <time>2018-06-17T13:49:50Z</time>
      </trkpt>
      <trkpt lat="44.51171" lon="5.6145">
        <ele>900.98</ele>
        <time>2018-06-17T13:49:51Z</time>
      </trkpt>
      <trkpt lat="44.51163" lon="5.61426">
        <ele>899.98</ele>
        <time>2018-06-17T13:49:52Z</time>
      </trkpt>
      <trkpt lat="44.51156" lon="5.61402">
        <ele>898.28</ele>
        <time>2018-06-17T13:49:53Z</time>
      </trkpt>
      <trkpt lat="44.51147" lon="5.61379">
        <ele>897.77</ele>
        <time>2018-06-17T13:49:54Z</time>
      </trkpt>
      <trkpt lat="44.51135" lon="5.61336">
        <ele>895.96</ele>
        <time>2018-06-17T13:49:56Z</time>
      </trkpt>
      <trkpt lat="44.51126" lon="5.61298">
        <ele>893.97</ele>
        <time>2018-06-17T13:49:58Z</time>
      </trkpt>
      <trkpt lat="44.5111" lon="5.61268">
        <ele>893.59</ele>
        <time>2018-06-17T13:50:00Z</time>
      </trkpt>
      <trkpt lat="44.51098" lon="5.61232">
        <ele>891.94</ele>
        <time>2018-06-17T13:50:02Z</time>
      </trkpt>
      <trkpt lat="44.51093" lon="5.61189">
        <ele>890.88</ele>
        <time>2018-06-17T13:50:04Z</time>
      </trkpt>
      <trkpt lat="44.51085" lon="5.61143">
        <ele>888.97</ele>
        <time>2018-06-17T13:50:06Z</time>
      </trkpt>
      <trkpt lat="44.51076" lon="5.61098">
        <ele>886.98</ele>
        <time>2018-06-17T13:50:08Z</time>
      </trkpt>
      <trkpt lat="44.51065" lon="5.61055">
        <ele>885.68</ele>
        <time>2018-06-17T13:50:10Z</time>
      </trkpt>
      <trkpt lat="44.51048" lon="5.61012">
        <ele>883.95</ele>
        <time>2018-06-17T13:50:12Z</time>
      </trkpt>
      <trkpt lat="44.51033" lon="5.60967">
        <ele>881.97</ele>
        <time>2018-06-17T13:50:14Z</time>
      </trkpt>
      <trkpt lat="44.51027" lon="5.60943">
        <ele>880.98</ele>
        <time>2018-06-17T13:50:15Z</time>
      </trkpt>
      <trkpt lat="44.51022" lon="5.60918">
        <ele>880.68</ele>
        <time>2018-06-17T13:50:16Z</time>
      </trkpt>
      <trkpt lat="44.51017" lon="5.60893">
        <ele>879.19</ele>
        <time>2018-06-17T13:50:17Z</time>
      </trkpt>
      <trkpt lat="44.51013" lon="5.60868">
        <ele>878.74</ele>
        <time>2018-06-17T13:50:18Z</time>
      </trkpt>
      <trkpt lat="44.51008" lon="5.60843">
        <ele>877.91</ele>
        <time>2018-06-17T13:50:19Z</time>
      </trkpt>
      <trkpt lat="44.50998" lon="5.60795">
        <ele>875.97</ele>
        <time>2018-06-17T13:50:21Z</time>
      </trkpt>
      <trkpt lat="44.50988" lon="5.60746">
        <ele>873.98</ele>
        <time>2018-06-17T13:50:23Z</time>
      </trkpt>
      <trkpt lat="44.50982" lon="5.60698">
        <ele>872.89</ele>
        <time>2018-06-17T13:50:25Z</time>
      </trkpt>
      <trkpt lat="44.50973" lon="5.60651">
        <ele>870.97</ele>
        <time>2018-06-17T13:50:27Z</time>
      </trkpt>
      <trkpt lat="44.50967" lon="5.60603">
        <ele>869.89</ele>
        <time>2018-06-17T13:50:29Z</time>
      </trkpt>
      <trkpt lat="44.50963" lon="5.60553">
        <ele>868.88</ele>
        <time>2018-06-17T13:50:31Z</time>
      </trkpt>
      <trkpt lat="44.50959" lon="5.60504">
        <ele>868.58</ele>
        <time>2018-06-17T13:50:33Z</time>
      </trkpt>
      <trkpt lat="44.50951" lon="5.60455">
        <ele>868.55</ele>
        <time>2018-06-17T13:50:35Z</time>
      </trkpt>
      <trkpt lat="44.50946" lon="5.6043">
        <ele>867.85</ele>
        <time>2018-06-17T13:50:36Z</time>
      </trkpt>
      <trkpt lat="44.50941" lon="5.60404">
        <ele>866.94</ele>
        <time>2018-06-17T13:50:37Z</time>
      </trkpt>
      <trkpt lat="44.50937" lon="5.60378">
        <ele>866.67</ele>
        <time>2018-06-17T13:50:38Z</time>
      </trkpt>
      <trkpt lat="44.5093" lon="5.60352">
        <ele>866.58</ele>
        <time>2018-06-17T13:50:39Z</time>
      </trkpt>
      <trkpt lat="44.50923" lon="5.60327">
        <ele>866.56</ele>
        <time>2018-06-17T13:50:40Z</time>
      </trkpt>
      <trkpt lat="44.50917" lon="5.60302">
        <ele>865.85</ele>
        <time>2018-06-17T13:50:41Z</time>
      </trkpt>
      <trkpt lat="44.5091" lon="5.60277">
        <ele>865.64</ele>
        <time>2018-06-17T13:50:42Z</time>
      </trkpt>
      <trkpt lat="44.50902" lon="5.60252">
        <ele>864.88</ele>
        <time>2018-06-17T13:50:43Z</time>
      </trkpt>
      <trkpt lat="44.50894" lon="5.60228">
        <ele>864.65</ele>
        <time>2018-06-17T13:50:44Z</time>
      </trkpt>
      <trkpt lat="44.50886" lon="5.60205">
        <ele>864.58</ele>
        <time>2018-06-17T13:50:45Z</time>
      </trkpt>
      <trkpt lat="44.50878" lon="5.60181">
        <ele>864.56</ele>
        <time>2018-06-17T13:50:46Z</time>
      </trkpt>
      <trkpt lat="44.50871" lon="5.60158">
        <ele>863.85</ele>
        <time>2018-06-17T13:50:47Z</time>
      </trkpt>
      <trkpt lat="44.50864" lon="5.60134">
        <ele>862.94</ele>
        <time>2018-06-17T13:50:48Z</time>
      </trkpt>
      <trkpt lat="44.50854" lon="5.60091">
        <ele>861.88</ele>
        <time>2018-06-17T13:50:50Z</time>
      </trkpt>
      <trkpt lat="44.50849" lon="5.60052">
        <ele>861.58</ele>
        <time>2018-06-17T13:50:52Z</time>
      </trkpt>
      <trkpt lat="44.50844" lon="5.60018">
        <ele>860.85</ele>
        <time>2018-06-17T13:50:54Z</time>
      </trkpt>
      <trkpt lat="44.50828" lon="5.59985">
        <ele>860.58</ele>
        <time>2018-06-17T13:50:56Z</time>
      </trkpt>
      <trkpt lat="44.50815" lon="5.59952">
        <ele>859.64</ele>
        <time>2018-06-17T13:50:58Z</time>
      </trkpt>
      <trkpt lat="44.50808" lon="5.59914">
        <ele>858.86</ele>
        <time>2018-06-17T13:51:00Z</time>
      </trkpt>
      <trkpt lat="44.508" lon="5.59873">
        <ele>858.58</ele>
        <time>2018-06-17T13:51:02Z</time>
      </trkpt>
      <trkpt lat="44.50786" lon="5.59831">
        <ele>856.03</ele>
        <time>2018-06-17T13:51:04Z</time>
      </trkpt>
      <trkpt lat="44.50762" lon="5.59797">
        <ele>856.29</ele>
        <time>2018-06-17T13:51:06Z</time>
      </trkpt>
      <trkpt lat="44.50739" lon="5.5976">
        <ele>856.52</ele>
        <time>2018-06-17T13:51:08Z</time>
      </trkpt>
      <trkpt lat="44.50728" lon="5.59739">
        <ele>855.84</ele>
        <time>2018-06-17T13:51:09Z</time>
      </trkpt>
      <trkpt lat="44.50707" lon="5.59698">
        <ele>855.57</ele>
        <time>2018-06-17T13:51:11Z</time>
      </trkpt>
      <trkpt lat="44.50692" lon="5.59654">
        <ele>854.85</ele>
        <time>2018-06-17T13:51:13Z</time>
      </trkpt>
      <trkpt lat="44.50677" lon="5.59609">
        <ele>853.88</ele>
        <time>2018-06-17T13:51:15Z</time>
      </trkpt>
      <trkpt lat="44.50661" lon="5.59565">
        <ele>851.97</ele>
        <time>2018-06-17T13:51:17Z</time>
      </trkpt>
      <trkpt lat="44.5065" lon="5.59544">
        <ele>850.97</ele>
        <time>2018-06-17T13:51:18Z</time>
      </trkpt>
      <trkpt lat="44.50638" lon="5.59523">
        <ele>850.68</ele>
        <time>2018-06-17T13:51:19Z</time>
      </trkpt>
      <trkpt lat="44.50627" lon="5.59503">
        <ele>849.89</ele>
        <time>2018-06-17T13:51:20Z</time>
      </trkpt>
      <trkpt lat="44.50615" lon="5.59483">
        <ele>849.65</ele>
        <time>2018-06-17T13:51:21Z</time>
      </trkpt>
      <trkpt lat="44.50601" lon="5.59463">
        <ele>848.88</ele>
        <time>2018-06-17T13:51:22Z</time>
      </trkpt>
      <trkpt lat="44.50587" lon="5.59447">
        <ele>847.95</ele>
        <time>2018-06-17T13:51:23Z</time>
      </trkpt>
      <trkpt lat="44.50571" lon="5.59431">
        <ele>847.67</ele>
        <time>2018-06-17T13:51:24Z</time>
      </trkpt>
      <trkpt lat="44.50554" lon="5.59416">
        <ele>846.18</ele>
        <time>2018-06-17T13:51:25Z</time>
      </trkpt>
      <trkpt lat="44.50538" lon="5.59401">
        <ele>845.04</ele>
        <time>2018-06-17T13:51:26Z</time>
      </trkpt>
      <trkpt lat="44.50522" lon="5.59388">
        <ele>844</ele>
        <time>2018-06-17T13:51:27Z</time>
      </trkpt>
      <trkpt lat="44.50505" lon="5.59373">
        <ele>843.68</ele>
        <time>2018-06-17T13:51:28Z</time>
      </trkpt>
      <trkpt lat="44.50489" lon="5.59358">
        <ele>842.89</ele>
        <time>2018-06-17T13:51:29Z</time>
      </trkpt>
      <trkpt lat="44.50473" lon="5.59342">
        <ele>842.65</ele>
        <time>2018-06-17T13:51:30Z</time>
      </trkpt>
      <trkpt lat="44.50456" lon="5.59325">
        <ele>842.58</ele>
        <time>2018-06-17T13:51:31Z</time>
      </trkpt>
      <trkpt lat="44.50441" lon="5.59309">
        <ele>841.86</ele>
        <time>2018-06-17T13:51:32Z</time>
      </trkpt>
      <trkpt lat="44.50426" lon="5.59293">
        <ele>840.94</ele>
        <time>2018-06-17T13:51:33Z</time>
      </trkpt>
      <trkpt lat="44.50399" lon="5.59265">
        <ele>840.58</ele>
        <time>2018-06-17T13:51:35Z</time>
      </trkpt>
      <trkpt lat="44.50375" lon="5.59237">
        <ele>839.85</ele>
        <time>2018-06-17T13:51:37Z</time>
      </trkpt>
      <trkpt lat="44.50352" lon="5.59205">
        <ele>837.06</ele>
        <time>2018-06-17T13:51:39Z</time>
      </trkpt>
      <trkpt lat="44.50331" lon="5.59166">
        <ele>834.28</ele>
        <time>2018-06-17T13:51:41Z</time>
      </trkpt>
      <trkpt lat="44.50311" lon="5.59127">
        <ele>832.21</ele>
        <time>2018-06-17T13:51:43Z</time>
      </trkpt>
      <trkpt lat="44.50295" lon="5.59089">
        <ele>830.21</ele>
        <time>2018-06-17T13:51:45Z</time>
      </trkpt>
      <trkpt lat="44.50284" lon="5.59046">
        <ele>828.21</ele>
        <time>2018-06-17T13:51:47Z</time>
      </trkpt>
      <trkpt lat="44.50271" lon="5.59006">
        <ele>826</ele>
        <time>2018-06-17T13:51:49Z</time>
      </trkpt>
      <trkpt lat="44.50264" lon="5.5897">
        <ele>824.68</ele>
        <time>2018-06-17T13:51:51Z</time>
      </trkpt>
      <trkpt lat="44.50259" lon="5.58943">
        <ele>823.65</ele>
        <time>2018-06-17T13:51:53Z</time>
      </trkpt>
      <trkpt lat="44.50253" lon="5.58911">
        <ele>821.88</ele>
        <time>2018-06-17T13:51:56Z</time>
      </trkpt>
      <trkpt lat="44.50251" lon="5.58885">
        <ele>821.58</ele>
        <time>2018-06-17T13:51:58Z</time>
      </trkpt>
      <trkpt lat="44.50251" lon="5.58851">
        <ele>819.94</ele>
        <time>2018-06-17T13:52:00Z</time>
      </trkpt>
      <trkpt lat="44.50251" lon="5.58814">
        <ele>818.67</ele>
        <time>2018-06-17T13:52:02Z</time>
      </trkpt>
      <trkpt lat="44.50245" lon="5.58778">
        <ele>817.86</ele>
        <time>2018-06-17T13:52:04Z</time>
      </trkpt>
      <trkpt lat="44.50232" lon="5.58742">
        <ele>817.58</ele>
        <time>2018-06-17T13:52:06Z</time>
      </trkpt>
      <trkpt lat="44.50219" lon="5.58704">
        <ele>816.64</ele>
        <time>2018-06-17T13:52:08Z</time>
      </trkpt>
      <trkpt lat="44.50208" lon="5.58664">
        <ele>816.56</ele>
        <time>2018-06-17T13:52:10Z</time>
      </trkpt>
      <trkpt lat="44.50201" lon="5.58623">
        <ele>815.64</ele>
        <time>2018-06-17T13:52:12Z</time>
      </trkpt>
      <trkpt lat="44.50198" lon="5.5858">
        <ele>813.74</ele>
        <time>2018-06-17T13:52:14Z</time>
      </trkpt>
      <trkpt lat="44.50197" lon="5.58538">
        <ele>811.95</ele>
        <time>2018-06-17T13:52:16Z</time>
      </trkpt>
      <trkpt lat="44.50204" lon="5.58497">
        <ele>809.06</ele>
        <time>2018-06-17T13:52:18Z</time>
      </trkpt>
      <trkpt lat="44.50216" lon="5.58455">
        <ele>806.98</ele>
        <time>2018-06-17T13:52:20Z</time>
      </trkpt>
      <trkpt lat="44.50228" lon="5.58414">
        <ele>804.77</ele>
        <time>2018-06-17T13:52:22Z</time>
      </trkpt>
      <trkpt lat="44.50239" lon="5.5838">
        <ele>804.36</ele>
        <time>2018-06-17T13:52:24Z</time>
      </trkpt>
      <trkpt lat="44.50244" lon="5.58351">
        <ele>804.53</ele>
        <time>2018-06-17T13:52:26Z</time>
      </trkpt>
      <trkpt lat="44.50228" lon="5.58323">
        <ele>804.55</ele>
        <time>2018-06-17T13:52:28Z</time>
      </trkpt>
      <trkpt lat="44.50213" lon="5.58291">
        <ele>803.64</ele>
        <time>2018-06-17T13:52:30Z</time>
      </trkpt>
      <trkpt lat="44.50207" lon="5.58251">
        <ele>803.56</ele>
        <time>2018-06-17T13:52:32Z</time>
      </trkpt>
      <trkpt lat="44.50207" lon="5.58206">
        <ele>803.55</ele>
        <time>2018-06-17T13:52:34Z</time>
      </trkpt>
      <trkpt lat="44.50208" lon="5.58161">
        <ele>802.85</ele>
        <time>2018-06-17T13:52:36Z</time>
      </trkpt>
      <trkpt lat="44.50211" lon="5.58119">
        <ele>802.58</ele>
        <time>2018-06-17T13:52:38Z</time>
      </trkpt>
      <trkpt lat="44.50221" lon="5.58077">
        <ele>801.85</ele>
        <time>2018-06-17T13:52:40Z</time>
      </trkpt>
      <trkpt lat="44.50232" lon="5.58039">
        <ele>800.67</ele>
        <time>2018-06-17T13:52:42Z</time>
      </trkpt>
      <trkpt lat="44.50246" lon="5.58009">
        <ele>799.86</ele>
        <time>2018-06-17T13:52:44Z</time>
      </trkpt>
      <trkpt lat="44.50263" lon="5.58001">
        <ele>798.94</ele>
        <time>2018-06-17T13:52:45Z</time>
      </trkpt>
      <trkpt lat="44.5029" lon="5.57978">
        <ele>796.97</ele>
        <time>2018-06-17T13:52:47Z</time>
      </trkpt>
      <trkpt lat="44.50318" lon="5.57953">
        <ele>795.68</ele>
        <time>2018-06-17T13:52:49Z</time>
      </trkpt>
      <trkpt lat="44.50346" lon="5.57922">
        <ele>794.65</ele>
        <time>2018-06-17T13:52:51Z</time>
      </trkpt>
      <trkpt lat="44.50373" lon="5.57892">
        <ele>793.65</ele>
        <time>2018-06-17T13:52:53Z</time>
      </trkpt>
      <trkpt lat="44.50399" lon="5.57859">
        <ele>791.95</ele>
        <time>2018-06-17T13:52:55Z</time>
      </trkpt>
      <trkpt lat="44.50424" lon="5.57828">
        <ele>791.58</ele>
        <time>2018-06-17T13:52:57Z</time>
      </trkpt>
      <trkpt lat="44.50447" lon="5.578">
        <ele>789.73</ele>
        <time>2018-06-17T13:52:59Z</time>
      </trkpt>
      <trkpt lat="44.50464" lon="5.57778">
        <ele>788.86</ele>
        <time>2018-06-17T13:53:01Z</time>
      </trkpt>
      <trkpt lat="44.50479" lon="5.57761">
        <ele>787.88</ele>
        <time>2018-06-17T13:53:03Z</time>
      </trkpt>
      <trkpt lat="44.50501" lon="5.57751">
        <ele>787.56</ele>
        <time>2018-06-17T13:53:06Z</time>
      </trkpt>
      <trkpt lat="44.50524" lon="5.57734">
        <ele>788.46</ele>
        <time>2018-06-17T13:53:09Z</time>
      </trkpt>
      <trkpt lat="44.50538" lon="5.57714">
        <ele>789.45</ele>
        <time>2018-06-17T13:53:11Z</time>
      </trkpt>
      <trkpt lat="44.50554" lon="5.57689">
        <ele>790.24</ele>
        <time>2018-06-17T13:53:13Z</time>
      </trkpt>
      <trkpt lat="44.50569" lon="5.57668">
        <ele>790.52</ele>
        <time>2018-06-17T13:53:15Z</time>
      </trkpt>
      <trkpt lat="44.50583" lon="5.57649">
        <ele>789.85</ele>
        <time>2018-06-17T13:53:17Z</time>
      </trkpt>
      <trkpt lat="44.50601" lon="5.57622">
        <ele>788.86</ele>
        <time>2018-06-17T13:53:20Z</time>
      </trkpt>
      <trkpt lat="44.50617" lon="5.57596">
        <ele>787.65</ele>
        <time>2018-06-17T13:53:23Z</time>
      </trkpt>
      <trkpt lat="44.50618" lon="5.57569">
        <ele>787.55</ele>
        <time>2018-06-17T13:53:26Z</time>
      </trkpt>
      <trkpt lat="44.50602" lon="5.57541">
        <ele>787.55</ele>
        <time>2018-06-17T13:53:29Z</time>
      </trkpt>
      <trkpt lat="44.50589" lon="5.57519">
        <ele>788.46</ele>
        <time>2018-06-17T13:53:31Z</time>
      </trkpt>
      <trkpt lat="44.50576" lon="5.57497">
        <ele>789.24</ele>
        <time>2018-06-17T13:53:33Z</time>
      </trkpt>
      <trkpt lat="44.50568" lon="5.57474">
        <ele>788.61</ele>
        <time>2018-06-17T13:53:35Z</time>
      </trkpt>
      <trkpt lat="44.50577" lon="5.57441">
        <ele>788.82</ele>
        <time>2018-06-17T13:53:38Z</time>
      </trkpt>
      <trkpt lat="44.50587" lon="5.57415">
        <ele>787.87</ele>
        <time>2018-06-17T13:53:40Z</time>
      </trkpt>
      <trkpt lat="44.50598" lon="5.57388">
        <ele>786.67</ele>
        <time>2018-06-17T13:53:42Z</time>
      </trkpt>
      <trkpt lat="44.50603" lon="5.57358">
        <ele>786.35</ele>
        <time>2018-06-17T13:53:44Z</time>
      </trkpt>
      <trkpt lat="44.50598" lon="5.57327">
        <ele>786.53</ele>
        <time>2018-06-17T13:53:46Z</time>
      </trkpt>
      <trkpt lat="44.50587" lon="5.57291">
        <ele>785.64</ele>
        <time>2018-06-17T13:53:48Z</time>
      </trkpt>
      <trkpt lat="44.5057" lon="5.57258">
        <ele>787.17</ele>
        <time>2018-06-17T13:53:50Z</time>
      </trkpt>
      <trkpt lat="44.50551" lon="5.57226">
        <ele>788.21</ele>
        <time>2018-06-17T13:53:52Z</time>
      </trkpt>
      <trkpt lat="44.50532" lon="5.57192">
        <ele>789.22</ele>
        <time>2018-06-17T13:53:54Z</time>
      </trkpt>
      <trkpt lat="44.5052" lon="5.57152">
        <ele>791.13</ele>
        <time>2018-06-17T13:53:56Z</time>
      </trkpt>
      <trkpt lat="44.50511" lon="5.5711">
        <ele>793.12</ele>
        <time>2018-06-17T13:53:58Z</time>
      </trkpt>
      <trkpt lat="44.50503" lon="5.57065">
        <ele>795.12</ele>
        <time>2018-06-17T13:54:00Z</time>
      </trkpt>
      <trkpt lat="44.50502" lon="5.57021">
        <ele>797.12</ele>
        <time>2018-06-17T13:54:02Z</time>
      </trkpt>
      <trkpt lat="44.50504" lon="5.56977">
        <ele>798.42</ele>
        <time>2018-06-17T13:54:04Z</time>
      </trkpt>
      <trkpt lat="44.50509" lon="5.56931">
        <ele>796.93</ele>
        <time>2018-06-17T13:54:06Z</time>
      </trkpt>
      <trkpt lat="44.50515" lon="5.56883">
        <ele>796.58</ele>
        <time>2018-06-17T13:54:08Z</time>
      </trkpt>
      <trkpt lat="44.5052" lon="5.56834">
        <ele>796.55</ele>
        <time>2018-06-17T13:54:10Z</time>
      </trkpt>
      <trkpt lat="44.50524" lon="5.56784">
        <ele>796.55</ele>
        <time>2018-06-17T13:54:12Z</time>
      </trkpt>
      <trkpt lat="44.50526" lon="5.56758">
        <ele>797.25</ele>
        <time>2018-06-17T13:54:13Z</time>
      </trkpt>
      <trkpt lat="44.50527" lon="5.56731">
        <ele>798.16</ele>
        <time>2018-06-17T13:54:14Z</time>
      </trkpt>
      <trkpt lat="44.50529" lon="5.56704">
        <ele>798.43</ele>
        <time>2018-06-17T13:54:15Z</time>
      </trkpt>
      <trkpt lat="44.5053" lon="5.56677">
        <ele>799.21</ele>
        <time>2018-06-17T13:54:16Z</time>
      </trkpt>
      <trkpt lat="44.50532" lon="5.5665">
        <ele>799.45</ele>
        <time>2018-06-17T13:54:17Z</time>
      </trkpt>
      <trkpt lat="44.50532" lon="5.56622">
        <ele>799.52</ele>
        <time>2018-06-17T13:54:18Z</time>
      </trkpt>
      <trkpt lat="44.50531" lon="5.56596">
        <ele>800.24</ele>
        <time>2018-06-17T13:54:19Z</time>
      </trkpt>
      <trkpt lat="44.5053" lon="5.56547">
        <ele>800.52</ele>
        <time>2018-06-17T13:54:21Z</time>
      </trkpt>
      <trkpt lat="44.50527" lon="5.56507">
        <ele>802.16</ele>
        <time>2018-06-17T13:54:23Z</time>
      </trkpt>
      <trkpt lat="44.50528" lon="5.5648">
        <ele>803.42</ele>
        <time>2018-06-17T13:54:25Z</time>
      </trkpt>
      <trkpt lat="44.5054" lon="5.56456">
        <ele>804.03</ele>
        <time>2018-06-17T13:54:27Z</time>
      </trkpt>
      <trkpt lat="44.50557" lon="5.56426">
        <ele>805.2</ele>
        <time>2018-06-17T13:54:29Z</time>
      </trkpt>
      <trkpt lat="44.50578" lon="5.56401">
        <ele>807.13</ele>
        <time>2018-06-17T13:54:31Z</time>
      </trkpt>
      <trkpt lat="44.50595" lon="5.56372">
        <ele>807.51</ele>
        <time>2018-06-17T13:54:33Z</time>
      </trkpt>
      <trkpt lat="44.50602" lon="5.56347">
        <ele>808.24</ele>
        <time>2018-06-17T13:54:35Z</time>
      </trkpt>
      <trkpt lat="44.50604" lon="5.5632">
        <ele>808.31</ele>
        <time>2018-06-17T13:54:37Z</time>
      </trkpt>
      <trkpt lat="44.50584" lon="5.56297">
        <ele>806.6</ele>
        <time>2018-06-17T13:54:40Z</time>
      </trkpt>
      <trkpt lat="44.50561" lon="5.56315">
        <ele>807.25</ele>
        <time>2018-06-17T13:54:42Z</time>
      </trkpt>
      <trkpt lat="44.50538" lon="5.56337">
        <ele>810.74</ele>
        <time>2018-06-17T13:54:44Z</time>
      </trkpt>
      <trkpt lat="44.5052" lon="5.5633">
        <ele>813.79</ele>
        <time>2018-06-17T13:54:46Z</time>
      </trkpt>
      <trkpt lat="44.50511" lon="5.56302">
        <ele>815.18</ele>
        <time>2018-06-17T13:54:48Z</time>
      </trkpt>
      <trkpt lat="44.505" lon="5.56266">
        <ele>817.12</ele>
        <time>2018-06-17T13:54:50Z</time>
      </trkpt>
      <trkpt lat="44.50488" lon="5.56224">
        <ele>819.12</ele>
        <time>2018-06-17T13:54:52Z</time>
      </trkpt>
      <trkpt lat="44.50474" lon="5.56178">
        <ele>822.03</ele>
        <time>2018-06-17T13:54:54Z</time>
      </trkpt>
      <trkpt lat="44.50464" lon="5.56136">
        <ele>824.32</ele>
        <time>2018-06-17T13:54:56Z</time>
      </trkpt>
      <trkpt lat="44.50456" lon="5.56095">
        <ele>826.84</ele>
        <time>2018-06-17T13:54:58Z</time>
      </trkpt>
      <trkpt lat="44.5045" lon="5.56048">
        <ele>829.09</ele>
        <time>2018-06-17T13:55:00Z</time>
      </trkpt>
      <trkpt lat="44.50449" lon="5.55999">
        <ele>831.33</ele>
        <time>2018-06-17T13:55:02Z</time>
      </trkpt>
      <trkpt lat="44.50452" lon="5.55951">
        <ele>833.84</ele>
        <time>2018-06-17T13:55:04Z</time>
      </trkpt>
      <trkpt lat="44.50455" lon="5.55924">
        <ele>835.04</ele>
        <time>2018-06-17T13:55:05Z</time>
      </trkpt>
      <trkpt lat="44.50458" lon="5.55898">
        <ele>836.79</ele>
        <time>2018-06-17T13:55:06Z</time>
      </trkpt>
      <trkpt lat="44.50461" lon="5.5587">
        <ele>838.02</ele>
        <time>2018-06-17T13:55:07Z</time>
      </trkpt>
      <trkpt lat="44.50465" lon="5.55842">
        <ele>839.09</ele>
        <time>2018-06-17T13:55:08Z</time>
      </trkpt>
      <trkpt lat="44.50469" lon="5.55812">
        <ele>840.11</ele>
        <time>2018-06-17T13:55:09Z</time>
      </trkpt>
      <trkpt lat="44.50474" lon="5.55783">
        <ele>841.82</ele>
        <time>2018-06-17T13:55:10Z</time>
      </trkpt>
      <trkpt lat="44.50479" lon="5.55754">
        <ele>843.73</ele>
        <time>2018-06-17T13:55:11Z</time>
      </trkpt>
      <trkpt lat="44.50485" lon="5.55726">
        <ele>844.3</ele>
        <time>2018-06-17T13:55:12Z</time>
      </trkpt>
      <trkpt lat="44.50489" lon="5.55698">
        <ele>846.57</ele>
        <time>2018-06-17T13:55:13Z</time>
      </trkpt>
      <trkpt lat="44.50492" lon="5.55672">
        <ele>847.96</ele>
        <time>2018-06-17T13:55:14Z</time>
      </trkpt>
      <trkpt lat="44.50495" lon="5.55647">
        <ele>849.07</ele>
        <time>2018-06-17T13:55:15Z</time>
      </trkpt>
      <trkpt lat="44.50497" lon="5.55622">
        <ele>850.8</ele>
        <time>2018-06-17T13:55:16Z</time>
      </trkpt>
      <trkpt lat="44.50498" lon="5.55595">
        <ele>852.03</ele>
        <time>2018-06-17T13:55:17Z</time>
      </trkpt>
      <trkpt lat="44.50496" lon="5.55568">
        <ele>854.49</ele>
        <time>2018-06-17T13:55:18Z</time>
      </trkpt>
      <trkpt lat="44.50493" lon="5.5554">
        <ele>855.93</ele>
        <time>2018-06-17T13:55:19Z</time>
      </trkpt>
      <trkpt lat="44.50491" lon="5.55512">
        <ele>857.76</ele>
        <time>2018-06-17T13:55:20Z</time>
      </trkpt>
      <trkpt lat="44.50488" lon="5.55484">
        <ele>859.71</ele>
        <time>2018-06-17T13:55:21Z</time>
      </trkpt>
      <trkpt lat="44.50484" lon="5.55456">
        <ele>861</ele>
        <time>2018-06-17T13:55:22Z</time>
      </trkpt>
      <trkpt lat="44.50479" lon="5.55428">
        <ele>862.78</ele>
        <time>2018-06-17T13:55:23Z</time>
      </trkpt>
      <trkpt lat="44.5047" lon="5.55402">
        <ele>864.72</ele>
        <time>2018-06-17T13:55:24Z</time>
      </trkpt>
      <trkpt lat="44.5046" lon="5.55378">
        <ele>866.7</ele>
        <time>2018-06-17T13:55:25Z</time>
      </trkpt>
      <trkpt lat="44.50451" lon="5.55352">
        <ele>868.69</ele>
        <time>2018-06-17T13:55:26Z</time>
      </trkpt>
      <trkpt lat="44.50442" lon="5.55325">
        <ele>869.99</ele>
        <time>2018-06-17T13:55:27Z</time>
      </trkpt>
      <trkpt lat="44.50437" lon="5.55299">
        <ele>871.78</ele>
        <time>2018-06-17T13:55:28Z</time>
      </trkpt>
      <trkpt lat="44.5043" lon="5.55253">
        <ele>875</ele>
        <time>2018-06-17T13:55:30Z</time>
      </trkpt>
      <trkpt lat="44.50421" lon="5.55221">
        <ele>878.23</ele>
        <time>2018-06-17T13:55:32Z</time>
      </trkpt>
      <trkpt lat="44.50398" lon="5.55197">
        <ele>878.52</ele>
        <time>2018-06-17T13:55:34Z</time>
      </trkpt>
      <trkpt lat="44.50378" lon="5.55159">
        <ele>880.86</ele>
        <time>2018-06-17T13:55:36Z</time>
      </trkpt>
      <trkpt lat="44.50366" lon="5.55138">
        <ele>882.74</ele>
        <time>2018-06-17T13:55:37Z</time>
      </trkpt>
      <trkpt lat="44.50352" lon="5.55116">
        <ele>884.01</ele>
        <time>2018-06-17T13:55:38Z</time>
      </trkpt>
      <trkpt lat="44.50338" lon="5.55094">
        <ele>884.39</ele>
        <time>2018-06-17T13:55:39Z</time>
      </trkpt>
      <trkpt lat="44.50325" lon="5.55072">
        <ele>884.5</ele>
        <time>2018-06-17T13:55:40Z</time>
      </trkpt>
      <trkpt lat="44.50313" lon="5.55047">
        <ele>885.23</ele>
        <time>2018-06-17T13:55:41Z</time>
      </trkpt>
      <trkpt lat="44.50296" lon="5.55004">
        <ele>887.83</ele>
        <time>2018-06-17T13:55:43Z</time>
      </trkpt>
      <trkpt lat="44.50296" lon="5.54978">
        <ele>891.83</ele>
        <time>2018-06-17T13:55:44Z</time>
      </trkpt>
      <trkpt lat="44.50295" lon="5.54949">
        <ele>893.03</ele>
        <time>2018-06-17T13:55:45Z</time>
      </trkpt>
      <trkpt lat="44.50292" lon="5.54923">
        <ele>894.79</ele>
        <time>2018-06-17T13:55:46Z</time>
      </trkpt>
      <trkpt lat="44.50289" lon="5.54894">
        <ele>895.32</ele>
        <time>2018-06-17T13:55:47Z</time>
      </trkpt>
      <trkpt lat="44.50278" lon="5.54869">
        <ele>897.58</ele>
        <time>2018-06-17T13:55:48Z</time>
      </trkpt>
      <trkpt lat="44.50271" lon="5.54843">
        <ele>899.66</ele>
        <time>2018-06-17T13:55:49Z</time>
      </trkpt>
      <trkpt lat="44.50266" lon="5.54814">
        <ele>900.98</ele>
        <time>2018-06-17T13:55:50Z</time>
      </trkpt>
      <trkpt lat="44.50263" lon="5.54788">
        <ele>903.48</ele>
        <time>2018-06-17T13:55:51Z</time>
      </trkpt>
      <trkpt lat="44.50254" lon="5.54741">
        <ele>907.88</ele>
        <time>2018-06-17T13:55:53Z</time>
      </trkpt>
      <trkpt lat="44.50253" lon="5.54697">
        <ele>910.8</ele>
        <time>2018-06-17T13:55:55Z</time>
      </trkpt>
      <trkpt lat="44.50251" lon="5.54652">
        <ele>913.09</ele>
        <time>2018-06-17T13:55:57Z</time>
      </trkpt>
      <trkpt lat="44.50254" lon="5.54617">
        <ele>916.03</ele>
        <time>2018-06-17T13:55:59Z</time>
      </trkpt>
      <trkpt lat="44.50263" lon="5.54592">
        <ele>917.41</ele>
        <time>2018-06-17T13:56:01Z</time>
      </trkpt>
      <trkpt lat="44.50284" lon="5.54598">
        <ele>918.54</ele>
        <time>2018-06-17T13:56:05Z</time>
      </trkpt>
      <trkpt lat="44.50281" lon="5.54638">
        <ele>919.95</ele>
        <time>2018-06-17T13:56:07Z</time>
      </trkpt>
      <trkpt lat="44.50277" lon="5.54677">
        <ele>922.8</ele>
        <time>2018-06-17T13:56:09Z</time>
      </trkpt>
      <trkpt lat="44.50277" lon="5.54711">
        <ele>925.79</ele>
        <time>2018-06-17T13:56:11Z</time>
      </trkpt>
      <trkpt lat="44.50286" lon="5.54735">
        <ele>929</ele>
        <time>2018-06-17T13:56:13Z</time>
      </trkpt>
      <trkpt lat="44.50307" lon="5.54746">
        <ele>931.81</ele>
        <time>2018-06-17T13:56:15Z</time>
      </trkpt>
      <trkpt lat="44.50326" lon="5.54756">
        <ele>933.73</ele>
        <time>2018-06-17T13:56:16Z</time>
      </trkpt>
      <trkpt lat="44.50351" lon="5.54784">
        <ele>935.38</ele>
        <time>2018-06-17T13:56:18Z</time>
      </trkpt>
      <trkpt lat="44.50366" lon="5.54823">
        <ele>937.14</ele>
        <time>2018-06-17T13:56:20Z</time>
      </trkpt>
      <trkpt lat="44.50382" lon="5.54858">
        <ele>939.82</ele>
        <time>2018-06-17T13:56:22Z</time>
      </trkpt>
      <trkpt lat="44.50406" lon="5.54887">
        <ele>942.79</ele>
        <time>2018-06-17T13:56:24Z</time>
      </trkpt>
      <trkpt lat="44.50426" lon="5.54925">
        <ele>945.79</ele>
        <time>2018-06-17T13:56:26Z</time>
      </trkpt>
      <trkpt lat="44.50435" lon="5.54958">
        <ele>947.88</ele>
        <time>2018-06-17T13:56:28Z</time>
      </trkpt>
      <trkpt lat="44.50454" lon="5.54971">
        <ele>949.52</ele>
        <time>2018-06-17T13:56:32Z</time>
      </trkpt>
      <trkpt lat="44.50446" lon="5.54942">
        <ele>950.95</ele>
        <time>2018-06-17T13:56:34Z</time>
      </trkpt>
      <trkpt lat="44.50435" lon="5.54903">
        <ele>953.1</ele>
        <time>2018-06-17T13:56:36Z</time>
      </trkpt>
      <trkpt lat="44.50426" lon="5.54861">
        <ele>955.12</ele>
        <time>2018-06-17T13:56:38Z</time>
      </trkpt>
      <trkpt lat="44.50423" lon="5.54814">
        <ele>957.12</ele>
        <time>2018-06-17T13:56:40Z</time>
      </trkpt>
      <trkpt lat="44.50422" lon="5.54788">
        <ele>959.52</ele>
        <time>2018-06-17T13:56:41Z</time>
      </trkpt>
      <trkpt lat="44.50422" lon="5.54762">
        <ele>961.64</ele>
        <time>2018-06-17T13:56:42Z</time>
      </trkpt>
      <trkpt lat="44.50425" lon="5.54736">
        <ele>962.98</ele>
        <time>2018-06-17T13:56:43Z</time>
      </trkpt>
      <trkpt lat="44.50427" lon="5.5471">
        <ele>964.08</ele>
        <time>2018-06-17T13:56:44Z</time>
      </trkpt>
      <trkpt lat="44.50427" lon="5.54684">
        <ele>965.81</ele>
        <time>2018-06-17T13:56:45Z</time>
      </trkpt>
      <trkpt lat="44.50424" lon="5.54638">
        <ele>968.79</ele>
        <time>2018-06-17T13:56:47Z</time>
      </trkpt>
      <trkpt lat="44.50434" lon="5.5459">
        <ele>971.79</ele>
        <time>2018-06-17T13:56:49Z</time>
      </trkpt>
      <trkpt lat="44.50441" lon="5.54562">
        <ele>973.02</ele>
        <time>2018-06-17T13:56:50Z</time>
      </trkpt>
      <trkpt lat="44.50447" lon="5.54537">
        <ele>973.39</ele>
        <time>2018-06-17T13:56:51Z</time>
      </trkpt>
      <trkpt lat="44.50443" lon="5.54506">
        <ele>975.6</ele>
        <time>2018-06-17T13:56:52Z</time>
      </trkpt>
      <trkpt lat="44.50447" lon="5.54478">
        <ele>977.66</ele>
        <time>2018-06-17T13:56:53Z</time>
      </trkpt>
      <trkpt lat="44.50453" lon="5.5445">
        <ele>979.68</ele>
        <time>2018-06-17T13:56:54Z</time>
      </trkpt>
      <trkpt lat="44.50462" lon="5.54421">
        <ele>981.69</ele>
        <time>2018-06-17T13:56:55Z</time>
      </trkpt>
      <trkpt lat="44.50472" lon="5.54392">
        <ele>982.99</ele>
        <time>2018-06-17T13:56:56Z</time>
      </trkpt>
      <trkpt lat="44.50482" lon="5.54367">
        <ele>984.08</ele>
        <time>2018-06-17T13:56:57Z</time>
      </trkpt>
      <trkpt lat="44.50494" lon="5.54343">
        <ele>985.81</ele>
        <time>2018-06-17T13:56:58Z</time>
      </trkpt>
      <trkpt lat="44.50506" lon="5.5432">
        <ele>987.03</ele>
        <time>2018-06-17T13:56:59Z</time>
      </trkpt>
      <trkpt lat="44.50518" lon="5.54295">
        <ele>986.69</ele>
        <time>2018-06-17T13:57:00Z</time>
      </trkpt>
      <trkpt lat="44.50526" lon="5.54266">
        <ele>987.29</ele>
        <time>2018-06-17T13:57:01Z</time>
      </trkpt>
      <trkpt lat="44.50534" lon="5.54237">
        <ele>987.47</ele>
        <time>2018-06-17T13:57:02Z</time>
      </trkpt>
      <trkpt lat="44.50542" lon="5.54208">
        <ele>988.22</ele>
        <time>2018-06-17T13:57:03Z</time>
      </trkpt>
      <trkpt lat="44.5055" lon="5.54178">
        <ele>989.15</ele>
        <time>2018-06-17T13:57:04Z</time>
      </trkpt>
      <trkpt lat="44.50557" lon="5.54147">
        <ele>990.13</ele>
        <time>2018-06-17T13:57:05Z</time>
      </trkpt>
      <trkpt lat="44.50561" lon="5.54114">
        <ele>991.12</ele>
        <time>2018-06-17T13:57:06Z</time>
      </trkpt>
      <trkpt lat="44.50564" lon="5.5408">
        <ele>992.12</ele>
        <time>2018-06-17T13:57:07Z</time>
      </trkpt>
      <trkpt lat="44.50566" lon="5.54048">
        <ele>993.12</ele>
        <time>2018-06-17T13:57:08Z</time>
      </trkpt>
      <trkpt lat="44.50565" lon="5.54018">
        <ele>995.52</ele>
        <time>2018-06-17T13:57:09Z</time>
      </trkpt>
      <trkpt lat="44.50561" lon="5.5399">
        <ele>998.34</ele>
        <time>2018-06-17T13:57:10Z</time>
      </trkpt>
      <trkpt lat="44.50558" lon="5.53964">
        <ele>1000.59</ele>
        <time>2018-06-17T13:57:11Z</time>
      </trkpt>
      <trkpt lat="44.50557" lon="5.53936">
        <ele>1001.96</ele>
        <time>2018-06-17T13:57:12Z</time>
      </trkpt>
      <trkpt lat="44.50558" lon="5.53907">
        <ele>1003.07</ele>
        <time>2018-06-17T13:57:13Z</time>
      </trkpt>
      <trkpt lat="44.50563" lon="5.53878">
        <ele>1004.8</ele>
        <time>2018-06-17T13:57:14Z</time>
      </trkpt>
      <trkpt lat="44.50569" lon="5.53851">
        <ele>1006.03</ele>
        <time>2018-06-17T13:57:15Z</time>
      </trkpt>
      <trkpt lat="44.50574" lon="5.53825">
        <ele>1007.09</ele>
        <time>2018-06-17T13:57:16Z</time>
      </trkpt>
      <trkpt lat="44.50576" lon="5.53799">
        <ele>1008.11</ele>
        <time>2018-06-17T13:57:17Z</time>
      </trkpt>
      <trkpt lat="44.50577" lon="5.53774">
        <ele>1008.42</ele>
        <time>2018-06-17T13:57:18Z</time>
      </trkpt>
      <trkpt lat="44.50576" lon="5.53745">
        <ele>1009.91</ele>
        <time>2018-06-17T13:57:19Z</time>
      </trkpt>
      <trkpt lat="44.50562" lon="5.53721">
        <ele>1011.06</ele>
        <time>2018-06-17T13:57:20Z</time>
      </trkpt>
      <trkpt lat="44.50556" lon="5.53694">
        <ele>1012.1</ele>
        <time>2018-06-17T13:57:21Z</time>
      </trkpt>
      <trkpt lat="44.50554" lon="5.53667">
        <ele>1013.11</ele>
        <time>2018-06-17T13:57:22Z</time>
      </trkpt>
      <trkpt lat="44.50556" lon="5.53639">
        <ele>1014.12</ele>
        <time>2018-06-17T13:57:23Z</time>
      </trkpt>
      <trkpt lat="44.5056" lon="5.53613">
        <ele>1015.82</ele>
        <time>2018-06-17T13:57:24Z</time>
      </trkpt>
      <trkpt lat="44.50576" lon="5.53569">
        <ele>1018.79</ele>
        <time>2018-06-17T13:57:26Z</time>
      </trkpt>
      <trkpt lat="44.50593" lon="5.53532">
        <ele>1022</ele>
        <time>2018-06-17T13:57:28Z</time>
      </trkpt>
      <trkpt lat="44.50598" lon="5.53488">
        <ele>1024.81</ele>
        <time>2018-06-17T13:57:30Z</time>
      </trkpt>
      <trkpt lat="44.5059" lon="5.53442">
        <ele>1027.79</ele>
        <time>2018-06-17T13:57:32Z</time>
      </trkpt>
      <trkpt lat="44.50574" lon="5.53398">
        <ele>1031</ele>
        <time>2018-06-17T13:57:34Z</time>
      </trkpt>
      <trkpt lat="44.50552" lon="5.53362">
        <ele>1031.5</ele>
        <time>2018-06-17T13:57:36Z</time>
      </trkpt>
      <trkpt lat="44.50523" lon="5.53336">
        <ele>1033.15</ele>
        <time>2018-06-17T13:57:38Z</time>
      </trkpt>
      <trkpt lat="44.50505" lon="5.53298">
        <ele>1034.21</ele>
        <time>2018-06-17T13:57:40Z</time>
      </trkpt>
      <trkpt lat="44.50495" lon="5.53261">
        <ele>1036.13</ele>
        <time>2018-06-17T13:57:42Z</time>
      </trkpt>
      <trkpt lat="44.505" lon="5.53219">
        <ele>1039.03</ele>
        <time>2018-06-17T13:57:44Z</time>
      </trkpt>
      <trkpt lat="44.50508" lon="5.5317">
        <ele>1041.11</ele>
        <time>2018-06-17T13:57:46Z</time>
      </trkpt>
      <trkpt lat="44.50507" lon="5.53118">
        <ele>1042.21</ele>
        <time>2018-06-17T13:57:48Z</time>
      </trkpt>
      <trkpt lat="44.50497" lon="5.53075">
        <ele>1044.83</ele>
        <time>2018-06-17T13:57:50Z</time>
      </trkpt>
      <trkpt lat="44.50502" lon="5.53034">
        <ele>1048</ele>
        <time>2018-06-17T13:57:52Z</time>
      </trkpt>
      <trkpt lat="44.5051" lon="5.53007">
        <ele>1049.08</ele>
        <time>2018-06-17T13:57:53Z</time>
      </trkpt>
      <trkpt lat="44.50515" lon="5.52981">
        <ele>1050.81</ele>
        <time>2018-06-17T13:57:54Z</time>
      </trkpt>
      <trkpt lat="44.50516" lon="5.52931">
        <ele>1052.18</ele>
        <time>2018-06-17T13:57:56Z</time>
      </trkpt>
      <trkpt lat="44.50513" lon="5.52905">
        <ele>1053.14</ele>
        <time>2018-06-17T13:57:57Z</time>
      </trkpt>
      <trkpt lat="44.50504" lon="5.52878">
        <ele>1054.83</ele>
        <time>2018-06-17T13:57:58Z</time>
      </trkpt>
      <trkpt lat="44.50497" lon="5.52852">
        <ele>1055.33</ele>
        <time>2018-06-17T13:57:59Z</time>
      </trkpt>
      <trkpt lat="44.50492" lon="5.52806">
        <ele>1056.44</ele>
        <time>2018-06-17T13:58:01Z</time>
      </trkpt>
      <trkpt lat="44.50501" lon="5.5276">
        <ele>1057.45</ele>
        <time>2018-06-17T13:58:03Z</time>
      </trkpt>
      <trkpt lat="44.50508" lon="5.52711">
        <ele>1059.15</ele>
        <time>2018-06-17T13:58:05Z</time>
      </trkpt>
      <trkpt lat="44.50504" lon="5.52682">
        <ele>1061.53</ele>
        <time>2018-06-17T13:58:06Z</time>
      </trkpt>
      <trkpt lat="44.50499" lon="5.52655">
        <ele>1063.64</ele>
        <time>2018-06-17T13:58:07Z</time>
      </trkpt>
      <trkpt lat="44.50495" lon="5.52627">
        <ele>1064.28</ele>
        <time>2018-06-17T13:58:08Z</time>
      </trkpt>
      <trkpt lat="44.50492" lon="5.526">
        <ele>1065.87</ele>
        <time>2018-06-17T13:58:09Z</time>
      </trkpt>
      <trkpt lat="44.50489" lon="5.52575">
        <ele>1067.04</ele>
        <time>2018-06-17T13:58:10Z</time>
      </trkpt>
      <trkpt lat="44.50487" lon="5.52549">
        <ele>1067.4</ele>
        <time>2018-06-17T13:58:11Z</time>
      </trkpt>
      <trkpt lat="44.50482" lon="5.52503">
        <ele>1068.44</ele>
        <time>2018-06-17T13:58:13Z</time>
      </trkpt>
      <trkpt lat="44.50476" lon="5.52459">
        <ele>1069.24</ele>
        <time>2018-06-17T13:58:15Z</time>
      </trkpt>
      <trkpt lat="44.50467" lon="5.52419">
        <ele>1072.74</ele>
        <time>2018-06-17T13:58:17Z</time>
      </trkpt>
      <trkpt lat="44.5046" lon="5.52379">
        <ele>1074.18</ele>
        <time>2018-06-17T13:58:19Z</time>
      </trkpt>
      <trkpt lat="44.5046" lon="5.52337">
        <ele>1075.21</ele>
        <time>2018-06-17T13:58:21Z</time>
      </trkpt>
      <trkpt lat="44.50467" lon="5.52288">
        <ele>1076.43</ele>
        <time>2018-06-17T13:58:23Z</time>
      </trkpt>
      <trkpt lat="44.5047" lon="5.52239">
        <ele>1077.45</ele>
        <time>2018-06-17T13:58:25Z</time>
      </trkpt>
      <trkpt lat="44.50463" lon="5.52194">
        <ele>1079.15</ele>
        <time>2018-06-17T13:58:27Z</time>
      </trkpt>
      <trkpt lat="44.50442" lon="5.52158">
        <ele>1080.42</ele>
        <time>2018-06-17T13:58:29Z</time>
      </trkpt>
      <trkpt lat="44.50435" lon="5.52118">
        <ele>1082.15</ele>
        <time>2018-06-17T13:58:31Z</time>
      </trkpt>
      <trkpt lat="44.50439" lon="5.52073">
        <ele>1083.21</ele>
        <time>2018-06-17T13:58:33Z</time>
      </trkpt>
      <trkpt lat="44.50445" lon="5.52026">
        <ele>1084.43</ele>
        <time>2018-06-17T13:58:35Z</time>
      </trkpt>
      <trkpt lat="44.50445" lon="5.51978">
        <ele>1084.75</ele>
        <time>2018-06-17T13:58:37Z</time>
      </trkpt>
      <trkpt lat="44.50435" lon="5.51956">
        <ele>1085.31</ele>
        <time>2018-06-17T13:58:38Z</time>
      </trkpt>
      <trkpt lat="44.50421" lon="5.51912">
        <ele>1087.84</ele>
        <time>2018-06-17T13:58:40Z</time>
      </trkpt>
      <trkpt lat="44.50412" lon="5.51868">
        <ele>1090.09</ele>
        <time>2018-06-17T13:58:42Z</time>
      </trkpt>
      <trkpt lat="44.50412" lon="5.51827">
        <ele>1091.42</ele>
        <time>2018-06-17T13:58:44Z</time>
      </trkpt>
      <trkpt lat="44.50423" lon="5.51787">
        <ele>1093.15</ele>
        <time>2018-06-17T13:58:46Z</time>
      </trkpt>
      <trkpt lat="44.50443" lon="5.51749">
        <ele>1095.12</ele>
        <time>2018-06-17T13:58:48Z</time>
      </trkpt>
      <trkpt lat="44.50464" lon="5.51712">
        <ele>1097.12</ele>
        <time>2018-06-17T13:58:50Z</time>
      </trkpt>
      <trkpt lat="44.50478" lon="5.51673">
        <ele>1097.51</ele>
        <time>2018-06-17T13:58:52Z</time>
      </trkpt>
      <trkpt lat="44.5047" lon="5.51645">
        <ele>1098.94</ele>
        <time>2018-06-17T13:58:53Z</time>
      </trkpt>
      <trkpt lat="44.50466" lon="5.51616">
        <ele>1099.36</ele>
        <time>2018-06-17T13:58:54Z</time>
      </trkpt>
      <trkpt lat="44.50463" lon="5.51588">
        <ele>1100.19</ele>
        <time>2018-06-17T13:58:55Z</time>
      </trkpt>
      <trkpt lat="44.5046" lon="5.51562">
        <ele>1100.44</ele>
        <time>2018-06-17T13:58:56Z</time>
      </trkpt>
      <trkpt lat="44.50464" lon="5.51512">
        <ele>1102.15</ele>
        <time>2018-06-17T13:58:58Z</time>
      </trkpt>
      <trkpt lat="44.50468" lon="5.51487">
        <ele>1103.13</ele>
        <time>2018-06-17T13:58:59Z</time>
      </trkpt>
      <trkpt lat="44.50471" lon="5.51462">
        <ele>1103.42</ele>
        <time>2018-06-17T13:59:00Z</time>
      </trkpt>
      <trkpt lat="44.50471" lon="5.51437">
        <ele>1104.21</ele>
        <time>2018-06-17T13:59:01Z</time>
      </trkpt>
      <trkpt lat="44.50468" lon="5.51411">
        <ele>1105.15</ele>
        <time>2018-06-17T13:59:02Z</time>
      </trkpt>
      <trkpt lat="44.50463" lon="5.51365">
        <ele>1107.33</ele>
        <time>2018-06-17T13:59:04Z</time>
      </trkpt>
      <trkpt lat="44.50475" lon="5.51321">
        <ele>1108.23</ele>
        <time>2018-06-17T13:59:06Z</time>
      </trkpt>
      <trkpt lat="44.50485" lon="5.513">
        <ele>1109.85</ele>
        <time>2018-06-17T13:59:07Z</time>
      </trkpt>
      <trkpt lat="44.50497" lon="5.5128">
        <ele>1111.04</ele>
        <time>2018-06-17T13:59:08Z</time>
      </trkpt>
      <trkpt lat="44.5051" lon="5.51263">
        <ele>1111.4</ele>
        <time>2018-06-17T13:59:09Z</time>
      </trkpt>
      <trkpt lat="44.50525" lon="5.51246">
        <ele>1112.2</ele>
        <time>2018-06-17T13:59:10Z</time>
      </trkpt>
      <trkpt lat="44.50546" lon="5.51236">
        <ele>1113.14</ele>
        <time>2018-06-17T13:59:11Z</time>
      </trkpt>
      <trkpt lat="44.50565" lon="5.51223">
        <ele>1114.13</ele>
        <time>2018-06-17T13:59:12Z</time>
      </trkpt>
      <trkpt lat="44.50582" lon="5.5121">
        <ele>1115.12</ele>
        <time>2018-06-17T13:59:13Z</time>
      </trkpt>
      <trkpt lat="44.50599" lon="5.51196">
        <ele>1116.12</ele>
        <time>2018-06-17T13:59:14Z</time>
      </trkpt>
      <trkpt lat="44.50612" lon="5.51178">
        <ele>1116.42</ele>
        <time>2018-06-17T13:59:15Z</time>
      </trkpt>
      <trkpt lat="44.50624" lon="5.51157">
        <ele>1117.91</ele>
        <time>2018-06-17T13:59:16Z</time>
      </trkpt>
      <trkpt lat="44.50634" lon="5.51135">
        <ele>1119.06</ele>
        <time>2018-06-17T13:59:17Z</time>
      </trkpt>
      <trkpt lat="44.50644" lon="5.51113">
        <ele>1119.4</ele>
        <time>2018-06-17T13:59:18Z</time>
      </trkpt>
      <trkpt lat="44.50661" lon="5.51076">
        <ele>1121.14</ele>
        <time>2018-06-17T13:59:20Z</time>
      </trkpt>
      <trkpt lat="44.50672" lon="5.51053">
        <ele>1121.51</ele>
        <time>2018-06-17T13:59:22Z</time>
      </trkpt>
      <trkpt lat="44.50682" lon="5.51029">
        <ele>1121.64</ele>
        <time>2018-06-17T13:59:59Z</time>
      </trkpt>
      <trkpt lat="44.50699" lon="5.51015">
        <ele>1121.56</ele>
        <time>2018-06-17T14:00:01Z</time>
      </trkpt>
      <trkpt lat="44.50719" lon="5.50989">
        <ele>1120.58</ele>
        <time>2018-06-17T14:00:04Z</time>
      </trkpt>
      <trkpt lat="44.5073" lon="5.50968">
        <ele>1118.94</ele>
        <time>2018-06-17T14:00:06Z</time>
      </trkpt>
      <trkpt lat="44.50738" lon="5.50941">
        <ele>1118.58</ele>
        <time>2018-06-17T14:00:08Z</time>
      </trkpt>
      <trkpt lat="44.50745" lon="5.50907">
        <ele>1117.15</ele>
        <time>2018-06-17T14:00:10Z</time>
      </trkpt>
      <trkpt lat="44.50754" lon="5.50875">
        <ele>1114.99</ele>
        <time>2018-06-17T14:00:12Z</time>
      </trkpt>
      <trkpt lat="44.50764" lon="5.50838">
        <ele>1113.68</ele>
        <time>2018-06-17T14:00:14Z</time>
      </trkpt>
      <trkpt lat="44.50774" lon="5.50799">
        <ele>1112.16</ele>
        <time>2018-06-17T14:00:16Z</time>
      </trkpt>
      <trkpt lat="44.50785" lon="5.50761">
        <ele>1109.99</ele>
        <time>2018-06-17T14:00:18Z</time>
      </trkpt>
      <trkpt lat="44.50796" lon="5.50723">
        <ele>1108.89</ele>
        <time>2018-06-17T14:00:20Z</time>
      </trkpt>
      <trkpt lat="44.50807" lon="5.50683">
        <ele>1107.88</ele>
        <time>2018-06-17T14:00:22Z</time>
      </trkpt>
      <trkpt lat="44.50817" lon="5.50644">
        <ele>1106.67</ele>
        <time>2018-06-17T14:00:24Z</time>
      </trkpt>
      <trkpt lat="44.50827" lon="5.50605">
        <ele>1106.56</ele>
        <time>2018-06-17T14:00:26Z</time>
      </trkpt>
      <trkpt lat="44.50834" lon="5.50564">
        <ele>1105.85</ele>
        <time>2018-06-17T14:00:28Z</time>
      </trkpt>
      <trkpt lat="44.50837" lon="5.50523">
        <ele>1105.58</ele>
        <time>2018-06-17T14:00:30Z</time>
      </trkpt>
      <trkpt lat="44.50842" lon="5.50486">
        <ele>1104.64</ele>
        <time>2018-06-17T14:00:32Z</time>
      </trkpt>
      <trkpt lat="44.50859" lon="5.50452">
        <ele>1102.74</ele>
        <time>2018-06-17T14:00:34Z</time>
      </trkpt>
      <trkpt lat="44.50881" lon="5.50419">
        <ele>1102.56</ele>
        <time>2018-06-17T14:00:36Z</time>
      </trkpt>
      <trkpt lat="44.50905" lon="5.50396">
        <ele>1101.64</ele>
        <time>2018-06-17T14:00:38Z</time>
      </trkpt>
      <trkpt lat="44.50935" lon="5.50388">
        <ele>1100.86</ele>
        <time>2018-06-17T14:00:40Z</time>
      </trkpt>
      <trkpt lat="44.50964" lon="5.50378">
        <ele>1101.49</ele>
        <time>2018-06-17T14:00:42Z</time>
      </trkpt>
      <trkpt lat="44.5099" lon="5.50351">
        <ele>1100.63</ele>
        <time>2018-06-17T14:00:44Z</time>
      </trkpt>
      <trkpt lat="44.51014" lon="5.50318">
        <ele>1100.56</ele>
        <time>2018-06-17T14:00:46Z</time>
      </trkpt>
      <trkpt lat="44.51031" lon="5.50283">
        <ele>1099.64</ele>
        <time>2018-06-17T14:00:48Z</time>
      </trkpt>
      <trkpt lat="44.51036" lon="5.50239">
        <ele>1098.86</ele>
        <time>2018-06-17T14:00:50Z</time>
      </trkpt>
      <trkpt lat="44.51038" lon="5.50197">
        <ele>1098.58</ele>
        <time>2018-06-17T14:00:52Z</time>
      </trkpt>
      <trkpt lat="44.51047" lon="5.50153">
        <ele>1097.64</ele>
        <time>2018-06-17T14:00:54Z</time>
      </trkpt>
      <trkpt lat="44.51059" lon="5.50116">
        <ele>1096.86</ele>
        <time>2018-06-17T14:00:56Z</time>
      </trkpt>
      <trkpt lat="44.51075" lon="5.50098">
        <ele>1095.88</ele>
        <time>2018-06-17T14:00:58Z</time>
      </trkpt>
      <trkpt lat="44.51097" lon="5.50103">
        <ele>1095.58</ele>
        <time>2018-06-17T14:01:00Z</time>
      </trkpt>
      <trkpt lat="44.51122" lon="5.50105">
        <ele>1093.94</ele>
        <time>2018-06-17T14:01:02Z</time>
      </trkpt>
      <trkpt lat="44.51146" lon="5.50086">
        <ele>1093.58</ele>
        <time>2018-06-17T14:01:04Z</time>
      </trkpt>
      <trkpt lat="44.5116" lon="5.50052">
        <ele>1092.64</ele>
        <time>2018-06-17T14:01:06Z</time>
      </trkpt>
      <trkpt lat="44.51174" lon="5.50021">
        <ele>1092.56</ele>
        <time>2018-06-17T14:01:08Z</time>
      </trkpt>
      <trkpt lat="44.51195" lon="5.49995">
        <ele>1090.94</ele>
        <time>2018-06-17T14:01:10Z</time>
      </trkpt>
      <trkpt lat="44.51211" lon="5.49958">
        <ele>1089.88</ele>
        <time>2018-06-17T14:01:12Z</time>
      </trkpt>
      <trkpt lat="44.51222" lon="5.49912">
        <ele>1088.88</ele>
        <time>2018-06-17T14:01:14Z</time>
      </trkpt>
      <trkpt lat="44.51229" lon="5.49887">
        <ele>1087.95</ele>
        <time>2018-06-17T14:01:15Z</time>
      </trkpt>
      <trkpt lat="44.51236" lon="5.49862">
        <ele>1087.67</ele>
        <time>2018-06-17T14:01:16Z</time>
      </trkpt>
      <trkpt lat="44.51243" lon="5.49836">
        <ele>1087.58</ele>
        <time>2018-06-17T14:01:17Z</time>
      </trkpt>
      <trkpt lat="44.51249" lon="5.4981">
        <ele>1086.86</ele>
        <time>2018-06-17T14:01:18Z</time>
      </trkpt>
      <trkpt lat="44.51256" lon="5.49784">
        <ele>1086.64</ele>
        <time>2018-06-17T14:01:19Z</time>
      </trkpt>
      <trkpt lat="44.51263" lon="5.49758">
        <ele>1086.58</ele>
        <time>2018-06-17T14:01:20Z</time>
      </trkpt>
      <trkpt lat="44.5127" lon="5.4973">
        <ele>1086.56</ele>
        <time>2018-06-17T14:01:21Z</time>
      </trkpt>
      <trkpt lat="44.51278" lon="5.49704">
        <ele>1086.55</ele>
        <time>2018-06-17T14:01:22Z</time>
      </trkpt>
      <trkpt lat="44.51285" lon="5.49678">
        <ele>1086.55</ele>
        <time>2018-06-17T14:01:23Z</time>
      </trkpt>
      <trkpt lat="44.51293" lon="5.49654">
        <ele>1086.55</ele>
        <time>2018-06-17T14:01:24Z</time>
      </trkpt>
      <trkpt lat="44.513" lon="5.49631">
        <ele>1086.55</ele>
        <time>2018-06-17T14:01:25Z</time>
      </trkpt>
      <trkpt lat="44.51306" lon="5.49607">
        <ele>1085.85</ele>
        <time>2018-06-17T14:01:26Z</time>
      </trkpt>
      <trkpt lat="44.5131" lon="5.49582">
        <ele>1084.94</ele>
        <time>2018-06-17T14:01:27Z</time>
      </trkpt>
      <trkpt lat="44.51309" lon="5.49555">
        <ele>1084.67</ele>
        <time>2018-06-17T14:01:28Z</time>
      </trkpt>
      <trkpt lat="44.51309" lon="5.49529">
        <ele>1085.28</ele>
        <time>2018-06-17T14:01:29Z</time>
      </trkpt>
      <trkpt lat="44.51309" lon="5.49502">
        <ele>1084.77</ele>
        <time>2018-06-17T14:01:30Z</time>
      </trkpt>
      <trkpt lat="44.51309" lon="5.49476">
        <ele>1083.91</ele>
        <time>2018-06-17T14:01:31Z</time>
      </trkpt>
      <trkpt lat="44.51307" lon="5.49451">
        <ele>1084.36</ele>
        <time>2018-06-17T14:01:32Z</time>
      </trkpt>
      <trkpt lat="44.51304" lon="5.49425">
        <ele>1083.79</ele>
        <time>2018-06-17T14:01:33Z</time>
      </trkpt>
      <trkpt lat="44.51298" lon="5.49398">
        <ele>1084.32</ele>
        <time>2018-06-17T14:01:34Z</time>
      </trkpt>
      <trkpt lat="44.51292" lon="5.49373">
        <ele>1084.48</ele>
        <time>2018-06-17T14:01:35Z</time>
      </trkpt>
      <trkpt lat="44.51285" lon="5.49349">
        <ele>1083.83</ele>
        <time>2018-06-17T14:01:36Z</time>
      </trkpt>
      <trkpt lat="44.5128" lon="5.49313">
        <ele>1082.17</ele>
        <time>2018-06-17T14:01:38Z</time>
      </trkpt>
      <trkpt lat="44.5128" lon="5.49287">
        <ele>1082.51</ele>
        <time>2018-06-17T14:01:40Z</time>
      </trkpt>
      <trkpt lat="44.513" lon="5.49284">
        <ele>1081.84</ele>
        <time>2018-06-17T14:01:42Z</time>
      </trkpt>
      <trkpt lat="44.51331" lon="5.49294">
        <ele>1082.27</ele>
        <time>2018-06-17T14:01:44Z</time>
      </trkpt>
      <trkpt lat="44.51359" lon="5.49285">
        <ele>1081.61</ele>
        <time>2018-06-17T14:01:46Z</time>
      </trkpt>
      <trkpt lat="44.51383" lon="5.49261">
        <ele>1082.25</ele>
        <time>2018-06-17T14:01:48Z</time>
      </trkpt>
      <trkpt lat="44.514" lon="5.49237">
        <ele>1081.82</ele>
        <time>2018-06-17T14:01:50Z</time>
      </trkpt>
      <trkpt lat="44.51408" lon="5.49205">
        <ele>1083.18</ele>
        <time>2018-06-17T14:01:52Z</time>
      </trkpt>
      <trkpt lat="44.51398" lon="5.49161">
        <ele>1083.52</ele>
        <time>2018-06-17T14:01:54Z</time>
      </trkpt>
      <trkpt lat="44.51385" lon="5.49116">
        <ele>1083.55</ele>
        <time>2018-06-17T14:01:56Z</time>
      </trkpt>
      <trkpt lat="44.51377" lon="5.49093">
        <ele>1082.85</ele>
        <time>2018-06-17T14:01:57Z</time>
      </trkpt>
      <trkpt lat="44.51366" lon="5.49072">
        <ele>1081.94</ele>
        <time>2018-06-17T14:01:58Z</time>
      </trkpt>
      <trkpt lat="44.51356" lon="5.4905">
        <ele>1081.66</ele>
        <time>2018-06-17T14:01:59Z</time>
      </trkpt>
      <trkpt lat="44.51346" lon="5.49029">
        <ele>1080.88</ele>
        <time>2018-06-17T14:02:00Z</time>
      </trkpt>
      <trkpt lat="44.51335" lon="5.49006">
        <ele>1079.95</ele>
        <time>2018-06-17T14:02:01Z</time>
      </trkpt>
      <trkpt lat="44.51312" lon="5.48969">
        <ele>1079.79</ele>
        <time>2018-06-17T14:02:03Z</time>
      </trkpt>
      <trkpt lat="44.51295" lon="5.48924">
        <ele>1079.57</ele>
        <time>2018-06-17T14:02:05Z</time>
      </trkpt>
      <trkpt lat="44.51288" lon="5.48896">
        <ele>1078.85</ele>
        <time>2018-06-17T14:02:06Z</time>
      </trkpt>
      <trkpt lat="44.51281" lon="5.48869">
        <ele>1078.64</ele>
        <time>2018-06-17T14:02:07Z</time>
      </trkpt>
      <trkpt lat="44.51274" lon="5.48843">
        <ele>1078.58</ele>
        <time>2018-06-17T14:02:08Z</time>
      </trkpt>
      <trkpt lat="44.51266" lon="5.48815">
        <ele>1077.86</ele>
        <time>2018-06-17T14:02:09Z</time>
      </trkpt>
      <trkpt lat="44.51259" lon="5.48788">
        <ele>1077.64</ele>
        <time>2018-06-17T14:02:10Z</time>
      </trkpt>
      <trkpt lat="44.51251" lon="5.48761">
        <ele>1076.88</ele>
        <time>2018-06-17T14:02:11Z</time>
      </trkpt>
      <trkpt lat="44.51243" lon="5.48734">
        <ele>1077.35</ele>
        <time>2018-06-17T14:02:12Z</time>
      </trkpt>
      <trkpt lat="44.51234" lon="5.48708">
        <ele>1077.49</ele>
        <time>2018-06-17T14:02:13Z</time>
      </trkpt>
      <trkpt lat="44.51224" lon="5.48682">
        <ele>1076.83</ele>
        <time>2018-06-17T14:02:14Z</time>
      </trkpt>
      <trkpt lat="44.51213" lon="5.48657">
        <ele>1076.63</ele>
        <time>2018-06-17T14:02:15Z</time>
      </trkpt>
      <trkpt lat="44.51202" lon="5.4863">
        <ele>1076.57</ele>
        <time>2018-06-17T14:02:16Z</time>
      </trkpt>
      <trkpt lat="44.51192" lon="5.48602">
        <ele>1075.86</ele>
        <time>2018-06-17T14:02:17Z</time>
      </trkpt>
      <trkpt lat="44.51184" lon="5.48574">
        <ele>1074.94</ele>
        <time>2018-06-17T14:02:18Z</time>
      </trkpt>
      <trkpt lat="44.51175" lon="5.48546">
        <ele>1073.97</ele>
        <time>2018-06-17T14:02:19Z</time>
      </trkpt>
      <trkpt lat="44.51168" lon="5.48521">
        <ele>1072.97</ele>
        <time>2018-06-17T14:02:20Z</time>
      </trkpt>
      <trkpt lat="44.51161" lon="5.48482">
        <ele>1072.59</ele>
        <time>2018-06-17T14:02:22Z</time>
      </trkpt>
      <trkpt lat="44.51173" lon="5.48451">
        <ele>1070.94</ele>
        <time>2018-06-17T14:02:24Z</time>
      </trkpt>
      <trkpt lat="44.512" lon="5.48433">
        <ele>1070.58</ele>
        <time>2018-06-17T14:02:26Z</time>
      </trkpt>
      <trkpt lat="44.51234" lon="5.48425">
        <ele>1070.06</ele>
        <time>2018-06-17T14:02:28Z</time>
      </trkpt>
      <trkpt lat="44.51252" lon="5.48423">
        <ele>1069</ele>
        <time>2018-06-17T14:02:29Z</time>
      </trkpt>
      <trkpt lat="44.5127" lon="5.48416">
        <ele>1067.98</ele>
        <time>2018-06-17T14:02:30Z</time>
      </trkpt>
      <trkpt lat="44.51287" lon="5.48407">
        <ele>1067.68</ele>
        <time>2018-06-17T14:02:31Z</time>
      </trkpt>
      <trkpt lat="44.51317" lon="5.4838">
        <ele>1067.56</ele>
        <time>2018-06-17T14:02:33Z</time>
      </trkpt>
      <trkpt lat="44.51343" lon="5.4835">
        <ele>1066.64</ele>
        <time>2018-06-17T14:02:35Z</time>
      </trkpt>
      <trkpt lat="44.51372" lon="5.48318">
        <ele>1064.95</ele>
        <time>2018-06-17T14:02:37Z</time>
      </trkpt>
      <trkpt lat="44.51387" lon="5.483">
        <ele>1064.67</ele>
        <time>2018-06-17T14:02:38Z</time>
      </trkpt>
      <trkpt lat="44.51401" lon="5.48281">
        <ele>1064.58</ele>
        <time>2018-06-17T14:02:39Z</time>
      </trkpt>
      <trkpt lat="44.51415" lon="5.48262">
        <ele>1063.86</ele>
        <time>2018-06-17T14:02:40Z</time>
      </trkpt>
      <trkpt lat="44.51427" lon="5.4824">
        <ele>1062.94</ele>
        <time>2018-06-17T14:02:41Z</time>
      </trkpt>
      <trkpt lat="44.51436" lon="5.48216">
        <ele>1062.67</ele>
        <time>2018-06-17T14:02:42Z</time>
      </trkpt>
      <trkpt lat="44.51443" lon="5.48191">
        <ele>1061.88</ele>
        <time>2018-06-17T14:02:43Z</time>
      </trkpt>
      <trkpt lat="44.51446" lon="5.48165">
        <ele>1061.65</ele>
        <time>2018-06-17T14:02:44Z</time>
      </trkpt>
      <trkpt lat="44.51446" lon="5.48124">
        <ele>1060.86</ele>
        <time>2018-06-17T14:02:46Z</time>
      </trkpt>
      <trkpt lat="44.51442" lon="5.48098">
        <ele>1060.55</ele>
        <time>2018-06-17T14:02:50Z</time>
      </trkpt>
      <trkpt lat="44.51419" lon="5.48087">
        <ele>1057.88</ele>
        <time>2018-06-17T14:03:32Z</time>
      </trkpt>
      <trkpt lat="44.51401" lon="5.48086">
        <ele>1056.88</ele>
        <time>2018-06-17T14:03:34Z</time>
      </trkpt>
      <trkpt lat="44.51378" lon="5.48084">
        <ele>1056.58</ele>
        <time>2018-06-17T14:03:36Z</time>
      </trkpt>
      <trkpt lat="44.51355" lon="5.48083">
        <ele>1055.64</ele>
        <time>2018-06-17T14:03:38Z</time>
      </trkpt>
      <trkpt lat="44.51329" lon="5.4808">
        <ele>1054.65</ele>
        <time>2018-06-17T14:03:40Z</time>
      </trkpt>
      <trkpt lat="44.51298" lon="5.48077">
        <ele>1054.56</ele>
        <time>2018-06-17T14:03:42Z</time>
      </trkpt>
      <trkpt lat="44.51264" lon="5.48074">
        <ele>1054.55</ele>
        <time>2018-06-17T14:03:44Z</time>
      </trkpt>
      <trkpt lat="44.51228" lon="5.48071">
        <ele>1053.64</ele>
        <time>2018-06-17T14:03:46Z</time>
      </trkpt>
      <trkpt lat="44.51209" lon="5.4807">
        <ele>1053.58</ele>
        <time>2018-06-17T14:03:47Z</time>
      </trkpt>
      <trkpt lat="44.5119" lon="5.48068">
        <ele>1052.86</ele>
        <time>2018-06-17T14:03:48Z</time>
      </trkpt>
      <trkpt lat="44.51171" lon="5.48067">
        <ele>1051.94</ele>
        <time>2018-06-17T14:03:49Z</time>
      </trkpt>
      <trkpt lat="44.51151" lon="5.48065">
        <ele>1050.97</ele>
        <time>2018-06-17T14:03:50Z</time>
      </trkpt>
      <trkpt lat="44.51132" lon="5.48061">
        <ele>1049.27</ele>
        <time>2018-06-17T14:03:51Z</time>
      </trkpt>
      <trkpt lat="44.51111" lon="5.4806">
        <ele>1048.07</ele>
        <time>2018-06-17T14:03:52Z</time>
      </trkpt>
      <trkpt lat="44.51091" lon="5.48059">
        <ele>1047</ele>
        <time>2018-06-17T14:03:53Z</time>
      </trkpt>
      <trkpt lat="44.51069" lon="5.48056">
        <ele>1045.98</ele>
        <time>2018-06-17T14:03:54Z</time>
      </trkpt>
      <trkpt lat="44.51048" lon="5.48054">
        <ele>1044.98</ele>
        <time>2018-06-17T14:03:55Z</time>
      </trkpt>
      <trkpt lat="44.51027" lon="5.48052">
        <ele>1043.98</ele>
        <time>2018-06-17T14:03:56Z</time>
      </trkpt>
      <trkpt lat="44.51005" lon="5.4805">
        <ele>1042.98</ele>
        <time>2018-06-17T14:03:57Z</time>
      </trkpt>
      <trkpt lat="44.50984" lon="5.48048">
        <ele>1042.68</ele>
        <time>2018-06-17T14:03:58Z</time>
      </trkpt>
      <trkpt lat="44.50963" lon="5.48046">
        <ele>1042.59</ele>
        <time>2018-06-17T14:03:59Z</time>
      </trkpt>
      <trkpt lat="44.50943" lon="5.48043">
        <ele>1042.56</ele>
        <time>2018-06-17T14:04:00Z</time>
      </trkpt>
      <trkpt lat="44.50924" lon="5.48042">
        <ele>1042.55</ele>
        <time>2018-06-17T14:04:01Z</time>
      </trkpt>
      <trkpt lat="44.50906" lon="5.48044">
        <ele>1041.85</ele>
        <time>2018-06-17T14:04:02Z</time>
      </trkpt>
      <trkpt lat="44.50888" lon="5.4805">
        <ele>1041.64</ele>
        <time>2018-06-17T14:04:03Z</time>
      </trkpt>
      <trkpt lat="44.50856" lon="5.48071">
        <ele>1042.47</ele>
        <time>2018-06-17T14:04:05Z</time>
      </trkpt>
      <trkpt lat="44.50841" lon="5.48087">
        <ele>1042.52</ele>
        <time>2018-06-17T14:04:06Z</time>
      </trkpt>
      <trkpt lat="44.50828" lon="5.48105">
        <ele>1042.54</ele>
        <time>2018-06-17T14:04:07Z</time>
      </trkpt>
      <trkpt lat="44.50814" lon="5.48124">
        <ele>1043.25</ele>
        <time>2018-06-17T14:04:08Z</time>
      </trkpt>
      <trkpt lat="44.508" lon="5.48142">
        <ele>1043.46</ele>
        <time>2018-06-17T14:04:09Z</time>
      </trkpt>
      <trkpt lat="44.50784" lon="5.48158">
        <ele>1043.52</ele>
        <time>2018-06-17T14:04:10Z</time>
      </trkpt>
      <trkpt lat="44.50766" lon="5.48171">
        <ele>1044.24</ele>
        <time>2018-06-17T14:04:11Z</time>
      </trkpt>
      <trkpt lat="44.50749" lon="5.48184">
        <ele>1045.16</ele>
        <time>2018-06-17T14:04:12Z</time>
      </trkpt>
      <trkpt lat="44.50733" lon="5.48199">
        <ele>1045.43</ele>
        <time>2018-06-17T14:04:13Z</time>
      </trkpt>
      <trkpt lat="44.50718" lon="5.48217">
        <ele>1046.21</ele>
        <time>2018-06-17T14:04:14Z</time>
      </trkpt>
      <trkpt lat="44.50704" lon="5.48237">
        <ele>1046.45</ele>
        <time>2018-06-17T14:04:15Z</time>
      </trkpt>
      <trkpt lat="44.5069" lon="5.48257">
        <ele>1047.22</ele>
        <time>2018-06-17T14:04:16Z</time>
      </trkpt>
      <trkpt lat="44.50676" lon="5.48277">
        <ele>1047.45</ele>
        <time>2018-06-17T14:04:17Z</time>
      </trkpt>
      <trkpt lat="44.50663" lon="5.48297">
        <ele>1048.22</ele>
        <time>2018-06-17T14:04:18Z</time>
      </trkpt>
      <trkpt lat="44.50649" lon="5.48316">
        <ele>1048.45</ele>
        <time>2018-06-17T14:04:19Z</time>
      </trkpt>
      <trkpt lat="44.50636" lon="5.48334">
        <ele>1049.22</ele>
        <time>2018-06-17T14:04:20Z</time>
      </trkpt>
      <trkpt lat="44.50623" lon="5.48353">
        <ele>1049.45</ele>
        <time>2018-06-17T14:04:21Z</time>
      </trkpt>
      <trkpt lat="44.50599" lon="5.48386">
        <ele>1049.54</ele>
        <time>2018-06-17T14:04:23Z</time>
      </trkpt>
      <trkpt lat="44.50568" lon="5.48408">
        <ele>1050.25</ele>
        <time>2018-06-17T14:04:25Z</time>
      </trkpt>
      <trkpt lat="44.50539" lon="5.48431">
        <ele>1051.22</ele>
        <time>2018-06-17T14:04:27Z</time>
      </trkpt>
      <trkpt lat="44.50509" lon="5.48452">
        <ele>1052.22</ele>
        <time>2018-06-17T14:04:29Z</time>
      </trkpt>
      <trkpt lat="44.50479" lon="5.48474">
        <ele>1053.43</ele>
        <time>2018-06-17T14:04:31Z</time>
      </trkpt>
      <trkpt lat="44.50447" lon="5.48499">
        <ele>1055.15</ele>
        <time>2018-06-17T14:04:33Z</time>
      </trkpt>
      <trkpt lat="44.50431" lon="5.48512">
        <ele>1056.13</ele>
        <time>2018-06-17T14:04:34Z</time>
      </trkpt>
      <trkpt lat="44.50414" lon="5.48526">
        <ele>1056.42</ele>
        <time>2018-06-17T14:04:35Z</time>
      </trkpt>
      <trkpt lat="44.50398" lon="5.48539">
        <ele>1057.21</ele>
        <time>2018-06-17T14:04:36Z</time>
      </trkpt>
      <trkpt lat="44.50383" lon="5.48556">
        <ele>1056.75</ele>
        <time>2018-06-17T14:04:37Z</time>
      </trkpt>
      <trkpt lat="44.50354" lon="5.48583">
        <ele>1056.78</ele>
        <time>2018-06-17T14:04:39Z</time>
      </trkpt>
      <trkpt lat="44.5032" lon="5.48593">
        <ele>1058.18</ele>
        <time>2018-06-17T14:04:41Z</time>
      </trkpt>
      <trkpt lat="44.50284" lon="5.48589">
        <ele>1059.21</ele>
        <time>2018-06-17T14:04:43Z</time>
      </trkpt>
      <trkpt lat="44.50266" lon="5.48585">
        <ele>1060.15</ele>
        <time>2018-06-17T14:04:44Z</time>
      </trkpt>
      <trkpt lat="44.50232" lon="5.48577">
        <ele>1061.21</ele>
        <time>2018-06-17T14:04:46Z</time>
      </trkpt>
      <trkpt lat="44.50215" lon="5.48565">
        <ele>1061.45</ele>
        <time>2018-06-17T14:04:47Z</time>
      </trkpt>
      <trkpt lat="44.50202" lon="5.48532">
        <ele>1062.45</ele>
        <time>2018-06-17T14:04:49Z</time>
      </trkpt>
      <trkpt lat="44.50196" lon="5.48485">
        <ele>1064.15</ele>
        <time>2018-06-17T14:04:51Z</time>
      </trkpt>
      <trkpt lat="44.50193" lon="5.48459">
        <ele>1065.13</ele>
        <time>2018-06-17T14:04:52Z</time>
      </trkpt>
      <trkpt lat="44.5019" lon="5.48431">
        <ele>1066.12</ele>
        <time>2018-06-17T14:04:53Z</time>
      </trkpt>
      <trkpt lat="44.50189" lon="5.48401">
        <ele>1066.42</ele>
        <time>2018-06-17T14:04:54Z</time>
      </trkpt>
      <trkpt lat="44.50189" lon="5.48371">
        <ele>1067.21</ele>
        <time>2018-06-17T14:04:55Z</time>
      </trkpt>
      <trkpt lat="44.50189" lon="5.48341">
        <ele>1067.45</ele>
        <time>2018-06-17T14:04:56Z</time>
      </trkpt>
      <trkpt lat="44.5019" lon="5.48311">
        <ele>1068.22</ele>
        <time>2018-06-17T14:04:57Z</time>
      </trkpt>
      <trkpt lat="44.5019" lon="5.48283">
        <ele>1069.15</ele>
        <time>2018-06-17T14:04:58Z</time>
      </trkpt>
      <trkpt lat="44.50189" lon="5.48256">
        <ele>1070.13</ele>
        <time>2018-06-17T14:04:59Z</time>
      </trkpt>
      <trkpt lat="44.50184" lon="5.48229">
        <ele>1071.12</ele>
        <time>2018-06-17T14:05:00Z</time>
      </trkpt>
      <trkpt lat="44.50178" lon="5.48203">
        <ele>1071.42</ele>
        <time>2018-06-17T14:05:01Z</time>
      </trkpt>
      <trkpt lat="44.50174" lon="5.48176">
        <ele>1071.51</ele>
        <time>2018-06-17T14:05:02Z</time>
      </trkpt>
      <trkpt lat="44.50174" lon="5.4815">
        <ele>1072.24</ele>
        <time>2018-06-17T14:05:03Z</time>
      </trkpt>
      <trkpt lat="44.50167" lon="5.48105">
        <ele>1073.01</ele>
        <time>2018-06-17T14:05:05Z</time>
      </trkpt>
      <trkpt lat="44.50152" lon="5.48066">
        <ele>1073.5</ele>
        <time>2018-06-17T14:05:07Z</time>
      </trkpt>
      <trkpt lat="44.50155" lon="5.48031">
        <ele>1074.24</ele>
        <time>2018-06-17T14:05:09Z</time>
      </trkpt>
      <trkpt lat="44.50171" lon="5.47991">
        <ele>1076.13</ele>
        <time>2018-06-17T14:05:11Z</time>
      </trkpt>
      <trkpt lat="44.50177" lon="5.47967">
        <ele>1076.42</ele>
        <time>2018-06-17T14:05:12Z</time>
      </trkpt>
      <trkpt lat="44.5018" lon="5.47942">
        <ele>1076.51</ele>
        <time>2018-06-17T14:05:13Z</time>
      </trkpt>
      <trkpt lat="44.50174" lon="5.47914">
        <ele>1076.54</ele>
        <time>2018-06-17T14:05:14Z</time>
      </trkpt>
      <trkpt lat="44.50171" lon="5.47888">
        <ele>1077.24</ele>
        <time>2018-06-17T14:05:15Z</time>
      </trkpt>
      <trkpt lat="44.50175" lon="5.47849">
        <ele>1077.52</ele>
        <time>2018-06-17T14:05:17Z</time>
      </trkpt>
      <trkpt lat="44.50194" lon="5.4782">
        <ele>1076.64</ele>
        <time>2018-06-17T14:05:19Z</time>
      </trkpt>
      <trkpt lat="44.50214" lon="5.47786">
        <ele>1076.56</ele>
        <time>2018-06-17T14:05:21Z</time>
      </trkpt>
      <trkpt lat="44.50229" lon="5.47742">
        <ele>1075.64</ele>
        <time>2018-06-17T14:05:23Z</time>
      </trkpt>
      <trkpt lat="44.50244" lon="5.47702">
        <ele>1074.65</ele>
        <time>2018-06-17T14:05:25Z</time>
      </trkpt>
      <trkpt lat="44.50269" lon="5.47686">
        <ele>1073.86</ele>
        <time>2018-06-17T14:05:27Z</time>
      </trkpt>
      <trkpt lat="44.50301" lon="5.47671">
        <ele>1071.27</ele>
        <time>2018-06-17T14:05:29Z</time>
      </trkpt>
      <trkpt lat="44.5033" lon="5.47647">
        <ele>1069.7</ele>
        <time>2018-06-17T14:05:31Z</time>
      </trkpt>
      <trkpt lat="44.50352" lon="5.47626">
        <ele>1068.86</ele>
        <time>2018-06-17T14:05:33Z</time>
      </trkpt>
      <trkpt lat="44.50367" lon="5.47607">
        <ele>1068.58</ele>
        <time>2018-06-17T14:05:35Z</time>
      </trkpt>
      <trkpt lat="44.50359" lon="5.47573">
        <ele>1068.76</ele>
        <time>2018-06-17T14:05:37Z</time>
      </trkpt>
      <trkpt lat="44.50329" lon="5.47545">
        <ele>1067.17</ele>
        <time>2018-06-17T14:05:39Z</time>
      </trkpt>
      <trkpt lat="44.50314" lon="5.47532">
        <ele>1066.73</ele>
        <time>2018-06-17T14:05:40Z</time>
      </trkpt>
      <trkpt lat="44.50295" lon="5.47522">
        <ele>1065.9</ele>
        <time>2018-06-17T14:05:41Z</time>
      </trkpt>
      <trkpt lat="44.50269" lon="5.47502">
        <ele>1063.76</ele>
        <time>2018-06-17T14:05:43Z</time>
      </trkpt>
      <trkpt lat="44.50263" lon="5.47464">
        <ele>1062.87</ele>
        <time>2018-06-17T14:05:45Z</time>
      </trkpt>
      <trkpt lat="44.50261" lon="5.47418">
        <ele>1061.67</ele>
        <time>2018-06-17T14:05:47Z</time>
      </trkpt>
      <trkpt lat="44.50256" lon="5.47371">
        <ele>1059.04</ele>
        <time>2018-06-17T14:05:49Z</time>
      </trkpt>
      <trkpt lat="44.50243" lon="5.47333">
        <ele>1057.19</ele>
        <time>2018-06-17T14:05:51Z</time>
      </trkpt>
      <trkpt lat="44.50232" lon="5.47297">
        <ele>1055</ele>
        <time>2018-06-17T14:05:53Z</time>
      </trkpt>
      <trkpt lat="44.50221" lon="5.47263">
        <ele>1052.28</ele>
        <time>2018-06-17T14:05:55Z</time>
      </trkpt>
      <trkpt lat="44.50217" lon="5.47221">
        <ele>1049.3</ele>
        <time>2018-06-17T14:05:57Z</time>
      </trkpt>
      <trkpt lat="44.50221" lon="5.47173">
        <ele>1046.31</ele>
        <time>2018-06-17T14:05:59Z</time>
      </trkpt>
      <trkpt lat="44.50224" lon="5.47148">
        <ele>1045.08</ele>
        <time>2018-06-17T14:06:00Z</time>
      </trkpt>
      <trkpt lat="44.50227" lon="5.47122">
        <ele>1043.31</ele>
        <time>2018-06-17T14:06:01Z</time>
      </trkpt>
      <trkpt lat="44.50231" lon="5.47096">
        <ele>1040.68</ele>
        <time>2018-06-17T14:06:02Z</time>
      </trkpt>
      <trkpt lat="44.50235" lon="5.4707">
        <ele>1039.19</ele>
        <time>2018-06-17T14:06:03Z</time>
      </trkpt>
      <trkpt lat="44.50239" lon="5.47044">
        <ele>1038.74</ele>
        <time>2018-06-17T14:06:04Z</time>
      </trkpt>
      <trkpt lat="44.50244" lon="5.47016">
        <ele>1037.21</ele>
        <time>2018-06-17T14:06:05Z</time>
      </trkpt>
      <trkpt lat="44.5025" lon="5.46989">
        <ele>1035.35</ele>
        <time>2018-06-17T14:06:06Z</time>
      </trkpt>
      <trkpt lat="44.50258" lon="5.46961">
        <ele>1034.09</ele>
        <time>2018-06-17T14:06:07Z</time>
      </trkpt>
      <trkpt lat="44.50267" lon="5.46934">
        <ele>1032.31</ele>
        <time>2018-06-17T14:06:08Z</time>
      </trkpt>
      <trkpt lat="44.50276" lon="5.46906">
        <ele>1031.08</ele>
        <time>2018-06-17T14:06:09Z</time>
      </trkpt>
      <trkpt lat="44.50287" lon="5.46878">
        <ele>1029.31</ele>
        <time>2018-06-17T14:06:10Z</time>
      </trkpt>
      <trkpt lat="44.50296" lon="5.4685">
        <ele>1028.08</ele>
        <time>2018-06-17T14:06:11Z</time>
      </trkpt>
      <trkpt lat="44.50307" lon="5.46823">
        <ele>1027.01</ele>
        <time>2018-06-17T14:06:12Z</time>
      </trkpt>
      <trkpt lat="44.50317" lon="5.46797">
        <ele>1025.29</ele>
        <time>2018-06-17T14:06:13Z</time>
      </trkpt>
      <trkpt lat="44.50327" lon="5.46771">
        <ele>1024.77</ele>
        <time>2018-06-17T14:06:14Z</time>
      </trkpt>
      <trkpt lat="44.50336" lon="5.46745">
        <ele>1023.21</ele>
        <time>2018-06-17T14:06:15Z</time>
      </trkpt>
      <trkpt lat="44.50344" lon="5.46718">
        <ele>1022.75</ele>
        <time>2018-06-17T14:06:16Z</time>
      </trkpt>
      <trkpt lat="44.50352" lon="5.46689">
        <ele>1020.51</ele>
        <time>2018-06-17T14:06:17Z</time>
      </trkpt>
      <trkpt lat="44.50358" lon="5.46659">
        <ele>1018.44</ele>
        <time>2018-06-17T14:06:18Z</time>
      </trkpt>
      <trkpt lat="44.50364" lon="5.46626">
        <ele>1017.11</ele>
        <time>2018-06-17T14:06:19Z</time>
      </trkpt>
      <trkpt lat="44.50368" lon="5.46596">
        <ele>1015.32</ele>
        <time>2018-06-17T14:06:20Z</time>
      </trkpt>
      <trkpt lat="44.50372" lon="5.46565">
        <ele>1014.78</ele>
        <time>2018-06-17T14:06:21Z</time>
      </trkpt>
      <trkpt lat="44.50378" lon="5.46535">
        <ele>1013.92</ele>
        <time>2018-06-17T14:06:22Z</time>
      </trkpt>
      <trkpt lat="44.50382" lon="5.46507">
        <ele>1012.96</ele>
        <time>2018-06-17T14:06:23Z</time>
      </trkpt>
      <trkpt lat="44.50387" lon="5.46478">
        <ele>1012.67</ele>
        <time>2018-06-17T14:06:24Z</time>
      </trkpt>
      <trkpt lat="44.50393" lon="5.46449">
        <ele>1012.58</ele>
        <time>2018-06-17T14:06:25Z</time>
      </trkpt>
      <trkpt lat="44.50407" lon="5.46426">
        <ele>1010.46</ele>
        <time>2018-06-17T14:06:26Z</time>
      </trkpt>
      <trkpt lat="44.50416" lon="5.46399">
        <ele>1009.12</ele>
        <time>2018-06-17T14:06:27Z</time>
      </trkpt>
      <trkpt lat="44.50424" lon="5.46373">
        <ele>1008.02</ele>
        <time>2018-06-17T14:06:28Z</time>
      </trkpt>
      <trkpt lat="44.50431" lon="5.46346">
        <ele>1006.29</ele>
        <time>2018-06-17T14:06:29Z</time>
      </trkpt>
      <trkpt lat="44.50437" lon="5.463">
        <ele>1004</ele>
        <time>2018-06-17T14:06:31Z</time>
      </trkpt>
      <trkpt lat="44.5044" lon="5.46272">
        <ele>1000.37</ele>
        <time>2018-06-17T14:06:33Z</time>
      </trkpt>
      <trkpt lat="44.50458" lon="5.46262">
        <ele>994.4</ele>
        <time>2018-06-17T14:06:36Z</time>
      </trkpt>
      <trkpt lat="44.5046" lon="5.463">
        <ele>992.17</ele>
        <time>2018-06-17T14:06:39Z</time>
      </trkpt>
      <trkpt lat="44.5045" lon="5.46343">
        <ele>992.43</ele>
        <time>2018-06-17T14:06:40Z</time>
      </trkpt>
      <trkpt lat="44.50445" lon="5.4637">
        <ele>992.51</ele>
        <time>2018-06-17T14:06:41Z</time>
      </trkpt>
      <trkpt lat="44.50441" lon="5.46395">
        <ele>992.54</ele>
        <time>2018-06-17T14:06:42Z</time>
      </trkpt>
      <trkpt lat="44.50436" lon="5.46422">
        <ele>992.54</ele>
        <time>2018-06-17T14:06:43Z</time>
      </trkpt>
      <trkpt lat="44.5043" lon="5.46448">
        <ele>991.15</ele>
        <time>2018-06-17T14:06:44Z</time>
      </trkpt>
      <trkpt lat="44.50423" lon="5.46493">
        <ele>986.26</ele>
        <time>2018-06-17T14:06:46Z</time>
      </trkpt>
      <trkpt lat="44.50427" lon="5.46541">
        <ele>984.7</ele>
        <time>2018-06-17T14:06:48Z</time>
      </trkpt>
      <trkpt lat="44.50431" lon="5.46591">
        <ele>982.74</ele>
        <time>2018-06-17T14:06:50Z</time>
      </trkpt>
      <trkpt lat="44.50429" lon="5.46646">
        <ele>980.47</ele>
        <time>2018-06-17T14:06:52Z</time>
      </trkpt>
      <trkpt lat="44.50428" lon="5.46675">
        <ele>979.12</ele>
        <time>2018-06-17T14:06:53Z</time>
      </trkpt>
      <trkpt lat="44.50428" lon="5.46705">
        <ele>976.62</ele>
        <time>2018-06-17T14:06:54Z</time>
      </trkpt>
      <trkpt lat="44.50426" lon="5.46735">
        <ele>973.77</ele>
        <time>2018-06-17T14:06:55Z</time>
      </trkpt>
      <trkpt lat="44.50424" lon="5.46762">
        <ele>971.51</ele>
        <time>2018-06-17T14:06:56Z</time>
      </trkpt>
      <trkpt lat="44.50423" lon="5.46788">
        <ele>968.74</ele>
        <time>2018-06-17T14:06:57Z</time>
      </trkpt>
      <trkpt lat="44.50417" lon="5.46826">
        <ele>966.05</ele>
        <time>2018-06-17T14:06:59Z</time>
      </trkpt>
      <trkpt lat="44.50413" lon="5.46855">
        <ele>965.59</ele>
        <time>2018-06-17T14:07:01Z</time>
      </trkpt>
      <trkpt lat="44.50434" lon="5.46848">
        <ele>963.56</ele>
        <time>2018-06-17T14:07:05Z</time>
      </trkpt>
      <trkpt lat="44.50444" lon="5.46816">
        <ele>962.85</ele>
        <time>2018-06-17T14:07:06Z</time>
      </trkpt>
      <trkpt lat="44.50444" lon="5.46774">
        <ele>961.94</ele>
        <time>2018-06-17T14:07:07Z</time>
      </trkpt>
      <trkpt lat="44.50451" lon="5.46748">
        <ele>960.97</ele>
        <time>2018-06-17T14:07:08Z</time>
      </trkpt>
      <trkpt lat="44.50458" lon="5.46724">
        <ele>960.67</ele>
        <time>2018-06-17T14:07:09Z</time>
      </trkpt>
      <trkpt lat="44.50464" lon="5.46697">
        <ele>960.59</ele>
        <time>2018-06-17T14:07:10Z</time>
      </trkpt>
      <trkpt lat="44.5047" lon="5.4667">
        <ele>959.86</ele>
        <time>2018-06-17T14:07:11Z</time>
      </trkpt>
      <trkpt lat="44.50477" lon="5.46645">
        <ele>957.54</ele>
        <time>2018-06-17T14:07:12Z</time>
      </trkpt>
      <trkpt lat="44.50485" lon="5.46622">
        <ele>956.85</ele>
        <time>2018-06-17T14:07:13Z</time>
      </trkpt>
      <trkpt lat="44.50493" lon="5.46599">
        <ele>955.24</ele>
        <time>2018-06-17T14:07:14Z</time>
      </trkpt>
      <trkpt lat="44.50508" lon="5.46557">
        <ele>951.88</ele>
        <time>2018-06-17T14:07:16Z</time>
      </trkpt>
      <trkpt lat="44.50509" lon="5.46528">
        <ele>950.25</ele>
        <time>2018-06-17T14:07:17Z</time>
      </trkpt>
      <trkpt lat="44.50512" lon="5.46503">
        <ele>949.76</ele>
        <time>2018-06-17T14:07:18Z</time>
      </trkpt>
      <trkpt lat="44.50516" lon="5.46477">
        <ele>948.91</ele>
        <time>2018-06-17T14:07:19Z</time>
      </trkpt>
      <trkpt lat="44.50522" lon="5.46452">
        <ele>947.96</ele>
        <time>2018-06-17T14:07:20Z</time>
      </trkpt>
      <trkpt lat="44.5053" lon="5.46425">
        <ele>946.97</ele>
        <time>2018-06-17T14:07:21Z</time>
      </trkpt>
      <trkpt lat="44.50538" lon="5.464">
        <ele>945.27</ele>
        <time>2018-06-17T14:07:22Z</time>
      </trkpt>
      <trkpt lat="44.50548" lon="5.46371">
        <ele>944.77</ele>
        <time>2018-06-17T14:07:23Z</time>
      </trkpt>
      <trkpt lat="44.50556" lon="5.46343">
        <ele>943.21</ele>
        <time>2018-06-17T14:07:24Z</time>
      </trkpt>
      <trkpt lat="44.50563" lon="5.46316">
        <ele>941.35</ele>
        <time>2018-06-17T14:07:25Z</time>
      </trkpt>
      <trkpt lat="44.5057" lon="5.46289">
        <ele>940.09</ele>
        <time>2018-06-17T14:07:26Z</time>
      </trkpt>
      <trkpt lat="44.50577" lon="5.46261">
        <ele>937.61</ele>
        <time>2018-06-17T14:07:27Z</time>
      </trkpt>
      <trkpt lat="44.5058" lon="5.46218">
        <ele>931.81</ele>
        <time>2018-06-17T14:07:29Z</time>
      </trkpt>
      <trkpt lat="44.5058" lon="5.46177">
        <ele>929.26</ele>
        <time>2018-06-17T14:07:31Z</time>
      </trkpt>
      <trkpt lat="44.50585" lon="5.46143">
        <ele>927</ele>
        <time>2018-06-17T14:07:33Z</time>
      </trkpt>
      <trkpt lat="44.50608" lon="5.4614">
        <ele>924.98</ele>
        <time>2018-06-17T14:07:35Z</time>
      </trkpt>
      <trkpt lat="44.50629" lon="5.46129">
        <ele>922.07</ele>
        <time>2018-06-17T14:07:37Z</time>
      </trkpt>
      <trkpt lat="44.50646" lon="5.46099">
        <ele>921.59</ele>
        <time>2018-06-17T14:07:39Z</time>
      </trkpt>
      <trkpt lat="44.5065" lon="5.46073">
        <ele>919.46</ele>
        <time>2018-06-17T14:07:40Z</time>
      </trkpt>
      <trkpt lat="44.50652" lon="5.46024">
        <ele>916.11</ele>
        <time>2018-06-17T14:07:42Z</time>
      </trkpt>
      <trkpt lat="44.50651" lon="5.45974">
        <ele>915.6</ele>
        <time>2018-06-17T14:07:44Z</time>
      </trkpt>
      <trkpt lat="44.50651" lon="5.45927">
        <ele>914.64</ele>
        <time>2018-06-17T14:07:46Z</time>
      </trkpt>
      <trkpt lat="44.50658" lon="5.45876">
        <ele>914.35</ele>
        <time>2018-06-17T14:07:48Z</time>
      </trkpt>
      <trkpt lat="44.50669" lon="5.45853">
        <ele>913.79</ele>
        <time>2018-06-17T14:07:49Z</time>
      </trkpt>
      <trkpt lat="44.50677" lon="5.45827">
        <ele>912.92</ele>
        <time>2018-06-17T14:07:50Z</time>
      </trkpt>
      <trkpt lat="44.50687" lon="5.45803">
        <ele>911.96</ele>
        <time>2018-06-17T14:07:51Z</time>
      </trkpt>
      <trkpt lat="44.50691" lon="5.45775">
        <ele>910.97</ele>
        <time>2018-06-17T14:07:52Z</time>
      </trkpt>
      <trkpt lat="44.50699" lon="5.45749">
        <ele>909.28</ele>
        <time>2018-06-17T14:07:53Z</time>
      </trkpt>
      <trkpt lat="44.50707" lon="5.45727">
        <ele>905.27</ele>
        <time>2018-06-17T14:07:54Z</time>
      </trkpt>
      <trkpt lat="44.50712" lon="5.45678">
        <ele>902.79</ele>
        <time>2018-06-17T14:07:56Z</time>
      </trkpt>
      <trkpt lat="44.50714" lon="5.45652">
        <ele>901.22</ele>
        <time>2018-06-17T14:07:57Z</time>
      </trkpt>
      <trkpt lat="44.50717" lon="5.45627">
        <ele>900.05</ele>
        <time>2018-06-17T14:07:58Z</time>
      </trkpt>
      <trkpt lat="44.50726" lon="5.45602">
        <ele>899</ele>
        <time>2018-06-17T14:07:59Z</time>
      </trkpt>
      <trkpt lat="44.50737" lon="5.4558">
        <ele>897.98</ele>
        <time>2018-06-17T14:08:00Z</time>
      </trkpt>
      <trkpt lat="44.50748" lon="5.45559">
        <ele>896.98</ele>
        <time>2018-06-17T14:08:01Z</time>
      </trkpt>
      <trkpt lat="44.50763" lon="5.45527">
        <ele>894.98</ele>
        <time>2018-06-17T14:08:03Z</time>
      </trkpt>
      <trkpt lat="44.50782" lon="5.45511">
        <ele>890.79</ele>
        <time>2018-06-17T14:08:06Z</time>
      </trkpt>
      <trkpt lat="44.5078" lon="5.45543">
        <ele>889.64</ele>
        <time>2018-06-17T14:08:09Z</time>
      </trkpt>
      <trkpt lat="44.50766" lon="5.45579">
        <ele>889.35</ele>
        <time>2018-06-17T14:08:11Z</time>
      </trkpt>
      <trkpt lat="44.50759" lon="5.4563">
        <ele>887.92</ele>
        <time>2018-06-17T14:08:13Z</time>
      </trkpt>
      <trkpt lat="44.50758" lon="5.45658">
        <ele>886.96</ele>
        <time>2018-06-17T14:08:14Z</time>
      </trkpt>
      <trkpt lat="44.50758" lon="5.45687">
        <ele>885.97</ele>
        <time>2018-06-17T14:08:15Z</time>
      </trkpt>
      <trkpt lat="44.50758" lon="5.45716">
        <ele>883.58</ele>
        <time>2018-06-17T14:08:16Z</time>
      </trkpt>
      <trkpt lat="44.50759" lon="5.45745">
        <ele>882.86</ele>
        <time>2018-06-17T14:08:17Z</time>
      </trkpt>
      <trkpt lat="44.50759" lon="5.45772">
        <ele>881.24</ele>
        <time>2018-06-17T14:08:18Z</time>
      </trkpt>
      <trkpt lat="44.50759" lon="5.45801">
        <ele>879.36</ele>
        <time>2018-06-17T14:08:19Z</time>
      </trkpt>
      <trkpt lat="44.50759" lon="5.45827">
        <ele>878.09</ele>
        <time>2018-06-17T14:08:20Z</time>
      </trkpt>
      <trkpt lat="44.50756" lon="5.45874">
        <ele>877.6</ele>
        <time>2018-06-17T14:08:22Z</time>
      </trkpt>
      <trkpt lat="44.50751" lon="5.45903">
        <ele>877.55</ele>
        <time>2018-06-17T14:08:24Z</time>
      </trkpt>
      <trkpt lat="44.50774" lon="5.45888">
        <ele>872.83</ele>
        <time>2018-06-17T14:08:28Z</time>
      </trkpt>
      <trkpt lat="44.5078" lon="5.45862">
        <ele>871.23</ele>
        <time>2018-06-17T14:08:29Z</time>
      </trkpt>
      <trkpt lat="44.50781" lon="5.45837">
        <ele>870.75</ele>
        <time>2018-06-17T14:08:30Z</time>
      </trkpt>
      <trkpt lat="44.50784" lon="5.45802">
        <ele>870.61</ele>
        <time>2018-06-17T14:08:31Z</time>
      </trkpt>
      <trkpt lat="44.5079" lon="5.45753">
        <ele>867.82</ele>
        <time>2018-06-17T14:08:33Z</time>
      </trkpt>
      <trkpt lat="44.50802" lon="5.45705">
        <ele>866.45</ele>
        <time>2018-06-17T14:08:35Z</time>
      </trkpt>
      <trkpt lat="44.50812" lon="5.45682">
        <ele>866.52</ele>
        <time>2018-06-17T14:08:36Z</time>
      </trkpt>
      <trkpt lat="44.50822" lon="5.4566">
        <ele>865.84</ele>
        <time>2018-06-17T14:08:37Z</time>
      </trkpt>
      <trkpt lat="44.5083" lon="5.45637">
        <ele>864.24</ele>
        <time>2018-06-17T14:08:38Z</time>
      </trkpt>
      <trkpt lat="44.50841" lon="5.45616">
        <ele>863.05</ele>
        <time>2018-06-17T14:08:39Z</time>
      </trkpt>
      <trkpt lat="44.50854" lon="5.45598">
        <ele>862</ele>
        <time>2018-06-17T14:08:40Z</time>
      </trkpt>
      <trkpt lat="44.50866" lon="5.45579">
        <ele>860.98</ele>
        <time>2018-06-17T14:08:41Z</time>
      </trkpt>
      <trkpt lat="44.50877" lon="5.45556">
        <ele>859.98</ele>
        <time>2018-06-17T14:08:42Z</time>
      </trkpt>
      <trkpt lat="44.50885" lon="5.45532">
        <ele>859.68</ele>
        <time>2018-06-17T14:08:43Z</time>
      </trkpt>
      <trkpt lat="44.50899" lon="5.45492">
        <ele>858.86</ele>
        <time>2018-06-17T14:08:45Z</time>
      </trkpt>
      <trkpt lat="44.50904" lon="5.45452">
        <ele>856.76</ele>
        <time>2018-06-17T14:08:47Z</time>
      </trkpt>
      <trkpt lat="44.50902" lon="5.45404">
        <ele>854.05</ele>
        <time>2018-06-17T14:08:49Z</time>
      </trkpt>
      <trkpt lat="44.50894" lon="5.45359">
        <ele>852.89</ele>
        <time>2018-06-17T14:08:51Z</time>
      </trkpt>
      <trkpt lat="44.50896" lon="5.45319">
        <ele>850.97</ele>
        <time>2018-06-17T14:08:53Z</time>
      </trkpt>
      <trkpt lat="44.50911" lon="5.45291">
        <ele>848.98</ele>
        <time>2018-06-17T14:08:55Z</time>
      </trkpt>
      <trkpt lat="44.50924" lon="5.45258">
        <ele>846.98</ele>
        <time>2018-06-17T14:08:57Z</time>
      </trkpt>
      <trkpt lat="44.50927" lon="5.45223">
        <ele>845.89</ele>
        <time>2018-06-17T14:08:59Z</time>
      </trkpt>
      <trkpt lat="44.50906" lon="5.45188">
        <ele>844.39</ele>
        <time>2018-06-17T14:09:01Z</time>
      </trkpt>
      <trkpt lat="44.50888" lon="5.45158">
        <ele>841.31</ele>
        <time>2018-06-17T14:09:03Z</time>
      </trkpt>
      <trkpt lat="44.50881" lon="5.45133">
        <ele>839.22</ele>
        <time>2018-06-17T14:09:05Z</time>
      </trkpt>
      <trkpt lat="44.50899" lon="5.45108">
        <ele>834.58</ele>
        <time>2018-06-17T14:09:08Z</time>
      </trkpt>
      <trkpt lat="44.50916" lon="5.45089">
        <ele>832.73</ele>
        <time>2018-06-17T14:09:10Z</time>
      </trkpt>
      <trkpt lat="44.50922" lon="5.45049">
        <ele>830.74</ele>
        <time>2018-06-17T14:09:12Z</time>
      </trkpt>
      <trkpt lat="44.50919" lon="5.45011">
        <ele>829.87</ele>
        <time>2018-06-17T14:09:14Z</time>
      </trkpt>
      <trkpt lat="44.50925" lon="5.44976">
        <ele>827.97</ele>
        <time>2018-06-17T14:09:16Z</time>
      </trkpt>
      <trkpt lat="44.50935" lon="5.44949">
        <ele>827.59</ele>
        <time>2018-06-17T14:09:18Z</time>
      </trkpt>
      <trkpt lat="44.50933" lon="5.44923">
        <ele>826.85</ele>
        <time>2018-06-17T14:09:20Z</time>
      </trkpt>
      <trkpt lat="44.50909" lon="5.44914">
        <ele>824.06</ele>
        <time>2018-06-17T14:09:22Z</time>
      </trkpt>
      <trkpt lat="44.50887" lon="5.44909">
        <ele>821.98</ele>
        <time>2018-06-17T14:09:24Z</time>
      </trkpt>
      <trkpt lat="44.50874" lon="5.44888">
        <ele>819.98</ele>
        <time>2018-06-17T14:09:26Z</time>
      </trkpt>
      <trkpt lat="44.50875" lon="5.44845">
        <ele>818.68</ele>
        <time>2018-06-17T14:09:28Z</time>
      </trkpt>
      <trkpt lat="44.5087" lon="5.44806">
        <ele>817.86</ele>
        <time>2018-06-17T14:09:30Z</time>
      </trkpt>
      <trkpt lat="44.50849" lon="5.44781">
        <ele>813.45</ele>
        <time>2018-06-17T14:09:32Z</time>
      </trkpt>
      <trkpt lat="44.50853" lon="5.44742">
        <ele>810.11</ele>
        <time>2018-06-17T14:09:34Z</time>
      </trkpt>
      <trkpt lat="44.50852" lon="5.44699">
        <ele>809.6</ele>
        <time>2018-06-17T14:09:36Z</time>
      </trkpt>
      <trkpt lat="44.50845" lon="5.44654">
        <ele>807.03</ele>
        <time>2018-06-17T14:09:38Z</time>
      </trkpt>
      <trkpt lat="44.50844" lon="5.44607">
        <ele>804.98</ele>
        <time>2018-06-17T14:09:40Z</time>
      </trkpt>
      <trkpt lat="44.50849" lon="5.44566">
        <ele>803.68</ele>
        <time>2018-06-17T14:09:42Z</time>
      </trkpt>
      <trkpt lat="44.5084" lon="5.44526">
        <ele>803.56</ele>
        <time>2018-06-17T14:09:44Z</time>
      </trkpt>
      <trkpt lat="44.5083" lon="5.44505">
        <ele>802.15</ele>
        <time>2018-06-17T14:09:45Z</time>
      </trkpt>
      <trkpt lat="44.50814" lon="5.44465">
        <ele>798.17</ele>
        <time>2018-06-17T14:09:47Z</time>
      </trkpt>
      <trkpt lat="44.50795" lon="5.44428">
        <ele>795.99</ele>
        <time>2018-06-17T14:09:49Z</time>
      </trkpt>
      <trkpt lat="44.50769" lon="5.44395">
        <ele>795.59</ele>
        <time>2018-06-17T14:09:51Z</time>
      </trkpt>
      <trkpt lat="44.50753" lon="5.44381">
        <ele>794.86</ele>
        <time>2018-06-17T14:09:52Z</time>
      </trkpt>
      <trkpt lat="44.50736" lon="5.44366">
        <ele>794.64</ele>
        <time>2018-06-17T14:09:53Z</time>
      </trkpt>
      <trkpt lat="44.50719" lon="5.4435">
        <ele>793.18</ele>
        <time>2018-06-17T14:09:54Z</time>
      </trkpt>
      <trkpt lat="44.50704" lon="5.44334">
        <ele>792.04</ele>
        <time>2018-06-17T14:09:55Z</time>
      </trkpt>
      <trkpt lat="44.50687" lon="5.44318">
        <ele>791.69</ele>
        <time>2018-06-17T14:09:56Z</time>
      </trkpt>
      <trkpt lat="44.50657" lon="5.44293">
        <ele>789.95</ele>
        <time>2018-06-17T14:09:58Z</time>
      </trkpt>
      <trkpt lat="44.50631" lon="5.44258">
        <ele>787.27</ele>
        <time>2018-06-17T14:10:00Z</time>
      </trkpt>
      <trkpt lat="44.50618" lon="5.4424">
        <ele>785.37</ele>
        <time>2018-06-17T14:10:01Z</time>
      </trkpt>
      <trkpt lat="44.50605" lon="5.44221">
        <ele>783.39</ele>
        <time>2018-06-17T14:10:02Z</time>
      </trkpt>
      <trkpt lat="44.50587" lon="5.44185">
        <ele>781.01</ele>
        <time>2018-06-17T14:10:04Z</time>
      </trkpt>
      <trkpt lat="44.50575" lon="5.44153">
        <ele>778.77</ele>
        <time>2018-06-17T14:10:06Z</time>
      </trkpt>
      <trkpt lat="44.50554" lon="5.4414">
        <ele>777.66</ele>
        <time>2018-06-17T14:10:08Z</time>
      </trkpt>
      <trkpt lat="44.50523" lon="5.44134">
        <ele>775.95</ele>
        <time>2018-06-17T14:10:10Z</time>
      </trkpt>
      <trkpt lat="44.50488" lon="5.44129">
        <ele>773.27</ele>
        <time>2018-06-17T14:10:12Z</time>
      </trkpt>
      <trkpt lat="44.50469" lon="5.44126">
        <ele>772.77</ele>
        <time>2018-06-17T14:10:13Z</time>
      </trkpt>
      <trkpt lat="44.5045" lon="5.44123">
        <ele>771.91</ele>
        <time>2018-06-17T14:10:14Z</time>
      </trkpt>
      <trkpt lat="44.50432" lon="5.44121">
        <ele>769.56</ele>
        <time>2018-06-17T14:10:15Z</time>
      </trkpt>
      <trkpt lat="44.50414" lon="5.44116">
        <ele>768.15</ele>
        <time>2018-06-17T14:10:16Z</time>
      </trkpt>
      <trkpt lat="44.50382" lon="5.44101">
        <ele>765.08</ele>
        <time>2018-06-17T14:10:18Z</time>
      </trkpt>
      <trkpt lat="44.50353" lon="5.44081">
        <ele>763.9</ele>
        <time>2018-06-17T14:10:20Z</time>
      </trkpt>
      <trkpt lat="44.50331" lon="5.44065">
        <ele>761.97</ele>
        <time>2018-06-17T14:10:22Z</time>
      </trkpt>
      <trkpt lat="44.50314" lon="5.4405">
        <ele>759.68</ele>
        <time>2018-06-17T14:10:25Z</time>
      </trkpt>
      <trkpt lat="44.50319" lon="5.44021">
        <ele>759.47</ele>
        <time>2018-06-17T14:10:29Z</time>
      </trkpt>
      <trkpt lat="44.50334" lon="5.43997">
        <ele>759.54</ele>
        <time>2018-06-17T14:10:31Z</time>
      </trkpt>
      <trkpt lat="44.5035" lon="5.43967">
        <ele>760.25</ele>
        <time>2018-06-17T14:10:33Z</time>
      </trkpt>
      <trkpt lat="44.50369" lon="5.43935">
        <ele>762.13</ele>
        <time>2018-06-17T14:10:35Z</time>
      </trkpt>
      <trkpt lat="44.5039" lon="5.43903">
        <ele>763.42</ele>
        <time>2018-06-17T14:10:37Z</time>
      </trkpt>
      <trkpt lat="44.5041" lon="5.4387">
        <ele>764.24</ele>
        <time>2018-06-17T14:10:39Z</time>
      </trkpt>
      <trkpt lat="44.50434" lon="5.43843">
        <ele>765.43</ele>
        <time>2018-06-17T14:10:41Z</time>
      </trkpt>
      <trkpt lat="44.5046" lon="5.4383">
        <ele>765.54</ele>
        <time>2018-06-17T14:10:43Z</time>
      </trkpt>
      <trkpt lat="44.50486" lon="5.43828">
        <ele>766.46</ele>
        <time>2018-06-17T14:10:45Z</time>
      </trkpt>
      <trkpt lat="44.50513" lon="5.43826">
        <ele>766.54</ele>
        <time>2018-06-17T14:10:47Z</time>
      </trkpt>
      <trkpt lat="44.50539" lon="5.43818">
        <ele>766.55</ele>
        <time>2018-06-17T14:10:49Z</time>
      </trkpt>
      <trkpt lat="44.50562" lon="5.43817">
        <ele>767.46</ele>
        <time>2018-06-17T14:10:51Z</time>
      </trkpt>
      <trkpt lat="44.50587" lon="5.43823">
        <ele>766.63</ele>
        <time>2018-06-17T14:10:53Z</time>
      </trkpt>
      <trkpt lat="44.50613" lon="5.43831">
        <ele>766.56</ele>
        <time>2018-06-17T14:10:55Z</time>
      </trkpt>
      <trkpt lat="44.5064" lon="5.43841">
        <ele>765.64</ele>
        <time>2018-06-17T14:10:57Z</time>
      </trkpt>
      <trkpt lat="44.50669" lon="5.4385">
        <ele>765.56</ele>
        <time>2018-06-17T14:10:59Z</time>
      </trkpt>
      <trkpt lat="44.50702" lon="5.43853">
        <ele>766.46</ele>
        <time>2018-06-17T14:11:01Z</time>
      </trkpt>
      <trkpt lat="44.50734" lon="5.43848">
        <ele>767.94</ele>
        <time>2018-06-17T14:11:03Z</time>
      </trkpt>
      <trkpt lat="44.50764" lon="5.43839">
        <ele>769.19</ele>
        <time>2018-06-17T14:11:05Z</time>
      </trkpt>
      <trkpt lat="44.50795" lon="5.43821">
        <ele>771.34</ele>
        <time>2018-06-17T14:11:07Z</time>
      </trkpt>
      <trkpt lat="44.50829" lon="5.43804">
        <ele>770.83</ele>
        <time>2018-06-17T14:11:09Z</time>
      </trkpt>
      <trkpt lat="44.50848" lon="5.43798">
        <ele>770.63</ele>
        <time>2018-06-17T14:11:10Z</time>
      </trkpt>
      <trkpt lat="44.50869" lon="5.43793">
        <ele>770.57</ele>
        <time>2018-06-17T14:11:11Z</time>
      </trkpt>
      <trkpt lat="44.5089" lon="5.43789">
        <ele>770.56</ele>
        <time>2018-06-17T14:11:12Z</time>
      </trkpt>
      <trkpt lat="44.50911" lon="5.43786">
        <ele>771.25</ele>
        <time>2018-06-17T14:11:13Z</time>
      </trkpt>
      <trkpt lat="44.50932" lon="5.43784">
        <ele>771.46</ele>
        <time>2018-06-17T14:11:14Z</time>
      </trkpt>
      <trkpt lat="44.50953" lon="5.43782">
        <ele>772.22</ele>
        <time>2018-06-17T14:11:15Z</time>
      </trkpt>
      <trkpt lat="44.50973" lon="5.4378">
        <ele>773.15</ele>
        <time>2018-06-17T14:11:16Z</time>
      </trkpt>
      <trkpt lat="44.50991" lon="5.43775">
        <ele>773.43</ele>
        <time>2018-06-17T14:11:17Z</time>
      </trkpt>
      <trkpt lat="44.51024" lon="5.43755">
        <ele>773.54</ele>
        <time>2018-06-17T14:11:19Z</time>
      </trkpt>
      <trkpt lat="44.51046" lon="5.43716">
        <ele>774.46</ele>
        <time>2018-06-17T14:11:21Z</time>
      </trkpt>
      <trkpt lat="44.51056" lon="5.43693">
        <ele>775.22</ele>
        <time>2018-06-17T14:11:22Z</time>
      </trkpt>
      <trkpt lat="44.51058" lon="5.43662">
        <ele>776.15</ele>
        <time>2018-06-17T14:11:23Z</time>
      </trkpt>
      <trkpt lat="44.51064" lon="5.43632">
        <ele>776.43</ele>
        <time>2018-06-17T14:11:24Z</time>
      </trkpt>
      <trkpt lat="44.5107" lon="5.43603">
        <ele>777.21</ele>
        <time>2018-06-17T14:11:25Z</time>
      </trkpt>
      <trkpt lat="44.51078" lon="5.43574">
        <ele>778.15</ele>
        <time>2018-06-17T14:11:26Z</time>
      </trkpt>
      <trkpt lat="44.51089" lon="5.43545">
        <ele>778.43</ele>
        <time>2018-06-17T14:11:27Z</time>
      </trkpt>
      <trkpt lat="44.51101" lon="5.43516">
        <ele>779.21</ele>
        <time>2018-06-17T14:11:28Z</time>
      </trkpt>
      <trkpt lat="44.51115" lon="5.43491">
        <ele>779.45</ele>
        <time>2018-06-17T14:11:29Z</time>
      </trkpt>
      <trkpt lat="44.51131" lon="5.43469">
        <ele>780.22</ele>
        <time>2018-06-17T14:11:30Z</time>
      </trkpt>
      <trkpt lat="44.51151" lon="5.43449">
        <ele>780.45</ele>
        <time>2018-06-17T14:11:31Z</time>
      </trkpt>
      <trkpt lat="44.51171" lon="5.4343">
        <ele>780.52</ele>
        <time>2018-06-17T14:11:32Z</time>
      </trkpt>
      <trkpt lat="44.51192" lon="5.43411">
        <ele>781.24</ele>
        <time>2018-06-17T14:11:33Z</time>
      </trkpt>
      <trkpt lat="44.51213" lon="5.43392">
        <ele>782.16</ele>
        <time>2018-06-17T14:11:34Z</time>
      </trkpt>
      <trkpt lat="44.51234" lon="5.43374">
        <ele>783.13</ele>
        <time>2018-06-17T14:11:35Z</time>
      </trkpt>
      <trkpt lat="44.51258" lon="5.43361">
        <ele>782.72</ele>
        <time>2018-06-17T14:11:36Z</time>
      </trkpt>
      <trkpt lat="44.51283" lon="5.43352">
        <ele>783.3</ele>
        <time>2018-06-17T14:11:37Z</time>
      </trkpt>
      <trkpt lat="44.51308" lon="5.43346">
        <ele>784.17</ele>
        <time>2018-06-17T14:11:38Z</time>
      </trkpt>
      <trkpt lat="44.51334" lon="5.43341">
        <ele>785.14</ele>
        <time>2018-06-17T14:11:39Z</time>
      </trkpt>
      <trkpt lat="44.51358" lon="5.43335">
        <ele>785.42</ele>
        <time>2018-06-17T14:11:40Z</time>
      </trkpt>
      <trkpt lat="44.51383" lon="5.43328">
        <ele>785.51</ele>
        <time>2018-06-17T14:11:41Z</time>
      </trkpt>
      <trkpt lat="44.51406" lon="5.43318">
        <ele>786.24</ele>
        <time>2018-06-17T14:11:42Z</time>
      </trkpt>
      <trkpt lat="44.5143" lon="5.43304">
        <ele>787.15</ele>
        <time>2018-06-17T14:11:43Z</time>
      </trkpt>
      <trkpt lat="44.51453" lon="5.43289">
        <ele>787.43</ele>
        <time>2018-06-17T14:11:44Z</time>
      </trkpt>
      <trkpt lat="44.51476" lon="5.43276">
        <ele>787.51</ele>
        <time>2018-06-17T14:11:45Z</time>
      </trkpt>
      <trkpt lat="44.51499" lon="5.43262">
        <ele>787.54</ele>
        <time>2018-06-17T14:11:46Z</time>
      </trkpt>
      <trkpt lat="44.51522" lon="5.43249">
        <ele>787.54</ele>
        <time>2018-06-17T14:11:47Z</time>
      </trkpt>
      <trkpt lat="44.51543" lon="5.43235">
        <ele>787.55</ele>
        <time>2018-06-17T14:11:48Z</time>
      </trkpt>
      <trkpt lat="44.5156" lon="5.4322">
        <ele>787.55</ele>
        <time>2018-06-17T14:11:49Z</time>
      </trkpt>
      <trkpt lat="44.5159" lon="5.43201">
        <ele>786.85</ele>
        <time>2018-06-17T14:11:51Z</time>
      </trkpt>
      <trkpt lat="44.51622" lon="5.43202">
        <ele>787.28</ele>
        <time>2018-06-17T14:11:53Z</time>
      </trkpt>
      <trkpt lat="44.51641" lon="5.43213">
        <ele>788.17</ele>
        <time>2018-06-17T14:11:54Z</time>
      </trkpt>
      <trkpt lat="44.51661" lon="5.43221">
        <ele>789.13</ele>
        <time>2018-06-17T14:11:55Z</time>
      </trkpt>
      <trkpt lat="44.51682" lon="5.43229">
        <ele>789.42</ele>
        <time>2018-06-17T14:11:56Z</time>
      </trkpt>
      <trkpt lat="44.51705" lon="5.43237">
        <ele>789.51</ele>
        <time>2018-06-17T14:11:57Z</time>
      </trkpt>
      <trkpt lat="44.51727" lon="5.43243">
        <ele>790.24</ele>
        <time>2018-06-17T14:11:58Z</time>
      </trkpt>
      <trkpt lat="44.51751" lon="5.43248">
        <ele>789.75</ele>
        <time>2018-06-17T14:11:59Z</time>
      </trkpt>
      <trkpt lat="44.51775" lon="5.43252">
        <ele>789.61</ele>
        <time>2018-06-17T14:12:00Z</time>
      </trkpt>
      <trkpt lat="44.51797" lon="5.43255">
        <ele>790.27</ele>
        <time>2018-06-17T14:12:01Z</time>
      </trkpt>
      <trkpt lat="44.51819" lon="5.43262">
        <ele>791.16</ele>
        <time>2018-06-17T14:12:02Z</time>
      </trkpt>
      <trkpt lat="44.51841" lon="5.43271">
        <ele>791.43</ele>
        <time>2018-06-17T14:12:03Z</time>
      </trkpt>
      <trkpt lat="44.5186" lon="5.43278">
        <ele>792.21</ele>
        <time>2018-06-17T14:12:04Z</time>
      </trkpt>
      <trkpt lat="44.51878" lon="5.43282">
        <ele>793.15</ele>
        <time>2018-06-17T14:12:05Z</time>
      </trkpt>
      <trkpt lat="44.51913" lon="5.43278">
        <ele>794.21</ele>
        <time>2018-06-17T14:12:07Z</time>
      </trkpt>
      <trkpt lat="44.51931" lon="5.43273">
        <ele>795.15</ele>
        <time>2018-06-17T14:12:08Z</time>
      </trkpt>
      <trkpt lat="44.51952" lon="5.43251">
        <ele>794.73</ele>
        <time>2018-06-17T14:12:09Z</time>
      </trkpt>
      <trkpt lat="44.51973" lon="5.43237">
        <ele>793.9</ele>
        <time>2018-06-17T14:12:10Z</time>
      </trkpt>
      <trkpt lat="44.51995" lon="5.43222">
        <ele>794.35</ele>
        <time>2018-06-17T14:12:11Z</time>
      </trkpt>
      <trkpt lat="44.52018" lon="5.43209">
        <ele>793.79</ele>
        <time>2018-06-17T14:12:12Z</time>
      </trkpt>
      <trkpt lat="44.52041" lon="5.43197">
        <ele>794.32</ele>
        <time>2018-06-17T14:12:13Z</time>
      </trkpt>
      <trkpt lat="44.52064" lon="5.43184">
        <ele>795.18</ele>
        <time>2018-06-17T14:12:14Z</time>
      </trkpt>
      <trkpt lat="44.52087" lon="5.4317">
        <ele>796.14</ele>
        <time>2018-06-17T14:12:15Z</time>
      </trkpt>
      <trkpt lat="44.52109" lon="5.43157">
        <ele>796.42</ele>
        <time>2018-06-17T14:12:16Z</time>
      </trkpt>
      <trkpt lat="44.52133" lon="5.43145">
        <ele>796.51</ele>
        <time>2018-06-17T14:12:17Z</time>
      </trkpt>
      <trkpt lat="44.52156" lon="5.43132">
        <ele>797.24</ele>
        <time>2018-06-17T14:12:18Z</time>
      </trkpt>
      <trkpt lat="44.52179" lon="5.43118">
        <ele>798.15</ele>
        <time>2018-06-17T14:12:19Z</time>
      </trkpt>
      <trkpt lat="44.52203" lon="5.43106">
        <ele>798.43</ele>
        <time>2018-06-17T14:12:20Z</time>
      </trkpt>
      <trkpt lat="44.52227" lon="5.43093">
        <ele>799.21</ele>
        <time>2018-06-17T14:12:21Z</time>
      </trkpt>
      <trkpt lat="44.52252" lon="5.43082">
        <ele>800.15</ele>
        <time>2018-06-17T14:12:22Z</time>
      </trkpt>
      <trkpt lat="44.52276" lon="5.43071">
        <ele>800.43</ele>
        <time>2018-06-17T14:12:23Z</time>
      </trkpt>
      <trkpt lat="44.52299" lon="5.43061">
        <ele>801.21</ele>
        <time>2018-06-17T14:12:24Z</time>
      </trkpt>
      <trkpt lat="44.52323" lon="5.43053">
        <ele>802.15</ele>
        <time>2018-06-17T14:12:25Z</time>
      </trkpt>
      <trkpt lat="44.52345" lon="5.43048">
        <ele>803.83</ele>
        <time>2018-06-17T14:12:26Z</time>
      </trkpt>
      <trkpt lat="44.52368" lon="5.43047">
        <ele>804.33</ele>
        <time>2018-06-17T14:12:27Z</time>
      </trkpt>
      <trkpt lat="44.52391" lon="5.43051">
        <ele>805.18</ele>
        <time>2018-06-17T14:12:28Z</time>
      </trkpt>
      <trkpt lat="44.52414" lon="5.4306">
        <ele>806.14</ele>
        <time>2018-06-17T14:12:29Z</time>
      </trkpt>
      <trkpt lat="44.52439" lon="5.43073">
        <ele>807.13</ele>
        <time>2018-06-17T14:12:30Z</time>
      </trkpt>
      <trkpt lat="44.52463" lon="5.43087">
        <ele>807.42</ele>
        <time>2018-06-17T14:12:31Z</time>
      </trkpt>
      <trkpt lat="44.52489" lon="5.43102">
        <ele>808.21</ele>
        <time>2018-06-17T14:12:32Z</time>
      </trkpt>
      <trkpt lat="44.52516" lon="5.43115">
        <ele>808.45</ele>
        <time>2018-06-17T14:12:33Z</time>
      </trkpt>
      <trkpt lat="44.52544" lon="5.43128">
        <ele>808.52</ele>
        <time>2018-06-17T14:12:34Z</time>
      </trkpt>
      <trkpt lat="44.52571" lon="5.43139">
        <ele>809.94</ele>
        <time>2018-06-17T14:12:35Z</time>
      </trkpt>
      <trkpt lat="44.52598" lon="5.4315">
        <ele>810.37</ele>
        <time>2018-06-17T14:12:36Z</time>
      </trkpt>
      <trkpt lat="44.52625" lon="5.43159">
        <ele>811.19</ele>
        <time>2018-06-17T14:12:37Z</time>
      </trkpt>
      <trkpt lat="44.52652" lon="5.43168">
        <ele>812.14</ele>
        <time>2018-06-17T14:12:38Z</time>
      </trkpt>
      <trkpt lat="44.52679" lon="5.43177">
        <ele>813.13</ele>
        <time>2018-06-17T14:12:39Z</time>
      </trkpt>
      <trkpt lat="44.52704" lon="5.43188">
        <ele>814.82</ele>
        <time>2018-06-17T14:12:40Z</time>
      </trkpt>
      <trkpt lat="44.52727" lon="5.432">
        <ele>816.03</ele>
        <time>2018-06-17T14:12:41Z</time>
      </trkpt>
      <trkpt lat="44.5275" lon="5.43211">
        <ele>817.09</ele>
        <time>2018-06-17T14:12:42Z</time>
      </trkpt>
      <trkpt lat="44.52774" lon="5.4322">
        <ele>818.11</ele>
        <time>2018-06-17T14:12:43Z</time>
      </trkpt>
      <trkpt lat="44.528" lon="5.43224">
        <ele>819.82</ele>
        <time>2018-06-17T14:12:44Z</time>
      </trkpt>
      <trkpt lat="44.52826" lon="5.43228">
        <ele>821.03</ele>
        <time>2018-06-17T14:12:45Z</time>
      </trkpt>
      <trkpt lat="44.52852" lon="5.4323">
        <ele>822.09</ele>
        <time>2018-06-17T14:12:46Z</time>
      </trkpt>
      <trkpt lat="44.52879" lon="5.4323">
        <ele>823.11</ele>
        <time>2018-06-17T14:12:47Z</time>
      </trkpt>
      <trkpt lat="44.52906" lon="5.43227">
        <ele>824.12</ele>
        <time>2018-06-17T14:12:48Z</time>
      </trkpt>
      <trkpt lat="44.52933" lon="5.43223">
        <ele>825.12</ele>
        <time>2018-06-17T14:12:49Z</time>
      </trkpt>
      <trkpt lat="44.52961" lon="5.43219">
        <ele>825.42</ele>
        <time>2018-06-17T14:12:50Z</time>
      </trkpt>
      <trkpt lat="44.52988" lon="5.43213">
        <ele>825.51</ele>
        <time>2018-06-17T14:12:51Z</time>
      </trkpt>
      <trkpt lat="44.53016" lon="5.43207">
        <ele>825.54</ele>
        <time>2018-06-17T14:12:52Z</time>
      </trkpt>
      <trkpt lat="44.53043" lon="5.43198">
        <ele>824.14</ele>
        <time>2018-06-17T14:12:53Z</time>
      </trkpt>
      <trkpt lat="44.5307" lon="5.43191">
        <ele>825.13</ele>
        <time>2018-06-17T14:12:54Z</time>
      </trkpt>
      <trkpt lat="44.53096" lon="5.43186">
        <ele>824.72</ele>
        <time>2018-06-17T14:12:55Z</time>
      </trkpt>
      <trkpt lat="44.53123" lon="5.43183">
        <ele>824.6</ele>
        <time>2018-06-17T14:12:56Z</time>
      </trkpt>
      <trkpt lat="44.53148" lon="5.43175">
        <ele>824.56</ele>
        <time>2018-06-17T14:12:57Z</time>
      </trkpt>
      <trkpt lat="44.53174" lon="5.43164">
        <ele>825.25</ele>
        <time>2018-06-17T14:12:58Z</time>
      </trkpt>
      <trkpt lat="44.532" lon="5.43152">
        <ele>825.46</ele>
        <time>2018-06-17T14:12:59Z</time>
      </trkpt>
      <trkpt lat="44.53225" lon="5.43141">
        <ele>824.82</ele>
        <time>2018-06-17T14:13:00Z</time>
      </trkpt>
      <trkpt lat="44.53249" lon="5.43129">
        <ele>825.33</ele>
        <time>2018-06-17T14:13:01Z</time>
      </trkpt>
      <trkpt lat="44.53272" lon="5.43116">
        <ele>825.48</ele>
        <time>2018-06-17T14:13:02Z</time>
      </trkpt>
      <trkpt lat="44.53294" lon="5.431">
        <ele>826.23</ele>
        <time>2018-06-17T14:13:03Z</time>
      </trkpt>
      <trkpt lat="44.53316" lon="5.43083">
        <ele>827.15</ele>
        <time>2018-06-17T14:13:04Z</time>
      </trkpt>
      <trkpt lat="44.53335" lon="5.4306">
        <ele>828.13</ele>
        <time>2018-06-17T14:13:05Z</time>
      </trkpt>
      <trkpt lat="44.53355" lon="5.43036">
        <ele>829.12</ele>
        <time>2018-06-17T14:13:06Z</time>
      </trkpt>
      <trkpt lat="44.53374" lon="5.4301">
        <ele>830.12</ele>
        <time>2018-06-17T14:13:07Z</time>
      </trkpt>
      <trkpt lat="44.53395" lon="5.42987">
        <ele>831.12</ele>
        <time>2018-06-17T14:13:08Z</time>
      </trkpt>
      <trkpt lat="44.53416" lon="5.42964">
        <ele>832.12</ele>
        <time>2018-06-17T14:13:09Z</time>
      </trkpt>
      <trkpt lat="44.53439" lon="5.42944">
        <ele>832.42</ele>
        <time>2018-06-17T14:13:10Z</time>
      </trkpt>
      <trkpt lat="44.53461" lon="5.42925">
        <ele>832.51</ele>
        <time>2018-06-17T14:13:11Z</time>
      </trkpt>
      <trkpt lat="44.53484" lon="5.42908">
        <ele>832.54</ele>
        <time>2018-06-17T14:13:12Z</time>
      </trkpt>
      <trkpt lat="44.53509" lon="5.42895">
        <ele>833.24</ele>
        <time>2018-06-17T14:13:13Z</time>
      </trkpt>
      <trkpt lat="44.53533" lon="5.42887">
        <ele>834.16</ele>
        <time>2018-06-17T14:13:14Z</time>
      </trkpt>
      <trkpt lat="44.53557" lon="5.42882">
        <ele>834.43</ele>
        <time>2018-06-17T14:13:15Z</time>
      </trkpt>
      <trkpt lat="44.53581" lon="5.42873">
        <ele>835.21</ele>
        <time>2018-06-17T14:13:16Z</time>
      </trkpt>
      <trkpt lat="44.53604" lon="5.42863">
        <ele>835.45</ele>
        <time>2018-06-17T14:13:17Z</time>
      </trkpt>
      <trkpt lat="44.53626" lon="5.42852">
        <ele>835.52</ele>
        <time>2018-06-17T14:13:18Z</time>
      </trkpt>
      <trkpt lat="44.53648" lon="5.42842">
        <ele>834.84</ele>
        <time>2018-06-17T14:13:19Z</time>
      </trkpt>
      <trkpt lat="44.53667" lon="5.42834">
        <ele>835.34</ele>
        <time>2018-06-17T14:13:20Z</time>
      </trkpt>
      <trkpt lat="44.53685" lon="5.42826">
        <ele>836.18</ele>
        <time>2018-06-17T14:13:21Z</time>
      </trkpt>
      <trkpt lat="44.53711" lon="5.42816">
        <ele>838.13</ele>
        <time>2018-06-17T14:13:23Z</time>
      </trkpt>
      <trkpt lat="44.53729" lon="5.42806">
        <ele>839.21</ele>
        <time>2018-06-17T14:13:25Z</time>
      </trkpt>
      <trkpt lat="44.53751" lon="5.42786">
        <ele>840.51</ele>
        <time>2018-06-17T14:13:28Z</time>
      </trkpt>
      <trkpt lat="44.53773" lon="5.42786">
        <ele>842.37</ele>
        <time>2018-06-17T14:13:31Z</time>
      </trkpt>
      <trkpt lat="44.53795" lon="5.42793">
        <ele>842.75</ele>
        <time>2018-06-17T14:13:34Z</time>
      </trkpt>
      <trkpt lat="44.53809" lon="5.42764">
        <ele>843.53</ele>
        <time>2018-06-17T14:13:37Z</time>
      </trkpt>
      <trkpt lat="44.53817" lon="5.42737">
        <ele>844.25</ele>
        <time>2018-06-17T14:13:39Z</time>
      </trkpt>
      <trkpt lat="44.53826" lon="5.42704">
        <ele>845.22</ele>
        <time>2018-06-17T14:13:41Z</time>
      </trkpt>
      <trkpt lat="44.53838" lon="5.42669">
        <ele>847.13</ele>
        <time>2018-06-17T14:13:43Z</time>
      </trkpt>
      <trkpt lat="44.53858" lon="5.42638">
        <ele>848.42</ele>
        <time>2018-06-17T14:13:45Z</time>
      </trkpt>
      <trkpt lat="44.5388" lon="5.42624">
        <ele>851.06</ele>
        <time>2018-06-17T14:13:47Z</time>
      </trkpt>
      <trkpt lat="44.53913" lon="5.42616">
        <ele>852.2</ele>
        <time>2018-06-17T14:13:49Z</time>
      </trkpt>
      <trkpt lat="44.53932" lon="5.42614">
        <ele>853.14</ele>
        <time>2018-06-17T14:13:50Z</time>
      </trkpt>
      <trkpt lat="44.53953" lon="5.42614">
        <ele>854.83</ele>
        <time>2018-06-17T14:13:51Z</time>
      </trkpt>
      <trkpt lat="44.53974" lon="5.42614">
        <ele>855.33</ele>
        <time>2018-06-17T14:13:52Z</time>
      </trkpt>
      <trkpt lat="44.53995" lon="5.42612">
        <ele>856.88</ele>
        <time>2018-06-17T14:13:53Z</time>
      </trkpt>
      <trkpt lat="44.54016" lon="5.42608">
        <ele>858.05</ele>
        <time>2018-06-17T14:13:54Z</time>
      </trkpt>
      <trkpt lat="44.54036" lon="5.42604">
        <ele>859.1</ele>
        <time>2018-06-17T14:13:55Z</time>
      </trkpt>
      <trkpt lat="44.54057" lon="5.42599">
        <ele>860.11</ele>
        <time>2018-06-17T14:13:56Z</time>
      </trkpt>
      <trkpt lat="44.54078" lon="5.42592">
        <ele>862.52</ele>
        <time>2018-06-17T14:13:57Z</time>
      </trkpt>
      <trkpt lat="44.54099" lon="5.42582">
        <ele>864.64</ele>
        <time>2018-06-17T14:13:58Z</time>
      </trkpt>
      <trkpt lat="44.5412" lon="5.42569">
        <ele>865.28</ele>
        <time>2018-06-17T14:13:59Z</time>
      </trkpt>
      <trkpt lat="44.5414" lon="5.42555">
        <ele>867.57</ele>
        <time>2018-06-17T14:14:00Z</time>
      </trkpt>
      <trkpt lat="44.54161" lon="5.42539">
        <ele>868.25</ele>
        <time>2018-06-17T14:14:01Z</time>
      </trkpt>
      <trkpt lat="44.54182" lon="5.42524">
        <ele>869.86</ele>
        <time>2018-06-17T14:14:02Z</time>
      </trkpt>
      <trkpt lat="44.54203" lon="5.42509">
        <ele>870.34</ele>
        <time>2018-06-17T14:14:03Z</time>
      </trkpt>
      <trkpt lat="44.54225" lon="5.42495">
        <ele>871.19</ele>
        <time>2018-06-17T14:14:04Z</time>
      </trkpt>
      <trkpt lat="44.54248" lon="5.4248">
        <ele>872.14</ele>
        <time>2018-06-17T14:14:05Z</time>
      </trkpt>
      <trkpt lat="44.54269" lon="5.42463">
        <ele>873.13</ele>
        <time>2018-06-17T14:14:06Z</time>
      </trkpt>
      <trkpt lat="44.54289" lon="5.42443">
        <ele>873.42</ele>
        <time>2018-06-17T14:14:07Z</time>
      </trkpt>
      <trkpt lat="44.54309" lon="5.42425">
        <ele>874.21</ele>
        <time>2018-06-17T14:14:08Z</time>
      </trkpt>
      <trkpt lat="44.54327" lon="5.42406">
        <ele>875.15</ele>
        <time>2018-06-17T14:14:09Z</time>
      </trkpt>
      <trkpt lat="44.5434" lon="5.42386">
        <ele>876.13</ele>
        <time>2018-06-17T14:14:10Z</time>
      </trkpt>
      <trkpt lat="44.54343" lon="5.42351">
        <ele>877.82</ele>
        <time>2018-06-17T14:14:11Z</time>
      </trkpt>
      <trkpt lat="44.54353" lon="5.42326">
        <ele>879.03</ele>
        <time>2018-06-17T14:14:12Z</time>
      </trkpt>
      <trkpt lat="44.54365" lon="5.42303">
        <ele>880.09</ele>
        <time>2018-06-17T14:14:13Z</time>
      </trkpt>
      <trkpt lat="44.54374" lon="5.42281">
        <ele>881.11</ele>
        <time>2018-06-17T14:14:14Z</time>
      </trkpt>
      <trkpt lat="44.54377" lon="5.42252">
        <ele>882.12</ele>
        <time>2018-06-17T14:14:15Z</time>
      </trkpt>
      <trkpt lat="44.54382" lon="5.42223">
        <ele>883.12</ele>
        <time>2018-06-17T14:14:16Z</time>
      </trkpt>
      <trkpt lat="44.54389" lon="5.42195">
        <ele>884.12</ele>
        <time>2018-06-17T14:14:17Z</time>
      </trkpt>
      <trkpt lat="44.54399" lon="5.42174">
        <ele>885.12</ele>
        <time>2018-06-17T14:14:18Z</time>
      </trkpt>
      <trkpt lat="44.54417" lon="5.42137">
        <ele>887.12</ele>
        <time>2018-06-17T14:14:20Z</time>
      </trkpt>
      <trkpt lat="44.54422" lon="5.42086">
        <ele>889.12</ele>
        <time>2018-06-17T14:14:22Z</time>
      </trkpt>
      <trkpt lat="44.54421" lon="5.42059">
        <ele>890.82</ele>
        <time>2018-06-17T14:14:23Z</time>
      </trkpt>
      <trkpt lat="44.54419" lon="5.42033">
        <ele>892.03</ele>
        <time>2018-06-17T14:14:24Z</time>
      </trkpt>
      <trkpt lat="44.54426" lon="5.41986">
        <ele>894.11</ele>
        <time>2018-06-17T14:14:26Z</time>
      </trkpt>
      <trkpt lat="44.54435" lon="5.41964">
        <ele>895.12</ele>
        <time>2018-06-17T14:14:27Z</time>
      </trkpt>
      <trkpt lat="44.54445" lon="5.41942">
        <ele>896.12</ele>
        <time>2018-06-17T14:14:28Z</time>
      </trkpt>
      <trkpt lat="44.54451" lon="5.41915">
        <ele>896.42</ele>
        <time>2018-06-17T14:14:29Z</time>
      </trkpt>
      <trkpt lat="44.54454" lon="5.41887">
        <ele>897.21</ele>
        <time>2018-06-17T14:14:30Z</time>
      </trkpt>
      <trkpt lat="44.54457" lon="5.41857">
        <ele>898.85</ele>
        <time>2018-06-17T14:14:31Z</time>
      </trkpt>
      <trkpt lat="44.5446" lon="5.4183">
        <ele>899.34</ele>
        <time>2018-06-17T14:14:32Z</time>
      </trkpt>
      <trkpt lat="44.54464" lon="5.41805">
        <ele>900.18</ele>
        <time>2018-06-17T14:14:33Z</time>
      </trkpt>
      <trkpt lat="44.54477" lon="5.41771">
        <ele>903.04</ele>
        <time>2018-06-17T14:14:35Z</time>
      </trkpt>
      <trkpt lat="44.54506" lon="5.41751">
        <ele>906.93</ele>
        <time>2018-06-17T14:14:37Z</time>
      </trkpt>
      <trkpt lat="44.54527" lon="5.41742">
        <ele>908.06</ele>
        <time>2018-06-17T14:14:38Z</time>
      </trkpt>
      <trkpt lat="44.54547" lon="5.41731">
        <ele>909.1</ele>
        <time>2018-06-17T14:14:39Z</time>
      </trkpt>
      <trkpt lat="44.54568" lon="5.41717">
        <ele>910.11</ele>
        <time>2018-06-17T14:14:40Z</time>
      </trkpt>
      <trkpt lat="44.54589" lon="5.41701">
        <ele>911.12</ele>
        <time>2018-06-17T14:14:41Z</time>
      </trkpt>
      <trkpt lat="44.54612" lon="5.41685">
        <ele>912.12</ele>
        <time>2018-06-17T14:14:42Z</time>
      </trkpt>
      <trkpt lat="44.54636" lon="5.41669">
        <ele>913.82</ele>
        <time>2018-06-17T14:14:43Z</time>
      </trkpt>
      <trkpt lat="44.54659" lon="5.41653">
        <ele>915.03</ele>
        <time>2018-06-17T14:14:44Z</time>
      </trkpt>
      <trkpt lat="44.54684" lon="5.41637">
        <ele>916.09</ele>
        <time>2018-06-17T14:14:45Z</time>
      </trkpt>
      <trkpt lat="44.54708" lon="5.4162">
        <ele>917.81</ele>
        <time>2018-06-17T14:14:46Z</time>
      </trkpt>
      <trkpt lat="44.54731" lon="5.41604">
        <ele>919.03</ele>
        <time>2018-06-17T14:14:47Z</time>
      </trkpt>
      <trkpt lat="44.54751" lon="5.41588">
        <ele>920.79</ele>
        <time>2018-06-17T14:14:48Z</time>
      </trkpt>
      <trkpt lat="44.54771" lon="5.41576">
        <ele>922.02</ele>
        <time>2018-06-17T14:14:49Z</time>
      </trkpt>
      <trkpt lat="44.5479" lon="5.41569">
        <ele>922.39</ele>
        <time>2018-06-17T14:14:50Z</time>
      </trkpt>
      <trkpt lat="44.54813" lon="5.41569">
        <ele>924.6</ele>
        <time>2018-06-17T14:14:51Z</time>
      </trkpt>
      <trkpt lat="44.54836" lon="5.4157">
        <ele>925.26</ele>
        <time>2018-06-17T14:14:52Z</time>
      </trkpt>
      <trkpt lat="44.54863" lon="5.41571">
        <ele>927.56</ele>
        <time>2018-06-17T14:14:53Z</time>
      </trkpt>
      <trkpt lat="44.5489" lon="5.4157">
        <ele>928.95</ele>
        <time>2018-06-17T14:14:54Z</time>
      </trkpt>
      <trkpt lat="44.54917" lon="5.4157">
        <ele>930.07</ele>
        <time>2018-06-17T14:14:55Z</time>
      </trkpt>
      <trkpt lat="44.54943" lon="5.4157">
        <ele>931.1</ele>
        <time>2018-06-17T14:14:56Z</time>
      </trkpt>
      <trkpt lat="44.54969" lon="5.4157">
        <ele>932.81</ele>
        <time>2018-06-17T14:14:57Z</time>
      </trkpt>
      <trkpt lat="44.54995" lon="5.41569">
        <ele>934.03</ele>
        <time>2018-06-17T14:14:58Z</time>
      </trkpt>
      <trkpt lat="44.5502" lon="5.41567">
        <ele>935.79</ele>
        <time>2018-06-17T14:14:59Z</time>
      </trkpt>
      <trkpt lat="44.55042" lon="5.4156">
        <ele>937.72</ele>
        <time>2018-06-17T14:15:00Z</time>
      </trkpt>
      <trkpt lat="44.55063" lon="5.41553">
        <ele>939.7</ele>
        <time>2018-06-17T14:15:01Z</time>
      </trkpt>
      <trkpt lat="44.55082" lon="5.41545">
        <ele>940.99</ele>
        <time>2018-06-17T14:15:02Z</time>
      </trkpt>
      <trkpt lat="44.55098" lon="5.41532">
        <ele>942.08</ele>
        <time>2018-06-17T14:15:03Z</time>
      </trkpt>
      <trkpt lat="44.55112" lon="5.41515">
        <ele>942.41</ele>
        <time>2018-06-17T14:15:04Z</time>
      </trkpt>
      <trkpt lat="44.55122" lon="5.41487">
        <ele>942.51</ele>
        <time>2018-06-17T14:15:05Z</time>
      </trkpt>
      <trkpt lat="44.55125" lon="5.41455">
        <ele>945.34</ele>
        <time>2018-06-17T14:15:06Z</time>
      </trkpt>
      <trkpt lat="44.55132" lon="5.41428">
        <ele>946.88</ele>
        <time>2018-06-17T14:15:07Z</time>
      </trkpt>
      <trkpt lat="44.55151" lon="5.41385">
        <ele>949.1</ele>
        <time>2018-06-17T14:15:09Z</time>
      </trkpt>
      <trkpt lat="44.55162" lon="5.41366">
        <ele>950.11</ele>
        <time>2018-06-17T14:15:10Z</time>
      </trkpt>
      <trkpt lat="44.55192" lon="5.41336">
        <ele>948.9</ele>
        <time>2018-06-17T14:15:12Z</time>
      </trkpt>
      <trkpt lat="44.55209" lon="5.41324">
        <ele>948.65</ele>
        <time>2018-06-17T14:15:13Z</time>
      </trkpt>
      <trkpt lat="44.55229" lon="5.41313">
        <ele>947.88</ele>
        <time>2018-06-17T14:15:14Z</time>
      </trkpt>
      <trkpt lat="44.55248" lon="5.41303">
        <ele>946.95</ele>
        <time>2018-06-17T14:15:15Z</time>
      </trkpt>
      <trkpt lat="44.55269" lon="5.41291">
        <ele>946.67</ele>
        <time>2018-06-17T14:15:16Z</time>
      </trkpt>
      <trkpt lat="44.5529" lon="5.4128">
        <ele>946.58</ele>
        <time>2018-06-17T14:15:17Z</time>
      </trkpt>
      <trkpt lat="44.55311" lon="5.41268">
        <ele>945.86</ele>
        <time>2018-06-17T14:15:18Z</time>
      </trkpt>
      <trkpt lat="44.55333" lon="5.41256">
        <ele>945.64</ele>
        <time>2018-06-17T14:15:19Z</time>
      </trkpt>
      <trkpt lat="44.55355" lon="5.41244">
        <ele>945.58</ele>
        <time>2018-06-17T14:15:20Z</time>
      </trkpt>
      <trkpt lat="44.55375" lon="5.41231">
        <ele>945.56</ele>
        <time>2018-06-17T14:15:21Z</time>
      </trkpt>
      <trkpt lat="44.55395" lon="5.41223">
        <ele>945.55</ele>
        <time>2018-06-17T14:15:22Z</time>
      </trkpt>
      <trkpt lat="44.55414" lon="5.41218">
        <ele>945.55</ele>
        <time>2018-06-17T14:15:23Z</time>
      </trkpt>
      <trkpt lat="44.55449" lon="5.41223">
        <ele>945.76</ele>
        <time>2018-06-17T14:15:25Z</time>
      </trkpt>
      <trkpt lat="44.5548" lon="5.41248">
        <ele>945.78</ele>
        <time>2018-06-17T14:15:27Z</time>
      </trkpt>
      <trkpt lat="44.55511" lon="5.41263">
        <ele>944.66</ele>
        <time>2018-06-17T14:15:29Z</time>
      </trkpt>
      <trkpt lat="44.55546" lon="5.41258">
        <ele>942.95</ele>
        <time>2018-06-17T14:15:31Z</time>
      </trkpt>
      <trkpt lat="44.55577" lon="5.41236">
        <ele>940.06</ele>
        <time>2018-06-17T14:15:33Z</time>
      </trkpt>
      <trkpt lat="44.556" lon="5.41197">
        <ele>938.89</ele>
        <time>2018-06-17T14:15:35Z</time>
      </trkpt>
      <trkpt lat="44.55613" lon="5.41176">
        <ele>937.95</ele>
        <time>2018-06-17T14:15:36Z</time>
      </trkpt>
      <trkpt lat="44.55628" lon="5.41158">
        <ele>936.97</ele>
        <time>2018-06-17T14:15:37Z</time>
      </trkpt>
      <trkpt lat="44.55647" lon="5.41143">
        <ele>935.97</ele>
        <time>2018-06-17T14:15:38Z</time>
      </trkpt>
      <trkpt lat="44.55666" lon="5.41128">
        <ele>934.28</ele>
        <time>2018-06-17T14:15:39Z</time>
      </trkpt>
      <trkpt lat="44.55685" lon="5.41115">
        <ele>933.07</ele>
        <time>2018-06-17T14:15:40Z</time>
      </trkpt>
      <trkpt lat="44.55702" lon="5.41104">
        <ele>932</ele>
        <time>2018-06-17T14:15:41Z</time>
      </trkpt>
      <trkpt lat="44.55737" lon="5.41097">
        <ele>932.5</ele>
        <time>2018-06-17T14:15:43Z</time>
      </trkpt>
      <trkpt lat="44.55757" lon="5.41102">
        <ele>931.83</ele>
        <time>2018-06-17T14:15:44Z</time>
      </trkpt>
      <trkpt lat="44.55787" lon="5.41101">
        <ele>929.75</ele>
        <time>2018-06-17T14:15:46Z</time>
      </trkpt>
      <trkpt lat="44.5581" lon="5.41083">
        <ele>927.75</ele>
        <time>2018-06-17T14:15:48Z</time>
      </trkpt>
      <trkpt lat="44.55819" lon="5.41032">
        <ele>925.96</ele>
        <time>2018-06-17T14:15:50Z</time>
      </trkpt>
      <trkpt lat="44.55824" lon="5.41004">
        <ele>924.97</ele>
        <time>2018-06-17T14:15:51Z</time>
      </trkpt>
      <trkpt lat="44.55828" lon="5.40975">
        <ele>923.27</ele>
        <time>2018-06-17T14:15:52Z</time>
      </trkpt>
      <trkpt lat="44.55829" lon="5.40947">
        <ele>922.07</ele>
        <time>2018-06-17T14:15:53Z</time>
      </trkpt>
      <trkpt lat="44.55827" lon="5.4092">
        <ele>921</ele>
        <time>2018-06-17T14:15:54Z</time>
      </trkpt>
      <trkpt lat="44.55825" lon="5.40875">
        <ele>918.98</ele>
        <time>2018-06-17T14:15:56Z</time>
      </trkpt>
      <trkpt lat="44.55837" lon="5.40841">
        <ele>916.77</ele>
        <time>2018-06-17T14:15:58Z</time>
      </trkpt>
      <trkpt lat="44.55862" lon="5.40813">
        <ele>915.66</ele>
        <time>2018-06-17T14:16:00Z</time>
      </trkpt>
      <trkpt lat="44.55877" lon="5.40798">
        <ele>914.18</ele>
        <time>2018-06-17T14:16:01Z</time>
      </trkpt>
      <trkpt lat="44.55904" lon="5.40768">
        <ele>911.08</ele>
        <time>2018-06-17T14:16:03Z</time>
      </trkpt>
      <trkpt lat="44.55939" lon="5.40757">
        <ele>908.29</ele>
        <time>2018-06-17T14:16:05Z</time>
      </trkpt>
      <trkpt lat="44.55959" lon="5.40756">
        <ele>907.07</ele>
        <time>2018-06-17T14:16:06Z</time>
      </trkpt>
      <trkpt lat="44.5598" lon="5.40759">
        <ele>905.3</ele>
        <time>2018-06-17T14:16:07Z</time>
      </trkpt>
      <trkpt lat="44.56003" lon="5.40759">
        <ele>903.37</ele>
        <time>2018-06-17T14:16:08Z</time>
      </trkpt>
      <trkpt lat="44.56026" lon="5.4076">
        <ele>901.4</ele>
        <time>2018-06-17T14:16:09Z</time>
      </trkpt>
      <trkpt lat="44.56049" lon="5.4076">
        <ele>899.4</ele>
        <time>2018-06-17T14:16:10Z</time>
      </trkpt>
      <trkpt lat="44.56072" lon="5.40761">
        <ele>897.4</ele>
        <time>2018-06-17T14:16:11Z</time>
      </trkpt>
      <trkpt lat="44.56095" lon="5.40764">
        <ele>896.1</ele>
        <time>2018-06-17T14:16:12Z</time>
      </trkpt>
      <trkpt lat="44.56118" lon="5.40768">
        <ele>894.32</ele>
        <time>2018-06-17T14:16:13Z</time>
      </trkpt>
      <trkpt lat="44.56141" lon="5.40774">
        <ele>892.38</ele>
        <time>2018-06-17T14:16:14Z</time>
      </trkpt>
      <trkpt lat="44.56164" lon="5.4078">
        <ele>891.1</ele>
        <time>2018-06-17T14:16:15Z</time>
      </trkpt>
      <trkpt lat="44.56187" lon="5.40786">
        <ele>889.31</ele>
        <time>2018-06-17T14:16:16Z</time>
      </trkpt>
      <trkpt lat="44.5621" lon="5.40791">
        <ele>888.08</ele>
        <time>2018-06-17T14:16:17Z</time>
      </trkpt>
      <trkpt lat="44.56234" lon="5.40793">
        <ele>887.01</ele>
        <time>2018-06-17T14:16:18Z</time>
      </trkpt>
      <trkpt lat="44.56257" lon="5.40795">
        <ele>884.59</ele>
        <time>2018-06-17T14:16:19Z</time>
      </trkpt>
      <trkpt lat="44.56279" lon="5.40799">
        <ele>883.16</ele>
        <time>2018-06-17T14:16:20Z</time>
      </trkpt>
      <trkpt lat="44.56301" lon="5.40807">
        <ele>882.73</ele>
        <time>2018-06-17T14:16:21Z</time>
      </trkpt>
      <trkpt lat="44.56323" lon="5.40816">
        <ele>881.9</ele>
        <time>2018-06-17T14:16:22Z</time>
      </trkpt>
      <trkpt lat="44.56344" lon="5.40825">
        <ele>881.65</ele>
        <time>2018-06-17T14:16:23Z</time>
      </trkpt>
      <trkpt lat="44.56365" lon="5.40835">
        <ele>881.58</ele>
        <time>2018-06-17T14:16:24Z</time>
      </trkpt>
      <trkpt lat="44.56392" lon="5.40847">
        <ele>880.85</ele>
        <time>2018-06-17T14:16:26Z</time>
      </trkpt>
      <trkpt lat="44.56411" lon="5.40843">
        <ele>878.76</ele>
        <time>2018-06-17T14:16:28Z</time>
      </trkpt>
      <trkpt lat="44.56424" lon="5.40822">
        <ele>877.91</ele>
        <time>2018-06-17T14:16:29Z</time>
      </trkpt>
      <trkpt lat="44.56456" lon="5.40804">
        <ele>877.58</ele>
        <time>2018-06-17T14:16:31Z</time>
      </trkpt>
      <trkpt lat="44.5649" lon="5.40792">
        <ele>877.76</ele>
        <time>2018-06-17T14:16:33Z</time>
      </trkpt>
      <trkpt lat="44.5651" lon="5.40795">
        <ele>877.61</ele>
        <time>2018-06-17T14:16:34Z</time>
      </trkpt>
      <trkpt lat="44.5653" lon="5.408">
        <ele>877.57</ele>
        <time>2018-06-17T14:16:35Z</time>
      </trkpt>
      <trkpt lat="44.5655" lon="5.40806">
        <ele>876.85</ele>
        <time>2018-06-17T14:16:36Z</time>
      </trkpt>
      <trkpt lat="44.56585" lon="5.40811">
        <ele>876.37</ele>
        <time>2018-06-17T14:16:38Z</time>
      </trkpt>
      <trkpt lat="44.56604" lon="5.40805">
        <ele>876.49</ele>
        <time>2018-06-17T14:16:39Z</time>
      </trkpt>
      <trkpt lat="44.56624" lon="5.408">
        <ele>876.53</ele>
        <time>2018-06-17T14:16:40Z</time>
      </trkpt>
      <trkpt lat="44.56646" lon="5.40796">
        <ele>876.54</ele>
        <time>2018-06-17T14:16:41Z</time>
      </trkpt>
      <trkpt lat="44.5667" lon="5.40792">
        <ele>876.55</ele>
        <time>2018-06-17T14:16:42Z</time>
      </trkpt>
      <trkpt lat="44.56692" lon="5.40788">
        <ele>876.55</ele>
        <time>2018-06-17T14:16:43Z</time>
      </trkpt>
      <trkpt lat="44.56715" lon="5.40783">
        <ele>876.55</ele>
        <time>2018-06-17T14:16:44Z</time>
      </trkpt>
      <trkpt lat="44.56739" lon="5.40782">
        <ele>876.55</ele>
        <time>2018-06-17T14:16:45Z</time>
      </trkpt>
      <trkpt lat="44.56761" lon="5.4078">
        <ele>877.25</ele>
        <time>2018-06-17T14:16:46Z</time>
      </trkpt>
      <trkpt lat="44.56784" lon="5.40785">
        <ele>877.46</ele>
        <time>2018-06-17T14:16:47Z</time>
      </trkpt>
      <trkpt lat="44.56806" lon="5.40792">
        <ele>878.22</ele>
        <time>2018-06-17T14:16:48Z</time>
      </trkpt>
      <trkpt lat="44.56825" lon="5.408">
        <ele>878.45</ele>
        <time>2018-06-17T14:16:49Z</time>
      </trkpt>
      <trkpt lat="44.56858" lon="5.40814">
        <ele>879.45</ele>
        <time>2018-06-17T14:16:51Z</time>
      </trkpt>
      <trkpt lat="44.56882" lon="5.40805">
        <ele>880.24</ele>
        <time>2018-06-17T14:16:53Z</time>
      </trkpt>
      <trkpt lat="44.56904" lon="5.40777">
        <ele>881.43</ele>
        <time>2018-06-17T14:16:55Z</time>
      </trkpt>
      <trkpt lat="44.5692" lon="5.40742">
        <ele>882.45</ele>
        <time>2018-06-17T14:16:57Z</time>
      </trkpt>
      <trkpt lat="44.56938" lon="5.40717">
        <ele>882.54</ele>
        <time>2018-06-17T14:16:59Z</time>
      </trkpt>
      <trkpt lat="44.56967" lon="5.40715">
        <ele>882.76</ele>
        <time>2018-06-17T14:17:01Z</time>
      </trkpt>
      <trkpt lat="44.56995" lon="5.40722">
        <ele>882.57</ele>
        <time>2018-06-17T14:17:03Z</time>
      </trkpt>
      <trkpt lat="44.57021" lon="5.40743">
        <ele>881.85</ele>
        <time>2018-06-17T14:17:05Z</time>
      </trkpt>
      <trkpt lat="44.57049" lon="5.40754">
        <ele>881.58</ele>
        <time>2018-06-17T14:17:07Z</time>
      </trkpt>
      <trkpt lat="44.57078" lon="5.40761">
        <ele>881.76</ele>
        <time>2018-06-17T14:17:09Z</time>
      </trkpt>
      <trkpt lat="44.57099" lon="5.40745">
        <ele>879.73</ele>
        <time>2018-06-17T14:17:12Z</time>
      </trkpt>
      <trkpt lat="44.57081" lon="5.40706">
        <ele>877.74</ele>
        <time>2018-06-17T14:17:14Z</time>
      </trkpt>
      <trkpt lat="44.57061" lon="5.40667">
        <ele>879.39</ele>
        <time>2018-06-17T14:17:16Z</time>
      </trkpt>
      <trkpt lat="44.5704" lon="5.40631">
        <ele>878.62</ele>
        <time>2018-06-17T14:17:18Z</time>
      </trkpt>
      <trkpt lat="44.57025" lon="5.40588">
        <ele>878.55</ele>
        <time>2018-06-17T14:17:20Z</time>
      </trkpt>
      <trkpt lat="44.57008" lon="5.40545">
        <ele>879.25</ele>
        <time>2018-06-17T14:17:22Z</time>
      </trkpt>
      <trkpt lat="44.56985" lon="5.40509">
        <ele>878.61</ele>
        <time>2018-06-17T14:17:24Z</time>
      </trkpt>
      <trkpt lat="44.56961" lon="5.4048">
        <ele>878.76</ele>
        <time>2018-06-17T14:17:26Z</time>
      </trkpt>
      <trkpt lat="44.56941" lon="5.40465">
        <ele>878.57</ele>
        <time>2018-06-17T14:17:28Z</time>
      </trkpt>
      <trkpt lat="44.5692" lon="5.40459">
        <ele>879.95</ele>
        <time>2018-06-17T14:17:30Z</time>
      </trkpt>
      <trkpt lat="44.56902" lon="5.40457">
        <ele>882.14</ele>
        <time>2018-06-17T14:17:33Z</time>
      </trkpt>
      <trkpt lat="44.56904" lon="5.40426">
        <ele>883.94</ele>
        <time>2018-06-17T14:17:38Z</time>
      </trkpt>
      <trkpt lat="44.56925" lon="5.40404">
        <ele>883.83</ele>
        <time>2018-06-17T14:17:41Z</time>
      </trkpt>
      <trkpt lat="44.56945" lon="5.40394">
        <ele>885.18</ele>
        <time>2018-06-17T14:17:43Z</time>
      </trkpt>
      <trkpt lat="44.56971" lon="5.40389">
        <ele>885.31</ele>
        <time>2018-06-17T14:17:45Z</time>
      </trkpt>
      <trkpt lat="44.56998" lon="5.40379">
        <ele>885.53</ele>
        <time>2018-06-17T14:17:47Z</time>
      </trkpt>
      <trkpt lat="44.57023" lon="5.40386">
        <ele>888.07</ele>
        <time>2018-06-17T14:17:49Z</time>
      </trkpt>
      <trkpt lat="44.57046" lon="5.40407">
        <ele>890.11</ele>
        <time>2018-06-17T14:17:51Z</time>
      </trkpt>
      <trkpt lat="44.57068" lon="5.40429">
        <ele>891.42</ele>
        <time>2018-06-17T14:17:53Z</time>
      </trkpt>
      <trkpt lat="44.5709" lon="5.40441">
        <ele>892.24</ele>
        <time>2018-06-17T14:17:55Z</time>
      </trkpt>
      <trkpt lat="44.57113" lon="5.40442">
        <ele>894.13</ele>
        <time>2018-06-17T14:17:57Z</time>
      </trkpt>
      <trkpt lat="44.57137" lon="5.40435">
        <ele>894.3</ele>
        <time>2018-06-17T14:17:59Z</time>
      </trkpt>
      <trkpt lat="44.57161" lon="5.40424">
        <ele>894.53</ele>
        <time>2018-06-17T14:18:01Z</time>
      </trkpt>
      <trkpt lat="44.57184" lon="5.40413">
        <ele>895.46</ele>
        <time>2018-06-17T14:18:03Z</time>
      </trkpt>
      <trkpt lat="44.57202" lon="5.40399">
        <ele>897.36</ele>
        <time>2018-06-17T14:18:05Z</time>
      </trkpt>
      <trkpt lat="44.57218" lon="5.40376">
        <ele>899.14</ele>
        <time>2018-06-17T14:18:07Z</time>
      </trkpt>
      <trkpt lat="44.57241" lon="5.4034">
        <ele>898.6</ele>
        <time>2018-06-17T14:18:09Z</time>
      </trkpt>
      <trkpt lat="44.57254" lon="5.40319">
        <ele>898.56</ele>
        <time>2018-06-17T14:18:10Z</time>
      </trkpt>
      <trkpt lat="44.57266" lon="5.40298">
        <ele>898.55</ele>
        <time>2018-06-17T14:18:11Z</time>
      </trkpt>
      <trkpt lat="44.57279" lon="5.40275">
        <ele>897.85</ele>
        <time>2018-06-17T14:18:12Z</time>
      </trkpt>
      <trkpt lat="44.57292" lon="5.40253">
        <ele>896.94</ele>
        <time>2018-06-17T14:18:13Z</time>
      </trkpt>
      <trkpt lat="44.57306" lon="5.40231">
        <ele>897.37</ele>
        <time>2018-06-17T14:18:14Z</time>
      </trkpt>
      <trkpt lat="44.57321" lon="5.4021">
        <ele>896.79</ele>
        <time>2018-06-17T14:18:15Z</time>
      </trkpt>
      <trkpt lat="44.57337" lon="5.4019">
        <ele>895.92</ele>
        <time>2018-06-17T14:18:16Z</time>
      </trkpt>
      <trkpt lat="44.57354" lon="5.40173">
        <ele>896.36</ele>
        <time>2018-06-17T14:18:17Z</time>
      </trkpt>
      <trkpt lat="44.57371" lon="5.40159">
        <ele>896.49</ele>
        <time>2018-06-17T14:18:18Z</time>
      </trkpt>
      <trkpt lat="44.57389" lon="5.40148">
        <ele>895.83</ele>
        <time>2018-06-17T14:18:19Z</time>
      </trkpt>
      <trkpt lat="44.57409" lon="5.4014">
        <ele>895.63</ele>
        <time>2018-06-17T14:18:20Z</time>
      </trkpt>
      <trkpt lat="44.57431" lon="5.40136">
        <ele>895.57</ele>
        <time>2018-06-17T14:18:21Z</time>
      </trkpt>
      <trkpt lat="44.57454" lon="5.40132">
        <ele>894.86</ele>
        <time>2018-06-17T14:18:22Z</time>
      </trkpt>
      <trkpt lat="44.57478" lon="5.40128">
        <ele>894.64</ele>
        <time>2018-06-17T14:18:23Z</time>
      </trkpt>
      <trkpt lat="44.57502" lon="5.40123">
        <ele>893.88</ele>
        <time>2018-06-17T14:18:24Z</time>
      </trkpt>
      <trkpt lat="44.57523" lon="5.40116">
        <ele>894.35</ele>
        <time>2018-06-17T14:18:25Z</time>
      </trkpt>
      <trkpt lat="44.57544" lon="5.40109">
        <ele>895.19</ele>
        <time>2018-06-17T14:18:26Z</time>
      </trkpt>
      <trkpt lat="44.57563" lon="5.401">
        <ele>895.44</ele>
        <time>2018-06-17T14:18:27Z</time>
      </trkpt>
      <trkpt lat="44.57582" lon="5.40089">
        <ele>895.52</ele>
        <time>2018-06-17T14:18:28Z</time>
      </trkpt>
      <trkpt lat="44.57603" lon="5.40081">
        <ele>894.84</ele>
        <time>2018-06-17T14:18:29Z</time>
      </trkpt>
      <trkpt lat="44.57623" lon="5.40077">
        <ele>894.64</ele>
        <time>2018-06-17T14:18:30Z</time>
      </trkpt>
      <trkpt lat="44.57644" lon="5.40074">
        <ele>894.57</ele>
        <time>2018-06-17T14:18:31Z</time>
      </trkpt>
      <trkpt lat="44.57662" lon="5.40071">
        <ele>894.56</ele>
        <time>2018-06-17T14:18:32Z</time>
      </trkpt>
      <trkpt lat="44.57692" lon="5.40053">
        <ele>893.64</ele>
        <time>2018-06-17T14:18:34Z</time>
      </trkpt>
      <trkpt lat="44.57714" lon="5.40018">
        <ele>893.56</ele>
        <time>2018-06-17T14:18:36Z</time>
      </trkpt>
      <trkpt lat="44.57733" lon="5.39975">
        <ele>891.94</ele>
        <time>2018-06-17T14:18:38Z</time>
      </trkpt>
      <trkpt lat="44.57746" lon="5.39955">
        <ele>890.27</ele>
        <time>2018-06-17T14:18:39Z</time>
      </trkpt>
      <trkpt lat="44.57763" lon="5.39936">
        <ele>889.06</ele>
        <time>2018-06-17T14:18:40Z</time>
      </trkpt>
      <trkpt lat="44.5778" lon="5.39917">
        <ele>888</ele>
        <time>2018-06-17T14:18:41Z</time>
      </trkpt>
      <trkpt lat="44.57798" lon="5.39898">
        <ele>886.98</ele>
        <time>2018-06-17T14:18:42Z</time>
      </trkpt>
      <trkpt lat="44.57816" lon="5.39881">
        <ele>885.28</ele>
        <time>2018-06-17T14:18:43Z</time>
      </trkpt>
      <trkpt lat="44.57834" lon="5.39867">
        <ele>884.07</ele>
        <time>2018-06-17T14:18:44Z</time>
      </trkpt>
      <trkpt lat="44.57864" lon="5.39846">
        <ele>881.28</ele>
        <time>2018-06-17T14:18:46Z</time>
      </trkpt>
      <trkpt lat="44.57895" lon="5.3985">
        <ele>879</ele>
        <time>2018-06-17T14:18:48Z</time>
      </trkpt>
      <trkpt lat="44.57923" lon="5.39878">
        <ele>877.89</ele>
        <time>2018-06-17T14:18:50Z</time>
      </trkpt>
      <trkpt lat="44.57936" lon="5.39897">
        <ele>876.25</ele>
        <time>2018-06-17T14:18:51Z</time>
      </trkpt>
      <trkpt lat="44.57957" lon="5.39924">
        <ele>873.3</ele>
        <time>2018-06-17T14:18:53Z</time>
      </trkpt>
      <trkpt lat="44.57977" lon="5.3993">
        <ele>871.92</ele>
        <time>2018-06-17T14:18:55Z</time>
      </trkpt>
      <trkpt lat="44.57994" lon="5.39902">
        <ele>870.65</ele>
        <time>2018-06-17T14:18:58Z</time>
      </trkpt>
      <trkpt lat="44.57987" lon="5.39857">
        <ele>869.86</ele>
        <time>2018-06-17T14:19:00Z</time>
      </trkpt>
      <trkpt lat="44.57989" lon="5.39817">
        <ele>866.36</ele>
        <time>2018-06-17T14:19:02Z</time>
      </trkpt>
      <trkpt lat="44.5801" lon="5.39792">
        <ele>864.01</ele>
        <time>2018-06-17T14:19:04Z</time>
      </trkpt>
      <trkpt lat="44.58031" lon="5.39792">
        <ele>861.28</ele>
        <time>2018-06-17T14:19:06Z</time>
      </trkpt>
      <trkpt lat="44.58051" lon="5.39806">
        <ele>859.91</ele>
        <time>2018-06-17T14:19:08Z</time>
      </trkpt>
      <trkpt lat="44.58054" lon="5.39861">
        <ele>858.88</ele>
        <time>2018-06-17T14:19:10Z</time>
      </trkpt>
      <trkpt lat="44.58057" lon="5.39887">
        <ele>857.95</ele>
        <time>2018-06-17T14:19:11Z</time>
      </trkpt>
      <trkpt lat="44.5806" lon="5.39915">
        <ele>856.97</ele>
        <time>2018-06-17T14:19:12Z</time>
      </trkpt>
      <trkpt lat="44.58061" lon="5.39942">
        <ele>855.97</ele>
        <time>2018-06-17T14:19:13Z</time>
      </trkpt>
      <trkpt lat="44.58063" lon="5.39968">
        <ele>856.38</ele>
        <time>2018-06-17T14:19:14Z</time>
      </trkpt>
      <trkpt lat="44.58067" lon="5.4">
        <ele>853.1</ele>
        <time>2018-06-17T14:19:16Z</time>
      </trkpt>
      <trkpt lat="44.5809" lon="5.40025">
        <ele>849.17</ele>
        <time>2018-06-17T14:19:18Z</time>
      </trkpt>
      <trkpt lat="44.58104" lon="5.40041">
        <ele>848.03</ele>
        <time>2018-06-17T14:19:19Z</time>
      </trkpt>
      <trkpt lat="44.58126" lon="5.40062">
        <ele>846.29</ele>
        <time>2018-06-17T14:19:20Z</time>
      </trkpt>
      <trkpt lat="44.58144" lon="5.40081">
        <ele>843.67</ele>
        <time>2018-06-17T14:19:21Z</time>
      </trkpt>
      <trkpt lat="44.5816" lon="5.401">
        <ele>841.49</ele>
        <time>2018-06-17T14:19:22Z</time>
      </trkpt>
      <trkpt lat="44.58176" lon="5.40119">
        <ele>840.83</ele>
        <time>2018-06-17T14:19:23Z</time>
      </trkpt>
      <trkpt lat="44.58195" lon="5.40146">
        <ele>839.87</ele>
        <time>2018-06-17T14:19:25Z</time>
      </trkpt>
      <trkpt lat="44.58216" lon="5.40157">
        <ele>839.58</ele>
        <time>2018-06-17T14:19:27Z</time>
      </trkpt>
      <trkpt lat="44.58222" lon="5.40131">
        <ele>837.94</ele>
        <time>2018-06-17T14:19:30Z</time>
      </trkpt>
      <trkpt lat="44.58196" lon="5.40092">
        <ele>837.79</ele>
        <time>2018-06-17T14:19:32Z</time>
      </trkpt>
      <trkpt lat="44.58186" lon="5.40063">
        <ele>835.05</ele>
        <time>2018-06-17T14:19:34Z</time>
      </trkpt>
      <trkpt lat="44.58207" lon="5.40077">
        <ele>833.01</ele>
        <time>2018-06-17T14:19:38Z</time>
      </trkpt>
      <trkpt lat="44.58219" lon="5.40102">
        <ele>830.07</ele>
        <time>2018-06-17T14:19:40Z</time>
      </trkpt>
      <trkpt lat="44.5824" lon="5.40142">
        <ele>828.19</ele>
        <time>2018-06-17T14:19:42Z</time>
      </trkpt>
      <trkpt lat="44.58252" lon="5.40161">
        <ele>826.34</ele>
        <time>2018-06-17T14:19:43Z</time>
      </trkpt>
      <trkpt lat="44.58266" lon="5.40182">
        <ele>825.09</ele>
        <time>2018-06-17T14:19:44Z</time>
      </trkpt>
      <trkpt lat="44.58283" lon="5.40202">
        <ele>822.61</ele>
        <time>2018-06-17T14:19:45Z</time>
      </trkpt>
      <trkpt lat="44.58298" lon="5.40223">
        <ele>820.47</ele>
        <time>2018-06-17T14:19:46Z</time>
      </trkpt>
      <trkpt lat="44.58313" lon="5.40245">
        <ele>817.72</ele>
        <time>2018-06-17T14:19:47Z</time>
      </trkpt>
      <trkpt lat="44.58329" lon="5.40268">
        <ele>815.5</ele>
        <time>2018-06-17T14:19:48Z</time>
      </trkpt>
      <trkpt lat="44.58344" lon="5.40292">
        <ele>814.13</ele>
        <time>2018-06-17T14:19:49Z</time>
      </trkpt>
      <trkpt lat="44.58358" lon="5.40316">
        <ele>812.32</ele>
        <time>2018-06-17T14:19:50Z</time>
      </trkpt>
      <trkpt lat="44.58371" lon="5.40338">
        <ele>810.38</ele>
        <time>2018-06-17T14:19:51Z</time>
      </trkpt>
      <trkpt lat="44.58381" lon="5.40361">
        <ele>808.4</ele>
        <time>2018-06-17T14:19:52Z</time>
      </trkpt>
      <trkpt lat="44.58388" lon="5.40385">
        <ele>807.8</ele>
        <time>2018-06-17T14:19:53Z</time>
      </trkpt>
      <trkpt lat="44.58395" lon="5.40428">
        <ele>806.66</ele>
        <time>2018-06-17T14:19:55Z</time>
      </trkpt>
      <trkpt lat="44.584" lon="5.40455">
        <ele>804.95</ele>
        <time>2018-06-17T14:19:57Z</time>
      </trkpt>
      <trkpt lat="44.58393" lon="5.4048">
        <ele>802.97</ele>
        <time>2018-06-17T14:19:59Z</time>
      </trkpt>
      <trkpt lat="44.58378" lon="5.40501">
        <ele>801.89</ele>
        <time>2018-06-17T14:20:01Z</time>
      </trkpt>
      <trkpt lat="44.58378" lon="5.40529">
        <ele>799.67</ele>
        <time>2018-06-17T14:20:04Z</time>
      </trkpt>
      <trkpt lat="44.58396" lon="5.40514">
        <ele>798.91</ele>
        <time>2018-06-17T14:20:07Z</time>
      </trkpt>
      <trkpt lat="44.5841" lon="5.40491">
        <ele>797.88</ele>
        <time>2018-06-17T14:20:09Z</time>
      </trkpt>
      <trkpt lat="44.58427" lon="5.40463">
        <ele>794.36</ele>
        <time>2018-06-17T14:20:11Z</time>
      </trkpt>
      <trkpt lat="44.5845" lon="5.40439">
        <ele>791.1</ele>
        <time>2018-06-17T14:20:13Z</time>
      </trkpt>
      <trkpt lat="44.58471" lon="5.40436">
        <ele>788.99</ele>
        <time>2018-06-17T14:20:15Z</time>
      </trkpt>
      <trkpt lat="44.58488" lon="5.40446">
        <ele>787.89</ele>
        <time>2018-06-17T14:20:17Z</time>
      </trkpt>
      <trkpt lat="44.5849" lon="5.40476">
        <ele>788.28</ele>
        <time>2018-06-17T14:20:19Z</time>
      </trkpt>
      <trkpt lat="44.58459" lon="5.40509">
        <ele>787.12</ele>
        <time>2018-06-17T14:20:21Z</time>
      </trkpt>
      <trkpt lat="44.58448" lon="5.40536">
        <ele>785.69</ele>
        <time>2018-06-17T14:20:23Z</time>
      </trkpt>
      <trkpt lat="44.58467" lon="5.40546">
        <ele>782.84</ele>
        <time>2018-06-17T14:20:26Z</time>
      </trkpt>
      <trkpt lat="44.58486" lon="5.4053">
        <ele>780.96</ele>
        <time>2018-06-17T14:20:28Z</time>
      </trkpt>
      <trkpt lat="44.58506" lon="5.40526">
        <ele>778.07</ele>
        <time>2018-06-17T14:20:30Z</time>
      </trkpt>
      <trkpt lat="44.58513" lon="5.40568">
        <ele>776.86</ele>
        <time>2018-06-17T14:20:33Z</time>
      </trkpt>
      <trkpt lat="44.58502" lon="5.40611">
        <ele>773.36</ele>
        <time>2018-06-17T14:20:35Z</time>
      </trkpt>
      <trkpt lat="44.58497" lon="5.40647">
        <ele>771.01</ele>
        <time>2018-06-17T14:20:37Z</time>
      </trkpt>
      <trkpt lat="44.58503" lon="5.40675">
        <ele>770.35</ele>
        <time>2018-06-17T14:20:40Z</time>
      </trkpt>
      <trkpt lat="44.58519" lon="5.40665">
        <ele>770.53</ele>
        <time>2018-06-17T14:20:42Z</time>
      </trkpt>
      <trkpt lat="44.58525" lon="5.40625">
        <ele>769.14</ele>
        <time>2018-06-17T14:20:43Z</time>
      </trkpt>
      <trkpt lat="44.58538" lon="5.40597">
        <ele>766.08</ele>
        <time>2018-06-17T14:20:45Z</time>
      </trkpt>
      <trkpt lat="44.58557" lon="5.40605">
        <ele>764.65</ele>
        <time>2018-06-17T14:20:48Z</time>
      </trkpt>
      <trkpt lat="44.58547" lon="5.4063">
        <ele>765.28</ele>
        <time>2018-06-17T14:20:49Z</time>
      </trkpt>
      <trkpt lat="44.58534" lon="5.40671">
        <ele>763.21</ele>
        <time>2018-06-17T14:20:51Z</time>
      </trkpt>
      <trkpt lat="44.58525" lon="5.40707">
        <ele>761</ele>
        <time>2018-06-17T14:20:53Z</time>
      </trkpt>
      <trkpt lat="44.58523" lon="5.40737">
        <ele>758.77</ele>
        <time>2018-06-17T14:20:55Z</time>
      </trkpt>
      <trkpt lat="44.58543" lon="5.4075">
        <ele>756.96</ele>
        <time>2018-06-17T14:20:57Z</time>
      </trkpt>
      <trkpt lat="44.58571" lon="5.40754">
        <ele>756.09</ele>
        <time>2018-06-17T14:20:59Z</time>
      </trkpt>
      <trkpt lat="44.58592" lon="5.4078">
        <ele>757.21</ele>
        <time>2018-06-17T14:21:01Z</time>
      </trkpt>
      <trkpt lat="44.58604" lon="5.40801">
        <ele>756.75</ele>
        <time>2018-06-17T14:21:02Z</time>
      </trkpt>
      <trkpt lat="44.58615" lon="5.4082">
        <ele>757.31</ele>
        <time>2018-06-17T14:21:03Z</time>
      </trkpt>
      <trkpt lat="44.58627" lon="5.40841">
        <ele>756.78</ele>
        <time>2018-06-17T14:21:04Z</time>
      </trkpt>
      <trkpt lat="44.58639" lon="5.40864">
        <ele>755.22</ele>
        <time>2018-06-17T14:21:05Z</time>
      </trkpt>
      <trkpt lat="44.5865" lon="5.40887">
        <ele>753.35</ele>
        <time>2018-06-17T14:21:06Z</time>
      </trkpt>
      <trkpt lat="44.58662" lon="5.4091">
        <ele>752.09</ele>
        <time>2018-06-17T14:21:07Z</time>
      </trkpt>
      <trkpt lat="44.58673" lon="5.40931">
        <ele>750.31</ele>
        <time>2018-06-17T14:21:08Z</time>
      </trkpt>
      <trkpt lat="44.58695" lon="5.40965">
        <ele>746.61</ele>
        <time>2018-06-17T14:21:10Z</time>
      </trkpt>
      <trkpt lat="44.58708" lon="5.40987">
        <ele>745.64</ele>
        <time>2018-06-17T14:21:12Z</time>
      </trkpt>
      <trkpt lat="44.58687" lon="5.40983">
        <ele>741.95</ele>
        <time>2018-06-17T14:21:17Z</time>
      </trkpt>
      <trkpt lat="44.58666" lon="5.40971">
        <ele>741.58</ele>
        <time>2018-06-17T14:21:19Z</time>
      </trkpt>
      <trkpt lat="44.58678" lon="5.41007">
        <ele>740.64</ele>
        <time>2018-06-17T14:21:23Z</time>
      </trkpt>
      <trkpt lat="44.58705" lon="5.41037">
        <ele>737.13</ele>
        <time>2018-06-17T14:21:25Z</time>
      </trkpt>
      <trkpt lat="44.5872" lon="5.41053">
        <ele>735.32</ele>
        <time>2018-06-17T14:21:26Z</time>
      </trkpt>
      <trkpt lat="44.58736" lon="5.4107">
        <ele>734.08</ele>
        <time>2018-06-17T14:21:27Z</time>
      </trkpt>
      <trkpt lat="44.58752" lon="5.41087">
        <ele>733.71</ele>
        <time>2018-06-17T14:21:28Z</time>
      </trkpt>
      <trkpt lat="44.58769" lon="5.41103">
        <ele>732.9</ele>
        <time>2018-06-17T14:21:29Z</time>
      </trkpt>
      <trkpt lat="44.58786" lon="5.4112">
        <ele>731.95</ele>
        <time>2018-06-17T14:21:30Z</time>
      </trkpt>
      <trkpt lat="44.58803" lon="5.41135">
        <ele>730.27</ele>
        <time>2018-06-17T14:21:31Z</time>
      </trkpt>
      <trkpt lat="44.58819" lon="5.41154">
        <ele>727.66</ele>
        <time>2018-06-17T14:21:32Z</time>
      </trkpt>
      <trkpt lat="44.58833" lon="5.41176">
        <ele>725.48</ele>
        <time>2018-06-17T14:21:33Z</time>
      </trkpt>
      <trkpt lat="44.58846" lon="5.41198">
        <ele>724.13</ele>
        <time>2018-06-17T14:21:34Z</time>
      </trkpt>
      <trkpt lat="44.58869" lon="5.41228">
        <ele>721.99</ele>
        <time>2018-06-17T14:21:36Z</time>
      </trkpt>
      <trkpt lat="44.58885" lon="5.41247">
        <ele>720.68</ele>
        <time>2018-06-17T14:21:38Z</time>
      </trkpt>
      <trkpt lat="44.58859" lon="5.41242">
        <ele>715.57</ele>
        <time>2018-06-17T14:21:43Z</time>
      </trkpt>
      <trkpt lat="44.58834" lon="5.41239">
        <ele>713.24</ele>
        <time>2018-06-17T14:21:45Z</time>
      </trkpt>
      <trkpt lat="44.58806" lon="5.41254">
        <ele>711.91</ele>
        <time>2018-06-17T14:21:47Z</time>
      </trkpt>
      <trkpt lat="44.5878" lon="5.41262">
        <ele>709.97</ele>
        <time>2018-06-17T14:21:49Z</time>
      </trkpt>
      <trkpt lat="44.58763" lon="5.41282">
        <ele>707.95</ele>
        <time>2018-06-17T14:21:52Z</time>
      </trkpt>
      <trkpt lat="44.58774" lon="5.41312">
        <ele>706.71</ele>
        <time>2018-06-17T14:21:55Z</time>
      </trkpt>
      <trkpt lat="44.58793" lon="5.4133">
        <ele>705.2</ele>
        <time>2018-06-17T14:21:56Z</time>
      </trkpt>
      <trkpt lat="44.58811" lon="5.41343">
        <ele>704.74</ele>
        <time>2018-06-17T14:21:57Z</time>
      </trkpt>
      <trkpt lat="44.58853" lon="5.41376">
        <ele>700.86</ele>
        <time>2018-06-17T14:21:59Z</time>
      </trkpt>
      <trkpt lat="44.58871" lon="5.41391">
        <ele>699.24</ele>
        <time>2018-06-17T14:22:00Z</time>
      </trkpt>
      <trkpt lat="44.58894" lon="5.41403">
        <ele>698.06</ele>
        <time>2018-06-17T14:22:01Z</time>
      </trkpt>
      <trkpt lat="44.58918" lon="5.41411">
        <ele>695.6</ele>
        <time>2018-06-17T14:22:02Z</time>
      </trkpt>
      <trkpt lat="44.58941" lon="5.41417">
        <ele>694.16</ele>
        <time>2018-06-17T14:22:03Z</time>
      </trkpt>
      <trkpt lat="44.58964" lon="5.41426">
        <ele>693.03</ele>
        <time>2018-06-17T14:22:04Z</time>
      </trkpt>
      <trkpt lat="44.58986" lon="5.41437">
        <ele>691.99</ele>
        <time>2018-06-17T14:22:05Z</time>
      </trkpt>
      <trkpt lat="44.59008" lon="5.41452">
        <ele>690.98</ele>
        <time>2018-06-17T14:22:06Z</time>
      </trkpt>
      <trkpt lat="44.59029" lon="5.41468">
        <ele>689.28</ele>
        <time>2018-06-17T14:22:07Z</time>
      </trkpt>
      <trkpt lat="44.59049" lon="5.41482">
        <ele>687.37</ele>
        <time>2018-06-17T14:22:08Z</time>
      </trkpt>
      <trkpt lat="44.59067" lon="5.41495">
        <ele>685.39</ele>
        <time>2018-06-17T14:22:09Z</time>
      </trkpt>
      <trkpt lat="44.59096" lon="5.41512">
        <ele>683.92</ele>
        <time>2018-06-17T14:22:11Z</time>
      </trkpt>
      <trkpt lat="44.59111" lon="5.4153">
        <ele>682.67</ele>
        <time>2018-06-17T14:22:13Z</time>
      </trkpt>
      <trkpt lat="44.59097" lon="5.41551">
        <ele>681.86</ele>
        <time>2018-06-17T14:22:15Z</time>
      </trkpt>
      <trkpt lat="44.5907" lon="5.4157">
        <ele>679.97</ele>
        <time>2018-06-17T14:22:17Z</time>
      </trkpt>
      <trkpt lat="44.59044" lon="5.41591">
        <ele>678.19</ele>
        <time>2018-06-17T14:22:19Z</time>
      </trkpt>
      <trkpt lat="44.59032" lon="5.41618">
        <ele>676.59</ele>
        <time>2018-06-17T14:22:22Z</time>
      </trkpt>
      <trkpt lat="44.59043" lon="5.4164">
        <ele>674.94</ele>
        <time>2018-06-17T14:22:24Z</time>
      </trkpt>
      <trkpt lat="44.59063" lon="5.41655">
        <ele>674.67</ele>
        <time>2018-06-17T14:22:25Z</time>
      </trkpt>
      <trkpt lat="44.5909" lon="5.41676">
        <ele>672.48</ele>
        <time>2018-06-17T14:22:26Z</time>
      </trkpt>
      <trkpt lat="44.59108" lon="5.41691">
        <ele>671.13</ele>
        <time>2018-06-17T14:22:27Z</time>
      </trkpt>
      <trkpt lat="44.59126" lon="5.41707">
        <ele>670.02</ele>
        <time>2018-06-17T14:22:28Z</time>
      </trkpt>
      <trkpt lat="44.59145" lon="5.41725">
        <ele>668.99</ele>
        <time>2018-06-17T14:22:29Z</time>
      </trkpt>
      <trkpt lat="44.59164" lon="5.41744">
        <ele>667.98</ele>
        <time>2018-06-17T14:22:30Z</time>
      </trkpt>
      <trkpt lat="44.59183" lon="5.41764">
        <ele>666.28</ele>
        <time>2018-06-17T14:22:31Z</time>
      </trkpt>
      <trkpt lat="44.59203" lon="5.41782">
        <ele>665.77</ele>
        <time>2018-06-17T14:22:32Z</time>
      </trkpt>
      <trkpt lat="44.59224" lon="5.41798">
        <ele>664.91</ele>
        <time>2018-06-17T14:22:33Z</time>
      </trkpt>
      <trkpt lat="44.59245" lon="5.41813">
        <ele>663.26</ele>
        <time>2018-06-17T14:22:34Z</time>
      </trkpt>
      <trkpt lat="44.59267" lon="5.41825">
        <ele>662.06</ele>
        <time>2018-06-17T14:22:35Z</time>
      </trkpt>
      <trkpt lat="44.59291" lon="5.41837">
        <ele>660.3</ele>
        <time>2018-06-17T14:22:36Z</time>
      </trkpt>
      <trkpt lat="44.59315" lon="5.41849">
        <ele>657.67</ele>
        <time>2018-06-17T14:22:37Z</time>
      </trkpt>
      <trkpt lat="44.59338" lon="5.41861">
        <ele>656.89</ele>
        <time>2018-06-17T14:22:38Z</time>
      </trkpt>
      <trkpt lat="44.59362" lon="5.41874">
        <ele>656.65</ele>
        <time>2018-06-17T14:22:39Z</time>
      </trkpt>
      <trkpt lat="44.59385" lon="5.41887">
        <ele>655.88</ele>
        <time>2018-06-17T14:22:40Z</time>
      </trkpt>
      <trkpt lat="44.59408" lon="5.41899">
        <ele>653.55</ele>
        <time>2018-06-17T14:22:41Z</time>
      </trkpt>
      <trkpt lat="44.5943" lon="5.41912">
        <ele>651.45</ele>
        <time>2018-06-17T14:22:42Z</time>
      </trkpt>
      <trkpt lat="44.59452" lon="5.41924">
        <ele>650.12</ele>
        <time>2018-06-17T14:22:43Z</time>
      </trkpt>
      <trkpt lat="44.59473" lon="5.41936">
        <ele>648.32</ele>
        <time>2018-06-17T14:22:44Z</time>
      </trkpt>
      <trkpt lat="44.59494" lon="5.41951">
        <ele>647.08</ele>
        <time>2018-06-17T14:22:45Z</time>
      </trkpt>
      <trkpt lat="44.59514" lon="5.41969">
        <ele>646.01</ele>
        <time>2018-06-17T14:22:46Z</time>
      </trkpt>
      <trkpt lat="44.59534" lon="5.41991">
        <ele>644.29</ele>
        <time>2018-06-17T14:22:47Z</time>
      </trkpt>
      <trkpt lat="44.59553" lon="5.42012">
        <ele>643.07</ele>
        <time>2018-06-17T14:22:48Z</time>
      </trkpt>
      <trkpt lat="44.59574" lon="5.42034">
        <ele>642</ele>
        <time>2018-06-17T14:22:49Z</time>
      </trkpt>
      <trkpt lat="44.59596" lon="5.42054">
        <ele>640.28</ele>
        <time>2018-06-17T14:22:50Z</time>
      </trkpt>
      <trkpt lat="44.59619" lon="5.42071">
        <ele>639.77</ele>
        <time>2018-06-17T14:22:51Z</time>
      </trkpt>
      <trkpt lat="44.59644" lon="5.42085">
        <ele>638.21</ele>
        <time>2018-06-17T14:22:52Z</time>
      </trkpt>
      <trkpt lat="44.59671" lon="5.42095">
        <ele>637.75</ele>
        <time>2018-06-17T14:22:53Z</time>
      </trkpt>
      <trkpt lat="44.59699" lon="5.42103">
        <ele>636.21</ele>
        <time>2018-06-17T14:22:54Z</time>
      </trkpt>
      <trkpt lat="44.59728" lon="5.42109">
        <ele>635.05</ele>
        <time>2018-06-17T14:22:55Z</time>
      </trkpt>
      <trkpt lat="44.59757" lon="5.42114">
        <ele>634</ele>
        <time>2018-06-17T14:22:56Z</time>
      </trkpt>
      <trkpt lat="44.59786" lon="5.42119">
        <ele>632.98</ele>
        <time>2018-06-17T14:22:57Z</time>
      </trkpt>
      <trkpt lat="44.59815" lon="5.42124">
        <ele>631.98</ele>
        <time>2018-06-17T14:22:58Z</time>
      </trkpt>
      <trkpt lat="44.59844" lon="5.42129">
        <ele>630.28</ele>
        <time>2018-06-17T14:22:59Z</time>
      </trkpt>
      <trkpt lat="44.59872" lon="5.42136">
        <ele>629.07</ele>
        <time>2018-06-17T14:23:00Z</time>
      </trkpt>
      <trkpt lat="44.599" lon="5.42144">
        <ele>628</ele>
        <time>2018-06-17T14:23:01Z</time>
      </trkpt>
      <trkpt lat="44.59928" lon="5.42153">
        <ele>627.68</ele>
        <time>2018-06-17T14:23:02Z</time>
      </trkpt>
      <trkpt lat="44.59956" lon="5.42162">
        <ele>626.89</ele>
        <time>2018-06-17T14:23:03Z</time>
      </trkpt>
      <trkpt lat="44.59983" lon="5.42172">
        <ele>625.95</ele>
        <time>2018-06-17T14:23:04Z</time>
      </trkpt>
      <trkpt lat="44.60011" lon="5.42181">
        <ele>624.97</ele>
        <time>2018-06-17T14:23:05Z</time>
      </trkpt>
      <trkpt lat="44.60039" lon="5.4219">
        <ele>623.27</ele>
        <time>2018-06-17T14:23:06Z</time>
      </trkpt>
      <trkpt lat="44.60067" lon="5.42198">
        <ele>622.07</ele>
        <time>2018-06-17T14:23:07Z</time>
      </trkpt>
      <trkpt lat="44.60095" lon="5.42204">
        <ele>621.7</ele>
        <time>2018-06-17T14:23:08Z</time>
      </trkpt>
      <trkpt lat="44.60123" lon="5.42212">
        <ele>620.89</ele>
        <time>2018-06-17T14:23:09Z</time>
      </trkpt>
      <trkpt lat="44.60151" lon="5.42219">
        <ele>619.95</ele>
        <time>2018-06-17T14:23:10Z</time>
      </trkpt>
      <trkpt lat="44.60179" lon="5.42224">
        <ele>618.27</ele>
        <time>2018-06-17T14:23:11Z</time>
      </trkpt>
      <trkpt lat="44.60208" lon="5.42227">
        <ele>617.76</ele>
        <time>2018-06-17T14:23:12Z</time>
      </trkpt>
      <trkpt lat="44.60238" lon="5.42225">
        <ele>616.21</ele>
        <time>2018-06-17T14:23:13Z</time>
      </trkpt>
      <trkpt lat="44.60265" lon="5.42224">
        <ele>615.75</ele>
        <time>2018-06-17T14:23:14Z</time>
      </trkpt>
      <trkpt lat="44.60292" lon="5.42221">
        <ele>614.91</ele>
        <time>2018-06-17T14:23:15Z</time>
      </trkpt>
      <trkpt lat="44.60317" lon="5.4222">
        <ele>613.96</ele>
        <time>2018-06-17T14:23:16Z</time>
      </trkpt>
      <trkpt lat="44.60342" lon="5.42221">
        <ele>612.97</ele>
        <time>2018-06-17T14:23:17Z</time>
      </trkpt>
      <trkpt lat="44.60367" lon="5.42225">
        <ele>612.67</ele>
        <time>2018-06-17T14:23:18Z</time>
      </trkpt>
      <trkpt lat="44.60392" lon="5.42233">
        <ele>611.89</ele>
        <time>2018-06-17T14:23:19Z</time>
      </trkpt>
      <trkpt lat="44.60417" lon="5.42245">
        <ele>610.95</ele>
        <time>2018-06-17T14:23:20Z</time>
      </trkpt>
      <trkpt lat="44.6044" lon="5.42263">
        <ele>610.67</ele>
        <time>2018-06-17T14:23:21Z</time>
      </trkpt>
      <trkpt lat="44.60463" lon="5.42281">
        <ele>610.58</ele>
        <time>2018-06-17T14:23:22Z</time>
      </trkpt>
      <trkpt lat="44.60485" lon="5.42301">
        <ele>610.56</ele>
        <time>2018-06-17T14:23:23Z</time>
      </trkpt>
      <trkpt lat="44.60506" lon="5.42324">
        <ele>610.55</ele>
        <time>2018-06-17T14:23:24Z</time>
      </trkpt>
      <trkpt lat="44.60525" lon="5.4235">
        <ele>610.55</ele>
        <time>2018-06-17T14:23:25Z</time>
      </trkpt>
      <trkpt lat="44.60544" lon="5.42375">
        <ele>610.55</ele>
        <time>2018-06-17T14:23:26Z</time>
      </trkpt>
      <trkpt lat="44.60563" lon="5.424">
        <ele>609.15</ele>
        <time>2018-06-17T14:23:27Z</time>
      </trkpt>
      <trkpt lat="44.6058" lon="5.42426">
        <ele>608.03</ele>
        <time>2018-06-17T14:23:28Z</time>
      </trkpt>
      <trkpt lat="44.60595" lon="5.42457">
        <ele>606.99</ele>
        <time>2018-06-17T14:23:29Z</time>
      </trkpt>
      <trkpt lat="44.60607" lon="5.4249">
        <ele>605.28</ele>
        <time>2018-06-17T14:23:30Z</time>
      </trkpt>
      <trkpt lat="44.60619" lon="5.42524">
        <ele>604.07</ele>
        <time>2018-06-17T14:23:31Z</time>
      </trkpt>
      <trkpt lat="44.60633" lon="5.42557">
        <ele>602.3</ele>
        <time>2018-06-17T14:23:32Z</time>
      </trkpt>
      <trkpt lat="44.60648" lon="5.42588">
        <ele>600.37</ele>
        <time>2018-06-17T14:23:33Z</time>
      </trkpt>
      <trkpt lat="44.60664" lon="5.42618">
        <ele>599.1</ele>
        <time>2018-06-17T14:23:34Z</time>
      </trkpt>
      <trkpt lat="44.60685" lon="5.42645">
        <ele>597.31</ele>
        <time>2018-06-17T14:23:35Z</time>
      </trkpt>
      <trkpt lat="44.60707" lon="5.42672">
        <ele>596.08</ele>
        <time>2018-06-17T14:23:36Z</time>
      </trkpt>
      <trkpt lat="44.6073" lon="5.42697">
        <ele>595.01</ele>
        <time>2018-06-17T14:23:37Z</time>
      </trkpt>
      <trkpt lat="44.60753" lon="5.42721">
        <ele>594.69</ele>
        <time>2018-06-17T14:23:38Z</time>
      </trkpt>
      <trkpt lat="44.60778" lon="5.42744">
        <ele>593.89</ele>
        <time>2018-06-17T14:23:39Z</time>
      </trkpt>
      <trkpt lat="44.60802" lon="5.42768">
        <ele>593.65</ele>
        <time>2018-06-17T14:23:40Z</time>
      </trkpt>
      <trkpt lat="44.60827" lon="5.42792">
        <ele>592.88</ele>
        <time>2018-06-17T14:23:41Z</time>
      </trkpt>
      <trkpt lat="44.60852" lon="5.42814">
        <ele>591.25</ele>
        <time>2018-06-17T14:23:42Z</time>
      </trkpt>
      <trkpt lat="44.60879" lon="5.42837">
        <ele>589.36</ele>
        <time>2018-06-17T14:23:43Z</time>
      </trkpt>
      <trkpt lat="44.60906" lon="5.42857">
        <ele>588.09</ele>
        <time>2018-06-17T14:23:44Z</time>
      </trkpt>
      <trkpt lat="44.60933" lon="5.42878">
        <ele>587.71</ele>
        <time>2018-06-17T14:23:45Z</time>
      </trkpt>
      <trkpt lat="44.6096" lon="5.429">
        <ele>587.6</ele>
        <time>2018-06-17T14:23:46Z</time>
      </trkpt>
      <trkpt lat="44.60988" lon="5.42922">
        <ele>586.16</ele>
        <time>2018-06-17T14:23:47Z</time>
      </trkpt>
      <trkpt lat="44.61015" lon="5.42945">
        <ele>585.73</ele>
        <time>2018-06-17T14:23:48Z</time>
      </trkpt>
      <trkpt lat="44.61042" lon="5.42967">
        <ele>585.6</ele>
        <time>2018-06-17T14:23:49Z</time>
      </trkpt>
      <trkpt lat="44.61069" lon="5.42989">
        <ele>585.56</ele>
        <time>2018-06-17T14:23:50Z</time>
      </trkpt>
      <trkpt lat="44.61096" lon="5.43011">
        <ele>585.55</ele>
        <time>2018-06-17T14:23:51Z</time>
      </trkpt>
      <trkpt lat="44.61122" lon="5.43033">
        <ele>583.45</ele>
        <time>2018-06-17T14:23:52Z</time>
      </trkpt>
      <trkpt lat="44.61148" lon="5.43053">
        <ele>582.82</ele>
        <time>2018-06-17T14:23:53Z</time>
      </trkpt>
      <trkpt lat="44.61175" lon="5.43075">
        <ele>580.53</ele>
        <time>2018-06-17T14:23:54Z</time>
      </trkpt>
      <trkpt lat="44.61202" lon="5.43097">
        <ele>579.84</ele>
        <time>2018-06-17T14:23:55Z</time>
      </trkpt>
      <trkpt lat="44.61228" lon="5.4312">
        <ele>579.64</ele>
        <time>2018-06-17T14:23:56Z</time>
      </trkpt>
      <trkpt lat="44.61254" lon="5.43148">
        <ele>578.17</ele>
        <time>2018-06-17T14:23:57Z</time>
      </trkpt>
      <trkpt lat="44.6128" lon="5.43175">
        <ele>577.04</ele>
        <time>2018-06-17T14:23:58Z</time>
      </trkpt>
      <trkpt lat="44.61305" lon="5.43203">
        <ele>576.69</ele>
        <time>2018-06-17T14:23:59Z</time>
      </trkpt>
      <trkpt lat="44.61329" lon="5.43231">
        <ele>575.89</ele>
        <time>2018-06-17T14:24:00Z</time>
      </trkpt>
      <trkpt lat="44.61354" lon="5.43259">
        <ele>574.25</ele>
        <time>2018-06-17T14:24:01Z</time>
      </trkpt>
      <trkpt lat="44.61379" lon="5.43286">
        <ele>573.76</ele>
        <time>2018-06-17T14:24:02Z</time>
      </trkpt>
      <trkpt lat="44.61404" lon="5.43312">
        <ele>572.91</ele>
        <time>2018-06-17T14:24:03Z</time>
      </trkpt>
      <trkpt lat="44.61431" lon="5.43337">
        <ele>571.96</ele>
        <time>2018-06-17T14:24:04Z</time>
      </trkpt>
      <trkpt lat="44.6146" lon="5.4336">
        <ele>570.97</ele>
        <time>2018-06-17T14:24:05Z</time>
      </trkpt>
      <trkpt lat="44.61488" lon="5.43382">
        <ele>569.27</ele>
        <time>2018-06-17T14:24:06Z</time>
      </trkpt>
      <trkpt lat="44.61516" lon="5.43403">
        <ele>568.07</ele>
        <time>2018-06-17T14:24:07Z</time>
      </trkpt>
      <trkpt lat="44.61543" lon="5.43423">
        <ele>567.7</ele>
        <time>2018-06-17T14:24:08Z</time>
      </trkpt>
      <trkpt lat="44.61571" lon="5.43443">
        <ele>567.59</ele>
        <time>2018-06-17T14:24:09Z</time>
      </trkpt>
      <trkpt lat="44.61597" lon="5.43462">
        <ele>567.56</ele>
        <time>2018-06-17T14:24:10Z</time>
      </trkpt>
      <trkpt lat="44.61622" lon="5.43482">
        <ele>566.85</ele>
        <time>2018-06-17T14:24:11Z</time>
      </trkpt>
      <trkpt lat="44.61648" lon="5.43502">
        <ele>566.64</ele>
        <time>2018-06-17T14:24:12Z</time>
      </trkpt>
      <trkpt lat="44.61675" lon="5.43521">
        <ele>565.88</ele>
        <time>2018-06-17T14:24:13Z</time>
      </trkpt>
      <trkpt lat="44.61701" lon="5.43539">
        <ele>565.65</ele>
        <time>2018-06-17T14:24:14Z</time>
      </trkpt>
      <trkpt lat="44.61729" lon="5.43558">
        <ele>565.58</ele>
        <time>2018-06-17T14:24:15Z</time>
      </trkpt>
      <trkpt lat="44.61757" lon="5.43576">
        <ele>564.86</ele>
        <time>2018-06-17T14:24:16Z</time>
      </trkpt>
      <trkpt lat="44.61785" lon="5.43595">
        <ele>564.64</ele>
        <time>2018-06-17T14:24:17Z</time>
      </trkpt>
      <trkpt lat="44.61813" lon="5.43616">
        <ele>563.18</ele>
        <time>2018-06-17T14:24:18Z</time>
      </trkpt>
      <trkpt lat="44.61842" lon="5.43635">
        <ele>562.74</ele>
        <time>2018-06-17T14:24:19Z</time>
      </trkpt>
      <trkpt lat="44.6187" lon="5.43655">
        <ele>563.3</ele>
        <time>2018-06-17T14:24:20Z</time>
      </trkpt>
      <trkpt lat="44.61897" lon="5.43675">
        <ele>563.47</ele>
        <time>2018-06-17T14:24:21Z</time>
      </trkpt>
      <trkpt lat="44.61924" lon="5.43693">
        <ele>562.83</ele>
        <time>2018-06-17T14:24:22Z</time>
      </trkpt>
      <trkpt lat="44.61951" lon="5.43712">
        <ele>561.93</ele>
        <time>2018-06-17T14:24:23Z</time>
      </trkpt>
      <trkpt lat="44.61977" lon="5.4373">
        <ele>561.66</ele>
        <time>2018-06-17T14:24:24Z</time>
      </trkpt>
      <trkpt lat="44.62004" lon="5.43748">
        <ele>562.28</ele>
        <time>2018-06-17T14:24:25Z</time>
      </trkpt>
      <trkpt lat="44.62029" lon="5.43766">
        <ele>562.47</ele>
        <time>2018-06-17T14:24:26Z</time>
      </trkpt>
      <trkpt lat="44.62055" lon="5.43784">
        <ele>563.22</ele>
        <time>2018-06-17T14:24:27Z</time>
      </trkpt>
      <trkpt lat="44.62079" lon="5.43801">
        <ele>563.45</ele>
        <time>2018-06-17T14:24:28Z</time>
      </trkpt>
      <trkpt lat="44.62101" lon="5.43817">
        <ele>562.82</ele>
        <time>2018-06-17T14:24:29Z</time>
      </trkpt>
      <trkpt lat="44.62123" lon="5.43834">
        <ele>558.43</ele>
        <time>2018-06-17T14:24:30Z</time>
      </trkpt>
      <trkpt lat="44.62145" lon="5.43849">
        <ele>556.41</ele>
        <time>2018-06-17T14:24:31Z</time>
      </trkpt>
      <trkpt lat="44.62166" lon="5.43864">
        <ele>555.11</ele>
        <time>2018-06-17T14:24:32Z</time>
      </trkpt>
      <trkpt lat="44.62186" lon="5.43879">
        <ele>553.32</ele>
        <time>2018-06-17T14:24:33Z</time>
      </trkpt>
      <trkpt lat="44.62204" lon="5.43893">
        <ele>549.98</ele>
        <time>2018-06-17T14:24:34Z</time>
      </trkpt>
      <trkpt lat="44.62222" lon="5.43906">
        <ele>548.28</ele>
        <time>2018-06-17T14:24:35Z</time>
      </trkpt>
      <trkpt lat="44.62249" lon="5.43925">
        <ele>543.27</ele>
        <time>2018-06-17T14:24:37Z</time>
      </trkpt>
      <trkpt lat="44.62266" lon="5.43942">
        <ele>541.91</ele>
        <time>2018-06-17T14:24:39Z</time>
      </trkpt>
      <trkpt lat="44.62286" lon="5.43944">
        <ele>541.61</ele>
        <time>2018-06-17T14:24:43Z</time>
      </trkpt>
      <trkpt lat="44.62306" lon="5.4392">
        <ele>541.34</ele>
        <time>2018-06-17T14:24:45Z</time>
      </trkpt>
      <trkpt lat="44.62334" lon="5.43889">
        <ele>542.44</ele>
        <time>2018-06-17T14:24:47Z</time>
      </trkpt>
      <trkpt lat="44.62351" lon="5.43872">
        <ele>542.52</ele>
        <time>2018-06-17T14:24:48Z</time>
      </trkpt>
      <trkpt lat="44.6237" lon="5.43852">
        <ele>542.54</ele>
        <time>2018-06-17T14:24:49Z</time>
      </trkpt>
      <trkpt lat="44.6239" lon="5.4383">
        <ele>541.85</ele>
        <time>2018-06-17T14:24:50Z</time>
      </trkpt>
      <trkpt lat="44.6241" lon="5.43807">
        <ele>541.64</ele>
        <time>2018-06-17T14:24:51Z</time>
      </trkpt>
      <trkpt lat="44.62431" lon="5.43785">
        <ele>541.57</ele>
        <time>2018-06-17T14:24:52Z</time>
      </trkpt>
      <trkpt lat="44.62452" lon="5.43761">
        <ele>540.86</ele>
        <time>2018-06-17T14:24:53Z</time>
      </trkpt>
      <trkpt lat="44.62475" lon="5.43737">
        <ele>539.94</ele>
        <time>2018-06-17T14:24:54Z</time>
      </trkpt>
      <trkpt lat="44.62497" lon="5.43715">
        <ele>538.97</ele>
        <time>2018-06-17T14:24:55Z</time>
      </trkpt>
      <trkpt lat="44.62519" lon="5.43692">
        <ele>537.97</ele>
        <time>2018-06-17T14:24:56Z</time>
      </trkpt>
      <trkpt lat="44.62541" lon="5.43668">
        <ele>537.68</ele>
        <time>2018-06-17T14:24:57Z</time>
      </trkpt>
      <trkpt lat="44.62563" lon="5.43646">
        <ele>536.89</ele>
        <time>2018-06-17T14:24:58Z</time>
      </trkpt>
      <trkpt lat="44.62584" lon="5.43624">
        <ele>535.95</ele>
        <time>2018-06-17T14:24:59Z</time>
      </trkpt>
      <trkpt lat="44.62605" lon="5.43601">
        <ele>535.67</ele>
        <time>2018-06-17T14:25:00Z</time>
      </trkpt>
      <trkpt lat="44.62626" lon="5.43579">
        <ele>534.88</ele>
        <time>2018-06-17T14:25:01Z</time>
      </trkpt>
      <trkpt lat="44.62648" lon="5.43557">
        <ele>534.65</ele>
        <time>2018-06-17T14:25:02Z</time>
      </trkpt>
      <trkpt lat="44.62669" lon="5.43534">
        <ele>533.88</ele>
        <time>2018-06-17T14:25:03Z</time>
      </trkpt>
      <trkpt lat="44.6269" lon="5.43511">
        <ele>533.65</ele>
        <time>2018-06-17T14:25:04Z</time>
      </trkpt>
      <trkpt lat="44.62713" lon="5.43488">
        <ele>531.48</ele>
        <time>2018-06-17T14:25:05Z</time>
      </trkpt>
      <trkpt lat="44.62735" lon="5.43465">
        <ele>530.83</ele>
        <time>2018-06-17T14:25:06Z</time>
      </trkpt>
      <trkpt lat="44.62756" lon="5.43442">
        <ele>529.93</ele>
        <time>2018-06-17T14:25:07Z</time>
      </trkpt>
      <trkpt lat="44.62777" lon="5.43419">
        <ele>528.96</ele>
        <time>2018-06-17T14:25:08Z</time>
      </trkpt>
      <trkpt lat="44.62799" lon="5.43396">
        <ele>527.27</ele>
        <time>2018-06-17T14:25:09Z</time>
      </trkpt>
      <trkpt lat="44.6282" lon="5.43372">
        <ele>526.77</ele>
        <time>2018-06-17T14:25:10Z</time>
      </trkpt>
      <trkpt lat="44.62841" lon="5.4335">
        <ele>526.61</ele>
        <time>2018-06-17T14:25:11Z</time>
      </trkpt>
      <trkpt lat="44.6286" lon="5.43329">
        <ele>526.57</ele>
        <time>2018-06-17T14:25:12Z</time>
      </trkpt>
      <trkpt lat="44.62878" lon="5.4331">
        <ele>526.55</ele>
        <time>2018-06-17T14:25:13Z</time>
      </trkpt>
      <trkpt lat="44.62895" lon="5.43292">
        <ele>526.55</ele>
        <time>2018-06-17T14:25:14Z</time>
      </trkpt>
      <trkpt lat="44.62913" lon="5.43274">
        <ele>526.55</ele>
        <time>2018-06-17T14:25:15Z</time>
      </trkpt>
      <trkpt lat="44.62929" lon="5.43256">
        <ele>526.55</ele>
        <time>2018-06-17T14:25:16Z</time>
      </trkpt>
      <trkpt lat="44.62946" lon="5.43239">
        <ele>525.85</ele>
        <time>2018-06-17T14:25:17Z</time>
      </trkpt>
      <trkpt lat="44.62962" lon="5.43222">
        <ele>525.64</ele>
        <time>2018-06-17T14:25:18Z</time>
      </trkpt>
      <trkpt lat="44.62977" lon="5.43205">
        <ele>525.58</ele>
        <time>2018-06-17T14:25:19Z</time>
      </trkpt>
      <trkpt lat="44.62993" lon="5.43188">
        <ele>526.26</ele>
        <time>2018-06-17T14:25:20Z</time>
      </trkpt>
      <trkpt lat="44.63008" lon="5.43172">
        <ele>526.46</ele>
        <time>2018-06-17T14:25:21Z</time>
      </trkpt>
      <trkpt lat="44.63023" lon="5.43157">
        <ele>526.52</ele>
        <time>2018-06-17T14:25:22Z</time>
      </trkpt>
      <trkpt lat="44.63037" lon="5.43141">
        <ele>526.54</ele>
        <time>2018-06-17T14:25:23Z</time>
      </trkpt>
      <trkpt lat="44.63065" lon="5.43111">
        <ele>527.46</ele>
        <time>2018-06-17T14:25:25Z</time>
      </trkpt>
      <trkpt lat="44.63092" lon="5.43081">
        <ele>527.54</ele>
        <time>2018-06-17T14:25:27Z</time>
      </trkpt>
      <trkpt lat="44.6312" lon="5.43051">
        <ele>525.94</ele>
        <time>2018-06-17T14:25:29Z</time>
      </trkpt>
      <trkpt lat="44.63148" lon="5.4302">
        <ele>525.37</ele>
        <time>2018-06-17T14:25:31Z</time>
      </trkpt>
      <trkpt lat="44.63173" lon="5.42991">
        <ele>525.53</ele>
        <time>2018-06-17T14:25:33Z</time>
      </trkpt>
      <trkpt lat="44.63199" lon="5.42966">
        <ele>524.85</ele>
        <time>2018-06-17T14:25:35Z</time>
      </trkpt>
      <trkpt lat="44.63229" lon="5.42939">
        <ele>524.08</ele>
        <time>2018-06-17T14:25:37Z</time>
      </trkpt>
      <trkpt lat="44.63245" lon="5.42924">
        <ele>523.71</ele>
        <time>2018-06-17T14:25:38Z</time>
      </trkpt>
      <trkpt lat="44.63261" lon="5.4291">
        <ele>523.6</ele>
        <time>2018-06-17T14:25:39Z</time>
      </trkpt>
      <trkpt lat="44.63277" lon="5.42896">
        <ele>523.56</ele>
        <time>2018-06-17T14:25:40Z</time>
      </trkpt>
      <trkpt lat="44.63293" lon="5.42883">
        <ele>522.85</ele>
        <time>2018-06-17T14:25:41Z</time>
      </trkpt>
      <trkpt lat="44.63322" lon="5.4286">
        <ele>521.88</ele>
        <time>2018-06-17T14:25:43Z</time>
      </trkpt>
      <trkpt lat="44.6335" lon="5.42839">
        <ele>520.88</ele>
        <time>2018-06-17T14:25:45Z</time>
      </trkpt>
      <trkpt lat="44.63365" lon="5.42827">
        <ele>520.65</ele>
        <time>2018-06-17T14:25:46Z</time>
      </trkpt>
      <trkpt lat="44.63383" lon="5.42814">
        <ele>520.58</ele>
        <time>2018-06-17T14:25:47Z</time>
      </trkpt>
      <trkpt lat="44.63401" lon="5.428">
        <ele>520.56</ele>
        <time>2018-06-17T14:25:48Z</time>
      </trkpt>
      <trkpt lat="44.63421" lon="5.42786">
        <ele>520.55</ele>
        <time>2018-06-17T14:25:49Z</time>
      </trkpt>
      <trkpt lat="44.63441" lon="5.42771">
        <ele>521.25</ele>
        <time>2018-06-17T14:25:50Z</time>
      </trkpt>
      <trkpt lat="44.63461" lon="5.42757">
        <ele>521.46</ele>
        <time>2018-06-17T14:25:51Z</time>
      </trkpt>
      <trkpt lat="44.63482" lon="5.42742">
        <ele>521.52</ele>
        <time>2018-06-17T14:25:52Z</time>
      </trkpt>
      <trkpt lat="44.63503" lon="5.42728">
        <ele>522.24</ele>
        <time>2018-06-17T14:25:53Z</time>
      </trkpt>
      <trkpt lat="44.63522" lon="5.42711">
        <ele>522.46</ele>
        <time>2018-06-17T14:25:54Z</time>
      </trkpt>
      <trkpt lat="44.63544" lon="5.42699">
        <ele>521.82</ele>
        <time>2018-06-17T14:25:55Z</time>
      </trkpt>
      <trkpt lat="44.63566" lon="5.42684">
        <ele>520.93</ele>
        <time>2018-06-17T14:25:56Z</time>
      </trkpt>
      <trkpt lat="44.63588" lon="5.4267">
        <ele>520.66</ele>
        <time>2018-06-17T14:25:57Z</time>
      </trkpt>
      <trkpt lat="44.6361" lon="5.42658">
        <ele>519.88</ele>
        <time>2018-06-17T14:25:58Z</time>
      </trkpt>
      <trkpt lat="44.63633" lon="5.42644">
        <ele>519.65</ele>
        <time>2018-06-17T14:25:59Z</time>
      </trkpt>
      <trkpt lat="44.63656" lon="5.4263">
        <ele>518.88</ele>
        <time>2018-06-17T14:26:00Z</time>
      </trkpt>
      <trkpt lat="44.6368" lon="5.42617">
        <ele>518.65</ele>
        <time>2018-06-17T14:26:01Z</time>
      </trkpt>
      <trkpt lat="44.63704" lon="5.42602">
        <ele>518.58</ele>
        <time>2018-06-17T14:26:02Z</time>
      </trkpt>
      <trkpt lat="44.63728" lon="5.42585">
        <ele>518.56</ele>
        <time>2018-06-17T14:26:03Z</time>
      </trkpt>
      <trkpt lat="44.63752" lon="5.42566">
        <ele>519.25</ele>
        <time>2018-06-17T14:26:04Z</time>
      </trkpt>
      <trkpt lat="44.63778" lon="5.42548">
        <ele>518.76</ele>
        <time>2018-06-17T14:26:05Z</time>
      </trkpt>
      <trkpt lat="44.63804" lon="5.42529">
        <ele>518.61</ele>
        <time>2018-06-17T14:26:06Z</time>
      </trkpt>
      <trkpt lat="44.6383" lon="5.42509">
        <ele>517.87</ele>
        <time>2018-06-17T14:26:07Z</time>
      </trkpt>
      <trkpt lat="44.63855" lon="5.42489">
        <ele>516.94</ele>
        <time>2018-06-17T14:26:08Z</time>
      </trkpt>
      <trkpt lat="44.63881" lon="5.42467">
        <ele>516.67</ele>
        <time>2018-06-17T14:26:09Z</time>
      </trkpt>
      <trkpt lat="44.63906" lon="5.42445">
        <ele>515.88</ele>
        <time>2018-06-17T14:26:10Z</time>
      </trkpt>
      <trkpt lat="44.6393" lon="5.42421">
        <ele>515.65</ele>
        <time>2018-06-17T14:26:11Z</time>
      </trkpt>
      <trkpt lat="44.63953" lon="5.42395">
        <ele>515.58</ele>
        <time>2018-06-17T14:26:12Z</time>
      </trkpt>
      <trkpt lat="44.63976" lon="5.42369">
        <ele>515.56</ele>
        <time>2018-06-17T14:26:13Z</time>
      </trkpt>
      <trkpt lat="44.64" lon="5.42344">
        <ele>514.85</ele>
        <time>2018-06-17T14:26:14Z</time>
      </trkpt>
      <trkpt lat="44.64023" lon="5.42318">
        <ele>514.64</ele>
        <time>2018-06-17T14:26:15Z</time>
      </trkpt>
      <trkpt lat="44.64045" lon="5.42292">
        <ele>514.58</ele>
        <time>2018-06-17T14:26:16Z</time>
      </trkpt>
      <trkpt lat="44.64068" lon="5.42267">
        <ele>514.56</ele>
        <time>2018-06-17T14:26:17Z</time>
      </trkpt>
      <trkpt lat="44.6409" lon="5.42242">
        <ele>514.55</ele>
        <time>2018-06-17T14:26:18Z</time>
      </trkpt>
      <trkpt lat="44.64113" lon="5.42217">
        <ele>514.55</ele>
        <time>2018-06-17T14:26:19Z</time>
      </trkpt>
      <trkpt lat="44.64137" lon="5.42195">
        <ele>514.55</ele>
        <time>2018-06-17T14:26:20Z</time>
      </trkpt>
      <trkpt lat="44.64161" lon="5.42175">
        <ele>513.85</ele>
        <time>2018-06-17T14:26:21Z</time>
      </trkpt>
      <trkpt lat="44.64185" lon="5.42155">
        <ele>513.64</ele>
        <time>2018-06-17T14:26:22Z</time>
      </trkpt>
      <trkpt lat="44.64211" lon="5.42141">
        <ele>512.88</ele>
        <time>2018-06-17T14:26:23Z</time>
      </trkpt>
      <trkpt lat="44.64237" lon="5.42123">
        <ele>513.35</ele>
        <time>2018-06-17T14:26:24Z</time>
      </trkpt>
      <trkpt lat="44.64262" lon="5.42104">
        <ele>513.49</ele>
        <time>2018-06-17T14:26:25Z</time>
      </trkpt>
      <trkpt lat="44.64287" lon="5.42086">
        <ele>513.53</ele>
        <time>2018-06-17T14:26:26Z</time>
      </trkpt>
      <trkpt lat="44.64312" lon="5.42067">
        <ele>514.24</ele>
        <time>2018-06-17T14:26:27Z</time>
      </trkpt>
      <trkpt lat="44.64337" lon="5.4205">
        <ele>515.16</ele>
        <time>2018-06-17T14:26:28Z</time>
      </trkpt>
      <trkpt lat="44.64361" lon="5.42033">
        <ele>515.43</ele>
        <time>2018-06-17T14:26:29Z</time>
      </trkpt>
      <trkpt lat="44.64385" lon="5.42017">
        <ele>515.51</ele>
        <time>2018-06-17T14:26:30Z</time>
      </trkpt>
      <trkpt lat="44.64409" lon="5.42">
        <ele>515.54</ele>
        <time>2018-06-17T14:26:31Z</time>
      </trkpt>
      <trkpt lat="44.64432" lon="5.41982">
        <ele>515.54</ele>
        <time>2018-06-17T14:26:32Z</time>
      </trkpt>
      <trkpt lat="44.64456" lon="5.41965">
        <ele>515.55</ele>
        <time>2018-06-17T14:26:33Z</time>
      </trkpt>
      <trkpt lat="44.64481" lon="5.41947">
        <ele>515.55</ele>
        <time>2018-06-17T14:26:34Z</time>
      </trkpt>
      <trkpt lat="44.64506" lon="5.41928">
        <ele>514.85</ele>
        <time>2018-06-17T14:26:35Z</time>
      </trkpt>
      <trkpt lat="44.6453" lon="5.4191">
        <ele>513.94</ele>
        <time>2018-06-17T14:26:36Z</time>
      </trkpt>
      <trkpt lat="44.64554" lon="5.4189">
        <ele>513.66</ele>
        <time>2018-06-17T14:26:37Z</time>
      </trkpt>
      <trkpt lat="44.64579" lon="5.4187">
        <ele>513.58</ele>
        <time>2018-06-17T14:26:38Z</time>
      </trkpt>
      <trkpt lat="44.64605" lon="5.41852">
        <ele>512.86</ele>
        <time>2018-06-17T14:26:39Z</time>
      </trkpt>
      <trkpt lat="44.64631" lon="5.41832">
        <ele>512.64</ele>
        <time>2018-06-17T14:26:40Z</time>
      </trkpt>
      <trkpt lat="44.64657" lon="5.41816">
        <ele>512.58</ele>
        <time>2018-06-17T14:26:41Z</time>
      </trkpt>
      <trkpt lat="44.64683" lon="5.41801">
        <ele>512.56</ele>
        <time>2018-06-17T14:26:42Z</time>
      </trkpt>
      <trkpt lat="44.64708" lon="5.41787">
        <ele>512.55</ele>
        <time>2018-06-17T14:26:43Z</time>
      </trkpt>
      <trkpt lat="44.64733" lon="5.41772">
        <ele>512.55</ele>
        <time>2018-06-17T14:26:44Z</time>
      </trkpt>
      <trkpt lat="44.64757" lon="5.41756">
        <ele>512.55</ele>
        <time>2018-06-17T14:26:45Z</time>
      </trkpt>
      <trkpt lat="44.64781" lon="5.4174">
        <ele>511.85</ele>
        <time>2018-06-17T14:26:46Z</time>
      </trkpt>
      <trkpt lat="44.64805" lon="5.41724">
        <ele>511.64</ele>
        <time>2018-06-17T14:26:47Z</time>
      </trkpt>
      <trkpt lat="44.64829" lon="5.41708">
        <ele>510.18</ele>
        <time>2018-06-17T14:26:48Z</time>
      </trkpt>
      <trkpt lat="44.64852" lon="5.41693">
        <ele>509.74</ele>
        <time>2018-06-17T14:26:49Z</time>
      </trkpt>
      <trkpt lat="44.64876" lon="5.4168">
        <ele>509.6</ele>
        <time>2018-06-17T14:26:50Z</time>
      </trkpt>
      <trkpt lat="44.649" lon="5.41668">
        <ele>509.56</ele>
        <time>2018-06-17T14:26:51Z</time>
      </trkpt>
      <trkpt lat="44.64923" lon="5.41658">
        <ele>509.55</ele>
        <time>2018-06-17T14:26:52Z</time>
      </trkpt>
      <trkpt lat="44.64945" lon="5.41648">
        <ele>509.55</ele>
        <time>2018-06-17T14:26:53Z</time>
      </trkpt>
      <trkpt lat="44.64966" lon="5.41637">
        <ele>509.55</ele>
        <time>2018-06-17T14:26:54Z</time>
      </trkpt>
      <trkpt lat="44.64985" lon="5.41624">
        <ele>510.25</ele>
        <time>2018-06-17T14:26:55Z</time>
      </trkpt>
      <trkpt lat="44.65004" lon="5.4161">
        <ele>510.46</ele>
        <time>2018-06-17T14:26:56Z</time>
      </trkpt>
      <trkpt lat="44.6502" lon="5.41588">
        <ele>511.92</ele>
        <time>2018-06-17T14:26:57Z</time>
      </trkpt>
      <trkpt lat="44.65036" lon="5.41567">
        <ele>511.66</ele>
        <time>2018-06-17T14:26:58Z</time>
      </trkpt>
      <trkpt lat="44.65052" lon="5.41546">
        <ele>511.58</ele>
        <time>2018-06-17T14:26:59Z</time>
      </trkpt>
      <trkpt lat="44.65067" lon="5.41527">
        <ele>511.56</ele>
        <time>2018-06-17T14:27:00Z</time>
      </trkpt>
      <trkpt lat="44.6508" lon="5.4151">
        <ele>511.55</ele>
        <time>2018-06-17T14:27:01Z</time>
      </trkpt>
      <trkpt lat="44.65102" lon="5.4148">
        <ele>512.67</ele>
        <time>2018-06-17T14:27:03Z</time>
      </trkpt>
      <trkpt lat="44.65122" lon="5.41454">
        <ele>510.95</ele>
        <time>2018-06-17T14:27:05Z</time>
      </trkpt>
      <trkpt lat="44.65143" lon="5.41427">
        <ele>511.49</ele>
        <time>2018-06-17T14:27:07Z</time>
      </trkpt>
      <trkpt lat="44.65166" lon="5.41401">
        <ele>510.63</ele>
        <time>2018-06-17T14:27:09Z</time>
      </trkpt>
      <trkpt lat="44.6519" lon="5.41379">
        <ele>509.86</ele>
        <time>2018-06-17T14:27:11Z</time>
      </trkpt>
      <trkpt lat="44.65215" lon="5.41361">
        <ele>508.67</ele>
        <time>2018-06-17T14:27:13Z</time>
      </trkpt>
      <trkpt lat="44.65242" lon="5.41347">
        <ele>506.95</ele>
        <time>2018-06-17T14:27:15Z</time>
      </trkpt>
      <trkpt lat="44.65273" lon="5.41333">
        <ele>505.67</ele>
        <time>2018-06-17T14:27:17Z</time>
      </trkpt>
      <trkpt lat="44.65305" lon="5.41318">
        <ele>503.95</ele>
        <time>2018-06-17T14:27:19Z</time>
      </trkpt>
      <trkpt lat="44.65335" lon="5.41304">
        <ele>502.88</ele>
        <time>2018-06-17T14:27:21Z</time>
      </trkpt>
      <trkpt lat="44.65366" lon="5.41289">
        <ele>500.97</ele>
        <time>2018-06-17T14:27:23Z</time>
      </trkpt>
      <trkpt lat="44.65395" lon="5.41274">
        <ele>499.89</ele>
        <time>2018-06-17T14:27:25Z</time>
      </trkpt>
      <trkpt lat="44.65425" lon="5.4126">
        <ele>497.97</ele>
        <time>2018-06-17T14:27:27Z</time>
      </trkpt>
      <trkpt lat="44.65453" lon="5.41247">
        <ele>495.98</ele>
        <time>2018-06-17T14:27:29Z</time>
      </trkpt>
      <trkpt lat="44.6548" lon="5.41234">
        <ele>493.98</ele>
        <time>2018-06-17T14:27:31Z</time>
      </trkpt>
      <trkpt lat="44.65505" lon="5.41223">
        <ele>492.89</ele>
        <time>2018-06-17T14:27:33Z</time>
      </trkpt>
      <trkpt lat="44.65526" lon="5.41219">
        <ele>491.88</ele>
        <time>2018-06-17T14:27:35Z</time>
      </trkpt>
      <trkpt lat="44.65549" lon="5.41211">
        <ele>493.17</ele>
        <time>2018-06-17T14:27:38Z</time>
      </trkpt>
      <trkpt lat="44.65568" lon="5.41196">
        <ele>493.51</ele>
        <time>2018-06-17T14:27:40Z</time>
      </trkpt>
      <trkpt lat="44.65595" lon="5.41182">
        <ele>493.54</ele>
        <time>2018-06-17T14:27:42Z</time>
      </trkpt>
      <trkpt lat="44.65625" lon="5.41167">
        <ele>493.55</ele>
        <time>2018-06-17T14:27:44Z</time>
      </trkpt>
      <trkpt lat="44.65658" lon="5.4115">
        <ele>494.46</ele>
        <time>2018-06-17T14:27:46Z</time>
      </trkpt>
      <trkpt lat="44.65676" lon="5.41142">
        <ele>494.52</ele>
        <time>2018-06-17T14:27:47Z</time>
      </trkpt>
      <trkpt lat="44.65695" lon="5.41134">
        <ele>494.54</ele>
        <time>2018-06-17T14:27:48Z</time>
      </trkpt>
      <trkpt lat="44.65715" lon="5.41125">
        <ele>494.55</ele>
        <time>2018-06-17T14:27:49Z</time>
      </trkpt>
      <trkpt lat="44.65734" lon="5.41115">
        <ele>495.25</ele>
        <time>2018-06-17T14:27:50Z</time>
      </trkpt>
      <trkpt lat="44.65753" lon="5.41105">
        <ele>495.46</ele>
        <time>2018-06-17T14:27:51Z</time>
      </trkpt>
      <trkpt lat="44.65773" lon="5.41093">
        <ele>495.52</ele>
        <time>2018-06-17T14:27:52Z</time>
      </trkpt>
      <trkpt lat="44.65794" lon="5.41078">
        <ele>495.54</ele>
        <time>2018-06-17T14:27:53Z</time>
      </trkpt>
      <trkpt lat="44.65815" lon="5.41063">
        <ele>494.85</ele>
        <time>2018-06-17T14:27:54Z</time>
      </trkpt>
      <trkpt lat="44.65837" lon="5.41046">
        <ele>494.64</ele>
        <time>2018-06-17T14:27:55Z</time>
      </trkpt>
      <trkpt lat="44.6586" lon="5.41029">
        <ele>493.87</ele>
        <time>2018-06-17T14:27:56Z</time>
      </trkpt>
      <trkpt lat="44.65882" lon="5.41012">
        <ele>493.65</ele>
        <time>2018-06-17T14:27:57Z</time>
      </trkpt>
      <trkpt lat="44.65905" lon="5.40994">
        <ele>492.88</ele>
        <time>2018-06-17T14:27:58Z</time>
      </trkpt>
      <trkpt lat="44.65928" lon="5.40976">
        <ele>491.95</ele>
        <time>2018-06-17T14:27:59Z</time>
      </trkpt>
      <trkpt lat="44.6595" lon="5.40959">
        <ele>491.67</ele>
        <time>2018-06-17T14:28:00Z</time>
      </trkpt>
      <trkpt lat="44.65973" lon="5.40941">
        <ele>490.88</ele>
        <time>2018-06-17T14:28:01Z</time>
      </trkpt>
      <trkpt lat="44.65995" lon="5.40924">
        <ele>489.95</ele>
        <time>2018-06-17T14:28:02Z</time>
      </trkpt>
      <trkpt lat="44.66017" lon="5.40907">
        <ele>488.97</ele>
        <time>2018-06-17T14:28:03Z</time>
      </trkpt>
      <trkpt lat="44.6604" lon="5.40891">
        <ele>488.67</ele>
        <time>2018-06-17T14:28:04Z</time>
      </trkpt>
      <trkpt lat="44.66063" lon="5.40874">
        <ele>487.89</ele>
        <time>2018-06-17T14:28:05Z</time>
      </trkpt>
      <trkpt lat="44.66087" lon="5.40857">
        <ele>487.65</ele>
        <time>2018-06-17T14:28:06Z</time>
      </trkpt>
      <trkpt lat="44.6611" lon="5.40839">
        <ele>487.58</ele>
        <time>2018-06-17T14:28:07Z</time>
      </trkpt>
      <trkpt lat="44.66134" lon="5.40822">
        <ele>486.86</ele>
        <time>2018-06-17T14:28:08Z</time>
      </trkpt>
      <trkpt lat="44.66157" lon="5.40804">
        <ele>486.64</ele>
        <time>2018-06-17T14:28:09Z</time>
      </trkpt>
      <trkpt lat="44.6618" lon="5.40786">
        <ele>486.58</ele>
        <time>2018-06-17T14:28:10Z</time>
      </trkpt>
      <trkpt lat="44.66204" lon="5.40768">
        <ele>485.86</ele>
        <time>2018-06-17T14:28:11Z</time>
      </trkpt>
      <trkpt lat="44.66228" lon="5.40749">
        <ele>485.64</ele>
        <time>2018-06-17T14:28:12Z</time>
      </trkpt>
      <trkpt lat="44.66252" lon="5.40731">
        <ele>485.58</ele>
        <time>2018-06-17T14:28:13Z</time>
      </trkpt>
      <trkpt lat="44.66276" lon="5.40713">
        <ele>485.56</ele>
        <time>2018-06-17T14:28:14Z</time>
      </trkpt>
      <trkpt lat="44.663" lon="5.40695">
        <ele>484.85</ele>
        <time>2018-06-17T14:28:15Z</time>
      </trkpt>
      <trkpt lat="44.66324" lon="5.40677">
        <ele>484.64</ele>
        <time>2018-06-17T14:28:16Z</time>
      </trkpt>
      <trkpt lat="44.66348" lon="5.40658">
        <ele>484.58</ele>
        <time>2018-06-17T14:28:17Z</time>
      </trkpt>
      <trkpt lat="44.66372" lon="5.40641">
        <ele>484.56</ele>
        <time>2018-06-17T14:28:18Z</time>
      </trkpt>
      <trkpt lat="44.66396" lon="5.40623">
        <ele>484.55</ele>
        <time>2018-06-17T14:28:19Z</time>
      </trkpt>
      <trkpt lat="44.66421" lon="5.40605">
        <ele>484.55</ele>
        <time>2018-06-17T14:28:20Z</time>
      </trkpt>
      <trkpt lat="44.66445" lon="5.40585">
        <ele>484.55</ele>
        <time>2018-06-17T14:28:21Z</time>
      </trkpt>
      <trkpt lat="44.66469" lon="5.40566">
        <ele>484.55</ele>
        <time>2018-06-17T14:28:22Z</time>
      </trkpt>
      <trkpt lat="44.66493" lon="5.40549">
        <ele>484.55</ele>
        <time>2018-06-17T14:28:23Z</time>
      </trkpt>
      <trkpt lat="44.66517" lon="5.40531">
        <ele>484.55</ele>
        <time>2018-06-17T14:28:24Z</time>
      </trkpt>
      <trkpt lat="44.66541" lon="5.40512">
        <ele>484.55</ele>
        <time>2018-06-17T14:28:25Z</time>
      </trkpt>
      <trkpt lat="44.66565" lon="5.40495">
        <ele>483.85</ele>
        <time>2018-06-17T14:28:26Z</time>
      </trkpt>
      <trkpt lat="44.66589" lon="5.40477">
        <ele>484.34</ele>
        <time>2018-06-17T14:28:27Z</time>
      </trkpt>
      <trkpt lat="44.66613" lon="5.40461">
        <ele>483.79</ele>
        <time>2018-06-17T14:28:28Z</time>
      </trkpt>
      <trkpt lat="44.66638" lon="5.40447">
        <ele>482.92</ele>
        <time>2018-06-17T14:28:29Z</time>
      </trkpt>
      <trkpt lat="44.66665" lon="5.40436">
        <ele>482.66</ele>
        <time>2018-06-17T14:28:30Z</time>
      </trkpt>
      <trkpt lat="44.66691" lon="5.40429">
        <ele>481.88</ele>
        <time>2018-06-17T14:28:31Z</time>
      </trkpt>
      <trkpt lat="44.66718" lon="5.40422">
        <ele>482.35</ele>
        <time>2018-06-17T14:28:32Z</time>
      </trkpt>
      <trkpt lat="44.66744" lon="5.40415">
        <ele>482.49</ele>
        <time>2018-06-17T14:28:33Z</time>
      </trkpt>
      <trkpt lat="44.6677" lon="5.40406">
        <ele>483.23</ele>
        <time>2018-06-17T14:28:34Z</time>
      </trkpt>
      <trkpt lat="44.66795" lon="5.40398">
        <ele>484.15</ele>
        <time>2018-06-17T14:28:35Z</time>
      </trkpt>
      <trkpt lat="44.6682" lon="5.4039">
        <ele>484.43</ele>
        <time>2018-06-17T14:28:36Z</time>
      </trkpt>
      <trkpt lat="44.66844" lon="5.40383">
        <ele>484.51</ele>
        <time>2018-06-17T14:28:37Z</time>
      </trkpt>
      <trkpt lat="44.66868" lon="5.40376">
        <ele>483.84</ele>
        <time>2018-06-17T14:28:38Z</time>
      </trkpt>
      <trkpt lat="44.66891" lon="5.40368">
        <ele>482.93</ele>
        <time>2018-06-17T14:28:39Z</time>
      </trkpt>
      <trkpt lat="44.66916" lon="5.4036">
        <ele>481.96</ele>
        <time>2018-06-17T14:28:40Z</time>
      </trkpt>
      <trkpt lat="44.66941" lon="5.40351">
        <ele>481.67</ele>
        <time>2018-06-17T14:28:41Z</time>
      </trkpt>
      <trkpt lat="44.66966" lon="5.40342">
        <ele>480.89</ele>
        <time>2018-06-17T14:28:42Z</time>
      </trkpt>
      <trkpt lat="44.66992" lon="5.40333">
        <ele>480.65</ele>
        <time>2018-06-17T14:28:43Z</time>
      </trkpt>
      <trkpt lat="44.67017" lon="5.40325">
        <ele>479.88</ele>
        <time>2018-06-17T14:28:44Z</time>
      </trkpt>
      <trkpt lat="44.67042" lon="5.40319">
        <ele>479.65</ele>
        <time>2018-06-17T14:28:45Z</time>
      </trkpt>
      <trkpt lat="44.67066" lon="5.40313">
        <ele>479.58</ele>
        <time>2018-06-17T14:28:46Z</time>
      </trkpt>
      <trkpt lat="44.67089" lon="5.40307">
        <ele>479.56</ele>
        <time>2018-06-17T14:28:47Z</time>
      </trkpt>
      <trkpt lat="44.67111" lon="5.40301">
        <ele>479.55</ele>
        <time>2018-06-17T14:28:48Z</time>
      </trkpt>
      <trkpt lat="44.67132" lon="5.40294">
        <ele>478.85</ele>
        <time>2018-06-17T14:28:49Z</time>
      </trkpt>
      <trkpt lat="44.67153" lon="5.40288">
        <ele>478.64</ele>
        <time>2018-06-17T14:28:50Z</time>
      </trkpt>
      <trkpt lat="44.67172" lon="5.40281">
        <ele>477.88</ele>
        <time>2018-06-17T14:28:51Z</time>
      </trkpt>
      <trkpt lat="44.67192" lon="5.40274">
        <ele>477.65</ele>
        <time>2018-06-17T14:28:52Z</time>
      </trkpt>
      <trkpt lat="44.6721" lon="5.40268">
        <ele>477.58</ele>
        <time>2018-06-17T14:28:53Z</time>
      </trkpt>
      <trkpt lat="44.67229" lon="5.40262">
        <ele>478.26</ele>
        <time>2018-06-17T14:28:54Z</time>
      </trkpt>
      <trkpt lat="44.67247" lon="5.40255">
        <ele>477.76</ele>
        <time>2018-06-17T14:28:55Z</time>
      </trkpt>
      <trkpt lat="44.67264" lon="5.40245">
        <ele>477.61</ele>
        <time>2018-06-17T14:28:56Z</time>
      </trkpt>
      <trkpt lat="44.67279" lon="5.40231">
        <ele>477.57</ele>
        <time>2018-06-17T14:28:57Z</time>
      </trkpt>
      <trkpt lat="44.67304" lon="5.40197">
        <ele>476.64</ele>
        <time>2018-06-17T14:28:59Z</time>
      </trkpt>
      <trkpt lat="44.67322" lon="5.40158">
        <ele>475.65</ele>
        <time>2018-06-17T14:29:01Z</time>
      </trkpt>
      <trkpt lat="44.67333" lon="5.40128">
        <ele>475.58</ele>
        <time>2018-06-17T14:29:02Z</time>
      </trkpt>
      <trkpt lat="44.67345" lon="5.401">
        <ele>474.86</ele>
        <time>2018-06-17T14:29:03Z</time>
      </trkpt>
      <trkpt lat="44.67356" lon="5.40074">
        <ele>474.64</ele>
        <time>2018-06-17T14:29:04Z</time>
      </trkpt>
      <trkpt lat="44.67367" lon="5.40046">
        <ele>474.58</ele>
        <time>2018-06-17T14:29:05Z</time>
      </trkpt>
      <trkpt lat="44.67379" lon="5.40014">
        <ele>475.26</ele>
        <time>2018-06-17T14:29:06Z</time>
      </trkpt>
      <trkpt lat="44.67393" lon="5.39984">
        <ele>474.76</ele>
        <time>2018-06-17T14:29:07Z</time>
      </trkpt>
      <trkpt lat="44.67408" lon="5.39953">
        <ele>473.91</ele>
        <time>2018-06-17T14:29:08Z</time>
      </trkpt>
      <trkpt lat="44.67422" lon="5.39921">
        <ele>473.66</ele>
        <time>2018-06-17T14:29:09Z</time>
      </trkpt>
      <trkpt lat="44.67437" lon="5.3989">
        <ele>472.88</ele>
        <time>2018-06-17T14:29:10Z</time>
      </trkpt>
      <trkpt lat="44.67451" lon="5.39857">
        <ele>472.65</ele>
        <time>2018-06-17T14:29:11Z</time>
      </trkpt>
      <trkpt lat="44.67465" lon="5.39825">
        <ele>471.88</ele>
        <time>2018-06-17T14:29:12Z</time>
      </trkpt>
      <trkpt lat="44.67479" lon="5.39792">
        <ele>470.95</ele>
        <time>2018-06-17T14:29:13Z</time>
      </trkpt>
      <trkpt lat="44.67494" lon="5.39759">
        <ele>470.67</ele>
        <time>2018-06-17T14:29:14Z</time>
      </trkpt>
      <trkpt lat="44.67508" lon="5.39726">
        <ele>470.58</ele>
        <time>2018-06-17T14:29:15Z</time>
      </trkpt>
      <trkpt lat="44.67522" lon="5.39693">
        <ele>469.86</ele>
        <time>2018-06-17T14:29:16Z</time>
      </trkpt>
      <trkpt lat="44.67537" lon="5.39659">
        <ele>469.64</ele>
        <time>2018-06-17T14:29:17Z</time>
      </trkpt>
      <trkpt lat="44.67551" lon="5.39625">
        <ele>468.88</ele>
        <time>2018-06-17T14:29:18Z</time>
      </trkpt>
      <trkpt lat="44.67565" lon="5.39592">
        <ele>469.35</ele>
        <time>2018-06-17T14:29:19Z</time>
      </trkpt>
      <trkpt lat="44.67578" lon="5.3956">
        <ele>470.19</ele>
        <time>2018-06-17T14:29:20Z</time>
      </trkpt>
      <trkpt lat="44.67593" lon="5.39529">
        <ele>471.14</ele>
        <time>2018-06-17T14:29:21Z</time>
      </trkpt>
      <trkpt lat="44.67607" lon="5.39498">
        <ele>472.13</ele>
        <time>2018-06-17T14:29:22Z</time>
      </trkpt>
      <trkpt lat="44.67627" lon="5.39473">
        <ele>472.42</ele>
        <time>2018-06-17T14:29:23Z</time>
      </trkpt>
      <trkpt lat="44.67647" lon="5.39448">
        <ele>472.51</ele>
        <time>2018-06-17T14:29:24Z</time>
      </trkpt>
      <trkpt lat="44.67669" lon="5.39425">
        <ele>471.84</ele>
        <time>2018-06-17T14:29:25Z</time>
      </trkpt>
      <trkpt lat="44.67691" lon="5.39403">
        <ele>471.63</ele>
        <time>2018-06-17T14:29:26Z</time>
      </trkpt>
      <trkpt lat="44.67717" lon="5.39389">
        <ele>471.57</ele>
        <time>2018-06-17T14:29:27Z</time>
      </trkpt>
      <trkpt lat="44.67743" lon="5.39374">
        <ele>471.56</ele>
        <time>2018-06-17T14:29:28Z</time>
      </trkpt>
      <trkpt lat="44.67769" lon="5.3936">
        <ele>470.85</ele>
        <time>2018-06-17T14:29:29Z</time>
      </trkpt>
      <trkpt lat="44.67794" lon="5.39346">
        <ele>469.94</ele>
        <time>2018-06-17T14:29:30Z</time>
      </trkpt>
      <trkpt lat="44.67819" lon="5.39331">
        <ele>468.97</ele>
        <time>2018-06-17T14:29:31Z</time>
      </trkpt>
      <trkpt lat="44.67844" lon="5.39317">
        <ele>469.37</ele>
        <time>2018-06-17T14:29:32Z</time>
      </trkpt>
      <trkpt lat="44.67869" lon="5.39303">
        <ele>468.8</ele>
        <time>2018-06-17T14:29:33Z</time>
      </trkpt>
      <trkpt lat="44.67896" lon="5.39291">
        <ele>468.62</ele>
        <time>2018-06-17T14:29:34Z</time>
      </trkpt>
      <trkpt lat="44.67923" lon="5.39281">
        <ele>467.87</ele>
        <time>2018-06-17T14:29:35Z</time>
      </trkpt>
      <trkpt lat="44.6795" lon="5.39272">
        <ele>468.34</ele>
        <time>2018-06-17T14:29:36Z</time>
      </trkpt>
      <trkpt lat="44.67977" lon="5.39266">
        <ele>467.79</ele>
        <time>2018-06-17T14:29:37Z</time>
      </trkpt>
      <trkpt lat="44.68004" lon="5.3926">
        <ele>468.32</ele>
        <time>2018-06-17T14:29:38Z</time>
      </trkpt>
      <trkpt lat="44.68031" lon="5.39254">
        <ele>468.48</ele>
        <time>2018-06-17T14:29:39Z</time>
      </trkpt>
      <trkpt lat="44.68058" lon="5.39249">
        <ele>467.83</ele>
        <time>2018-06-17T14:29:40Z</time>
      </trkpt>
      <trkpt lat="44.68084" lon="5.39243">
        <ele>467.63</ele>
        <time>2018-06-17T14:29:41Z</time>
      </trkpt>
      <trkpt lat="44.68109" lon="5.39238">
        <ele>467.57</ele>
        <time>2018-06-17T14:29:42Z</time>
      </trkpt>
      <trkpt lat="44.68136" lon="5.39234">
        <ele>467.56</ele>
        <time>2018-06-17T14:29:43Z</time>
      </trkpt>
      <trkpt lat="44.68162" lon="5.39229">
        <ele>466.85</ele>
        <time>2018-06-17T14:29:44Z</time>
      </trkpt>
      <trkpt lat="44.68188" lon="5.39223">
        <ele>465.94</ele>
        <time>2018-06-17T14:29:45Z</time>
      </trkpt>
      <trkpt lat="44.68215" lon="5.39217">
        <ele>464.97</ele>
        <time>2018-06-17T14:29:46Z</time>
      </trkpt>
      <trkpt lat="44.68242" lon="5.3921">
        <ele>463.97</ele>
        <time>2018-06-17T14:29:47Z</time>
      </trkpt>
      <trkpt lat="44.6827" lon="5.39204">
        <ele>462.98</ele>
        <time>2018-06-17T14:29:48Z</time>
      </trkpt>
      <trkpt lat="44.68298" lon="5.39198">
        <ele>461.98</ele>
        <time>2018-06-17T14:29:49Z</time>
      </trkpt>
      <trkpt lat="44.68326" lon="5.39192">
        <ele>460.98</ele>
        <time>2018-06-17T14:29:50Z</time>
      </trkpt>
      <trkpt lat="44.68353" lon="5.39185">
        <ele>460.68</ele>
        <time>2018-06-17T14:29:51Z</time>
      </trkpt>
      <trkpt lat="44.68381" lon="5.39178">
        <ele>460.59</ele>
        <time>2018-06-17T14:29:52Z</time>
      </trkpt>
      <trkpt lat="44.68408" lon="5.39171">
        <ele>460.56</ele>
        <time>2018-06-17T14:29:53Z</time>
      </trkpt>
      <trkpt lat="44.68435" lon="5.39164">
        <ele>460.55</ele>
        <time>2018-06-17T14:29:54Z</time>
      </trkpt>
      <trkpt lat="44.68462" lon="5.39158">
        <ele>460.55</ele>
        <time>2018-06-17T14:29:55Z</time>
      </trkpt>
      <trkpt lat="44.68489" lon="5.39153">
        <ele>460.55</ele>
        <time>2018-06-17T14:29:56Z</time>
      </trkpt>
      <trkpt lat="44.68515" lon="5.39148">
        <ele>459.85</ele>
        <time>2018-06-17T14:29:57Z</time>
      </trkpt>
      <trkpt lat="44.68541" lon="5.39143">
        <ele>460.34</ele>
        <time>2018-06-17T14:29:58Z</time>
      </trkpt>
      <trkpt lat="44.68565" lon="5.39139">
        <ele>459.79</ele>
        <time>2018-06-17T14:29:59Z</time>
      </trkpt>
      <trkpt lat="44.68588" lon="5.39135">
        <ele>458.92</ele>
        <time>2018-06-17T14:30:00Z</time>
      </trkpt>
      <trkpt lat="44.68609" lon="5.3913">
        <ele>459.36</ele>
        <time>2018-06-17T14:30:01Z</time>
      </trkpt>
      <trkpt lat="44.68629" lon="5.39127">
        <ele>459.49</ele>
        <time>2018-06-17T14:30:02Z</time>
      </trkpt>
      <trkpt lat="44.6865" lon="5.39122">
        <ele>459.53</ele>
        <time>2018-06-17T14:30:03Z</time>
      </trkpt>
      <trkpt lat="44.68673" lon="5.39117">
        <ele>459.54</ele>
        <time>2018-06-17T14:30:04Z</time>
      </trkpt>
      <trkpt lat="44.68698" lon="5.39115">
        <ele>459.55</ele>
        <time>2018-06-17T14:30:05Z</time>
      </trkpt>
      <trkpt lat="44.68722" lon="5.39113">
        <ele>459.55</ele>
        <time>2018-06-17T14:30:06Z</time>
      </trkpt>
      <trkpt lat="44.68747" lon="5.3911">
        <ele>459.55</ele>
        <time>2018-06-17T14:30:07Z</time>
      </trkpt>
      <trkpt lat="44.68773" lon="5.3911">
        <ele>459.55</ele>
        <time>2018-06-17T14:30:08Z</time>
      </trkpt>
      <trkpt lat="44.68798" lon="5.39112">
        <ele>459.55</ele>
        <time>2018-06-17T14:30:09Z</time>
      </trkpt>
      <trkpt lat="44.68823" lon="5.39115">
        <ele>458.85</ele>
        <time>2018-06-17T14:30:10Z</time>
      </trkpt>
      <trkpt lat="44.68849" lon="5.39118">
        <ele>458.64</ele>
        <time>2018-06-17T14:30:11Z</time>
      </trkpt>
      <trkpt lat="44.68877" lon="5.39122">
        <ele>459.27</ele>
        <time>2018-06-17T14:30:12Z</time>
      </trkpt>
      <trkpt lat="44.68905" lon="5.39129">
        <ele>459.47</ele>
        <time>2018-06-17T14:30:13Z</time>
      </trkpt>
      <trkpt lat="44.68936" lon="5.39139">
        <ele>459.52</ele>
        <time>2018-06-17T14:30:14Z</time>
      </trkpt>
      <trkpt lat="44.68965" lon="5.3915">
        <ele>458.84</ele>
        <time>2018-06-17T14:30:15Z</time>
      </trkpt>
      <trkpt lat="44.68994" lon="5.3916">
        <ele>458.64</ele>
        <time>2018-06-17T14:30:16Z</time>
      </trkpt>
      <trkpt lat="44.69023" lon="5.3917">
        <ele>458.57</ele>
        <time>2018-06-17T14:30:17Z</time>
      </trkpt>
      <trkpt lat="44.69052" lon="5.39182">
        <ele>459.26</ele>
        <time>2018-06-17T14:30:18Z</time>
      </trkpt>
      <trkpt lat="44.6908" lon="5.39194">
        <ele>459.46</ele>
        <time>2018-06-17T14:30:19Z</time>
      </trkpt>
      <trkpt lat="44.69108" lon="5.39206">
        <ele>460.22</ele>
        <time>2018-06-17T14:30:20Z</time>
      </trkpt>
      <trkpt lat="44.69136" lon="5.39217">
        <ele>460.45</ele>
        <time>2018-06-17T14:30:21Z</time>
      </trkpt>
      <trkpt lat="44.69163" lon="5.39228">
        <ele>460.52</ele>
        <time>2018-06-17T14:30:22Z</time>
      </trkpt>
      <trkpt lat="44.6919" lon="5.39239">
        <ele>460.54</ele>
        <time>2018-06-17T14:30:23Z</time>
      </trkpt>
      <trkpt lat="44.69218" lon="5.39249">
        <ele>461.25</ele>
        <time>2018-06-17T14:30:24Z</time>
      </trkpt>
      <trkpt lat="44.69245" lon="5.3926">
        <ele>462.16</ele>
        <time>2018-06-17T14:30:25Z</time>
      </trkpt>
      <trkpt lat="44.69272" lon="5.3927">
        <ele>462.43</ele>
        <time>2018-06-17T14:30:26Z</time>
      </trkpt>
      <trkpt lat="44.69298" lon="5.3928">
        <ele>462.51</ele>
        <time>2018-06-17T14:30:27Z</time>
      </trkpt>
      <trkpt lat="44.69325" lon="5.39291">
        <ele>463.24</ele>
        <time>2018-06-17T14:30:28Z</time>
      </trkpt>
      <trkpt lat="44.69352" lon="5.39303">
        <ele>462.75</ele>
        <time>2018-06-17T14:30:29Z</time>
      </trkpt>
      <trkpt lat="44.69378" lon="5.39315">
        <ele>462.61</ele>
        <time>2018-06-17T14:30:30Z</time>
      </trkpt>
      <trkpt lat="44.69404" lon="5.39328">
        <ele>462.57</ele>
        <time>2018-06-17T14:30:31Z</time>
      </trkpt>
      <trkpt lat="44.6943" lon="5.39343">
        <ele>462.55</ele>
        <time>2018-06-17T14:30:32Z</time>
      </trkpt>
      <trkpt lat="44.69456" lon="5.39358">
        <ele>462.55</ele>
        <time>2018-06-17T14:30:33Z</time>
      </trkpt>
      <trkpt lat="44.69482" lon="5.39373">
        <ele>461.85</ele>
        <time>2018-06-17T14:30:34Z</time>
      </trkpt>
      <trkpt lat="44.69509" lon="5.39389">
        <ele>461.64</ele>
        <time>2018-06-17T14:30:35Z</time>
      </trkpt>
      <trkpt lat="44.69535" lon="5.39405">
        <ele>461.58</ele>
        <time>2018-06-17T14:30:36Z</time>
      </trkpt>
      <trkpt lat="44.69562" lon="5.39422">
        <ele>461.56</ele>
        <time>2018-06-17T14:30:37Z</time>
      </trkpt>
      <trkpt lat="44.69587" lon="5.39439">
        <ele>461.55</ele>
        <time>2018-06-17T14:30:38Z</time>
      </trkpt>
      <trkpt lat="44.69614" lon="5.39455">
        <ele>460.85</ele>
        <time>2018-06-17T14:30:39Z</time>
      </trkpt>
      <trkpt lat="44.69639" lon="5.39471">
        <ele>459.94</ele>
        <time>2018-06-17T14:30:40Z</time>
      </trkpt>
      <trkpt lat="44.69664" lon="5.39488">
        <ele>459.67</ele>
        <time>2018-06-17T14:30:41Z</time>
      </trkpt>
      <trkpt lat="44.69689" lon="5.39504">
        <ele>458.88</ele>
        <time>2018-06-17T14:30:42Z</time>
      </trkpt>
      <trkpt lat="44.69713" lon="5.39519">
        <ele>458.65</ele>
        <time>2018-06-17T14:30:43Z</time>
      </trkpt>
      <trkpt lat="44.69738" lon="5.39533">
        <ele>459.28</ele>
        <time>2018-06-17T14:30:44Z</time>
      </trkpt>
      <trkpt lat="44.69762" lon="5.39548">
        <ele>459.47</ele>
        <time>2018-06-17T14:30:45Z</time>
      </trkpt>
      <trkpt lat="44.69786" lon="5.39564">
        <ele>459.52</ele>
        <time>2018-06-17T14:30:46Z</time>
      </trkpt>
      <trkpt lat="44.69811" lon="5.39578">
        <ele>458.84</ele>
        <time>2018-06-17T14:30:47Z</time>
      </trkpt>
      <trkpt lat="44.69837" lon="5.39592">
        <ele>457.94</ele>
        <time>2018-06-17T14:30:48Z</time>
      </trkpt>
      <trkpt lat="44.69864" lon="5.39602">
        <ele>457.66</ele>
        <time>2018-06-17T14:30:49Z</time>
      </trkpt>
      <trkpt lat="44.69891" lon="5.39612">
        <ele>456.88</ele>
        <time>2018-06-17T14:30:50Z</time>
      </trkpt>
      <trkpt lat="44.69918" lon="5.39621">
        <ele>455.95</ele>
        <time>2018-06-17T14:30:51Z</time>
      </trkpt>
      <trkpt lat="44.69945" lon="5.39631">
        <ele>454.27</ele>
        <time>2018-06-17T14:30:52Z</time>
      </trkpt>
      <trkpt lat="44.69973" lon="5.3964">
        <ele>453.06</ele>
        <time>2018-06-17T14:30:53Z</time>
      </trkpt>
      <trkpt lat="44.7" lon="5.39649">
        <ele>452</ele>
        <time>2018-06-17T14:30:54Z</time>
      </trkpt>
      <trkpt lat="44.70028" lon="5.39658">
        <ele>450.98</ele>
        <time>2018-06-17T14:30:55Z</time>
      </trkpt>
      <trkpt lat="44.70056" lon="5.39668">
        <ele>450.68</ele>
        <time>2018-06-17T14:30:56Z</time>
      </trkpt>
      <trkpt lat="44.70083" lon="5.39678">
        <ele>449.89</ele>
        <time>2018-06-17T14:30:57Z</time>
      </trkpt>
      <trkpt lat="44.70111" lon="5.39688">
        <ele>448.95</ele>
        <time>2018-06-17T14:30:58Z</time>
      </trkpt>
      <trkpt lat="44.70138" lon="5.39698">
        <ele>447.97</ele>
        <time>2018-06-17T14:30:59Z</time>
      </trkpt>
      <trkpt lat="44.70165" lon="5.3971">
        <ele>446.97</ele>
        <time>2018-06-17T14:31:00Z</time>
      </trkpt>
      <trkpt lat="44.7019" lon="5.39728">
        <ele>445.98</ele>
        <time>2018-06-17T14:31:01Z</time>
      </trkpt>
      <trkpt lat="44.70215" lon="5.39746">
        <ele>444.98</ele>
        <time>2018-06-17T14:31:02Z</time>
      </trkpt>
      <trkpt lat="44.70241" lon="5.39766">
        <ele>444.68</ele>
        <time>2018-06-17T14:31:03Z</time>
      </trkpt>
      <trkpt lat="44.70264" lon="5.39784">
        <ele>444.59</ele>
        <time>2018-06-17T14:31:04Z</time>
      </trkpt>
      <trkpt lat="44.70288" lon="5.39802">
        <ele>444.56</ele>
        <time>2018-06-17T14:31:05Z</time>
      </trkpt>
      <trkpt lat="44.70312" lon="5.3982">
        <ele>443.85</ele>
        <time>2018-06-17T14:31:06Z</time>
      </trkpt>
      <trkpt lat="44.70335" lon="5.39837">
        <ele>443.64</ele>
        <time>2018-06-17T14:31:07Z</time>
      </trkpt>
      <trkpt lat="44.70359" lon="5.39855">
        <ele>442.88</ele>
        <time>2018-06-17T14:31:08Z</time>
      </trkpt>
      <trkpt lat="44.70383" lon="5.39872">
        <ele>441.95</ele>
        <time>2018-06-17T14:31:09Z</time>
      </trkpt>
      <trkpt lat="44.70407" lon="5.39886">
        <ele>441.67</ele>
        <time>2018-06-17T14:31:10Z</time>
      </trkpt>
      <trkpt lat="44.70432" lon="5.39897">
        <ele>441.58</ele>
        <time>2018-06-17T14:31:11Z</time>
      </trkpt>
      <trkpt lat="44.70457" lon="5.39907">
        <ele>440.86</ele>
        <time>2018-06-17T14:31:12Z</time>
      </trkpt>
      <trkpt lat="44.70482" lon="5.39916">
        <ele>439.94</ele>
        <time>2018-06-17T14:31:13Z</time>
      </trkpt>
      <trkpt lat="44.70508" lon="5.39924">
        <ele>439.67</ele>
        <time>2018-06-17T14:31:14Z</time>
      </trkpt>
      <trkpt lat="44.70533" lon="5.39933">
        <ele>439.58</ele>
        <time>2018-06-17T14:31:15Z</time>
      </trkpt>
      <trkpt lat="44.70558" lon="5.39941">
        <ele>439.56</ele>
        <time>2018-06-17T14:31:16Z</time>
      </trkpt>
      <trkpt lat="44.70582" lon="5.3995">
        <ele>438.85</ele>
        <time>2018-06-17T14:31:17Z</time>
      </trkpt>
      <trkpt lat="44.70606" lon="5.39957">
        <ele>438.64</ele>
        <time>2018-06-17T14:31:18Z</time>
      </trkpt>
      <trkpt lat="44.70628" lon="5.39964">
        <ele>438.58</ele>
        <time>2018-06-17T14:31:19Z</time>
      </trkpt>
      <trkpt lat="44.70649" lon="5.39971">
        <ele>438.56</ele>
        <time>2018-06-17T14:31:20Z</time>
      </trkpt>
      <trkpt lat="44.70669" lon="5.39977">
        <ele>438.55</ele>
        <time>2018-06-17T14:31:21Z</time>
      </trkpt>
      <trkpt lat="44.70687" lon="5.39983">
        <ele>437.85</ele>
        <time>2018-06-17T14:31:22Z</time>
      </trkpt>
      <trkpt lat="44.70722" lon="5.39995">
        <ele>436.88</ele>
        <time>2018-06-17T14:31:24Z</time>
      </trkpt>
      <trkpt lat="44.70756" lon="5.40008">
        <ele>434.97</ele>
        <time>2018-06-17T14:31:26Z</time>
      </trkpt>
      <trkpt lat="44.70786" lon="5.4003">
        <ele>434.59</ele>
        <time>2018-06-17T14:31:28Z</time>
      </trkpt>
      <trkpt lat="44.70803" lon="5.40064">
        <ele>434.55</ele>
        <time>2018-06-17T14:31:30Z</time>
      </trkpt>
      <trkpt lat="44.70814" lon="5.40094">
        <ele>435.46</ele>
        <time>2018-06-17T14:31:32Z</time>
      </trkpt>
      <trkpt lat="44.7083" lon="5.40117">
        <ele>435.54</ele>
        <time>2018-06-17T14:31:34Z</time>
      </trkpt>
      <trkpt lat="44.70853" lon="5.40131">
        <ele>436.46</ele>
        <time>2018-06-17T14:31:36Z</time>
      </trkpt>
      <trkpt lat="44.70876" lon="5.40141">
        <ele>436.75</ele>
        <time>2018-06-17T14:31:38Z</time>
      </trkpt>
      <trkpt lat="44.70899" lon="5.40151">
        <ele>437.48</ele>
        <time>2018-06-17T14:31:40Z</time>
      </trkpt>
      <trkpt lat="44.70921" lon="5.40161">
        <ele>437.75</ele>
        <time>2018-06-17T14:31:42Z</time>
      </trkpt>
      <trkpt lat="44.70944" lon="5.4017">
        <ele>439.18</ele>
        <time>2018-06-17T14:31:44Z</time>
      </trkpt>
      <trkpt lat="44.70968" lon="5.40178">
        <ele>438.6</ele>
        <time>2018-06-17T14:31:46Z</time>
      </trkpt>
      <trkpt lat="44.70993" lon="5.40185">
        <ele>437.15</ele>
        <time>2018-06-17T14:31:48Z</time>
      </trkpt>
      <trkpt lat="44.71018" lon="5.40191">
        <ele>437.51</ele>
        <time>2018-06-17T14:31:50Z</time>
      </trkpt>
      <trkpt lat="44.71044" lon="5.40196">
        <ele>437.75</ele>
        <time>2018-06-17T14:31:52Z</time>
      </trkpt>
      <trkpt lat="44.7107" lon="5.40198">
        <ele>438.27</ele>
        <time>2018-06-17T14:31:54Z</time>
      </trkpt>
      <trkpt lat="44.71094" lon="5.402">
        <ele>438.52</ele>
        <time>2018-06-17T14:31:56Z</time>
      </trkpt>
      <trkpt lat="44.71115" lon="5.40199">
        <ele>439.46</ele>
        <time>2018-06-17T14:31:58Z</time>
      </trkpt>
      <trkpt lat="44.71134" lon="5.40196">
        <ele>440.45</ele>
        <time>2018-06-17T14:32:00Z</time>
      </trkpt>
      <trkpt lat="44.71152" lon="5.40193">
        <ele>441.45</ele>
        <time>2018-06-17T14:32:02Z</time>
      </trkpt>
      <trkpt lat="44.71172" lon="5.40189">
        <ele>441.55</ele>
        <time>2018-06-17T14:32:05Z</time>
      </trkpt>
      <trkpt lat="44.71191" lon="5.40188">
        <ele>445.03</ele>
        <time>2018-06-17T14:32:44Z</time>
      </trkpt>
      <trkpt lat="44.71214" lon="5.40179">
        <ele>444.56</ele>
        <time>2018-06-17T14:32:47Z</time>
      </trkpt>
      <trkpt lat="44.71231" lon="5.40175">
        <ele>442.94</ele>
        <time>2018-06-17T14:32:49Z</time>
      </trkpt>
      <trkpt lat="44.71252" lon="5.40172">
        <ele>441.18</ele>
        <time>2018-06-17T14:32:51Z</time>
      </trkpt>
      <trkpt lat="44.71275" lon="5.40166">
        <ele>441.31</ele>
        <time>2018-06-17T14:32:53Z</time>
      </trkpt>
      <trkpt lat="44.71299" lon="5.40158">
        <ele>440.83</ele>
        <time>2018-06-17T14:32:55Z</time>
      </trkpt>
      <trkpt lat="44.71327" lon="5.40149">
        <ele>440.57</ele>
        <time>2018-06-17T14:32:57Z</time>
      </trkpt>
      <trkpt lat="44.71358" lon="5.40138">
        <ele>439.85</ele>
        <time>2018-06-17T14:32:59Z</time>
      </trkpt>
      <trkpt lat="44.71391" lon="5.40126">
        <ele>440.49</ele>
        <time>2018-06-17T14:33:01Z</time>
      </trkpt>
      <trkpt lat="44.71425" lon="5.40116">
        <ele>439.63</ele>
        <time>2018-06-17T14:33:03Z</time>
      </trkpt>
      <trkpt lat="44.71443" lon="5.40111">
        <ele>439.57</ele>
        <time>2018-06-17T14:33:04Z</time>
      </trkpt>
      <trkpt lat="44.71461" lon="5.40105">
        <ele>439.56</ele>
        <time>2018-06-17T14:33:05Z</time>
      </trkpt>
      <trkpt lat="44.71478" lon="5.40099">
        <ele>439.55</ele>
        <time>2018-06-17T14:33:06Z</time>
      </trkpt>
      <trkpt lat="44.71497" lon="5.40093">
        <ele>439.55</ele>
        <time>2018-06-17T14:33:07Z</time>
      </trkpt>
      <trkpt lat="44.71517" lon="5.40085">
        <ele>440.25</ele>
        <time>2018-06-17T14:33:08Z</time>
      </trkpt>
      <trkpt lat="44.71539" lon="5.40078">
        <ele>440.46</ele>
        <time>2018-06-17T14:33:09Z</time>
      </trkpt>
      <trkpt lat="44.7156" lon="5.40071">
        <ele>440.52</ele>
        <time>2018-06-17T14:33:10Z</time>
      </trkpt>
      <trkpt lat="44.71581" lon="5.40064">
        <ele>440.54</ele>
        <time>2018-06-17T14:33:11Z</time>
      </trkpt>
      <trkpt lat="44.71602" lon="5.40058">
        <ele>439.85</ele>
        <time>2018-06-17T14:33:12Z</time>
      </trkpt>
      <trkpt lat="44.71624" lon="5.40051">
        <ele>438.94</ele>
        <time>2018-06-17T14:33:13Z</time>
      </trkpt>
      <trkpt lat="44.71645" lon="5.40045">
        <ele>438.66</ele>
        <time>2018-06-17T14:33:14Z</time>
      </trkpt>
      <trkpt lat="44.71666" lon="5.40038">
        <ele>439.28</ele>
        <time>2018-06-17T14:33:15Z</time>
      </trkpt>
      <trkpt lat="44.71689" lon="5.40031">
        <ele>438.77</ele>
        <time>2018-06-17T14:33:16Z</time>
      </trkpt>
      <trkpt lat="44.71711" lon="5.40024">
        <ele>437.91</ele>
        <time>2018-06-17T14:33:17Z</time>
      </trkpt>
      <trkpt lat="44.71734" lon="5.40016">
        <ele>437.66</ele>
        <time>2018-06-17T14:33:18Z</time>
      </trkpt>
      <trkpt lat="44.71757" lon="5.40007">
        <ele>437.58</ele>
        <time>2018-06-17T14:33:19Z</time>
      </trkpt>
      <trkpt lat="44.7178" lon="5.39998">
        <ele>437.56</ele>
        <time>2018-06-17T14:33:20Z</time>
      </trkpt>
      <trkpt lat="44.71803" lon="5.3999">
        <ele>436.85</ele>
        <time>2018-06-17T14:33:21Z</time>
      </trkpt>
      <trkpt lat="44.71827" lon="5.39983">
        <ele>437.34</ele>
        <time>2018-06-17T14:33:22Z</time>
      </trkpt>
      <trkpt lat="44.71851" lon="5.39975">
        <ele>436.79</ele>
        <time>2018-06-17T14:33:23Z</time>
      </trkpt>
      <trkpt lat="44.71875" lon="5.39967">
        <ele>436.62</ele>
        <time>2018-06-17T14:33:24Z</time>
      </trkpt>
      <trkpt lat="44.71899" lon="5.39959">
        <ele>435.87</ele>
        <time>2018-06-17T14:33:25Z</time>
      </trkpt>
      <trkpt lat="44.71924" lon="5.39951">
        <ele>435.64</ele>
        <time>2018-06-17T14:33:26Z</time>
      </trkpt>
      <trkpt lat="44.71948" lon="5.39944">
        <ele>435.58</ele>
        <time>2018-06-17T14:33:27Z</time>
      </trkpt>
      <trkpt lat="44.71973" lon="5.39936">
        <ele>435.56</ele>
        <time>2018-06-17T14:33:28Z</time>
      </trkpt>
      <trkpt lat="44.71998" lon="5.39927">
        <ele>435.55</ele>
        <time>2018-06-17T14:33:29Z</time>
      </trkpt>
      <trkpt lat="44.72023" lon="5.3992">
        <ele>435.55</ele>
        <time>2018-06-17T14:33:30Z</time>
      </trkpt>
      <trkpt lat="44.72048" lon="5.39912">
        <ele>434.85</ele>
        <time>2018-06-17T14:33:31Z</time>
      </trkpt>
      <trkpt lat="44.72075" lon="5.39905">
        <ele>433.94</ele>
        <time>2018-06-17T14:33:32Z</time>
      </trkpt>
      <trkpt lat="44.721" lon="5.39898">
        <ele>433.67</ele>
        <time>2018-06-17T14:33:33Z</time>
      </trkpt>
      <trkpt lat="44.72125" lon="5.39891">
        <ele>432.88</ele>
        <time>2018-06-17T14:33:34Z</time>
      </trkpt>
      <trkpt lat="44.72151" lon="5.39884">
        <ele>431.95</ele>
        <time>2018-06-17T14:33:35Z</time>
      </trkpt>
      <trkpt lat="44.72177" lon="5.39877">
        <ele>430.97</ele>
        <time>2018-06-17T14:33:36Z</time>
      </trkpt>
      <trkpt lat="44.72203" lon="5.3987">
        <ele>429.97</ele>
        <time>2018-06-17T14:33:37Z</time>
      </trkpt>
      <trkpt lat="44.72229" lon="5.39863">
        <ele>428.28</ele>
        <time>2018-06-17T14:33:38Z</time>
      </trkpt>
      <trkpt lat="44.72254" lon="5.39857">
        <ele>427.77</ele>
        <time>2018-06-17T14:33:39Z</time>
      </trkpt>
      <trkpt lat="44.72278" lon="5.39851">
        <ele>426.91</ele>
        <time>2018-06-17T14:33:40Z</time>
      </trkpt>
      <trkpt lat="44.72301" lon="5.39845">
        <ele>426.66</ele>
        <time>2018-06-17T14:33:41Z</time>
      </trkpt>
      <trkpt lat="44.72322" lon="5.39839">
        <ele>426.58</ele>
        <time>2018-06-17T14:33:42Z</time>
      </trkpt>
      <trkpt lat="44.72343" lon="5.39833">
        <ele>426.56</ele>
        <time>2018-06-17T14:33:43Z</time>
      </trkpt>
      <trkpt lat="44.72362" lon="5.39827">
        <ele>426.55</ele>
        <time>2018-06-17T14:33:44Z</time>
      </trkpt>
      <trkpt lat="44.72382" lon="5.39821">
        <ele>425.85</ele>
        <time>2018-06-17T14:33:45Z</time>
      </trkpt>
      <trkpt lat="44.724" lon="5.39815">
        <ele>425.64</ele>
        <time>2018-06-17T14:33:46Z</time>
      </trkpt>
      <trkpt lat="44.72417" lon="5.3981">
        <ele>426.28</ele>
        <time>2018-06-17T14:33:47Z</time>
      </trkpt>
      <trkpt lat="44.72435" lon="5.39803">
        <ele>426.47</ele>
        <time>2018-06-17T14:33:48Z</time>
      </trkpt>
      <trkpt lat="44.72454" lon="5.39794">
        <ele>426.52</ele>
        <time>2018-06-17T14:33:49Z</time>
      </trkpt>
      <trkpt lat="44.72473" lon="5.39782">
        <ele>425.84</ele>
        <time>2018-06-17T14:33:50Z</time>
      </trkpt>
      <trkpt lat="44.72492" lon="5.39769">
        <ele>425.64</ele>
        <time>2018-06-17T14:33:51Z</time>
      </trkpt>
      <trkpt lat="44.7251" lon="5.39754">
        <ele>425.57</ele>
        <time>2018-06-17T14:33:52Z</time>
      </trkpt>
      <trkpt lat="44.72527" lon="5.39738">
        <ele>426.26</ele>
        <time>2018-06-17T14:33:53Z</time>
      </trkpt>
      <trkpt lat="44.72543" lon="5.39721">
        <ele>426.46</ele>
        <time>2018-06-17T14:33:54Z</time>
      </trkpt>
      <trkpt lat="44.72557" lon="5.39702">
        <ele>426.52</ele>
        <time>2018-06-17T14:33:55Z</time>
      </trkpt>
      <trkpt lat="44.7257" lon="5.39682">
        <ele>426.54</ele>
        <time>2018-06-17T14:33:56Z</time>
      </trkpt>
      <trkpt lat="44.72583" lon="5.39663">
        <ele>426.55</ele>
        <time>2018-06-17T14:33:57Z</time>
      </trkpt>
      <trkpt lat="44.72595" lon="5.39643">
        <ele>426.55</ele>
        <time>2018-06-17T14:33:58Z</time>
      </trkpt>
      <trkpt lat="44.72607" lon="5.39621">
        <ele>426.55</ele>
        <time>2018-06-17T14:33:59Z</time>
      </trkpt>
      <trkpt lat="44.72618" lon="5.39601">
        <ele>426.55</ele>
        <time>2018-06-17T14:34:00Z</time>
      </trkpt>
      <trkpt lat="44.72639" lon="5.39564">
        <ele>426.55</ele>
        <time>2018-06-17T14:34:02Z</time>
      </trkpt>
      <trkpt lat="44.72662" lon="5.3954">
        <ele>426.55</ele>
        <time>2018-06-17T14:34:04Z</time>
      </trkpt>
      <trkpt lat="44.72686" lon="5.39524">
        <ele>426.55</ele>
        <time>2018-06-17T14:34:06Z</time>
      </trkpt>
      <trkpt lat="44.72706" lon="5.395">
        <ele>426.55</ele>
        <time>2018-06-17T14:34:08Z</time>
      </trkpt>
      <trkpt lat="44.72705" lon="5.3947">
        <ele>426.55</ele>
        <time>2018-06-17T14:34:09Z</time>
      </trkpt>
      <trkpt lat="44.72718" lon="5.39423">
        <ele>426.55</ele>
        <time>2018-06-17T14:34:11Z</time>
      </trkpt>
      <trkpt lat="44.72729" lon="5.39403">
        <ele>425.85</ele>
        <time>2018-06-17T14:34:12Z</time>
      </trkpt>
      <trkpt lat="44.7274" lon="5.39382">
        <ele>425.64</ele>
        <time>2018-06-17T14:34:13Z</time>
      </trkpt>
      <trkpt lat="44.72752" lon="5.39361">
        <ele>425.58</ele>
        <time>2018-06-17T14:34:14Z</time>
      </trkpt>
      <trkpt lat="44.72763" lon="5.3934">
        <ele>425.56</ele>
        <time>2018-06-17T14:34:15Z</time>
      </trkpt>
      <trkpt lat="44.72775" lon="5.39318">
        <ele>426.25</ele>
        <time>2018-06-17T14:34:16Z</time>
      </trkpt>
      <trkpt lat="44.72787" lon="5.39296">
        <ele>425.76</ele>
        <time>2018-06-17T14:34:17Z</time>
      </trkpt>
      <trkpt lat="44.72799" lon="5.39274">
        <ele>426.31</ele>
        <time>2018-06-17T14:34:18Z</time>
      </trkpt>
      <trkpt lat="44.72811" lon="5.39253">
        <ele>426.48</ele>
        <time>2018-06-17T14:34:19Z</time>
      </trkpt>
      <trkpt lat="44.72824" lon="5.39234">
        <ele>425.83</ele>
        <time>2018-06-17T14:34:20Z</time>
      </trkpt>
      <trkpt lat="44.7284" lon="5.39218">
        <ele>425.63</ele>
        <time>2018-06-17T14:34:21Z</time>
      </trkpt>
      <trkpt lat="44.72858" lon="5.39209">
        <ele>426.27</ele>
        <time>2018-06-17T14:34:22Z</time>
      </trkpt>
      <trkpt lat="44.72878" lon="5.39204">
        <ele>425.77</ele>
        <time>2018-06-17T14:34:23Z</time>
      </trkpt>
      <trkpt lat="44.729" lon="5.39206">
        <ele>425.61</ele>
        <time>2018-06-17T14:34:24Z</time>
      </trkpt>
      <trkpt lat="44.72924" lon="5.39211">
        <ele>424.87</ele>
        <time>2018-06-17T14:34:25Z</time>
      </trkpt>
      <trkpt lat="44.72948" lon="5.39216">
        <ele>424.64</ele>
        <time>2018-06-17T14:34:26Z</time>
      </trkpt>
      <trkpt lat="44.72974" lon="5.39219">
        <ele>424.58</ele>
        <time>2018-06-17T14:34:27Z</time>
      </trkpt>
      <trkpt lat="44.73" lon="5.39217">
        <ele>423.86</ele>
        <time>2018-06-17T14:34:28Z</time>
      </trkpt>
      <trkpt lat="44.73027" lon="5.39209">
        <ele>423.64</ele>
        <time>2018-06-17T14:34:29Z</time>
      </trkpt>
      <trkpt lat="44.73053" lon="5.39197">
        <ele>423.58</ele>
        <time>2018-06-17T14:34:30Z</time>
      </trkpt>
      <trkpt lat="44.7308" lon="5.39184">
        <ele>423.56</ele>
        <time>2018-06-17T14:34:31Z</time>
      </trkpt>
      <trkpt lat="44.73106" lon="5.39171">
        <ele>423.55</ele>
        <time>2018-06-17T14:34:32Z</time>
      </trkpt>
      <trkpt lat="44.73131" lon="5.39158">
        <ele>423.55</ele>
        <time>2018-06-17T14:34:33Z</time>
      </trkpt>
      <trkpt lat="44.73155" lon="5.39145">
        <ele>422.85</ele>
        <time>2018-06-17T14:34:34Z</time>
      </trkpt>
      <trkpt lat="44.73179" lon="5.39131">
        <ele>422.64</ele>
        <time>2018-06-17T14:34:35Z</time>
      </trkpt>
      <trkpt lat="44.73202" lon="5.39118">
        <ele>423.28</ele>
        <time>2018-06-17T14:34:36Z</time>
      </trkpt>
      <trkpt lat="44.73226" lon="5.39106">
        <ele>423.47</ele>
        <time>2018-06-17T14:34:37Z</time>
      </trkpt>
      <trkpt lat="44.73251" lon="5.39093">
        <ele>422.12</ele>
        <time>2018-06-17T14:34:38Z</time>
      </trkpt>
      <trkpt lat="44.73276" lon="5.39081">
        <ele>421.72</ele>
        <time>2018-06-17T14:34:39Z</time>
      </trkpt>
      <trkpt lat="44.733" lon="5.39068">
        <ele>421.6</ele>
        <time>2018-06-17T14:34:40Z</time>
      </trkpt>
      <trkpt lat="44.73324" lon="5.39055">
        <ele>421.56</ele>
        <time>2018-06-17T14:34:41Z</time>
      </trkpt>
      <trkpt lat="44.73348" lon="5.39042">
        <ele>421.55</ele>
        <time>2018-06-17T14:34:42Z</time>
      </trkpt>
      <trkpt lat="44.73372" lon="5.3903">
        <ele>421.55</ele>
        <time>2018-06-17T14:34:43Z</time>
      </trkpt>
      <trkpt lat="44.73397" lon="5.39017">
        <ele>421.55</ele>
        <time>2018-06-17T14:34:44Z</time>
      </trkpt>
      <trkpt lat="44.73421" lon="5.39004">
        <ele>420.85</ele>
        <time>2018-06-17T14:34:45Z</time>
      </trkpt>
      <trkpt lat="44.73444" lon="5.38991">
        <ele>420.64</ele>
        <time>2018-06-17T14:34:46Z</time>
      </trkpt>
      <trkpt lat="44.73468" lon="5.38977">
        <ele>420.58</ele>
        <time>2018-06-17T14:34:47Z</time>
      </trkpt>
      <trkpt lat="44.73491" lon="5.38964">
        <ele>420.56</ele>
        <time>2018-06-17T14:34:48Z</time>
      </trkpt>
      <trkpt lat="44.73515" lon="5.38951">
        <ele>419.85</ele>
        <time>2018-06-17T14:34:49Z</time>
      </trkpt>
      <trkpt lat="44.73539" lon="5.38938">
        <ele>419.64</ele>
        <time>2018-06-17T14:34:50Z</time>
      </trkpt>
      <trkpt lat="44.73563" lon="5.38925">
        <ele>419.58</ele>
        <time>2018-06-17T14:34:51Z</time>
      </trkpt>
      <trkpt lat="44.73587" lon="5.38913">
        <ele>419.56</ele>
        <time>2018-06-17T14:34:52Z</time>
      </trkpt>
      <trkpt lat="44.73611" lon="5.38899">
        <ele>420.25</ele>
        <time>2018-06-17T14:34:53Z</time>
      </trkpt>
      <trkpt lat="44.73636" lon="5.38886">
        <ele>420.46</ele>
        <time>2018-06-17T14:34:54Z</time>
      </trkpt>
      <trkpt lat="44.7366" lon="5.38872">
        <ele>419.82</ele>
        <time>2018-06-17T14:34:55Z</time>
      </trkpt>
      <trkpt lat="44.73685" lon="5.38858">
        <ele>420.33</ele>
        <time>2018-06-17T14:34:56Z</time>
      </trkpt>
      <trkpt lat="44.7371" lon="5.38844">
        <ele>419.78</ele>
        <time>2018-06-17T14:34:57Z</time>
      </trkpt>
      <trkpt lat="44.73735" lon="5.3883">
        <ele>419.62</ele>
        <time>2018-06-17T14:34:58Z</time>
      </trkpt>
      <trkpt lat="44.73759" lon="5.38816">
        <ele>419.57</ele>
        <time>2018-06-17T14:34:59Z</time>
      </trkpt>
      <trkpt lat="44.73784" lon="5.38803">
        <ele>419.55</ele>
        <time>2018-06-17T14:35:00Z</time>
      </trkpt>
      <trkpt lat="44.73808" lon="5.3879">
        <ele>418.85</ele>
        <time>2018-06-17T14:35:01Z</time>
      </trkpt>
      <trkpt lat="44.73833" lon="5.38776">
        <ele>419.34</ele>
        <time>2018-06-17T14:35:02Z</time>
      </trkpt>
      <trkpt lat="44.73858" lon="5.38763">
        <ele>419.49</ele>
        <time>2018-06-17T14:35:03Z</time>
      </trkpt>
      <trkpt lat="44.73883" lon="5.3875">
        <ele>419.53</ele>
        <time>2018-06-17T14:35:04Z</time>
      </trkpt>
      <trkpt lat="44.73907" lon="5.38736">
        <ele>419.54</ele>
        <time>2018-06-17T14:35:05Z</time>
      </trkpt>
      <trkpt lat="44.73932" lon="5.38723">
        <ele>419.55</ele>
        <time>2018-06-17T14:35:06Z</time>
      </trkpt>
      <trkpt lat="44.73956" lon="5.38709">
        <ele>419.55</ele>
        <time>2018-06-17T14:35:07Z</time>
      </trkpt>
      <trkpt lat="44.73981" lon="5.38696">
        <ele>418.85</ele>
        <time>2018-06-17T14:35:08Z</time>
      </trkpt>
      <trkpt lat="44.74005" lon="5.38683">
        <ele>419.34</ele>
        <time>2018-06-17T14:35:09Z</time>
      </trkpt>
      <trkpt lat="44.7403" lon="5.38671">
        <ele>419.48</ele>
        <time>2018-06-17T14:35:10Z</time>
      </trkpt>
      <trkpt lat="44.74055" lon="5.38661">
        <ele>419.53</ele>
        <time>2018-06-17T14:35:11Z</time>
      </trkpt>
      <trkpt lat="44.74079" lon="5.38653">
        <ele>418.84</ele>
        <time>2018-06-17T14:35:12Z</time>
      </trkpt>
      <trkpt lat="44.74106" lon="5.38647">
        <ele>417.94</ele>
        <time>2018-06-17T14:35:13Z</time>
      </trkpt>
      <trkpt lat="44.74131" lon="5.38639">
        <ele>417.66</ele>
        <time>2018-06-17T14:35:14Z</time>
      </trkpt>
      <trkpt lat="44.74157" lon="5.38634">
        <ele>416.88</ele>
        <time>2018-06-17T14:35:15Z</time>
      </trkpt>
      <trkpt lat="44.74183" lon="5.38626">
        <ele>416.65</ele>
        <time>2018-06-17T14:35:16Z</time>
      </trkpt>
      <trkpt lat="44.74208" lon="5.38618">
        <ele>415.88</ele>
        <time>2018-06-17T14:35:17Z</time>
      </trkpt>
      <trkpt lat="44.74233" lon="5.3861">
        <ele>415.65</ele>
        <time>2018-06-17T14:35:18Z</time>
      </trkpt>
      <trkpt lat="44.74259" lon="5.38604">
        <ele>414.88</ele>
        <time>2018-06-17T14:35:19Z</time>
      </trkpt>
      <trkpt lat="44.74285" lon="5.38597">
        <ele>413.95</ele>
        <time>2018-06-17T14:35:20Z</time>
      </trkpt>
      <trkpt lat="44.74311" lon="5.3859">
        <ele>412.97</ele>
        <time>2018-06-17T14:35:21Z</time>
      </trkpt>
      <trkpt lat="44.74336" lon="5.38583">
        <ele>411.97</ele>
        <time>2018-06-17T14:35:22Z</time>
      </trkpt>
      <trkpt lat="44.74362" lon="5.38575">
        <ele>410.98</ele>
        <time>2018-06-17T14:35:23Z</time>
      </trkpt>
      <trkpt lat="44.74387" lon="5.38568">
        <ele>410.68</ele>
        <time>2018-06-17T14:35:24Z</time>
      </trkpt>
      <trkpt lat="44.74412" lon="5.38562">
        <ele>410.59</ele>
        <time>2018-06-17T14:35:25Z</time>
      </trkpt>
      <trkpt lat="44.74436" lon="5.38554">
        <ele>410.56</ele>
        <time>2018-06-17T14:35:26Z</time>
      </trkpt>
      <trkpt lat="44.74459" lon="5.38546">
        <ele>409.85</ele>
        <time>2018-06-17T14:35:27Z</time>
      </trkpt>
      <trkpt lat="44.74482" lon="5.38535">
        <ele>409.64</ele>
        <time>2018-06-17T14:35:28Z</time>
      </trkpt>
      <trkpt lat="44.74503" lon="5.38523">
        <ele>409.58</ele>
        <time>2018-06-17T14:35:29Z</time>
      </trkpt>
      <trkpt lat="44.74522" lon="5.38511">
        <ele>409.56</ele>
        <time>2018-06-17T14:35:30Z</time>
      </trkpt>
      <trkpt lat="44.74542" lon="5.38498">
        <ele>409.55</ele>
        <time>2018-06-17T14:35:31Z</time>
      </trkpt>
      <trkpt lat="44.7456" lon="5.38484">
        <ele>409.55</ele>
        <time>2018-06-17T14:35:32Z</time>
      </trkpt>
      <trkpt lat="44.74577" lon="5.3847">
        <ele>409.55</ele>
        <time>2018-06-17T14:35:33Z</time>
      </trkpt>
      <trkpt lat="44.74593" lon="5.38455">
        <ele>409.55</ele>
        <time>2018-06-17T14:35:34Z</time>
      </trkpt>
      <trkpt lat="44.74608" lon="5.38439">
        <ele>409.55</ele>
        <time>2018-06-17T14:35:35Z</time>
      </trkpt>
      <trkpt lat="44.74623" lon="5.38421">
        <ele>409.55</ele>
        <time>2018-06-17T14:35:36Z</time>
      </trkpt>
      <trkpt lat="44.74637" lon="5.38402">
        <ele>409.55</ele>
        <time>2018-06-17T14:35:37Z</time>
      </trkpt>
      <trkpt lat="44.7465" lon="5.38381">
        <ele>408.85</ele>
        <time>2018-06-17T14:35:38Z</time>
      </trkpt>
      <trkpt lat="44.74662" lon="5.3836">
        <ele>409.34</ele>
        <time>2018-06-17T14:35:39Z</time>
      </trkpt>
      <trkpt lat="44.74674" lon="5.38337">
        <ele>408.79</ele>
        <time>2018-06-17T14:35:40Z</time>
      </trkpt>
      <trkpt lat="44.74686" lon="5.38317">
        <ele>407.92</ele>
        <time>2018-06-17T14:35:41Z</time>
      </trkpt>
      <trkpt lat="44.74698" lon="5.38296">
        <ele>407.66</ele>
        <time>2018-06-17T14:35:42Z</time>
      </trkpt>
      <trkpt lat="44.7471" lon="5.38276">
        <ele>407.58</ele>
        <time>2018-06-17T14:35:43Z</time>
      </trkpt>
      <trkpt lat="44.74722" lon="5.38255">
        <ele>407.56</ele>
        <time>2018-06-17T14:35:44Z</time>
      </trkpt>
      <trkpt lat="44.74734" lon="5.38235">
        <ele>407.55</ele>
        <time>2018-06-17T14:35:45Z</time>
      </trkpt>
      <trkpt lat="44.74756" lon="5.38197">
        <ele>407.55</ele>
        <time>2018-06-17T14:35:47Z</time>
      </trkpt>
      <trkpt lat="44.74778" lon="5.38158">
        <ele>407.55</ele>
        <time>2018-06-17T14:35:49Z</time>
      </trkpt>
      <trkpt lat="44.7479" lon="5.38138">
        <ele>406.85</ele>
        <time>2018-06-17T14:35:50Z</time>
      </trkpt>
      <trkpt lat="44.74801" lon="5.38119">
        <ele>406.64</ele>
        <time>2018-06-17T14:35:51Z</time>
      </trkpt>
      <trkpt lat="44.74822" lon="5.3808">
        <ele>406.56</ele>
        <time>2018-06-17T14:35:53Z</time>
      </trkpt>
      <trkpt lat="44.74833" lon="5.38041">
        <ele>404.94</ele>
        <time>2018-06-17T14:35:55Z</time>
      </trkpt>
      <trkpt lat="44.74837" lon="5.38005">
        <ele>403.88</ele>
        <time>2018-06-17T14:35:57Z</time>
      </trkpt>
      <trkpt lat="44.74843" lon="5.37978">
        <ele>403.58</ele>
        <time>2018-06-17T14:35:59Z</time>
      </trkpt>
      <trkpt lat="44.74862" lon="5.37959">
        <ele>403.55</ele>
        <time>2018-06-17T14:36:02Z</time>
      </trkpt>
      <trkpt lat="44.74881" lon="5.37954">
        <ele>403.55</ele>
        <time>2018-06-17T14:36:04Z</time>
      </trkpt>
      <trkpt lat="44.74902" lon="5.37939">
        <ele>403.55</ele>
        <time>2018-06-17T14:36:06Z</time>
      </trkpt>
      <trkpt lat="44.74922" lon="5.37907">
        <ele>404.46</ele>
        <time>2018-06-17T14:36:08Z</time>
      </trkpt>
      <trkpt lat="44.74944" lon="5.37868">
        <ele>404.54</ele>
        <time>2018-06-17T14:36:10Z</time>
      </trkpt>
      <trkpt lat="44.74956" lon="5.37848">
        <ele>404.55</ele>
        <time>2018-06-17T14:36:11Z</time>
      </trkpt>
      <trkpt lat="44.74967" lon="5.37828">
        <ele>404.55</ele>
        <time>2018-06-17T14:36:12Z</time>
      </trkpt>
      <trkpt lat="44.74989" lon="5.37789">
        <ele>404.55</ele>
        <time>2018-06-17T14:36:14Z</time>
      </trkpt>
      <trkpt lat="44.75011" lon="5.37753">
        <ele>405.6</ele>
        <time>2018-06-17T14:36:16Z</time>
      </trkpt>
      <trkpt lat="44.75031" lon="5.37718">
        <ele>406.92</ele>
        <time>2018-06-17T14:36:18Z</time>
      </trkpt>
      <trkpt lat="44.75052" lon="5.37684">
        <ele>407.74</ele>
        <time>2018-06-17T14:36:20Z</time>
      </trkpt>
      <trkpt lat="44.75076" lon="5.37653">
        <ele>408.72</ele>
        <time>2018-06-17T14:36:22Z</time>
      </trkpt>
      <trkpt lat="44.75099" lon="5.37622">
        <ele>408.32</ele>
        <time>2018-06-17T14:36:24Z</time>
      </trkpt>
      <trkpt lat="44.75123" lon="5.37592">
        <ele>406.25</ele>
        <time>2018-06-17T14:36:26Z</time>
      </trkpt>
      <trkpt lat="44.75146" lon="5.37562">
        <ele>406.07</ele>
        <time>2018-06-17T14:36:28Z</time>
      </trkpt>
      <trkpt lat="44.75166" lon="5.37537">
        <ele>405.84</ele>
        <time>2018-06-17T14:36:30Z</time>
      </trkpt>
      <trkpt lat="44.75183" lon="5.37513">
        <ele>406.73</ele>
        <time>2018-06-17T14:36:32Z</time>
      </trkpt>
      <trkpt lat="44.75201" lon="5.37492">
        <ele>407.04</ele>
        <time>2018-06-17T14:36:35Z</time>
      </trkpt>
      <trkpt lat="44.75215" lon="5.37469">
        <ele>408.1</ele>
        <time>2018-06-17T14:36:39Z</time>
      </trkpt>
      <trkpt lat="44.75232" lon="5.37445">
        <ele>408.11</ele>
        <time>2018-06-17T14:36:42Z</time>
      </trkpt>
      <trkpt lat="44.7525" lon="5.37421">
        <ele>409.72</ele>
        <time>2018-06-17T14:36:45Z</time>
      </trkpt>
      <trkpt lat="44.7527" lon="5.37396">
        <ele>409.98</ele>
        <time>2018-06-17T14:36:48Z</time>
      </trkpt>
      <trkpt lat="44.75289" lon="5.37371">
        <ele>410.05</ele>
        <time>2018-06-17T14:36:51Z</time>
      </trkpt>
      <trkpt lat="44.75304" lon="5.37354">
        <ele>410.05</ele>
        <time>2018-06-17T14:36:53Z</time>
      </trkpt>
      <trkpt lat="44.75318" lon="5.37336">
        <ele>409.14</ele>
        <time>2018-06-17T14:36:55Z</time>
      </trkpt>
      <trkpt lat="44.75336" lon="5.37311">
        <ele>409.05</ele>
        <time>2018-06-17T14:36:58Z</time>
      </trkpt>
      <trkpt lat="44.75348" lon="5.37286">
        <ele>409.05</ele>
        <time>2018-06-17T14:37:01Z</time>
      </trkpt>
      <trkpt lat="44.75359" lon="5.37257">
        <ele>410.45</ele>
        <time>2018-06-17T14:37:05Z</time>
      </trkpt>
      <trkpt lat="44.75363" lon="5.37231">
        <ele>411.73</ele>
        <time>2018-06-17T14:37:08Z</time>
      </trkpt>
      <trkpt lat="44.7537" lon="5.37204">
        <ele>412.04</ele>
        <time>2018-06-17T14:37:11Z</time>
      </trkpt>
      <trkpt lat="44.75382" lon="5.37184">
        <ele>412.05</ele>
        <time>2018-06-17T14:37:14Z</time>
      </trkpt>
      <trkpt lat="44.75391" lon="5.37161">
        <ele>412.11</ele>
        <time>2018-06-17T14:37:19Z</time>
      </trkpt>
      <trkpt lat="44.75403" lon="5.37136">
        <ele>411.13</ele>
        <time>2018-06-17T14:37:25Z</time>
      </trkpt>
      <trkpt lat="44.75414" lon="5.37115">
        <ele>410.99</ele>
        <time>2018-06-17T14:37:28Z</time>
      </trkpt>
      <trkpt lat="44.7543" lon="5.37091">
        <ele>409.71</ele>
        <time>2018-06-17T14:37:31Z</time>
      </trkpt>
      <trkpt lat="44.75445" lon="5.3707">
        <ele>406.48</ele>
        <time>2018-06-17T14:37:34Z</time>
      </trkpt>
      <trkpt lat="44.75459" lon="5.37049">
        <ele>408.64</ele>
        <time>2018-06-17T14:37:37Z</time>
      </trkpt>
      <trkpt lat="44.75478" lon="5.37032">
        <ele>407.84</ele>
        <time>2018-06-17T14:37:41Z</time>
      </trkpt>
      <trkpt lat="44.75482" lon="5.37007">
        <ele>409.73</ele>
        <time>2018-06-17T14:37:54Z</time>
      </trkpt>
      <trkpt lat="44.75499" lon="5.36994">
        <ele>406.98</ele>
        <time>2018-06-17T14:38:01Z</time>
      </trkpt>
      <trkpt lat="44.75508" lon="5.36963">
        <ele>406.84</ele>
        <time>2018-06-17T14:38:06Z</time>
      </trkpt>
      <trkpt lat="44.75522" lon="5.36934">
        <ele>406.95</ele>
        <time>2018-06-17T14:38:10Z</time>
      </trkpt>
      <trkpt lat="44.75536" lon="5.36912">
        <ele>406.62</ele>
        <time>2018-06-17T14:38:12Z</time>
      </trkpt>
      <trkpt lat="44.7555" lon="5.36889">
        <ele>405.68</ele>
        <time>2018-06-17T14:38:14Z</time>
      </trkpt>
      <trkpt lat="44.75564" lon="5.36865">
        <ele>406.72</ele>
        <time>2018-06-17T14:38:16Z</time>
      </trkpt>
      <trkpt lat="44.75578" lon="5.36842">
        <ele>407.02</ele>
        <time>2018-06-17T14:38:18Z</time>
      </trkpt>
      <trkpt lat="44.7559" lon="5.36819">
        <ele>406.35</ele>
        <time>2018-06-17T14:38:20Z</time>
      </trkpt>
      <trkpt lat="44.75604" lon="5.36793">
        <ele>406.99</ele>
        <time>2018-06-17T14:38:22Z</time>
      </trkpt>
      <trkpt lat="44.75619" lon="5.36765">
        <ele>406.13</ele>
        <time>2018-06-17T14:38:24Z</time>
      </trkpt>
      <trkpt lat="44.75635" lon="5.36737">
        <ele>406.06</ele>
        <time>2018-06-17T14:38:26Z</time>
      </trkpt>
      <trkpt lat="44.75652" lon="5.36706">
        <ele>405.14</ele>
        <time>2018-06-17T14:38:28Z</time>
      </trkpt>
      <trkpt lat="44.75672" lon="5.36674">
        <ele>404.15</ele>
        <time>2018-06-17T14:38:30Z</time>
      </trkpt>
      <trkpt lat="44.7569" lon="5.36642">
        <ele>403.36</ele>
        <time>2018-06-17T14:38:32Z</time>
      </trkpt>
      <trkpt lat="44.75707" lon="5.3661">
        <ele>402.38</ele>
        <time>2018-06-17T14:38:34Z</time>
      </trkpt>
      <trkpt lat="44.75725" lon="5.36579">
        <ele>402.08</ele>
        <time>2018-06-17T14:38:36Z</time>
      </trkpt>
      <trkpt lat="44.75744" lon="5.36547">
        <ele>401.35</ele>
        <time>2018-06-17T14:38:38Z</time>
      </trkpt>
      <trkpt lat="44.75764" lon="5.36514">
        <ele>399.68</ele>
        <time>2018-06-17T14:38:40Z</time>
      </trkpt>
      <trkpt lat="44.75784" lon="5.3648">
        <ele>398.41</ele>
        <time>2018-06-17T14:38:42Z</time>
      </trkpt>
      <trkpt lat="44.75804" lon="5.36447">
        <ele>396.47</ele>
        <time>2018-06-17T14:38:44Z</time>
      </trkpt>
      <trkpt lat="44.75823" lon="5.36413">
        <ele>396.09</ele>
        <time>2018-06-17T14:38:46Z</time>
      </trkpt>
      <trkpt lat="44.75841" lon="5.36383">
        <ele>396.75</ele>
        <time>2018-06-17T14:38:48Z</time>
      </trkpt>
      <trkpt lat="44.75856" lon="5.36357">
        <ele>396.32</ele>
        <time>2018-06-17T14:38:50Z</time>
      </trkpt>
      <trkpt lat="44.75869" lon="5.36334">
        <ele>395.37</ele>
        <time>2018-06-17T14:38:52Z</time>
      </trkpt>
      <trkpt lat="44.75884" lon="5.36303">
        <ele>395.99</ele>
        <time>2018-06-17T14:38:54Z</time>
      </trkpt>
      <trkpt lat="44.75901" lon="5.36271">
        <ele>396.74</ele>
        <time>2018-06-17T14:38:56Z</time>
      </trkpt>
      <trkpt lat="44.75914" lon="5.36241">
        <ele>396.11</ele>
        <time>2018-06-17T14:38:58Z</time>
      </trkpt>
      <trkpt lat="44.75924" lon="5.36214">
        <ele>396.75</ele>
        <time>2018-06-17T14:39:00Z</time>
      </trkpt>
      <trkpt lat="44.75935" lon="5.36191">
        <ele>396.32</ele>
        <time>2018-06-17T14:39:02Z</time>
      </trkpt>
      <trkpt lat="44.75949" lon="5.36171">
        <ele>396.28</ele>
        <time>2018-06-17T14:39:04Z</time>
      </trkpt>
      <trkpt lat="44.75966" lon="5.36152">
        <ele>395.37</ele>
        <time>2018-06-17T14:39:06Z</time>
      </trkpt>
      <trkpt lat="44.75984" lon="5.36129">
        <ele>395.08</ele>
        <time>2018-06-17T14:39:08Z</time>
      </trkpt>
      <trkpt lat="44.76002" lon="5.36106">
        <ele>395.75</ele>
        <time>2018-06-17T14:39:10Z</time>
      </trkpt>
      <trkpt lat="44.76022" lon="5.36081">
        <ele>395.11</ele>
        <time>2018-06-17T14:39:12Z</time>
      </trkpt>
      <trkpt lat="44.76044" lon="5.36055">
        <ele>395.75</ele>
        <time>2018-06-17T14:39:14Z</time>
      </trkpt>
      <trkpt lat="44.76067" lon="5.36029">
        <ele>396.02</ele>
        <time>2018-06-17T14:39:16Z</time>
      </trkpt>
      <trkpt lat="44.76093" lon="5.36018">
        <ele>395.35</ele>
        <time>2018-06-17T14:39:18Z</time>
      </trkpt>
      <trkpt lat="44.76119" lon="5.36036">
        <ele>395.99</ele>
        <time>2018-06-17T14:39:20Z</time>
      </trkpt>
      <trkpt lat="44.76146" lon="5.36067">
        <ele>396.74</ele>
        <time>2018-06-17T14:39:22Z</time>
      </trkpt>
      <trkpt lat="44.7616" lon="5.36082">
        <ele>396.96</ele>
        <time>2018-06-17T14:39:23Z</time>
      </trkpt>
      <trkpt lat="44.76176" lon="5.36097">
        <ele>396.32</ele>
        <time>2018-06-17T14:39:24Z</time>
      </trkpt>
      <trkpt lat="44.76192" lon="5.36111">
        <ele>396.13</ele>
        <time>2018-06-17T14:39:25Z</time>
      </trkpt>
      <trkpt lat="44.76208" lon="5.36125">
        <ele>396.77</ele>
        <time>2018-06-17T14:39:26Z</time>
      </trkpt>
      <trkpt lat="44.76224" lon="5.36138">
        <ele>396.97</ele>
        <time>2018-06-17T14:39:27Z</time>
      </trkpt>
      <trkpt lat="44.76241" lon="5.36151">
        <ele>397.72</ele>
        <time>2018-06-17T14:39:28Z</time>
      </trkpt>
      <trkpt lat="44.76258" lon="5.36162">
        <ele>398.65</ele>
        <time>2018-06-17T14:39:29Z</time>
      </trkpt>
      <trkpt lat="44.76275" lon="5.36172">
        <ele>398.93</ele>
        <time>2018-06-17T14:39:30Z</time>
      </trkpt>
      <trkpt lat="44.76293" lon="5.36182">
        <ele>400.41</ele>
        <time>2018-06-17T14:39:31Z</time>
      </trkpt>
      <trkpt lat="44.7631" lon="5.36194">
        <ele>401.56</ele>
        <time>2018-06-17T14:39:32Z</time>
      </trkpt>
      <trkpt lat="44.76327" lon="5.36204">
        <ele>401.9</ele>
        <time>2018-06-17T14:39:33Z</time>
      </trkpt>
      <trkpt lat="44.76359" lon="5.36224">
        <ele>402.95</ele>
        <time>2018-06-17T14:39:35Z</time>
      </trkpt>
      <trkpt lat="44.76392" lon="5.36232">
        <ele>403.95</ele>
        <time>2018-06-17T14:39:37Z</time>
      </trkpt>
      <trkpt lat="44.76426" lon="5.36235">
        <ele>404.04</ele>
        <time>2018-06-17T14:39:39Z</time>
      </trkpt>
      <trkpt lat="44.76461" lon="5.36238">
        <ele>404.05</ele>
        <time>2018-06-17T14:39:41Z</time>
      </trkpt>
      <trkpt lat="44.76496" lon="5.36242">
        <ele>404.05</ele>
        <time>2018-06-17T14:39:43Z</time>
      </trkpt>
      <trkpt lat="44.76532" lon="5.36246">
        <ele>404.05</ele>
        <time>2018-06-17T14:39:45Z</time>
      </trkpt>
      <trkpt lat="44.76551" lon="5.36249">
        <ele>404.05</ele>
        <time>2018-06-17T14:39:46Z</time>
      </trkpt>
      <trkpt lat="44.7657" lon="5.36251">
        <ele>404.75</ele>
        <time>2018-06-17T14:39:47Z</time>
      </trkpt>
      <trkpt lat="44.76589" lon="5.36253">
        <ele>404.96</ele>
        <time>2018-06-17T14:39:48Z</time>
      </trkpt>
      <trkpt lat="44.76609" lon="5.36254">
        <ele>406.42</ele>
        <time>2018-06-17T14:39:49Z</time>
      </trkpt>
      <trkpt lat="44.76628" lon="5.36257">
        <ele>406.16</ele>
        <time>2018-06-17T14:39:50Z</time>
      </trkpt>
      <trkpt lat="44.76646" lon="5.36258">
        <ele>406.08</ele>
        <time>2018-06-17T14:39:51Z</time>
      </trkpt>
      <trkpt lat="44.76665" lon="5.36258">
        <ele>405.36</ele>
        <time>2018-06-17T14:39:52Z</time>
      </trkpt>
      <trkpt lat="44.76684" lon="5.36253">
        <ele>406.54</ele>
        <time>2018-06-17T14:39:53Z</time>
      </trkpt>
      <trkpt lat="44.76703" lon="5.36244">
        <ele>405.5</ele>
        <time>2018-06-17T14:39:54Z</time>
      </trkpt>
      <trkpt lat="44.7672" lon="5.36234">
        <ele>405.18</ele>
        <time>2018-06-17T14:39:55Z</time>
      </trkpt>
      <trkpt lat="44.76737" lon="5.36225">
        <ele>405.79</ele>
        <time>2018-06-17T14:39:56Z</time>
      </trkpt>
      <trkpt lat="44.76754" lon="5.36215">
        <ele>405.97</ele>
        <time>2018-06-17T14:39:57Z</time>
      </trkpt>
      <trkpt lat="44.76771" lon="5.36206">
        <ele>406.03</ele>
        <time>2018-06-17T14:39:58Z</time>
      </trkpt>
      <trkpt lat="44.76788" lon="5.36196">
        <ele>406.04</ele>
        <time>2018-06-17T14:39:59Z</time>
      </trkpt>
      <trkpt lat="44.76805" lon="5.36185">
        <ele>406.75</ele>
        <time>2018-06-17T14:40:00Z</time>
      </trkpt>
      <trkpt lat="44.76822" lon="5.36174">
        <ele>406.96</ele>
        <time>2018-06-17T14:40:01Z</time>
      </trkpt>
      <trkpt lat="44.7684" lon="5.36165">
        <ele>407.02</ele>
        <time>2018-06-17T14:40:02Z</time>
      </trkpt>
      <trkpt lat="44.76858" lon="5.36156">
        <ele>406.34</ele>
        <time>2018-06-17T14:40:03Z</time>
      </trkpt>
      <trkpt lat="44.76877" lon="5.3615">
        <ele>406.14</ele>
        <time>2018-06-17T14:40:04Z</time>
      </trkpt>
      <trkpt lat="44.76897" lon="5.36145">
        <ele>405.38</ele>
        <time>2018-06-17T14:40:05Z</time>
      </trkpt>
      <trkpt lat="44.76916" lon="5.3614">
        <ele>403.75</ele>
        <time>2018-06-17T14:40:06Z</time>
      </trkpt>
      <trkpt lat="44.76936" lon="5.36136">
        <ele>402.56</ele>
        <time>2018-06-17T14:40:07Z</time>
      </trkpt>
      <trkpt lat="44.76956" lon="5.3613">
        <ele>402.2</ele>
        <time>2018-06-17T14:40:08Z</time>
      </trkpt>
      <trkpt lat="44.76975" lon="5.36125">
        <ele>402.09</ele>
        <time>2018-06-17T14:40:09Z</time>
      </trkpt>
      <trkpt lat="44.76995" lon="5.3612">
        <ele>402.06</ele>
        <time>2018-06-17T14:40:10Z</time>
      </trkpt>
      <trkpt lat="44.77014" lon="5.36114">
        <ele>401.35</ele>
        <time>2018-06-17T14:40:11Z</time>
      </trkpt>
      <trkpt lat="44.77034" lon="5.36109">
        <ele>400.44</ele>
        <time>2018-06-17T14:40:12Z</time>
      </trkpt>
      <trkpt lat="44.77053" lon="5.36105">
        <ele>400.17</ele>
        <time>2018-06-17T14:40:13Z</time>
      </trkpt>
      <trkpt lat="44.77071" lon="5.36101">
        <ele>400.08</ele>
        <time>2018-06-17T14:40:14Z</time>
      </trkpt>
      <trkpt lat="44.77089" lon="5.36106">
        <ele>399.36</ele>
        <time>2018-06-17T14:40:15Z</time>
      </trkpt>
      <trkpt lat="44.77108" lon="5.36112">
        <ele>399.14</ele>
        <time>2018-06-17T14:40:16Z</time>
      </trkpt>
      <trkpt lat="44.77126" lon="5.36121">
        <ele>399.78</ele>
        <time>2018-06-17T14:40:17Z</time>
      </trkpt>
      <trkpt lat="44.77143" lon="5.36133">
        <ele>400.67</ele>
        <time>2018-06-17T14:40:18Z</time>
      </trkpt>
      <trkpt lat="44.7716" lon="5.36147">
        <ele>400.93</ele>
        <time>2018-06-17T14:40:19Z</time>
      </trkpt>
      <trkpt lat="44.77177" lon="5.36159">
        <ele>401.01</ele>
        <time>2018-06-17T14:40:20Z</time>
      </trkpt>
      <trkpt lat="44.77193" lon="5.36172">
        <ele>401.74</ele>
        <time>2018-06-17T14:40:21Z</time>
      </trkpt>
      <trkpt lat="44.7721" lon="5.36184">
        <ele>402.66</ele>
        <time>2018-06-17T14:40:22Z</time>
      </trkpt>
      <trkpt lat="44.77227" lon="5.36197">
        <ele>402.93</ele>
        <time>2018-06-17T14:40:23Z</time>
      </trkpt>
      <trkpt lat="44.77245" lon="5.36208">
        <ele>403.71</ele>
        <time>2018-06-17T14:40:24Z</time>
      </trkpt>
      <trkpt lat="44.77264" lon="5.36219">
        <ele>403.95</ele>
        <time>2018-06-17T14:40:25Z</time>
      </trkpt>
      <trkpt lat="44.77283" lon="5.36227">
        <ele>404.72</ele>
        <time>2018-06-17T14:40:26Z</time>
      </trkpt>
      <trkpt lat="44.77302" lon="5.36235">
        <ele>405.65</ele>
        <time>2018-06-17T14:40:27Z</time>
      </trkpt>
      <trkpt lat="44.77321" lon="5.36242">
        <ele>406.63</ele>
        <time>2018-06-17T14:40:28Z</time>
      </trkpt>
      <trkpt lat="44.7734" lon="5.36248">
        <ele>408.32</ele>
        <time>2018-06-17T14:40:29Z</time>
      </trkpt>
      <trkpt lat="44.77359" lon="5.36254">
        <ele>409.53</ele>
        <time>2018-06-17T14:40:30Z</time>
      </trkpt>
      <trkpt lat="44.77378" lon="5.36259">
        <ele>410.59</ele>
        <time>2018-06-17T14:40:31Z</time>
      </trkpt>
      <trkpt lat="44.77396" lon="5.36265">
        <ele>411.61</ele>
        <time>2018-06-17T14:40:32Z</time>
      </trkpt>
      <trkpt lat="44.77415" lon="5.36271">
        <ele>413.32</ele>
        <time>2018-06-17T14:40:33Z</time>
      </trkpt>
      <trkpt lat="44.77433" lon="5.36278">
        <ele>414.53</ele>
        <time>2018-06-17T14:40:34Z</time>
      </trkpt>
      <trkpt lat="44.77452" lon="5.36286">
        <ele>416.99</ele>
        <time>2018-06-17T14:40:35Z</time>
      </trkpt>
      <trkpt lat="44.7747" lon="5.36297">
        <ele>417.73</ele>
        <time>2018-06-17T14:40:36Z</time>
      </trkpt>
      <trkpt lat="44.77486" lon="5.36311">
        <ele>418.65</ele>
        <time>2018-06-17T14:40:37Z</time>
      </trkpt>
      <trkpt lat="44.77501" lon="5.36331">
        <ele>421.03</ele>
        <time>2018-06-17T14:40:38Z</time>
      </trkpt>
      <trkpt lat="44.77517" lon="5.3635">
        <ele>423.14</ele>
        <time>2018-06-17T14:40:39Z</time>
      </trkpt>
      <trkpt lat="44.77533" lon="5.36369">
        <ele>425.18</ele>
        <time>2018-06-17T14:40:40Z</time>
      </trkpt>
      <trkpt lat="44.77549" lon="5.36389">
        <ele>427.19</ele>
        <time>2018-06-17T14:40:41Z</time>
      </trkpt>
      <trkpt lat="44.77565" lon="5.36408">
        <ele>429.19</ele>
        <time>2018-06-17T14:40:42Z</time>
      </trkpt>
      <trkpt lat="44.77582" lon="5.36427">
        <ele>431.19</ele>
        <time>2018-06-17T14:40:43Z</time>
      </trkpt>
      <trkpt lat="44.77598" lon="5.36444">
        <ele>431.79</ele>
        <time>2018-06-17T14:40:44Z</time>
      </trkpt>
      <trkpt lat="44.77616" lon="5.36454">
        <ele>431.97</ele>
        <time>2018-06-17T14:40:45Z</time>
      </trkpt>
      <trkpt lat="44.77634" lon="5.36466">
        <ele>432.03</ele>
        <time>2018-06-17T14:40:46Z</time>
      </trkpt>
      <trkpt lat="44.77655" lon="5.3647">
        <ele>434.84</ele>
        <time>2018-06-17T14:40:47Z</time>
      </trkpt>
      <trkpt lat="44.77674" lon="5.36481">
        <ele>437.09</ele>
        <time>2018-06-17T14:40:48Z</time>
      </trkpt>
      <trkpt lat="44.77692" lon="5.36493">
        <ele>438.46</ele>
        <time>2018-06-17T14:40:49Z</time>
      </trkpt>
      <trkpt lat="44.7771" lon="5.36507">
        <ele>439.57</ele>
        <time>2018-06-17T14:40:50Z</time>
      </trkpt>
      <trkpt lat="44.77729" lon="5.36519">
        <ele>442.01</ele>
        <time>2018-06-17T14:40:51Z</time>
      </trkpt>
      <trkpt lat="44.77748" lon="5.36526">
        <ele>444.14</ele>
        <time>2018-06-17T14:40:52Z</time>
      </trkpt>
      <trkpt lat="44.77767" lon="5.36528">
        <ele>445.48</ele>
        <time>2018-06-17T14:40:53Z</time>
      </trkpt>
      <trkpt lat="44.77787" lon="5.36531">
        <ele>446.58</ele>
        <time>2018-06-17T14:40:54Z</time>
      </trkpt>
      <trkpt lat="44.77804" lon="5.36538">
        <ele>447.61</ele>
        <time>2018-06-17T14:40:55Z</time>
      </trkpt>
      <trkpt lat="44.77823" lon="5.36546">
        <ele>448.62</ele>
        <time>2018-06-17T14:40:56Z</time>
      </trkpt>
      <trkpt lat="44.77842" lon="5.36555">
        <ele>448.92</ele>
        <time>2018-06-17T14:40:57Z</time>
      </trkpt>
      <trkpt lat="44.77861" lon="5.36575">
        <ele>449.01</ele>
        <time>2018-06-17T14:40:58Z</time>
      </trkpt>
      <trkpt lat="44.77878" lon="5.3659">
        <ele>449.04</ele>
        <time>2018-06-17T14:40:59Z</time>
      </trkpt>
      <trkpt lat="44.77895" lon="5.36607">
        <ele>449.05</ele>
        <time>2018-06-17T14:41:00Z</time>
      </trkpt>
      <trkpt lat="44.77911" lon="5.36627">
        <ele>449.75</ele>
        <time>2018-06-17T14:41:01Z</time>
      </trkpt>
      <trkpt lat="44.77928" lon="5.36641">
        <ele>450.66</ele>
        <time>2018-06-17T14:41:02Z</time>
      </trkpt>
      <trkpt lat="44.77946" lon="5.36654">
        <ele>451.63</ele>
        <time>2018-06-17T14:41:03Z</time>
      </trkpt>
      <trkpt lat="44.77965" lon="5.36662">
        <ele>453.32</ele>
        <time>2018-06-17T14:41:04Z</time>
      </trkpt>
      <trkpt lat="44.77986" lon="5.36665">
        <ele>455.93</ele>
        <time>2018-06-17T14:41:05Z</time>
      </trkpt>
      <trkpt lat="44.78007" lon="5.36665">
        <ele>456.01</ele>
        <time>2018-06-17T14:41:06Z</time>
      </trkpt>
      <trkpt lat="44.78029" lon="5.36667">
        <ele>457.44</ele>
        <time>2018-06-17T14:41:07Z</time>
      </trkpt>
      <trkpt lat="44.7805" lon="5.3667">
        <ele>457.87</ele>
        <time>2018-06-17T14:41:08Z</time>
      </trkpt>
      <trkpt lat="44.78071" lon="5.36679">
        <ele>458.69</ele>
        <time>2018-06-17T14:41:09Z</time>
      </trkpt>
      <trkpt lat="44.78092" lon="5.36687">
        <ele>461.04</ele>
        <time>2018-06-17T14:41:10Z</time>
      </trkpt>
      <trkpt lat="44.78112" lon="5.36693">
        <ele>462.45</ele>
        <time>2018-06-17T14:41:11Z</time>
      </trkpt>
      <trkpt lat="44.78133" lon="5.36697">
        <ele>463.57</ele>
        <time>2018-06-17T14:41:12Z</time>
      </trkpt>
      <trkpt lat="44.78154" lon="5.36701">
        <ele>465.3</ele>
        <time>2018-06-17T14:41:13Z</time>
      </trkpt>
      <trkpt lat="44.78176" lon="5.36703">
        <ele>465.83</ele>
        <time>2018-06-17T14:41:14Z</time>
      </trkpt>
      <trkpt lat="44.78198" lon="5.36709">
        <ele>466.68</ele>
        <time>2018-06-17T14:41:15Z</time>
      </trkpt>
      <trkpt lat="44.7822" lon="5.36715">
        <ele>466.94</ele>
        <time>2018-06-17T14:41:16Z</time>
      </trkpt>
      <trkpt lat="44.78237" lon="5.36731">
        <ele>467.72</ele>
        <time>2018-06-17T14:41:17Z</time>
      </trkpt>
      <trkpt lat="44.78255" lon="5.36742">
        <ele>468.65</ele>
        <time>2018-06-17T14:41:18Z</time>
      </trkpt>
      <trkpt lat="44.78275" lon="5.3675">
        <ele>468.93</ele>
        <time>2018-06-17T14:41:19Z</time>
      </trkpt>
      <trkpt lat="44.78307" lon="5.3677">
        <ele>469.53</ele>
        <time>2018-06-17T14:41:21Z</time>
      </trkpt>
      <trkpt lat="44.78325" lon="5.3678">
        <ele>470.59</ele>
        <time>2018-06-17T14:41:22Z</time>
      </trkpt>
      <trkpt lat="44.78342" lon="5.3679">
        <ele>472.31</ele>
        <time>2018-06-17T14:41:23Z</time>
      </trkpt>
      <trkpt lat="44.78361" lon="5.36796">
        <ele>473.53</ele>
        <time>2018-06-17T14:41:24Z</time>
      </trkpt>
      <trkpt lat="44.78379" lon="5.36788">
        <ele>474.59</ele>
        <time>2018-06-17T14:41:25Z</time>
      </trkpt>
      <trkpt lat="44.78403" lon="5.36776">
        <ele>476.62</ele>
        <time>2018-06-17T14:41:27Z</time>
      </trkpt>
      <trkpt lat="44.78424" lon="5.36792">
        <ele>479.53</ele>
        <time>2018-06-17T14:41:29Z</time>
      </trkpt>
      <trkpt lat="44.78437" lon="5.36823">
        <ele>479.89</ele>
        <time>2018-06-17T14:41:30Z</time>
      </trkpt>
      <trkpt lat="44.78448" lon="5.36844">
        <ele>481.4</ele>
        <time>2018-06-17T14:41:31Z</time>
      </trkpt>
      <trkpt lat="44.78467" lon="5.36875">
        <ele>484.3</ele>
        <time>2018-06-17T14:41:33Z</time>
      </trkpt>
      <trkpt lat="44.78493" lon="5.369">
        <ele>486.59</ele>
        <time>2018-06-17T14:41:35Z</time>
      </trkpt>
      <trkpt lat="44.78512" lon="5.36894">
        <ele>486.21</ele>
        <time>2018-06-17T14:41:36Z</time>
      </trkpt>
      <trkpt lat="44.7853" lon="5.36878">
        <ele>486.1</ele>
        <time>2018-06-17T14:41:37Z</time>
      </trkpt>
      <trkpt lat="44.78534" lon="5.36831">
        <ele>487.46</ele>
        <time>2018-06-17T14:41:38Z</time>
      </trkpt>
      <trkpt lat="44.7855" lon="5.36813">
        <ele>489.97</ele>
        <time>2018-06-17T14:41:39Z</time>
      </trkpt>
      <trkpt lat="44.78566" lon="5.36799">
        <ele>491.43</ele>
        <time>2018-06-17T14:41:40Z</time>
      </trkpt>
      <trkpt lat="44.78586" lon="5.36788">
        <ele>492.56</ele>
        <time>2018-06-17T14:41:41Z</time>
      </trkpt>
      <trkpt lat="44.78606" lon="5.36776">
        <ele>495</ele>
        <time>2018-06-17T14:41:42Z</time>
      </trkpt>
      <trkpt lat="44.78624" lon="5.36762">
        <ele>496.44</ele>
        <time>2018-06-17T14:41:43Z</time>
      </trkpt>
      <trkpt lat="44.7864" lon="5.36744">
        <ele>498.96</ele>
        <time>2018-06-17T14:41:44Z</time>
      </trkpt>
      <trkpt lat="44.78653" lon="5.36723">
        <ele>501.12</ele>
        <time>2018-06-17T14:41:45Z</time>
      </trkpt>
      <trkpt lat="44.78666" lon="5.36701">
        <ele>503.17</ele>
        <time>2018-06-17T14:41:46Z</time>
      </trkpt>
      <trkpt lat="44.78678" lon="5.3668">
        <ele>504.49</ele>
        <time>2018-06-17T14:41:47Z</time>
      </trkpt>
      <trkpt lat="44.78691" lon="5.36664">
        <ele>505.58</ele>
        <time>2018-06-17T14:41:48Z</time>
      </trkpt>
      <trkpt lat="44.78725" lon="5.36651">
        <ele>507.62</ele>
        <time>2018-06-17T14:41:50Z</time>
      </trkpt>
      <trkpt lat="44.78744" lon="5.36653">
        <ele>508.62</ele>
        <time>2018-06-17T14:41:51Z</time>
      </trkpt>
      <trkpt lat="44.78763" lon="5.36654">
        <ele>509.62</ele>
        <time>2018-06-17T14:41:52Z</time>
      </trkpt>
      <trkpt lat="44.78782" lon="5.36652">
        <ele>510.62</ele>
        <time>2018-06-17T14:41:53Z</time>
      </trkpt>
      <trkpt lat="44.78801" lon="5.36649">
        <ele>511.62</ele>
        <time>2018-06-17T14:41:54Z</time>
      </trkpt>
      <trkpt lat="44.7882" lon="5.36647">
        <ele>511.22</ele>
        <time>2018-06-17T14:41:55Z</time>
      </trkpt>
      <trkpt lat="44.78839" lon="5.36641">
        <ele>511.8</ele>
        <time>2018-06-17T14:41:56Z</time>
      </trkpt>
      <trkpt lat="44.78856" lon="5.36634">
        <ele>513.37</ele>
        <time>2018-06-17T14:41:57Z</time>
      </trkpt>
      <trkpt lat="44.78889" lon="5.36635">
        <ele>513.99</ele>
        <time>2018-06-17T14:41:59Z</time>
      </trkpt>
      <trkpt lat="44.78924" lon="5.36651">
        <ele>514.74</ele>
        <time>2018-06-17T14:42:01Z</time>
      </trkpt>
      <trkpt lat="44.78941" lon="5.36659">
        <ele>515.66</ele>
        <time>2018-06-17T14:42:02Z</time>
      </trkpt>
      <trkpt lat="44.78959" lon="5.36668">
        <ele>515.93</ele>
        <time>2018-06-17T14:42:03Z</time>
      </trkpt>
      <trkpt lat="44.78976" lon="5.36678">
        <ele>515.31</ele>
        <time>2018-06-17T14:42:04Z</time>
      </trkpt>
      <trkpt lat="44.78993" lon="5.3669">
        <ele>515.83</ele>
        <time>2018-06-17T14:42:05Z</time>
      </trkpt>
      <trkpt lat="44.79009" lon="5.36707">
        <ele>515.98</ele>
        <time>2018-06-17T14:42:06Z</time>
      </trkpt>
      <trkpt lat="44.79022" lon="5.3673">
        <ele>516.73</ele>
        <time>2018-06-17T14:42:07Z</time>
      </trkpt>
      <trkpt lat="44.79035" lon="5.36755">
        <ele>517.65</ele>
        <time>2018-06-17T14:42:08Z</time>
      </trkpt>
      <trkpt lat="44.79049" lon="5.3678">
        <ele>518.63</ele>
        <time>2018-06-17T14:42:09Z</time>
      </trkpt>
      <trkpt lat="44.79063" lon="5.36805">
        <ele>519.62</ele>
        <time>2018-06-17T14:42:10Z</time>
      </trkpt>
      <trkpt lat="44.79076" lon="5.36828">
        <ele>521.32</ele>
        <time>2018-06-17T14:42:11Z</time>
      </trkpt>
      <trkpt lat="44.79091" lon="5.36851">
        <ele>521.83</ele>
        <time>2018-06-17T14:42:12Z</time>
      </trkpt>
      <trkpt lat="44.79106" lon="5.36875">
        <ele>521.98</ele>
        <time>2018-06-17T14:42:13Z</time>
      </trkpt>
      <trkpt lat="44.79123" lon="5.36897">
        <ele>522.03</ele>
        <time>2018-06-17T14:42:14Z</time>
      </trkpt>
      <trkpt lat="44.79144" lon="5.36912">
        <ele>521.34</ele>
        <time>2018-06-17T14:42:15Z</time>
      </trkpt>
      <trkpt lat="44.79164" lon="5.36931">
        <ele>521.14</ele>
        <time>2018-06-17T14:42:16Z</time>
      </trkpt>
      <trkpt lat="44.79183" lon="5.36951">
        <ele>519.68</ele>
        <time>2018-06-17T14:42:17Z</time>
      </trkpt>
      <trkpt lat="44.792" lon="5.36976">
        <ele>519.94</ele>
        <time>2018-06-17T14:42:18Z</time>
      </trkpt>
      <trkpt lat="44.79215" lon="5.37003">
        <ele>520.02</ele>
        <time>2018-06-17T14:42:19Z</time>
      </trkpt>
      <trkpt lat="44.7923" lon="5.37029">
        <ele>520.74</ele>
        <time>2018-06-17T14:42:20Z</time>
      </trkpt>
      <trkpt lat="44.79245" lon="5.37054">
        <ele>520.96</ele>
        <time>2018-06-17T14:42:21Z</time>
      </trkpt>
      <trkpt lat="44.7926" lon="5.37079">
        <ele>521.02</ele>
        <time>2018-06-17T14:42:22Z</time>
      </trkpt>
      <trkpt lat="44.79274" lon="5.37104">
        <ele>521.74</ele>
        <time>2018-06-17T14:42:23Z</time>
      </trkpt>
      <trkpt lat="44.79287" lon="5.3713">
        <ele>521.96</ele>
        <time>2018-06-17T14:42:24Z</time>
      </trkpt>
      <trkpt lat="44.79297" lon="5.37158">
        <ele>522.72</ele>
        <time>2018-06-17T14:42:25Z</time>
      </trkpt>
      <trkpt lat="44.79305" lon="5.37189">
        <ele>523.65</ele>
        <time>2018-06-17T14:42:26Z</time>
      </trkpt>
      <trkpt lat="44.79312" lon="5.37219">
        <ele>523.93</ele>
        <time>2018-06-17T14:42:27Z</time>
      </trkpt>
      <trkpt lat="44.7932" lon="5.37251">
        <ele>524.01</ele>
        <time>2018-06-17T14:42:28Z</time>
      </trkpt>
      <trkpt lat="44.79326" lon="5.37282">
        <ele>525.44</ele>
        <time>2018-06-17T14:42:29Z</time>
      </trkpt>
      <trkpt lat="44.79332" lon="5.37313">
        <ele>526.57</ele>
        <time>2018-06-17T14:42:30Z</time>
      </trkpt>
      <trkpt lat="44.79337" lon="5.37345">
        <ele>527.6</ele>
        <time>2018-06-17T14:42:31Z</time>
      </trkpt>
      <trkpt lat="44.79341" lon="5.37378">
        <ele>527.92</ele>
        <time>2018-06-17T14:42:32Z</time>
      </trkpt>
      <trkpt lat="44.79343" lon="5.3741">
        <ele>528.71</ele>
        <time>2018-06-17T14:42:33Z</time>
      </trkpt>
      <trkpt lat="44.79344" lon="5.37443">
        <ele>529.65</ele>
        <time>2018-06-17T14:42:34Z</time>
      </trkpt>
      <trkpt lat="44.79347" lon="5.37476">
        <ele>529.93</ele>
        <time>2018-06-17T14:42:35Z</time>
      </trkpt>
      <trkpt lat="44.79351" lon="5.37507">
        <ele>530.01</ele>
        <time>2018-06-17T14:42:36Z</time>
      </trkpt>
      <trkpt lat="44.79356" lon="5.37539">
        <ele>529.34</ele>
        <time>2018-06-17T14:42:37Z</time>
      </trkpt>
      <trkpt lat="44.79361" lon="5.37569">
        <ele>528.44</ele>
        <time>2018-06-17T14:42:38Z</time>
      </trkpt>
      <trkpt lat="44.79366" lon="5.37599">
        <ele>528.17</ele>
        <time>2018-06-17T14:42:39Z</time>
      </trkpt>
      <trkpt lat="44.79373" lon="5.37629">
        <ele>528.08</ele>
        <time>2018-06-17T14:42:40Z</time>
      </trkpt>
      <trkpt lat="44.7938" lon="5.37657">
        <ele>527.36</ele>
        <time>2018-06-17T14:42:41Z</time>
      </trkpt>
      <trkpt lat="44.79391" lon="5.37685">
        <ele>526.44</ele>
        <time>2018-06-17T14:42:42Z</time>
      </trkpt>
      <trkpt lat="44.79399" lon="5.37715">
        <ele>525.47</ele>
        <time>2018-06-17T14:42:43Z</time>
      </trkpt>
      <trkpt lat="44.79404" lon="5.37745">
        <ele>525.87</ele>
        <time>2018-06-17T14:42:44Z</time>
      </trkpt>
      <trkpt lat="44.79408" lon="5.37774">
        <ele>525.3</ele>
        <time>2018-06-17T14:42:45Z</time>
      </trkpt>
      <trkpt lat="44.79411" lon="5.37803">
        <ele>525.12</ele>
        <time>2018-06-17T14:42:46Z</time>
      </trkpt>
      <trkpt lat="44.79412" lon="5.37833">
        <ele>525.07</ele>
        <time>2018-06-17T14:42:47Z</time>
      </trkpt>
      <trkpt lat="44.79412" lon="5.37863">
        <ele>524.36</ele>
        <time>2018-06-17T14:42:48Z</time>
      </trkpt>
      <trkpt lat="44.79412" lon="5.37891">
        <ele>524.14</ele>
        <time>2018-06-17T14:42:49Z</time>
      </trkpt>
      <trkpt lat="44.79411" lon="5.3792">
        <ele>524.08</ele>
        <time>2018-06-17T14:42:50Z</time>
      </trkpt>
      <trkpt lat="44.79412" lon="5.37949">
        <ele>523.36</ele>
        <time>2018-06-17T14:42:51Z</time>
      </trkpt>
      <trkpt lat="44.79415" lon="5.37978">
        <ele>523.14</ele>
        <time>2018-06-17T14:42:52Z</time>
      </trkpt>
      <trkpt lat="44.7942" lon="5.38008">
        <ele>522.38</ele>
        <time>2018-06-17T14:42:53Z</time>
      </trkpt>
      <trkpt lat="44.79427" lon="5.38036">
        <ele>522.15</ele>
        <time>2018-06-17T14:42:54Z</time>
      </trkpt>
      <trkpt lat="44.79436" lon="5.38064">
        <ele>521.38</ele>
        <time>2018-06-17T14:42:55Z</time>
      </trkpt>
      <trkpt lat="44.79443" lon="5.3809">
        <ele>521.15</ele>
        <time>2018-06-17T14:42:56Z</time>
      </trkpt>
      <trkpt lat="44.79451" lon="5.38116">
        <ele>521.08</ele>
        <time>2018-06-17T14:42:57Z</time>
      </trkpt>
      <trkpt lat="44.79458" lon="5.3814">
        <ele>520.36</ele>
        <time>2018-06-17T14:42:58Z</time>
      </trkpt>
      <trkpt lat="44.79467" lon="5.38163">
        <ele>520.14</ele>
        <time>2018-06-17T14:42:59Z</time>
      </trkpt>
      <trkpt lat="44.79485" lon="5.38204">
        <ele>519.15</ele>
        <time>2018-06-17T14:43:01Z</time>
      </trkpt>
      <trkpt lat="44.79497" lon="5.38242">
        <ele>518.36</ele>
        <time>2018-06-17T14:43:03Z</time>
      </trkpt>
      <trkpt lat="44.79508" lon="5.38275">
        <ele>517.38</ele>
        <time>2018-06-17T14:43:05Z</time>
      </trkpt>
      <trkpt lat="44.7952" lon="5.38296">
        <ele>516.87</ele>
        <time>2018-06-17T14:43:07Z</time>
      </trkpt>
      <trkpt lat="44.79538" lon="5.38303">
        <ele>517.03</ele>
        <time>2018-06-17T14:43:09Z</time>
      </trkpt>
      <trkpt lat="44.79558" lon="5.38301">
        <ele>518.66</ele>
        <time>2018-06-17T14:43:11Z</time>
      </trkpt>
      <trkpt lat="44.79577" lon="5.38299">
        <ele>518.8</ele>
        <time>2018-06-17T14:43:13Z</time>
      </trkpt>
      <trkpt lat="44.79596" lon="5.38297">
        <ele>519.03</ele>
        <time>2018-06-17T14:43:15Z</time>
      </trkpt>
      <trkpt lat="44.79619" lon="5.38296">
        <ele>519.32</ele>
        <time>2018-06-17T14:43:18Z</time>
      </trkpt>
      <trkpt lat="44.79641" lon="5.38297">
        <ele>519.97</ele>
        <time>2018-06-17T14:43:21Z</time>
      </trkpt>
      <trkpt lat="44.7966" lon="5.38298">
        <ele>519.07</ele>
        <time>2018-06-17T14:43:24Z</time>
      </trkpt>
      <trkpt lat="44.79684" lon="5.38302">
        <ele>519.96</ele>
        <time>2018-06-17T14:43:27Z</time>
      </trkpt>
      <trkpt lat="44.79701" lon="5.38308">
        <ele>520.95</ele>
        <time>2018-06-17T14:43:29Z</time>
      </trkpt>
      <trkpt lat="44.79719" lon="5.38315">
        <ele>522.65</ele>
        <time>2018-06-17T14:43:31Z</time>
      </trkpt>
      <trkpt lat="44.79743" lon="5.38326">
        <ele>522.98</ele>
        <time>2018-06-17T14:43:34Z</time>
      </trkpt>
      <trkpt lat="44.79767" lon="5.38324">
        <ele>525.14</ele>
        <time>2018-06-17T14:43:37Z</time>
      </trkpt>
      <trkpt lat="44.79786" lon="5.38326">
        <ele>525.96</ele>
        <time>2018-06-17T14:43:40Z</time>
      </trkpt>
      <trkpt lat="44.79803" lon="5.38334">
        <ele>525.9</ele>
        <time>2018-06-17T14:43:43Z</time>
      </trkpt>
      <trkpt lat="44.79827" lon="5.38343">
        <ele>527.64</ele>
        <time>2018-06-17T14:43:47Z</time>
      </trkpt>
      <trkpt lat="44.79845" lon="5.38354">
        <ele>528.95</ele>
        <time>2018-06-17T14:43:50Z</time>
      </trkpt>
      <trkpt lat="44.79862" lon="5.38368">
        <ele>528.35</ele>
        <time>2018-06-17T14:43:53Z</time>
      </trkpt>
      <trkpt lat="44.79876" lon="5.38386">
        <ele>529.46</ele>
        <time>2018-06-17T14:43:56Z</time>
      </trkpt>
      <trkpt lat="44.79891" lon="5.38403">
        <ele>530.73</ele>
        <time>2018-06-17T14:43:59Z</time>
      </trkpt>
      <trkpt lat="44.79905" lon="5.38419">
        <ele>530.13</ele>
        <time>2018-06-17T14:44:02Z</time>
      </trkpt>
      <trkpt lat="44.79919" lon="5.38446">
        <ele>531.8</ele>
        <time>2018-06-17T14:44:06Z</time>
      </trkpt>
      <trkpt lat="44.7993" lon="5.3847">
        <ele>533.86</ele>
        <time>2018-06-17T14:44:09Z</time>
      </trkpt>
      <trkpt lat="44.7995" lon="5.38494">
        <ele>535.65</ele>
        <time>2018-06-17T14:44:12Z</time>
      </trkpt>
      <trkpt lat="44.79972" lon="5.38518">
        <ele>537.65</ele>
        <time>2018-06-17T14:44:15Z</time>
      </trkpt>
      <trkpt lat="44.79994" lon="5.38539">
        <ele>539.62</ele>
        <time>2018-06-17T14:44:17Z</time>
      </trkpt>
      <trkpt lat="44.8001" lon="5.3856">
        <ele>540.62</ele>
        <time>2018-06-17T14:44:18Z</time>
      </trkpt>
      <trkpt lat="44.80025" lon="5.38581">
        <ele>542.32</ele>
        <time>2018-06-17T14:44:19Z</time>
      </trkpt>
      <trkpt lat="44.80041" lon="5.386">
        <ele>543.53</ele>
        <time>2018-06-17T14:44:20Z</time>
      </trkpt>
      <trkpt lat="44.80059" lon="5.38619">
        <ele>543.89</ele>
        <time>2018-06-17T14:44:21Z</time>
      </trkpt>
      <trkpt lat="44.80078" lon="5.38637">
        <ele>545.4</ele>
        <time>2018-06-17T14:44:22Z</time>
      </trkpt>
      <trkpt lat="44.80096" lon="5.38652">
        <ele>547.26</ele>
        <time>2018-06-17T14:44:23Z</time>
      </trkpt>
      <trkpt lat="44.80113" lon="5.38666">
        <ele>548.51</ele>
        <time>2018-06-17T14:44:24Z</time>
      </trkpt>
      <trkpt lat="44.80131" lon="5.38678">
        <ele>548.89</ele>
        <time>2018-06-17T14:44:25Z</time>
      </trkpt>
      <trkpt lat="44.80149" lon="5.38687">
        <ele>549.7</ele>
        <time>2018-06-17T14:44:26Z</time>
      </trkpt>
      <trkpt lat="44.80168" lon="5.3869">
        <ele>551.34</ele>
        <time>2018-06-17T14:44:27Z</time>
      </trkpt>
      <trkpt lat="44.80187" lon="5.38689">
        <ele>552.54</ele>
        <time>2018-06-17T14:44:28Z</time>
      </trkpt>
      <trkpt lat="44.80218" lon="5.38685">
        <ele>553.91</ele>
        <time>2018-06-17T14:44:30Z</time>
      </trkpt>
      <trkpt lat="44.80235" lon="5.387">
        <ele>554.95</ele>
        <time>2018-06-17T14:44:32Z</time>
      </trkpt>
      <trkpt lat="44.80236" lon="5.3873">
        <ele>555.95</ele>
        <time>2018-06-17T14:44:34Z</time>
      </trkpt>
      <trkpt lat="44.8022" lon="5.38764">
        <ele>558.35</ele>
        <time>2018-06-17T14:44:36Z</time>
      </trkpt>
      <trkpt lat="44.80224" lon="5.38815">
        <ele>559.69</ele>
        <time>2018-06-17T14:44:38Z</time>
      </trkpt>
      <trkpt lat="44.80231" lon="5.38842">
        <ele>562.04</ele>
        <time>2018-06-17T14:44:39Z</time>
      </trkpt>
      <trkpt lat="44.80249" lon="5.38868">
        <ele>563.45</ele>
        <time>2018-06-17T14:44:40Z</time>
      </trkpt>
      <trkpt lat="44.80263" lon="5.38896">
        <ele>565.27</ele>
        <time>2018-06-17T14:44:41Z</time>
      </trkpt>
      <trkpt lat="44.80274" lon="5.38924">
        <ele>566.51</ele>
        <time>2018-06-17T14:44:42Z</time>
      </trkpt>
      <trkpt lat="44.80286" lon="5.38951">
        <ele>566.89</ele>
        <time>2018-06-17T14:44:43Z</time>
      </trkpt>
      <trkpt lat="44.80299" lon="5.38975">
        <ele>566.3</ele>
        <time>2018-06-17T14:44:44Z</time>
      </trkpt>
      <trkpt lat="44.80327" lon="5.39005">
        <ele>566.98</ele>
        <time>2018-06-17T14:44:46Z</time>
      </trkpt>
      <trkpt lat="44.80344" lon="5.39051">
        <ele>571.38</ele>
        <time>2018-06-17T14:44:48Z</time>
      </trkpt>
      <trkpt lat="44.80359" lon="5.39072">
        <ele>573.25</ele>
        <time>2018-06-17T14:44:49Z</time>
      </trkpt>
      <trkpt lat="44.80374" lon="5.39092">
        <ele>574.51</ele>
        <time>2018-06-17T14:44:50Z</time>
      </trkpt>
      <trkpt lat="44.80389" lon="5.39108">
        <ele>575.59</ele>
        <time>2018-06-17T14:44:51Z</time>
      </trkpt>
      <trkpt lat="44.80422" lon="5.39133">
        <ele>576.71</ele>
        <time>2018-06-17T14:44:53Z</time>
      </trkpt>
      <trkpt lat="44.80441" lon="5.39141">
        <ele>577.65</ele>
        <time>2018-06-17T14:44:54Z</time>
      </trkpt>
      <trkpt lat="44.8047" lon="5.39125">
        <ele>578.63</ele>
        <time>2018-06-17T14:44:55Z</time>
      </trkpt>
      <trkpt lat="44.80494" lon="5.39121">
        <ele>580.32</ele>
        <time>2018-06-17T14:44:56Z</time>
      </trkpt>
      <trkpt lat="44.80516" lon="5.39114">
        <ele>581.53</ele>
        <time>2018-06-17T14:44:57Z</time>
      </trkpt>
      <trkpt lat="44.80538" lon="5.39101">
        <ele>583.29</ele>
        <time>2018-06-17T14:44:58Z</time>
      </trkpt>
      <trkpt lat="44.8056" lon="5.39086">
        <ele>584.52</ele>
        <time>2018-06-17T14:44:59Z</time>
      </trkpt>
      <trkpt lat="44.80581" lon="5.39073">
        <ele>585.59</ele>
        <time>2018-06-17T14:45:00Z</time>
      </trkpt>
      <trkpt lat="44.806" lon="5.39062">
        <ele>588.01</ele>
        <time>2018-06-17T14:45:01Z</time>
      </trkpt>
      <trkpt lat="44.8062" lon="5.39051">
        <ele>589.44</ele>
        <time>2018-06-17T14:45:02Z</time>
      </trkpt>
      <trkpt lat="44.80645" lon="5.39047">
        <ele>591.6</ele>
        <time>2018-06-17T14:45:04Z</time>
      </trkpt>
      <trkpt lat="44.80657" lon="5.39068">
        <ele>594.32</ele>
        <time>2018-06-17T14:45:06Z</time>
      </trkpt>
      <trkpt lat="44.80653" lon="5.39099">
        <ele>596.59</ele>
        <time>2018-06-17T14:45:08Z</time>
      </trkpt>
      <trkpt lat="44.80642" lon="5.39132">
        <ele>598.62</ele>
        <time>2018-06-17T14:45:10Z</time>
      </trkpt>
      <trkpt lat="44.80647" lon="5.39177">
        <ele>601.53</ele>
        <time>2018-06-17T14:45:12Z</time>
      </trkpt>
      <trkpt lat="44.8065" lon="5.39202">
        <ele>603.29</ele>
        <time>2018-06-17T14:45:13Z</time>
      </trkpt>
      <trkpt lat="44.80658" lon="5.39229">
        <ele>604.52</ele>
        <time>2018-06-17T14:45:14Z</time>
      </trkpt>
      <trkpt lat="44.80668" lon="5.39255">
        <ele>604.89</ele>
        <time>2018-06-17T14:45:15Z</time>
      </trkpt>
      <trkpt lat="44.80678" lon="5.39279">
        <ele>606.4</ele>
        <time>2018-06-17T14:45:16Z</time>
      </trkpt>
      <trkpt lat="44.80695" lon="5.3931">
        <ele>607.69</ele>
        <time>2018-06-17T14:45:18Z</time>
      </trkpt>
      <trkpt lat="44.8072" lon="5.39325">
        <ele>609.42</ele>
        <time>2018-06-17T14:45:20Z</time>
      </trkpt>
      <trkpt lat="44.80766" lon="5.39332">
        <ele>609.78</ele>
        <time>2018-06-17T14:45:22Z</time>
      </trkpt>
      <trkpt lat="44.80786" lon="5.39344">
        <ele>611.37</ele>
        <time>2018-06-17T14:45:23Z</time>
      </trkpt>
      <trkpt lat="44.80803" lon="5.39355">
        <ele>613.24</ele>
        <time>2018-06-17T14:45:24Z</time>
      </trkpt>
      <trkpt lat="44.80839" lon="5.39367">
        <ele>614.68</ele>
        <time>2018-06-17T14:45:26Z</time>
      </trkpt>
      <trkpt lat="44.80865" lon="5.39363">
        <ele>616.34</ele>
        <time>2018-06-17T14:45:27Z</time>
      </trkpt>
      <trkpt lat="44.80891" lon="5.39367">
        <ele>617.54</ele>
        <time>2018-06-17T14:45:28Z</time>
      </trkpt>
      <trkpt lat="44.80916" lon="5.39375">
        <ele>619.29</ele>
        <time>2018-06-17T14:45:29Z</time>
      </trkpt>
      <trkpt lat="44.80942" lon="5.39382">
        <ele>621.22</ele>
        <time>2018-06-17T14:45:30Z</time>
      </trkpt>
      <trkpt lat="44.80969" lon="5.39386">
        <ele>622.5</ele>
        <time>2018-06-17T14:45:31Z</time>
      </trkpt>
      <trkpt lat="44.80998" lon="5.39386">
        <ele>623.58</ele>
        <time>2018-06-17T14:45:32Z</time>
      </trkpt>
      <trkpt lat="44.81025" lon="5.39385">
        <ele>624.61</ele>
        <time>2018-06-17T14:45:33Z</time>
      </trkpt>
      <trkpt lat="44.8105" lon="5.39387">
        <ele>625.62</ele>
        <time>2018-06-17T14:45:34Z</time>
      </trkpt>
      <trkpt lat="44.81074" lon="5.39395">
        <ele>627.32</ele>
        <time>2018-06-17T14:45:35Z</time>
      </trkpt>
      <trkpt lat="44.81099" lon="5.39408">
        <ele>629.23</ele>
        <time>2018-06-17T14:45:36Z</time>
      </trkpt>
      <trkpt lat="44.81123" lon="5.39422">
        <ele>630.5</ele>
        <time>2018-06-17T14:45:37Z</time>
      </trkpt>
      <trkpt lat="44.81145" lon="5.39434">
        <ele>631.59</ele>
        <time>2018-06-17T14:45:38Z</time>
      </trkpt>
      <trkpt lat="44.81166" lon="5.39445">
        <ele>632.61</ele>
        <time>2018-06-17T14:45:39Z</time>
      </trkpt>
      <trkpt lat="44.812" lon="5.39441">
        <ele>634.62</ele>
        <time>2018-06-17T14:45:41Z</time>
      </trkpt>
      <trkpt lat="44.81233" lon="5.39432">
        <ele>634.8</ele>
        <time>2018-06-17T14:45:43Z</time>
      </trkpt>
      <trkpt lat="44.81255" lon="5.39405">
        <ele>634.12</ele>
        <time>2018-06-17T14:45:45Z</time>
      </trkpt>
      <trkpt lat="44.81259" lon="5.39369">
        <ele>633.37</ele>
        <time>2018-06-17T14:45:46Z</time>
      </trkpt>
      <trkpt lat="44.81266" lon="5.39333">
        <ele>634.55</ele>
        <time>2018-06-17T14:45:47Z</time>
      </trkpt>
      <trkpt lat="44.81279" lon="5.39306">
        <ele>636.3</ele>
        <time>2018-06-17T14:45:48Z</time>
      </trkpt>
      <trkpt lat="44.81294" lon="5.39282">
        <ele>637.52</ele>
        <time>2018-06-17T14:45:49Z</time>
      </trkpt>
      <trkpt lat="44.8131" lon="5.39259">
        <ele>638.59</ele>
        <time>2018-06-17T14:45:50Z</time>
      </trkpt>
      <trkpt lat="44.81324" lon="5.3924">
        <ele>641.01</ele>
        <time>2018-06-17T14:45:51Z</time>
      </trkpt>
      <trkpt lat="44.81339" lon="5.39223">
        <ele>641.74</ele>
        <time>2018-06-17T14:45:52Z</time>
      </trkpt>
      <trkpt lat="44.81361" lon="5.39206">
        <ele>642.02</ele>
        <time>2018-06-17T14:45:54Z</time>
      </trkpt>
      <trkpt lat="44.8138" lon="5.39222">
        <ele>641.35</ele>
        <time>2018-06-17T14:45:56Z</time>
      </trkpt>
      <trkpt lat="44.81392" lon="5.39249">
        <ele>643.94</ele>
        <time>2018-06-17T14:45:57Z</time>
      </trkpt>
      <trkpt lat="44.81413" lon="5.39271">
        <ele>646.56</ele>
        <time>2018-06-17T14:45:59Z</time>
      </trkpt>
      <trkpt lat="44.81461" lon="5.39259">
        <ele>647.91</ele>
        <time>2018-06-17T14:46:01Z</time>
      </trkpt>
      <trkpt lat="44.81487" lon="5.39253">
        <ele>649.41</ele>
        <time>2018-06-17T14:46:02Z</time>
      </trkpt>
      <trkpt lat="44.81515" lon="5.39246">
        <ele>651.26</ele>
        <time>2018-06-17T14:46:03Z</time>
      </trkpt>
      <trkpt lat="44.81543" lon="5.39239">
        <ele>652.51</ele>
        <time>2018-06-17T14:46:04Z</time>
      </trkpt>
      <trkpt lat="44.81568" lon="5.39236">
        <ele>654.29</ele>
        <time>2018-06-17T14:46:05Z</time>
      </trkpt>
      <trkpt lat="44.81592" lon="5.39233">
        <ele>655.52</ele>
        <time>2018-06-17T14:46:06Z</time>
      </trkpt>
      <trkpt lat="44.81616" lon="5.39232">
        <ele>656.59</ele>
        <time>2018-06-17T14:46:07Z</time>
      </trkpt>
      <trkpt lat="44.81641" lon="5.39232">
        <ele>657.61</ele>
        <time>2018-06-17T14:46:08Z</time>
      </trkpt>
      <trkpt lat="44.81668" lon="5.39236">
        <ele>657.92</ele>
        <time>2018-06-17T14:46:09Z</time>
      </trkpt>
      <trkpt lat="44.817" lon="5.39248">
        <ele>660.11</ele>
        <time>2018-06-17T14:46:10Z</time>
      </trkpt>
      <trkpt lat="44.8173" lon="5.39254">
        <ele>661.47</ele>
        <time>2018-06-17T14:46:11Z</time>
      </trkpt>
      <trkpt lat="44.81758" lon="5.39259">
        <ele>663.97</ele>
        <time>2018-06-17T14:46:12Z</time>
      </trkpt>
      <trkpt lat="44.81785" lon="5.39264">
        <ele>665.43</ele>
        <time>2018-06-17T14:46:13Z</time>
      </trkpt>
      <trkpt lat="44.8181" lon="5.39269">
        <ele>666.56</ele>
        <time>2018-06-17T14:46:14Z</time>
      </trkpt>
      <trkpt lat="44.81834" lon="5.39272">
        <ele>667.6</ele>
        <time>2018-06-17T14:46:15Z</time>
      </trkpt>
      <trkpt lat="44.81856" lon="5.3927">
        <ele>669.32</ele>
        <time>2018-06-17T14:46:16Z</time>
      </trkpt>
      <trkpt lat="44.81877" lon="5.39268">
        <ele>669.83</ele>
        <time>2018-06-17T14:46:17Z</time>
      </trkpt>
      <trkpt lat="44.81897" lon="5.39253">
        <ele>671.38</ele>
        <time>2018-06-17T14:46:18Z</time>
      </trkpt>
      <trkpt lat="44.81917" lon="5.39235">
        <ele>673.95</ele>
        <time>2018-06-17T14:46:19Z</time>
      </trkpt>
      <trkpt lat="44.81935" lon="5.39217">
        <ele>675.42</ele>
        <time>2018-06-17T14:46:20Z</time>
      </trkpt>
      <trkpt lat="44.81952" lon="5.39199">
        <ele>676.56</ele>
        <time>2018-06-17T14:46:21Z</time>
      </trkpt>
      <trkpt lat="44.81968" lon="5.39183">
        <ele>677.6</ele>
        <time>2018-06-17T14:46:22Z</time>
      </trkpt>
      <trkpt lat="44.81987" lon="5.392">
        <ele>680.53</ele>
        <time>2018-06-17T14:46:24Z</time>
      </trkpt>
      <trkpt lat="44.82005" lon="5.39239">
        <ele>682.4</ele>
        <time>2018-06-17T14:46:26Z</time>
      </trkpt>
      <trkpt lat="44.82033" lon="5.39268">
        <ele>686</ele>
        <time>2018-06-17T14:46:28Z</time>
      </trkpt>
      <trkpt lat="44.82049" lon="5.39281">
        <ele>688.13</ele>
        <time>2018-06-17T14:46:29Z</time>
      </trkpt>
      <trkpt lat="44.82065" lon="5.39295">
        <ele>690.17</ele>
        <time>2018-06-17T14:46:30Z</time>
      </trkpt>
      <trkpt lat="44.82093" lon="5.39334">
        <ele>690.97</ele>
        <time>2018-06-17T14:46:32Z</time>
      </trkpt>
      <trkpt lat="44.82108" lon="5.39381">
        <ele>691.74</ele>
        <time>2018-06-17T14:46:34Z</time>
      </trkpt>
      <trkpt lat="44.82067" lon="5.39408">
        <ele>694.06</ele>
        <time>2018-06-17T14:46:35Z</time>
      </trkpt>
      <trkpt lat="44.82053" lon="5.39429">
        <ele>696.15</ele>
        <time>2018-06-17T14:46:36Z</time>
      </trkpt>
      <trkpt lat="44.82038" lon="5.39447">
        <ele>698.18</ele>
        <time>2018-06-17T14:46:37Z</time>
      </trkpt>
      <trkpt lat="44.82014" lon="5.39482">
        <ele>698.97</ele>
        <time>2018-06-17T14:46:39Z</time>
      </trkpt>
      <trkpt lat="44.8202" lon="5.39522">
        <ele>701.35</ele>
        <time>2018-06-17T14:46:41Z</time>
      </trkpt>
      <trkpt lat="44.82034" lon="5.39554">
        <ele>702.9</ele>
        <time>2018-06-17T14:46:43Z</time>
      </trkpt>
      <trkpt lat="44.82065" lon="5.39581">
        <ele>703.95</ele>
        <time>2018-06-17T14:46:45Z</time>
      </trkpt>
      <trkpt lat="44.82082" lon="5.39587">
        <ele>704.02</ele>
        <time>2018-06-17T14:46:46Z</time>
      </trkpt>
      <trkpt lat="44.82112" lon="5.39568">
        <ele>702.64</ele>
        <time>2018-06-17T14:46:47Z</time>
      </trkpt>
      <trkpt lat="44.82136" lon="5.39555">
        <ele>702.23</ele>
        <time>2018-06-17T14:46:48Z</time>
      </trkpt>
      <trkpt lat="44.8216" lon="5.39523">
        <ele>705.6</ele>
        <time>2018-06-17T14:46:49Z</time>
      </trkpt>
      <trkpt lat="44.82181" lon="5.39508">
        <ele>708.01</ele>
        <time>2018-06-17T14:46:50Z</time>
      </trkpt>
      <trkpt lat="44.82203" lon="5.39499">
        <ele>710.14</ele>
        <time>2018-06-17T14:46:51Z</time>
      </trkpt>
      <trkpt lat="44.82229" lon="5.39497">
        <ele>712.18</ele>
        <time>2018-06-17T14:46:52Z</time>
      </trkpt>
      <trkpt lat="44.82253" lon="5.39499">
        <ele>714.89</ele>
        <time>2018-06-17T14:46:53Z</time>
      </trkpt>
      <trkpt lat="44.82278" lon="5.39504">
        <ele>717.1</ele>
        <time>2018-06-17T14:46:54Z</time>
      </trkpt>
      <trkpt lat="44.82302" lon="5.39511">
        <ele>719.16</ele>
        <time>2018-06-17T14:46:55Z</time>
      </trkpt>
      <trkpt lat="44.82325" lon="5.39519">
        <ele>721.18</ele>
        <time>2018-06-17T14:46:56Z</time>
      </trkpt>
      <trkpt lat="44.82347" lon="5.39526">
        <ele>722.49</ele>
        <time>2018-06-17T14:46:57Z</time>
      </trkpt>
      <trkpt lat="44.82364" lon="5.39531">
        <ele>724.28</ele>
        <time>2018-06-17T14:46:58Z</time>
      </trkpt>
      <trkpt lat="44.82391" lon="5.39539">
        <ele>725.68</ele>
        <time>2018-06-17T14:47:00Z</time>
      </trkpt>
      <trkpt lat="44.82406" lon="5.39523">
        <ele>727.99</ele>
        <time>2018-06-17T14:47:03Z</time>
      </trkpt>
      <trkpt lat="44.82379" lon="5.39515">
        <ele>728.95</ele>
        <time>2018-06-17T14:47:05Z</time>
      </trkpt>
      <trkpt lat="44.82347" lon="5.39507">
        <ele>729.74</ele>
        <time>2018-06-17T14:47:07Z</time>
      </trkpt>
      <trkpt lat="44.8233" lon="5.395">
        <ele>729.96</ele>
        <time>2018-06-17T14:47:08Z</time>
      </trkpt>
      <trkpt lat="44.8231" lon="5.3949">
        <ele>730.72</ele>
        <time>2018-06-17T14:47:09Z</time>
      </trkpt>
      <trkpt lat="44.82289" lon="5.39475">
        <ele>730.25</ele>
        <time>2018-06-17T14:47:10Z</time>
      </trkpt>
      <trkpt lat="44.82269" lon="5.39458">
        <ele>731.51</ele>
        <time>2018-06-17T14:47:11Z</time>
      </trkpt>
      <trkpt lat="44.82251" lon="5.39442">
        <ele>732.59</ele>
        <time>2018-06-17T14:47:12Z</time>
      </trkpt>
      <trkpt lat="44.82234" lon="5.39427">
        <ele>732.91</ele>
        <time>2018-06-17T14:47:13Z</time>
      </trkpt>
      <trkpt lat="44.82214" lon="5.39397">
        <ele>733.95</ele>
        <time>2018-06-17T14:47:15Z</time>
      </trkpt>
      <trkpt lat="44.82194" lon="5.39369">
        <ele>736.56</ele>
        <time>2018-06-17T14:47:17Z</time>
      </trkpt>
      <trkpt lat="44.82182" lon="5.39324">
        <ele>740.01</ele>
        <time>2018-06-17T14:47:19Z</time>
      </trkpt>
      <trkpt lat="44.82176" lon="5.39294">
        <ele>741.44</ele>
        <time>2018-06-17T14:47:20Z</time>
      </trkpt>
      <trkpt lat="44.8217" lon="5.39261">
        <ele>742.57</ele>
        <time>2018-06-17T14:47:21Z</time>
      </trkpt>
      <trkpt lat="44.82162" lon="5.39235">
        <ele>744.3</ele>
        <time>2018-06-17T14:47:22Z</time>
      </trkpt>
      <trkpt lat="44.82145" lon="5.392">
        <ele>747.29</ele>
        <time>2018-06-17T14:47:24Z</time>
      </trkpt>
      <trkpt lat="44.8214" lon="5.39174">
        <ele>748.19</ele>
        <time>2018-06-17T14:47:26Z</time>
      </trkpt>
      <trkpt lat="44.8216" lon="5.39213">
        <ele>750.36</ele>
        <time>2018-06-17T14:47:30Z</time>
      </trkpt>
      <trkpt lat="44.82176" lon="5.39251">
        <ele>750.84</ele>
        <time>2018-06-17T14:47:31Z</time>
      </trkpt>
      <trkpt lat="44.82192" lon="5.39286">
        <ele>753.09</ele>
        <time>2018-06-17T14:47:32Z</time>
      </trkpt>
      <trkpt lat="44.82204" lon="5.39314">
        <ele>755.86</ele>
        <time>2018-06-17T14:47:33Z</time>
      </trkpt>
      <trkpt lat="44.82216" lon="5.39338">
        <ele>756.69</ele>
        <time>2018-06-17T14:47:34Z</time>
      </trkpt>
      <trkpt lat="44.82232" lon="5.39362">
        <ele>757.64</ele>
        <time>2018-06-17T14:47:35Z</time>
      </trkpt>
      <trkpt lat="44.82259" lon="5.39376">
        <ele>757.23</ele>
        <time>2018-06-17T14:47:36Z</time>
      </trkpt>
      <trkpt lat="44.82276" lon="5.39395">
        <ele>759.2</ele>
        <time>2018-06-17T14:47:37Z</time>
      </trkpt>
      <trkpt lat="44.82295" lon="5.39413">
        <ele>760.49</ele>
        <time>2018-06-17T14:47:38Z</time>
      </trkpt>
      <trkpt lat="44.82314" lon="5.39427">
        <ele>762.28</ele>
        <time>2018-06-17T14:47:39Z</time>
      </trkpt>
      <trkpt lat="44.82336" lon="5.3944">
        <ele>763.52</ele>
        <time>2018-06-17T14:47:40Z</time>
      </trkpt>
      <trkpt lat="44.82363" lon="5.39452">
        <ele>763.89</ele>
        <time>2018-06-17T14:47:41Z</time>
      </trkpt>
      <trkpt lat="44.82394" lon="5.39449">
        <ele>764</ele>
        <time>2018-06-17T14:47:42Z</time>
      </trkpt>
      <trkpt lat="44.82421" lon="5.3946">
        <ele>765.43</ele>
        <time>2018-06-17T14:47:43Z</time>
      </trkpt>
      <trkpt lat="44.82446" lon="5.39474">
        <ele>766.56</ele>
        <time>2018-06-17T14:47:44Z</time>
      </trkpt>
      <trkpt lat="44.82469" lon="5.39487">
        <ele>768.3</ele>
        <time>2018-06-17T14:47:45Z</time>
      </trkpt>
      <trkpt lat="44.82491" lon="5.39495">
        <ele>768.83</ele>
        <time>2018-06-17T14:47:46Z</time>
      </trkpt>
      <trkpt lat="44.82514" lon="5.39504">
        <ele>768.98</ele>
        <time>2018-06-17T14:47:47Z</time>
      </trkpt>
      <trkpt lat="44.82539" lon="5.39497">
        <ele>769.73</ele>
        <time>2018-06-17T14:47:48Z</time>
      </trkpt>
      <trkpt lat="44.82566" lon="5.39497">
        <ele>770.65</ele>
        <time>2018-06-17T14:47:49Z</time>
      </trkpt>
      <trkpt lat="44.8259" lon="5.39495">
        <ele>771.63</ele>
        <time>2018-06-17T14:47:50Z</time>
      </trkpt>
      <trkpt lat="44.82618" lon="5.39505">
        <ele>774.02</ele>
        <time>2018-06-17T14:47:51Z</time>
      </trkpt>
      <trkpt lat="44.82644" lon="5.3951">
        <ele>776.14</ele>
        <time>2018-06-17T14:47:52Z</time>
      </trkpt>
      <trkpt lat="44.82667" lon="5.39514">
        <ele>777.48</ele>
        <time>2018-06-17T14:47:53Z</time>
      </trkpt>
      <trkpt lat="44.82686" lon="5.39522">
        <ele>779.28</ele>
        <time>2018-06-17T14:47:54Z</time>
      </trkpt>
      <trkpt lat="44.82717" lon="5.3954">
        <ele>780.89</ele>
        <time>2018-06-17T14:47:56Z</time>
      </trkpt>
      <trkpt lat="44.82722" lon="5.39572">
        <ele>783.13</ele>
        <time>2018-06-17T14:47:58Z</time>
      </trkpt>
      <trkpt lat="44.82718" lon="5.39609">
        <ele>783.97</ele>
        <time>2018-06-17T14:48:00Z</time>
      </trkpt>
      <trkpt lat="44.82693" lon="5.3964">
        <ele>784.95</ele>
        <time>2018-06-17T14:48:02Z</time>
      </trkpt>
      <trkpt lat="44.82663" lon="5.39655">
        <ele>785.02</ele>
        <time>2018-06-17T14:48:03Z</time>
      </trkpt>
      <trkpt lat="44.82644" lon="5.39679">
        <ele>786.44</ele>
        <time>2018-06-17T14:48:04Z</time>
      </trkpt>
      <trkpt lat="44.82627" lon="5.39707">
        <ele>788.27</ele>
        <time>2018-06-17T14:48:05Z</time>
      </trkpt>
      <trkpt lat="44.8261" lon="5.3973">
        <ele>789.51</ele>
        <time>2018-06-17T14:48:06Z</time>
      </trkpt>
      <trkpt lat="44.82592" lon="5.39742">
        <ele>791.99</ele>
        <time>2018-06-17T14:48:07Z</time>
      </trkpt>
      <trkpt lat="44.82565" lon="5.39755">
        <ele>795.47</ele>
        <time>2018-06-17T14:48:09Z</time>
      </trkpt>
      <trkpt lat="44.8255" lon="5.39773">
        <ele>796.91</ele>
        <time>2018-06-17T14:48:11Z</time>
      </trkpt>
      <trkpt lat="44.82567" lon="5.39785">
        <ele>798.65</ele>
        <time>2018-06-17T14:48:13Z</time>
      </trkpt>
      <trkpt lat="44.82585" lon="5.39778">
        <ele>799.71</ele>
        <time>2018-06-17T14:48:15Z</time>
      </trkpt>
      <trkpt lat="44.826" lon="5.3976">
        <ele>799.95</ele>
        <time>2018-06-17T14:48:16Z</time>
      </trkpt>
      <trkpt lat="44.82622" lon="5.39732">
        <ele>801.42</ele>
        <time>2018-06-17T14:48:17Z</time>
      </trkpt>
      <trkpt lat="44.82638" lon="5.39711">
        <ele>803.26</ele>
        <time>2018-06-17T14:48:18Z</time>
      </trkpt>
      <trkpt lat="44.82656" lon="5.39691">
        <ele>805.91</ele>
        <time>2018-06-17T14:48:19Z</time>
      </trkpt>
      <trkpt lat="44.82676" lon="5.39671">
        <ele>808.11</ele>
        <time>2018-06-17T14:48:20Z</time>
      </trkpt>
      <trkpt lat="44.82706" lon="5.39655">
        <ele>810.17</ele>
        <time>2018-06-17T14:48:21Z</time>
      </trkpt>
      <trkpt lat="44.82732" lon="5.39634">
        <ele>812.18</ele>
        <time>2018-06-17T14:48:22Z</time>
      </trkpt>
      <trkpt lat="44.82756" lon="5.39613">
        <ele>814.19</ele>
        <time>2018-06-17T14:48:23Z</time>
      </trkpt>
      <trkpt lat="44.82775" lon="5.39596">
        <ele>816.19</ele>
        <time>2018-06-17T14:48:24Z</time>
      </trkpt>
      <trkpt lat="44.82793" lon="5.39578">
        <ele>816.79</ele>
        <time>2018-06-17T14:48:25Z</time>
      </trkpt>
      <trkpt lat="44.8281" lon="5.39563">
        <ele>816.97</ele>
        <time>2018-06-17T14:48:26Z</time>
      </trkpt>
      <trkpt lat="44.82827" lon="5.39538">
        <ele>817.04</ele>
        <time>2018-06-17T14:48:28Z</time>
      </trkpt>
      <trkpt lat="44.82827" lon="5.39509">
        <ele>816.84</ele>
        <time>2018-06-17T14:48:30Z</time>
      </trkpt>
      <trkpt lat="44.82809" lon="5.39481">
        <ele>816.12</ele>
        <time>2018-06-17T14:48:32Z</time>
      </trkpt>
      <trkpt lat="44.82775" lon="5.39457">
        <ele>816.06</ele>
        <time>2018-06-17T14:48:34Z</time>
      </trkpt>
      <trkpt lat="44.82755" lon="5.39442">
        <ele>816.75</ele>
        <time>2018-06-17T14:48:35Z</time>
      </trkpt>
      <trkpt lat="44.82679" lon="5.39442">
        <ele>817.66</ele>
        <time>2018-06-17T14:48:36Z</time>
      </trkpt>
      <trkpt lat="44.82649" lon="5.39432">
        <ele>817.93</ele>
        <time>2018-06-17T14:48:37Z</time>
      </trkpt>
      <trkpt lat="44.82624" lon="5.39428">
        <ele>818.71</ele>
        <time>2018-06-17T14:48:38Z</time>
      </trkpt>
      <trkpt lat="44.82599" lon="5.39421">
        <ele>817.55</ele>
        <time>2018-06-17T14:48:39Z</time>
      </trkpt>
      <trkpt lat="44.82572" lon="5.39411">
        <ele>818.6</ele>
        <time>2018-06-17T14:48:40Z</time>
      </trkpt>
      <trkpt lat="44.82544" lon="5.39397">
        <ele>818.91</ele>
        <time>2018-06-17T14:48:41Z</time>
      </trkpt>
      <trkpt lat="44.82523" lon="5.39374">
        <ele>821.11</ele>
        <time>2018-06-17T14:48:42Z</time>
      </trkpt>
      <trkpt lat="44.82503" lon="5.3935">
        <ele>823.17</ele>
        <time>2018-06-17T14:48:43Z</time>
      </trkpt>
      <trkpt lat="44.82483" lon="5.39327">
        <ele>824.48</ele>
        <time>2018-06-17T14:48:44Z</time>
      </trkpt>
      <trkpt lat="44.82468" lon="5.39306">
        <ele>826.98</ele>
        <time>2018-06-17T14:48:45Z</time>
      </trkpt>
      <trkpt lat="44.82449" lon="5.39289">
        <ele>829.13</ele>
        <time>2018-06-17T14:48:46Z</time>
      </trkpt>
      <trkpt lat="44.82429" lon="5.39275">
        <ele>831.17</ele>
        <time>2018-06-17T14:48:47Z</time>
      </trkpt>
      <trkpt lat="44.82409" lon="5.3926">
        <ele>831.09</ele>
        <time>2018-06-17T14:48:48Z</time>
      </trkpt>
      <trkpt lat="44.82396" lon="5.39241">
        <ele>831.06</ele>
        <time>2018-06-17T14:48:49Z</time>
      </trkpt>
      <trkpt lat="44.82378" lon="5.39223">
        <ele>831.75</ele>
        <time>2018-06-17T14:48:50Z</time>
      </trkpt>
      <trkpt lat="44.82365" lon="5.39194">
        <ele>832.66</ele>
        <time>2018-06-17T14:48:51Z</time>
      </trkpt>
      <trkpt lat="44.82351" lon="5.39161">
        <ele>833.63</ele>
        <time>2018-06-17T14:48:52Z</time>
      </trkpt>
      <trkpt lat="44.82331" lon="5.39124">
        <ele>836.02</ele>
        <time>2018-06-17T14:48:53Z</time>
      </trkpt>
      <trkpt lat="44.82317" lon="5.39094">
        <ele>837.44</ele>
        <time>2018-06-17T14:48:54Z</time>
      </trkpt>
      <trkpt lat="44.82306" lon="5.39064">
        <ele>837.87</ele>
        <time>2018-06-17T14:48:55Z</time>
      </trkpt>
      <trkpt lat="44.82302" lon="5.39037">
        <ele>836.59</ele>
        <time>2018-06-17T14:48:56Z</time>
      </trkpt>
      <trkpt lat="44.82301" lon="5.3901">
        <ele>837.61</ele>
        <time>2018-06-17T14:48:57Z</time>
      </trkpt>
      <trkpt lat="44.82303" lon="5.38985">
        <ele>837.92</ele>
        <time>2018-06-17T14:48:58Z</time>
      </trkpt>
      <trkpt lat="44.82309" lon="5.38955">
        <ele>838.71</ele>
        <time>2018-06-17T14:48:59Z</time>
      </trkpt>
      <trkpt lat="44.82316" lon="5.38927">
        <ele>839.65</ele>
        <time>2018-06-17T14:49:00Z</time>
      </trkpt>
      <trkpt lat="44.82319" lon="5.38902">
        <ele>842.03</ele>
        <time>2018-06-17T14:49:01Z</time>
      </trkpt>
      <trkpt lat="44.82323" lon="5.38874">
        <ele>843.44</ele>
        <time>2018-06-17T14:49:02Z</time>
      </trkpt>
      <trkpt lat="44.82315" lon="5.3885">
        <ele>845.97</ele>
        <time>2018-06-17T14:49:03Z</time>
      </trkpt>
      <trkpt lat="44.82304" lon="5.38813">
        <ele>850.87</ele>
        <time>2018-06-17T14:49:05Z</time>
      </trkpt>
      <trkpt lat="44.82323" lon="5.38799">
        <ele>856.05</ele>
        <time>2018-06-17T14:49:09Z</time>
      </trkpt>
      <trkpt lat="44.82333" lon="5.38823">
        <ele>857.66</ele>
        <time>2018-06-17T14:49:11Z</time>
      </trkpt>
      <trkpt lat="44.82337" lon="5.38851">
        <ele>857.93</ele>
        <time>2018-06-17T14:49:12Z</time>
      </trkpt>
      <trkpt lat="44.8234" lon="5.38884">
        <ele>858.71</ele>
        <time>2018-06-17T14:49:13Z</time>
      </trkpt>
      <trkpt lat="44.82338" lon="5.38911">
        <ele>860.35</ele>
        <time>2018-06-17T14:49:14Z</time>
      </trkpt>
      <trkpt lat="44.82329" lon="5.38958">
        <ele>863.51</ele>
        <time>2018-06-17T14:49:16Z</time>
      </trkpt>
      <trkpt lat="44.82324" lon="5.39005">
        <ele>867.01</ele>
        <time>2018-06-17T14:49:18Z</time>
      </trkpt>
      <trkpt lat="44.82335" lon="5.3903">
        <ele>867.74</ele>
        <time>2018-06-17T14:49:19Z</time>
      </trkpt>
      <trkpt lat="44.82344" lon="5.39055">
        <ele>868.66</ele>
        <time>2018-06-17T14:49:20Z</time>
      </trkpt>
      <trkpt lat="44.82355" lon="5.39075">
        <ele>868.93</ele>
        <time>2018-06-17T14:49:21Z</time>
      </trkpt>
      <trkpt lat="44.82379" lon="5.39093">
        <ele>870.41</ele>
        <time>2018-06-17T14:49:22Z</time>
      </trkpt>
      <trkpt lat="44.82396" lon="5.39114">
        <ele>872.26</ele>
        <time>2018-06-17T14:49:23Z</time>
      </trkpt>
      <trkpt lat="44.82413" lon="5.39135">
        <ele>874.21</ele>
        <time>2018-06-17T14:49:24Z</time>
      </trkpt>
      <trkpt lat="44.82427" lon="5.39158">
        <ele>874.8</ele>
        <time>2018-06-17T14:49:25Z</time>
      </trkpt>
      <trkpt lat="44.8244" lon="5.39179">
        <ele>877.07</ele>
        <time>2018-06-17T14:49:26Z</time>
      </trkpt>
      <trkpt lat="44.82454" lon="5.39197">
        <ele>877.76</ele>
        <time>2018-06-17T14:49:27Z</time>
      </trkpt>
      <trkpt lat="44.82474" lon="5.39206">
        <ele>878.66</ele>
        <time>2018-06-17T14:49:28Z</time>
      </trkpt>
      <trkpt lat="44.82493" lon="5.39215">
        <ele>880.33</ele>
        <time>2018-06-17T14:49:29Z</time>
      </trkpt>
      <trkpt lat="44.82513" lon="5.39227">
        <ele>881.53</ele>
        <time>2018-06-17T14:49:30Z</time>
      </trkpt>
      <trkpt lat="44.82531" lon="5.39239">
        <ele>882.59</ele>
        <time>2018-06-17T14:49:31Z</time>
      </trkpt>
      <trkpt lat="44.82543" lon="5.39262">
        <ele>884.31</ele>
        <time>2018-06-17T14:49:32Z</time>
      </trkpt>
      <trkpt lat="44.82558" lon="5.39278">
        <ele>885.53</ele>
        <time>2018-06-17T14:49:33Z</time>
      </trkpt>
      <trkpt lat="44.82574" lon="5.39291">
        <ele>886.59</ele>
        <time>2018-06-17T14:49:34Z</time>
      </trkpt>
      <trkpt lat="44.82591" lon="5.39303">
        <ele>888.31</ele>
        <time>2018-06-17T14:49:35Z</time>
      </trkpt>
      <trkpt lat="44.82609" lon="5.39315">
        <ele>888.83</ele>
        <time>2018-06-17T14:49:36Z</time>
      </trkpt>
      <trkpt lat="44.82641" lon="5.39333">
        <ele>889.73</ele>
        <time>2018-06-17T14:49:38Z</time>
      </trkpt>
      <trkpt lat="44.82677" lon="5.39338">
        <ele>890.93</ele>
        <time>2018-06-17T14:49:40Z</time>
      </trkpt>
      <trkpt lat="44.82688" lon="5.39313">
        <ele>891.71</ele>
        <time>2018-06-17T14:49:41Z</time>
      </trkpt>
      <trkpt lat="44.8272" lon="5.39304">
        <ele>892.02</ele>
        <time>2018-06-17T14:49:43Z</time>
      </trkpt>
      <trkpt lat="44.8275" lon="5.39322">
        <ele>893.66</ele>
        <time>2018-06-17T14:49:45Z</time>
      </trkpt>
      <trkpt lat="44.82776" lon="5.39343">
        <ele>895.33</ele>
        <time>2018-06-17T14:49:46Z</time>
      </trkpt>
      <trkpt lat="44.82797" lon="5.39353">
        <ele>897.23</ele>
        <time>2018-06-17T14:49:47Z</time>
      </trkpt>
      <trkpt lat="44.82819" lon="5.3936">
        <ele>899.2</ele>
        <time>2018-06-17T14:49:48Z</time>
      </trkpt>
      <trkpt lat="44.82842" lon="5.39362">
        <ele>900.5</ele>
        <time>2018-06-17T14:49:49Z</time>
      </trkpt>
      <trkpt lat="44.82866" lon="5.39362">
        <ele>900.18</ele>
        <time>2018-06-17T14:49:50Z</time>
      </trkpt>
      <trkpt lat="44.82891" lon="5.3937">
        <ele>901.49</ele>
        <time>2018-06-17T14:49:51Z</time>
      </trkpt>
      <trkpt lat="44.82919" lon="5.39379">
        <ele>902.58</ele>
        <time>2018-06-17T14:49:52Z</time>
      </trkpt>
      <trkpt lat="44.82947" lon="5.39384">
        <ele>902.21</ele>
        <time>2018-06-17T14:49:53Z</time>
      </trkpt>
      <trkpt lat="44.82977" lon="5.39389">
        <ele>903.5</ele>
        <time>2018-06-17T14:49:54Z</time>
      </trkpt>
      <trkpt lat="44.83005" lon="5.39396">
        <ele>904.58</ele>
        <time>2018-06-17T14:49:55Z</time>
      </trkpt>
      <trkpt lat="44.83031" lon="5.39405">
        <ele>905.61</ele>
        <time>2018-06-17T14:49:56Z</time>
      </trkpt>
      <trkpt lat="44.83056" lon="5.39415">
        <ele>906.62</ele>
        <time>2018-06-17T14:49:57Z</time>
      </trkpt>
      <trkpt lat="44.8308" lon="5.39428">
        <ele>909.02</ele>
        <time>2018-06-17T14:49:58Z</time>
      </trkpt>
      <trkpt lat="44.83105" lon="5.39439">
        <ele>911.14</ele>
        <time>2018-06-17T14:49:59Z</time>
      </trkpt>
      <trkpt lat="44.83131" lon="5.39447">
        <ele>912.48</ele>
        <time>2018-06-17T14:50:00Z</time>
      </trkpt>
      <trkpt lat="44.83155" lon="5.39452">
        <ele>913.58</ele>
        <time>2018-06-17T14:50:01Z</time>
      </trkpt>
      <trkpt lat="44.83177" lon="5.39457">
        <ele>914.61</ele>
        <time>2018-06-17T14:50:02Z</time>
      </trkpt>
      <trkpt lat="44.83197" lon="5.39462">
        <ele>915.62</ele>
        <time>2018-06-17T14:50:03Z</time>
      </trkpt>
      <trkpt lat="44.83229" lon="5.39476">
        <ele>917.83</ele>
        <time>2018-06-17T14:50:05Z</time>
      </trkpt>
      <trkpt lat="44.83252" lon="5.39501">
        <ele>918.03</ele>
        <time>2018-06-17T14:50:07Z</time>
      </trkpt>
      <trkpt lat="44.83218" lon="5.39556">
        <ele>920.85</ele>
        <time>2018-06-17T14:50:09Z</time>
      </trkpt>
      <trkpt lat="44.83199" lon="5.39581">
        <ele>922.39</ele>
        <time>2018-06-17T14:50:10Z</time>
      </trkpt>
      <trkpt lat="44.83181" lon="5.39607">
        <ele>924.25</ele>
        <time>2018-06-17T14:50:11Z</time>
      </trkpt>
      <trkpt lat="44.83162" lon="5.39632">
        <ele>926.21</ele>
        <time>2018-06-17T14:50:12Z</time>
      </trkpt>
      <trkpt lat="44.8314" lon="5.39652">
        <ele>928.9</ele>
        <time>2018-06-17T14:50:13Z</time>
      </trkpt>
      <trkpt lat="44.83118" lon="5.39669">
        <ele>931.1</ele>
        <time>2018-06-17T14:50:14Z</time>
      </trkpt>
      <trkpt lat="44.83096" lon="5.39687">
        <ele>931.77</ele>
        <time>2018-06-17T14:50:15Z</time>
      </trkpt>
      <trkpt lat="44.83073" lon="5.3971">
        <ele>934.06</ele>
        <time>2018-06-17T14:50:16Z</time>
      </trkpt>
      <trkpt lat="44.83051" lon="5.39733">
        <ele>936.15</ele>
        <time>2018-06-17T14:50:17Z</time>
      </trkpt>
      <trkpt lat="44.8303" lon="5.39753">
        <ele>937.48</ele>
        <time>2018-06-17T14:50:18Z</time>
      </trkpt>
      <trkpt lat="44.83007" lon="5.39767">
        <ele>938.58</ele>
        <time>2018-06-17T14:50:19Z</time>
      </trkpt>
      <trkpt lat="44.82985" lon="5.3978">
        <ele>941.71</ele>
        <time>2018-06-17T14:50:20Z</time>
      </trkpt>
      <trkpt lat="44.82966" lon="5.39792">
        <ele>943.35</ele>
        <time>2018-06-17T14:50:21Z</time>
      </trkpt>
      <trkpt lat="44.82948" lon="5.39804">
        <ele>944.54</ele>
        <time>2018-06-17T14:50:22Z</time>
      </trkpt>
      <trkpt lat="44.82926" lon="5.39813">
        <ele>945.7</ele>
        <time>2018-06-17T14:50:24Z</time>
      </trkpt>
      <trkpt lat="44.82905" lon="5.39829">
        <ele>948.62</ele>
        <time>2018-06-17T14:50:27Z</time>
      </trkpt>
      <trkpt lat="44.82939" lon="5.3983">
        <ele>950.95</ele>
        <time>2018-06-17T14:50:31Z</time>
      </trkpt>
      <trkpt lat="44.82958" lon="5.39826">
        <ele>950.32</ele>
        <time>2018-06-17T14:50:32Z</time>
      </trkpt>
      <trkpt lat="44.8298" lon="5.39816">
        <ele>950.83</ele>
        <time>2018-06-17T14:50:33Z</time>
      </trkpt>
      <trkpt lat="44.83001" lon="5.39806">
        <ele>950.98</ele>
        <time>2018-06-17T14:50:34Z</time>
      </trkpt>
      <trkpt lat="44.83044" lon="5.39775">
        <ele>953.13</ele>
        <time>2018-06-17T14:50:35Z</time>
      </trkpt>
      <trkpt lat="44.83075" lon="5.39752">
        <ele>954.47</ele>
        <time>2018-06-17T14:50:36Z</time>
      </trkpt>
      <trkpt lat="44.83105" lon="5.39731">
        <ele>955.58</ele>
        <time>2018-06-17T14:50:37Z</time>
      </trkpt>
      <trkpt lat="44.8313" lon="5.39721">
        <ele>959.41</ele>
        <time>2018-06-17T14:50:38Z</time>
      </trkpt>
      <trkpt lat="44.83152" lon="5.39712">
        <ele>961.96</ele>
        <time>2018-06-17T14:50:39Z</time>
      </trkpt>
      <trkpt lat="44.83172" lon="5.39708">
        <ele>964.12</ele>
        <time>2018-06-17T14:50:40Z</time>
      </trkpt>
      <trkpt lat="44.83202" lon="5.3969">
        <ele>965.46</ele>
        <time>2018-06-17T14:50:42Z</time>
      </trkpt>
      <trkpt lat="44.83215" lon="5.39672">
        <ele>966.57</ele>
        <time>2018-06-17T14:50:43Z</time>
      </trkpt>
      <trkpt lat="44.8323" lon="5.39657">
        <ele>967.61</ele>
        <time>2018-06-17T14:50:44Z</time>
      </trkpt>
      <trkpt lat="44.83248" lon="5.39649">
        <ele>969.32</ele>
        <time>2018-06-17T14:50:45Z</time>
      </trkpt>
      <trkpt lat="44.83282" lon="5.39627">
        <ele>970.89</ele>
        <time>2018-06-17T14:50:47Z</time>
      </trkpt>
      <trkpt lat="44.83293" lon="5.39594">
        <ele>973.1</ele>
        <time>2018-06-17T14:50:48Z</time>
      </trkpt>
      <trkpt lat="44.8331" lon="5.39567">
        <ele>975.16</ele>
        <time>2018-06-17T14:50:49Z</time>
      </trkpt>
      <trkpt lat="44.8333" lon="5.39541">
        <ele>977.88</ele>
        <time>2018-06-17T14:50:50Z</time>
      </trkpt>
      <trkpt lat="44.83349" lon="5.39515">
        <ele>979.4</ele>
        <time>2018-06-17T14:50:51Z</time>
      </trkpt>
      <trkpt lat="44.83366" lon="5.39488">
        <ele>981.25</ele>
        <time>2018-06-17T14:50:52Z</time>
      </trkpt>
      <trkpt lat="44.83379" lon="5.39461">
        <ele>981.81</ele>
        <time>2018-06-17T14:50:53Z</time>
      </trkpt>
      <trkpt lat="44.83388" lon="5.39434">
        <ele>983.38</ele>
        <time>2018-06-17T14:50:54Z</time>
      </trkpt>
      <trkpt lat="44.83393" lon="5.39405">
        <ele>984.55</ele>
        <time>2018-06-17T14:50:55Z</time>
      </trkpt>
      <trkpt lat="44.83395" lon="5.39377">
        <ele>985.6</ele>
        <time>2018-06-17T14:50:56Z</time>
      </trkpt>
      <trkpt lat="44.83397" lon="5.39351">
        <ele>985.91</ele>
        <time>2018-06-17T14:50:57Z</time>
      </trkpt>
      <trkpt lat="44.83397" lon="5.39325">
        <ele>986.71</ele>
        <time>2018-06-17T14:50:58Z</time>
      </trkpt>
      <trkpt lat="44.83383" lon="5.39284">
        <ele>987.23</ele>
        <time>2018-06-17T14:51:00Z</time>
      </trkpt>
      <trkpt lat="44.83348" lon="5.39268">
        <ele>986.16</ele>
        <time>2018-06-17T14:51:02Z</time>
      </trkpt>
      <trkpt lat="44.83322" lon="5.39262">
        <ele>986.08</ele>
        <time>2018-06-17T14:51:03Z</time>
      </trkpt>
      <trkpt lat="44.83296" lon="5.39266">
        <ele>986.76</ele>
        <time>2018-06-17T14:51:04Z</time>
      </trkpt>
      <trkpt lat="44.83272" lon="5.39263">
        <ele>986.96</ele>
        <time>2018-06-17T14:51:05Z</time>
      </trkpt>
      <trkpt lat="44.8325" lon="5.39261">
        <ele>987.02</ele>
        <time>2018-06-17T14:51:06Z</time>
      </trkpt>
      <trkpt lat="44.83227" lon="5.39265">
        <ele>987.04</ele>
        <time>2018-06-17T14:51:07Z</time>
      </trkpt>
      <trkpt lat="44.83206" lon="5.39271">
        <ele>987.75</ele>
        <time>2018-06-17T14:51:08Z</time>
      </trkpt>
      <trkpt lat="44.83186" lon="5.39272">
        <ele>988.66</ele>
        <time>2018-06-17T14:51:09Z</time>
      </trkpt>
      <trkpt lat="44.83163" lon="5.39263">
        <ele>988.93</ele>
        <time>2018-06-17T14:51:10Z</time>
      </trkpt>
      <trkpt lat="44.83141" lon="5.39258">
        <ele>989.01</ele>
        <time>2018-06-17T14:51:11Z</time>
      </trkpt>
      <trkpt lat="44.83115" lon="5.39252">
        <ele>989.04</ele>
        <time>2018-06-17T14:51:12Z</time>
      </trkpt>
      <trkpt lat="44.83091" lon="5.39246">
        <ele>989.05</ele>
        <time>2018-06-17T14:51:13Z</time>
      </trkpt>
      <trkpt lat="44.83068" lon="5.39236">
        <ele>989.75</ele>
        <time>2018-06-17T14:51:14Z</time>
      </trkpt>
      <trkpt lat="44.83045" lon="5.39231">
        <ele>990.66</ele>
        <time>2018-06-17T14:51:15Z</time>
      </trkpt>
      <trkpt lat="44.83021" lon="5.39224">
        <ele>992.33</ele>
        <time>2018-06-17T14:51:16Z</time>
      </trkpt>
      <trkpt lat="44.82997" lon="5.39215">
        <ele>992.83</ele>
        <time>2018-06-17T14:51:17Z</time>
      </trkpt>
      <trkpt lat="44.82974" lon="5.39206">
        <ele>992.98</ele>
        <time>2018-06-17T14:51:18Z</time>
      </trkpt>
      <trkpt lat="44.82947" lon="5.39185">
        <ele>992.33</ele>
        <time>2018-06-17T14:51:19Z</time>
      </trkpt>
      <trkpt lat="44.8292" lon="5.39169">
        <ele>993.53</ele>
        <time>2018-06-17T14:51:20Z</time>
      </trkpt>
      <trkpt lat="44.82896" lon="5.39157">
        <ele>995.29</ele>
        <time>2018-06-17T14:51:21Z</time>
      </trkpt>
      <trkpt lat="44.82873" lon="5.39152">
        <ele>996.52</ele>
        <time>2018-06-17T14:51:22Z</time>
      </trkpt>
      <trkpt lat="44.82852" lon="5.39149">
        <ele>998.29</ele>
        <time>2018-06-17T14:51:23Z</time>
      </trkpt>
      <trkpt lat="44.82833" lon="5.39144">
        <ele>998.82</ele>
        <time>2018-06-17T14:51:24Z</time>
      </trkpt>
      <trkpt lat="44.82815" lon="5.39139">
        <ele>999.68</ele>
        <time>2018-06-17T14:51:25Z</time>
      </trkpt>
      <trkpt lat="44.82795" lon="5.39129">
        <ele>999.94</ele>
        <time>2018-06-17T14:51:26Z</time>
      </trkpt>
      <trkpt lat="44.82774" lon="5.39114">
        <ele>1000.72</ele>
        <time>2018-06-17T14:51:27Z</time>
      </trkpt>
      <trkpt lat="44.82742" lon="5.39092">
        <ele>1002.35</ele>
        <time>2018-06-17T14:51:28Z</time>
      </trkpt>
      <trkpt lat="44.82717" lon="5.39077">
        <ele>1004.24</ele>
        <time>2018-06-17T14:51:29Z</time>
      </trkpt>
      <trkpt lat="44.82694" lon="5.39062">
        <ele>1005.51</ele>
        <time>2018-06-17T14:51:30Z</time>
      </trkpt>
      <trkpt lat="44.82673" lon="5.39048">
        <ele>1007.99</ele>
        <time>2018-06-17T14:51:31Z</time>
      </trkpt>
      <trkpt lat="44.82655" lon="5.39034">
        <ele>1010.13</ele>
        <time>2018-06-17T14:51:32Z</time>
      </trkpt>
      <trkpt lat="44.82637" lon="5.39017">
        <ele>1010.77</ele>
        <time>2018-06-17T14:51:33Z</time>
      </trkpt>
      <trkpt lat="44.82621" lon="5.38998">
        <ele>1012.37</ele>
        <time>2018-06-17T14:51:34Z</time>
      </trkpt>
      <trkpt lat="44.82606" lon="5.38974">
        <ele>1014.24</ele>
        <time>2018-06-17T14:51:35Z</time>
      </trkpt>
      <trkpt lat="44.82595" lon="5.38919">
        <ele>1016.21</ele>
        <time>2018-06-17T14:51:36Z</time>
      </trkpt>
      <trkpt lat="44.82581" lon="5.38879">
        <ele>1017.5</ele>
        <time>2018-06-17T14:51:37Z</time>
      </trkpt>
      <trkpt lat="44.82568" lon="5.38848">
        <ele>1019.98</ele>
        <time>2018-06-17T14:51:38Z</time>
      </trkpt>
      <trkpt lat="44.82553" lon="5.38823">
        <ele>1021.43</ele>
        <time>2018-06-17T14:51:39Z</time>
      </trkpt>
      <trkpt lat="44.8254" lon="5.38783">
        <ele>1023.81</ele>
        <time>2018-06-17T14:51:41Z</time>
      </trkpt>
      <trkpt lat="44.82561" lon="5.38761">
        <ele>1028.18</ele>
        <time>2018-06-17T14:51:42Z</time>
      </trkpt>
      <trkpt lat="44.82565" lon="5.38734">
        <ele>1030.89</ele>
        <time>2018-06-17T14:51:43Z</time>
      </trkpt>
      <trkpt lat="44.82567" lon="5.38702">
        <ele>1033.8</ele>
        <time>2018-06-17T14:51:44Z</time>
      </trkpt>
      <trkpt lat="44.82564" lon="5.38666">
        <ele>1035.37</ele>
        <time>2018-06-17T14:51:45Z</time>
      </trkpt>
      <trkpt lat="44.82561" lon="5.38627">
        <ele>1037.25</ele>
        <time>2018-06-17T14:51:46Z</time>
      </trkpt>
      <trkpt lat="44.82557" lon="5.38591">
        <ele>1039.21</ele>
        <time>2018-06-17T14:51:47Z</time>
      </trkpt>
      <trkpt lat="44.82551" lon="5.38559">
        <ele>1041.2</ele>
        <time>2018-06-17T14:51:48Z</time>
      </trkpt>
      <trkpt lat="44.82544" lon="5.38532">
        <ele>1043.19</ele>
        <time>2018-06-17T14:51:49Z</time>
      </trkpt>
      <trkpt lat="44.82533" lon="5.38509">
        <ele>1044.49</ele>
        <time>2018-06-17T14:51:50Z</time>
      </trkpt>
      <trkpt lat="44.82518" lon="5.38488">
        <ele>1046.28</ele>
        <time>2018-06-17T14:51:51Z</time>
      </trkpt>
      <trkpt lat="44.82503" lon="5.38469">
        <ele>1047.52</ele>
        <time>2018-06-17T14:51:52Z</time>
      </trkpt>
      <trkpt lat="44.82485" lon="5.38459">
        <ele>1047.89</ele>
        <time>2018-06-17T14:51:53Z</time>
      </trkpt>
      <trkpt lat="44.82469" lon="5.38446">
        <ele>1048</ele>
        <time>2018-06-17T14:51:54Z</time>
      </trkpt>
      <trkpt lat="44.82452" lon="5.38429">
        <ele>1049.86</ele>
        <time>2018-06-17T14:51:56Z</time>
      </trkpt>
      <trkpt lat="44.82472" lon="5.38427">
        <ele>1050.03</ele>
        <time>2018-06-17T14:51:58Z</time>
      </trkpt>
      <trkpt lat="44.82488" lon="5.38449">
        <ele>1051.87</ele>
        <time>2018-06-17T14:52:00Z</time>
      </trkpt>
      <trkpt lat="44.82519" lon="5.38466">
        <ele>1053.64</ele>
        <time>2018-06-17T14:52:02Z</time>
      </trkpt>
      <trkpt lat="44.82535" lon="5.38478">
        <ele>1055.33</ele>
        <time>2018-06-17T14:52:03Z</time>
      </trkpt>
      <trkpt lat="44.82552" lon="5.385">
        <ele>1056.53</ele>
        <time>2018-06-17T14:52:04Z</time>
      </trkpt>
      <trkpt lat="44.82562" lon="5.38528">
        <ele>1058.29</ele>
        <time>2018-06-17T14:52:05Z</time>
      </trkpt>
      <trkpt lat="44.82573" lon="5.38557">
        <ele>1058.12</ele>
        <time>2018-06-17T14:52:06Z</time>
      </trkpt>
      <trkpt lat="44.82581" lon="5.38588">
        <ele>1058.07</ele>
        <time>2018-06-17T14:52:07Z</time>
      </trkpt>
      <trkpt lat="44.82588" lon="5.38628">
        <ele>1060.16</ele>
        <time>2018-06-17T14:52:08Z</time>
      </trkpt>
      <trkpt lat="44.82595" lon="5.38663">
        <ele>1062.18</ele>
        <time>2018-06-17T14:52:09Z</time>
      </trkpt>
      <trkpt lat="44.82602" lon="5.38697">
        <ele>1063.49</ele>
        <time>2018-06-17T14:52:10Z</time>
      </trkpt>
      <trkpt lat="44.82603" lon="5.38728">
        <ele>1065.28</ele>
        <time>2018-06-17T14:52:11Z</time>
      </trkpt>
      <trkpt lat="44.82603" lon="5.38758">
        <ele>1067.22</ele>
        <time>2018-06-17T14:52:12Z</time>
      </trkpt>
      <trkpt lat="44.82603" lon="5.38786">
        <ele>1068.5</ele>
        <time>2018-06-17T14:52:13Z</time>
      </trkpt>
      <trkpt lat="44.82607" lon="5.38831">
        <ele>1069</ele>
        <time>2018-06-17T14:52:15Z</time>
      </trkpt>
      <trkpt lat="44.82631" lon="5.38868">
        <ele>1068.83</ele>
        <time>2018-06-17T14:52:17Z</time>
      </trkpt>
      <trkpt lat="44.82656" lon="5.38903">
        <ele>1072.48</ele>
        <time>2018-06-17T14:52:18Z</time>
      </trkpt>
      <trkpt lat="44.8267" lon="5.38928">
        <ele>1074.28</ele>
        <time>2018-06-17T14:52:19Z</time>
      </trkpt>
      <trkpt lat="44.82687" lon="5.38952">
        <ele>1074.82</ele>
        <time>2018-06-17T14:52:20Z</time>
      </trkpt>
      <trkpt lat="44.827" lon="5.38973">
        <ele>1075.68</ele>
        <time>2018-06-17T14:52:21Z</time>
      </trkpt>
      <trkpt lat="44.82717" lon="5.3899">
        <ele>1076.64</ele>
        <time>2018-06-17T14:52:22Z</time>
      </trkpt>
      <trkpt lat="44.82738" lon="5.38989">
        <ele>1078.33</ele>
        <time>2018-06-17T14:52:23Z</time>
      </trkpt>
      <trkpt lat="44.82756" lon="5.38995">
        <ele>1080.23</ele>
        <time>2018-06-17T14:52:24Z</time>
      </trkpt>
      <trkpt lat="44.82788" lon="5.39005">
        <ele>1082.59</ele>
        <time>2018-06-17T14:52:26Z</time>
      </trkpt>
      <trkpt lat="44.82823" lon="5.39011">
        <ele>1085.53</ele>
        <time>2018-06-17T14:52:28Z</time>
      </trkpt>
      <trkpt lat="44.82846" lon="5.39011">
        <ele>1086.59</ele>
        <time>2018-06-17T14:52:29Z</time>
      </trkpt>
      <trkpt lat="44.82871" lon="5.39012">
        <ele>1088.31</ele>
        <time>2018-06-17T14:52:30Z</time>
      </trkpt>
      <trkpt lat="44.82897" lon="5.39013">
        <ele>1089.53</ele>
        <time>2018-06-17T14:52:31Z</time>
      </trkpt>
      <trkpt lat="44.82923" lon="5.39017">
        <ele>1090.59</ele>
        <time>2018-06-17T14:52:32Z</time>
      </trkpt>
      <trkpt lat="44.8295" lon="5.39025">
        <ele>1092.31</ele>
        <time>2018-06-17T14:52:33Z</time>
      </trkpt>
      <trkpt lat="44.82978" lon="5.39034">
        <ele>1093.53</ele>
        <time>2018-06-17T14:52:34Z</time>
      </trkpt>
      <trkpt lat="44.83004" lon="5.39043">
        <ele>1095.29</ele>
        <time>2018-06-17T14:52:35Z</time>
      </trkpt>
      <trkpt lat="44.83031" lon="5.3905">
        <ele>1097.22</ele>
        <time>2018-06-17T14:52:36Z</time>
      </trkpt>
      <trkpt lat="44.83057" lon="5.39053">
        <ele>1098.5</ele>
        <time>2018-06-17T14:52:37Z</time>
      </trkpt>
      <trkpt lat="44.83083" lon="5.39054">
        <ele>1098.88</ele>
        <time>2018-06-17T14:52:38Z</time>
      </trkpt>
      <trkpt lat="44.83107" lon="5.39056">
        <ele>1099</ele>
        <time>2018-06-17T14:52:39Z</time>
      </trkpt>
      <trkpt lat="44.83127" lon="5.3906">
        <ele>1099.73</ele>
        <time>2018-06-17T14:52:40Z</time>
      </trkpt>
      <trkpt lat="44.83148" lon="5.39058">
        <ele>1099.95</ele>
        <time>2018-06-17T14:52:41Z</time>
      </trkpt>
      <trkpt lat="44.8317" lon="5.39055">
        <ele>1102.12</ele>
        <time>2018-06-17T14:52:42Z</time>
      </trkpt>
      <trkpt lat="44.83194" lon="5.39046">
        <ele>1103.47</ele>
        <time>2018-06-17T14:52:43Z</time>
      </trkpt>
      <trkpt lat="44.83217" lon="5.39037">
        <ele>1105.28</ele>
        <time>2018-06-17T14:52:44Z</time>
      </trkpt>
      <trkpt lat="44.8324" lon="5.39025">
        <ele>1106.52</ele>
        <time>2018-06-17T14:52:45Z</time>
      </trkpt>
      <trkpt lat="44.83261" lon="5.39015">
        <ele>1108.29</ele>
        <time>2018-06-17T14:52:46Z</time>
      </trkpt>
      <trkpt lat="44.8328" lon="5.39009">
        <ele>1109.52</ele>
        <time>2018-06-17T14:52:47Z</time>
      </trkpt>
      <trkpt lat="44.83313" lon="5.39008">
        <ele>1112.52</ele>
        <time>2018-06-17T14:52:49Z</time>
      </trkpt>
      <trkpt lat="44.8334" lon="5.39024">
        <ele>1113.91</ele>
        <time>2018-06-17T14:52:51Z</time>
      </trkpt>
      <trkpt lat="44.83362" lon="5.3903">
        <ele>1114.04</ele>
        <time>2018-06-17T14:52:53Z</time>
      </trkpt>
      <trkpt lat="44.83386" lon="5.39003">
        <ele>1114.96</ele>
        <time>2018-06-17T14:52:55Z</time>
      </trkpt>
      <trkpt lat="44.83416" lon="5.38982">
        <ele>1116.65</ele>
        <time>2018-06-17T14:52:57Z</time>
      </trkpt>
      <trkpt lat="44.83448" lon="5.38977">
        <ele>1117.01</ele>
        <time>2018-06-17T14:52:59Z</time>
      </trkpt>
      <trkpt lat="44.83469" lon="5.38986">
        <ele>1115.64</ele>
        <time>2018-06-17T14:53:00Z</time>
      </trkpt>
      <trkpt lat="44.83488" lon="5.38999">
        <ele>1115.23</ele>
        <time>2018-06-17T14:53:01Z</time>
      </trkpt>
      <trkpt lat="44.8351" lon="5.39039">
        <ele>1116.5</ele>
        <time>2018-06-17T14:53:02Z</time>
      </trkpt>
      <trkpt lat="44.8353" lon="5.39064">
        <ele>1118.28</ele>
        <time>2018-06-17T14:53:03Z</time>
      </trkpt>
      <trkpt lat="44.8355" lon="5.39086">
        <ele>1119.52</ele>
        <time>2018-06-17T14:53:04Z</time>
      </trkpt>
      <trkpt lat="44.8357" lon="5.3911">
        <ele>1121.99</ele>
        <time>2018-06-17T14:53:05Z</time>
      </trkpt>
      <trkpt lat="44.83589" lon="5.39132">
        <ele>1123.43</ele>
        <time>2018-06-17T14:53:06Z</time>
      </trkpt>
      <trkpt lat="44.83608" lon="5.39153">
        <ele>1125.26</ele>
        <time>2018-06-17T14:53:07Z</time>
      </trkpt>
      <trkpt lat="44.83628" lon="5.39175">
        <ele>1127.21</ele>
        <time>2018-06-17T14:53:08Z</time>
      </trkpt>
      <trkpt lat="44.83648" lon="5.39196">
        <ele>1129.2</ele>
        <time>2018-06-17T14:53:09Z</time>
      </trkpt>
      <trkpt lat="44.83667" lon="5.39217">
        <ele>1131.19</ele>
        <time>2018-06-17T14:53:10Z</time>
      </trkpt>
      <trkpt lat="44.83687" lon="5.39237">
        <ele>1132.49</ele>
        <time>2018-06-17T14:53:11Z</time>
      </trkpt>
      <trkpt lat="44.83708" lon="5.39256">
        <ele>1134.28</ele>
        <time>2018-06-17T14:53:12Z</time>
      </trkpt>
      <trkpt lat="44.83727" lon="5.39275">
        <ele>1135.52</ele>
        <time>2018-06-17T14:53:13Z</time>
      </trkpt>
      <trkpt lat="44.83745" lon="5.39294">
        <ele>1137.29</ele>
        <time>2018-06-17T14:53:14Z</time>
      </trkpt>
      <trkpt lat="44.83762" lon="5.39312">
        <ele>1137.82</ele>
        <time>2018-06-17T14:53:15Z</time>
      </trkpt>
      <trkpt lat="44.83775" lon="5.3933">
        <ele>1138.68</ele>
        <time>2018-06-17T14:53:16Z</time>
      </trkpt>
      <trkpt lat="44.83797" lon="5.3936">
        <ele>1139.23</ele>
        <time>2018-06-17T14:53:18Z</time>
      </trkpt>
      <trkpt lat="44.83781" lon="5.394">
        <ele>1140.67</ele>
        <time>2018-06-17T14:53:20Z</time>
      </trkpt>
      <trkpt lat="44.83764" lon="5.39446">
        <ele>1144.24</ele>
        <time>2018-06-17T14:53:22Z</time>
      </trkpt>
      <trkpt lat="44.83753" lon="5.3947">
        <ele>1146.2</ele>
        <time>2018-06-17T14:53:23Z</time>
      </trkpt>
      <trkpt lat="44.83741" lon="5.39495">
        <ele>1148.2</ele>
        <time>2018-06-17T14:53:24Z</time>
      </trkpt>
      <trkpt lat="44.83728" lon="5.39519">
        <ele>1150.19</ele>
        <time>2018-06-17T14:53:25Z</time>
      </trkpt>
      <trkpt lat="44.83716" lon="5.39545">
        <ele>1151.49</ele>
        <time>2018-06-17T14:53:26Z</time>
      </trkpt>
      <trkpt lat="44.83706" lon="5.39572">
        <ele>1152.58</ele>
        <time>2018-06-17T14:53:27Z</time>
      </trkpt>
      <trkpt lat="44.83699" lon="5.39601">
        <ele>1152.91</ele>
        <time>2018-06-17T14:53:28Z</time>
      </trkpt>
      <trkpt lat="44.83691" lon="5.39629">
        <ele>1153.01</ele>
        <time>2018-06-17T14:53:29Z</time>
      </trkpt>
      <trkpt lat="44.83686" lon="5.39655">
        <ele>1154.44</ele>
        <time>2018-06-17T14:53:30Z</time>
      </trkpt>
      <trkpt lat="44.83682" lon="5.39697">
        <ele>1159.33</ele>
        <time>2018-06-17T14:53:32Z</time>
      </trkpt>
      <trkpt lat="44.83664" lon="5.39729">
        <ele>1163.2</ele>
        <time>2018-06-17T14:53:34Z</time>
      </trkpt>
      <trkpt lat="44.83653" lon="5.39758">
        <ele>1165.58</ele>
        <time>2018-06-17T14:53:36Z</time>
      </trkpt>
      <trkpt lat="44.83673" lon="5.39745">
        <ele>1169.54</ele>
        <time>2018-06-17T14:53:40Z</time>
      </trkpt>
      <trkpt lat="44.83695" lon="5.39709">
        <ele>1172.31</ele>
        <time>2018-06-17T14:53:42Z</time>
      </trkpt>
      <trkpt lat="44.83711" lon="5.39669">
        <ele>1174.59</ele>
        <time>2018-06-17T14:53:44Z</time>
      </trkpt>
      <trkpt lat="44.83715" lon="5.39642">
        <ele>1175.61</ele>
        <time>2018-06-17T14:53:45Z</time>
      </trkpt>
      <trkpt lat="44.83722" lon="5.39613">
        <ele>1177.32</ele>
        <time>2018-06-17T14:53:46Z</time>
      </trkpt>
      <trkpt lat="44.83731" lon="5.39585">
        <ele>1178.53</ele>
        <time>2018-06-17T14:53:47Z</time>
      </trkpt>
      <trkpt lat="44.83743" lon="5.3956">
        <ele>1180.99</ele>
        <time>2018-06-17T14:53:48Z</time>
      </trkpt>
      <trkpt lat="44.83759" lon="5.39535">
        <ele>1182.43</ele>
        <time>2018-06-17T14:53:49Z</time>
      </trkpt>
      <trkpt lat="44.83777" lon="5.3951">
        <ele>1184.26</ele>
        <time>2018-06-17T14:53:50Z</time>
      </trkpt>
      <trkpt lat="44.83795" lon="5.39483">
        <ele>1184.81</ele>
        <time>2018-06-17T14:53:51Z</time>
      </trkpt>
      <trkpt lat="44.83812" lon="5.39455">
        <ele>1186.38</ele>
        <time>2018-06-17T14:53:52Z</time>
      </trkpt>
      <trkpt lat="44.83829" lon="5.39431">
        <ele>1186.85</ele>
        <time>2018-06-17T14:53:53Z</time>
      </trkpt>
      <trkpt lat="44.83842" lon="5.39411">
        <ele>1187.69</ele>
        <time>2018-06-17T14:53:54Z</time>
      </trkpt>
      <trkpt lat="44.83856" lon="5.39371">
        <ele>1190.54</ele>
        <time>2018-06-17T14:53:56Z</time>
      </trkpt>
      <trkpt lat="44.83857" lon="5.39334">
        <ele>1192.61</ele>
        <time>2018-06-17T14:53:58Z</time>
      </trkpt>
      <trkpt lat="44.83838" lon="5.39301">
        <ele>1193.5</ele>
        <time>2018-06-17T14:54:00Z</time>
      </trkpt>
      <trkpt lat="44.83816" lon="5.39266">
        <ele>1195.61</ele>
        <time>2018-06-17T14:54:02Z</time>
      </trkpt>
      <trkpt lat="44.8379" lon="5.39235">
        <ele>1197.83</ele>
        <time>2018-06-17T14:54:04Z</time>
      </trkpt>
      <trkpt lat="44.83764" lon="5.39204">
        <ele>1198.94</ele>
        <time>2018-06-17T14:54:06Z</time>
      </trkpt>
      <trkpt lat="44.83738" lon="5.39174">
        <ele>1201.56</ele>
        <time>2018-06-17T14:54:08Z</time>
      </trkpt>
      <trkpt lat="44.83715" lon="5.39149">
        <ele>1203.61</ele>
        <time>2018-06-17T14:54:10Z</time>
      </trkpt>
      <trkpt lat="44.83695" lon="5.39134">
        <ele>1204.92</ele>
        <time>2018-06-17T14:54:12Z</time>
      </trkpt>
      <trkpt lat="44.83683" lon="5.39116">
        <ele>1202.91</ele>
        <time>2018-06-17T14:54:16Z</time>
      </trkpt>
      <trkpt lat="44.83706" lon="5.39127">
        <ele>1205.2</ele>
        <time>2018-06-17T14:54:49Z</time>
      </trkpt>
      <trkpt lat="44.83731" lon="5.39152">
        <ele>1206.18</ele>
        <time>2018-06-17T14:54:51Z</time>
      </trkpt>
      <trkpt lat="44.83762" lon="5.39177">
        <ele>1206.76</ele>
        <time>2018-06-17T14:54:53Z</time>
      </trkpt>
      <trkpt lat="44.83779" lon="5.39193">
        <ele>1207.66</ele>
        <time>2018-06-17T14:54:54Z</time>
      </trkpt>
      <trkpt lat="44.83798" lon="5.3921">
        <ele>1208.63</ele>
        <time>2018-06-17T14:54:55Z</time>
      </trkpt>
      <trkpt lat="44.83816" lon="5.39228">
        <ele>1209.62</ele>
        <time>2018-06-17T14:54:56Z</time>
      </trkpt>
      <trkpt lat="44.83835" lon="5.39245">
        <ele>1211.32</ele>
        <time>2018-06-17T14:54:57Z</time>
      </trkpt>
      <trkpt lat="44.83853" lon="5.39265">
        <ele>1212.53</ele>
        <time>2018-06-17T14:54:58Z</time>
      </trkpt>
      <trkpt lat="44.83871" lon="5.39287">
        <ele>1213.59</ele>
        <time>2018-06-17T14:54:59Z</time>
      </trkpt>
      <trkpt lat="44.83889" lon="5.39307">
        <ele>1213.91</ele>
        <time>2018-06-17T14:55:00Z</time>
      </trkpt>
      <trkpt lat="44.839" lon="5.39329">
        <ele>1215.41</ele>
        <time>2018-06-17T14:55:01Z</time>
      </trkpt>
      <trkpt lat="44.83918" lon="5.39367">
        <ele>1216.9</ele>
        <time>2018-06-17T14:55:03Z</time>
      </trkpt>
      <trkpt lat="44.83924" lon="5.39411">
        <ele>1216.13</ele>
        <time>2018-06-17T14:55:05Z</time>
      </trkpt>
      <trkpt lat="44.83909" lon="5.39456">
        <ele>1215.85</ele>
        <time>2018-06-17T14:55:07Z</time>
      </trkpt>
      <trkpt lat="44.83883" lon="5.39476">
        <ele>1218.09</ele>
        <time>2018-06-17T14:55:08Z</time>
      </trkpt>
      <trkpt lat="44.8387" lon="5.395">
        <ele>1219.46</ele>
        <time>2018-06-17T14:55:09Z</time>
      </trkpt>
      <trkpt lat="44.83856" lon="5.39523">
        <ele>1219.87</ele>
        <time>2018-06-17T14:55:10Z</time>
      </trkpt>
      <trkpt lat="44.83846" lon="5.39547">
        <ele>1220</ele>
        <time>2018-06-17T14:55:11Z</time>
      </trkpt>
      <trkpt lat="44.83838" lon="5.39572">
        <ele>1222.13</ele>
        <time>2018-06-17T14:55:12Z</time>
      </trkpt>
      <trkpt lat="44.83829" lon="5.39594">
        <ele>1223.47</ele>
        <time>2018-06-17T14:55:13Z</time>
      </trkpt>
      <trkpt lat="44.83813" lon="5.39634">
        <ele>1225.82</ele>
        <time>2018-06-17T14:55:15Z</time>
      </trkpt>
      <trkpt lat="44.8381" lon="5.3967">
        <ele>1229.46</ele>
        <time>2018-06-17T14:55:17Z</time>
      </trkpt>
      <trkpt lat="44.83807" lon="5.39699">
        <ele>1231.92</ele>
        <time>2018-06-17T14:55:20Z</time>
      </trkpt>
      <trkpt lat="44.83801" lon="5.39726">
        <ele>1234.93</ele>
        <time>2018-06-17T14:55:28Z</time>
      </trkpt>
      <trkpt lat="44.84046" lon="5.40592">
        <ele>1238.05</ele>
        <time>2018-06-17T15:01:20Z</time>
      </trkpt>
      <trkpt lat="44.84056" lon="5.40615">
        <ele>1241.11</ele>
        <time>2018-06-17T15:01:24Z</time>
      </trkpt>
      <trkpt lat="44.84074" lon="5.406">
        <ele>1240.57</ele>
        <time>2018-06-17T15:01:27Z</time>
      </trkpt>
      <trkpt lat="44.84093" lon="5.40586">
        <ele>1240.1</ele>
        <time>2018-06-17T15:01:29Z</time>
      </trkpt>
      <trkpt lat="44.84114" lon="5.40573">
        <ele>1239.35</ele>
        <time>2018-06-17T15:01:31Z</time>
      </trkpt>
      <trkpt lat="44.84133" lon="5.40564">
        <ele>1238.17</ele>
        <time>2018-06-17T15:01:33Z</time>
      </trkpt>
      <trkpt lat="44.84154" lon="5.40555">
        <ele>1238.06</ele>
        <time>2018-06-17T15:01:35Z</time>
      </trkpt>
      <trkpt lat="44.8418" lon="5.40544">
        <ele>1236.65</ele>
        <time>2018-06-17T15:01:37Z</time>
      </trkpt>
      <trkpt lat="44.8421" lon="5.40533">
        <ele>1235.4</ele>
        <time>2018-06-17T15:01:39Z</time>
      </trkpt>
      <trkpt lat="44.84245" lon="5.40523">
        <ele>1234.17</ele>
        <time>2018-06-17T15:01:41Z</time>
      </trkpt>
      <trkpt lat="44.84265" lon="5.40519">
        <ele>1233.39</ele>
        <time>2018-06-17T15:01:42Z</time>
      </trkpt>
      <trkpt lat="44.84285" lon="5.40514">
        <ele>1231.75</ele>
        <time>2018-06-17T15:01:43Z</time>
      </trkpt>
      <trkpt lat="44.84305" lon="5.40512">
        <ele>1230.56</ele>
        <time>2018-06-17T15:01:44Z</time>
      </trkpt>
      <trkpt lat="44.84327" lon="5.40511">
        <ele>1230.2</ele>
        <time>2018-06-17T15:01:45Z</time>
      </trkpt>
      <trkpt lat="44.84348" lon="5.4051">
        <ele>1230.09</ele>
        <time>2018-06-17T15:01:46Z</time>
      </trkpt>
      <trkpt lat="44.84371" lon="5.40509">
        <ele>1229.36</ele>
        <time>2018-06-17T15:01:47Z</time>
      </trkpt>
      <trkpt lat="44.84394" lon="5.40507">
        <ele>1228.44</ele>
        <time>2018-06-17T15:01:48Z</time>
      </trkpt>
      <trkpt lat="44.84416" lon="5.40502">
        <ele>1228.17</ele>
        <time>2018-06-17T15:01:49Z</time>
      </trkpt>
      <trkpt lat="44.84438" lon="5.40499">
        <ele>1228.08</ele>
        <time>2018-06-17T15:01:50Z</time>
      </trkpt>
      <trkpt lat="44.84461" lon="5.40496">
        <ele>1227.36</ele>
        <time>2018-06-17T15:01:51Z</time>
      </trkpt>
      <trkpt lat="44.84484" lon="5.40495">
        <ele>1225.74</ele>
        <time>2018-06-17T15:01:52Z</time>
      </trkpt>
      <trkpt lat="44.84507" lon="5.40495">
        <ele>1225.26</ele>
        <time>2018-06-17T15:01:53Z</time>
      </trkpt>
      <trkpt lat="44.84531" lon="5.40493">
        <ele>1224.41</ele>
        <time>2018-06-17T15:01:54Z</time>
      </trkpt>
      <trkpt lat="44.84554" lon="5.4049">
        <ele>1223.46</ele>
        <time>2018-06-17T15:01:55Z</time>
      </trkpt>
      <trkpt lat="44.84577" lon="5.40487">
        <ele>1223.17</ele>
        <time>2018-06-17T15:01:56Z</time>
      </trkpt>
      <trkpt lat="44.846" lon="5.40483">
        <ele>1221.69</ele>
        <time>2018-06-17T15:01:57Z</time>
      </trkpt>
      <trkpt lat="44.84624" lon="5.4048">
        <ele>1220.54</ele>
        <time>2018-06-17T15:01:58Z</time>
      </trkpt>
      <trkpt lat="44.84646" lon="5.40476">
        <ele>1219.5</ele>
        <time>2018-06-17T15:01:59Z</time>
      </trkpt>
      <trkpt lat="44.84668" lon="5.40475">
        <ele>1218.48</ele>
        <time>2018-06-17T15:02:00Z</time>
      </trkpt>
      <trkpt lat="44.84689" lon="5.40476">
        <ele>1218.18</ele>
        <time>2018-06-17T15:02:01Z</time>
      </trkpt>
      <trkpt lat="44.8471" lon="5.40473">
        <ele>1216.69</ele>
        <time>2018-06-17T15:02:02Z</time>
      </trkpt>
      <trkpt lat="44.84729" lon="5.40469">
        <ele>1216.24</ele>
        <time>2018-06-17T15:02:03Z</time>
      </trkpt>
      <trkpt lat="44.84747" lon="5.40465">
        <ele>1215.41</ele>
        <time>2018-06-17T15:02:04Z</time>
      </trkpt>
      <trkpt lat="44.84767" lon="5.40464">
        <ele>1214.46</ele>
        <time>2018-06-17T15:02:05Z</time>
      </trkpt>
      <trkpt lat="44.84791" lon="5.40474">
        <ele>1214.17</ele>
        <time>2018-06-17T15:02:06Z</time>
      </trkpt>
      <trkpt lat="44.84814" lon="5.40477">
        <ele>1214.09</ele>
        <time>2018-06-17T15:02:07Z</time>
      </trkpt>
      <trkpt lat="44.84839" lon="5.40478">
        <ele>1213.36</ele>
        <time>2018-06-17T15:02:08Z</time>
      </trkpt>
      <trkpt lat="44.84863" lon="5.40475">
        <ele>1213.14</ele>
        <time>2018-06-17T15:02:09Z</time>
      </trkpt>
      <trkpt lat="44.84886" lon="5.40478">
        <ele>1213.78</ele>
        <time>2018-06-17T15:02:10Z</time>
      </trkpt>
      <trkpt lat="44.84911" lon="5.40484">
        <ele>1213.27</ele>
        <time>2018-06-17T15:02:11Z</time>
      </trkpt>
      <trkpt lat="44.84937" lon="5.40491">
        <ele>1211.71</ele>
        <time>2018-06-17T15:02:12Z</time>
      </trkpt>
      <trkpt lat="44.84962" lon="5.40496">
        <ele>1209.85</ele>
        <time>2018-06-17T15:02:13Z</time>
      </trkpt>
      <trkpt lat="44.84988" lon="5.405">
        <ele>1209.29</ele>
        <time>2018-06-17T15:02:14Z</time>
      </trkpt>
      <trkpt lat="44.85013" lon="5.40503">
        <ele>1208.42</ele>
        <time>2018-06-17T15:02:15Z</time>
      </trkpt>
      <trkpt lat="44.8504" lon="5.40506">
        <ele>1204.66</ele>
        <time>2018-06-17T15:02:16Z</time>
      </trkpt>
      <trkpt lat="44.85066" lon="5.40508">
        <ele>1202.83</ele>
        <time>2018-06-17T15:02:17Z</time>
      </trkpt>
      <trkpt lat="44.85093" lon="5.4051">
        <ele>1202.28</ele>
        <time>2018-06-17T15:02:18Z</time>
      </trkpt>
      <trkpt lat="44.85118" lon="5.4051">
        <ele>1201.42</ele>
        <time>2018-06-17T15:02:19Z</time>
      </trkpt>
      <trkpt lat="44.85143" lon="5.40508">
        <ele>1200.46</ele>
        <time>2018-06-17T15:02:20Z</time>
      </trkpt>
      <trkpt lat="44.85167" lon="5.40505">
        <ele>1199.47</ele>
        <time>2018-06-17T15:02:21Z</time>
      </trkpt>
      <trkpt lat="44.8519" lon="5.40499">
        <ele>1199.18</ele>
        <time>2018-06-17T15:02:22Z</time>
      </trkpt>
      <trkpt lat="44.85212" lon="5.40495">
        <ele>1198.39</ele>
        <time>2018-06-17T15:02:23Z</time>
      </trkpt>
      <trkpt lat="44.85232" lon="5.40492">
        <ele>1197.45</ele>
        <time>2018-06-17T15:02:24Z</time>
      </trkpt>
      <trkpt lat="44.85253" lon="5.40495">
        <ele>1195.07</ele>
        <time>2018-06-17T15:02:25Z</time>
      </trkpt>
      <trkpt lat="44.85274" lon="5.40501">
        <ele>1191.56</ele>
        <time>2018-06-17T15:02:26Z</time>
      </trkpt>
      <trkpt lat="44.85297" lon="5.40512">
        <ele>1186.3</ele>
        <time>2018-06-17T15:02:27Z</time>
      </trkpt>
      <trkpt lat="44.85319" lon="5.4052">
        <ele>1184.02</ele>
        <time>2018-06-17T15:02:28Z</time>
      </trkpt>
      <trkpt lat="44.85348" lon="5.40526">
        <ele>1181.24</ele>
        <time>2018-06-17T15:02:29Z</time>
      </trkpt>
      <trkpt lat="44.85374" lon="5.40532">
        <ele>1178.31</ele>
        <time>2018-06-17T15:02:30Z</time>
      </trkpt>
      <trkpt lat="44.85399" lon="5.40538">
        <ele>1177.43</ele>
        <time>2018-06-17T15:02:31Z</time>
      </trkpt>
      <trkpt lat="44.85423" lon="5.40546">
        <ele>1177.16</ele>
        <time>2018-06-17T15:02:32Z</time>
      </trkpt>
      <trkpt lat="44.85447" lon="5.40552">
        <ele>1175.68</ele>
        <time>2018-06-17T15:02:33Z</time>
      </trkpt>
      <trkpt lat="44.85472" lon="5.40558">
        <ele>1173.14</ele>
        <time>2018-06-17T15:02:34Z</time>
      </trkpt>
      <trkpt lat="44.85497" lon="5.40559">
        <ele>1171.68</ele>
        <time>2018-06-17T15:02:35Z</time>
      </trkpt>
      <trkpt lat="44.85522" lon="5.40559">
        <ele>1171.24</ele>
        <time>2018-06-17T15:02:36Z</time>
      </trkpt>
      <trkpt lat="44.85547" lon="5.40556">
        <ele>1169.71</ele>
        <time>2018-06-17T15:02:37Z</time>
      </trkpt>
      <trkpt lat="44.85572" lon="5.40552">
        <ele>1168.55</ele>
        <time>2018-06-17T15:02:38Z</time>
      </trkpt>
      <trkpt lat="44.85594" lon="5.40546">
        <ele>1168.2</ele>
        <time>2018-06-17T15:02:39Z</time>
      </trkpt>
      <trkpt lat="44.85614" lon="5.40542">
        <ele>1168.09</ele>
        <time>2018-06-17T15:02:40Z</time>
      </trkpt>
      <trkpt lat="44.85649" lon="5.40543">
        <ele>1163.5</ele>
        <time>2018-06-17T15:02:42Z</time>
      </trkpt>
      <trkpt lat="44.85686" lon="5.40568">
        <ele>1161.48</ele>
        <time>2018-06-17T15:02:44Z</time>
      </trkpt>
      <trkpt lat="44.85705" lon="5.40579">
        <ele>1161.18</ele>
        <time>2018-06-17T15:02:45Z</time>
      </trkpt>
      <trkpt lat="44.85727" lon="5.40591">
        <ele>1161.09</ele>
        <time>2018-06-17T15:02:46Z</time>
      </trkpt>
      <trkpt lat="44.85754" lon="5.40603">
        <ele>1159.66</ele>
        <time>2018-06-17T15:02:47Z</time>
      </trkpt>
      <trkpt lat="44.8578" lon="5.40604">
        <ele>1158.53</ele>
        <time>2018-06-17T15:02:48Z</time>
      </trkpt>
      <trkpt lat="44.85803" lon="5.40602">
        <ele>1156.79</ele>
        <time>2018-06-17T15:02:49Z</time>
      </trkpt>
      <trkpt lat="44.85827" lon="5.40611">
        <ele>1154.17</ele>
        <time>2018-06-17T15:02:50Z</time>
      </trkpt>
      <trkpt lat="44.85851" lon="5.40621">
        <ele>1153.39</ele>
        <time>2018-06-17T15:02:51Z</time>
      </trkpt>
      <trkpt lat="44.85876" lon="5.40629">
        <ele>1151.75</ele>
        <time>2018-06-17T15:02:52Z</time>
      </trkpt>
      <trkpt lat="44.85901" lon="5.40633">
        <ele>1149.16</ele>
        <time>2018-06-17T15:02:53Z</time>
      </trkpt>
      <trkpt lat="44.85925" lon="5.40635">
        <ele>1146.98</ele>
        <time>2018-06-17T15:02:54Z</time>
      </trkpt>
      <trkpt lat="44.85949" lon="5.40641">
        <ele>1145.63</ele>
        <time>2018-06-17T15:02:55Z</time>
      </trkpt>
      <trkpt lat="44.85972" lon="5.40648">
        <ele>1145.92</ele>
        <time>2018-06-17T15:02:56Z</time>
      </trkpt>
      <trkpt lat="44.85993" lon="5.40658">
        <ele>1143.91</ele>
        <time>2018-06-17T15:02:57Z</time>
      </trkpt>
      <trkpt lat="44.86015" lon="5.40673">
        <ele>1139.11</ele>
        <time>2018-06-17T15:02:58Z</time>
      </trkpt>
      <trkpt lat="44.86038" lon="5.40683">
        <ele>1136.97</ele>
        <time>2018-06-17T15:02:59Z</time>
      </trkpt>
      <trkpt lat="44.86063" lon="5.40692">
        <ele>1135.62</ele>
        <time>2018-06-17T15:03:00Z</time>
      </trkpt>
      <trkpt lat="44.86088" lon="5.40702">
        <ele>1135.22</ele>
        <time>2018-06-17T15:03:01Z</time>
      </trkpt>
      <trkpt lat="44.86113" lon="5.40711">
        <ele>1132.3</ele>
        <time>2018-06-17T15:03:02Z</time>
      </trkpt>
      <trkpt lat="44.86137" lon="5.40716">
        <ele>1130.02</ele>
        <time>2018-06-17T15:03:03Z</time>
      </trkpt>
      <trkpt lat="44.86161" lon="5.4072">
        <ele>1127.94</ele>
        <time>2018-06-17T15:03:04Z</time>
      </trkpt>
      <trkpt lat="44.86186" lon="5.40732">
        <ele>1126.62</ele>
        <time>2018-06-17T15:03:05Z</time>
      </trkpt>
      <trkpt lat="44.86211" lon="5.40746">
        <ele>1124.82</ele>
        <time>2018-06-17T15:03:06Z</time>
      </trkpt>
      <trkpt lat="44.86238" lon="5.4076">
        <ele>1122.18</ele>
        <time>2018-06-17T15:03:07Z</time>
      </trkpt>
      <trkpt lat="44.86266" lon="5.40773">
        <ele>1118.59</ele>
        <time>2018-06-17T15:03:08Z</time>
      </trkpt>
      <trkpt lat="44.86294" lon="5.40784">
        <ele>1116.11</ele>
        <time>2018-06-17T15:03:09Z</time>
      </trkpt>
      <trkpt lat="44.86321" lon="5.40795">
        <ele>1114.67</ele>
        <time>2018-06-17T15:03:10Z</time>
      </trkpt>
      <trkpt lat="44.86349" lon="5.40807">
        <ele>1112.13</ele>
        <time>2018-06-17T15:03:11Z</time>
      </trkpt>
      <trkpt lat="44.86376" lon="5.40816">
        <ele>1109.27</ele>
        <time>2018-06-17T15:03:12Z</time>
      </trkpt>
      <trkpt lat="44.86403" lon="5.40823">
        <ele>1107.02</ele>
        <time>2018-06-17T15:03:13Z</time>
      </trkpt>
      <trkpt lat="44.8643" lon="5.40831">
        <ele>1105.64</ele>
        <time>2018-06-17T15:03:14Z</time>
      </trkpt>
      <trkpt lat="44.86458" lon="5.40839">
        <ele>1104.53</ele>
        <time>2018-06-17T15:03:15Z</time>
      </trkpt>
      <trkpt lat="44.86485" lon="5.40849">
        <ele>1104.89</ele>
        <time>2018-06-17T15:03:16Z</time>
      </trkpt>
      <trkpt lat="44.86511" lon="5.40862">
        <ele>1104.3</ele>
        <time>2018-06-17T15:03:17Z</time>
      </trkpt>
      <trkpt lat="44.86537" lon="5.40873">
        <ele>1102.02</ele>
        <time>2018-06-17T15:03:18Z</time>
      </trkpt>
      <trkpt lat="44.86563" lon="5.40883">
        <ele>1097.84</ele>
        <time>2018-06-17T15:03:19Z</time>
      </trkpt>
      <trkpt lat="44.8659" lon="5.40893">
        <ele>1095.89</ele>
        <time>2018-06-17T15:03:20Z</time>
      </trkpt>
      <trkpt lat="44.86618" lon="5.40901">
        <ele>1093.9</ele>
        <time>2018-06-17T15:03:21Z</time>
      </trkpt>
      <trkpt lat="44.86647" lon="5.4091">
        <ele>1091.9</ele>
        <time>2018-06-17T15:03:22Z</time>
      </trkpt>
      <trkpt lat="44.86675" lon="5.40917">
        <ele>1089.21</ele>
        <time>2018-06-17T15:03:23Z</time>
      </trkpt>
      <trkpt lat="44.86702" lon="5.40922">
        <ele>1087.7</ele>
        <time>2018-06-17T15:03:24Z</time>
      </trkpt>
      <trkpt lat="44.86728" lon="5.40925">
        <ele>1085.84</ele>
        <time>2018-06-17T15:03:25Z</time>
      </trkpt>
      <trkpt lat="44.86753" lon="5.40931">
        <ele>1083.89</ele>
        <time>2018-06-17T15:03:26Z</time>
      </trkpt>
      <trkpt lat="44.86778" lon="5.40939">
        <ele>1082.6</ele>
        <time>2018-06-17T15:03:27Z</time>
      </trkpt>
      <trkpt lat="44.86801" lon="5.40951">
        <ele>1080.81</ele>
        <time>2018-06-17T15:03:28Z</time>
      </trkpt>
      <trkpt lat="44.86823" lon="5.40966">
        <ele>1078.88</ele>
        <time>2018-06-17T15:03:29Z</time>
      </trkpt>
      <trkpt lat="44.86845" lon="5.4098">
        <ele>1076.9</ele>
        <time>2018-06-17T15:03:30Z</time>
      </trkpt>
      <trkpt lat="44.86867" lon="5.40992">
        <ele>1075.6</ele>
        <time>2018-06-17T15:03:31Z</time>
      </trkpt>
      <trkpt lat="44.86892" lon="5.40997">
        <ele>1074.52</ele>
        <time>2018-06-17T15:03:32Z</time>
      </trkpt>
      <trkpt lat="44.86915" lon="5.41">
        <ele>1072.09</ele>
        <time>2018-06-17T15:03:33Z</time>
      </trkpt>
      <trkpt lat="44.86937" lon="5.41004">
        <ele>1070.66</ele>
        <time>2018-06-17T15:03:34Z</time>
      </trkpt>
      <trkpt lat="44.86956" lon="5.41005">
        <ele>1068.83</ele>
        <time>2018-06-17T15:03:35Z</time>
      </trkpt>
      <trkpt lat="44.86981" lon="5.41004">
        <ele>1065.11</ele>
        <time>2018-06-17T15:03:37Z</time>
      </trkpt>
      <trkpt lat="44.86968" lon="5.41022">
        <ele>1064.06</ele>
        <time>2018-06-17T15:03:43Z</time>
      </trkpt>
      <trkpt lat="44.86923" lon="5.41025">
        <ele>1060.83</ele>
        <time>2018-06-17T15:03:45Z</time>
      </trkpt>
      <trkpt lat="44.86901" lon="5.41025">
        <ele>1059.58</ele>
        <time>2018-06-17T15:03:46Z</time>
      </trkpt>
      <trkpt lat="44.86878" lon="5.41025">
        <ele>1057.81</ele>
        <time>2018-06-17T15:03:47Z</time>
      </trkpt>
      <trkpt lat="44.86854" lon="5.41022">
        <ele>1056.58</ele>
        <time>2018-06-17T15:03:48Z</time>
      </trkpt>
      <trkpt lat="44.8683" lon="5.41018">
        <ele>1055.51</ele>
        <time>2018-06-17T15:03:49Z</time>
      </trkpt>
      <trkpt lat="44.86805" lon="5.41014">
        <ele>1055.19</ele>
        <time>2018-06-17T15:03:50Z</time>
      </trkpt>
      <trkpt lat="44.8678" lon="5.41013">
        <ele>1054.39</ele>
        <time>2018-06-17T15:03:51Z</time>
      </trkpt>
      <trkpt lat="44.86755" lon="5.41011">
        <ele>1053.45</ele>
        <time>2018-06-17T15:03:52Z</time>
      </trkpt>
      <trkpt lat="44.86729" lon="5.41007">
        <ele>1053.17</ele>
        <time>2018-06-17T15:03:53Z</time>
      </trkpt>
      <trkpt lat="44.86703" lon="5.41005">
        <ele>1051.69</ele>
        <time>2018-06-17T15:03:54Z</time>
      </trkpt>
      <trkpt lat="44.86676" lon="5.41004">
        <ele>1049.84</ele>
        <time>2018-06-17T15:03:55Z</time>
      </trkpt>
      <trkpt lat="44.86649" lon="5.41005">
        <ele>1049.29</ele>
        <time>2018-06-17T15:03:56Z</time>
      </trkpt>
      <trkpt lat="44.86622" lon="5.41004">
        <ele>1047.72</ele>
        <time>2018-06-17T15:03:57Z</time>
      </trkpt>
      <trkpt lat="44.86596" lon="5.41002">
        <ele>1047.25</ele>
        <time>2018-06-17T15:03:58Z</time>
      </trkpt>
      <trkpt lat="44.86572" lon="5.41002">
        <ele>1045.71</ele>
        <time>2018-06-17T15:03:59Z</time>
      </trkpt>
      <trkpt lat="44.86549" lon="5.41004">
        <ele>1045.25</ele>
        <time>2018-06-17T15:04:00Z</time>
      </trkpt>
      <trkpt lat="44.86527" lon="5.41006">
        <ele>1043.71</ele>
        <time>2018-06-17T15:04:01Z</time>
      </trkpt>
      <trkpt lat="44.86506" lon="5.41009">
        <ele>1042.55</ele>
        <time>2018-06-17T15:04:02Z</time>
      </trkpt>
      <trkpt lat="44.86485" lon="5.4101">
        <ele>1042.2</ele>
        <time>2018-06-17T15:04:03Z</time>
      </trkpt>
      <trkpt lat="44.86467" lon="5.41001">
        <ele>1041.39</ele>
        <time>2018-06-17T15:04:04Z</time>
      </trkpt>
      <trkpt lat="44.86447" lon="5.40991">
        <ele>1039.75</ele>
        <time>2018-06-17T15:04:05Z</time>
      </trkpt>
      <trkpt lat="44.86427" lon="5.40981">
        <ele>1038.56</ele>
        <time>2018-06-17T15:04:06Z</time>
      </trkpt>
      <trkpt lat="44.86407" lon="5.40974">
        <ele>1037.5</ele>
        <time>2018-06-17T15:04:07Z</time>
      </trkpt>
      <trkpt lat="44.86387" lon="5.40968">
        <ele>1037.18</ele>
        <time>2018-06-17T15:04:08Z</time>
      </trkpt>
      <trkpt lat="44.86366" lon="5.40963">
        <ele>1036.39</ele>
        <time>2018-06-17T15:04:09Z</time>
      </trkpt>
      <trkpt lat="44.86342" lon="5.40962">
        <ele>1036.15</ele>
        <time>2018-06-17T15:04:10Z</time>
      </trkpt>
      <trkpt lat="44.86318" lon="5.40968">
        <ele>1035.38</ele>
        <time>2018-06-17T15:04:11Z</time>
      </trkpt>
      <trkpt lat="44.86292" lon="5.4098">
        <ele>1035.15</ele>
        <time>2018-06-17T15:04:12Z</time>
      </trkpt>
      <trkpt lat="44.86266" lon="5.40983">
        <ele>1034.38</ele>
        <time>2018-06-17T15:04:13Z</time>
      </trkpt>
      <trkpt lat="44.86239" lon="5.40985">
        <ele>1033.45</ele>
        <time>2018-06-17T15:04:14Z</time>
      </trkpt>
      <trkpt lat="44.86215" lon="5.40987">
        <ele>1031.77</ele>
        <time>2018-06-17T15:04:15Z</time>
      </trkpt>
      <trkpt lat="44.86191" lon="5.4099">
        <ele>1029.16</ele>
        <time>2018-06-17T15:04:16Z</time>
      </trkpt>
      <trkpt lat="44.86167" lon="5.4099">
        <ele>1027.68</ele>
        <time>2018-06-17T15:04:17Z</time>
      </trkpt>
      <trkpt lat="44.86142" lon="5.40985">
        <ele>1026.54</ele>
        <time>2018-06-17T15:04:18Z</time>
      </trkpt>
      <trkpt lat="44.86114" lon="5.40971">
        <ele>1026.2</ele>
        <time>2018-06-17T15:04:19Z</time>
      </trkpt>
      <trkpt lat="44.86088" lon="5.4096">
        <ele>1026.09</ele>
        <time>2018-06-17T15:04:20Z</time>
      </trkpt>
      <trkpt lat="44.86062" lon="5.4095">
        <ele>1024.66</ele>
        <time>2018-06-17T15:04:21Z</time>
      </trkpt>
      <trkpt lat="44.86038" lon="5.40941">
        <ele>1024.23</ele>
        <time>2018-06-17T15:04:22Z</time>
      </trkpt>
      <trkpt lat="44.86014" lon="5.40934">
        <ele>1024.1</ele>
        <time>2018-06-17T15:04:23Z</time>
      </trkpt>
      <trkpt lat="44.8599" lon="5.40925">
        <ele>1021.27</ele>
        <time>2018-06-17T15:04:24Z</time>
      </trkpt>
      <trkpt lat="44.85966" lon="5.4092">
        <ele>1019.01</ele>
        <time>2018-06-17T15:04:25Z</time>
      </trkpt>
      <trkpt lat="44.85944" lon="5.40918">
        <ele>1016.94</ele>
        <time>2018-06-17T15:04:26Z</time>
      </trkpt>
      <trkpt lat="44.85924" lon="5.40916">
        <ele>1015.62</ele>
        <time>2018-06-17T15:04:27Z</time>
      </trkpt>
      <trkpt lat="44.85896" lon="5.40914">
        <ele>1012.58</ele>
        <time>2018-06-17T15:04:29Z</time>
      </trkpt>
      <trkpt lat="44.85875" lon="5.40921">
        <ele>1010.49</ele>
        <time>2018-06-17T15:04:31Z</time>
      </trkpt>
      <trkpt lat="44.8586" lon="5.40939">
        <ele>1010.09</ele>
        <time>2018-06-17T15:04:33Z</time>
      </trkpt>
      <trkpt lat="44.85866" lon="5.40964">
        <ele>1009.14</ele>
        <time>2018-06-17T15:04:35Z</time>
      </trkpt>
      <trkpt lat="44.85885" lon="5.40988">
        <ele>1009.06</ele>
        <time>2018-06-17T15:04:37Z</time>
      </trkpt>
      <trkpt lat="44.85908" lon="5.41007">
        <ele>1007.65</ele>
        <time>2018-06-17T15:04:38Z</time>
      </trkpt>
      <trkpt lat="44.8595" lon="5.41026">
        <ele>1005.13</ele>
        <time>2018-06-17T15:04:39Z</time>
      </trkpt>
      <trkpt lat="44.85974" lon="5.41047">
        <ele>1003.67</ele>
        <time>2018-06-17T15:04:40Z</time>
      </trkpt>
      <trkpt lat="44.85993" lon="5.41072">
        <ele>1003.24</ele>
        <time>2018-06-17T15:04:41Z</time>
      </trkpt>
      <trkpt lat="44.86011" lon="5.41095">
        <ele>1001.71</ele>
        <time>2018-06-17T15:04:42Z</time>
      </trkpt>
      <trkpt lat="44.86028" lon="5.41118">
        <ele>1000.55</ele>
        <time>2018-06-17T15:04:43Z</time>
      </trkpt>
      <trkpt lat="44.86045" lon="5.41142">
        <ele>999.5</ele>
        <time>2018-06-17T15:04:44Z</time>
      </trkpt>
      <trkpt lat="44.86062" lon="5.41166">
        <ele>998.48</ele>
        <time>2018-06-17T15:04:45Z</time>
      </trkpt>
      <trkpt lat="44.8608" lon="5.41191">
        <ele>997.48</ele>
        <time>2018-06-17T15:04:46Z</time>
      </trkpt>
      <trkpt lat="44.86097" lon="5.41213">
        <ele>997.18</ele>
        <time>2018-06-17T15:04:47Z</time>
      </trkpt>
      <trkpt lat="44.86118" lon="5.41231">
        <ele>995.69</ele>
        <time>2018-06-17T15:04:48Z</time>
      </trkpt>
      <trkpt lat="44.8614" lon="5.41247">
        <ele>992.44</ele>
        <time>2018-06-17T15:04:49Z</time>
      </trkpt>
      <trkpt lat="44.86161" lon="5.41263">
        <ele>989.37</ele>
        <time>2018-06-17T15:04:50Z</time>
      </trkpt>
      <trkpt lat="44.8618" lon="5.4128">
        <ele>987.04</ele>
        <time>2018-06-17T15:04:51Z</time>
      </trkpt>
      <trkpt lat="44.86198" lon="5.41296">
        <ele>987.05</ele>
        <time>2018-06-17T15:04:52Z</time>
      </trkpt>
      <trkpt lat="44.86215" lon="5.41312">
        <ele>986.35</ele>
        <time>2018-06-17T15:04:53Z</time>
      </trkpt>
      <trkpt lat="44.86228" lon="5.41334">
        <ele>985.44</ele>
        <time>2018-06-17T15:04:54Z</time>
      </trkpt>
      <trkpt lat="44.86236" lon="5.41358">
        <ele>984.47</ele>
        <time>2018-06-17T15:04:55Z</time>
      </trkpt>
      <trkpt lat="44.86236" lon="5.41392">
        <ele>982.07</ele>
        <time>2018-06-17T15:04:56Z</time>
      </trkpt>
      <trkpt lat="44.86244" lon="5.41418">
        <ele>980.66</ele>
        <time>2018-06-17T15:04:57Z</time>
      </trkpt>
      <trkpt lat="44.86255" lon="5.41439">
        <ele>979.53</ele>
        <time>2018-06-17T15:04:58Z</time>
      </trkpt>
      <trkpt lat="44.86269" lon="5.41461">
        <ele>978.49</ele>
        <time>2018-06-17T15:04:59Z</time>
      </trkpt>
      <trkpt lat="44.86285" lon="5.41478">
        <ele>976.78</ele>
        <time>2018-06-17T15:05:00Z</time>
      </trkpt>
      <trkpt lat="44.86302" lon="5.4149">
        <ele>974.87</ele>
        <time>2018-06-17T15:05:01Z</time>
      </trkpt>
      <trkpt lat="44.86329" lon="5.41493">
        <ele>973.6</ele>
        <time>2018-06-17T15:05:02Z</time>
      </trkpt>
      <trkpt lat="44.86354" lon="5.41503">
        <ele>971.81</ele>
        <time>2018-06-17T15:05:03Z</time>
      </trkpt>
      <trkpt lat="44.86378" lon="5.41514">
        <ele>969.88</ele>
        <time>2018-06-17T15:05:04Z</time>
      </trkpt>
      <trkpt lat="44.864" lon="5.41529">
        <ele>967.2</ele>
        <time>2018-06-17T15:05:05Z</time>
      </trkpt>
      <trkpt lat="44.86422" lon="5.41541">
        <ele>965.69</ele>
        <time>2018-06-17T15:05:06Z</time>
      </trkpt>
      <trkpt lat="44.86445" lon="5.41552">
        <ele>963.84</ele>
        <time>2018-06-17T15:05:07Z</time>
      </trkpt>
      <trkpt lat="44.86471" lon="5.41549">
        <ele>961.89</ele>
        <time>2018-06-17T15:05:08Z</time>
      </trkpt>
      <trkpt lat="44.86498" lon="5.41553">
        <ele>960.6</ele>
        <time>2018-06-17T15:05:09Z</time>
      </trkpt>
      <trkpt lat="44.86525" lon="5.41557">
        <ele>958.81</ele>
        <time>2018-06-17T15:05:10Z</time>
      </trkpt>
      <trkpt lat="44.8655" lon="5.41561">
        <ele>956.88</ele>
        <time>2018-06-17T15:05:11Z</time>
      </trkpt>
      <trkpt lat="44.86575" lon="5.41566">
        <ele>954.2</ele>
        <time>2018-06-17T15:05:12Z</time>
      </trkpt>
      <trkpt lat="44.86599" lon="5.4157">
        <ele>951.99</ele>
        <time>2018-06-17T15:05:13Z</time>
      </trkpt>
      <trkpt lat="44.86623" lon="5.41572">
        <ele>950.63</ele>
        <time>2018-06-17T15:05:14Z</time>
      </trkpt>
      <trkpt lat="44.86646" lon="5.41574">
        <ele>948.82</ele>
        <time>2018-06-17T15:05:15Z</time>
      </trkpt>
      <trkpt lat="44.86669" lon="5.41575">
        <ele>947.58</ele>
        <time>2018-06-17T15:05:16Z</time>
      </trkpt>
      <trkpt lat="44.8669" lon="5.41576">
        <ele>946.51</ele>
        <time>2018-06-17T15:05:17Z</time>
      </trkpt>
      <trkpt lat="44.8671" lon="5.41576">
        <ele>946.19</ele>
        <time>2018-06-17T15:05:18Z</time>
      </trkpt>
      <trkpt lat="44.86728" lon="5.41573">
        <ele>946.09</ele>
        <time>2018-06-17T15:05:19Z</time>
      </trkpt>
      <trkpt lat="44.86746" lon="5.41567">
        <ele>945.36</ele>
        <time>2018-06-17T15:05:20Z</time>
      </trkpt>
      <trkpt lat="44.86779" lon="5.41557">
        <ele>943.47</ele>
        <time>2018-06-17T15:05:22Z</time>
      </trkpt>
      <trkpt lat="44.86811" lon="5.41551">
        <ele>940.78</ele>
        <time>2018-06-17T15:05:24Z</time>
      </trkpt>
      <trkpt lat="44.86839" lon="5.41547">
        <ele>939.41</ele>
        <time>2018-06-17T15:05:26Z</time>
      </trkpt>
      <trkpt lat="44.86865" lon="5.41557">
        <ele>937.26</ele>
        <time>2018-06-17T15:05:28Z</time>
      </trkpt>
      <trkpt lat="44.86889" lon="5.41579">
        <ele>935.46</ele>
        <time>2018-06-17T15:05:30Z</time>
      </trkpt>
      <trkpt lat="44.86917" lon="5.41606">
        <ele>933.48</ele>
        <time>2018-06-17T15:05:32Z</time>
      </trkpt>
      <trkpt lat="44.86946" lon="5.41637">
        <ele>931.48</ele>
        <time>2018-06-17T15:05:34Z</time>
      </trkpt>
      <trkpt lat="44.86962" lon="5.41652">
        <ele>930.48</ele>
        <time>2018-06-17T15:05:35Z</time>
      </trkpt>
      <trkpt lat="44.86977" lon="5.41667">
        <ele>928.78</ele>
        <time>2018-06-17T15:05:36Z</time>
      </trkpt>
      <trkpt lat="44.86993" lon="5.41678">
        <ele>927.57</ele>
        <time>2018-06-17T15:05:37Z</time>
      </trkpt>
      <trkpt lat="44.87014" lon="5.4168">
        <ele>927.2</ele>
        <time>2018-06-17T15:05:38Z</time>
      </trkpt>
      <trkpt lat="44.87034" lon="5.41686">
        <ele>927.1</ele>
        <time>2018-06-17T15:05:39Z</time>
      </trkpt>
      <trkpt lat="44.87059" lon="5.41685">
        <ele>925.66</ele>
        <time>2018-06-17T15:05:40Z</time>
      </trkpt>
      <trkpt lat="44.87084" lon="5.41685">
        <ele>924.53</ele>
        <time>2018-06-17T15:05:41Z</time>
      </trkpt>
      <trkpt lat="44.87109" lon="5.41683">
        <ele>923.49</ele>
        <time>2018-06-17T15:05:42Z</time>
      </trkpt>
      <trkpt lat="44.87132" lon="5.41679">
        <ele>923.18</ele>
        <time>2018-06-17T15:05:43Z</time>
      </trkpt>
      <trkpt lat="44.87154" lon="5.41677">
        <ele>921.69</ele>
        <time>2018-06-17T15:05:44Z</time>
      </trkpt>
      <trkpt lat="44.87177" lon="5.41677">
        <ele>919.84</ele>
        <time>2018-06-17T15:05:45Z</time>
      </trkpt>
      <trkpt lat="44.872" lon="5.41682">
        <ele>917.89</ele>
        <time>2018-06-17T15:05:46Z</time>
      </trkpt>
      <trkpt lat="44.87225" lon="5.41689">
        <ele>916.6</ele>
        <time>2018-06-17T15:05:47Z</time>
      </trkpt>
      <trkpt lat="44.87251" lon="5.41701">
        <ele>916.21</ele>
        <time>2018-06-17T15:05:48Z</time>
      </trkpt>
      <trkpt lat="44.87277" lon="5.41712">
        <ele>914.7</ele>
        <time>2018-06-17T15:05:49Z</time>
      </trkpt>
      <trkpt lat="44.87304" lon="5.41724">
        <ele>912.84</ele>
        <time>2018-06-17T15:05:50Z</time>
      </trkpt>
      <trkpt lat="44.87331" lon="5.41735">
        <ele>911.59</ele>
        <time>2018-06-17T15:05:51Z</time>
      </trkpt>
      <trkpt lat="44.87359" lon="5.41748">
        <ele>910.51</ele>
        <time>2018-06-17T15:05:52Z</time>
      </trkpt>
      <trkpt lat="44.87387" lon="5.4176">
        <ele>909.49</ele>
        <time>2018-06-17T15:05:53Z</time>
      </trkpt>
      <trkpt lat="44.87415" lon="5.41772">
        <ele>909.18</ele>
        <time>2018-06-17T15:05:54Z</time>
      </trkpt>
      <trkpt lat="44.87442" lon="5.41784">
        <ele>909.09</ele>
        <time>2018-06-17T15:05:55Z</time>
      </trkpt>
      <trkpt lat="44.87468" lon="5.41796">
        <ele>909.06</ele>
        <time>2018-06-17T15:05:56Z</time>
      </trkpt>
      <trkpt lat="44.87494" lon="5.41808">
        <ele>908.35</ele>
        <time>2018-06-17T15:05:57Z</time>
      </trkpt>
      <trkpt lat="44.8752" lon="5.41817">
        <ele>907.44</ele>
        <time>2018-06-17T15:05:58Z</time>
      </trkpt>
      <trkpt lat="44.87546" lon="5.41828">
        <ele>907.17</ele>
        <time>2018-06-17T15:05:59Z</time>
      </trkpt>
      <trkpt lat="44.87572" lon="5.41836">
        <ele>906.38</ele>
        <time>2018-06-17T15:06:00Z</time>
      </trkpt>
      <trkpt lat="44.87598" lon="5.41843">
        <ele>905.45</ele>
        <time>2018-06-17T15:06:01Z</time>
      </trkpt>
      <trkpt lat="44.87623" lon="5.4185">
        <ele>904.47</ele>
        <time>2018-06-17T15:06:02Z</time>
      </trkpt>
      <trkpt lat="44.87648" lon="5.41857">
        <ele>904.18</ele>
        <time>2018-06-17T15:06:03Z</time>
      </trkpt>
      <trkpt lat="44.87673" lon="5.41865">
        <ele>903.39</ele>
        <time>2018-06-17T15:06:04Z</time>
      </trkpt>
      <trkpt lat="44.87698" lon="5.41874">
        <ele>903.15</ele>
        <time>2018-06-17T15:06:05Z</time>
      </trkpt>
      <trkpt lat="44.87723" lon="5.41882">
        <ele>902.38</ele>
        <time>2018-06-17T15:06:06Z</time>
      </trkpt>
      <trkpt lat="44.87749" lon="5.41892">
        <ele>902.15</ele>
        <time>2018-06-17T15:06:07Z</time>
      </trkpt>
      <trkpt lat="44.87775" lon="5.419">
        <ele>900.68</ele>
        <time>2018-06-17T15:06:08Z</time>
      </trkpt>
      <trkpt lat="44.87801" lon="5.41908">
        <ele>900.24</ele>
        <time>2018-06-17T15:06:09Z</time>
      </trkpt>
      <trkpt lat="44.87828" lon="5.41916">
        <ele>899.41</ele>
        <time>2018-06-17T15:06:10Z</time>
      </trkpt>
      <trkpt lat="44.87856" lon="5.41922">
        <ele>897.76</ele>
        <time>2018-06-17T15:06:11Z</time>
      </trkpt>
      <trkpt lat="44.87883" lon="5.41928">
        <ele>897.96</ele>
        <time>2018-06-17T15:06:12Z</time>
      </trkpt>
      <trkpt lat="44.87911" lon="5.41932">
        <ele>898.02</ele>
        <time>2018-06-17T15:06:13Z</time>
      </trkpt>
      <trkpt lat="44.87939" lon="5.41936">
        <ele>898.04</ele>
        <time>2018-06-17T15:06:14Z</time>
      </trkpt>
      <trkpt lat="44.87967" lon="5.4194">
        <ele>898.05</ele>
        <time>2018-06-17T15:06:15Z</time>
      </trkpt>
      <trkpt lat="44.87993" lon="5.41941">
        <ele>898.75</ele>
        <time>2018-06-17T15:06:16Z</time>
      </trkpt>
      <trkpt lat="44.8802" lon="5.4194">
        <ele>897.56</ele>
        <time>2018-06-17T15:06:17Z</time>
      </trkpt>
      <trkpt lat="44.88047" lon="5.4194">
        <ele>895.8</ele>
        <time>2018-06-17T15:06:18Z</time>
      </trkpt>
      <trkpt lat="44.88073" lon="5.41942">
        <ele>895.27</ele>
        <time>2018-06-17T15:06:19Z</time>
      </trkpt>
      <trkpt lat="44.88099" lon="5.41943">
        <ele>893.72</ele>
        <time>2018-06-17T15:06:20Z</time>
      </trkpt>
      <trkpt lat="44.88124" lon="5.41947">
        <ele>891.15</ele>
        <time>2018-06-17T15:06:21Z</time>
      </trkpt>
      <trkpt lat="44.8815" lon="5.41957">
        <ele>888.98</ele>
        <time>2018-06-17T15:06:22Z</time>
      </trkpt>
      <trkpt lat="44.88175" lon="5.41969">
        <ele>887.63</ele>
        <time>2018-06-17T15:06:23Z</time>
      </trkpt>
      <trkpt lat="44.88201" lon="5.41982">
        <ele>887.22</ele>
        <time>2018-06-17T15:06:24Z</time>
      </trkpt>
      <trkpt lat="44.88227" lon="5.41996">
        <ele>886.4</ele>
        <time>2018-06-17T15:06:25Z</time>
      </trkpt>
      <trkpt lat="44.88253" lon="5.42008">
        <ele>885.45</ele>
        <time>2018-06-17T15:06:26Z</time>
      </trkpt>
      <trkpt lat="44.88279" lon="5.42021">
        <ele>883.77</ele>
        <time>2018-06-17T15:06:27Z</time>
      </trkpt>
      <trkpt lat="44.88304" lon="5.42034">
        <ele>883.27</ele>
        <time>2018-06-17T15:06:28Z</time>
      </trkpt>
      <trkpt lat="44.88327" lon="5.42047">
        <ele>882.41</ele>
        <time>2018-06-17T15:06:29Z</time>
      </trkpt>
      <trkpt lat="44.8835" lon="5.42057">
        <ele>880.76</ele>
        <time>2018-06-17T15:06:30Z</time>
      </trkpt>
      <trkpt lat="44.88372" lon="5.42067">
        <ele>880.26</ele>
        <time>2018-06-17T15:06:31Z</time>
      </trkpt>
      <trkpt lat="44.88397" lon="5.42072">
        <ele>880.11</ele>
        <time>2018-06-17T15:06:32Z</time>
      </trkpt>
      <trkpt lat="44.88423" lon="5.42067">
        <ele>880.07</ele>
        <time>2018-06-17T15:06:33Z</time>
      </trkpt>
      <trkpt lat="44.88448" lon="5.42066">
        <ele>880.05</ele>
        <time>2018-06-17T15:06:34Z</time>
      </trkpt>
      <trkpt lat="44.88475" lon="5.42064">
        <ele>878.65</ele>
        <time>2018-06-17T15:06:35Z</time>
      </trkpt>
      <trkpt lat="44.88503" lon="5.42066">
        <ele>876.83</ele>
        <time>2018-06-17T15:06:36Z</time>
      </trkpt>
      <trkpt lat="44.88531" lon="5.42069">
        <ele>875.58</ele>
        <time>2018-06-17T15:06:37Z</time>
      </trkpt>
      <trkpt lat="44.88561" lon="5.42073">
        <ele>873.81</ele>
        <time>2018-06-17T15:06:38Z</time>
      </trkpt>
      <trkpt lat="44.88592" lon="5.42077">
        <ele>873.28</ele>
        <time>2018-06-17T15:06:39Z</time>
      </trkpt>
      <trkpt lat="44.88624" lon="5.4208">
        <ele>871.72</ele>
        <time>2018-06-17T15:06:40Z</time>
      </trkpt>
      <trkpt lat="44.88657" lon="5.42084">
        <ele>871.25</ele>
        <time>2018-06-17T15:06:41Z</time>
      </trkpt>
      <trkpt lat="44.88687" lon="5.42093">
        <ele>871.81</ele>
        <time>2018-06-17T15:06:42Z</time>
      </trkpt>
      <trkpt lat="44.88718" lon="5.42099">
        <ele>871.28</ele>
        <time>2018-06-17T15:06:43Z</time>
      </trkpt>
      <trkpt lat="44.88747" lon="5.42104">
        <ele>871.12</ele>
        <time>2018-06-17T15:06:44Z</time>
      </trkpt>
      <trkpt lat="44.88777" lon="5.42109">
        <ele>869.67</ele>
        <time>2018-06-17T15:06:45Z</time>
      </trkpt>
      <trkpt lat="44.88805" lon="5.42113">
        <ele>869.24</ele>
        <time>2018-06-17T15:06:46Z</time>
      </trkpt>
      <trkpt lat="44.88834" lon="5.42118">
        <ele>868.4</ele>
        <time>2018-06-17T15:06:47Z</time>
      </trkpt>
      <trkpt lat="44.88863" lon="5.42122">
        <ele>867.46</ele>
        <time>2018-06-17T15:06:48Z</time>
      </trkpt>
      <trkpt lat="44.88891" lon="5.42127">
        <ele>866.47</ele>
        <time>2018-06-17T15:06:49Z</time>
      </trkpt>
      <trkpt lat="44.88919" lon="5.42132">
        <ele>865.48</ele>
        <time>2018-06-17T15:06:50Z</time>
      </trkpt>
      <trkpt lat="44.88946" lon="5.42137">
        <ele>865.18</ele>
        <time>2018-06-17T15:06:51Z</time>
      </trkpt>
      <trkpt lat="44.88973" lon="5.42141">
        <ele>863.69</ele>
        <time>2018-06-17T15:06:52Z</time>
      </trkpt>
      <trkpt lat="44.88999" lon="5.42145">
        <ele>862.54</ele>
        <time>2018-06-17T15:06:53Z</time>
      </trkpt>
      <trkpt lat="44.89025" lon="5.42146">
        <ele>861.5</ele>
        <time>2018-06-17T15:06:54Z</time>
      </trkpt>
      <trkpt lat="44.89051" lon="5.42145">
        <ele>860.48</ele>
        <time>2018-06-17T15:06:55Z</time>
      </trkpt>
      <trkpt lat="44.89075" lon="5.42141">
        <ele>860.18</ele>
        <time>2018-06-17T15:06:56Z</time>
      </trkpt>
      <trkpt lat="44.89099" lon="5.42136">
        <ele>859.39</ele>
        <time>2018-06-17T15:06:57Z</time>
      </trkpt>
      <trkpt lat="44.89121" lon="5.42133">
        <ele>858.45</ele>
        <time>2018-06-17T15:06:58Z</time>
      </trkpt>
      <trkpt lat="44.89145" lon="5.42133">
        <ele>858.17</ele>
        <time>2018-06-17T15:06:59Z</time>
      </trkpt>
      <trkpt lat="44.89169" lon="5.42138">
        <ele>856.69</ele>
        <time>2018-06-17T15:07:00Z</time>
      </trkpt>
      <trkpt lat="44.89193" lon="5.42147">
        <ele>855.54</ele>
        <time>2018-06-17T15:07:01Z</time>
      </trkpt>
      <trkpt lat="44.89217" lon="5.4216">
        <ele>855.9</ele>
        <time>2018-06-17T15:07:02Z</time>
      </trkpt>
      <trkpt lat="44.89242" lon="5.42174">
        <ele>855.3</ele>
        <time>2018-06-17T15:07:03Z</time>
      </trkpt>
      <trkpt lat="44.89267" lon="5.42187">
        <ele>855.13</ele>
        <time>2018-06-17T15:07:04Z</time>
      </trkpt>
      <trkpt lat="44.89293" lon="5.42201">
        <ele>854.37</ele>
        <time>2018-06-17T15:07:05Z</time>
      </trkpt>
      <trkpt lat="44.89319" lon="5.42214">
        <ele>854.15</ele>
        <time>2018-06-17T15:07:06Z</time>
      </trkpt>
      <trkpt lat="44.89345" lon="5.42228">
        <ele>854.08</ele>
        <time>2018-06-17T15:07:07Z</time>
      </trkpt>
      <trkpt lat="44.8937" lon="5.42242">
        <ele>853.36</ele>
        <time>2018-06-17T15:07:08Z</time>
      </trkpt>
      <trkpt lat="44.89395" lon="5.42255">
        <ele>853.14</ele>
        <time>2018-06-17T15:07:09Z</time>
      </trkpt>
      <trkpt lat="44.8942" lon="5.42268">
        <ele>852.38</ele>
        <time>2018-06-17T15:07:10Z</time>
      </trkpt>
      <trkpt lat="44.89445" lon="5.42282">
        <ele>852.15</ele>
        <time>2018-06-17T15:07:11Z</time>
      </trkpt>
      <trkpt lat="44.89468" lon="5.42293">
        <ele>851.38</ele>
        <time>2018-06-17T15:07:12Z</time>
      </trkpt>
      <trkpt lat="44.89491" lon="5.42305">
        <ele>849.75</ele>
        <time>2018-06-17T15:07:13Z</time>
      </trkpt>
      <trkpt lat="44.89514" lon="5.42316">
        <ele>847.86</ele>
        <time>2018-06-17T15:07:14Z</time>
      </trkpt>
      <trkpt lat="44.89537" lon="5.42327">
        <ele>845.89</ele>
        <time>2018-06-17T15:07:15Z</time>
      </trkpt>
      <trkpt lat="44.89559" lon="5.42337">
        <ele>844.6</ele>
        <time>2018-06-17T15:07:16Z</time>
      </trkpt>
      <trkpt lat="44.89583" lon="5.42346">
        <ele>844.21</ele>
        <time>2018-06-17T15:07:17Z</time>
      </trkpt>
      <trkpt lat="44.89608" lon="5.42345">
        <ele>844.1</ele>
        <time>2018-06-17T15:07:18Z</time>
      </trkpt>
      <trkpt lat="44.89634" lon="5.42345">
        <ele>843.36</ele>
        <time>2018-06-17T15:07:19Z</time>
      </trkpt>
      <trkpt lat="44.89659" lon="5.42346">
        <ele>842.44</ele>
        <time>2018-06-17T15:07:20Z</time>
      </trkpt>
      <trkpt lat="44.89684" lon="5.4235">
        <ele>842.17</ele>
        <time>2018-06-17T15:07:21Z</time>
      </trkpt>
      <trkpt lat="44.8971" lon="5.42362">
        <ele>842.78</ele>
        <time>2018-06-17T15:07:22Z</time>
      </trkpt>
      <trkpt lat="44.89736" lon="5.42376">
        <ele>842.27</ele>
        <time>2018-06-17T15:07:23Z</time>
      </trkpt>
      <trkpt lat="44.89763" lon="5.42391">
        <ele>842.12</ele>
        <time>2018-06-17T15:07:24Z</time>
      </trkpt>
      <trkpt lat="44.89791" lon="5.42405">
        <ele>841.37</ele>
        <time>2018-06-17T15:07:25Z</time>
      </trkpt>
      <trkpt lat="44.8982" lon="5.42419">
        <ele>841.14</ele>
        <time>2018-06-17T15:07:26Z</time>
      </trkpt>
      <trkpt lat="44.89849" lon="5.42432">
        <ele>841.08</ele>
        <time>2018-06-17T15:07:27Z</time>
      </trkpt>
      <trkpt lat="44.89878" lon="5.42446">
        <ele>839.66</ele>
        <time>2018-06-17T15:07:28Z</time>
      </trkpt>
      <trkpt lat="44.89907" lon="5.42461">
        <ele>839.23</ele>
        <time>2018-06-17T15:07:29Z</time>
      </trkpt>
      <trkpt lat="44.89936" lon="5.42475">
        <ele>839.1</ele>
        <time>2018-06-17T15:07:30Z</time>
      </trkpt>
      <trkpt lat="44.89965" lon="5.4249">
        <ele>838.37</ele>
        <time>2018-06-17T15:07:31Z</time>
      </trkpt>
      <trkpt lat="44.89993" lon="5.42503">
        <ele>837.44</ele>
        <time>2018-06-17T15:07:32Z</time>
      </trkpt>
      <trkpt lat="44.90019" lon="5.42516">
        <ele>835.77</ele>
        <time>2018-06-17T15:07:33Z</time>
      </trkpt>
      <trkpt lat="44.90044" lon="5.42528">
        <ele>835.26</ele>
        <time>2018-06-17T15:07:34Z</time>
      </trkpt>
      <trkpt lat="44.90071" lon="5.42538">
        <ele>834.41</ele>
        <time>2018-06-17T15:07:35Z</time>
      </trkpt>
      <trkpt lat="44.901" lon="5.42546">
        <ele>834.16</ele>
        <time>2018-06-17T15:07:36Z</time>
      </trkpt>
      <trkpt lat="44.90131" lon="5.4255">
        <ele>833.38</ele>
        <time>2018-06-17T15:07:37Z</time>
      </trkpt>
      <trkpt lat="44.90162" lon="5.42552">
        <ele>831.75</ele>
        <time>2018-06-17T15:07:38Z</time>
      </trkpt>
      <trkpt lat="44.90192" lon="5.42555">
        <ele>832.66</ele>
        <time>2018-06-17T15:07:39Z</time>
      </trkpt>
      <trkpt lat="44.90222" lon="5.42558">
        <ele>833.63</ele>
        <time>2018-06-17T15:07:40Z</time>
      </trkpt>
      <trkpt lat="44.90254" lon="5.4256">
        <ele>832.52</ele>
        <time>2018-06-17T15:07:41Z</time>
      </trkpt>
      <trkpt lat="44.90285" lon="5.42562">
        <ele>832.19</ele>
        <time>2018-06-17T15:07:42Z</time>
      </trkpt>
      <trkpt lat="44.90317" lon="5.42564">
        <ele>831.39</ele>
        <time>2018-06-17T15:07:43Z</time>
      </trkpt>
      <trkpt lat="44.90348" lon="5.42566">
        <ele>830.45</ele>
        <time>2018-06-17T15:07:44Z</time>
      </trkpt>
      <trkpt lat="44.90379" lon="5.42568">
        <ele>830.17</ele>
        <time>2018-06-17T15:07:45Z</time>
      </trkpt>
      <trkpt lat="44.9041" lon="5.4257">
        <ele>830.09</ele>
        <time>2018-06-17T15:07:46Z</time>
      </trkpt>
      <trkpt lat="44.90442" lon="5.42572">
        <ele>828.66</ele>
        <time>2018-06-17T15:07:47Z</time>
      </trkpt>
      <trkpt lat="44.90473" lon="5.42573">
        <ele>828.23</ele>
        <time>2018-06-17T15:07:48Z</time>
      </trkpt>
      <trkpt lat="44.90504" lon="5.42576">
        <ele>827.4</ele>
        <time>2018-06-17T15:07:49Z</time>
      </trkpt>
      <trkpt lat="44.90534" lon="5.42577">
        <ele>827.16</ele>
        <time>2018-06-17T15:07:50Z</time>
      </trkpt>
      <trkpt lat="44.90562" lon="5.42578">
        <ele>827.78</ele>
        <time>2018-06-17T15:07:51Z</time>
      </trkpt>
      <trkpt lat="44.90588" lon="5.42577">
        <ele>827.27</ele>
        <time>2018-06-17T15:07:52Z</time>
      </trkpt>
      <trkpt lat="44.90614" lon="5.42574">
        <ele>827.11</ele>
        <time>2018-06-17T15:07:53Z</time>
      </trkpt>
      <trkpt lat="44.9064" lon="5.42579">
        <ele>827.07</ele>
        <time>2018-06-17T15:07:54Z</time>
      </trkpt>
      <trkpt lat="44.90668" lon="5.42588">
        <ele>826.35</ele>
        <time>2018-06-17T15:07:55Z</time>
      </trkpt>
      <trkpt lat="44.90696" lon="5.42597">
        <ele>826.14</ele>
        <time>2018-06-17T15:07:56Z</time>
      </trkpt>
      <trkpt lat="44.90724" lon="5.42608">
        <ele>825.38</ele>
        <time>2018-06-17T15:07:57Z</time>
      </trkpt>
      <trkpt lat="44.90751" lon="5.42622">
        <ele>825.15</ele>
        <time>2018-06-17T15:07:58Z</time>
      </trkpt>
      <trkpt lat="44.90777" lon="5.42637">
        <ele>825.08</ele>
        <time>2018-06-17T15:07:59Z</time>
      </trkpt>
      <trkpt lat="44.90801" lon="5.42652">
        <ele>824.36</ele>
        <time>2018-06-17T15:08:00Z</time>
      </trkpt>
      <trkpt lat="44.90824" lon="5.42663">
        <ele>824.14</ele>
        <time>2018-06-17T15:08:01Z</time>
      </trkpt>
      <trkpt lat="44.90847" lon="5.42673">
        <ele>824.08</ele>
        <time>2018-06-17T15:08:02Z</time>
      </trkpt>
      <trkpt lat="44.90874" lon="5.4268">
        <ele>824.06</ele>
        <time>2018-06-17T15:08:03Z</time>
      </trkpt>
      <trkpt lat="44.90904" lon="5.42669">
        <ele>824.05</ele>
        <time>2018-06-17T15:08:04Z</time>
      </trkpt>
      <trkpt lat="44.90933" lon="5.42665">
        <ele>823.35</ele>
        <time>2018-06-17T15:08:05Z</time>
      </trkpt>
      <trkpt lat="44.90962" lon="5.42662">
        <ele>823.14</ele>
        <time>2018-06-17T15:08:06Z</time>
      </trkpt>
      <trkpt lat="44.90989" lon="5.4266">
        <ele>822.38</ele>
        <time>2018-06-17T15:08:07Z</time>
      </trkpt>
      <trkpt lat="44.91014" lon="5.42662">
        <ele>821.45</ele>
        <time>2018-06-17T15:08:08Z</time>
      </trkpt>
      <trkpt lat="44.91038" lon="5.42667">
        <ele>820.47</ele>
        <time>2018-06-17T15:08:09Z</time>
      </trkpt>
      <trkpt lat="44.91061" lon="5.42672">
        <ele>819.47</ele>
        <time>2018-06-17T15:08:10Z</time>
      </trkpt>
      <trkpt lat="44.91083" lon="5.42677">
        <ele>818.48</ele>
        <time>2018-06-17T15:08:11Z</time>
      </trkpt>
      <trkpt lat="44.91106" lon="5.42682">
        <ele>818.18</ele>
        <time>2018-06-17T15:08:12Z</time>
      </trkpt>
      <trkpt lat="44.91128" lon="5.42687">
        <ele>817.39</ele>
        <time>2018-06-17T15:08:13Z</time>
      </trkpt>
      <trkpt lat="44.9115" lon="5.4269">
        <ele>816.45</ele>
        <time>2018-06-17T15:08:14Z</time>
      </trkpt>
      <trkpt lat="44.91173" lon="5.42691">
        <ele>816.17</ele>
        <time>2018-06-17T15:08:15Z</time>
      </trkpt>
      <trkpt lat="44.91196" lon="5.42692">
        <ele>815.39</ele>
        <time>2018-06-17T15:08:16Z</time>
      </trkpt>
      <trkpt lat="44.9122" lon="5.42693">
        <ele>815.15</ele>
        <time>2018-06-17T15:08:17Z</time>
      </trkpt>
      <trkpt lat="44.91244" lon="5.42694">
        <ele>815.08</ele>
        <time>2018-06-17T15:08:18Z</time>
      </trkpt>
      <trkpt lat="44.91268" lon="5.42696">
        <ele>815.06</ele>
        <time>2018-06-17T15:08:19Z</time>
      </trkpt>
      <trkpt lat="44.91293" lon="5.42697">
        <ele>815.05</ele>
        <time>2018-06-17T15:08:20Z</time>
      </trkpt>
      <trkpt lat="44.91317" lon="5.42698">
        <ele>814.35</ele>
        <time>2018-06-17T15:08:21Z</time>
      </trkpt>
      <trkpt lat="44.91342" lon="5.42698">
        <ele>814.14</ele>
        <time>2018-06-17T15:08:22Z</time>
      </trkpt>
      <trkpt lat="44.91367" lon="5.427">
        <ele>813.38</ele>
        <time>2018-06-17T15:08:23Z</time>
      </trkpt>
      <trkpt lat="44.91393" lon="5.42703">
        <ele>813.15</ele>
        <time>2018-06-17T15:08:24Z</time>
      </trkpt>
      <trkpt lat="44.91419" lon="5.42707">
        <ele>812.38</ele>
        <time>2018-06-17T15:08:25Z</time>
      </trkpt>
      <trkpt lat="44.91445" lon="5.42712">
        <ele>812.15</ele>
        <time>2018-06-17T15:08:26Z</time>
      </trkpt>
      <trkpt lat="44.91471" lon="5.42716">
        <ele>812.08</ele>
        <time>2018-06-17T15:08:27Z</time>
      </trkpt>
      <trkpt lat="44.91497" lon="5.4272">
        <ele>812.76</ele>
        <time>2018-06-17T15:08:28Z</time>
      </trkpt>
      <trkpt lat="44.91524" lon="5.42723">
        <ele>812.96</ele>
        <time>2018-06-17T15:08:29Z</time>
      </trkpt>
      <trkpt lat="44.91551" lon="5.42727">
        <ele>813.02</ele>
        <time>2018-06-17T15:08:30Z</time>
      </trkpt>
      <trkpt lat="44.91579" lon="5.42731">
        <ele>813.04</ele>
        <time>2018-06-17T15:08:31Z</time>
      </trkpt>
      <trkpt lat="44.91606" lon="5.42735">
        <ele>813.05</ele>
        <time>2018-06-17T15:08:32Z</time>
      </trkpt>
      <trkpt lat="44.91633" lon="5.42739">
        <ele>813.05</ele>
        <time>2018-06-17T15:08:33Z</time>
      </trkpt>
      <trkpt lat="44.9166" lon="5.42743">
        <ele>813.05</ele>
        <time>2018-06-17T15:08:34Z</time>
      </trkpt>
      <trkpt lat="44.91686" lon="5.42747">
        <ele>813.05</ele>
        <time>2018-06-17T15:08:35Z</time>
      </trkpt>
      <trkpt lat="44.91712" lon="5.4275">
        <ele>813.05</ele>
        <time>2018-06-17T15:08:36Z</time>
      </trkpt>
      <trkpt lat="44.91736" lon="5.42754">
        <ele>812.35</ele>
        <time>2018-06-17T15:08:37Z</time>
      </trkpt>
      <trkpt lat="44.91758" lon="5.42762">
        <ele>812.14</ele>
        <time>2018-06-17T15:08:38Z</time>
      </trkpt>
      <trkpt lat="44.91781" lon="5.4277">
        <ele>812.08</ele>
        <time>2018-06-17T15:08:39Z</time>
      </trkpt>
      <trkpt lat="44.91801" lon="5.42786">
        <ele>811.36</ele>
        <time>2018-06-17T15:08:40Z</time>
      </trkpt>
      <trkpt lat="44.91822" lon="5.428">
        <ele>809.74</ele>
        <time>2018-06-17T15:08:41Z</time>
      </trkpt>
      <trkpt lat="44.91843" lon="5.42812">
        <ele>809.96</ele>
        <time>2018-06-17T15:08:42Z</time>
      </trkpt>
      <trkpt lat="44.91864" lon="5.42821">
        <ele>809.32</ele>
        <time>2018-06-17T15:08:43Z</time>
      </trkpt>
      <trkpt lat="44.91884" lon="5.42829">
        <ele>808.43</ele>
        <time>2018-06-17T15:08:44Z</time>
      </trkpt>
      <trkpt lat="44.91903" lon="5.42836">
        <ele>807.46</ele>
        <time>2018-06-17T15:08:45Z</time>
      </trkpt>
      <trkpt lat="44.91921" lon="5.42842">
        <ele>806.47</ele>
        <time>2018-06-17T15:08:46Z</time>
      </trkpt>
      <trkpt lat="44.91956" lon="5.42849">
        <ele>806.09</ele>
        <time>2018-06-17T15:08:48Z</time>
      </trkpt>
      <trkpt lat="44.91991" lon="5.42851">
        <ele>804.44</ele>
        <time>2018-06-17T15:08:50Z</time>
      </trkpt>
      <trkpt lat="44.92009" lon="5.42844">
        <ele>803.47</ele>
        <time>2018-06-17T15:08:51Z</time>
      </trkpt>
      <trkpt lat="44.92039" lon="5.42834">
        <ele>802.18</ele>
        <time>2018-06-17T15:08:53Z</time>
      </trkpt>
      <trkpt lat="44.92071" lon="5.42828">
        <ele>800.66</ele>
        <time>2018-06-17T15:08:55Z</time>
      </trkpt>
      <trkpt lat="44.92103" lon="5.4283">
        <ele>800.1</ele>
        <time>2018-06-17T15:08:57Z</time>
      </trkpt>
      <trkpt lat="44.92123" lon="5.4283">
        <ele>800.07</ele>
        <time>2018-06-17T15:08:58Z</time>
      </trkpt>
      <trkpt lat="44.92145" lon="5.42829">
        <ele>799.35</ele>
        <time>2018-06-17T15:08:59Z</time>
      </trkpt>
      <trkpt lat="44.92171" lon="5.42827">
        <ele>799.14</ele>
        <time>2018-06-17T15:09:00Z</time>
      </trkpt>
      <trkpt lat="44.92198" lon="5.42824">
        <ele>798.38</ele>
        <time>2018-06-17T15:09:01Z</time>
      </trkpt>
      <trkpt lat="44.92226" lon="5.4282">
        <ele>798.15</ele>
        <time>2018-06-17T15:09:02Z</time>
      </trkpt>
      <trkpt lat="44.92255" lon="5.42815">
        <ele>798.08</ele>
        <time>2018-06-17T15:09:03Z</time>
      </trkpt>
      <trkpt lat="44.92287" lon="5.42807">
        <ele>797.36</ele>
        <time>2018-06-17T15:09:04Z</time>
      </trkpt>
      <trkpt lat="44.92317" lon="5.428">
        <ele>796.44</ele>
        <time>2018-06-17T15:09:05Z</time>
      </trkpt>
      <trkpt lat="44.92349" lon="5.42795">
        <ele>796.87</ele>
        <time>2018-06-17T15:09:06Z</time>
      </trkpt>
      <trkpt lat="44.92382" lon="5.42788">
        <ele>795.59</ele>
        <time>2018-06-17T15:09:07Z</time>
      </trkpt>
      <trkpt lat="44.92414" lon="5.42783">
        <ele>794.51</ele>
        <time>2018-06-17T15:09:08Z</time>
      </trkpt>
      <trkpt lat="44.92446" lon="5.42775">
        <ele>793.49</ele>
        <time>2018-06-17T15:09:09Z</time>
      </trkpt>
      <trkpt lat="44.92477" lon="5.42768">
        <ele>793.18</ele>
        <time>2018-06-17T15:09:10Z</time>
      </trkpt>
      <trkpt lat="44.92507" lon="5.42761">
        <ele>793.09</ele>
        <time>2018-06-17T15:09:11Z</time>
      </trkpt>
      <trkpt lat="44.92536" lon="5.42755">
        <ele>792.36</ele>
        <time>2018-06-17T15:09:12Z</time>
      </trkpt>
      <trkpt lat="44.92565" lon="5.42749">
        <ele>792.14</ele>
        <time>2018-06-17T15:09:13Z</time>
      </trkpt>
      <trkpt lat="44.92595" lon="5.42746">
        <ele>790.68</ele>
        <time>2018-06-17T15:09:14Z</time>
      </trkpt>
      <trkpt lat="44.92625" lon="5.42748">
        <ele>790.24</ele>
        <time>2018-06-17T15:09:15Z</time>
      </trkpt>
      <trkpt lat="44.92654" lon="5.42752">
        <ele>790.11</ele>
        <time>2018-06-17T15:09:16Z</time>
      </trkpt>
      <trkpt lat="44.92683" lon="5.42757">
        <ele>789.37</ele>
        <time>2018-06-17T15:09:17Z</time>
      </trkpt>
      <trkpt lat="44.92712" lon="5.42762">
        <ele>788.44</ele>
        <time>2018-06-17T15:09:18Z</time>
      </trkpt>
      <trkpt lat="44.92741" lon="5.42767">
        <ele>788.17</ele>
        <time>2018-06-17T15:09:19Z</time>
      </trkpt>
      <trkpt lat="44.92772" lon="5.4277">
        <ele>787.38</ele>
        <time>2018-06-17T15:09:20Z</time>
      </trkpt>
      <trkpt lat="44.92802" lon="5.42773">
        <ele>786.45</ele>
        <time>2018-06-17T15:09:21Z</time>
      </trkpt>
      <trkpt lat="44.92832" lon="5.42777">
        <ele>788.97</ele>
        <time>2018-06-17T15:09:22Z</time>
      </trkpt>
      <trkpt lat="44.92864" lon="5.42783">
        <ele>788.33</ele>
        <time>2018-06-17T15:09:23Z</time>
      </trkpt>
      <trkpt lat="44.92895" lon="5.42787">
        <ele>788.83</ele>
        <time>2018-06-17T15:09:24Z</time>
      </trkpt>
      <trkpt lat="44.92926" lon="5.42789">
        <ele>788.28</ele>
        <time>2018-06-17T15:09:25Z</time>
      </trkpt>
      <trkpt lat="44.92957" lon="5.42792">
        <ele>786.72</ele>
        <time>2018-06-17T15:09:26Z</time>
      </trkpt>
      <trkpt lat="44.92987" lon="5.42795">
        <ele>786.25</ele>
        <time>2018-06-17T15:09:27Z</time>
      </trkpt>
      <trkpt lat="44.93016" lon="5.42798">
        <ele>785.41</ele>
        <time>2018-06-17T15:09:28Z</time>
      </trkpt>
      <trkpt lat="44.93043" lon="5.42802">
        <ele>785.86</ele>
        <time>2018-06-17T15:09:29Z</time>
      </trkpt>
      <trkpt lat="44.93069" lon="5.42809">
        <ele>785.99</ele>
        <time>2018-06-17T15:09:30Z</time>
      </trkpt>
      <trkpt lat="44.93095" lon="5.42821">
        <ele>786.03</ele>
        <time>2018-06-17T15:09:31Z</time>
      </trkpt>
      <trkpt lat="44.93119" lon="5.42836">
        <ele>786.74</ele>
        <time>2018-06-17T15:09:32Z</time>
      </trkpt>
      <trkpt lat="44.93143" lon="5.42853">
        <ele>786.96</ele>
        <time>2018-06-17T15:09:33Z</time>
      </trkpt>
      <trkpt lat="44.93167" lon="5.4287">
        <ele>787.02</ele>
        <time>2018-06-17T15:09:34Z</time>
      </trkpt>
      <trkpt lat="44.9319" lon="5.42887">
        <ele>787.04</ele>
        <time>2018-06-17T15:09:35Z</time>
      </trkpt>
      <trkpt lat="44.93214" lon="5.42903">
        <ele>787.05</ele>
        <time>2018-06-17T15:09:36Z</time>
      </trkpt>
      <trkpt lat="44.9324" lon="5.42917">
        <ele>787.05</ele>
        <time>2018-06-17T15:09:37Z</time>
      </trkpt>
      <trkpt lat="44.93265" lon="5.42929">
        <ele>787.05</ele>
        <time>2018-06-17T15:09:38Z</time>
      </trkpt>
      <trkpt lat="44.93288" lon="5.4294">
        <ele>787.05</ele>
        <time>2018-06-17T15:09:39Z</time>
      </trkpt>
      <trkpt lat="44.9331" lon="5.42949">
        <ele>787.05</ele>
        <time>2018-06-17T15:09:40Z</time>
      </trkpt>
      <trkpt lat="44.93331" lon="5.42957">
        <ele>787.75</ele>
        <time>2018-06-17T15:09:41Z</time>
      </trkpt>
      <trkpt lat="44.93351" lon="5.42963">
        <ele>787.96</ele>
        <time>2018-06-17T15:09:42Z</time>
      </trkpt>
      <trkpt lat="44.9337" lon="5.4297">
        <ele>788.02</ele>
        <time>2018-06-17T15:09:43Z</time>
      </trkpt>
      <trkpt lat="44.93403" lon="5.42979">
        <ele>787.35</ele>
        <time>2018-06-17T15:09:45Z</time>
      </trkpt>
      <trkpt lat="44.93434" lon="5.42989">
        <ele>787.08</ele>
        <time>2018-06-17T15:09:47Z</time>
      </trkpt>
      <trkpt lat="44.93463" lon="5.43001">
        <ele>787.26</ele>
        <time>2018-06-17T15:09:49Z</time>
      </trkpt>
      <trkpt lat="44.93488" lon="5.4301">
        <ele>787.98</ele>
        <time>2018-06-17T15:09:51Z</time>
      </trkpt>
      <trkpt lat="44.93509" lon="5.43019">
        <ele>789.65</ele>
        <time>2018-06-17T15:09:53Z</time>
      </trkpt>
      <trkpt lat="44.9353" lon="5.43023">
        <ele>790.71</ele>
        <time>2018-06-17T15:09:55Z</time>
      </trkpt>
      <trkpt lat="44.93553" lon="5.43025">
        <ele>791.02</ele>
        <time>2018-06-17T15:09:57Z</time>
      </trkpt>
      <trkpt lat="44.93579" lon="5.43028">
        <ele>791.05</ele>
        <time>2018-06-17T15:09:59Z</time>
      </trkpt>
      <trkpt lat="44.93603" lon="5.4303">
        <ele>791.96</ele>
        <time>2018-06-17T15:10:01Z</time>
      </trkpt>
      <trkpt lat="44.93625" lon="5.43045">
        <ele>792.96</ele>
        <time>2018-06-17T15:10:04Z</time>
      </trkpt>
      <trkpt lat="44.93628" lon="5.43072">
        <ele>793.74</ele>
        <time>2018-06-17T15:10:06Z</time>
      </trkpt>
      <trkpt lat="44.93633" lon="5.43103">
        <ele>793.11</ele>
        <time>2018-06-17T15:10:08Z</time>
      </trkpt>
      <trkpt lat="44.93644" lon="5.43132">
        <ele>792.35</ele>
        <time>2018-06-17T15:10:10Z</time>
      </trkpt>
      <trkpt lat="44.93651" lon="5.43167">
        <ele>791.17</ele>
        <time>2018-06-17T15:10:12Z</time>
      </trkpt>
      <trkpt lat="44.93646" lon="5.43212">
        <ele>791.06</ele>
        <time>2018-06-17T15:10:14Z</time>
      </trkpt>
      <trkpt lat="44.93644" lon="5.43253">
        <ele>791.75</ele>
        <time>2018-06-17T15:10:16Z</time>
      </trkpt>
      <trkpt lat="44.93649" lon="5.43284">
        <ele>792.02</ele>
        <time>2018-06-17T15:10:18Z</time>
      </trkpt>
      <trkpt lat="44.93671" lon="5.43309">
        <ele>792.75</ele>
        <time>2018-06-17T15:10:20Z</time>
      </trkpt>
      <trkpt lat="44.93688" lon="5.4332">
        <ele>792.26</ele>
        <time>2018-06-17T15:10:21Z</time>
      </trkpt>
      <trkpt lat="44.93709" lon="5.43326">
        <ele>792.11</ele>
        <time>2018-06-17T15:10:22Z</time>
      </trkpt>
      <trkpt lat="44.9375" lon="5.43335">
        <ele>789.97</ele>
        <time>2018-06-17T15:10:23Z</time>
      </trkpt>
      <trkpt lat="44.93778" lon="5.43343">
        <ele>789.32</ele>
        <time>2018-06-17T15:10:24Z</time>
      </trkpt>
      <trkpt lat="44.93805" lon="5.43351">
        <ele>788.43</ele>
        <time>2018-06-17T15:10:25Z</time>
      </trkpt>
      <trkpt lat="44.93832" lon="5.43357">
        <ele>787.46</ele>
        <time>2018-06-17T15:10:26Z</time>
      </trkpt>
      <trkpt lat="44.93858" lon="5.43365">
        <ele>785.77</ele>
        <time>2018-06-17T15:10:27Z</time>
      </trkpt>
      <trkpt lat="44.93884" lon="5.43369">
        <ele>783.87</ele>
        <time>2018-06-17T15:10:28Z</time>
      </trkpt>
      <trkpt lat="44.93911" lon="5.43375">
        <ele>783.29</ele>
        <time>2018-06-17T15:10:29Z</time>
      </trkpt>
      <trkpt lat="44.93939" lon="5.43378">
        <ele>782.42</ele>
        <time>2018-06-17T15:10:30Z</time>
      </trkpt>
      <trkpt lat="44.93966" lon="5.43384">
        <ele>781.46</ele>
        <time>2018-06-17T15:10:31Z</time>
      </trkpt>
      <trkpt lat="44.93994" lon="5.4339">
        <ele>781.17</ele>
        <time>2018-06-17T15:10:32Z</time>
      </trkpt>
      <trkpt lat="44.94021" lon="5.43395">
        <ele>781.09</ele>
        <time>2018-06-17T15:10:33Z</time>
      </trkpt>
      <trkpt lat="44.94049" lon="5.43399">
        <ele>779.66</ele>
        <time>2018-06-17T15:10:34Z</time>
      </trkpt>
      <trkpt lat="44.94077" lon="5.43402">
        <ele>777.83</ele>
        <time>2018-06-17T15:10:35Z</time>
      </trkpt>
      <trkpt lat="44.94106" lon="5.43406">
        <ele>775.88</ele>
        <time>2018-06-17T15:10:36Z</time>
      </trkpt>
      <trkpt lat="44.94137" lon="5.43407">
        <ele>774.6</ele>
        <time>2018-06-17T15:10:37Z</time>
      </trkpt>
      <trkpt lat="44.94167" lon="5.43408">
        <ele>773.51</ele>
        <time>2018-06-17T15:10:38Z</time>
      </trkpt>
      <trkpt lat="44.94198" lon="5.43407">
        <ele>771.79</ele>
        <time>2018-06-17T15:10:39Z</time>
      </trkpt>
      <trkpt lat="44.9423" lon="5.43405">
        <ele>770.57</ele>
        <time>2018-06-17T15:10:40Z</time>
      </trkpt>
      <trkpt lat="44.94261" lon="5.43403">
        <ele>769.51</ele>
        <time>2018-06-17T15:10:41Z</time>
      </trkpt>
      <trkpt lat="44.94292" lon="5.43401">
        <ele>769.19</ele>
        <time>2018-06-17T15:10:42Z</time>
      </trkpt>
      <trkpt lat="44.94323" lon="5.434">
        <ele>769.09</ele>
        <time>2018-06-17T15:10:43Z</time>
      </trkpt>
      <trkpt lat="44.94355" lon="5.43396">
        <ele>769.06</ele>
        <time>2018-06-17T15:10:44Z</time>
      </trkpt>
      <trkpt lat="44.9439" lon="5.43398">
        <ele>766.95</ele>
        <time>2018-06-17T15:10:45Z</time>
      </trkpt>
      <trkpt lat="44.94423" lon="5.434">
        <ele>765.62</ele>
        <time>2018-06-17T15:10:46Z</time>
      </trkpt>
      <trkpt lat="44.94454" lon="5.43401">
        <ele>764.52</ele>
        <time>2018-06-17T15:10:47Z</time>
      </trkpt>
      <trkpt lat="44.94486" lon="5.43404">
        <ele>763.49</ele>
        <time>2018-06-17T15:10:48Z</time>
      </trkpt>
      <trkpt lat="44.94518" lon="5.43405">
        <ele>761.78</ele>
        <time>2018-06-17T15:10:49Z</time>
      </trkpt>
      <trkpt lat="44.9455" lon="5.43407">
        <ele>761.27</ele>
        <time>2018-06-17T15:10:50Z</time>
      </trkpt>
      <trkpt lat="44.94582" lon="5.43409">
        <ele>760.41</ele>
        <time>2018-06-17T15:10:51Z</time>
      </trkpt>
      <trkpt lat="44.94614" lon="5.43412">
        <ele>759.46</ele>
        <time>2018-06-17T15:10:52Z</time>
      </trkpt>
      <trkpt lat="44.94645" lon="5.43414">
        <ele>758.47</ele>
        <time>2018-06-17T15:10:53Z</time>
      </trkpt>
      <trkpt lat="44.94677" lon="5.43416">
        <ele>757.48</ele>
        <time>2018-06-17T15:10:54Z</time>
      </trkpt>
      <trkpt lat="44.94707" lon="5.4342">
        <ele>757.18</ele>
        <time>2018-06-17T15:10:55Z</time>
      </trkpt>
      <trkpt lat="44.94738" lon="5.43422">
        <ele>757.09</ele>
        <time>2018-06-17T15:10:56Z</time>
      </trkpt>
      <trkpt lat="44.94771" lon="5.43422">
        <ele>756.36</ele>
        <time>2018-06-17T15:10:57Z</time>
      </trkpt>
      <trkpt lat="44.94803" lon="5.43424">
        <ele>756.14</ele>
        <time>2018-06-17T15:10:58Z</time>
      </trkpt>
      <trkpt lat="44.94835" lon="5.43426">
        <ele>755.38</ele>
        <time>2018-06-17T15:10:59Z</time>
      </trkpt>
      <trkpt lat="44.94866" lon="5.43427">
        <ele>755.15</ele>
        <time>2018-06-17T15:11:00Z</time>
      </trkpt>
      <trkpt lat="44.94898" lon="5.43429">
        <ele>754.38</ele>
        <time>2018-06-17T15:11:01Z</time>
      </trkpt>
      <trkpt lat="44.94929" lon="5.43432">
        <ele>754.85</ele>
        <time>2018-06-17T15:11:02Z</time>
      </trkpt>
      <trkpt lat="44.9496" lon="5.43437">
        <ele>755.69</ele>
        <time>2018-06-17T15:11:03Z</time>
      </trkpt>
      <trkpt lat="44.9499" lon="5.43446">
        <ele>756.64</ele>
        <time>2018-06-17T15:11:04Z</time>
      </trkpt>
      <trkpt lat="44.95019" lon="5.43454">
        <ele>756.93</ele>
        <time>2018-06-17T15:11:05Z</time>
      </trkpt>
      <trkpt lat="44.95048" lon="5.43461">
        <ele>757.01</ele>
        <time>2018-06-17T15:11:06Z</time>
      </trkpt>
      <trkpt lat="44.95077" lon="5.43467">
        <ele>757.74</ele>
        <time>2018-06-17T15:11:07Z</time>
      </trkpt>
      <trkpt lat="44.95104" lon="5.43472">
        <ele>757.96</ele>
        <time>2018-06-17T15:11:08Z</time>
      </trkpt>
      <trkpt lat="44.95131" lon="5.43476">
        <ele>758.72</ele>
        <time>2018-06-17T15:11:09Z</time>
      </trkpt>
      <trkpt lat="44.95154" lon="5.43486">
        <ele>758.25</ele>
        <time>2018-06-17T15:11:10Z</time>
      </trkpt>
      <trkpt lat="44.95178" lon="5.43498">
        <ele>758.11</ele>
        <time>2018-06-17T15:11:11Z</time>
      </trkpt>
      <trkpt lat="44.95201" lon="5.43519">
        <ele>758.77</ele>
        <time>2018-06-17T15:11:12Z</time>
      </trkpt>
      <trkpt lat="44.95223" lon="5.43537">
        <ele>757.56</ele>
        <time>2018-06-17T15:11:13Z</time>
      </trkpt>
      <trkpt lat="44.95244" lon="5.43552">
        <ele>757.2</ele>
        <time>2018-06-17T15:11:14Z</time>
      </trkpt>
      <trkpt lat="44.95268" lon="5.43559">
        <ele>757.1</ele>
        <time>2018-06-17T15:11:15Z</time>
      </trkpt>
      <trkpt lat="44.95295" lon="5.43566">
        <ele>757.06</ele>
        <time>2018-06-17T15:11:16Z</time>
      </trkpt>
      <trkpt lat="44.95323" lon="5.43572">
        <ele>757.05</ele>
        <time>2018-06-17T15:11:17Z</time>
      </trkpt>
      <trkpt lat="44.95353" lon="5.43574">
        <ele>755.65</ele>
        <time>2018-06-17T15:11:18Z</time>
      </trkpt>
      <trkpt lat="44.95383" lon="5.43577">
        <ele>754.53</ele>
        <time>2018-06-17T15:11:19Z</time>
      </trkpt>
      <trkpt lat="44.95413" lon="5.4358">
        <ele>753.49</ele>
        <time>2018-06-17T15:11:20Z</time>
      </trkpt>
      <trkpt lat="44.95443" lon="5.43584">
        <ele>753.18</ele>
        <time>2018-06-17T15:11:21Z</time>
      </trkpt>
      <trkpt lat="44.95472" lon="5.43588">
        <ele>753.09</ele>
        <time>2018-06-17T15:11:22Z</time>
      </trkpt>
      <trkpt lat="44.955" lon="5.43591">
        <ele>753.06</ele>
        <time>2018-06-17T15:11:23Z</time>
      </trkpt>
      <trkpt lat="44.95527" lon="5.43593">
        <ele>753.05</ele>
        <time>2018-06-17T15:11:24Z</time>
      </trkpt>
      <trkpt lat="44.95554" lon="5.43596">
        <ele>752.35</ele>
        <time>2018-06-17T15:11:25Z</time>
      </trkpt>
      <trkpt lat="44.9558" lon="5.43597">
        <ele>751.44</ele>
        <time>2018-06-17T15:11:26Z</time>
      </trkpt>
      <trkpt lat="44.95609" lon="5.43603">
        <ele>749.07</ele>
        <time>2018-06-17T15:11:27Z</time>
      </trkpt>
      <trkpt lat="44.95638" lon="5.43614">
        <ele>748.35</ele>
        <time>2018-06-17T15:11:28Z</time>
      </trkpt>
      <trkpt lat="44.95665" lon="5.43628">
        <ele>747.44</ele>
        <time>2018-06-17T15:11:29Z</time>
      </trkpt>
      <trkpt lat="44.95693" lon="5.43642">
        <ele>746.47</ele>
        <time>2018-06-17T15:11:30Z</time>
      </trkpt>
      <trkpt lat="44.95721" lon="5.43655">
        <ele>746.17</ele>
        <time>2018-06-17T15:11:31Z</time>
      </trkpt>
      <trkpt lat="44.95751" lon="5.43665">
        <ele>746.09</ele>
        <time>2018-06-17T15:11:32Z</time>
      </trkpt>
      <trkpt lat="44.95782" lon="5.43673">
        <ele>746.06</ele>
        <time>2018-06-17T15:11:33Z</time>
      </trkpt>
      <trkpt lat="44.95812" lon="5.43681">
        <ele>745.35</ele>
        <time>2018-06-17T15:11:34Z</time>
      </trkpt>
      <trkpt lat="44.95843" lon="5.43688">
        <ele>745.14</ele>
        <time>2018-06-17T15:11:35Z</time>
      </trkpt>
      <trkpt lat="44.95874" lon="5.43695">
        <ele>744.38</ele>
        <time>2018-06-17T15:11:36Z</time>
      </trkpt>
      <trkpt lat="44.95904" lon="5.43703">
        <ele>744.85</ele>
        <time>2018-06-17T15:11:37Z</time>
      </trkpt>
      <trkpt lat="44.95932" lon="5.4371">
        <ele>744.29</ele>
        <time>2018-06-17T15:11:38Z</time>
      </trkpt>
      <trkpt lat="44.95959" lon="5.43714">
        <ele>743.42</ele>
        <time>2018-06-17T15:11:39Z</time>
      </trkpt>
      <trkpt lat="44.95984" lon="5.4372">
        <ele>743.86</ele>
        <time>2018-06-17T15:11:40Z</time>
      </trkpt>
      <trkpt lat="44.9601" lon="5.43721">
        <ele>742.59</ele>
        <time>2018-06-17T15:11:41Z</time>
      </trkpt>
      <trkpt lat="44.96037" lon="5.43718">
        <ele>742.21</ele>
        <time>2018-06-17T15:11:42Z</time>
      </trkpt>
      <trkpt lat="44.96066" lon="5.43713">
        <ele>741.4</ele>
        <time>2018-06-17T15:11:43Z</time>
      </trkpt>
      <trkpt lat="44.96094" lon="5.43706">
        <ele>741.15</ele>
        <time>2018-06-17T15:11:44Z</time>
      </trkpt>
      <trkpt lat="44.96121" lon="5.43701">
        <ele>741.78</ele>
        <time>2018-06-17T15:11:45Z</time>
      </trkpt>
      <trkpt lat="44.96144" lon="5.43696">
        <ele>742.67</ele>
        <time>2018-06-17T15:11:46Z</time>
      </trkpt>
      <trkpt lat="44.96166" lon="5.43692">
        <ele>742.23</ele>
        <time>2018-06-17T15:11:47Z</time>
      </trkpt>
      <trkpt lat="44.96186" lon="5.43688">
        <ele>742.1</ele>
        <time>2018-06-17T15:11:48Z</time>
      </trkpt>
      <trkpt lat="44.96205" lon="5.43685">
        <ele>742.77</ele>
        <time>2018-06-17T15:11:49Z</time>
      </trkpt>
      <trkpt lat="44.9623" lon="5.43708">
        <ele>743.02</ele>
        <time>2018-06-17T15:11:51Z</time>
      </trkpt>
      <trkpt lat="44.96231" lon="5.43738">
        <ele>743.04</ele>
        <time>2018-06-17T15:11:52Z</time>
      </trkpt>
      <trkpt lat="44.96251" lon="5.43762">
        <ele>743.05</ele>
        <time>2018-06-17T15:11:54Z</time>
      </trkpt>
      <trkpt lat="44.96285" lon="5.43769">
        <ele>743.75</ele>
        <time>2018-06-17T15:11:56Z</time>
      </trkpt>
      <trkpt lat="44.96317" lon="5.43769">
        <ele>744.02</ele>
        <time>2018-06-17T15:11:58Z</time>
      </trkpt>
      <trkpt lat="44.9635" lon="5.43753">
        <ele>744.05</ele>
        <time>2018-06-17T15:12:00Z</time>
      </trkpt>
      <trkpt lat="44.96368" lon="5.43737">
        <ele>744.75</ele>
        <time>2018-06-17T15:12:01Z</time>
      </trkpt>
      <trkpt lat="44.96386" lon="5.43721">
        <ele>745.66</ele>
        <time>2018-06-17T15:12:02Z</time>
      </trkpt>
      <trkpt lat="44.96406" lon="5.43699">
        <ele>745.93</ele>
        <time>2018-06-17T15:12:03Z</time>
      </trkpt>
      <trkpt lat="44.96427" lon="5.43677">
        <ele>746.71</ele>
        <time>2018-06-17T15:12:04Z</time>
      </trkpt>
      <trkpt lat="44.96447" lon="5.43656">
        <ele>746.95</ele>
        <time>2018-06-17T15:12:05Z</time>
      </trkpt>
      <trkpt lat="44.96466" lon="5.43634">
        <ele>746.32</ele>
        <time>2018-06-17T15:12:06Z</time>
      </trkpt>
      <trkpt lat="44.96485" lon="5.43617">
        <ele>746.13</ele>
        <time>2018-06-17T15:12:07Z</time>
      </trkpt>
      <trkpt lat="44.96506" lon="5.43605">
        <ele>745.37</ele>
        <time>2018-06-17T15:12:08Z</time>
      </trkpt>
      <trkpt lat="44.96527" lon="5.43594">
        <ele>745.15</ele>
        <time>2018-06-17T15:12:09Z</time>
      </trkpt>
      <trkpt lat="44.96552" lon="5.43591">
        <ele>745.78</ele>
        <time>2018-06-17T15:12:10Z</time>
      </trkpt>
      <trkpt lat="44.96575" lon="5.43586">
        <ele>745.97</ele>
        <time>2018-06-17T15:12:11Z</time>
      </trkpt>
      <trkpt lat="44.96599" lon="5.43581">
        <ele>746.72</ele>
        <time>2018-06-17T15:12:12Z</time>
      </trkpt>
      <trkpt lat="44.96625" lon="5.4358">
        <ele>745.55</ele>
        <time>2018-06-17T15:12:13Z</time>
      </trkpt>
      <trkpt lat="44.96654" lon="5.43586">
        <ele>745.9</ele>
        <time>2018-06-17T15:12:14Z</time>
      </trkpt>
      <trkpt lat="44.96683" lon="5.43594">
        <ele>744.6</ele>
        <time>2018-06-17T15:12:15Z</time>
      </trkpt>
      <trkpt lat="44.9671" lon="5.43601">
        <ele>744.22</ele>
        <time>2018-06-17T15:12:16Z</time>
      </trkpt>
      <trkpt lat="44.96737" lon="5.43608">
        <ele>744.1</ele>
        <time>2018-06-17T15:12:17Z</time>
      </trkpt>
      <trkpt lat="44.96765" lon="5.43614">
        <ele>744.06</ele>
        <time>2018-06-17T15:12:18Z</time>
      </trkpt>
      <trkpt lat="44.96792" lon="5.43616">
        <ele>745.45</ele>
        <time>2018-06-17T15:12:19Z</time>
      </trkpt>
      <trkpt lat="44.96818" lon="5.43618">
        <ele>743.07</ele>
        <time>2018-06-17T15:12:20Z</time>
      </trkpt>
      <trkpt lat="44.96844" lon="5.43622">
        <ele>743.06</ele>
        <time>2018-06-17T15:12:21Z</time>
      </trkpt>
      <trkpt lat="44.96868" lon="5.43628">
        <ele>741.65</ele>
        <time>2018-06-17T15:12:22Z</time>
      </trkpt>
      <trkpt lat="44.96893" lon="5.43633">
        <ele>741.93</ele>
        <time>2018-06-17T15:12:23Z</time>
      </trkpt>
      <trkpt lat="44.96919" lon="5.43636">
        <ele>742.71</ele>
        <time>2018-06-17T15:12:24Z</time>
      </trkpt>
      <trkpt lat="44.96945" lon="5.43635">
        <ele>742.25</ele>
        <time>2018-06-17T15:12:25Z</time>
      </trkpt>
      <trkpt lat="44.96973" lon="5.4363">
        <ele>742.11</ele>
        <time>2018-06-17T15:12:26Z</time>
      </trkpt>
      <trkpt lat="44.97001" lon="5.43622">
        <ele>742.07</ele>
        <time>2018-06-17T15:12:27Z</time>
      </trkpt>
      <trkpt lat="44.97028" lon="5.43611">
        <ele>742.05</ele>
        <time>2018-06-17T15:12:28Z</time>
      </trkpt>
      <trkpt lat="44.97055" lon="5.43605">
        <ele>742.05</ele>
        <time>2018-06-17T15:12:29Z</time>
      </trkpt>
      <trkpt lat="44.97081" lon="5.436">
        <ele>742.05</ele>
        <time>2018-06-17T15:12:30Z</time>
      </trkpt>
      <trkpt lat="44.97106" lon="5.436">
        <ele>742.75</ele>
        <time>2018-06-17T15:12:31Z</time>
      </trkpt>
      <trkpt lat="44.97131" lon="5.43599">
        <ele>742.26</ele>
        <time>2018-06-17T15:12:32Z</time>
      </trkpt>
      <trkpt lat="44.97151" lon="5.43599">
        <ele>742.11</ele>
        <time>2018-06-17T15:12:33Z</time>
      </trkpt>
      <trkpt lat="44.97185" lon="5.43594">
        <ele>742.26</ele>
        <time>2018-06-17T15:12:35Z</time>
      </trkpt>
      <trkpt lat="44.97216" lon="5.43589">
        <ele>741.37</ele>
        <time>2018-06-17T15:12:37Z</time>
      </trkpt>
      <trkpt lat="44.97252" lon="5.43588">
        <ele>741.78</ele>
        <time>2018-06-17T15:12:39Z</time>
      </trkpt>
      <trkpt lat="44.97271" lon="5.43588">
        <ele>741.97</ele>
        <time>2018-06-17T15:12:40Z</time>
      </trkpt>
      <trkpt lat="44.97294" lon="5.43589">
        <ele>743.42</ele>
        <time>2018-06-17T15:12:41Z</time>
      </trkpt>
      <trkpt lat="44.97317" lon="5.43593">
        <ele>743.86</ele>
        <time>2018-06-17T15:12:42Z</time>
      </trkpt>
      <trkpt lat="44.97345" lon="5.436">
        <ele>741.89</ele>
        <time>2018-06-17T15:12:43Z</time>
      </trkpt>
      <trkpt lat="44.97371" lon="5.43605">
        <ele>741.3</ele>
        <time>2018-06-17T15:12:44Z</time>
      </trkpt>
      <trkpt lat="44.97396" lon="5.43608">
        <ele>741.12</ele>
        <time>2018-06-17T15:12:45Z</time>
      </trkpt>
      <trkpt lat="44.9742" lon="5.43617">
        <ele>741.77</ele>
        <time>2018-06-17T15:12:46Z</time>
      </trkpt>
      <trkpt lat="44.97443" lon="5.43626">
        <ele>740.57</ele>
        <time>2018-06-17T15:12:47Z</time>
      </trkpt>
      <trkpt lat="44.97465" lon="5.43635">
        <ele>740.2</ele>
        <time>2018-06-17T15:12:48Z</time>
      </trkpt>
      <trkpt lat="44.97489" lon="5.43641">
        <ele>740.8</ele>
        <time>2018-06-17T15:12:49Z</time>
      </trkpt>
      <trkpt lat="44.97512" lon="5.43645">
        <ele>740.97</ele>
        <time>2018-06-17T15:12:50Z</time>
      </trkpt>
      <trkpt lat="44.97532" lon="5.43644">
        <ele>740.33</ele>
        <time>2018-06-17T15:12:51Z</time>
      </trkpt>
      <trkpt lat="44.97551" lon="5.43639">
        <ele>739.43</ele>
        <time>2018-06-17T15:12:52Z</time>
      </trkpt>
      <trkpt lat="44.9757" lon="5.43633">
        <ele>737.76</ele>
        <time>2018-06-17T15:12:53Z</time>
      </trkpt>
      <trkpt lat="44.97605" lon="5.43631">
        <ele>736.9</ele>
        <time>2018-06-17T15:12:55Z</time>
      </trkpt>
      <trkpt lat="44.97637" lon="5.43649">
        <ele>736.13</ele>
        <time>2018-06-17T15:12:57Z</time>
      </trkpt>
      <trkpt lat="44.97658" lon="5.43653">
        <ele>736.07</ele>
        <time>2018-06-17T15:12:58Z</time>
      </trkpt>
      <trkpt lat="44.97679" lon="5.43655">
        <ele>735.36</ele>
        <time>2018-06-17T15:12:59Z</time>
      </trkpt>
      <trkpt lat="44.97703" lon="5.4366">
        <ele>735.14</ele>
        <time>2018-06-17T15:13:00Z</time>
      </trkpt>
      <trkpt lat="44.97733" lon="5.43672">
        <ele>735.08</ele>
        <time>2018-06-17T15:13:01Z</time>
      </trkpt>
      <trkpt lat="44.97761" lon="5.43674">
        <ele>734.36</ele>
        <time>2018-06-17T15:13:02Z</time>
      </trkpt>
      <trkpt lat="44.97787" lon="5.43683">
        <ele>733.44</ele>
        <time>2018-06-17T15:13:03Z</time>
      </trkpt>
      <trkpt lat="44.97814" lon="5.43689">
        <ele>732.47</ele>
        <time>2018-06-17T15:13:04Z</time>
      </trkpt>
      <trkpt lat="44.9784" lon="5.43694">
        <ele>732.87</ele>
        <time>2018-06-17T15:13:05Z</time>
      </trkpt>
      <trkpt lat="44.97866" lon="5.43698">
        <ele>733</ele>
        <time>2018-06-17T15:13:06Z</time>
      </trkpt>
      <trkpt lat="44.97891" lon="5.43706">
        <ele>732.33</ele>
        <time>2018-06-17T15:13:07Z</time>
      </trkpt>
      <trkpt lat="44.97916" lon="5.4371">
        <ele>732.13</ele>
        <time>2018-06-17T15:13:08Z</time>
      </trkpt>
      <trkpt lat="44.9794" lon="5.43716">
        <ele>732.77</ele>
        <time>2018-06-17T15:13:09Z</time>
      </trkpt>
      <trkpt lat="44.97962" lon="5.43723">
        <ele>732.27</ele>
        <time>2018-06-17T15:13:10Z</time>
      </trkpt>
      <trkpt lat="44.97985" lon="5.43732">
        <ele>732.11</ele>
        <time>2018-06-17T15:13:11Z</time>
      </trkpt>
      <trkpt lat="44.98004" lon="5.43747">
        <ele>731.37</ele>
        <time>2018-06-17T15:13:12Z</time>
      </trkpt>
      <trkpt lat="44.98025" lon="5.43763">
        <ele>731.84</ele>
        <time>2018-06-17T15:13:13Z</time>
      </trkpt>
      <trkpt lat="44.98045" lon="5.43768">
        <ele>731.99</ele>
        <time>2018-06-17T15:13:14Z</time>
      </trkpt>
      <trkpt lat="44.98071" lon="5.43777">
        <ele>732.03</ele>
        <time>2018-06-17T15:13:15Z</time>
      </trkpt>
      <trkpt lat="44.98095" lon="5.43784">
        <ele>731.34</ele>
        <time>2018-06-17T15:13:16Z</time>
      </trkpt>
      <trkpt lat="44.98117" lon="5.43794">
        <ele>731.14</ele>
        <time>2018-06-17T15:13:17Z</time>
      </trkpt>
      <trkpt lat="44.98141" lon="5.43798">
        <ele>729.68</ele>
        <time>2018-06-17T15:13:18Z</time>
      </trkpt>
      <trkpt lat="44.98165" lon="5.43805">
        <ele>728.54</ele>
        <time>2018-06-17T15:13:19Z</time>
      </trkpt>
      <trkpt lat="44.98191" lon="5.43814">
        <ele>727.5</ele>
        <time>2018-06-17T15:13:20Z</time>
      </trkpt>
      <trkpt lat="44.98215" lon="5.43824">
        <ele>727.18</ele>
        <time>2018-06-17T15:13:21Z</time>
      </trkpt>
      <trkpt lat="44.9824" lon="5.43838">
        <ele>726.39</ele>
        <time>2018-06-17T15:13:22Z</time>
      </trkpt>
      <trkpt lat="44.98264" lon="5.43847">
        <ele>723.35</ele>
        <time>2018-06-17T15:13:23Z</time>
      </trkpt>
      <trkpt lat="44.9829" lon="5.43853">
        <ele>720.34</ele>
        <time>2018-06-17T15:13:24Z</time>
      </trkpt>
      <trkpt lat="44.98315" lon="5.43862">
        <ele>718.74</ele>
        <time>2018-06-17T15:13:25Z</time>
      </trkpt>
      <trkpt lat="44.98342" lon="5.43859">
        <ele>716.86</ele>
        <time>2018-06-17T15:13:26Z</time>
      </trkpt>
      <trkpt lat="44.98369" lon="5.43859">
        <ele>714.89</ele>
        <time>2018-06-17T15:13:27Z</time>
      </trkpt>
      <trkpt lat="44.98397" lon="5.43863">
        <ele>714.3</ele>
        <time>2018-06-17T15:13:28Z</time>
      </trkpt>
      <trkpt lat="44.98424" lon="5.43871">
        <ele>714.12</ele>
        <time>2018-06-17T15:13:29Z</time>
      </trkpt>
      <trkpt lat="44.98451" lon="5.43883">
        <ele>713.37</ele>
        <time>2018-06-17T15:13:30Z</time>
      </trkpt>
      <trkpt lat="44.98477" lon="5.43896">
        <ele>713.15</ele>
        <time>2018-06-17T15:13:31Z</time>
      </trkpt>
      <trkpt lat="44.98501" lon="5.43908">
        <ele>712.38</ele>
        <time>2018-06-17T15:13:32Z</time>
      </trkpt>
      <trkpt lat="44.98524" lon="5.43918">
        <ele>712.85</ele>
        <time>2018-06-17T15:13:33Z</time>
      </trkpt>
      <trkpt lat="44.98548" lon="5.43927">
        <ele>712.99</ele>
        <time>2018-06-17T15:13:34Z</time>
      </trkpt>
      <trkpt lat="44.98575" lon="5.43935">
        <ele>713.03</ele>
        <time>2018-06-17T15:13:35Z</time>
      </trkpt>
      <trkpt lat="44.98605" lon="5.4393">
        <ele>713.04</ele>
        <time>2018-06-17T15:13:36Z</time>
      </trkpt>
      <trkpt lat="44.98634" lon="5.43933">
        <ele>712.35</ele>
        <time>2018-06-17T15:13:37Z</time>
      </trkpt>
      <trkpt lat="44.98663" lon="5.43937">
        <ele>711.44</ele>
        <time>2018-06-17T15:13:38Z</time>
      </trkpt>
      <trkpt lat="44.98692" lon="5.43942">
        <ele>710.47</ele>
        <time>2018-06-17T15:13:39Z</time>
      </trkpt>
      <trkpt lat="44.98723" lon="5.43944">
        <ele>710.17</ele>
        <time>2018-06-17T15:13:40Z</time>
      </trkpt>
      <trkpt lat="44.98752" lon="5.43947">
        <ele>709.39</ele>
        <time>2018-06-17T15:13:41Z</time>
      </trkpt>
      <trkpt lat="44.98779" lon="5.43953">
        <ele>708.45</ele>
        <time>2018-06-17T15:13:42Z</time>
      </trkpt>
      <trkpt lat="44.98806" lon="5.43958">
        <ele>708.17</ele>
        <time>2018-06-17T15:13:43Z</time>
      </trkpt>
      <trkpt lat="44.98834" lon="5.43962">
        <ele>706.69</ele>
        <time>2018-06-17T15:13:44Z</time>
      </trkpt>
      <trkpt lat="44.98859" lon="5.43969">
        <ele>706.24</ele>
        <time>2018-06-17T15:13:45Z</time>
      </trkpt>
      <trkpt lat="44.98882" lon="5.43975">
        <ele>706.11</ele>
        <time>2018-06-17T15:13:46Z</time>
      </trkpt>
      <trkpt lat="44.98904" lon="5.43982">
        <ele>706.07</ele>
        <time>2018-06-17T15:13:47Z</time>
      </trkpt>
      <trkpt lat="44.98929" lon="5.43981">
        <ele>706.05</ele>
        <time>2018-06-17T15:13:48Z</time>
      </trkpt>
      <trkpt lat="44.98957" lon="5.43979">
        <ele>705.35</ele>
        <time>2018-06-17T15:13:49Z</time>
      </trkpt>
      <trkpt lat="44.98984" lon="5.43979">
        <ele>703.74</ele>
        <time>2018-06-17T15:13:50Z</time>
      </trkpt>
      <trkpt lat="44.99011" lon="5.43979">
        <ele>703.26</ele>
        <time>2018-06-17T15:13:51Z</time>
      </trkpt>
      <trkpt lat="44.9904" lon="5.4398">
        <ele>703.11</ele>
        <time>2018-06-17T15:13:52Z</time>
      </trkpt>
      <trkpt lat="44.99068" lon="5.43982">
        <ele>703.07</ele>
        <time>2018-06-17T15:13:53Z</time>
      </trkpt>
      <trkpt lat="44.99096" lon="5.43985">
        <ele>703.05</ele>
        <time>2018-06-17T15:13:54Z</time>
      </trkpt>
      <trkpt lat="44.99123" lon="5.43988">
        <ele>703.05</ele>
        <time>2018-06-17T15:13:55Z</time>
      </trkpt>
      <trkpt lat="44.9915" lon="5.43992">
        <ele>703.05</ele>
        <time>2018-06-17T15:13:56Z</time>
      </trkpt>
      <trkpt lat="44.99178" lon="5.43997">
        <ele>703.05</ele>
        <time>2018-06-17T15:13:57Z</time>
      </trkpt>
      <trkpt lat="44.99207" lon="5.44">
        <ele>703.05</ele>
        <time>2018-06-17T15:13:58Z</time>
      </trkpt>
      <trkpt lat="44.99235" lon="5.44002">
        <ele>702.35</ele>
        <time>2018-06-17T15:13:59Z</time>
      </trkpt>
      <trkpt lat="44.99263" lon="5.44004">
        <ele>702.14</ele>
        <time>2018-06-17T15:14:00Z</time>
      </trkpt>
      <trkpt lat="44.9929" lon="5.4401">
        <ele>702.08</ele>
        <time>2018-06-17T15:14:01Z</time>
      </trkpt>
      <trkpt lat="44.99316" lon="5.44014">
        <ele>702.76</ele>
        <time>2018-06-17T15:14:02Z</time>
      </trkpt>
      <trkpt lat="44.99342" lon="5.44016">
        <ele>702.96</ele>
        <time>2018-06-17T15:14:03Z</time>
      </trkpt>
      <trkpt lat="44.99368" lon="5.44018">
        <ele>703.02</ele>
        <time>2018-06-17T15:14:04Z</time>
      </trkpt>
      <trkpt lat="44.99392" lon="5.44023">
        <ele>703.04</ele>
        <time>2018-06-17T15:14:05Z</time>
      </trkpt>
      <trkpt lat="44.99415" lon="5.44034">
        <ele>703.05</ele>
        <time>2018-06-17T15:14:06Z</time>
      </trkpt>
      <trkpt lat="44.99439" lon="5.44043">
        <ele>703.05</ele>
        <time>2018-06-17T15:14:07Z</time>
      </trkpt>
      <trkpt lat="44.99458" lon="5.44051">
        <ele>701.65</ele>
        <time>2018-06-17T15:14:08Z</time>
      </trkpt>
      <trkpt lat="44.99478" lon="5.44055">
        <ele>699.83</ele>
        <time>2018-06-17T15:14:09Z</time>
      </trkpt>
      <trkpt lat="44.99502" lon="5.44057">
        <ele>699.28</ele>
        <time>2018-06-17T15:14:10Z</time>
      </trkpt>
      <trkpt lat="44.99527" lon="5.44058">
        <ele>699.12</ele>
        <time>2018-06-17T15:14:11Z</time>
      </trkpt>
      <trkpt lat="44.99553" lon="5.44059">
        <ele>699.07</ele>
        <time>2018-06-17T15:14:12Z</time>
      </trkpt>
      <trkpt lat="44.9958" lon="5.44061">
        <ele>698.36</ele>
        <time>2018-06-17T15:14:13Z</time>
      </trkpt>
      <trkpt lat="44.99608" lon="5.44062">
        <ele>698.84</ele>
        <time>2018-06-17T15:14:14Z</time>
      </trkpt>
      <trkpt lat="44.99635" lon="5.44063">
        <ele>698.29</ele>
        <time>2018-06-17T15:14:15Z</time>
      </trkpt>
      <trkpt lat="44.99661" lon="5.44065">
        <ele>697.42</ele>
        <time>2018-06-17T15:14:16Z</time>
      </trkpt>
      <trkpt lat="44.99687" lon="5.44067">
        <ele>697.86</ele>
        <time>2018-06-17T15:14:17Z</time>
      </trkpt>
      <trkpt lat="44.99711" lon="5.44068">
        <ele>697.99</ele>
        <time>2018-06-17T15:14:18Z</time>
      </trkpt>
      <trkpt lat="44.99736" lon="5.44068">
        <ele>698.03</ele>
        <time>2018-06-17T15:14:19Z</time>
      </trkpt>
      <trkpt lat="44.9976" lon="5.44067">
        <ele>696.64</ele>
        <time>2018-06-17T15:14:20Z</time>
      </trkpt>
      <trkpt lat="44.99785" lon="5.44064">
        <ele>696.93</ele>
        <time>2018-06-17T15:14:21Z</time>
      </trkpt>
      <trkpt lat="44.99809" lon="5.44061">
        <ele>697.01</ele>
        <time>2018-06-17T15:14:22Z</time>
      </trkpt>
      <trkpt lat="44.99831" lon="5.44061">
        <ele>696.34</ele>
        <time>2018-06-17T15:14:23Z</time>
      </trkpt>
      <trkpt lat="44.99854" lon="5.44059">
        <ele>696.14</ele>
        <time>2018-06-17T15:14:24Z</time>
      </trkpt>
      <trkpt lat="44.99877" lon="5.44053">
        <ele>695.38</ele>
        <time>2018-06-17T15:14:25Z</time>
      </trkpt>
      <trkpt lat="44.99899" lon="5.44047">
        <ele>695.15</ele>
        <time>2018-06-17T15:14:26Z</time>
      </trkpt>
      <trkpt lat="44.9992" lon="5.44037">
        <ele>693.68</ele>
        <time>2018-06-17T15:14:27Z</time>
      </trkpt>
      <trkpt lat="44.99938" lon="5.44026">
        <ele>693.24</ele>
        <time>2018-06-17T15:14:28Z</time>
      </trkpt>
      <trkpt lat="44.99953" lon="5.4401">
        <ele>693.11</ele>
        <time>2018-06-17T15:14:29Z</time>
      </trkpt>
      <trkpt lat="44.9997" lon="5.43991">
        <ele>692.37</ele>
        <time>2018-06-17T15:14:30Z</time>
      </trkpt>
      <trkpt lat="44.99988" lon="5.43971">
        <ele>690.74</ele>
        <time>2018-06-17T15:14:31Z</time>
      </trkpt>
      <trkpt lat="45.00007" lon="5.43942">
        <ele>689.56</ele>
        <time>2018-06-17T15:14:32Z</time>
      </trkpt>
      <trkpt lat="45.00022" lon="5.43907">
        <ele>688.5</ele>
        <time>2018-06-17T15:14:33Z</time>
      </trkpt>
      <trkpt lat="45.00038" lon="5.43879">
        <ele>688.88</ele>
        <time>2018-06-17T15:14:34Z</time>
      </trkpt>
      <trkpt lat="45.00051" lon="5.43855">
        <ele>686.9</ele>
        <time>2018-06-17T15:14:35Z</time>
      </trkpt>
      <trkpt lat="45.00062" lon="5.4383">
        <ele>684.9</ele>
        <time>2018-06-17T15:14:36Z</time>
      </trkpt>
      <trkpt lat="45.00067" lon="5.43803">
        <ele>684.31</ele>
        <time>2018-06-17T15:14:37Z</time>
      </trkpt>
      <trkpt lat="45.00076" lon="5.43757">
        <ele>684.07</ele>
        <time>2018-06-17T15:14:39Z</time>
      </trkpt>
      <trkpt lat="45.00092" lon="5.43721">
        <ele>683.14</ele>
        <time>2018-06-17T15:14:41Z</time>
      </trkpt>
      <trkpt lat="45.00105" lon="5.43703">
        <ele>682.38</ele>
        <time>2018-06-17T15:14:42Z</time>
      </trkpt>
      <trkpt lat="45.00123" lon="5.43692">
        <ele>682.15</ele>
        <time>2018-06-17T15:14:43Z</time>
      </trkpt>
      <trkpt lat="45.00147" lon="5.43659">
        <ele>681.85</ele>
        <time>2018-06-17T15:14:45Z</time>
      </trkpt>
      <trkpt lat="45.00169" lon="5.43634">
        <ele>681.12</ele>
        <time>2018-06-17T15:14:47Z</time>
      </trkpt>
      <trkpt lat="45.00193" lon="5.43633">
        <ele>677.63</ele>
        <time>2018-06-17T15:14:49Z</time>
      </trkpt>
      <trkpt lat="45.00222" lon="5.43646">
        <ele>678.01</ele>
        <time>2018-06-17T15:14:51Z</time>
      </trkpt>
      <trkpt lat="45.00256" lon="5.43659">
        <ele>678.96</ele>
        <time>2018-06-17T15:14:53Z</time>
      </trkpt>
      <trkpt lat="45.00287" lon="5.43675">
        <ele>679.95</ele>
        <time>2018-06-17T15:14:55Z</time>
      </trkpt>
      <trkpt lat="45.00313" lon="5.43695">
        <ele>680.04</ele>
        <time>2018-06-17T15:14:57Z</time>
      </trkpt>
      <trkpt lat="45.00328" lon="5.43728">
        <ele>680.96</ele>
        <time>2018-06-17T15:14:59Z</time>
      </trkpt>
      <trkpt lat="45.00329" lon="5.43771">
        <ele>681.04</ele>
        <time>2018-06-17T15:15:01Z</time>
      </trkpt>
      <trkpt lat="45.00325" lon="5.43797">
        <ele>681.75</ele>
        <time>2018-06-17T15:15:02Z</time>
      </trkpt>
      <trkpt lat="45.00322" lon="5.43823">
        <ele>681.96</ele>
        <time>2018-06-17T15:15:03Z</time>
      </trkpt>
      <trkpt lat="45.00318" lon="5.4387">
        <ele>683.65</ele>
        <time>2018-06-17T15:15:05Z</time>
      </trkpt>
      <trkpt lat="45.00312" lon="5.43925">
        <ele>683.1</ele>
        <time>2018-06-17T15:15:07Z</time>
      </trkpt>
      <trkpt lat="45.00308" lon="5.43953">
        <ele>683.07</ele>
        <time>2018-06-17T15:15:08Z</time>
      </trkpt>
      <trkpt lat="45.00305" lon="5.43979">
        <ele>683.75</ele>
        <time>2018-06-17T15:15:09Z</time>
      </trkpt>
      <trkpt lat="45.00303" lon="5.44024">
        <ele>684.02</ele>
        <time>2018-06-17T15:15:11Z</time>
      </trkpt>
      <trkpt lat="45.00314" lon="5.44051">
        <ele>684.96</ele>
        <time>2018-06-17T15:15:13Z</time>
      </trkpt>
      <trkpt lat="45.00335" lon="5.44079">
        <ele>685.95</ele>
        <time>2018-06-17T15:15:15Z</time>
      </trkpt>
      <trkpt lat="45.00355" lon="5.44108">
        <ele>686.04</ele>
        <time>2018-06-17T15:15:17Z</time>
      </trkpt>
      <trkpt lat="45.00377" lon="5.44133">
        <ele>685.14</ele>
        <time>2018-06-17T15:15:19Z</time>
      </trkpt>
      <trkpt lat="45.00404" lon="5.44137">
        <ele>685.34</ele>
        <time>2018-06-17T15:15:21Z</time>
      </trkpt>
      <trkpt lat="45.00432" lon="5.44143">
        <ele>686.68</ele>
        <time>2018-06-17T15:15:23Z</time>
      </trkpt>
      <trkpt lat="45.00461" lon="5.44138">
        <ele>688.63</ele>
        <time>2018-06-17T15:15:25Z</time>
      </trkpt>
      <trkpt lat="45.00488" lon="5.44118">
        <ele>688.31</ele>
        <time>2018-06-17T15:15:27Z</time>
      </trkpt>
      <trkpt lat="45.00518" lon="5.44113">
        <ele>688.98</ele>
        <time>2018-06-17T15:15:29Z</time>
      </trkpt>
      <trkpt lat="45.00536" lon="5.44114">
        <ele>689.73</ele>
        <time>2018-06-17T15:15:30Z</time>
      </trkpt>
      <trkpt lat="45.00557" lon="5.44114">
        <ele>690.65</ele>
        <time>2018-06-17T15:15:31Z</time>
      </trkpt>
      <trkpt lat="45.00578" lon="5.44113">
        <ele>691.63</ele>
        <time>2018-06-17T15:15:32Z</time>
      </trkpt>
      <trkpt lat="45.00601" lon="5.44109">
        <ele>691.92</ele>
        <time>2018-06-17T15:15:33Z</time>
      </trkpt>
      <trkpt lat="45.00625" lon="5.44104">
        <ele>692.71</ele>
        <time>2018-06-17T15:15:34Z</time>
      </trkpt>
      <trkpt lat="45.00646" lon="5.44099">
        <ele>692.95</ele>
        <time>2018-06-17T15:15:35Z</time>
      </trkpt>
      <trkpt lat="45.00666" lon="5.44093">
        <ele>693.72</ele>
        <time>2018-06-17T15:15:36Z</time>
      </trkpt>
      <trkpt lat="45.00684" lon="5.44089">
        <ele>694.65</ele>
        <time>2018-06-17T15:15:37Z</time>
      </trkpt>
      <trkpt lat="45.00712" lon="5.44087">
        <ele>693.4</ele>
        <time>2018-06-17T15:15:39Z</time>
      </trkpt>
      <trkpt lat="45.00733" lon="5.44101">
        <ele>693.08</ele>
        <time>2018-06-17T15:15:41Z</time>
      </trkpt>
      <trkpt lat="45.00744" lon="5.44133">
        <ele>691.93</ele>
        <time>2018-06-17T15:15:43Z</time>
      </trkpt>
      <trkpt lat="45.00744" lon="5.44177">
        <ele>691.83</ele>
        <time>2018-06-17T15:15:45Z</time>
      </trkpt>
      <trkpt lat="45.00749" lon="5.4422">
        <ele>694.34</ele>
        <time>2018-06-17T15:15:47Z</time>
      </trkpt>
      <trkpt lat="45.00758" lon="5.44254">
        <ele>695.69</ele>
        <time>2018-06-17T15:15:49Z</time>
      </trkpt>
      <trkpt lat="45.00775" lon="5.44274">
        <ele>696.93</ele>
        <time>2018-06-17T15:15:51Z</time>
      </trkpt>
      <trkpt lat="45.00807" lon="5.44273">
        <ele>697.53</ele>
        <time>2018-06-17T15:15:53Z</time>
      </trkpt>
      <trkpt lat="45.00829" lon="5.44256">
        <ele>697.89</ele>
        <time>2018-06-17T15:15:54Z</time>
      </trkpt>
      <trkpt lat="45.00847" lon="5.44231">
        <ele>698</ele>
        <time>2018-06-17T15:15:55Z</time>
      </trkpt>
      <trkpt lat="45.00863" lon="5.4422">
        <ele>698.03</ele>
        <time>2018-06-17T15:15:56Z</time>
      </trkpt>
      <trkpt lat="45.00892" lon="5.4421">
        <ele>698.96</ele>
        <time>2018-06-17T15:15:58Z</time>
      </trkpt>
      <trkpt lat="45.00919" lon="5.44219">
        <ele>699.25</ele>
        <time>2018-06-17T15:16:00Z</time>
      </trkpt>
      <trkpt lat="45.00938" lon="5.44241">
        <ele>700.51</ele>
        <time>2018-06-17T15:16:01Z</time>
      </trkpt>
      <trkpt lat="45.00974" lon="5.44262">
        <ele>702.4</ele>
        <time>2018-06-17T15:16:03Z</time>
      </trkpt>
      <trkpt lat="45.00993" lon="5.44271">
        <ele>702.85</ele>
        <time>2018-06-17T15:16:04Z</time>
      </trkpt>
      <trkpt lat="45.01016" lon="5.44276">
        <ele>702.99</ele>
        <time>2018-06-17T15:16:05Z</time>
      </trkpt>
      <trkpt lat="45.01041" lon="5.44268">
        <ele>703.73</ele>
        <time>2018-06-17T15:16:06Z</time>
      </trkpt>
      <trkpt lat="45.01066" lon="5.44265">
        <ele>704.65</ele>
        <time>2018-06-17T15:16:07Z</time>
      </trkpt>
      <trkpt lat="45.01091" lon="5.44265">
        <ele>704.93</ele>
        <time>2018-06-17T15:16:08Z</time>
      </trkpt>
      <trkpt lat="45.01116" lon="5.44265">
        <ele>705.71</ele>
        <time>2018-06-17T15:16:09Z</time>
      </trkpt>
      <trkpt lat="45.01141" lon="5.44267">
        <ele>707.35</ele>
        <time>2018-06-17T15:16:10Z</time>
      </trkpt>
      <trkpt lat="45.01166" lon="5.44268">
        <ele>708.54</ele>
        <time>2018-06-17T15:16:11Z</time>
      </trkpt>
      <trkpt lat="45.01191" lon="5.44272">
        <ele>709.6</ele>
        <time>2018-06-17T15:16:12Z</time>
      </trkpt>
      <trkpt lat="45.01216" lon="5.44276">
        <ele>710.61</ele>
        <time>2018-06-17T15:16:13Z</time>
      </trkpt>
      <trkpt lat="45.0124" lon="5.44278">
        <ele>711.62</ele>
        <time>2018-06-17T15:16:14Z</time>
      </trkpt>
      <trkpt lat="45.01264" lon="5.44277">
        <ele>712.62</ele>
        <time>2018-06-17T15:16:15Z</time>
      </trkpt>
      <trkpt lat="45.01288" lon="5.44274">
        <ele>713.62</ele>
        <time>2018-06-17T15:16:16Z</time>
      </trkpt>
      <trkpt lat="45.01311" lon="5.44268">
        <ele>713.92</ele>
        <time>2018-06-17T15:16:17Z</time>
      </trkpt>
      <trkpt lat="45.01335" lon="5.4426">
        <ele>714.71</ele>
        <time>2018-06-17T15:16:18Z</time>
      </trkpt>
      <trkpt lat="45.01359" lon="5.44253">
        <ele>714.95</ele>
        <time>2018-06-17T15:16:19Z</time>
      </trkpt>
      <trkpt lat="45.01383" lon="5.44249">
        <ele>715.72</ele>
        <time>2018-06-17T15:16:20Z</time>
      </trkpt>
      <trkpt lat="45.01407" lon="5.44245">
        <ele>715.95</ele>
        <time>2018-06-17T15:16:21Z</time>
      </trkpt>
      <trkpt lat="45.01432" lon="5.44242">
        <ele>716.72</ele>
        <time>2018-06-17T15:16:22Z</time>
      </trkpt>
      <trkpt lat="45.01458" lon="5.44239">
        <ele>716.95</ele>
        <time>2018-06-17T15:16:23Z</time>
      </trkpt>
      <trkpt lat="45.01484" lon="5.44236">
        <ele>718.42</ele>
        <time>2018-06-17T15:16:24Z</time>
      </trkpt>
      <trkpt lat="45.0151" lon="5.44233">
        <ele>719.56</ele>
        <time>2018-06-17T15:16:25Z</time>
      </trkpt>
      <trkpt lat="45.01536" lon="5.44231">
        <ele>720.6</ele>
        <time>2018-06-17T15:16:26Z</time>
      </trkpt>
      <trkpt lat="45.01561" lon="5.4423">
        <ele>721.61</ele>
        <time>2018-06-17T15:16:27Z</time>
      </trkpt>
      <trkpt lat="45.01586" lon="5.44233">
        <ele>722.62</ele>
        <time>2018-06-17T15:16:28Z</time>
      </trkpt>
      <trkpt lat="45.0161" lon="5.44239">
        <ele>723.62</ele>
        <time>2018-06-17T15:16:29Z</time>
      </trkpt>
      <trkpt lat="45.01634" lon="5.44247">
        <ele>724.62</ele>
        <time>2018-06-17T15:16:30Z</time>
      </trkpt>
      <trkpt lat="45.01658" lon="5.44256">
        <ele>725.62</ele>
        <time>2018-06-17T15:16:31Z</time>
      </trkpt>
      <trkpt lat="45.01682" lon="5.44265">
        <ele>726.62</ele>
        <time>2018-06-17T15:16:32Z</time>
      </trkpt>
      <trkpt lat="45.01706" lon="5.44272">
        <ele>726.92</ele>
        <time>2018-06-17T15:16:33Z</time>
      </trkpt>
      <trkpt lat="45.01729" lon="5.44274">
        <ele>727.71</ele>
        <time>2018-06-17T15:16:34Z</time>
      </trkpt>
      <trkpt lat="45.0175" lon="5.44275">
        <ele>728.65</ele>
        <time>2018-06-17T15:16:35Z</time>
      </trkpt>
      <trkpt lat="45.01771" lon="5.44276">
        <ele>729.63</ele>
        <time>2018-06-17T15:16:36Z</time>
      </trkpt>
      <trkpt lat="45.01789" lon="5.44275">
        <ele>729.92</ele>
        <time>2018-06-17T15:16:37Z</time>
      </trkpt>
      <trkpt lat="45.01818" lon="5.44277">
        <ele>730.95</ele>
        <time>2018-06-17T15:16:39Z</time>
      </trkpt>
      <trkpt lat="45.01841" lon="5.44277">
        <ele>731.04</ele>
        <time>2018-06-17T15:16:41Z</time>
      </trkpt>
      <trkpt lat="45.01864" lon="5.44278">
        <ele>731.75</ele>
        <time>2018-06-17T15:16:43Z</time>
      </trkpt>
      <trkpt lat="45.01891" lon="5.4428">
        <ele>732.93</ele>
        <time>2018-06-17T15:16:45Z</time>
      </trkpt>
      <trkpt lat="45.01918" lon="5.4428">
        <ele>734.65</ele>
        <time>2018-06-17T15:16:47Z</time>
      </trkpt>
      <trkpt lat="45.01944" lon="5.4428">
        <ele>735.71</ele>
        <time>2018-06-17T15:16:49Z</time>
      </trkpt>
      <trkpt lat="45.01967" lon="5.44271">
        <ele>736.72</ele>
        <time>2018-06-17T15:16:51Z</time>
      </trkpt>
      <trkpt lat="45.0199" lon="5.4426">
        <ele>737.02</ele>
        <time>2018-06-17T15:16:53Z</time>
      </trkpt>
      <trkpt lat="45.02014" lon="5.44246">
        <ele>737.96</ele>
        <time>2018-06-17T15:16:55Z</time>
      </trkpt>
      <trkpt lat="45.0204" lon="5.44238">
        <ele>738.95</ele>
        <time>2018-06-17T15:16:57Z</time>
      </trkpt>
      <trkpt lat="45.02065" lon="5.44238">
        <ele>738.34</ele>
        <time>2018-06-17T15:16:59Z</time>
      </trkpt>
      <trkpt lat="45.0209" lon="5.4424">
        <ele>738.99</ele>
        <time>2018-06-17T15:17:01Z</time>
      </trkpt>
      <trkpt lat="45.02113" lon="5.4425">
        <ele>739.04</ele>
        <time>2018-06-17T15:17:03Z</time>
      </trkpt>
      <trkpt lat="45.02131" lon="5.44259">
        <ele>739.96</ele>
        <time>2018-06-17T15:17:05Z</time>
      </trkpt>
      <trkpt lat="45.02153" lon="5.44273">
        <ele>741.93</ele>
        <time>2018-06-17T15:17:08Z</time>
      </trkpt>
      <trkpt lat="45.02176" lon="5.44285">
        <ele>743.66</ele>
        <time>2018-06-17T15:17:11Z</time>
      </trkpt>
      <trkpt lat="45.02194" lon="5.44293">
        <ele>744.01</ele>
        <time>2018-06-17T15:17:13Z</time>
      </trkpt>
      <trkpt lat="45.02215" lon="5.44295">
        <ele>742.23</ele>
        <time>2018-06-17T15:17:15Z</time>
      </trkpt>
      <trkpt lat="45.02237" lon="5.44303">
        <ele>743.67</ele>
        <time>2018-06-17T15:17:17Z</time>
      </trkpt>
      <trkpt lat="45.02263" lon="5.44312">
        <ele>744.72</ele>
        <time>2018-06-17T15:17:19Z</time>
      </trkpt>
      <trkpt lat="45.02288" lon="5.44318">
        <ele>742.29</ele>
        <time>2018-06-17T15:17:21Z</time>
      </trkpt>
      <trkpt lat="45.02317" lon="5.44328">
        <ele>743.26</ele>
        <time>2018-06-17T15:17:23Z</time>
      </trkpt>
      <trkpt lat="45.02347" lon="5.4434">
        <ele>745.59</ele>
        <time>2018-06-17T15:17:25Z</time>
      </trkpt>
      <trkpt lat="45.02377" lon="5.4435">
        <ele>746.92</ele>
        <time>2018-06-17T15:17:27Z</time>
      </trkpt>
      <trkpt lat="45.02407" lon="5.44359">
        <ele>747.95</ele>
        <time>2018-06-17T15:17:29Z</time>
      </trkpt>
      <trkpt lat="45.02439" lon="5.44367">
        <ele>748.74</ele>
        <time>2018-06-17T15:17:31Z</time>
      </trkpt>
      <trkpt lat="45.02459" lon="5.44373">
        <ele>749.66</ele>
        <time>2018-06-17T15:17:32Z</time>
      </trkpt>
      <trkpt lat="45.02477" lon="5.44379">
        <ele>749.23</ele>
        <time>2018-06-17T15:17:33Z</time>
      </trkpt>
      <trkpt lat="45.02497" lon="5.44386">
        <ele>749.1</ele>
        <time>2018-06-17T15:17:34Z</time>
      </trkpt>
      <trkpt lat="45.02514" lon="5.44393">
        <ele>749.07</ele>
        <time>2018-06-17T15:17:35Z</time>
      </trkpt>
      <trkpt lat="45.02535" lon="5.44391">
        <ele>750.45</ele>
        <time>2018-06-17T15:17:36Z</time>
      </trkpt>
      <trkpt lat="45.02556" lon="5.44392">
        <ele>752.27</ele>
        <time>2018-06-17T15:17:37Z</time>
      </trkpt>
      <trkpt lat="45.02578" lon="5.4439">
        <ele>752.82</ele>
        <time>2018-06-17T15:17:38Z</time>
      </trkpt>
      <trkpt lat="45.026" lon="5.4439">
        <ele>753.68</ele>
        <time>2018-06-17T15:17:39Z</time>
      </trkpt>
      <trkpt lat="45.02622" lon="5.44392">
        <ele>754.64</ele>
        <time>2018-06-17T15:17:40Z</time>
      </trkpt>
      <trkpt lat="45.02646" lon="5.44394">
        <ele>755.63</ele>
        <time>2018-06-17T15:17:41Z</time>
      </trkpt>
      <trkpt lat="45.0267" lon="5.44396">
        <ele>755.92</ele>
        <time>2018-06-17T15:17:42Z</time>
      </trkpt>
      <trkpt lat="45.02692" lon="5.44398">
        <ele>756.71</ele>
        <time>2018-06-17T15:17:43Z</time>
      </trkpt>
      <trkpt lat="45.02713" lon="5.44399">
        <ele>757.65</ele>
        <time>2018-06-17T15:17:44Z</time>
      </trkpt>
      <trkpt lat="45.02732" lon="5.44394">
        <ele>757.93</ele>
        <time>2018-06-17T15:17:45Z</time>
      </trkpt>
      <trkpt lat="45.0275" lon="5.44378">
        <ele>758.71</ele>
        <time>2018-06-17T15:17:46Z</time>
      </trkpt>
      <trkpt lat="45.02772" lon="5.44366">
        <ele>759.65</ele>
        <time>2018-06-17T15:17:47Z</time>
      </trkpt>
      <trkpt lat="45.02794" lon="5.44359">
        <ele>760.63</ele>
        <time>2018-06-17T15:17:48Z</time>
      </trkpt>
      <trkpt lat="45.02817" lon="5.44354">
        <ele>762.32</ele>
        <time>2018-06-17T15:17:49Z</time>
      </trkpt>
      <trkpt lat="45.02836" lon="5.44353">
        <ele>764.23</ele>
        <time>2018-06-17T15:17:50Z</time>
      </trkpt>
      <trkpt lat="45.02854" lon="5.44356">
        <ele>765.5</ele>
        <time>2018-06-17T15:17:51Z</time>
      </trkpt>
      <trkpt lat="45.02875" lon="5.44366">
        <ele>765.89</ele>
        <time>2018-06-17T15:17:52Z</time>
      </trkpt>
      <trkpt lat="45.02896" lon="5.44378">
        <ele>766.7</ele>
        <time>2018-06-17T15:17:53Z</time>
      </trkpt>
      <trkpt lat="45.0292" lon="5.44389">
        <ele>766.94</ele>
        <time>2018-06-17T15:17:54Z</time>
      </trkpt>
      <trkpt lat="45.02944" lon="5.44396">
        <ele>767.02</ele>
        <time>2018-06-17T15:17:55Z</time>
      </trkpt>
      <trkpt lat="45.0297" lon="5.444">
        <ele>767.74</ele>
        <time>2018-06-17T15:17:56Z</time>
      </trkpt>
      <trkpt lat="45.02995" lon="5.44402">
        <ele>768.66</ele>
        <time>2018-06-17T15:17:57Z</time>
      </trkpt>
      <trkpt lat="45.03019" lon="5.44403">
        <ele>769.63</ele>
        <time>2018-06-17T15:17:58Z</time>
      </trkpt>
      <trkpt lat="45.03042" lon="5.44404">
        <ele>770.62</ele>
        <time>2018-06-17T15:17:59Z</time>
      </trkpt>
      <trkpt lat="45.03065" lon="5.44399">
        <ele>773.72</ele>
        <time>2018-06-17T15:18:00Z</time>
      </trkpt>
      <trkpt lat="45.03088" lon="5.44393">
        <ele>776.05</ele>
        <time>2018-06-17T15:18:01Z</time>
      </trkpt>
      <trkpt lat="45.03111" lon="5.4439">
        <ele>778.15</ele>
        <time>2018-06-17T15:18:02Z</time>
      </trkpt>
      <trkpt lat="45.03136" lon="5.4439">
        <ele>780.18</ele>
        <time>2018-06-17T15:18:03Z</time>
      </trkpt>
      <trkpt lat="45.03162" lon="5.44392">
        <ele>782.19</ele>
        <time>2018-06-17T15:18:04Z</time>
      </trkpt>
      <trkpt lat="45.03188" lon="5.44394">
        <ele>782.79</ele>
        <time>2018-06-17T15:18:05Z</time>
      </trkpt>
      <trkpt lat="45.03214" lon="5.44392">
        <ele>785.07</ele>
        <time>2018-06-17T15:18:06Z</time>
      </trkpt>
      <trkpt lat="45.03241" lon="5.44389">
        <ele>787.86</ele>
        <time>2018-06-17T15:18:07Z</time>
      </trkpt>
      <trkpt lat="45.0327" lon="5.44386">
        <ele>789.39</ele>
        <time>2018-06-17T15:18:08Z</time>
      </trkpt>
      <trkpt lat="45.03301" lon="5.44384">
        <ele>791.95</ele>
        <time>2018-06-17T15:18:09Z</time>
      </trkpt>
      <trkpt lat="45.03331" lon="5.44386">
        <ele>794.12</ele>
        <time>2018-06-17T15:18:10Z</time>
      </trkpt>
      <trkpt lat="45.0336" lon="5.44387">
        <ele>796.17</ele>
        <time>2018-06-17T15:18:11Z</time>
      </trkpt>
      <trkpt lat="45.03388" lon="5.4439">
        <ele>798.89</ele>
        <time>2018-06-17T15:18:12Z</time>
      </trkpt>
      <trkpt lat="45.03414" lon="5.44392">
        <ele>801.1</ele>
        <time>2018-06-17T15:18:13Z</time>
      </trkpt>
      <trkpt lat="45.03439" lon="5.44396">
        <ele>802.46</ele>
        <time>2018-06-17T15:18:14Z</time>
      </trkpt>
      <trkpt lat="45.03463" lon="5.44402">
        <ele>803.57</ele>
        <time>2018-06-17T15:18:15Z</time>
      </trkpt>
      <trkpt lat="45.03487" lon="5.44409">
        <ele>806.01</ele>
        <time>2018-06-17T15:18:16Z</time>
      </trkpt>
      <trkpt lat="45.03511" lon="5.44416">
        <ele>807.44</ele>
        <time>2018-06-17T15:18:17Z</time>
      </trkpt>
      <trkpt lat="45.03535" lon="5.44423">
        <ele>809.27</ele>
        <time>2018-06-17T15:18:18Z</time>
      </trkpt>
      <trkpt lat="45.03558" lon="5.44429">
        <ele>811.21</ele>
        <time>2018-06-17T15:18:19Z</time>
      </trkpt>
      <trkpt lat="45.03582" lon="5.44432">
        <ele>812.5</ele>
        <time>2018-06-17T15:18:20Z</time>
      </trkpt>
      <trkpt lat="45.03607" lon="5.44434">
        <ele>814.28</ele>
        <time>2018-06-17T15:18:21Z</time>
      </trkpt>
      <trkpt lat="45.03631" lon="5.44437">
        <ele>816.22</ele>
        <time>2018-06-17T15:18:22Z</time>
      </trkpt>
      <trkpt lat="45.03657" lon="5.44439">
        <ele>818.2</ele>
        <time>2018-06-17T15:18:23Z</time>
      </trkpt>
      <trkpt lat="45.03683" lon="5.44442">
        <ele>820.19</ele>
        <time>2018-06-17T15:18:24Z</time>
      </trkpt>
      <trkpt lat="45.03708" lon="5.44444">
        <ele>822.19</ele>
        <time>2018-06-17T15:18:25Z</time>
      </trkpt>
      <trkpt lat="45.03734" lon="5.44447">
        <ele>824.89</ele>
        <time>2018-06-17T15:18:26Z</time>
      </trkpt>
      <trkpt lat="45.03761" lon="5.44451">
        <ele>827.1</ele>
        <time>2018-06-17T15:18:27Z</time>
      </trkpt>
      <trkpt lat="45.03788" lon="5.44456">
        <ele>829.16</ele>
        <time>2018-06-17T15:18:28Z</time>
      </trkpt>
      <trkpt lat="45.03814" lon="5.44461">
        <ele>831.18</ele>
        <time>2018-06-17T15:18:29Z</time>
      </trkpt>
      <trkpt lat="45.03842" lon="5.44464">
        <ele>831.79</ele>
        <time>2018-06-17T15:18:30Z</time>
      </trkpt>
      <trkpt lat="45.03868" lon="5.44467">
        <ele>833.37</ele>
        <time>2018-06-17T15:18:31Z</time>
      </trkpt>
      <trkpt lat="45.03893" lon="5.44472">
        <ele>834.55</ele>
        <time>2018-06-17T15:18:32Z</time>
      </trkpt>
      <trkpt lat="45.03916" lon="5.44482">
        <ele>835.6</ele>
        <time>2018-06-17T15:18:33Z</time>
      </trkpt>
      <trkpt lat="45.03938" lon="5.44497">
        <ele>837.31</ele>
        <time>2018-06-17T15:18:34Z</time>
      </trkpt>
      <trkpt lat="45.03958" lon="5.44516">
        <ele>838.53</ele>
        <time>2018-06-17T15:18:35Z</time>
      </trkpt>
      <trkpt lat="45.03981" lon="5.44533">
        <ele>839.59</ele>
        <time>2018-06-17T15:18:36Z</time>
      </trkpt>
      <trkpt lat="45.04006" lon="5.44546">
        <ele>841.31</ele>
        <time>2018-06-17T15:18:37Z</time>
      </trkpt>
      <trkpt lat="45.04033" lon="5.44559">
        <ele>842.53</ele>
        <time>2018-06-17T15:18:38Z</time>
      </trkpt>
      <trkpt lat="45.0406" lon="5.44575">
        <ele>844.29</ele>
        <time>2018-06-17T15:18:39Z</time>
      </trkpt>
      <trkpt lat="45.04088" lon="5.44594">
        <ele>846.92</ele>
        <time>2018-06-17T15:18:40Z</time>
      </trkpt>
      <trkpt lat="45.04118" lon="5.44616">
        <ele>849.11</ele>
        <time>2018-06-17T15:18:41Z</time>
      </trkpt>
      <trkpt lat="45.04147" lon="5.44638">
        <ele>852.57</ele>
        <time>2018-06-17T15:18:42Z</time>
      </trkpt>
      <trkpt lat="45.04178" lon="5.44658">
        <ele>854.3</ele>
        <time>2018-06-17T15:18:43Z</time>
      </trkpt>
      <trkpt lat="45.04208" lon="5.44677">
        <ele>856.23</ele>
        <time>2018-06-17T15:18:44Z</time>
      </trkpt>
      <trkpt lat="45.04235" lon="5.44694">
        <ele>858.9</ele>
        <time>2018-06-17T15:18:45Z</time>
      </trkpt>
      <trkpt lat="45.0426" lon="5.44711">
        <ele>861.1</ele>
        <time>2018-06-17T15:18:46Z</time>
      </trkpt>
      <trkpt lat="45.04285" lon="5.44726">
        <ele>863.87</ele>
        <time>2018-06-17T15:18:47Z</time>
      </trkpt>
      <trkpt lat="45.04308" lon="5.4474">
        <ele>866.09</ele>
        <time>2018-06-17T15:18:48Z</time>
      </trkpt>
      <trkpt lat="45.04331" lon="5.44753">
        <ele>868.16</ele>
        <time>2018-06-17T15:18:49Z</time>
      </trkpt>
      <trkpt lat="45.04355" lon="5.44763">
        <ele>870.18</ele>
        <time>2018-06-17T15:18:50Z</time>
      </trkpt>
      <trkpt lat="45.0438" lon="5.4477">
        <ele>872.89</ele>
        <time>2018-06-17T15:18:51Z</time>
      </trkpt>
      <trkpt lat="45.04407" lon="5.44775">
        <ele>875.1</ele>
        <time>2018-06-17T15:18:52Z</time>
      </trkpt>
      <trkpt lat="45.04434" lon="5.44779">
        <ele>876.46</ele>
        <time>2018-06-17T15:18:53Z</time>
      </trkpt>
      <trkpt lat="45.04461" lon="5.44783">
        <ele>878.27</ele>
        <time>2018-06-17T15:18:54Z</time>
      </trkpt>
      <trkpt lat="45.04487" lon="5.44787">
        <ele>880.22</ele>
        <time>2018-06-17T15:18:55Z</time>
      </trkpt>
      <trkpt lat="45.04513" lon="5.44788">
        <ele>881.5</ele>
        <time>2018-06-17T15:18:56Z</time>
      </trkpt>
      <trkpt lat="45.04539" lon="5.44788">
        <ele>883.98</ele>
        <time>2018-06-17T15:18:57Z</time>
      </trkpt>
      <trkpt lat="45.04565" lon="5.44787">
        <ele>886.13</ele>
        <time>2018-06-17T15:18:58Z</time>
      </trkpt>
      <trkpt lat="45.0459" lon="5.44785">
        <ele>887.47</ele>
        <time>2018-06-17T15:18:59Z</time>
      </trkpt>
      <trkpt lat="45.04614" lon="5.44784">
        <ele>889.28</ele>
        <time>2018-06-17T15:19:00Z</time>
      </trkpt>
      <trkpt lat="45.04637" lon="5.44782">
        <ele>890.52</ele>
        <time>2018-06-17T15:19:01Z</time>
      </trkpt>
      <trkpt lat="45.04659" lon="5.4478">
        <ele>891.59</ele>
        <time>2018-06-17T15:19:02Z</time>
      </trkpt>
      <trkpt lat="45.04679" lon="5.44777">
        <ele>892.61</ele>
        <time>2018-06-17T15:19:03Z</time>
      </trkpt>
      <trkpt lat="45.04698" lon="5.44774">
        <ele>893.62</ele>
        <time>2018-06-17T15:19:04Z</time>
      </trkpt>
      <trkpt lat="45.0473" lon="5.44766">
        <ele>895.62</ele>
        <time>2018-06-17T15:19:06Z</time>
      </trkpt>
      <trkpt lat="45.0476" lon="5.44759">
        <ele>896.92</ele>
        <time>2018-06-17T15:19:08Z</time>
      </trkpt>
      <trkpt lat="45.04788" lon="5.44754">
        <ele>898.65</ele>
        <time>2018-06-17T15:19:10Z</time>
      </trkpt>
      <trkpt lat="45.04815" lon="5.44756">
        <ele>899.71</ele>
        <time>2018-06-17T15:19:12Z</time>
      </trkpt>
      <trkpt lat="45.04842" lon="5.44765">
        <ele>900.72</ele>
        <time>2018-06-17T15:19:14Z</time>
      </trkpt>
      <trkpt lat="45.04867" lon="5.44778">
        <ele>901.93</ele>
        <time>2018-06-17T15:19:16Z</time>
      </trkpt>
      <trkpt lat="45.04888" lon="5.44793">
        <ele>903.65</ele>
        <time>2018-06-17T15:19:18Z</time>
      </trkpt>
      <trkpt lat="45.04905" lon="5.44811">
        <ele>904.92</ele>
        <time>2018-06-17T15:19:20Z</time>
      </trkpt>
      <trkpt lat="45.0492" lon="5.44829">
        <ele>905.74</ele>
        <time>2018-06-17T15:19:22Z</time>
      </trkpt>
      <trkpt lat="45.04935" lon="5.44847">
        <ele>906.93</ele>
        <time>2018-06-17T15:19:24Z</time>
      </trkpt>
      <trkpt lat="45.04953" lon="5.44863">
        <ele>907.04</ele>
        <time>2018-06-17T15:19:26Z</time>
      </trkpt>
      <trkpt lat="45.04971" lon="5.44875">
        <ele>907.05</ele>
        <time>2018-06-17T15:19:28Z</time>
      </trkpt>
      <trkpt lat="45.04992" lon="5.44886">
        <ele>908.02</ele>
        <time>2018-06-17T15:19:31Z</time>
      </trkpt>
      <trkpt lat="45.05012" lon="5.44895">
        <ele>908.05</ele>
        <time>2018-06-17T15:19:35Z</time>
      </trkpt>
      <trkpt lat="45.05034" lon="5.44907">
        <ele>909.02</ele>
        <time>2018-06-17T15:19:38Z</time>
      </trkpt>
      <trkpt lat="45.05056" lon="5.44922">
        <ele>909.05</ele>
        <time>2018-06-17T15:19:41Z</time>
      </trkpt>
      <trkpt lat="45.05074" lon="5.44936">
        <ele>909.05</ele>
        <time>2018-06-17T15:19:43Z</time>
      </trkpt>
      <trkpt lat="45.05102" lon="5.44951">
        <ele>909.05</ele>
        <time>2018-06-17T15:19:45Z</time>
      </trkpt>
      <trkpt lat="45.05119" lon="5.44963">
        <ele>909.75</ele>
        <time>2018-06-17T15:19:46Z</time>
      </trkpt>
      <trkpt lat="45.05136" lon="5.44973">
        <ele>909.96</ele>
        <time>2018-06-17T15:19:47Z</time>
      </trkpt>
      <trkpt lat="45.05154" lon="5.44982">
        <ele>910.72</ele>
        <time>2018-06-17T15:19:48Z</time>
      </trkpt>
      <trkpt lat="45.05172" lon="5.44992">
        <ele>911.65</ele>
        <time>2018-06-17T15:19:49Z</time>
      </trkpt>
      <trkpt lat="45.05192" lon="5.45003">
        <ele>911.93</ele>
        <time>2018-06-17T15:19:50Z</time>
      </trkpt>
      <trkpt lat="45.05213" lon="5.45014">
        <ele>912.71</ele>
        <time>2018-06-17T15:19:51Z</time>
      </trkpt>
      <trkpt lat="45.05236" lon="5.45027">
        <ele>914.35</ele>
        <time>2018-06-17T15:19:52Z</time>
      </trkpt>
      <trkpt lat="45.0526" lon="5.4504">
        <ele>914.84</ele>
        <time>2018-06-17T15:19:53Z</time>
      </trkpt>
      <trkpt lat="45.05284" lon="5.45054">
        <ele>915.69</ele>
        <time>2018-06-17T15:19:54Z</time>
      </trkpt>
      <trkpt lat="45.05307" lon="5.45067">
        <ele>916.64</ele>
        <time>2018-06-17T15:19:55Z</time>
      </trkpt>
      <trkpt lat="45.05329" lon="5.4508">
        <ele>916.93</ele>
        <time>2018-06-17T15:19:56Z</time>
      </trkpt>
      <trkpt lat="45.05349" lon="5.45094">
        <ele>917.01</ele>
        <time>2018-06-17T15:19:57Z</time>
      </trkpt>
      <trkpt lat="45.05367" lon="5.45109">
        <ele>917.74</ele>
        <time>2018-06-17T15:19:58Z</time>
      </trkpt>
      <trkpt lat="45.05385" lon="5.4513">
        <ele>918.66</ele>
        <time>2018-06-17T15:19:59Z</time>
      </trkpt>
      <trkpt lat="45.05402" lon="5.45154">
        <ele>918.93</ele>
        <time>2018-06-17T15:20:00Z</time>
      </trkpt>
      <trkpt lat="45.05419" lon="5.4518">
        <ele>919.71</ele>
        <time>2018-06-17T15:20:01Z</time>
      </trkpt>
      <trkpt lat="45.05437" lon="5.45204">
        <ele>919.25</ele>
        <time>2018-06-17T15:20:02Z</time>
      </trkpt>
      <trkpt lat="45.05456" lon="5.45224">
        <ele>919.81</ele>
        <time>2018-06-17T15:20:03Z</time>
      </trkpt>
      <trkpt lat="45.05475" lon="5.45241">
        <ele>919.98</ele>
        <time>2018-06-17T15:20:04Z</time>
      </trkpt>
      <trkpt lat="45.05495" lon="5.45252">
        <ele>920.03</ele>
        <time>2018-06-17T15:20:05Z</time>
      </trkpt>
      <trkpt lat="45.05518" lon="5.45258">
        <ele>920.74</ele>
        <time>2018-06-17T15:20:06Z</time>
      </trkpt>
      <trkpt lat="45.05544" lon="5.4526">
        <ele>920.96</ele>
        <time>2018-06-17T15:20:07Z</time>
      </trkpt>
      <trkpt lat="45.0557" lon="5.45259">
        <ele>921.72</ele>
        <time>2018-06-17T15:20:08Z</time>
      </trkpt>
      <trkpt lat="45.05597" lon="5.4526">
        <ele>922.65</ele>
        <time>2018-06-17T15:20:09Z</time>
      </trkpt>
      <trkpt lat="45.05624" lon="5.45264">
        <ele>922.93</ele>
        <time>2018-06-17T15:20:10Z</time>
      </trkpt>
      <trkpt lat="45.05653" lon="5.45271">
        <ele>923.01</ele>
        <time>2018-06-17T15:20:11Z</time>
      </trkpt>
      <trkpt lat="45.0568" lon="5.45278">
        <ele>923.74</ele>
        <time>2018-06-17T15:20:12Z</time>
      </trkpt>
      <trkpt lat="45.05705" lon="5.45283">
        <ele>924.66</ele>
        <time>2018-06-17T15:20:13Z</time>
      </trkpt>
      <trkpt lat="45.05731" lon="5.45284">
        <ele>924.93</ele>
        <time>2018-06-17T15:20:14Z</time>
      </trkpt>
      <trkpt lat="45.05758" lon="5.45283">
        <ele>925.71</ele>
        <time>2018-06-17T15:20:15Z</time>
      </trkpt>
      <trkpt lat="45.05784" lon="5.45281">
        <ele>925.95</ele>
        <time>2018-06-17T15:20:16Z</time>
      </trkpt>
      <trkpt lat="45.05808" lon="5.45281">
        <ele>925.32</ele>
        <time>2018-06-17T15:20:17Z</time>
      </trkpt>
      <trkpt lat="45.05832" lon="5.45283">
        <ele>925.13</ele>
        <time>2018-06-17T15:20:18Z</time>
      </trkpt>
      <trkpt lat="45.05853" lon="5.45287">
        <ele>925.77</ele>
        <time>2018-06-17T15:20:19Z</time>
      </trkpt>
      <trkpt lat="45.05872" lon="5.45295">
        <ele>925.97</ele>
        <time>2018-06-17T15:20:20Z</time>
      </trkpt>
      <trkpt lat="45.05892" lon="5.45309">
        <ele>925.32</ele>
        <time>2018-06-17T15:20:21Z</time>
      </trkpt>
      <trkpt lat="45.05912" lon="5.45328">
        <ele>925.83</ele>
        <time>2018-06-17T15:20:22Z</time>
      </trkpt>
      <trkpt lat="45.05933" lon="5.45345">
        <ele>925.98</ele>
        <time>2018-06-17T15:20:23Z</time>
      </trkpt>
      <trkpt lat="45.05956" lon="5.45358">
        <ele>925.33</ele>
        <time>2018-06-17T15:20:24Z</time>
      </trkpt>
      <trkpt lat="45.0598" lon="5.45365">
        <ele>925.13</ele>
        <time>2018-06-17T15:20:25Z</time>
      </trkpt>
      <trkpt lat="45.06006" lon="5.45368">
        <ele>925.07</ele>
        <time>2018-06-17T15:20:26Z</time>
      </trkpt>
      <trkpt lat="45.06031" lon="5.4537">
        <ele>925.06</ele>
        <time>2018-06-17T15:20:27Z</time>
      </trkpt>
      <trkpt lat="45.06054" lon="5.45372">
        <ele>925.05</ele>
        <time>2018-06-17T15:20:28Z</time>
      </trkpt>
      <trkpt lat="45.06076" lon="5.45378">
        <ele>924.35</ele>
        <time>2018-06-17T15:20:29Z</time>
      </trkpt>
      <trkpt lat="45.06097" lon="5.45388">
        <ele>924.14</ele>
        <time>2018-06-17T15:20:30Z</time>
      </trkpt>
      <trkpt lat="45.06119" lon="5.45405">
        <ele>924.08</ele>
        <time>2018-06-17T15:20:31Z</time>
      </trkpt>
      <trkpt lat="45.06141" lon="5.45424">
        <ele>923.36</ele>
        <time>2018-06-17T15:20:32Z</time>
      </trkpt>
      <trkpt lat="45.06163" lon="5.45442">
        <ele>923.14</ele>
        <time>2018-06-17T15:20:33Z</time>
      </trkpt>
      <trkpt lat="45.06186" lon="5.45456">
        <ele>922.38</ele>
        <time>2018-06-17T15:20:34Z</time>
      </trkpt>
      <trkpt lat="45.06211" lon="5.45465">
        <ele>922.15</ele>
        <time>2018-06-17T15:20:35Z</time>
      </trkpt>
      <trkpt lat="45.06236" lon="5.45473">
        <ele>922.08</ele>
        <time>2018-06-17T15:20:36Z</time>
      </trkpt>
      <trkpt lat="45.06261" lon="5.45482">
        <ele>922.06</ele>
        <time>2018-06-17T15:20:37Z</time>
      </trkpt>
      <trkpt lat="45.06285" lon="5.45496">
        <ele>921.35</ele>
        <time>2018-06-17T15:20:38Z</time>
      </trkpt>
      <trkpt lat="45.06311" lon="5.45512">
        <ele>921.14</ele>
        <time>2018-06-17T15:20:39Z</time>
      </trkpt>
      <trkpt lat="45.06337" lon="5.45527">
        <ele>921.08</ele>
        <time>2018-06-17T15:20:40Z</time>
      </trkpt>
      <trkpt lat="45.06365" lon="5.45538">
        <ele>921.06</ele>
        <time>2018-06-17T15:20:41Z</time>
      </trkpt>
      <trkpt lat="45.06393" lon="5.45548">
        <ele>921.05</ele>
        <time>2018-06-17T15:20:42Z</time>
      </trkpt>
      <trkpt lat="45.0642" lon="5.4555">
        <ele>920.35</ele>
        <time>2018-06-17T15:20:43Z</time>
      </trkpt>
      <trkpt lat="45.06445" lon="5.45556">
        <ele>920.14</ele>
        <time>2018-06-17T15:20:44Z</time>
      </trkpt>
      <trkpt lat="45.06468" lon="5.45565">
        <ele>919.38</ele>
        <time>2018-06-17T15:20:45Z</time>
      </trkpt>
      <trkpt lat="45.06489" lon="5.45578">
        <ele>919.15</ele>
        <time>2018-06-17T15:20:46Z</time>
      </trkpt>
      <trkpt lat="45.0651" lon="5.45596">
        <ele>919.08</ele>
        <time>2018-06-17T15:20:47Z</time>
      </trkpt>
      <trkpt lat="45.06531" lon="5.45616">
        <ele>919.06</ele>
        <time>2018-06-17T15:20:48Z</time>
      </trkpt>
      <trkpt lat="45.06553" lon="5.45638">
        <ele>918.35</ele>
        <time>2018-06-17T15:20:49Z</time>
      </trkpt>
      <trkpt lat="45.06577" lon="5.45661">
        <ele>916.74</ele>
        <time>2018-06-17T15:20:50Z</time>
      </trkpt>
      <trkpt lat="45.066" lon="5.45684">
        <ele>916.26</ele>
        <time>2018-06-17T15:20:51Z</time>
      </trkpt>
      <trkpt lat="45.06622" lon="5.45705">
        <ele>915.41</ele>
        <time>2018-06-17T15:20:52Z</time>
      </trkpt>
      <trkpt lat="45.06643" lon="5.45724">
        <ele>914.46</ele>
        <time>2018-06-17T15:20:53Z</time>
      </trkpt>
      <trkpt lat="45.06665" lon="5.45745">
        <ele>914.17</ele>
        <time>2018-06-17T15:20:54Z</time>
      </trkpt>
      <trkpt lat="45.06685" lon="5.45767">
        <ele>913.39</ele>
        <time>2018-06-17T15:20:55Z</time>
      </trkpt>
      <trkpt lat="45.06706" lon="5.45789">
        <ele>913.15</ele>
        <time>2018-06-17T15:20:56Z</time>
      </trkpt>
      <trkpt lat="45.06728" lon="5.45809">
        <ele>912.38</ele>
        <time>2018-06-17T15:20:57Z</time>
      </trkpt>
      <trkpt lat="45.06752" lon="5.45826">
        <ele>911.45</ele>
        <time>2018-06-17T15:20:58Z</time>
      </trkpt>
      <trkpt lat="45.06776" lon="5.4584">
        <ele>910.47</ele>
        <time>2018-06-17T15:20:59Z</time>
      </trkpt>
      <trkpt lat="45.06802" lon="5.45852">
        <ele>909.47</ele>
        <time>2018-06-17T15:21:00Z</time>
      </trkpt>
      <trkpt lat="45.06828" lon="5.45863">
        <ele>909.18</ele>
        <time>2018-06-17T15:21:01Z</time>
      </trkpt>
      <trkpt lat="45.06853" lon="5.45874">
        <ele>908.39</ele>
        <time>2018-06-17T15:21:02Z</time>
      </trkpt>
      <trkpt lat="45.06878" lon="5.45884">
        <ele>907.45</ele>
        <time>2018-06-17T15:21:03Z</time>
      </trkpt>
      <trkpt lat="45.069" lon="5.45892">
        <ele>907.17</ele>
        <time>2018-06-17T15:21:04Z</time>
      </trkpt>
      <trkpt lat="45.06924" lon="5.45894">
        <ele>906.39</ele>
        <time>2018-06-17T15:21:05Z</time>
      </trkpt>
      <trkpt lat="45.06948" lon="5.45894">
        <ele>906.15</ele>
        <time>2018-06-17T15:21:06Z</time>
      </trkpt>
      <trkpt lat="45.06973" lon="5.4589">
        <ele>905.38</ele>
        <time>2018-06-17T15:21:07Z</time>
      </trkpt>
      <trkpt lat="45.06998" lon="5.45884">
        <ele>905.15</ele>
        <time>2018-06-17T15:21:08Z</time>
      </trkpt>
      <trkpt lat="45.07024" lon="5.45877">
        <ele>904.38</ele>
        <time>2018-06-17T15:21:09Z</time>
      </trkpt>
      <trkpt lat="45.0705" lon="5.4587">
        <ele>903.45</ele>
        <time>2018-06-17T15:21:10Z</time>
      </trkpt>
      <trkpt lat="45.07077" lon="5.45863">
        <ele>902.47</ele>
        <time>2018-06-17T15:21:11Z</time>
      </trkpt>
      <trkpt lat="45.07104" lon="5.45856">
        <ele>901.47</ele>
        <time>2018-06-17T15:21:12Z</time>
      </trkpt>
      <trkpt lat="45.0713" lon="5.4585">
        <ele>899.78</ele>
        <time>2018-06-17T15:21:13Z</time>
      </trkpt>
      <trkpt lat="45.07155" lon="5.45846">
        <ele>898.57</ele>
        <time>2018-06-17T15:21:14Z</time>
      </trkpt>
      <trkpt lat="45.0718" lon="5.45845">
        <ele>897.5</ele>
        <time>2018-06-17T15:21:15Z</time>
      </trkpt>
      <trkpt lat="45.07205" lon="5.45848">
        <ele>896.49</ele>
        <time>2018-06-17T15:21:16Z</time>
      </trkpt>
      <trkpt lat="45.0723" lon="5.45853">
        <ele>895.48</ele>
        <time>2018-06-17T15:21:17Z</time>
      </trkpt>
      <trkpt lat="45.07257" lon="5.45857">
        <ele>894.48</ele>
        <time>2018-06-17T15:21:18Z</time>
      </trkpt>
      <trkpt lat="45.07283" lon="5.45859">
        <ele>892.78</ele>
        <time>2018-06-17T15:21:19Z</time>
      </trkpt>
      <trkpt lat="45.07311" lon="5.45859">
        <ele>891.57</ele>
        <time>2018-06-17T15:21:20Z</time>
      </trkpt>
      <trkpt lat="45.07339" lon="5.45859">
        <ele>890.5</ele>
        <time>2018-06-17T15:21:21Z</time>
      </trkpt>
      <trkpt lat="45.07367" lon="5.4586">
        <ele>888.79</ele>
        <time>2018-06-17T15:21:22Z</time>
      </trkpt>
      <trkpt lat="45.07395" lon="5.4586">
        <ele>886.87</ele>
        <time>2018-06-17T15:21:23Z</time>
      </trkpt>
      <trkpt lat="45.07423" lon="5.45859">
        <ele>885.6</ele>
        <time>2018-06-17T15:21:24Z</time>
      </trkpt>
      <trkpt lat="45.07451" lon="5.45859">
        <ele>883.81</ele>
        <time>2018-06-17T15:21:25Z</time>
      </trkpt>
      <trkpt lat="45.07479" lon="5.45859">
        <ele>882.58</ele>
        <time>2018-06-17T15:21:26Z</time>
      </trkpt>
      <trkpt lat="45.07505" lon="5.45863">
        <ele>880.81</ele>
        <time>2018-06-17T15:21:27Z</time>
      </trkpt>
      <trkpt lat="45.0753" lon="5.45869">
        <ele>879.58</ele>
        <time>2018-06-17T15:21:28Z</time>
      </trkpt>
      <trkpt lat="45.07554" lon="5.45879">
        <ele>878.51</ele>
        <time>2018-06-17T15:21:29Z</time>
      </trkpt>
      <trkpt lat="45.07577" lon="5.45891">
        <ele>877.49</ele>
        <time>2018-06-17T15:21:30Z</time>
      </trkpt>
      <trkpt lat="45.07601" lon="5.45907">
        <ele>876.48</ele>
        <time>2018-06-17T15:21:31Z</time>
      </trkpt>
      <trkpt lat="45.07625" lon="5.45922">
        <ele>875.48</ele>
        <time>2018-06-17T15:21:32Z</time>
      </trkpt>
      <trkpt lat="45.07651" lon="5.45938">
        <ele>873.78</ele>
        <time>2018-06-17T15:21:33Z</time>
      </trkpt>
      <trkpt lat="45.07675" lon="5.45954">
        <ele>871.87</ele>
        <time>2018-06-17T15:21:34Z</time>
      </trkpt>
      <trkpt lat="45.07699" lon="5.45969">
        <ele>870.59</ele>
        <time>2018-06-17T15:21:35Z</time>
      </trkpt>
      <trkpt lat="45.07722" lon="5.45984">
        <ele>869.51</ele>
        <time>2018-06-17T15:21:36Z</time>
      </trkpt>
      <trkpt lat="45.07743" lon="5.45999">
        <ele>867.79</ele>
        <time>2018-06-17T15:21:37Z</time>
      </trkpt>
      <trkpt lat="45.07764" lon="5.46014">
        <ele>866.57</ele>
        <time>2018-06-17T15:21:38Z</time>
      </trkpt>
      <trkpt lat="45.07784" lon="5.46033">
        <ele>865.51</ele>
        <time>2018-06-17T15:21:39Z</time>
      </trkpt>
      <trkpt lat="45.07805" lon="5.46055">
        <ele>864.49</ele>
        <time>2018-06-17T15:21:40Z</time>
      </trkpt>
      <trkpt lat="45.07826" lon="5.46078">
        <ele>863.48</ele>
        <time>2018-06-17T15:21:41Z</time>
      </trkpt>
      <trkpt lat="45.07845" lon="5.46099">
        <ele>861.78</ele>
        <time>2018-06-17T15:21:42Z</time>
      </trkpt>
      <trkpt lat="45.07863" lon="5.46119">
        <ele>860.57</ele>
        <time>2018-06-17T15:21:43Z</time>
      </trkpt>
      <trkpt lat="45.07879" lon="5.46138">
        <ele>859.5</ele>
        <time>2018-06-17T15:21:44Z</time>
      </trkpt>
      <trkpt lat="45.07893" lon="5.46158">
        <ele>858.49</ele>
        <time>2018-06-17T15:21:45Z</time>
      </trkpt>
      <trkpt lat="45.07903" lon="5.46181">
        <ele>857.48</ele>
        <time>2018-06-17T15:21:46Z</time>
      </trkpt>
      <trkpt lat="45.0791" lon="5.46206">
        <ele>855.78</ele>
        <time>2018-06-17T15:21:47Z</time>
      </trkpt>
      <trkpt lat="45.07915" lon="5.46234">
        <ele>854.57</ele>
        <time>2018-06-17T15:21:48Z</time>
      </trkpt>
      <trkpt lat="45.07922" lon="5.46262">
        <ele>852.8</ele>
        <time>2018-06-17T15:21:49Z</time>
      </trkpt>
      <trkpt lat="45.07929" lon="5.46291">
        <ele>851.58</ele>
        <time>2018-06-17T15:21:50Z</time>
      </trkpt>
      <trkpt lat="45.07938" lon="5.4632">
        <ele>850.51</ele>
        <time>2018-06-17T15:21:51Z</time>
      </trkpt>
      <trkpt lat="45.07949" lon="5.46347">
        <ele>849.49</ele>
        <time>2018-06-17T15:21:52Z</time>
      </trkpt>
      <trkpt lat="45.07962" lon="5.46372">
        <ele>848.48</ele>
        <time>2018-06-17T15:21:53Z</time>
      </trkpt>
      <trkpt lat="45.07973" lon="5.46398">
        <ele>848.18</ele>
        <time>2018-06-17T15:21:54Z</time>
      </trkpt>
      <trkpt lat="45.07983" lon="5.46425">
        <ele>847.39</ele>
        <time>2018-06-17T15:21:55Z</time>
      </trkpt>
      <trkpt lat="45.0799" lon="5.46452">
        <ele>846.45</ele>
        <time>2018-06-17T15:21:56Z</time>
      </trkpt>
      <trkpt lat="45.07994" lon="5.46479">
        <ele>845.47</ele>
        <time>2018-06-17T15:21:57Z</time>
      </trkpt>
      <trkpt lat="45.07998" lon="5.46506">
        <ele>845.18</ele>
        <time>2018-06-17T15:21:58Z</time>
      </trkpt>
      <trkpt lat="45.07995" lon="5.4655">
        <ele>842.54</ele>
        <time>2018-06-17T15:22:00Z</time>
      </trkpt>
      <trkpt lat="45.07988" lon="5.46593">
        <ele>841.39</ele>
        <time>2018-06-17T15:22:02Z</time>
      </trkpt>
      <trkpt lat="45.07968" lon="5.466">
        <ele>841.85</ele>
        <time>2018-06-17T15:22:03Z</time>
      </trkpt>
      <trkpt lat="45.07953" lon="5.46632">
        <ele>838.81</ele>
        <time>2018-06-17T15:22:05Z</time>
      </trkpt>
      <trkpt lat="45.07938" lon="5.46665">
        <ele>837.21</ele>
        <time>2018-06-17T15:22:07Z</time>
      </trkpt>
      <trkpt lat="45.0795" lon="5.46692">
        <ele>835</ele>
        <time>2018-06-17T15:22:08Z</time>
      </trkpt>
      <trkpt lat="45.07955" lon="5.46731">
        <ele>833.22</ele>
        <time>2018-06-17T15:22:10Z</time>
      </trkpt>
      <trkpt lat="45.07974" lon="5.46761">
        <ele>831.45</ele>
        <time>2018-06-17T15:22:12Z</time>
      </trkpt>
      <trkpt lat="45.07992" lon="5.46769">
        <ele>831.17</ele>
        <time>2018-06-17T15:22:13Z</time>
      </trkpt>
      <trkpt lat="45.0801" lon="5.46785">
        <ele>831.09</ele>
        <time>2018-06-17T15:22:14Z</time>
      </trkpt>
      <trkpt lat="45.08033" lon="5.46811">
        <ele>831.05</ele>
        <time>2018-06-17T15:22:16Z</time>
      </trkpt>
      <trkpt lat="45.08042" lon="5.46853">
        <ele>830.35</ele>
        <time>2018-06-17T15:22:18Z</time>
      </trkpt>
      <trkpt lat="45.08043" lon="5.46893">
        <ele>828.47</ele>
        <time>2018-06-17T15:22:20Z</time>
      </trkpt>
      <trkpt lat="45.08052" lon="5.46927">
        <ele>826.69</ele>
        <time>2018-06-17T15:22:22Z</time>
      </trkpt>
      <trkpt lat="45.08071" lon="5.46963">
        <ele>825.41</ele>
        <time>2018-06-17T15:22:24Z</time>
      </trkpt>
      <trkpt lat="45.08087" lon="5.46979">
        <ele>824.46</ele>
        <time>2018-06-17T15:22:25Z</time>
      </trkpt>
      <trkpt lat="45.08114" lon="5.46991">
        <ele>822.77</ele>
        <time>2018-06-17T15:22:26Z</time>
      </trkpt>
      <trkpt lat="45.08134" lon="5.47008">
        <ele>820.17</ele>
        <time>2018-06-17T15:22:27Z</time>
      </trkpt>
      <trkpt lat="45.08155" lon="5.47026">
        <ele>819.38</ele>
        <time>2018-06-17T15:22:28Z</time>
      </trkpt>
      <trkpt lat="45.08173" lon="5.47034">
        <ele>819.15</ele>
        <time>2018-06-17T15:22:29Z</time>
      </trkpt>
      <trkpt lat="45.08194" lon="5.47053">
        <ele>819.78</ele>
        <time>2018-06-17T15:22:30Z</time>
      </trkpt>
      <trkpt lat="45.08217" lon="5.47075">
        <ele>818.57</ele>
        <time>2018-06-17T15:22:31Z</time>
      </trkpt>
      <trkpt lat="45.08231" lon="5.47101">
        <ele>817.5</ele>
        <time>2018-06-17T15:22:32Z</time>
      </trkpt>
      <trkpt lat="45.08243" lon="5.47123">
        <ele>817.89</ele>
        <time>2018-06-17T15:22:33Z</time>
      </trkpt>
      <trkpt lat="45.08252" lon="5.47145">
        <ele>817.3</ele>
        <time>2018-06-17T15:22:34Z</time>
      </trkpt>
      <trkpt lat="45.08256" lon="5.47174">
        <ele>816.42</ele>
        <time>2018-06-17T15:22:35Z</time>
      </trkpt>
      <trkpt lat="45.0826" lon="5.47224">
        <ele>813.56</ele>
        <time>2018-06-17T15:22:37Z</time>
      </trkpt>
      <trkpt lat="45.08258" lon="5.4727">
        <ele>810.58</ele>
        <time>2018-06-17T15:22:39Z</time>
      </trkpt>
      <trkpt lat="45.08262" lon="5.47312">
        <ele>807.58</ele>
        <time>2018-06-17T15:22:41Z</time>
      </trkpt>
      <trkpt lat="45.08282" lon="5.47353">
        <ele>806.19</ele>
        <time>2018-06-17T15:22:43Z</time>
      </trkpt>
      <trkpt lat="45.08292" lon="5.47378">
        <ele>805.39</ele>
        <time>2018-06-17T15:22:44Z</time>
      </trkpt>
      <trkpt lat="45.08294" lon="5.47426">
        <ele>802.56</ele>
        <time>2018-06-17T15:22:46Z</time>
      </trkpt>
      <trkpt lat="45.08288" lon="5.47472">
        <ele>799.78</ele>
        <time>2018-06-17T15:22:48Z</time>
      </trkpt>
      <trkpt lat="45.08285" lon="5.47515">
        <ele>798.21</ele>
        <time>2018-06-17T15:22:50Z</time>
      </trkpt>
      <trkpt lat="45.0829" lon="5.4754">
        <ele>797.4</ele>
        <time>2018-06-17T15:22:51Z</time>
      </trkpt>
      <trkpt lat="45.08291" lon="5.47586">
        <ele>794.77</ele>
        <time>2018-06-17T15:22:53Z</time>
      </trkpt>
      <trkpt lat="45.08302" lon="5.4763">
        <ele>792.01</ele>
        <time>2018-06-17T15:22:55Z</time>
      </trkpt>
      <trkpt lat="45.08308" lon="5.47676">
        <ele>789.53</ele>
        <time>2018-06-17T15:22:57Z</time>
      </trkpt>
      <trkpt lat="45.08319" lon="5.47716">
        <ele>786.99</ele>
        <time>2018-06-17T15:22:59Z</time>
      </trkpt>
      <trkpt lat="45.08334" lon="5.47752">
        <ele>784.52</ele>
        <time>2018-06-17T15:23:01Z</time>
      </trkpt>
      <trkpt lat="45.08348" lon="5.47786">
        <ele>782.48</ele>
        <time>2018-06-17T15:23:03Z</time>
      </trkpt>
      <trkpt lat="45.08366" lon="5.47821">
        <ele>781.18</ele>
        <time>2018-06-17T15:23:05Z</time>
      </trkpt>
      <trkpt lat="45.08379" lon="5.47851">
        <ele>781.06</ele>
        <time>2018-06-17T15:23:07Z</time>
      </trkpt>
      <trkpt lat="45.08382" lon="5.47884">
        <ele>780.14</ele>
        <time>2018-06-17T15:23:09Z</time>
      </trkpt>
      <trkpt lat="45.08368" lon="5.47917">
        <ele>777.75</ele>
        <time>2018-06-17T15:23:11Z</time>
      </trkpt>
      <trkpt lat="45.08356" lon="5.47954">
        <ele>775.5</ele>
        <time>2018-06-17T15:23:13Z</time>
      </trkpt>
      <trkpt lat="45.0834" lon="5.47977">
        <ele>775.18</ele>
        <time>2018-06-17T15:23:14Z</time>
      </trkpt>
      <trkpt lat="45.08323" lon="5.47999">
        <ele>774.39</ele>
        <time>2018-06-17T15:23:15Z</time>
      </trkpt>
      <trkpt lat="45.083" lon="5.48037">
        <ele>771.77</ele>
        <time>2018-06-17T15:23:17Z</time>
      </trkpt>
      <trkpt lat="45.08276" lon="5.48069">
        <ele>771.11</ele>
        <time>2018-06-17T15:23:19Z</time>
      </trkpt>
      <trkpt lat="45.0826" lon="5.48099">
        <ele>769.44</ele>
        <time>2018-06-17T15:23:21Z</time>
      </trkpt>
      <trkpt lat="45.08256" lon="5.48137">
        <ele>762.56</ele>
        <time>2018-06-17T15:23:24Z</time>
      </trkpt>
      <trkpt lat="45.08248" lon="5.48174">
        <ele>760.49</ele>
        <time>2018-06-17T15:23:26Z</time>
      </trkpt>
      <trkpt lat="45.08229" lon="5.48204">
        <ele>759.39</ele>
        <time>2018-06-17T15:23:28Z</time>
      </trkpt>
      <trkpt lat="45.08215" lon="5.48228">
        <ele>756.56</ele>
        <time>2018-06-17T15:23:30Z</time>
      </trkpt>
      <trkpt lat="45.08191" lon="5.48246">
        <ele>754.69</ele>
        <time>2018-06-17T15:23:32Z</time>
      </trkpt>
      <trkpt lat="45.08158" lon="5.48249">
        <ele>754.81</ele>
        <time>2018-06-17T15:23:34Z</time>
      </trkpt>
      <trkpt lat="45.08135" lon="5.48254">
        <ele>755.68</ele>
        <time>2018-06-17T15:23:35Z</time>
      </trkpt>
      <trkpt lat="45.08117" lon="5.48259">
        <ele>755.24</ele>
        <time>2018-06-17T15:23:36Z</time>
      </trkpt>
      <trkpt lat="45.08099" lon="5.48263">
        <ele>754.41</ele>
        <time>2018-06-17T15:23:37Z</time>
      </trkpt>
      <trkpt lat="45.08079" lon="5.48264">
        <ele>754.16</ele>
        <time>2018-06-17T15:23:38Z</time>
      </trkpt>
      <trkpt lat="45.08058" lon="5.48265">
        <ele>754.08</ele>
        <time>2018-06-17T15:23:39Z</time>
      </trkpt>
      <trkpt lat="45.08038" lon="5.48267">
        <ele>754.06</ele>
        <time>2018-06-17T15:23:40Z</time>
      </trkpt>
      <trkpt lat="45.0802" lon="5.48271">
        <ele>753.35</ele>
        <time>2018-06-17T15:23:41Z</time>
      </trkpt>
      <trkpt lat="45.07988" lon="5.48282">
        <ele>753.08</ele>
        <time>2018-06-17T15:23:43Z</time>
      </trkpt>
      <trkpt lat="45.0796" lon="5.4829">
        <ele>751.65</ele>
        <time>2018-06-17T15:23:45Z</time>
      </trkpt>
      <trkpt lat="45.07949" lon="5.48311">
        <ele>751.93</ele>
        <time>2018-06-17T15:23:46Z</time>
      </trkpt>
      <trkpt lat="45.07947" lon="5.48341">
        <ele>748.51</ele>
        <time>2018-06-17T15:23:47Z</time>
      </trkpt>
      <trkpt lat="45.07951" lon="5.48369">
        <ele>748.19</ele>
        <time>2018-06-17T15:23:48Z</time>
      </trkpt>
      <trkpt lat="45.07956" lon="5.48415">
        <ele>745.75</ele>
        <time>2018-06-17T15:23:50Z</time>
      </trkpt>
      <trkpt lat="45.07953" lon="5.48465">
        <ele>744.9</ele>
        <time>2018-06-17T15:23:52Z</time>
      </trkpt>
      <trkpt lat="45.07952" lon="5.48493">
        <ele>744.3</ele>
        <time>2018-06-17T15:23:53Z</time>
      </trkpt>
      <trkpt lat="45.07949" lon="5.4852">
        <ele>743.43</ele>
        <time>2018-06-17T15:23:54Z</time>
      </trkpt>
      <trkpt lat="45.07953" lon="5.48547">
        <ele>742.46</ele>
        <time>2018-06-17T15:23:55Z</time>
      </trkpt>
      <trkpt lat="45.07955" lon="5.4859">
        <ele>741.39</ele>
        <time>2018-06-17T15:23:57Z</time>
      </trkpt>
      <trkpt lat="45.07954" lon="5.48619">
        <ele>739.26</ele>
        <time>2018-06-17T15:23:59Z</time>
      </trkpt>
      <trkpt lat="45.07936" lon="5.48643">
        <ele>741.3</ele>
        <time>2018-06-17T15:24:02Z</time>
      </trkpt>
      <trkpt lat="45.07911" lon="5.4864">
        <ele>741.82</ele>
        <time>2018-06-17T15:24:03Z</time>
      </trkpt>
      <trkpt lat="45.07888" lon="5.48666">
        <ele>739.72</ele>
        <time>2018-06-17T15:24:05Z</time>
      </trkpt>
      <trkpt lat="45.07856" lon="5.48689">
        <ele>738.41</ele>
        <time>2018-06-17T15:24:07Z</time>
      </trkpt>
      <trkpt lat="45.07819" lon="5.48714">
        <ele>738.08</ele>
        <time>2018-06-17T15:24:09Z</time>
      </trkpt>
      <trkpt lat="45.07799" lon="5.48738">
        <ele>738.06</ele>
        <time>2018-06-17T15:24:10Z</time>
      </trkpt>
      <trkpt lat="45.07782" lon="5.48758">
        <ele>737.35</ele>
        <time>2018-06-17T15:24:11Z</time>
      </trkpt>
      <trkpt lat="45.07767" lon="5.48774">
        <ele>736.44</ele>
        <time>2018-06-17T15:24:12Z</time>
      </trkpt>
      <trkpt lat="45.07751" lon="5.48787">
        <ele>734.77</ele>
        <time>2018-06-17T15:24:13Z</time>
      </trkpt>
      <trkpt lat="45.07735" lon="5.488">
        <ele>734.26</ele>
        <time>2018-06-17T15:24:14Z</time>
      </trkpt>
      <trkpt lat="45.07702" lon="5.48807">
        <ele>733.16</ele>
        <time>2018-06-17T15:24:16Z</time>
      </trkpt>
      <trkpt lat="45.07685" lon="5.48819">
        <ele>733.78</ele>
        <time>2018-06-17T15:24:17Z</time>
      </trkpt>
      <trkpt lat="45.07666" lon="5.48831">
        <ele>733.97</ele>
        <time>2018-06-17T15:24:18Z</time>
      </trkpt>
      <trkpt lat="45.07649" lon="5.48848">
        <ele>734.02</ele>
        <time>2018-06-17T15:24:19Z</time>
      </trkpt>
      <trkpt lat="45.07632" lon="5.48865">
        <ele>733.34</ele>
        <time>2018-06-17T15:24:20Z</time>
      </trkpt>
      <trkpt lat="45.07616" lon="5.48884">
        <ele>733.14</ele>
        <time>2018-06-17T15:24:21Z</time>
      </trkpt>
      <trkpt lat="45.07601" lon="5.48901">
        <ele>731.68</ele>
        <time>2018-06-17T15:24:22Z</time>
      </trkpt>
      <trkpt lat="45.07576" lon="5.48928">
        <ele>730.41</ele>
        <time>2018-06-17T15:24:24Z</time>
      </trkpt>
      <trkpt lat="45.07556" lon="5.4895">
        <ele>730.99</ele>
        <time>2018-06-17T15:24:26Z</time>
      </trkpt>
      <trkpt lat="45.07532" lon="5.4896">
        <ele>731.25</ele>
        <time>2018-06-17T15:24:28Z</time>
      </trkpt>
      <trkpt lat="45.07507" lon="5.48985">
        <ele>731.07</ele>
        <time>2018-06-17T15:24:30Z</time>
      </trkpt>
      <trkpt lat="45.07476" lon="5.49005">
        <ele>729.02</ele>
        <time>2018-06-17T15:24:32Z</time>
      </trkpt>
      <trkpt lat="45.07451" lon="5.49036">
        <ele>729.75</ele>
        <time>2018-06-17T15:24:34Z</time>
      </trkpt>
      <trkpt lat="45.07426" lon="5.49064">
        <ele>728.2</ele>
        <time>2018-06-17T15:24:36Z</time>
      </trkpt>
      <trkpt lat="45.0741" lon="5.49096">
        <ele>726.66</ele>
        <time>2018-06-17T15:24:38Z</time>
      </trkpt>
      <trkpt lat="45.07397" lon="5.49128">
        <ele>725.19</ele>
        <time>2018-06-17T15:24:40Z</time>
      </trkpt>
      <trkpt lat="45.07387" lon="5.4916">
        <ele>724.15</ele>
        <time>2018-06-17T15:24:42Z</time>
      </trkpt>
      <trkpt lat="45.07379" lon="5.49184">
        <ele>723.15</ele>
        <time>2018-06-17T15:24:44Z</time>
      </trkpt>
      <trkpt lat="45.07368" lon="5.49207">
        <ele>722.08</ele>
        <time>2018-06-17T15:24:47Z</time>
      </trkpt>
      <trkpt lat="45.07347" lon="5.49212">
        <ele>721.78</ele>
        <time>2018-06-17T15:24:50Z</time>
      </trkpt>
      <trkpt lat="45.07329" lon="5.49221">
        <ele>722.02</ele>
        <time>2018-06-17T15:24:52Z</time>
      </trkpt>
      <trkpt lat="45.07305" lon="5.49237">
        <ele>722.05</ele>
        <time>2018-06-17T15:24:54Z</time>
      </trkpt>
      <trkpt lat="45.07269" lon="5.49258">
        <ele>722.05</ele>
        <time>2018-06-17T15:24:56Z</time>
      </trkpt>
      <trkpt lat="45.07251" lon="5.49267">
        <ele>722.05</ele>
        <time>2018-06-17T15:24:57Z</time>
      </trkpt>
      <trkpt lat="45.07232" lon="5.49274">
        <ele>722.75</ele>
        <time>2018-06-17T15:24:58Z</time>
      </trkpt>
      <trkpt lat="45.07215" lon="5.49282">
        <ele>723.66</ele>
        <time>2018-06-17T15:24:59Z</time>
      </trkpt>
      <trkpt lat="45.07198" lon="5.49291">
        <ele>723.23</ele>
        <time>2018-06-17T15:25:00Z</time>
      </trkpt>
      <trkpt lat="45.07179" lon="5.49302">
        <ele>724.5</ele>
        <time>2018-06-17T15:25:01Z</time>
      </trkpt>
      <trkpt lat="45.07163" lon="5.49316">
        <ele>726.29</ele>
        <time>2018-06-17T15:25:02Z</time>
      </trkpt>
      <trkpt lat="45.07147" lon="5.49332">
        <ele>727.52</ele>
        <time>2018-06-17T15:25:03Z</time>
      </trkpt>
      <trkpt lat="45.07131" lon="5.49353">
        <ele>727.89</ele>
        <time>2018-06-17T15:25:04Z</time>
      </trkpt>
      <trkpt lat="45.07119" lon="5.49381">
        <ele>728</ele>
        <time>2018-06-17T15:25:05Z</time>
      </trkpt>
      <trkpt lat="45.07109" lon="5.4941">
        <ele>727.33</ele>
        <time>2018-06-17T15:25:06Z</time>
      </trkpt>
      <trkpt lat="45.07114" lon="5.49445">
        <ele>729.23</ele>
        <time>2018-06-17T15:25:07Z</time>
      </trkpt>
      <trkpt lat="45.07112" lon="5.49475">
        <ele>729.8</ele>
        <time>2018-06-17T15:25:08Z</time>
      </trkpt>
      <trkpt lat="45.07119" lon="5.49505">
        <ele>731.38</ele>
        <time>2018-06-17T15:25:09Z</time>
      </trkpt>
      <trkpt lat="45.07127" lon="5.49533">
        <ele>733.25</ele>
        <time>2018-06-17T15:25:10Z</time>
      </trkpt>
      <trkpt lat="45.07138" lon="5.49558">
        <ele>734.51</ele>
        <time>2018-06-17T15:25:11Z</time>
      </trkpt>
      <trkpt lat="45.07146" lon="5.49606">
        <ele>735.21</ele>
        <time>2018-06-17T15:25:13Z</time>
      </trkpt>
      <trkpt lat="45.07152" lon="5.49636">
        <ele>735.8</ele>
        <time>2018-06-17T15:25:14Z</time>
      </trkpt>
      <trkpt lat="45.07156" lon="5.49665">
        <ele>736.67</ele>
        <time>2018-06-17T15:25:15Z</time>
      </trkpt>
      <trkpt lat="45.07161" lon="5.49692">
        <ele>736.94</ele>
        <time>2018-06-17T15:25:16Z</time>
      </trkpt>
      <trkpt lat="45.07155" lon="5.49743">
        <ele>738.65</ele>
        <time>2018-06-17T15:25:18Z</time>
      </trkpt>
      <trkpt lat="45.07152" lon="5.49771">
        <ele>739.63</ele>
        <time>2018-06-17T15:25:19Z</time>
      </trkpt>
      <trkpt lat="45.07147" lon="5.49802">
        <ele>740.62</ele>
        <time>2018-06-17T15:25:20Z</time>
      </trkpt>
      <trkpt lat="45.07123" lon="5.49823">
        <ele>740.92</ele>
        <time>2018-06-17T15:25:21Z</time>
      </trkpt>
      <trkpt lat="45.07102" lon="5.49848">
        <ele>741.71</ele>
        <time>2018-06-17T15:25:22Z</time>
      </trkpt>
      <trkpt lat="45.0709" lon="5.49875">
        <ele>742.65</ele>
        <time>2018-06-17T15:25:23Z</time>
      </trkpt>
      <trkpt lat="45.0708" lon="5.49902">
        <ele>743.63</ele>
        <time>2018-06-17T15:25:24Z</time>
      </trkpt>
      <trkpt lat="45.07072" lon="5.49933">
        <ele>743.92</ele>
        <time>2018-06-17T15:25:25Z</time>
      </trkpt>
      <trkpt lat="45.07064" lon="5.49963">
        <ele>745.41</ele>
        <time>2018-06-17T15:25:26Z</time>
      </trkpt>
      <trkpt lat="45.07057" lon="5.49995">
        <ele>746.56</ele>
        <time>2018-06-17T15:25:27Z</time>
      </trkpt>
      <trkpt lat="45.07053" lon="5.50027">
        <ele>748.3</ele>
        <time>2018-06-17T15:25:28Z</time>
      </trkpt>
      <trkpt lat="45.07049" lon="5.50057">
        <ele>748.82</ele>
        <time>2018-06-17T15:25:29Z</time>
      </trkpt>
      <trkpt lat="45.07041" lon="5.501">
        <ele>751.34</ele>
        <time>2018-06-17T15:25:31Z</time>
      </trkpt>
      <trkpt lat="45.07034" lon="5.50135">
        <ele>752.69</ele>
        <time>2018-06-17T15:25:33Z</time>
      </trkpt>
      <trkpt lat="45.07022" lon="5.50169">
        <ele>753.72</ele>
        <time>2018-06-17T15:25:35Z</time>
      </trkpt>
      <trkpt lat="45.07026" lon="5.50205">
        <ele>756.33</ele>
        <time>2018-06-17T15:25:37Z</time>
      </trkpt>
      <trkpt lat="45.07018" lon="5.50239">
        <ele>758.59</ele>
        <time>2018-06-17T15:25:39Z</time>
      </trkpt>
      <trkpt lat="45.07031" lon="5.50288">
        <ele>759.92</ele>
        <time>2018-06-17T15:25:41Z</time>
      </trkpt>
      <trkpt lat="45.07031" lon="5.50315">
        <ele>760.01</ele>
        <time>2018-06-17T15:25:42Z</time>
      </trkpt>
      <trkpt lat="45.0703" lon="5.50342">
        <ele>760.74</ele>
        <time>2018-06-17T15:25:43Z</time>
      </trkpt>
      <trkpt lat="45.07027" lon="5.50388">
        <ele>763.33</ele>
        <time>2018-06-17T15:25:45Z</time>
      </trkpt>
      <trkpt lat="45.07038" lon="5.50439">
        <ele>765.59</ele>
        <time>2018-06-17T15:25:47Z</time>
      </trkpt>
      <trkpt lat="45.07052" lon="5.50488">
        <ele>766.92</ele>
        <time>2018-06-17T15:25:49Z</time>
      </trkpt>
      <trkpt lat="45.07055" lon="5.50539">
        <ele>768.65</ele>
        <time>2018-06-17T15:25:51Z</time>
      </trkpt>
      <trkpt lat="45.07053" lon="5.50565">
        <ele>769.63</ele>
        <time>2018-06-17T15:25:52Z</time>
      </trkpt>
      <trkpt lat="45.07048" lon="5.50591">
        <ele>769.92</ele>
        <time>2018-06-17T15:25:53Z</time>
      </trkpt>
      <trkpt lat="45.07038" lon="5.50614">
        <ele>770.01</ele>
        <time>2018-06-17T15:25:54Z</time>
      </trkpt>
      <trkpt lat="45.07018" lon="5.50655">
        <ele>770.26</ele>
        <time>2018-06-17T15:25:56Z</time>
      </trkpt>
      <trkpt lat="45.0701" lon="5.50678">
        <ele>770.11</ele>
        <time>2018-06-17T15:25:57Z</time>
      </trkpt>
      <trkpt lat="45.06989" lon="5.50717">
        <ele>771.66</ele>
        <time>2018-06-17T15:25:59Z</time>
      </trkpt>
      <trkpt lat="45.0697" lon="5.50758">
        <ele>773.41</ele>
        <time>2018-06-17T15:26:01Z</time>
      </trkpt>
      <trkpt lat="45.06961" lon="5.50807">
        <ele>776.3</ele>
        <time>2018-06-17T15:26:03Z</time>
      </trkpt>
      <trkpt lat="45.06949" lon="5.50855">
        <ele>778.59</ele>
        <time>2018-06-17T15:26:05Z</time>
      </trkpt>
      <trkpt lat="45.06942" lon="5.50904">
        <ele>779.71</ele>
        <time>2018-06-17T15:26:07Z</time>
      </trkpt>
      <trkpt lat="45.06939" lon="5.50954">
        <ele>781.63</ele>
        <time>2018-06-17T15:26:09Z</time>
      </trkpt>
      <trkpt lat="45.06936" lon="5.51006">
        <ele>782.22</ele>
        <time>2018-06-17T15:26:11Z</time>
      </trkpt>
      <trkpt lat="45.06936" lon="5.51034">
        <ele>782.8</ele>
        <time>2018-06-17T15:26:12Z</time>
      </trkpt>
      <trkpt lat="45.06933" lon="5.51061">
        <ele>782.97</ele>
        <time>2018-06-17T15:26:13Z</time>
      </trkpt>
      <trkpt lat="45.06928" lon="5.51088">
        <ele>783.73</ele>
        <time>2018-06-17T15:26:14Z</time>
      </trkpt>
      <trkpt lat="45.06921" lon="5.51114">
        <ele>784.65</ele>
        <time>2018-06-17T15:26:15Z</time>
      </trkpt>
      <trkpt lat="45.06913" lon="5.5114">
        <ele>784.93</ele>
        <time>2018-06-17T15:26:16Z</time>
      </trkpt>
      <trkpt lat="45.06906" lon="5.51168">
        <ele>786.41</ele>
        <time>2018-06-17T15:26:17Z</time>
      </trkpt>
      <trkpt lat="45.06899" lon="5.51197">
        <ele>788.26</ele>
        <time>2018-06-17T15:26:18Z</time>
      </trkpt>
      <trkpt lat="45.06892" lon="5.51228">
        <ele>789.51</ele>
        <time>2018-06-17T15:26:19Z</time>
      </trkpt>
      <trkpt lat="45.06884" lon="5.5126">
        <ele>790.59</ele>
        <time>2018-06-17T15:26:20Z</time>
      </trkpt>
      <trkpt lat="45.06876" lon="5.51291">
        <ele>792.31</ele>
        <time>2018-06-17T15:26:21Z</time>
      </trkpt>
      <trkpt lat="45.06866" lon="5.5132">
        <ele>793.53</ele>
        <time>2018-06-17T15:26:22Z</time>
      </trkpt>
      <trkpt lat="45.06858" lon="5.51348">
        <ele>794.59</ele>
        <time>2018-06-17T15:26:23Z</time>
      </trkpt>
      <trkpt lat="45.0685" lon="5.51377">
        <ele>795.61</ele>
        <time>2018-06-17T15:26:24Z</time>
      </trkpt>
      <trkpt lat="45.06843" lon="5.51402">
        <ele>797.32</ele>
        <time>2018-06-17T15:26:25Z</time>
      </trkpt>
      <trkpt lat="45.06836" lon="5.51427">
        <ele>798.53</ele>
        <time>2018-06-17T15:26:26Z</time>
      </trkpt>
      <trkpt lat="45.06826" lon="5.51475">
        <ele>799.7</ele>
        <time>2018-06-17T15:26:28Z</time>
      </trkpt>
      <trkpt lat="45.06824" lon="5.51501">
        <ele>799.95</ele>
        <time>2018-06-17T15:26:29Z</time>
      </trkpt>
      <trkpt lat="45.06825" lon="5.51544">
        <ele>800.04</ele>
        <time>2018-06-17T15:26:31Z</time>
      </trkpt>
      <trkpt lat="45.06818" lon="5.51594">
        <ele>802.36</ele>
        <time>2018-06-17T15:26:33Z</time>
      </trkpt>
      <trkpt lat="45.06805" lon="5.51638">
        <ele>802.78</ele>
        <time>2018-06-17T15:26:35Z</time>
      </trkpt>
      <trkpt lat="45.06804" lon="5.51674">
        <ele>806.94</ele>
        <time>2018-06-17T15:26:37Z</time>
      </trkpt>
      <trkpt lat="45.06821" lon="5.51689">
        <ele>807.95</ele>
        <time>2018-06-17T15:26:39Z</time>
      </trkpt>
      <trkpt lat="45.06838" lon="5.51711">
        <ele>809.65</ele>
        <time>2018-06-17T15:26:41Z</time>
      </trkpt>
      <trkpt lat="45.0686" lon="5.51729">
        <ele>811.83</ele>
        <time>2018-06-17T15:26:43Z</time>
      </trkpt>
      <trkpt lat="45.06879" lon="5.51759">
        <ele>813.43</ele>
        <time>2018-06-17T15:26:45Z</time>
      </trkpt>
      <trkpt lat="45.06907" lon="5.5178">
        <ele>818.33</ele>
        <time>2018-06-17T15:26:47Z</time>
      </trkpt>
      <trkpt lat="45.06932" lon="5.51807">
        <ele>819.89</ele>
        <time>2018-06-17T15:26:49Z</time>
      </trkpt>
      <trkpt lat="45.06956" lon="5.51842">
        <ele>820.25</ele>
        <time>2018-06-17T15:26:51Z</time>
      </trkpt>
      <trkpt lat="45.06978" lon="5.51878">
        <ele>820.28</ele>
        <time>2018-06-17T15:26:53Z</time>
      </trkpt>
      <trkpt lat="45.07004" lon="5.51912">
        <ele>820.07</ele>
        <time>2018-06-17T15:26:55Z</time>
      </trkpt>
      <trkpt lat="45.07028" lon="5.5194">
        <ele>820.05</ele>
        <time>2018-06-17T15:26:57Z</time>
      </trkpt>
      <trkpt lat="45.07045" lon="5.51963">
        <ele>820.05</ele>
        <time>2018-06-17T15:26:59Z</time>
      </trkpt>
      <trkpt lat="45.07064" lon="5.51986">
        <ele>820.05</ele>
        <time>2018-06-17T15:27:01Z</time>
      </trkpt>
      <trkpt lat="45.07095" lon="5.51974">
        <ele>821.87</ele>
        <time>2018-06-17T15:27:03Z</time>
      </trkpt>
      <trkpt lat="45.07114" lon="5.51974">
        <ele>822.7</ele>
        <time>2018-06-17T15:27:04Z</time>
      </trkpt>
      <trkpt lat="45.07141" lon="5.51968">
        <ele>823.23</ele>
        <time>2018-06-17T15:27:06Z</time>
      </trkpt>
      <trkpt lat="45.07163" lon="5.51982">
        <ele>824.68</ele>
        <time>2018-06-17T15:27:08Z</time>
      </trkpt>
      <trkpt lat="45.07186" lon="5.51993">
        <ele>825.72</ele>
        <time>2018-06-17T15:27:10Z</time>
      </trkpt>
      <trkpt lat="45.07212" lon="5.52003">
        <ele>826.72</ele>
        <time>2018-06-17T15:27:12Z</time>
      </trkpt>
      <trkpt lat="45.07228" lon="5.52017">
        <ele>826.95</ele>
        <time>2018-06-17T15:27:13Z</time>
      </trkpt>
      <trkpt lat="45.07254" lon="5.52033">
        <ele>827.04</ele>
        <time>2018-06-17T15:27:15Z</time>
      </trkpt>
      <trkpt lat="45.07296" lon="5.52022">
        <ele>827.75</ele>
        <time>2018-06-17T15:27:17Z</time>
      </trkpt>
      <trkpt lat="45.07314" lon="5.52028">
        <ele>828.66</ele>
        <time>2018-06-17T15:27:18Z</time>
      </trkpt>
      <trkpt lat="45.07333" lon="5.5203">
        <ele>830.33</ele>
        <time>2018-06-17T15:27:19Z</time>
      </trkpt>
      <trkpt lat="45.0737" lon="5.52037">
        <ele>835.11</ele>
        <time>2018-06-17T15:27:21Z</time>
      </trkpt>
      <trkpt lat="45.0739" lon="5.5204">
        <ele>837.17</ele>
        <time>2018-06-17T15:27:22Z</time>
      </trkpt>
      <trkpt lat="45.07411" lon="5.52041">
        <ele>839.88</ele>
        <time>2018-06-17T15:27:23Z</time>
      </trkpt>
      <trkpt lat="45.07432" lon="5.52042">
        <ele>842.1</ele>
        <time>2018-06-17T15:27:24Z</time>
      </trkpt>
      <trkpt lat="45.07452" lon="5.52044">
        <ele>842.76</ele>
        <time>2018-06-17T15:27:25Z</time>
      </trkpt>
      <trkpt lat="45.07472" lon="5.52047">
        <ele>842.96</ele>
        <time>2018-06-17T15:27:26Z</time>
      </trkpt>
      <trkpt lat="45.07501" lon="5.52028">
        <ele>846.05</ele>
        <time>2018-06-17T15:27:28Z</time>
      </trkpt>
      <trkpt lat="45.07529" lon="5.52039">
        <ele>854.28</ele>
        <time>2018-06-17T15:27:31Z</time>
      </trkpt>
      <trkpt lat="45.07548" lon="5.52057">
        <ele>856.59</ele>
        <time>2018-06-17T15:27:33Z</time>
      </trkpt>
      <trkpt lat="45.07561" lon="5.52087">
        <ele>857.71</ele>
        <time>2018-06-17T15:27:35Z</time>
      </trkpt>
      <trkpt lat="45.07587" lon="5.52114">
        <ele>857.32</ele>
        <time>2018-06-17T15:27:37Z</time>
      </trkpt>
      <trkpt lat="45.07618" lon="5.52138">
        <ele>859.1</ele>
        <time>2018-06-17T15:27:39Z</time>
      </trkpt>
      <trkpt lat="45.07645" lon="5.52152">
        <ele>859.05</ele>
        <time>2018-06-17T15:27:41Z</time>
      </trkpt>
      <trkpt lat="45.07663" lon="5.52157">
        <ele>859.75</ele>
        <time>2018-06-17T15:27:42Z</time>
      </trkpt>
      <trkpt lat="45.07691" lon="5.52147">
        <ele>859.32</ele>
        <time>2018-06-17T15:27:44Z</time>
      </trkpt>
      <trkpt lat="45.07728" lon="5.52134">
        <ele>859.98</ele>
        <time>2018-06-17T15:27:46Z</time>
      </trkpt>
      <trkpt lat="45.07749" lon="5.52127">
        <ele>860.73</ele>
        <time>2018-06-17T15:27:47Z</time>
      </trkpt>
      <trkpt lat="45.0777" lon="5.52116">
        <ele>862.35</ele>
        <time>2018-06-17T15:27:48Z</time>
      </trkpt>
      <trkpt lat="45.07788" lon="5.52112">
        <ele>864.24</ele>
        <time>2018-06-17T15:27:49Z</time>
      </trkpt>
      <trkpt lat="45.07806" lon="5.52115">
        <ele>867.61</ele>
        <time>2018-06-17T15:27:50Z</time>
      </trkpt>
      <trkpt lat="45.07841" lon="5.5212">
        <ele>872.35</ele>
        <time>2018-06-17T15:27:52Z</time>
      </trkpt>
      <trkpt lat="45.07876" lon="5.52121">
        <ele>876.91</ele>
        <time>2018-06-17T15:27:54Z</time>
      </trkpt>
      <trkpt lat="45.07909" lon="5.5212">
        <ele>880.26</ele>
        <time>2018-06-17T15:27:56Z</time>
      </trkpt>
      <trkpt lat="45.07939" lon="5.52129">
        <ele>881.89</ele>
        <time>2018-06-17T15:27:58Z</time>
      </trkpt>
      <trkpt lat="45.07967" lon="5.52133">
        <ele>884.55</ele>
        <time>2018-06-17T15:28:00Z</time>
      </trkpt>
      <trkpt lat="45.07992" lon="5.52149">
        <ele>888.22</ele>
        <time>2018-06-17T15:28:02Z</time>
      </trkpt>
      <trkpt lat="45.08007" lon="5.52167">
        <ele>890.58</ele>
        <time>2018-06-17T15:28:04Z</time>
      </trkpt>
      <trkpt lat="45.08027" lon="5.52181">
        <ele>892.62</ele>
        <time>2018-06-17T15:28:06Z</time>
      </trkpt>
      <trkpt lat="45.08054" lon="5.52184">
        <ele>892.1</ele>
        <time>2018-06-17T15:28:08Z</time>
      </trkpt>
      <trkpt lat="45.08082" lon="5.52173">
        <ele>893.66</ele>
        <time>2018-06-17T15:28:10Z</time>
      </trkpt>
      <trkpt lat="45.08115" lon="5.52136">
        <ele>894.71</ele>
        <time>2018-06-17T15:28:12Z</time>
      </trkpt>
      <trkpt lat="45.08128" lon="5.52117">
        <ele>895.65</ele>
        <time>2018-06-17T15:28:13Z</time>
      </trkpt>
      <trkpt lat="45.08149" lon="5.52115">
        <ele>896.63</ele>
        <time>2018-06-17T15:28:14Z</time>
      </trkpt>
      <trkpt lat="45.08179" lon="5.52108">
        <ele>900.44</ele>
        <time>2018-06-17T15:28:16Z</time>
      </trkpt>
      <trkpt lat="45.08203" lon="5.52103">
        <ele>901.69</ele>
        <time>2018-06-17T15:28:18Z</time>
      </trkpt>
      <trkpt lat="45.08234" lon="5.52115">
        <ele>903.14</ele>
        <time>2018-06-17T15:28:20Z</time>
      </trkpt>
      <trkpt lat="45.08255" lon="5.52093">
        <ele>905.79</ele>
        <time>2018-06-17T15:28:22Z</time>
      </trkpt>
      <trkpt lat="45.08266" lon="5.52063">
        <ele>911.77</ele>
        <time>2018-06-17T15:28:24Z</time>
      </trkpt>
      <trkpt lat="45.08272" lon="5.52033">
        <ele>913.84</ele>
        <time>2018-06-17T15:28:26Z</time>
      </trkpt>
      <trkpt lat="45.08281" lon="5.52009">
        <ele>915.85</ele>
        <time>2018-06-17T15:28:28Z</time>
      </trkpt>
      <trkpt lat="45.0831" lon="5.51997">
        <ele>916.94</ele>
        <time>2018-06-17T15:28:30Z</time>
      </trkpt>
      <trkpt lat="45.08351" lon="5.51996">
        <ele>917.74</ele>
        <time>2018-06-17T15:28:32Z</time>
      </trkpt>
      <trkpt lat="45.0837" lon="5.52002">
        <ele>919.36</ele>
        <time>2018-06-17T15:28:33Z</time>
      </trkpt>
      <trkpt lat="45.08389" lon="5.52012">
        <ele>920.54</ele>
        <time>2018-06-17T15:28:34Z</time>
      </trkpt>
      <trkpt lat="45.08417" lon="5.52019">
        <ele>922.61</ele>
        <time>2018-06-17T15:28:36Z</time>
      </trkpt>
      <trkpt lat="45.08446" lon="5.52026">
        <ele>925.95</ele>
        <time>2018-06-17T15:28:38Z</time>
      </trkpt>
      <trkpt lat="45.08471" lon="5.52032">
        <ele>926.95</ele>
        <time>2018-06-17T15:28:40Z</time>
      </trkpt>
      <trkpt lat="45.08481" lon="5.52053">
        <ele>927.72</ele>
        <time>2018-06-17T15:28:41Z</time>
      </trkpt>
      <trkpt lat="45.08496" lon="5.52087">
        <ele>927.95</ele>
        <time>2018-06-17T15:28:42Z</time>
      </trkpt>
      <trkpt lat="45.08508" lon="5.52108">
        <ele>928.02</ele>
        <time>2018-06-17T15:28:43Z</time>
      </trkpt>
      <trkpt lat="45.0852" lon="5.52128">
        <ele>927.34</ele>
        <time>2018-06-17T15:28:44Z</time>
      </trkpt>
      <trkpt lat="45.08532" lon="5.52151">
        <ele>927.84</ele>
        <time>2018-06-17T15:28:45Z</time>
      </trkpt>
      <trkpt lat="45.08542" lon="5.52174">
        <ele>928.69</ele>
        <time>2018-06-17T15:28:46Z</time>
      </trkpt>
      <trkpt lat="45.08554" lon="5.52196">
        <ele>928.94</ele>
        <time>2018-06-17T15:28:47Z</time>
      </trkpt>
      <trkpt lat="45.0857" lon="5.52213">
        <ele>929.02</ele>
        <time>2018-06-17T15:28:48Z</time>
      </trkpt>
      <trkpt lat="45.08584" lon="5.52231">
        <ele>929.04</ele>
        <time>2018-06-17T15:28:49Z</time>
      </trkpt>
      <trkpt lat="45.08604" lon="5.52271">
        <ele>929.96</ele>
        <time>2018-06-17T15:28:51Z</time>
      </trkpt>
      <trkpt lat="45.08597" lon="5.52313">
        <ele>929.34</ele>
        <time>2018-06-17T15:28:53Z</time>
      </trkpt>
      <trkpt lat="45.08586" lon="5.52354">
        <ele>929.08</ele>
        <time>2018-06-17T15:28:55Z</time>
      </trkpt>
      <trkpt lat="45.08577" lon="5.52392">
        <ele>928.84</ele>
        <time>2018-06-17T15:28:57Z</time>
      </trkpt>
      <trkpt lat="45.08572" lon="5.52423">
        <ele>929.73</ele>
        <time>2018-06-17T15:28:59Z</time>
      </trkpt>
      <trkpt lat="45.08562" lon="5.52453">
        <ele>931.71</ele>
        <time>2018-06-17T15:29:02Z</time>
      </trkpt>
      <trkpt lat="45.08556" lon="5.52477">
        <ele>932.96</ele>
        <time>2018-06-17T15:29:06Z</time>
      </trkpt>
      <trkpt lat="45.0855" lon="5.52502">
        <ele>932.75</ele>
        <time>2018-06-17T15:29:13Z</time>
      </trkpt>
      <trkpt lat="45.0854" lon="5.52536">
        <ele>932.07</ele>
        <time>2018-06-17T15:29:17Z</time>
      </trkpt>
      <trkpt lat="45.08532" lon="5.52571">
        <ele>932.05</ele>
        <time>2018-06-17T15:29:19Z</time>
      </trkpt>
      <trkpt lat="45.08522" lon="5.52615">
        <ele>932.75</ele>
        <time>2018-06-17T15:29:21Z</time>
      </trkpt>
      <trkpt lat="45.0851" lon="5.52661">
        <ele>933.93</ele>
        <time>2018-06-17T15:29:23Z</time>
      </trkpt>
      <trkpt lat="45.08503" lon="5.52685">
        <ele>934.01</ele>
        <time>2018-06-17T15:29:24Z</time>
      </trkpt>
      <trkpt lat="45.08497" lon="5.52709">
        <ele>934.74</ele>
        <time>2018-06-17T15:29:25Z</time>
      </trkpt>
      <trkpt lat="45.08485" lon="5.52756">
        <ele>935.93</ele>
        <time>2018-06-17T15:29:27Z</time>
      </trkpt>
      <trkpt lat="45.08475" lon="5.52802">
        <ele>936.04</ele>
        <time>2018-06-17T15:29:29Z</time>
      </trkpt>
      <trkpt lat="45.08467" lon="5.52838">
        <ele>936.05</ele>
        <time>2018-06-17T15:29:31Z</time>
      </trkpt>
      <trkpt lat="45.0846" lon="5.52874">
        <ele>936.05</ele>
        <time>2018-06-17T15:29:33Z</time>
      </trkpt>
      <trkpt lat="45.08456" lon="5.52921">
        <ele>936.05</ele>
        <time>2018-06-17T15:29:35Z</time>
      </trkpt>
      <trkpt lat="45.08454" lon="5.52947">
        <ele>936.05</ele>
        <time>2018-06-17T15:29:36Z</time>
      </trkpt>
      <trkpt lat="45.08449" lon="5.52975">
        <ele>936.75</ele>
        <time>2018-06-17T15:29:37Z</time>
      </trkpt>
      <trkpt lat="45.08443" lon="5.53002">
        <ele>936.96</ele>
        <time>2018-06-17T15:29:38Z</time>
      </trkpt>
      <trkpt lat="45.08435" lon="5.5303">
        <ele>937.02</ele>
        <time>2018-06-17T15:29:39Z</time>
      </trkpt>
      <trkpt lat="45.08426" lon="5.5306">
        <ele>936.34</ele>
        <time>2018-06-17T15:29:40Z</time>
      </trkpt>
      <trkpt lat="45.08412" lon="5.5309">
        <ele>935.44</ele>
        <time>2018-06-17T15:29:41Z</time>
      </trkpt>
      <trkpt lat="45.0839" lon="5.53115">
        <ele>935.87</ele>
        <time>2018-06-17T15:29:42Z</time>
      </trkpt>
      <trkpt lat="45.08359" lon="5.53129">
        <ele>936.69</ele>
        <time>2018-06-17T15:29:43Z</time>
      </trkpt>
      <trkpt lat="45.08335" lon="5.53151">
        <ele>936.94</ele>
        <time>2018-06-17T15:29:44Z</time>
      </trkpt>
      <trkpt lat="45.08311" lon="5.53173">
        <ele>937.02</ele>
        <time>2018-06-17T15:29:45Z</time>
      </trkpt>
      <trkpt lat="45.08288" lon="5.53194">
        <ele>937.04</ele>
        <time>2018-06-17T15:29:46Z</time>
      </trkpt>
      <trkpt lat="45.08265" lon="5.53215">
        <ele>937.75</ele>
        <time>2018-06-17T15:29:47Z</time>
      </trkpt>
      <trkpt lat="45.08243" lon="5.53234">
        <ele>938.66</ele>
        <time>2018-06-17T15:29:48Z</time>
      </trkpt>
      <trkpt lat="45.08222" lon="5.53251">
        <ele>938.93</ele>
        <time>2018-06-17T15:29:49Z</time>
      </trkpt>
      <trkpt lat="45.082" lon="5.53269">
        <ele>939.71</ele>
        <time>2018-06-17T15:29:50Z</time>
      </trkpt>
      <trkpt lat="45.08176" lon="5.53283">
        <ele>939.95</ele>
        <time>2018-06-17T15:29:51Z</time>
      </trkpt>
      <trkpt lat="45.08151" lon="5.53295">
        <ele>940.72</ele>
        <time>2018-06-17T15:29:52Z</time>
      </trkpt>
      <trkpt lat="45.08126" lon="5.53308">
        <ele>940.95</ele>
        <time>2018-06-17T15:29:53Z</time>
      </trkpt>
      <trkpt lat="45.08101" lon="5.53323">
        <ele>941.02</ele>
        <time>2018-06-17T15:29:54Z</time>
      </trkpt>
      <trkpt lat="45.08077" lon="5.5334">
        <ele>941.74</ele>
        <time>2018-06-17T15:29:55Z</time>
      </trkpt>
      <trkpt lat="45.08052" lon="5.53357">
        <ele>941.96</ele>
        <time>2018-06-17T15:29:56Z</time>
      </trkpt>
      <trkpt lat="45.08027" lon="5.53373">
        <ele>942.02</ele>
        <time>2018-06-17T15:29:57Z</time>
      </trkpt>
      <trkpt lat="45.08002" lon="5.53388">
        <ele>942.74</ele>
        <time>2018-06-17T15:29:58Z</time>
      </trkpt>
      <trkpt lat="45.07978" lon="5.53404">
        <ele>942.96</ele>
        <time>2018-06-17T15:29:59Z</time>
      </trkpt>
      <trkpt lat="45.07954" lon="5.53423">
        <ele>944.42</ele>
        <time>2018-06-17T15:30:00Z</time>
      </trkpt>
      <trkpt lat="45.07932" lon="5.53445">
        <ele>945.56</ele>
        <time>2018-06-17T15:30:01Z</time>
      </trkpt>
      <trkpt lat="45.07912" lon="5.53471">
        <ele>946.6</ele>
        <time>2018-06-17T15:30:02Z</time>
      </trkpt>
      <trkpt lat="45.07892" lon="5.53497">
        <ele>946.92</ele>
        <time>2018-06-17T15:30:03Z</time>
      </trkpt>
      <trkpt lat="45.07875" lon="5.53526">
        <ele>947.71</ele>
        <time>2018-06-17T15:30:04Z</time>
      </trkpt>
      <trkpt lat="45.07857" lon="5.53552">
        <ele>947.95</ele>
        <time>2018-06-17T15:30:05Z</time>
      </trkpt>
      <trkpt lat="45.0784" lon="5.5358">
        <ele>948.02</ele>
        <time>2018-06-17T15:30:06Z</time>
      </trkpt>
      <trkpt lat="45.07827" lon="5.53611">
        <ele>948.74</ele>
        <time>2018-06-17T15:30:07Z</time>
      </trkpt>
      <trkpt lat="45.07814" lon="5.53637">
        <ele>948.96</ele>
        <time>2018-06-17T15:30:08Z</time>
      </trkpt>
      <trkpt lat="45.078" lon="5.5366">
        <ele>949.02</ele>
        <time>2018-06-17T15:30:09Z</time>
      </trkpt>
      <trkpt lat="45.07786" lon="5.53682">
        <ele>948.34</ele>
        <time>2018-06-17T15:30:10Z</time>
      </trkpt>
      <trkpt lat="45.07768" lon="5.53703">
        <ele>947.44</ele>
        <time>2018-06-17T15:30:11Z</time>
      </trkpt>
      <trkpt lat="45.07749" lon="5.53716">
        <ele>946.47</ele>
        <time>2018-06-17T15:30:12Z</time>
      </trkpt>
      <trkpt lat="45.07728" lon="5.53722">
        <ele>946.17</ele>
        <time>2018-06-17T15:30:13Z</time>
      </trkpt>
      <trkpt lat="45.07704" lon="5.53725">
        <ele>946.09</ele>
        <time>2018-06-17T15:30:14Z</time>
      </trkpt>
      <trkpt lat="45.07678" lon="5.53712">
        <ele>946.76</ele>
        <time>2018-06-17T15:30:15Z</time>
      </trkpt>
      <trkpt lat="45.07657" lon="5.53717">
        <ele>947.66</ele>
        <time>2018-06-17T15:30:16Z</time>
      </trkpt>
      <trkpt lat="45.07637" lon="5.53721">
        <ele>948.63</ele>
        <time>2018-06-17T15:30:17Z</time>
      </trkpt>
      <trkpt lat="45.07609" lon="5.53736">
        <ele>949.71</ele>
        <time>2018-06-17T15:30:19Z</time>
      </trkpt>
      <trkpt lat="45.07597" lon="5.53796">
        <ele>949.32</ele>
        <time>2018-06-17T15:30:21Z</time>
      </trkpt>
      <trkpt lat="45.07582" lon="5.53818">
        <ele>948.43</ele>
        <time>2018-06-17T15:30:22Z</time>
      </trkpt>
      <trkpt lat="45.07568" lon="5.53841">
        <ele>948.16</ele>
        <time>2018-06-17T15:30:23Z</time>
      </trkpt>
      <trkpt lat="45.0755" lon="5.53862">
        <ele>947.38</ele>
        <time>2018-06-17T15:30:24Z</time>
      </trkpt>
      <trkpt lat="45.07527" lon="5.5388">
        <ele>947.85</ele>
        <time>2018-06-17T15:30:25Z</time>
      </trkpt>
      <trkpt lat="45.075" lon="5.53896">
        <ele>947.99</ele>
        <time>2018-06-17T15:30:26Z</time>
      </trkpt>
      <trkpt lat="45.07477" lon="5.53913">
        <ele>948.73</ele>
        <time>2018-06-17T15:30:27Z</time>
      </trkpt>
      <trkpt lat="45.07455" lon="5.53928">
        <ele>948.95</ele>
        <time>2018-06-17T15:30:28Z</time>
      </trkpt>
      <trkpt lat="45.07433" lon="5.53944">
        <ele>949.72</ele>
        <time>2018-06-17T15:30:29Z</time>
      </trkpt>
      <trkpt lat="45.07413" lon="5.53958">
        <ele>949.95</ele>
        <time>2018-06-17T15:30:30Z</time>
      </trkpt>
      <trkpt lat="45.07391" lon="5.53973">
        <ele>950.72</ele>
        <time>2018-06-17T15:30:31Z</time>
      </trkpt>
      <trkpt lat="45.07371" lon="5.53988">
        <ele>950.95</ele>
        <time>2018-06-17T15:30:32Z</time>
      </trkpt>
      <trkpt lat="45.07354" lon="5.54001">
        <ele>951.72</ele>
        <time>2018-06-17T15:30:33Z</time>
      </trkpt>
      <trkpt lat="45.07328" lon="5.54024">
        <ele>952.72</ele>
        <time>2018-06-17T15:30:35Z</time>
      </trkpt>
      <trkpt lat="45.07313" lon="5.54048">
        <ele>950.71</ele>
        <time>2018-06-17T15:30:37Z</time>
      </trkpt>
      <trkpt lat="45.07304" lon="5.54071">
        <ele>949.41</ele>
        <time>2018-06-17T15:30:39Z</time>
      </trkpt>
      <trkpt lat="45.07332" lon="5.54091">
        <ele>949.06</ele>
        <time>2018-06-17T15:30:42Z</time>
      </trkpt>
      <trkpt lat="45.07355" lon="5.54097">
        <ele>949.05</ele>
        <time>2018-06-17T15:30:43Z</time>
      </trkpt>
      <trkpt lat="45.07371" lon="5.54119">
        <ele>950.45</ele>
        <time>2018-06-17T15:30:44Z</time>
      </trkpt>
      <trkpt lat="45.07386" lon="5.54159">
        <ele>951.7</ele>
        <time>2018-06-17T15:30:46Z</time>
      </trkpt>
      <trkpt lat="45.07379" lon="5.54209">
        <ele>951.32</ele>
        <time>2018-06-17T15:30:48Z</time>
      </trkpt>
      <trkpt lat="45.07373" lon="5.54237">
        <ele>951.83</ele>
        <time>2018-06-17T15:30:49Z</time>
      </trkpt>
      <trkpt lat="45.07368" lon="5.54263">
        <ele>952.68</ele>
        <time>2018-06-17T15:30:50Z</time>
      </trkpt>
      <trkpt lat="45.07356" lon="5.54309">
        <ele>954.63</ele>
        <time>2018-06-17T15:30:52Z</time>
      </trkpt>
      <trkpt lat="45.07338" lon="5.5435">
        <ele>955.01</ele>
        <time>2018-06-17T15:30:54Z</time>
      </trkpt>
      <trkpt lat="45.07314" lon="5.54367">
        <ele>956.66</ele>
        <time>2018-06-17T15:30:56Z</time>
      </trkpt>
      <trkpt lat="45.07301" lon="5.54391">
        <ele>957.71</ele>
        <time>2018-06-17T15:30:58Z</time>
      </trkpt>
      <trkpt lat="45.07312" lon="5.54433">
        <ele>957.34</ele>
        <time>2018-06-17T15:31:01Z</time>
      </trkpt>
      <trkpt lat="45.07335" lon="5.54469">
        <ele>957.99</ele>
        <time>2018-06-17T15:31:03Z</time>
      </trkpt>
      <trkpt lat="45.07357" lon="5.54497">
        <ele>958.03</ele>
        <time>2018-06-17T15:31:04Z</time>
      </trkpt>
      <trkpt lat="45.07372" lon="5.54522">
        <ele>958.04</ele>
        <time>2018-06-17T15:31:05Z</time>
      </trkpt>
      <trkpt lat="45.07383" lon="5.54545">
        <ele>958.05</ele>
        <time>2018-06-17T15:31:06Z</time>
      </trkpt>
      <trkpt lat="45.07391" lon="5.5457">
        <ele>958.75</ele>
        <time>2018-06-17T15:31:07Z</time>
      </trkpt>
      <trkpt lat="45.07399" lon="5.54614">
        <ele>958.11</ele>
        <time>2018-06-17T15:31:09Z</time>
      </trkpt>
      <trkpt lat="45.07397" lon="5.54653">
        <ele>958.05</ele>
        <time>2018-06-17T15:31:11Z</time>
      </trkpt>
      <trkpt lat="45.07374" lon="5.54663">
        <ele>958.05</ele>
        <time>2018-06-17T15:31:13Z</time>
      </trkpt>
      <trkpt lat="45.07354" lon="5.54682">
        <ele>959.87</ele>
        <time>2018-06-17T15:31:16Z</time>
      </trkpt>
      <trkpt lat="45.07355" lon="5.54711">
        <ele>961.93</ele>
        <time>2018-06-17T15:31:19Z</time>
      </trkpt>
      <trkpt lat="45.07362" lon="5.54742">
        <ele>963.66</ele>
        <time>2018-06-17T15:31:22Z</time>
      </trkpt>
      <trkpt lat="45.07371" lon="5.54778">
        <ele>965.65</ele>
        <time>2018-06-17T15:31:25Z</time>
      </trkpt>
      <trkpt lat="45.07379" lon="5.54808">
        <ele>966.71</ele>
        <time>2018-06-17T15:31:27Z</time>
      </trkpt>
      <trkpt lat="45.07395" lon="5.54838">
        <ele>969.54</ele>
        <time>2018-06-17T15:31:29Z</time>
      </trkpt>
      <trkpt lat="45.07419" lon="5.54868">
        <ele>970.7</ele>
        <time>2018-06-17T15:31:31Z</time>
      </trkpt>
      <trkpt lat="45.07447" lon="5.549">
        <ele>971.93</ele>
        <time>2018-06-17T15:31:33Z</time>
      </trkpt>
      <trkpt lat="45.07462" lon="5.54918">
        <ele>972.71</ele>
        <time>2018-06-17T15:31:34Z</time>
      </trkpt>
      <trkpt lat="45.07477" lon="5.54936">
        <ele>972.95</ele>
        <time>2018-06-17T15:31:35Z</time>
      </trkpt>
      <trkpt lat="45.07492" lon="5.54954">
        <ele>974.42</ele>
        <time>2018-06-17T15:31:36Z</time>
      </trkpt>
      <trkpt lat="45.07508" lon="5.5497">
        <ele>975.56</ele>
        <time>2018-06-17T15:31:37Z</time>
      </trkpt>
      <trkpt lat="45.07525" lon="5.54983">
        <ele>976.6</ele>
        <time>2018-06-17T15:31:38Z</time>
      </trkpt>
      <trkpt lat="45.07542" lon="5.54995">
        <ele>976.91</ele>
        <time>2018-06-17T15:31:39Z</time>
      </trkpt>
      <trkpt lat="45.07572" lon="5.55016">
        <ele>977.74</ele>
        <time>2018-06-17T15:31:41Z</time>
      </trkpt>
      <trkpt lat="45.07601" lon="5.55034">
        <ele>978.02</ele>
        <time>2018-06-17T15:31:43Z</time>
      </trkpt>
      <trkpt lat="45.07629" lon="5.55051">
        <ele>978.96</ele>
        <time>2018-06-17T15:31:45Z</time>
      </trkpt>
      <trkpt lat="45.07655" lon="5.55071">
        <ele>979.95</ele>
        <time>2018-06-17T15:31:47Z</time>
      </trkpt>
      <trkpt lat="45.07681" lon="5.55098">
        <ele>980.04</ele>
        <time>2018-06-17T15:31:49Z</time>
      </trkpt>
      <trkpt lat="45.07695" lon="5.55117">
        <ele>980.05</ele>
        <time>2018-06-17T15:31:50Z</time>
      </trkpt>
      <trkpt lat="45.07708" lon="5.55135">
        <ele>980.05</ele>
        <time>2018-06-17T15:31:51Z</time>
      </trkpt>
      <trkpt lat="45.0772" lon="5.55155">
        <ele>980.05</ele>
        <time>2018-06-17T15:31:52Z</time>
      </trkpt>
      <trkpt lat="45.07732" lon="5.55176">
        <ele>980.05</ele>
        <time>2018-06-17T15:31:53Z</time>
      </trkpt>
      <trkpt lat="45.07745" lon="5.55198">
        <ele>979.35</ele>
        <time>2018-06-17T15:31:54Z</time>
      </trkpt>
      <trkpt lat="45.07756" lon="5.5522">
        <ele>979.84</ele>
        <time>2018-06-17T15:31:55Z</time>
      </trkpt>
      <trkpt lat="45.07768" lon="5.55242">
        <ele>979.29</ele>
        <time>2018-06-17T15:31:56Z</time>
      </trkpt>
      <trkpt lat="45.07787" lon="5.55283">
        <ele>979.07</ele>
        <time>2018-06-17T15:31:58Z</time>
      </trkpt>
      <trkpt lat="45.07805" lon="5.55314">
        <ele>979.75</ele>
        <time>2018-06-17T15:32:00Z</time>
      </trkpt>
      <trkpt lat="45.07827" lon="5.55334">
        <ele>980.93</ele>
        <time>2018-06-17T15:32:02Z</time>
      </trkpt>
      <trkpt lat="45.07848" lon="5.55341">
        <ele>981.95</ele>
        <time>2018-06-17T15:32:04Z</time>
      </trkpt>
      <trkpt lat="45.07868" lon="5.55341">
        <ele>982.74</ele>
        <time>2018-06-17T15:32:06Z</time>
      </trkpt>
      <trkpt lat="45.07891" lon="5.55341">
        <ele>985.62</ele>
        <time>2018-06-17T15:32:09Z</time>
      </trkpt>
      <trkpt lat="45.07911" lon="5.5535">
        <ele>986.95</ele>
        <time>2018-06-17T15:32:12Z</time>
      </trkpt>
      <trkpt lat="45.07931" lon="5.55353">
        <ele>987.05</ele>
        <time>2018-06-17T15:32:15Z</time>
      </trkpt>
      <trkpt lat="45.07956" lon="5.55329">
        <ele>987.05</ele>
        <time>2018-06-17T15:32:18Z</time>
      </trkpt>
      <trkpt lat="45.07981" lon="5.55318">
        <ele>987.96</ele>
        <time>2018-06-17T15:32:20Z</time>
      </trkpt>
      <trkpt lat="45.08007" lon="5.55314">
        <ele>988.74</ele>
        <time>2018-06-17T15:32:22Z</time>
      </trkpt>
      <trkpt lat="45.08033" lon="5.55317">
        <ele>989.72</ele>
        <time>2018-06-17T15:32:24Z</time>
      </trkpt>
      <trkpt lat="45.08058" lon="5.55329">
        <ele>990.02</ele>
        <time>2018-06-17T15:32:26Z</time>
      </trkpt>
      <trkpt lat="45.08084" lon="5.55347">
        <ele>990.75</ele>
        <time>2018-06-17T15:32:28Z</time>
      </trkpt>
      <trkpt lat="45.08116" lon="5.5537">
        <ele>990.11</ele>
        <time>2018-06-17T15:32:30Z</time>
      </trkpt>
      <trkpt lat="45.08132" lon="5.55382">
        <ele>990.07</ele>
        <time>2018-06-17T15:32:31Z</time>
      </trkpt>
      <trkpt lat="45.08149" lon="5.55391">
        <ele>989.35</ele>
        <time>2018-06-17T15:32:32Z</time>
      </trkpt>
      <trkpt lat="45.0817" lon="5.55395">
        <ele>989.14</ele>
        <time>2018-06-17T15:32:33Z</time>
      </trkpt>
      <trkpt lat="45.08191" lon="5.55396">
        <ele>989.08</ele>
        <time>2018-06-17T15:32:34Z</time>
      </trkpt>
      <trkpt lat="45.08213" lon="5.55393">
        <ele>989.06</ele>
        <time>2018-06-17T15:32:35Z</time>
      </trkpt>
      <trkpt lat="45.08236" lon="5.55391">
        <ele>989.05</ele>
        <time>2018-06-17T15:32:36Z</time>
      </trkpt>
      <trkpt lat="45.08258" lon="5.55388">
        <ele>988.35</ele>
        <time>2018-06-17T15:32:37Z</time>
      </trkpt>
      <trkpt lat="45.08279" lon="5.55386">
        <ele>987.44</ele>
        <time>2018-06-17T15:32:38Z</time>
      </trkpt>
      <trkpt lat="45.08298" lon="5.55383">
        <ele>987.17</ele>
        <time>2018-06-17T15:32:39Z</time>
      </trkpt>
      <trkpt lat="45.08332" lon="5.5538">
        <ele>986.36</ele>
        <time>2018-06-17T15:32:41Z</time>
      </trkpt>
      <trkpt lat="45.08361" lon="5.55379">
        <ele>985.38</ele>
        <time>2018-06-17T15:32:43Z</time>
      </trkpt>
      <trkpt lat="45.08388" lon="5.55381">
        <ele>984.38</ele>
        <time>2018-06-17T15:32:45Z</time>
      </trkpt>
      <trkpt lat="45.08412" lon="5.55386">
        <ele>983.38</ele>
        <time>2018-06-17T15:32:47Z</time>
      </trkpt>
      <trkpt lat="45.08435" lon="5.55393">
        <ele>982.38</ele>
        <time>2018-06-17T15:32:49Z</time>
      </trkpt>
      <trkpt lat="45.08458" lon="5.55399">
        <ele>982.08</ele>
        <time>2018-06-17T15:32:51Z</time>
      </trkpt>
      <trkpt lat="45.0848" lon="5.55406">
        <ele>981.35</ele>
        <time>2018-06-17T15:32:53Z</time>
      </trkpt>
      <trkpt lat="45.08503" lon="5.55412">
        <ele>981.08</ele>
        <time>2018-06-17T15:32:55Z</time>
      </trkpt>
      <trkpt lat="45.08528" lon="5.55419">
        <ele>981.96</ele>
        <time>2018-06-17T15:32:57Z</time>
      </trkpt>
      <trkpt lat="45.08555" lon="5.55424">
        <ele>982.04</ele>
        <time>2018-06-17T15:32:59Z</time>
      </trkpt>
      <trkpt lat="45.08589" lon="5.55433">
        <ele>982.05</ele>
        <time>2018-06-17T15:33:01Z</time>
      </trkpt>
      <trkpt lat="45.08607" lon="5.55439">
        <ele>982.05</ele>
        <time>2018-06-17T15:33:02Z</time>
      </trkpt>
      <trkpt lat="45.08625" lon="5.55444">
        <ele>982.05</ele>
        <time>2018-06-17T15:33:03Z</time>
      </trkpt>
      <trkpt lat="45.08644" lon="5.55449">
        <ele>982.75</ele>
        <time>2018-06-17T15:33:04Z</time>
      </trkpt>
      <trkpt lat="45.08662" lon="5.55455">
        <ele>982.96</ele>
        <time>2018-06-17T15:33:05Z</time>
      </trkpt>
      <trkpt lat="45.0868" lon="5.55461">
        <ele>983.02</ele>
        <time>2018-06-17T15:33:06Z</time>
      </trkpt>
      <trkpt lat="45.08699" lon="5.55467">
        <ele>983.04</ele>
        <time>2018-06-17T15:33:07Z</time>
      </trkpt>
      <trkpt lat="45.08719" lon="5.55473">
        <ele>983.05</ele>
        <time>2018-06-17T15:33:08Z</time>
      </trkpt>
      <trkpt lat="45.08741" lon="5.55479">
        <ele>983.05</ele>
        <time>2018-06-17T15:33:09Z</time>
      </trkpt>
      <trkpt lat="45.08762" lon="5.55485">
        <ele>983.75</ele>
        <time>2018-06-17T15:33:10Z</time>
      </trkpt>
      <trkpt lat="45.08785" lon="5.55493">
        <ele>983.26</ele>
        <time>2018-06-17T15:33:11Z</time>
      </trkpt>
      <trkpt lat="45.08808" lon="5.555">
        <ele>983.11</ele>
        <time>2018-06-17T15:33:12Z</time>
      </trkpt>
      <trkpt lat="45.08832" lon="5.55506">
        <ele>983.07</ele>
        <time>2018-06-17T15:33:13Z</time>
      </trkpt>
      <trkpt lat="45.08855" lon="5.55513">
        <ele>983.05</ele>
        <time>2018-06-17T15:33:14Z</time>
      </trkpt>
      <trkpt lat="45.08878" lon="5.5552">
        <ele>982.35</ele>
        <time>2018-06-17T15:33:15Z</time>
      </trkpt>
      <trkpt lat="45.08901" lon="5.55525">
        <ele>982.84</ele>
        <time>2018-06-17T15:33:16Z</time>
      </trkpt>
      <trkpt lat="45.08923" lon="5.55531">
        <ele>982.99</ele>
        <time>2018-06-17T15:33:17Z</time>
      </trkpt>
      <trkpt lat="45.08943" lon="5.55538">
        <ele>983.03</ele>
        <time>2018-06-17T15:33:18Z</time>
      </trkpt>
      <trkpt lat="45.0896" lon="5.55543">
        <ele>982.34</ele>
        <time>2018-06-17T15:33:19Z</time>
      </trkpt>
      <trkpt lat="45.08989" lon="5.55558">
        <ele>982.08</ele>
        <time>2018-06-17T15:33:21Z</time>
      </trkpt>
      <trkpt lat="45.09012" lon="5.55576">
        <ele>982.96</ele>
        <time>2018-06-17T15:33:23Z</time>
      </trkpt>
      <trkpt lat="45.0904" lon="5.55575">
        <ele>982.34</ele>
        <time>2018-06-17T15:33:25Z</time>
      </trkpt>
      <trkpt lat="45.09058" lon="5.55573">
        <ele>982.14</ele>
        <time>2018-06-17T15:33:26Z</time>
      </trkpt>
      <trkpt lat="45.09078" lon="5.55576">
        <ele>982.08</ele>
        <time>2018-06-17T15:33:27Z</time>
      </trkpt>
      <trkpt lat="45.091" lon="5.5558">
        <ele>982.06</ele>
        <time>2018-06-17T15:33:28Z</time>
      </trkpt>
      <trkpt lat="45.09125" lon="5.55584">
        <ele>982.05</ele>
        <time>2018-06-17T15:33:29Z</time>
      </trkpt>
      <trkpt lat="45.09151" lon="5.5559">
        <ele>982.05</ele>
        <time>2018-06-17T15:33:30Z</time>
      </trkpt>
      <trkpt lat="45.09177" lon="5.55597">
        <ele>982.05</ele>
        <time>2018-06-17T15:33:31Z</time>
      </trkpt>
      <trkpt lat="45.09202" lon="5.55604">
        <ele>982.05</ele>
        <time>2018-06-17T15:33:32Z</time>
      </trkpt>
      <trkpt lat="45.09226" lon="5.5561">
        <ele>981.35</ele>
        <time>2018-06-17T15:33:33Z</time>
      </trkpt>
      <trkpt lat="45.09249" lon="5.55615">
        <ele>981.84</ele>
        <time>2018-06-17T15:33:34Z</time>
      </trkpt>
      <trkpt lat="45.09271" lon="5.55619">
        <ele>981.99</ele>
        <time>2018-06-17T15:33:35Z</time>
      </trkpt>
      <trkpt lat="45.09292" lon="5.55625">
        <ele>982.73</ele>
        <time>2018-06-17T15:33:36Z</time>
      </trkpt>
      <trkpt lat="45.09311" lon="5.55629">
        <ele>982.95</ele>
        <time>2018-06-17T15:33:37Z</time>
      </trkpt>
      <trkpt lat="45.09329" lon="5.55632">
        <ele>983.72</ele>
        <time>2018-06-17T15:33:38Z</time>
      </trkpt>
      <trkpt lat="45.09363" lon="5.5564">
        <ele>984.02</ele>
        <time>2018-06-17T15:33:40Z</time>
      </trkpt>
      <trkpt lat="45.09399" lon="5.55649">
        <ele>984.26</ele>
        <time>2018-06-17T15:33:42Z</time>
      </trkpt>
      <trkpt lat="45.09417" lon="5.55653">
        <ele>984.11</ele>
        <time>2018-06-17T15:33:43Z</time>
      </trkpt>
      <trkpt lat="45.09438" lon="5.55657">
        <ele>983.37</ele>
        <time>2018-06-17T15:33:44Z</time>
      </trkpt>
      <trkpt lat="45.09461" lon="5.55662">
        <ele>983.14</ele>
        <time>2018-06-17T15:33:45Z</time>
      </trkpt>
      <trkpt lat="45.09486" lon="5.55668">
        <ele>983.08</ele>
        <time>2018-06-17T15:33:46Z</time>
      </trkpt>
      <trkpt lat="45.09514" lon="5.55674">
        <ele>983.76</ele>
        <time>2018-06-17T15:33:47Z</time>
      </trkpt>
      <trkpt lat="45.09543" lon="5.5568">
        <ele>983.96</ele>
        <time>2018-06-17T15:33:48Z</time>
      </trkpt>
      <trkpt lat="45.09571" lon="5.55687">
        <ele>984.72</ele>
        <time>2018-06-17T15:33:49Z</time>
      </trkpt>
      <trkpt lat="45.09599" lon="5.55696">
        <ele>984.95</ele>
        <time>2018-06-17T15:33:50Z</time>
      </trkpt>
      <trkpt lat="45.09625" lon="5.55704">
        <ele>985.72</ele>
        <time>2018-06-17T15:33:51Z</time>
      </trkpt>
      <trkpt lat="45.09652" lon="5.55712">
        <ele>986.65</ele>
        <time>2018-06-17T15:33:52Z</time>
      </trkpt>
      <trkpt lat="45.09679" lon="5.55722">
        <ele>986.93</ele>
        <time>2018-06-17T15:33:53Z</time>
      </trkpt>
      <trkpt lat="45.09705" lon="5.55731">
        <ele>987.71</ele>
        <time>2018-06-17T15:33:54Z</time>
      </trkpt>
      <trkpt lat="45.09732" lon="5.5574">
        <ele>987.95</ele>
        <time>2018-06-17T15:33:55Z</time>
      </trkpt>
      <trkpt lat="45.0976" lon="5.55748">
        <ele>987.32</ele>
        <time>2018-06-17T15:33:56Z</time>
      </trkpt>
      <trkpt lat="45.09788" lon="5.5576">
        <ele>987.13</ele>
        <time>2018-06-17T15:33:57Z</time>
      </trkpt>
      <trkpt lat="45.09814" lon="5.55775">
        <ele>987.07</ele>
        <time>2018-06-17T15:33:58Z</time>
      </trkpt>
      <trkpt lat="45.09839" lon="5.55791">
        <ele>987.06</ele>
        <time>2018-06-17T15:33:59Z</time>
      </trkpt>
      <trkpt lat="45.09865" lon="5.55806">
        <ele>987.05</ele>
        <time>2018-06-17T15:34:00Z</time>
      </trkpt>
      <trkpt lat="45.0989" lon="5.5582">
        <ele>987.05</ele>
        <time>2018-06-17T15:34:01Z</time>
      </trkpt>
      <trkpt lat="45.09914" lon="5.55836">
        <ele>987.05</ele>
        <time>2018-06-17T15:34:02Z</time>
      </trkpt>
      <trkpt lat="45.09937" lon="5.55855">
        <ele>986.35</ele>
        <time>2018-06-17T15:34:03Z</time>
      </trkpt>
      <trkpt lat="45.09958" lon="5.55877">
        <ele>986.14</ele>
        <time>2018-06-17T15:34:04Z</time>
      </trkpt>
      <trkpt lat="45.09976" lon="5.55901">
        <ele>986.08</ele>
        <time>2018-06-17T15:34:05Z</time>
      </trkpt>
      <trkpt lat="45.09993" lon="5.55924">
        <ele>986.06</ele>
        <time>2018-06-17T15:34:06Z</time>
      </trkpt>
      <trkpt lat="45.10009" lon="5.55945">
        <ele>986.05</ele>
        <time>2018-06-17T15:34:07Z</time>
      </trkpt>
      <trkpt lat="45.10025" lon="5.55964">
        <ele>986.05</ele>
        <time>2018-06-17T15:34:08Z</time>
      </trkpt>
      <trkpt lat="45.1004" lon="5.55983">
        <ele>985.35</ele>
        <time>2018-06-17T15:34:09Z</time>
      </trkpt>
      <trkpt lat="45.10055" lon="5.55999">
        <ele>985.14</ele>
        <time>2018-06-17T15:34:10Z</time>
      </trkpt>
      <trkpt lat="45.10072" lon="5.56012">
        <ele>985.78</ele>
        <time>2018-06-17T15:34:11Z</time>
      </trkpt>
      <trkpt lat="45.1009" lon="5.56025">
        <ele>985.97</ele>
        <time>2018-06-17T15:34:12Z</time>
      </trkpt>
      <trkpt lat="45.10112" lon="5.56039">
        <ele>986.02</ele>
        <time>2018-06-17T15:34:13Z</time>
      </trkpt>
      <trkpt lat="45.10134" lon="5.56056">
        <ele>986.04</ele>
        <time>2018-06-17T15:34:14Z</time>
      </trkpt>
      <trkpt lat="45.10156" lon="5.56072">
        <ele>986.05</ele>
        <time>2018-06-17T15:34:15Z</time>
      </trkpt>
      <trkpt lat="45.10178" lon="5.56088">
        <ele>986.75</ele>
        <time>2018-06-17T15:34:16Z</time>
      </trkpt>
      <trkpt lat="45.10201" lon="5.56102">
        <ele>986.96</ele>
        <time>2018-06-17T15:34:17Z</time>
      </trkpt>
      <trkpt lat="45.10224" lon="5.56116">
        <ele>987.72</ele>
        <time>2018-06-17T15:34:18Z</time>
      </trkpt>
      <trkpt lat="45.10248" lon="5.56131">
        <ele>987.95</ele>
        <time>2018-06-17T15:34:19Z</time>
      </trkpt>
      <trkpt lat="45.10275" lon="5.56144">
        <ele>988.02</ele>
        <time>2018-06-17T15:34:20Z</time>
      </trkpt>
      <trkpt lat="45.10301" lon="5.56159">
        <ele>988.74</ele>
        <time>2018-06-17T15:34:21Z</time>
      </trkpt>
      <trkpt lat="45.10327" lon="5.56174">
        <ele>988.26</ele>
        <time>2018-06-17T15:34:22Z</time>
      </trkpt>
      <trkpt lat="45.10354" lon="5.56188">
        <ele>988.11</ele>
        <time>2018-06-17T15:34:23Z</time>
      </trkpt>
      <trkpt lat="45.1038" lon="5.562">
        <ele>988.07</ele>
        <time>2018-06-17T15:34:24Z</time>
      </trkpt>
      <trkpt lat="45.10407" lon="5.56213">
        <ele>988.05</ele>
        <time>2018-06-17T15:34:25Z</time>
      </trkpt>
      <trkpt lat="45.10433" lon="5.56225">
        <ele>988.05</ele>
        <time>2018-06-17T15:34:26Z</time>
      </trkpt>
      <trkpt lat="45.10459" lon="5.56238">
        <ele>988.05</ele>
        <time>2018-06-17T15:34:27Z</time>
      </trkpt>
      <trkpt lat="45.10486" lon="5.56252">
        <ele>988.75</ele>
        <time>2018-06-17T15:34:28Z</time>
      </trkpt>
      <trkpt lat="45.10513" lon="5.56266">
        <ele>988.96</ele>
        <time>2018-06-17T15:34:29Z</time>
      </trkpt>
      <trkpt lat="45.10539" lon="5.56281">
        <ele>989.02</ele>
        <time>2018-06-17T15:34:30Z</time>
      </trkpt>
      <trkpt lat="45.10566" lon="5.56297">
        <ele>989.04</ele>
        <time>2018-06-17T15:34:31Z</time>
      </trkpt>
      <trkpt lat="45.10595" lon="5.56315">
        <ele>989.05</ele>
        <time>2018-06-17T15:34:32Z</time>
      </trkpt>
      <trkpt lat="45.10624" lon="5.56332">
        <ele>989.05</ele>
        <time>2018-06-17T15:34:33Z</time>
      </trkpt>
      <trkpt lat="45.10653" lon="5.56348">
        <ele>989.05</ele>
        <time>2018-06-17T15:34:34Z</time>
      </trkpt>
      <trkpt lat="45.10682" lon="5.56366">
        <ele>989.05</ele>
        <time>2018-06-17T15:34:35Z</time>
      </trkpt>
      <trkpt lat="45.10709" lon="5.56384">
        <ele>989.05</ele>
        <time>2018-06-17T15:34:36Z</time>
      </trkpt>
      <trkpt lat="45.10735" lon="5.56405">
        <ele>989.75</ele>
        <time>2018-06-17T15:34:37Z</time>
      </trkpt>
      <trkpt lat="45.10761" lon="5.56426">
        <ele>989.96</ele>
        <time>2018-06-17T15:34:38Z</time>
      </trkpt>
      <trkpt lat="45.10785" lon="5.56447">
        <ele>990.02</ele>
        <time>2018-06-17T15:34:39Z</time>
      </trkpt>
      <trkpt lat="45.10808" lon="5.56466">
        <ele>990.04</ele>
        <time>2018-06-17T15:34:40Z</time>
      </trkpt>
      <trkpt lat="45.1083" lon="5.56483">
        <ele>990.05</ele>
        <time>2018-06-17T15:34:41Z</time>
      </trkpt>
      <trkpt lat="45.10851" lon="5.56499">
        <ele>990.05</ele>
        <time>2018-06-17T15:34:42Z</time>
      </trkpt>
      <trkpt lat="45.10872" lon="5.56514">
        <ele>990.05</ele>
        <time>2018-06-17T15:34:43Z</time>
      </trkpt>
      <trkpt lat="45.1089" lon="5.56529">
        <ele>990.05</ele>
        <time>2018-06-17T15:34:44Z</time>
      </trkpt>
      <trkpt lat="45.10906" lon="5.56542">
        <ele>990.05</ele>
        <time>2018-06-17T15:34:45Z</time>
      </trkpt>
      <trkpt lat="45.10936" lon="5.56565">
        <ele>990.96</ele>
        <time>2018-06-17T15:34:47Z</time>
      </trkpt>
      <trkpt lat="45.10962" lon="5.56588">
        <ele>991.04</ele>
        <time>2018-06-17T15:34:49Z</time>
      </trkpt>
      <trkpt lat="45.10988" lon="5.56611">
        <ele>991.05</ele>
        <time>2018-06-17T15:34:51Z</time>
      </trkpt>
      <trkpt lat="45.11013" lon="5.56635">
        <ele>991.96</ele>
        <time>2018-06-17T15:34:53Z</time>
      </trkpt>
      <trkpt lat="45.11034" lon="5.56656">
        <ele>992.04</ele>
        <time>2018-06-17T15:34:55Z</time>
      </trkpt>
      <trkpt lat="45.11053" lon="5.56675">
        <ele>992.05</ele>
        <time>2018-06-17T15:34:57Z</time>
      </trkpt>
      <trkpt lat="45.1107" lon="5.56693">
        <ele>992.05</ele>
        <time>2018-06-17T15:34:59Z</time>
      </trkpt>
      <trkpt lat="45.11088" lon="5.5671">
        <ele>992.05</ele>
        <time>2018-06-17T15:35:01Z</time>
      </trkpt>
      <trkpt lat="45.11105" lon="5.56729">
        <ele>992.75</ele>
        <time>2018-06-17T15:35:03Z</time>
      </trkpt>
      <trkpt lat="45.11122" lon="5.5675">
        <ele>993.02</ele>
        <time>2018-06-17T15:35:05Z</time>
      </trkpt>
      <trkpt lat="45.11137" lon="5.56777">
        <ele>993.96</ele>
        <time>2018-06-17T15:35:07Z</time>
      </trkpt>
      <trkpt lat="45.11156" lon="5.56807">
        <ele>994.95</ele>
        <time>2018-06-17T15:35:09Z</time>
      </trkpt>
      <trkpt lat="45.11179" lon="5.56852">
        <ele>995.74</ele>
        <time>2018-06-17T15:35:11Z</time>
      </trkpt>
      <trkpt lat="45.11194" lon="5.56878">
        <ele>996.66</ele>
        <time>2018-06-17T15:35:12Z</time>
      </trkpt>
      <trkpt lat="45.11209" lon="5.56906">
        <ele>996.93</ele>
        <time>2018-06-17T15:35:13Z</time>
      </trkpt>
      <trkpt lat="45.11226" lon="5.56935">
        <ele>997.71</ele>
        <time>2018-06-17T15:35:14Z</time>
      </trkpt>
      <trkpt lat="45.11243" lon="5.56965">
        <ele>997.95</ele>
        <time>2018-06-17T15:35:15Z</time>
      </trkpt>
      <trkpt lat="45.11261" lon="5.56996">
        <ele>998.72</ele>
        <time>2018-06-17T15:35:16Z</time>
      </trkpt>
      <trkpt lat="45.11278" lon="5.57029">
        <ele>998.95</ele>
        <time>2018-06-17T15:35:17Z</time>
      </trkpt>
      <trkpt lat="45.11292" lon="5.57063">
        <ele>999.72</ele>
        <time>2018-06-17T15:35:18Z</time>
      </trkpt>
      <trkpt lat="45.11304" lon="5.57099">
        <ele>1000.65</ele>
        <time>2018-06-17T15:35:19Z</time>
      </trkpt>
      <trkpt lat="45.11313" lon="5.57136">
        <ele>1001.63</ele>
        <time>2018-06-17T15:35:20Z</time>
      </trkpt>
      <trkpt lat="45.11322" lon="5.57171">
        <ele>1001.92</ele>
        <time>2018-06-17T15:35:21Z</time>
      </trkpt>
      <trkpt lat="45.11333" lon="5.57201">
        <ele>1002.71</ele>
        <time>2018-06-17T15:35:22Z</time>
      </trkpt>
      <trkpt lat="45.11346" lon="5.57227">
        <ele>1002.95</ele>
        <time>2018-06-17T15:35:23Z</time>
      </trkpt>
      <trkpt lat="45.11363" lon="5.57248">
        <ele>1003.72</ele>
        <time>2018-06-17T15:35:24Z</time>
      </trkpt>
      <trkpt lat="45.11382" lon="5.57265">
        <ele>1004.65</ele>
        <time>2018-06-17T15:35:25Z</time>
      </trkpt>
      <trkpt lat="45.11405" lon="5.57275">
        <ele>1004.93</ele>
        <time>2018-06-17T15:35:26Z</time>
      </trkpt>
      <trkpt lat="45.11428" lon="5.57278">
        <ele>1005.71</ele>
        <time>2018-06-17T15:35:27Z</time>
      </trkpt>
      <trkpt lat="45.11454" lon="5.57275">
        <ele>1005.95</ele>
        <time>2018-06-17T15:35:28Z</time>
      </trkpt>
      <trkpt lat="45.11481" lon="5.57269">
        <ele>1006.72</ele>
        <time>2018-06-17T15:35:29Z</time>
      </trkpt>
      <trkpt lat="45.11509" lon="5.57263">
        <ele>1006.95</ele>
        <time>2018-06-17T15:35:30Z</time>
      </trkpt>
      <trkpt lat="45.11536" lon="5.57257">
        <ele>1008.42</ele>
        <time>2018-06-17T15:35:31Z</time>
      </trkpt>
      <trkpt lat="45.11562" lon="5.57251">
        <ele>1008.86</ele>
        <time>2018-06-17T15:35:32Z</time>
      </trkpt>
      <trkpt lat="45.11588" lon="5.57241">
        <ele>1008.99</ele>
        <time>2018-06-17T15:35:33Z</time>
      </trkpt>
      <trkpt lat="45.11613" lon="5.57226">
        <ele>1009.73</ele>
        <time>2018-06-17T15:35:34Z</time>
      </trkpt>
      <trkpt lat="45.11636" lon="5.5721">
        <ele>1009.95</ele>
        <time>2018-06-17T15:35:35Z</time>
      </trkpt>
      <trkpt lat="45.1166" lon="5.57196">
        <ele>1010.02</ele>
        <time>2018-06-17T15:35:36Z</time>
      </trkpt>
      <trkpt lat="45.11684" lon="5.57187">
        <ele>1010.74</ele>
        <time>2018-06-17T15:35:37Z</time>
      </trkpt>
      <trkpt lat="45.11708" lon="5.57182">
        <ele>1010.96</ele>
        <time>2018-06-17T15:35:38Z</time>
      </trkpt>
      <trkpt lat="45.11732" lon="5.57182">
        <ele>1011.72</ele>
        <time>2018-06-17T15:35:39Z</time>
      </trkpt>
      <trkpt lat="45.11757" lon="5.57186">
        <ele>1011.95</ele>
        <time>2018-06-17T15:35:40Z</time>
      </trkpt>
      <trkpt lat="45.11782" lon="5.57191">
        <ele>1012.02</ele>
        <time>2018-06-17T15:35:41Z</time>
      </trkpt>
      <trkpt lat="45.11808" lon="5.57197">
        <ele>1012.04</ele>
        <time>2018-06-17T15:35:42Z</time>
      </trkpt>
      <trkpt lat="45.11835" lon="5.57203">
        <ele>1012.05</ele>
        <time>2018-06-17T15:35:43Z</time>
      </trkpt>
      <trkpt lat="45.11861" lon="5.57211">
        <ele>1012.05</ele>
        <time>2018-06-17T15:35:44Z</time>
      </trkpt>
      <trkpt lat="45.11887" lon="5.57219">
        <ele>1012.05</ele>
        <time>2018-06-17T15:35:45Z</time>
      </trkpt>
      <trkpt lat="45.11913" lon="5.57226">
        <ele>1011.35</ele>
        <time>2018-06-17T15:35:46Z</time>
      </trkpt>
      <trkpt lat="45.11939" lon="5.57234">
        <ele>1011.14</ele>
        <time>2018-06-17T15:35:47Z</time>
      </trkpt>
      <trkpt lat="45.11964" lon="5.57241">
        <ele>1011.08</ele>
        <time>2018-06-17T15:35:48Z</time>
      </trkpt>
      <trkpt lat="45.1199" lon="5.57248">
        <ele>1011.06</ele>
        <time>2018-06-17T15:35:49Z</time>
      </trkpt>
      <trkpt lat="45.12015" lon="5.57256">
        <ele>1010.35</ele>
        <time>2018-06-17T15:35:50Z</time>
      </trkpt>
      <trkpt lat="45.12039" lon="5.57267">
        <ele>1010.14</ele>
        <time>2018-06-17T15:35:51Z</time>
      </trkpt>
      <trkpt lat="45.12063" lon="5.57281">
        <ele>1009.38</ele>
        <time>2018-06-17T15:35:52Z</time>
      </trkpt>
      <trkpt lat="45.12085" lon="5.57299">
        <ele>1008.45</ele>
        <time>2018-06-17T15:35:53Z</time>
      </trkpt>
      <trkpt lat="45.12104" lon="5.57321">
        <ele>1008.17</ele>
        <time>2018-06-17T15:35:54Z</time>
      </trkpt>
      <trkpt lat="45.12121" lon="5.57343">
        <ele>1008.08</ele>
        <time>2018-06-17T15:35:55Z</time>
      </trkpt>
      <trkpt lat="45.12136" lon="5.57362">
        <ele>1007.36</ele>
        <time>2018-06-17T15:35:56Z</time>
      </trkpt>
      <trkpt lat="45.12163" lon="5.57394">
        <ele>1007.08</ele>
        <time>2018-06-17T15:35:58Z</time>
      </trkpt>
      <trkpt lat="45.1218" lon="5.5741">
        <ele>1006.36</ele>
        <time>2018-06-17T15:35:59Z</time>
      </trkpt>
      <trkpt lat="45.12198" lon="5.57427">
        <ele>1006.14</ele>
        <time>2018-06-17T15:36:00Z</time>
      </trkpt>
      <trkpt lat="45.12218" lon="5.57445">
        <ele>1006.08</ele>
        <time>2018-06-17T15:36:01Z</time>
      </trkpt>
      <trkpt lat="45.12238" lon="5.57462">
        <ele>1005.36</ele>
        <time>2018-06-17T15:36:02Z</time>
      </trkpt>
      <trkpt lat="45.12258" lon="5.57478">
        <ele>1004.44</ele>
        <time>2018-06-17T15:36:03Z</time>
      </trkpt>
      <trkpt lat="45.12278" lon="5.57494">
        <ele>1003.47</ele>
        <time>2018-06-17T15:36:04Z</time>
      </trkpt>
      <trkpt lat="45.12298" lon="5.57509">
        <ele>1003.17</ele>
        <time>2018-06-17T15:36:05Z</time>
      </trkpt>
      <trkpt lat="45.12317" lon="5.57523">
        <ele>1002.39</ele>
        <time>2018-06-17T15:36:06Z</time>
      </trkpt>
      <trkpt lat="45.12336" lon="5.57537">
        <ele>1002.15</ele>
        <time>2018-06-17T15:36:07Z</time>
      </trkpt>
      <trkpt lat="45.12354" lon="5.57552">
        <ele>1002.08</ele>
        <time>2018-06-17T15:36:08Z</time>
      </trkpt>
      <trkpt lat="45.12371" lon="5.57567">
        <ele>1001.36</ele>
        <time>2018-06-17T15:36:09Z</time>
      </trkpt>
      <trkpt lat="45.12388" lon="5.57581">
        <ele>1001.14</ele>
        <time>2018-06-17T15:36:10Z</time>
      </trkpt>
      <trkpt lat="45.12406" lon="5.57594">
        <ele>1001.08</ele>
        <time>2018-06-17T15:36:11Z</time>
      </trkpt>
      <trkpt lat="45.12423" lon="5.57608">
        <ele>1001.06</ele>
        <time>2018-06-17T15:36:12Z</time>
      </trkpt>
      <trkpt lat="45.1244" lon="5.57621">
        <ele>1001.05</ele>
        <time>2018-06-17T15:36:13Z</time>
      </trkpt>
      <trkpt lat="45.12457" lon="5.57635">
        <ele>1001.05</ele>
        <time>2018-06-17T15:36:14Z</time>
      </trkpt>
      <trkpt lat="45.12473" lon="5.57649">
        <ele>1001.75</ele>
        <time>2018-06-17T15:36:15Z</time>
      </trkpt>
      <trkpt lat="45.12491" lon="5.57664">
        <ele>1001.96</ele>
        <time>2018-06-17T15:36:16Z</time>
      </trkpt>
      <trkpt lat="45.12509" lon="5.57679">
        <ele>1002.02</ele>
        <time>2018-06-17T15:36:17Z</time>
      </trkpt>
      <trkpt lat="45.12525" lon="5.57694">
        <ele>1002.04</ele>
        <time>2018-06-17T15:36:18Z</time>
      </trkpt>
      <trkpt lat="45.12542" lon="5.57709">
        <ele>1002.05</ele>
        <time>2018-06-17T15:36:19Z</time>
      </trkpt>
      <trkpt lat="45.1256" lon="5.57724">
        <ele>1002.05</ele>
        <time>2018-06-17T15:36:20Z</time>
      </trkpt>
      <trkpt lat="45.12578" lon="5.57737">
        <ele>1002.05</ele>
        <time>2018-06-17T15:36:21Z</time>
      </trkpt>
      <trkpt lat="45.12596" lon="5.57751">
        <ele>1002.75</ele>
        <time>2018-06-17T15:36:22Z</time>
      </trkpt>
      <trkpt lat="45.12615" lon="5.57764">
        <ele>1002.26</ele>
        <time>2018-06-17T15:36:23Z</time>
      </trkpt>
      <trkpt lat="45.12633" lon="5.57778">
        <ele>1002.81</ele>
        <time>2018-06-17T15:36:24Z</time>
      </trkpt>
      <trkpt lat="45.12651" lon="5.57791">
        <ele>1002.98</ele>
        <time>2018-06-17T15:36:25Z</time>
      </trkpt>
      <trkpt lat="45.1267" lon="5.57804">
        <ele>1003.03</ele>
        <time>2018-06-17T15:36:26Z</time>
      </trkpt>
      <trkpt lat="45.12689" lon="5.57817">
        <ele>1003.04</ele>
        <time>2018-06-17T15:36:27Z</time>
      </trkpt>
      <trkpt lat="45.12708" lon="5.57831">
        <ele>1003.05</ele>
        <time>2018-06-17T15:36:28Z</time>
      </trkpt>
      <trkpt lat="45.12726" lon="5.57845">
        <ele>1003.75</ele>
        <time>2018-06-17T15:36:29Z</time>
      </trkpt>
      <trkpt lat="45.12745" lon="5.5786">
        <ele>1003.96</ele>
        <time>2018-06-17T15:36:30Z</time>
      </trkpt>
      <trkpt lat="45.12763" lon="5.57874">
        <ele>1004.02</ele>
        <time>2018-06-17T15:36:31Z</time>
      </trkpt>
      <trkpt lat="45.12782" lon="5.57889">
        <ele>1004.04</ele>
        <time>2018-06-17T15:36:32Z</time>
      </trkpt>
      <trkpt lat="45.128" lon="5.57904">
        <ele>1003.35</ele>
        <time>2018-06-17T15:36:33Z</time>
      </trkpt>
      <trkpt lat="45.12819" lon="5.57918">
        <ele>1003.14</ele>
        <time>2018-06-17T15:36:34Z</time>
      </trkpt>
      <trkpt lat="45.12838" lon="5.57932">
        <ele>1003.08</ele>
        <time>2018-06-17T15:36:35Z</time>
      </trkpt>
      <trkpt lat="45.12856" lon="5.57946">
        <ele>1003.06</ele>
        <time>2018-06-17T15:36:36Z</time>
      </trkpt>
      <trkpt lat="45.12873" lon="5.5796">
        <ele>1003.05</ele>
        <time>2018-06-17T15:36:37Z</time>
      </trkpt>
      <trkpt lat="45.12889" lon="5.57972">
        <ele>1003.05</ele>
        <time>2018-06-17T15:36:38Z</time>
      </trkpt>
      <trkpt lat="45.12905" lon="5.57984">
        <ele>1003.05</ele>
        <time>2018-06-17T15:36:39Z</time>
      </trkpt>
      <trkpt lat="45.12922" lon="5.57997">
        <ele>1003.05</ele>
        <time>2018-06-17T15:36:40Z</time>
      </trkpt>
      <trkpt lat="45.12953" lon="5.58022">
        <ele>1003.75</ele>
        <time>2018-06-17T15:36:42Z</time>
      </trkpt>
      <trkpt lat="45.12969" lon="5.58035">
        <ele>1003.96</ele>
        <time>2018-06-17T15:36:43Z</time>
      </trkpt>
      <trkpt lat="45.12985" lon="5.58047">
        <ele>1004.02</ele>
        <time>2018-06-17T15:36:44Z</time>
      </trkpt>
      <trkpt lat="45.13014" lon="5.5807">
        <ele>1003.14</ele>
        <time>2018-06-17T15:36:46Z</time>
      </trkpt>
      <trkpt lat="45.13038" lon="5.58086">
        <ele>1003.97</ele>
        <time>2018-06-17T15:36:48Z</time>
      </trkpt>
      <trkpt lat="45.13051" lon="5.58107">
        <ele>1004.04</ele>
        <time>2018-06-17T15:36:50Z</time>
      </trkpt>
      <trkpt lat="45.13052" lon="5.58133">
        <ele>1004.26</ele>
        <time>2018-06-17T15:36:52Z</time>
      </trkpt>
      <trkpt lat="45.13068" lon="5.58153">
        <ele>1004.75</ele>
        <time>2018-06-17T15:36:56Z</time>
      </trkpt>
      <trkpt lat="45.13083" lon="5.58176">
        <ele>1005.05</ele>
        <time>2018-06-17T15:37:00Z</time>
      </trkpt>
      <trkpt lat="45.13107" lon="5.58172">
        <ele>1003.38</ele>
        <time>2018-06-17T15:37:04Z</time>
      </trkpt>
      <trkpt lat="45.13125" lon="5.5816">
        <ele>1003.08</ele>
        <time>2018-06-17T15:37:06Z</time>
      </trkpt>
      <trkpt lat="45.13149" lon="5.58156">
        <ele>1003.05</ele>
        <time>2018-06-17T15:37:08Z</time>
      </trkpt>
      <trkpt lat="45.13167" lon="5.58157">
        <ele>1003.05</ele>
        <time>2018-06-17T15:37:09Z</time>
      </trkpt>
      <trkpt lat="45.13188" lon="5.58161">
        <ele>1003.05</ele>
        <time>2018-06-17T15:37:10Z</time>
      </trkpt>
      <trkpt lat="45.13209" lon="5.58166">
        <ele>1001.65</ele>
        <time>2018-06-17T15:37:11Z</time>
      </trkpt>
      <trkpt lat="45.1323" lon="5.58171">
        <ele>1001.23</ele>
        <time>2018-06-17T15:37:12Z</time>
      </trkpt>
      <trkpt lat="45.1325" lon="5.58178">
        <ele>1000.4</ele>
        <time>2018-06-17T15:37:13Z</time>
      </trkpt>
      <trkpt lat="45.1327" lon="5.58188">
        <ele>1000.16</ele>
        <time>2018-06-17T15:37:14Z</time>
      </trkpt>
      <trkpt lat="45.13288" lon="5.58199">
        <ele>1000.08</ele>
        <time>2018-06-17T15:37:15Z</time>
      </trkpt>
      <trkpt lat="45.13305" lon="5.58212">
        <ele>999.36</ele>
        <time>2018-06-17T15:37:16Z</time>
      </trkpt>
      <trkpt lat="45.13322" lon="5.58226">
        <ele>999.14</ele>
        <time>2018-06-17T15:37:17Z</time>
      </trkpt>
      <trkpt lat="45.13341" lon="5.58241">
        <ele>999.08</ele>
        <time>2018-06-17T15:37:18Z</time>
      </trkpt>
      <trkpt lat="45.13359" lon="5.58259">
        <ele>998.36</ele>
        <time>2018-06-17T15:37:19Z</time>
      </trkpt>
      <trkpt lat="45.13379" lon="5.58281">
        <ele>998.14</ele>
        <time>2018-06-17T15:37:20Z</time>
      </trkpt>
      <trkpt lat="45.13398" lon="5.58305">
        <ele>998.08</ele>
        <time>2018-06-17T15:37:21Z</time>
      </trkpt>
      <trkpt lat="45.13417" lon="5.5833">
        <ele>998.06</ele>
        <time>2018-06-17T15:37:22Z</time>
      </trkpt>
      <trkpt lat="45.13436" lon="5.58355">
        <ele>997.35</ele>
        <time>2018-06-17T15:37:23Z</time>
      </trkpt>
      <trkpt lat="45.13455" lon="5.58377">
        <ele>996.44</ele>
        <time>2018-06-17T15:37:24Z</time>
      </trkpt>
      <trkpt lat="45.13473" lon="5.58398">
        <ele>995.47</ele>
        <time>2018-06-17T15:37:25Z</time>
      </trkpt>
      <trkpt lat="45.13492" lon="5.58417">
        <ele>994.47</ele>
        <time>2018-06-17T15:37:26Z</time>
      </trkpt>
      <trkpt lat="45.13511" lon="5.58436">
        <ele>993.48</ele>
        <time>2018-06-17T15:37:27Z</time>
      </trkpt>
      <trkpt lat="45.13532" lon="5.58453">
        <ele>991.78</ele>
        <time>2018-06-17T15:37:28Z</time>
      </trkpt>
      <trkpt lat="45.13553" lon="5.58469">
        <ele>990.57</ele>
        <time>2018-06-17T15:37:29Z</time>
      </trkpt>
      <trkpt lat="45.13575" lon="5.58485">
        <ele>988.8</ele>
        <time>2018-06-17T15:37:30Z</time>
      </trkpt>
      <trkpt lat="45.13597" lon="5.58501">
        <ele>987.58</ele>
        <time>2018-06-17T15:37:31Z</time>
      </trkpt>
      <trkpt lat="45.13618" lon="5.58518">
        <ele>985.81</ele>
        <time>2018-06-17T15:37:32Z</time>
      </trkpt>
      <trkpt lat="45.13638" lon="5.58537">
        <ele>983.88</ele>
        <time>2018-06-17T15:37:33Z</time>
      </trkpt>
      <trkpt lat="45.13657" lon="5.58558">
        <ele>982.6</ele>
        <time>2018-06-17T15:37:34Z</time>
      </trkpt>
      <trkpt lat="45.13675" lon="5.58578">
        <ele>980.11</ele>
        <time>2018-06-17T15:37:35Z</time>
      </trkpt>
      <trkpt lat="45.13694" lon="5.58598">
        <ele>978.67</ele>
        <time>2018-06-17T15:37:36Z</time>
      </trkpt>
      <trkpt lat="45.13712" lon="5.58614">
        <ele>976.83</ele>
        <time>2018-06-17T15:37:37Z</time>
      </trkpt>
      <trkpt lat="45.13731" lon="5.58629">
        <ele>975.58</ele>
        <time>2018-06-17T15:37:38Z</time>
      </trkpt>
      <trkpt lat="45.13751" lon="5.58642">
        <ele>973.81</ele>
        <time>2018-06-17T15:37:39Z</time>
      </trkpt>
      <trkpt lat="45.13771" lon="5.58653">
        <ele>972.58</ele>
        <time>2018-06-17T15:37:40Z</time>
      </trkpt>
      <trkpt lat="45.13789" lon="5.58663">
        <ele>971.51</ele>
        <time>2018-06-17T15:37:41Z</time>
      </trkpt>
      <trkpt lat="45.13807" lon="5.58674">
        <ele>970.49</ele>
        <time>2018-06-17T15:37:42Z</time>
      </trkpt>
      <trkpt lat="45.13826" lon="5.58683">
        <ele>970.18</ele>
        <time>2018-06-17T15:37:43Z</time>
      </trkpt>
      <trkpt lat="45.13844" lon="5.58692">
        <ele>968.69</ele>
        <time>2018-06-17T15:37:44Z</time>
      </trkpt>
      <trkpt lat="45.13864" lon="5.58703">
        <ele>968.24</ele>
        <time>2018-06-17T15:37:45Z</time>
      </trkpt>
      <trkpt lat="45.13884" lon="5.58715">
        <ele>966.01</ele>
        <time>2018-06-17T15:37:46Z</time>
      </trkpt>
      <trkpt lat="45.13906" lon="5.58729">
        <ele>964.64</ele>
        <time>2018-06-17T15:37:47Z</time>
      </trkpt>
      <trkpt lat="45.13928" lon="5.58746">
        <ele>964.23</ele>
        <time>2018-06-17T15:37:48Z</time>
      </trkpt>
      <trkpt lat="45.13948" lon="5.58765">
        <ele>964.1</ele>
        <time>2018-06-17T15:37:49Z</time>
      </trkpt>
      <trkpt lat="45.13968" lon="5.58786">
        <ele>963.36</ele>
        <time>2018-06-17T15:37:50Z</time>
      </trkpt>
      <trkpt lat="45.13987" lon="5.5881">
        <ele>962.44</ele>
        <time>2018-06-17T15:37:51Z</time>
      </trkpt>
      <trkpt lat="45.14004" lon="5.58836">
        <ele>962.17</ele>
        <time>2018-06-17T15:37:52Z</time>
      </trkpt>
      <trkpt lat="45.14021" lon="5.58862">
        <ele>960.68</ele>
        <time>2018-06-17T15:37:53Z</time>
      </trkpt>
      <trkpt lat="45.14036" lon="5.58888">
        <ele>959.54</ele>
        <time>2018-06-17T15:37:54Z</time>
      </trkpt>
      <trkpt lat="45.14051" lon="5.58914">
        <ele>958.5</ele>
        <time>2018-06-17T15:37:55Z</time>
      </trkpt>
      <trkpt lat="45.14064" lon="5.58939">
        <ele>957.48</ele>
        <time>2018-06-17T15:37:56Z</time>
      </trkpt>
      <trkpt lat="45.14075" lon="5.58962">
        <ele>955.78</ele>
        <time>2018-06-17T15:37:57Z</time>
      </trkpt>
      <trkpt lat="45.14084" lon="5.58985">
        <ele>955.27</ele>
        <time>2018-06-17T15:37:58Z</time>
      </trkpt>
      <trkpt lat="45.1409" lon="5.5901">
        <ele>953.71</ele>
        <time>2018-06-17T15:37:59Z</time>
      </trkpt>
      <trkpt lat="45.14093" lon="5.59056">
        <ele>951.5</ele>
        <time>2018-06-17T15:38:01Z</time>
      </trkpt>
      <trkpt lat="45.14086" lon="5.59099">
        <ele>950.18</ele>
        <time>2018-06-17T15:38:03Z</time>
      </trkpt>
      <trkpt lat="45.14081" lon="5.59134">
        <ele>948.45</ele>
        <time>2018-06-17T15:38:05Z</time>
      </trkpt>
      <trkpt lat="45.14081" lon="5.59168">
        <ele>947.18</ele>
        <time>2018-06-17T15:38:07Z</time>
      </trkpt>
      <trkpt lat="45.1409" lon="5.59201">
        <ele>944.75</ele>
        <time>2018-06-17T15:38:09Z</time>
      </trkpt>
      <trkpt lat="45.14109" lon="5.59236">
        <ele>945.02</ele>
        <time>2018-06-17T15:38:11Z</time>
      </trkpt>
      <trkpt lat="45.14129" lon="5.59252">
        <ele>945.04</ele>
        <time>2018-06-17T15:38:12Z</time>
      </trkpt>
      <trkpt lat="45.14147" lon="5.59262">
        <ele>945.05</ele>
        <time>2018-06-17T15:38:13Z</time>
      </trkpt>
      <trkpt lat="45.14167" lon="5.59272">
        <ele>944.35</ele>
        <time>2018-06-17T15:38:14Z</time>
      </trkpt>
      <trkpt lat="45.14185" lon="5.59287">
        <ele>944.14</ele>
        <time>2018-06-17T15:38:15Z</time>
      </trkpt>
      <trkpt lat="45.142" lon="5.59304">
        <ele>942.68</ele>
        <time>2018-06-17T15:38:16Z</time>
      </trkpt>
      <trkpt lat="45.14216" lon="5.59321">
        <ele>940.84</ele>
        <time>2018-06-17T15:38:17Z</time>
      </trkpt>
      <trkpt lat="45.14228" lon="5.59359">
        <ele>940.29</ele>
        <time>2018-06-17T15:38:18Z</time>
      </trkpt>
      <trkpt lat="45.14241" lon="5.59388">
        <ele>940.12</ele>
        <time>2018-06-17T15:38:19Z</time>
      </trkpt>
      <trkpt lat="45.14252" lon="5.59417">
        <ele>937.97</ele>
        <time>2018-06-17T15:38:20Z</time>
      </trkpt>
      <trkpt lat="45.14265" lon="5.59444">
        <ele>938.03</ele>
        <time>2018-06-17T15:38:21Z</time>
      </trkpt>
      <trkpt lat="45.14279" lon="5.59471">
        <ele>938.04</ele>
        <time>2018-06-17T15:38:22Z</time>
      </trkpt>
      <trkpt lat="45.14291" lon="5.59501">
        <ele>937.35</ele>
        <time>2018-06-17T15:38:23Z</time>
      </trkpt>
      <trkpt lat="45.14303" lon="5.59532">
        <ele>937.14</ele>
        <time>2018-06-17T15:38:24Z</time>
      </trkpt>
      <trkpt lat="45.14315" lon="5.59561">
        <ele>936.38</ele>
        <time>2018-06-17T15:38:25Z</time>
      </trkpt>
      <trkpt lat="45.14327" lon="5.59591">
        <ele>934.75</ele>
        <time>2018-06-17T15:38:26Z</time>
      </trkpt>
      <trkpt lat="45.14338" lon="5.59621">
        <ele>933.56</ele>
        <time>2018-06-17T15:38:27Z</time>
      </trkpt>
      <trkpt lat="45.14347" lon="5.5965">
        <ele>932.5</ele>
        <time>2018-06-17T15:38:28Z</time>
      </trkpt>
      <trkpt lat="45.14356" lon="5.59676">
        <ele>932.88</ele>
        <time>2018-06-17T15:38:29Z</time>
      </trkpt>
      <trkpt lat="45.14365" lon="5.59702">
        <ele>933</ele>
        <time>2018-06-17T15:38:30Z</time>
      </trkpt>
      <trkpt lat="45.14383" lon="5.59738">
        <ele>933.04</ele>
        <time>2018-06-17T15:38:32Z</time>
      </trkpt>
      <trkpt lat="45.14423" lon="5.59749">
        <ele>933.96</ele>
        <time>2018-06-17T15:38:34Z</time>
      </trkpt>
      <trkpt lat="45.14449" lon="5.59761">
        <ele>934.25</ele>
        <time>2018-06-17T15:38:36Z</time>
      </trkpt>
      <trkpt lat="45.14467" lon="5.59757">
        <ele>934.75</ele>
        <time>2018-06-17T15:38:40Z</time>
      </trkpt>
      <trkpt lat="45.14486" lon="5.59752">
        <ele>930.26</ele>
        <time>2018-06-17T15:39:04Z</time>
      </trkpt>
      <trkpt lat="45.14504" lon="5.59744">
        <ele>930.07</ele>
        <time>2018-06-17T15:39:06Z</time>
      </trkpt>
      <trkpt lat="45.14526" lon="5.59738">
        <ele>929.14</ele>
        <time>2018-06-17T15:39:08Z</time>
      </trkpt>
      <trkpt lat="45.14552" lon="5.59738">
        <ele>929.97</ele>
        <time>2018-06-17T15:39:10Z</time>
      </trkpt>
      <trkpt lat="45.14575" lon="5.59758">
        <ele>930.04</ele>
        <time>2018-06-17T15:39:12Z</time>
      </trkpt>
      <trkpt lat="45.14596" lon="5.59779">
        <ele>930.75</ele>
        <time>2018-06-17T15:39:14Z</time>
      </trkpt>
      <trkpt lat="45.14613" lon="5.5982">
        <ele>930.81</ele>
        <time>2018-06-17T15:39:16Z</time>
      </trkpt>
      <trkpt lat="45.14621" lon="5.59875">
        <ele>929.42</ele>
        <time>2018-06-17T15:39:18Z</time>
      </trkpt>
      <trkpt lat="45.1463" lon="5.59901">
        <ele>929.86</ele>
        <time>2018-06-17T15:39:19Z</time>
      </trkpt>
      <trkpt lat="45.1464" lon="5.59927">
        <ele>929.29</ele>
        <time>2018-06-17T15:39:20Z</time>
      </trkpt>
      <trkpt lat="45.14654" lon="5.59953">
        <ele>929.82</ele>
        <time>2018-06-17T15:39:21Z</time>
      </trkpt>
      <trkpt lat="45.14668" lon="5.59976">
        <ele>929.98</ele>
        <time>2018-06-17T15:39:22Z</time>
      </trkpt>
      <trkpt lat="45.14682" lon="5.59998">
        <ele>930.03</ele>
        <time>2018-06-17T15:39:23Z</time>
      </trkpt>
      <trkpt lat="45.14699" lon="5.60018">
        <ele>930.74</ele>
        <time>2018-06-17T15:39:24Z</time>
      </trkpt>
      <trkpt lat="45.14718" lon="5.60034">
        <ele>930.96</ele>
        <time>2018-06-17T15:39:25Z</time>
      </trkpt>
      <trkpt lat="45.14742" lon="5.60048">
        <ele>931.02</ele>
        <time>2018-06-17T15:39:26Z</time>
      </trkpt>
      <trkpt lat="45.14765" lon="5.6006">
        <ele>931.04</ele>
        <time>2018-06-17T15:39:27Z</time>
      </trkpt>
      <trkpt lat="45.14788" lon="5.60066">
        <ele>931.75</ele>
        <time>2018-06-17T15:39:28Z</time>
      </trkpt>
      <trkpt lat="45.14816" lon="5.6005">
        <ele>930.56</ele>
        <time>2018-06-17T15:39:29Z</time>
      </trkpt>
      <trkpt lat="45.14842" lon="5.60039">
        <ele>928.8</ele>
        <time>2018-06-17T15:39:30Z</time>
      </trkpt>
      <trkpt lat="45.14867" lon="5.60035">
        <ele>928.97</ele>
        <time>2018-06-17T15:39:31Z</time>
      </trkpt>
      <trkpt lat="45.14897" lon="5.6002">
        <ele>928.33</ele>
        <time>2018-06-17T15:39:32Z</time>
      </trkpt>
      <trkpt lat="45.14924" lon="5.60014">
        <ele>928.83</ele>
        <time>2018-06-17T15:39:33Z</time>
      </trkpt>
      <trkpt lat="45.14949" lon="5.60012">
        <ele>928.28</ele>
        <time>2018-06-17T15:39:34Z</time>
      </trkpt>
      <trkpt lat="45.14975" lon="5.60013">
        <ele>928.12</ele>
        <time>2018-06-17T15:39:35Z</time>
      </trkpt>
      <trkpt lat="45.15001" lon="5.60016">
        <ele>927.37</ele>
        <time>2018-06-17T15:39:36Z</time>
      </trkpt>
      <trkpt lat="45.15025" lon="5.6003">
        <ele>925.75</ele>
        <time>2018-06-17T15:39:37Z</time>
      </trkpt>
      <trkpt lat="45.15049" lon="5.60045">
        <ele>923.86</ele>
        <time>2018-06-17T15:39:38Z</time>
      </trkpt>
      <trkpt lat="45.15072" lon="5.60062">
        <ele>922.59</ele>
        <time>2018-06-17T15:39:39Z</time>
      </trkpt>
      <trkpt lat="45.15093" lon="5.60083">
        <ele>922.21</ele>
        <time>2018-06-17T15:39:40Z</time>
      </trkpt>
      <trkpt lat="45.15113" lon="5.6011">
        <ele>920.7</ele>
        <time>2018-06-17T15:39:41Z</time>
      </trkpt>
      <trkpt lat="45.1513" lon="5.6014">
        <ele>919.54</ele>
        <time>2018-06-17T15:39:42Z</time>
      </trkpt>
      <trkpt lat="45.15145" lon="5.60173">
        <ele>919.9</ele>
        <time>2018-06-17T15:39:43Z</time>
      </trkpt>
      <trkpt lat="45.1516" lon="5.60205">
        <ele>920</ele>
        <time>2018-06-17T15:39:44Z</time>
      </trkpt>
      <trkpt lat="45.15179" lon="5.60238">
        <ele>920.04</ele>
        <time>2018-06-17T15:39:45Z</time>
      </trkpt>
      <trkpt lat="45.15197" lon="5.60269">
        <ele>920.74</ele>
        <time>2018-06-17T15:39:46Z</time>
      </trkpt>
      <trkpt lat="45.15219" lon="5.60297">
        <ele>920.96</ele>
        <time>2018-06-17T15:39:47Z</time>
      </trkpt>
      <trkpt lat="45.1524" lon="5.60326">
        <ele>920.32</ele>
        <time>2018-06-17T15:39:48Z</time>
      </trkpt>
      <trkpt lat="45.15264" lon="5.60351">
        <ele>920.13</ele>
        <time>2018-06-17T15:39:49Z</time>
      </trkpt>
      <trkpt lat="45.1529" lon="5.60373">
        <ele>920.07</ele>
        <time>2018-06-17T15:39:50Z</time>
      </trkpt>
      <trkpt lat="45.15312" lon="5.60397">
        <ele>920.06</ele>
        <time>2018-06-17T15:39:51Z</time>
      </trkpt>
      <trkpt lat="45.15332" lon="5.6042">
        <ele>918.65</ele>
        <time>2018-06-17T15:39:52Z</time>
      </trkpt>
      <trkpt lat="45.15351" lon="5.60443">
        <ele>917.53</ele>
        <time>2018-06-17T15:39:53Z</time>
      </trkpt>
      <trkpt lat="45.15368" lon="5.60468">
        <ele>915.79</ele>
        <time>2018-06-17T15:39:54Z</time>
      </trkpt>
      <trkpt lat="45.15383" lon="5.60494">
        <ele>914.57</ele>
        <time>2018-06-17T15:39:55Z</time>
      </trkpt>
      <trkpt lat="45.15391" lon="5.60526">
        <ele>913.51</ele>
        <time>2018-06-17T15:39:56Z</time>
      </trkpt>
      <trkpt lat="45.15402" lon="5.60551">
        <ele>912.49</ele>
        <time>2018-06-17T15:39:57Z</time>
      </trkpt>
      <trkpt lat="45.15413" lon="5.60576">
        <ele>911.48</ele>
        <time>2018-06-17T15:39:58Z</time>
      </trkpt>
      <trkpt lat="45.15425" lon="5.606">
        <ele>911.18</ele>
        <time>2018-06-17T15:39:59Z</time>
      </trkpt>
      <trkpt lat="45.1544" lon="5.60615">
        <ele>909.69</ele>
        <time>2018-06-17T15:40:00Z</time>
      </trkpt>
      <trkpt lat="45.15477" lon="5.60624">
        <ele>904.77</ele>
        <time>2018-06-17T15:40:02Z</time>
      </trkpt>
      <trkpt lat="45.15504" lon="5.60632">
        <ele>902.86</ele>
        <time>2018-06-17T15:40:03Z</time>
      </trkpt>
      <trkpt lat="45.1554" lon="5.60641">
        <ele>902.29</ele>
        <time>2018-06-17T15:40:04Z</time>
      </trkpt>
      <trkpt lat="45.15585" lon="5.60654">
        <ele>902.12</ele>
        <time>2018-06-17T15:40:05Z</time>
      </trkpt>
      <trkpt lat="45.15619" lon="5.6067">
        <ele>902.07</ele>
        <time>2018-06-17T15:40:06Z</time>
      </trkpt>
      <trkpt lat="45.1565" lon="5.60685">
        <ele>902.06</ele>
        <time>2018-06-17T15:40:07Z</time>
      </trkpt>
      <trkpt lat="45.15681" lon="5.60702">
        <ele>902.05</ele>
        <time>2018-06-17T15:40:08Z</time>
      </trkpt>
      <trkpt lat="45.1571" lon="5.60719">
        <ele>900.65</ele>
        <time>2018-06-17T15:40:09Z</time>
      </trkpt>
      <trkpt lat="45.15738" lon="5.60739">
        <ele>900.93</ele>
        <time>2018-06-17T15:40:10Z</time>
      </trkpt>
      <trkpt lat="45.15763" lon="5.60759">
        <ele>900.31</ele>
        <time>2018-06-17T15:40:11Z</time>
      </trkpt>
      <trkpt lat="45.15789" lon="5.60777">
        <ele>900.13</ele>
        <time>2018-06-17T15:40:12Z</time>
      </trkpt>
      <trkpt lat="45.15816" lon="5.60794">
        <ele>900.07</ele>
        <time>2018-06-17T15:40:13Z</time>
      </trkpt>
      <trkpt lat="45.15844" lon="5.60809">
        <ele>899.36</ele>
        <time>2018-06-17T15:40:14Z</time>
      </trkpt>
      <trkpt lat="45.15875" lon="5.60822">
        <ele>899.14</ele>
        <time>2018-06-17T15:40:15Z</time>
      </trkpt>
      <trkpt lat="45.15906" lon="5.6084">
        <ele>898.38</ele>
        <time>2018-06-17T15:40:16Z</time>
      </trkpt>
      <trkpt lat="45.15935" lon="5.6086">
        <ele>897.45</ele>
        <time>2018-06-17T15:40:17Z</time>
      </trkpt>
      <trkpt lat="45.15963" lon="5.6088">
        <ele>897.87</ele>
        <time>2018-06-17T15:40:18Z</time>
      </trkpt>
      <trkpt lat="45.15991" lon="5.60899">
        <ele>897.29</ele>
        <time>2018-06-17T15:40:19Z</time>
      </trkpt>
      <trkpt lat="45.1602" lon="5.60915">
        <ele>897.12</ele>
        <time>2018-06-17T15:40:20Z</time>
      </trkpt>
      <trkpt lat="45.16049" lon="5.60928">
        <ele>897.07</ele>
        <time>2018-06-17T15:40:21Z</time>
      </trkpt>
      <trkpt lat="45.16077" lon="5.60939">
        <ele>897.06</ele>
        <time>2018-06-17T15:40:22Z</time>
      </trkpt>
      <trkpt lat="45.16106" lon="5.60948">
        <ele>897.75</ele>
        <time>2018-06-17T15:40:23Z</time>
      </trkpt>
      <trkpt lat="45.1614" lon="5.6095">
        <ele>895.86</ele>
        <time>2018-06-17T15:40:24Z</time>
      </trkpt>
      <trkpt lat="45.16172" lon="5.60946">
        <ele>895.29</ele>
        <time>2018-06-17T15:40:25Z</time>
      </trkpt>
      <trkpt lat="45.16204" lon="5.60947">
        <ele>893.02</ele>
        <time>2018-06-17T15:40:26Z</time>
      </trkpt>
      <trkpt lat="45.16238" lon="5.60949">
        <ele>891.64</ele>
        <time>2018-06-17T15:40:27Z</time>
      </trkpt>
      <trkpt lat="45.16269" lon="5.60954">
        <ele>891.93</ele>
        <time>2018-06-17T15:40:28Z</time>
      </trkpt>
      <trkpt lat="45.16301" lon="5.60959">
        <ele>891.31</ele>
        <time>2018-06-17T15:40:29Z</time>
      </trkpt>
      <trkpt lat="45.16332" lon="5.60965">
        <ele>890.43</ele>
        <time>2018-06-17T15:40:30Z</time>
      </trkpt>
      <trkpt lat="45.16363" lon="5.60971">
        <ele>889.46</ele>
        <time>2018-06-17T15:40:31Z</time>
      </trkpt>
      <trkpt lat="45.1639" lon="5.60984">
        <ele>887.77</ele>
        <time>2018-06-17T15:40:32Z</time>
      </trkpt>
      <trkpt lat="45.16417" lon="5.61001">
        <ele>885.87</ele>
        <time>2018-06-17T15:40:33Z</time>
      </trkpt>
      <trkpt lat="45.16443" lon="5.6102">
        <ele>885.29</ele>
        <time>2018-06-17T15:40:34Z</time>
      </trkpt>
      <trkpt lat="45.16468" lon="5.61044">
        <ele>885.82</ele>
        <time>2018-06-17T15:40:35Z</time>
      </trkpt>
      <trkpt lat="45.1649" lon="5.61067">
        <ele>884.58</ele>
        <time>2018-06-17T15:40:36Z</time>
      </trkpt>
      <trkpt lat="45.16516" lon="5.61083">
        <ele>883.51</ele>
        <time>2018-06-17T15:40:37Z</time>
      </trkpt>
      <trkpt lat="45.1654" lon="5.61098">
        <ele>881.79</ele>
        <time>2018-06-17T15:40:38Z</time>
      </trkpt>
      <trkpt lat="45.16569" lon="5.61108">
        <ele>881.27</ele>
        <time>2018-06-17T15:40:39Z</time>
      </trkpt>
      <trkpt lat="45.16596" lon="5.61102">
        <ele>880.42</ele>
        <time>2018-06-17T15:40:40Z</time>
      </trkpt>
      <trkpt lat="45.16624" lon="5.61108">
        <ele>879.46</ele>
        <time>2018-06-17T15:40:41Z</time>
      </trkpt>
      <trkpt lat="45.16649" lon="5.6112">
        <ele>878.47</ele>
        <time>2018-06-17T15:40:42Z</time>
      </trkpt>
      <trkpt lat="45.16673" lon="5.61134">
        <ele>877.48</ele>
        <time>2018-06-17T15:40:43Z</time>
      </trkpt>
      <trkpt lat="45.16696" lon="5.61154">
        <ele>877.18</ele>
        <time>2018-06-17T15:40:44Z</time>
      </trkpt>
      <trkpt lat="45.1672" lon="5.61182">
        <ele>876.39</ele>
        <time>2018-06-17T15:40:45Z</time>
      </trkpt>
      <trkpt lat="45.16746" lon="5.61201">
        <ele>876.15</ele>
        <time>2018-06-17T15:40:46Z</time>
      </trkpt>
      <trkpt lat="45.16772" lon="5.61219">
        <ele>876.08</ele>
        <time>2018-06-17T15:40:47Z</time>
      </trkpt>
      <trkpt lat="45.16799" lon="5.61237">
        <ele>876.06</ele>
        <time>2018-06-17T15:40:48Z</time>
      </trkpt>
      <trkpt lat="45.16829" lon="5.61251">
        <ele>876.05</ele>
        <time>2018-06-17T15:40:49Z</time>
      </trkpt>
      <trkpt lat="45.16859" lon="5.61267">
        <ele>876.05</ele>
        <time>2018-06-17T15:40:50Z</time>
      </trkpt>
      <trkpt lat="45.16888" lon="5.61282">
        <ele>876.05</ele>
        <time>2018-06-17T15:40:51Z</time>
      </trkpt>
      <trkpt lat="45.16917" lon="5.61299">
        <ele>876.05</ele>
        <time>2018-06-17T15:40:52Z</time>
      </trkpt>
      <trkpt lat="45.16946" lon="5.61315">
        <ele>874.65</ele>
        <time>2018-06-17T15:40:53Z</time>
      </trkpt>
      <trkpt lat="45.16974" lon="5.61331">
        <ele>873.53</ele>
        <time>2018-06-17T15:40:54Z</time>
      </trkpt>
      <trkpt lat="45.17002" lon="5.61347">
        <ele>872.49</ele>
        <time>2018-06-17T15:40:55Z</time>
      </trkpt>
      <trkpt lat="45.17028" lon="5.61361">
        <ele>871.48</ele>
        <time>2018-06-17T15:40:56Z</time>
      </trkpt>
      <trkpt lat="45.17054" lon="5.61372">
        <ele>870.48</ele>
        <time>2018-06-17T15:40:57Z</time>
      </trkpt>
      <trkpt lat="45.1708" lon="5.61376">
        <ele>868.78</ele>
        <time>2018-06-17T15:40:58Z</time>
      </trkpt>
      <trkpt lat="45.17105" lon="5.61378">
        <ele>867.57</ele>
        <time>2018-06-17T15:40:59Z</time>
      </trkpt>
      <trkpt lat="45.17131" lon="5.61378">
        <ele>866.5</ele>
        <time>2018-06-17T15:41:00Z</time>
      </trkpt>
      <trkpt lat="45.17156" lon="5.61379">
        <ele>865.49</ele>
        <time>2018-06-17T15:41:01Z</time>
      </trkpt>
      <trkpt lat="45.17181" lon="5.61385">
        <ele>864.48</ele>
        <time>2018-06-17T15:41:02Z</time>
      </trkpt>
      <trkpt lat="45.17206" lon="5.61396">
        <ele>864.88</ele>
        <time>2018-06-17T15:41:03Z</time>
      </trkpt>
      <trkpt lat="45.17229" lon="5.61423">
        <ele>865.7</ele>
        <time>2018-06-17T15:41:04Z</time>
      </trkpt>
      <trkpt lat="45.17256" lon="5.61448">
        <ele>865.24</ele>
        <time>2018-06-17T15:41:05Z</time>
      </trkpt>
      <trkpt lat="45.17283" lon="5.61463">
        <ele>863.71</ele>
        <time>2018-06-17T15:41:06Z</time>
      </trkpt>
      <trkpt lat="45.17309" lon="5.61478">
        <ele>863.25</ele>
        <time>2018-06-17T15:41:07Z</time>
      </trkpt>
      <trkpt lat="45.17336" lon="5.61482">
        <ele>863.11</ele>
        <time>2018-06-17T15:41:08Z</time>
      </trkpt>
      <trkpt lat="45.17359" lon="5.61494">
        <ele>863.07</ele>
        <time>2018-06-17T15:41:09Z</time>
      </trkpt>
      <trkpt lat="45.1738" lon="5.6151">
        <ele>862.35</ele>
        <time>2018-06-17T15:41:10Z</time>
      </trkpt>
      <trkpt lat="45.17397" lon="5.61531">
        <ele>861.44</ele>
        <time>2018-06-17T15:41:11Z</time>
      </trkpt>
      <trkpt lat="45.17414" lon="5.61553">
        <ele>860.47</ele>
        <time>2018-06-17T15:41:12Z</time>
      </trkpt>
      <trkpt lat="45.17426" lon="5.61582">
        <ele>860.17</ele>
        <time>2018-06-17T15:41:13Z</time>
      </trkpt>
      <trkpt lat="45.17431" lon="5.61619">
        <ele>859.39</ele>
        <time>2018-06-17T15:41:14Z</time>
      </trkpt>
      <trkpt lat="45.1744" lon="5.6165">
        <ele>859.15</ele>
        <time>2018-06-17T15:41:15Z</time>
      </trkpt>
      <trkpt lat="45.1745" lon="5.61679">
        <ele>858.38</ele>
        <time>2018-06-17T15:41:16Z</time>
      </trkpt>
      <trkpt lat="45.17466" lon="5.61701">
        <ele>857.45</ele>
        <time>2018-06-17T15:41:17Z</time>
      </trkpt>
      <trkpt lat="45.17478" lon="5.61723">
        <ele>857.17</ele>
        <time>2018-06-17T15:41:18Z</time>
      </trkpt>
      <trkpt lat="45.1749" lon="5.61747">
        <ele>855.68</ele>
        <time>2018-06-17T15:41:19Z</time>
      </trkpt>
      <trkpt lat="45.1751" lon="5.61773">
        <ele>856.02</ele>
        <time>2018-06-17T15:41:21Z</time>
      </trkpt>
      <trkpt lat="45.17532" lon="5.61795">
        <ele>855.14</ele>
        <time>2018-06-17T15:41:23Z</time>
      </trkpt>
      <trkpt lat="45.1755" lon="5.6181">
        <ele>855.06</ele>
        <time>2018-06-17T15:41:25Z</time>
      </trkpt>
      <trkpt lat="45.17572" lon="5.61818">
        <ele>855.05</ele>
        <time>2018-06-17T15:41:28Z</time>
      </trkpt>
      <trkpt lat="45.17599" lon="5.61814">
        <ele>856.72</ele>
        <time>2018-06-17T15:41:31Z</time>
      </trkpt>
      <trkpt lat="45.1762" lon="5.61808">
        <ele>857.72</ele>
        <time>2018-06-17T15:41:33Z</time>
      </trkpt>
      <trkpt lat="45.17642" lon="5.61809">
        <ele>858.74</ele>
        <time>2018-06-17T15:41:36Z</time>
      </trkpt>
      <trkpt lat="45.17661" lon="5.61832">
        <ele>857.58</ele>
        <time>2018-06-17T15:41:39Z</time>
      </trkpt>
      <trkpt lat="45.17679" lon="5.61861">
        <ele>856.85</ele>
        <time>2018-06-17T15:41:42Z</time>
      </trkpt>
      <trkpt lat="45.17701" lon="5.61882">
        <ele>856.33</ele>
        <time>2018-06-17T15:41:44Z</time>
      </trkpt>
      <trkpt lat="45.17728" lon="5.61899">
        <ele>857.89</ele>
        <time>2018-06-17T15:41:46Z</time>
      </trkpt>
      <trkpt lat="45.17748" lon="5.61889">
        <ele>857.3</ele>
        <time>2018-06-17T15:41:47Z</time>
      </trkpt>
      <trkpt lat="45.17778" lon="5.61883">
        <ele>855.46</ele>
        <time>2018-06-17T15:41:49Z</time>
      </trkpt>
      <trkpt lat="45.17811" lon="5.61889">
        <ele>855.09</ele>
        <time>2018-06-17T15:41:51Z</time>
      </trkpt>
      <trkpt lat="45.17831" lon="5.619">
        <ele>853.66</ele>
        <time>2018-06-17T15:41:52Z</time>
      </trkpt>
      <trkpt lat="45.17851" lon="5.6191">
        <ele>852.53</ele>
        <time>2018-06-17T15:41:53Z</time>
      </trkpt>
      <trkpt lat="45.17872" lon="5.6192">
        <ele>852.19</ele>
        <time>2018-06-17T15:41:54Z</time>
      </trkpt>
      <trkpt lat="45.17893" lon="5.61932">
        <ele>850.69</ele>
        <time>2018-06-17T15:41:55Z</time>
      </trkpt>
      <trkpt lat="45.17914" lon="5.61944">
        <ele>849.54</ele>
        <time>2018-06-17T15:41:56Z</time>
      </trkpt>
      <trkpt lat="45.17933" lon="5.61956">
        <ele>847.8</ele>
        <time>2018-06-17T15:41:57Z</time>
      </trkpt>
      <trkpt lat="45.17964" lon="5.61974">
        <ele>846.21</ele>
        <time>2018-06-17T15:41:59Z</time>
      </trkpt>
      <trkpt lat="45.17993" lon="5.61968">
        <ele>844.24</ele>
        <time>2018-06-17T15:42:01Z</time>
      </trkpt>
      <trkpt lat="45.18016" lon="5.61957">
        <ele>843.37</ele>
        <time>2018-06-17T15:42:03Z</time>
      </trkpt>
      <trkpt lat="45.1804" lon="5.61959">
        <ele>842.38</ele>
        <time>2018-06-17T15:42:05Z</time>
      </trkpt>
      <trkpt lat="45.18067" lon="5.6198">
        <ele>840.47</ele>
        <time>2018-06-17T15:42:07Z</time>
      </trkpt>
      <trkpt lat="45.18083" lon="5.61997">
        <ele>839.47</ele>
        <time>2018-06-17T15:42:08Z</time>
      </trkpt>
      <trkpt lat="45.18099" lon="5.62014">
        <ele>839.18</ele>
        <time>2018-06-17T15:42:09Z</time>
      </trkpt>
      <trkpt lat="45.18114" lon="5.62028">
        <ele>839.09</ele>
        <time>2018-06-17T15:42:10Z</time>
      </trkpt>
      <trkpt lat="45.18147" lon="5.62044">
        <ele>837.23</ele>
        <time>2018-06-17T15:42:12Z</time>
      </trkpt>
      <trkpt lat="45.1818" lon="5.62043">
        <ele>837.07</ele>
        <time>2018-06-17T15:42:14Z</time>
      </trkpt>
      <trkpt lat="45.18204" lon="5.62034">
        <ele>833.83</ele>
        <time>2018-06-17T15:42:16Z</time>
      </trkpt>
      <trkpt lat="45.18227" lon="5.62045">
        <ele>831.51</ele>
        <time>2018-06-17T15:42:18Z</time>
      </trkpt>
      <trkpt lat="45.18243" lon="5.62073">
        <ele>830.18</ele>
        <time>2018-06-17T15:42:20Z</time>
      </trkpt>
      <trkpt lat="45.18264" lon="5.62111">
        <ele>830.27</ele>
        <time>2018-06-17T15:42:22Z</time>
      </trkpt>
      <trkpt lat="45.18287" lon="5.62144">
        <ele>830.07</ele>
        <time>2018-06-17T15:42:24Z</time>
      </trkpt>
      <trkpt lat="45.18308" lon="5.62165">
        <ele>829.14</ele>
        <time>2018-06-17T15:42:26Z</time>
      </trkpt>
      <trkpt lat="45.18331" lon="5.62165">
        <ele>828.36</ele>
        <time>2018-06-17T15:42:28Z</time>
      </trkpt>
      <trkpt lat="45.18355" lon="5.62131">
        <ele>826.96</ele>
        <time>2018-06-17T15:42:30Z</time>
      </trkpt>
      <trkpt lat="45.18379" lon="5.62117">
        <ele>827.74</ele>
        <time>2018-06-17T15:42:32Z</time>
      </trkpt>
      <trkpt lat="45.18402" lon="5.62121">
        <ele>825.5</ele>
        <time>2018-06-17T15:42:34Z</time>
      </trkpt>
      <trkpt lat="45.18419" lon="5.62146">
        <ele>822.57</ele>
        <time>2018-06-17T15:42:36Z</time>
      </trkpt>
      <trkpt lat="45.18446" lon="5.6215">
        <ele>820.49</ele>
        <time>2018-06-17T15:42:38Z</time>
      </trkpt>
      <trkpt lat="45.18466" lon="5.62151">
        <ele>820.18</ele>
        <time>2018-06-17T15:42:39Z</time>
      </trkpt>
      <trkpt lat="45.18484" lon="5.62156">
        <ele>820.09</ele>
        <time>2018-06-17T15:42:40Z</time>
      </trkpt>
      <trkpt lat="45.18513" lon="5.62172">
        <ele>818.44</ele>
        <time>2018-06-17T15:42:42Z</time>
      </trkpt>
      <trkpt lat="45.18536" lon="5.62183">
        <ele>817.38</ele>
        <time>2018-06-17T15:42:44Z</time>
      </trkpt>
      <trkpt lat="45.18562" lon="5.62196">
        <ele>813.65</ele>
        <time>2018-06-17T15:42:46Z</time>
      </trkpt>
      <trkpt lat="45.18581" lon="5.62189">
        <ele>812.53</ele>
        <time>2018-06-17T15:42:47Z</time>
      </trkpt>
      <trkpt lat="45.18601" lon="5.62189">
        <ele>812.89</ele>
        <time>2018-06-17T15:42:48Z</time>
      </trkpt>
      <trkpt lat="45.18625" lon="5.62181">
        <ele>812.3</ele>
        <time>2018-06-17T15:42:49Z</time>
      </trkpt>
      <trkpt lat="45.18659" lon="5.62187">
        <ele>809.55</ele>
        <time>2018-06-17T15:42:51Z</time>
      </trkpt>
      <trkpt lat="45.18689" lon="5.62215">
        <ele>805.87</ele>
        <time>2018-06-17T15:42:53Z</time>
      </trkpt>
      <trkpt lat="45.18703" lon="5.62234">
        <ele>804.6</ele>
        <time>2018-06-17T15:42:54Z</time>
      </trkpt>
      <trkpt lat="45.18717" lon="5.62259">
        <ele>804.91</ele>
        <time>2018-06-17T15:42:55Z</time>
      </trkpt>
      <trkpt lat="45.18743" lon="5.62278">
        <ele>802.91</ele>
        <time>2018-06-17T15:42:56Z</time>
      </trkpt>
      <trkpt lat="45.18766" lon="5.62299">
        <ele>799.51</ele>
        <time>2018-06-17T15:42:57Z</time>
      </trkpt>
      <trkpt lat="45.18789" lon="5.6232">
        <ele>797.09</ele>
        <time>2018-06-17T15:42:58Z</time>
      </trkpt>
      <trkpt lat="45.18813" lon="5.62344">
        <ele>794.26</ele>
        <time>2018-06-17T15:42:59Z</time>
      </trkpt>
      <trkpt lat="45.18835" lon="5.62368">
        <ele>792.01</ele>
        <time>2018-06-17T15:43:00Z</time>
      </trkpt>
      <trkpt lat="45.18856" lon="5.6239">
        <ele>789.94</ele>
        <time>2018-06-17T15:43:01Z</time>
      </trkpt>
      <trkpt lat="45.18876" lon="5.62411">
        <ele>787.92</ele>
        <time>2018-06-17T15:43:02Z</time>
      </trkpt>
      <trkpt lat="45.18896" lon="5.6243">
        <ele>785.91</ele>
        <time>2018-06-17T15:43:03Z</time>
      </trkpt>
      <trkpt lat="45.18914" lon="5.62449">
        <ele>783.91</ele>
        <time>2018-06-17T15:43:04Z</time>
      </trkpt>
      <trkpt lat="45.18931" lon="5.62467">
        <ele>781.91</ele>
        <time>2018-06-17T15:43:05Z</time>
      </trkpt>
      <trkpt lat="45.18947" lon="5.62484">
        <ele>780.61</ele>
        <time>2018-06-17T15:43:06Z</time>
      </trkpt>
      <trkpt lat="45.18963" lon="5.625">
        <ele>779.52</ele>
        <time>2018-06-17T15:43:07Z</time>
      </trkpt>
      <trkpt lat="45.18992" lon="5.62521">
        <ele>776.78</ele>
        <time>2018-06-17T15:43:09Z</time>
      </trkpt>
      <trkpt lat="45.1902" lon="5.62531">
        <ele>774.71</ele>
        <time>2018-06-17T15:43:11Z</time>
      </trkpt>
      <trkpt lat="45.19058" lon="5.62515">
        <ele>773.41</ele>
        <time>2018-06-17T15:43:13Z</time>
      </trkpt>
      <trkpt lat="45.19077" lon="5.62505">
        <ele>771.76</ele>
        <time>2018-06-17T15:43:14Z</time>
      </trkpt>
      <trkpt lat="45.19097" lon="5.625">
        <ele>769.86</ele>
        <time>2018-06-17T15:43:15Z</time>
      </trkpt>
      <trkpt lat="45.19116" lon="5.62497">
        <ele>768.59</ele>
        <time>2018-06-17T15:43:16Z</time>
      </trkpt>
      <trkpt lat="45.19132" lon="5.62517">
        <ele>767.51</ele>
        <time>2018-06-17T15:43:17Z</time>
      </trkpt>
      <trkpt lat="45.19148" lon="5.62532">
        <ele>765.79</ele>
        <time>2018-06-17T15:43:18Z</time>
      </trkpt>
      <trkpt lat="45.19164" lon="5.62546">
        <ele>764.57</ele>
        <time>2018-06-17T15:43:19Z</time>
      </trkpt>
      <trkpt lat="45.192" lon="5.62556">
        <ele>762.49</ele>
        <time>2018-06-17T15:43:21Z</time>
      </trkpt>
      <trkpt lat="45.1922" lon="5.62557">
        <ele>761.48</ele>
        <time>2018-06-17T15:43:22Z</time>
      </trkpt>
      <trkpt lat="45.19255" lon="5.6256">
        <ele>759.27</ele>
        <time>2018-06-17T15:43:24Z</time>
      </trkpt>
      <trkpt lat="45.19273" lon="5.62547">
        <ele>757.01</ele>
        <time>2018-06-17T15:43:25Z</time>
      </trkpt>
      <trkpt lat="45.19307" lon="5.62537">
        <ele>754.53</ele>
        <time>2018-06-17T15:43:27Z</time>
      </trkpt>
      <trkpt lat="45.19339" lon="5.62552">
        <ele>752.48</ele>
        <time>2018-06-17T15:43:29Z</time>
      </trkpt>
      <trkpt lat="45.19356" lon="5.62567">
        <ele>752.88</ele>
        <time>2018-06-17T15:43:30Z</time>
      </trkpt>
      <trkpt lat="45.19374" lon="5.62582">
        <ele>752.3</ele>
        <time>2018-06-17T15:43:31Z</time>
      </trkpt>
      <trkpt lat="45.19393" lon="5.62591">
        <ele>751.42</ele>
        <time>2018-06-17T15:43:32Z</time>
      </trkpt>
      <trkpt lat="45.19413" lon="5.62599">
        <ele>751.16</ele>
        <time>2018-06-17T15:43:33Z</time>
      </trkpt>
      <trkpt lat="45.19433" lon="5.62605">
        <ele>751.08</ele>
        <time>2018-06-17T15:43:34Z</time>
      </trkpt>
      <trkpt lat="45.19453" lon="5.62611">
        <ele>750.36</ele>
        <time>2018-06-17T15:43:35Z</time>
      </trkpt>
      <trkpt lat="45.19473" lon="5.62617">
        <ele>749.44</ele>
        <time>2018-06-17T15:43:36Z</time>
      </trkpt>
      <trkpt lat="45.19491" lon="5.62626">
        <ele>747.07</ele>
        <time>2018-06-17T15:43:37Z</time>
      </trkpt>
      <trkpt lat="45.19508" lon="5.62636">
        <ele>744.95</ele>
        <time>2018-06-17T15:43:38Z</time>
      </trkpt>
      <trkpt lat="45.19537" lon="5.62658">
        <ele>742.52</ele>
        <time>2018-06-17T15:43:40Z</time>
      </trkpt>
      <trkpt lat="45.19565" lon="5.62676">
        <ele>741.39</ele>
        <time>2018-06-17T15:43:42Z</time>
      </trkpt>
      <trkpt lat="45.196" lon="5.6269">
        <ele>740.17</ele>
        <time>2018-06-17T15:43:44Z</time>
      </trkpt>
      <trkpt lat="45.19626" lon="5.62694">
        <ele>737.99</ele>
        <time>2018-06-17T15:43:45Z</time>
      </trkpt>
      <trkpt lat="45.19648" lon="5.62701">
        <ele>736.63</ele>
        <time>2018-06-17T15:43:46Z</time>
      </trkpt>
      <trkpt lat="45.19669" lon="5.62715">
        <ele>734.82</ele>
        <time>2018-06-17T15:43:47Z</time>
      </trkpt>
      <trkpt lat="45.19691" lon="5.62727">
        <ele>733.58</ele>
        <time>2018-06-17T15:43:48Z</time>
      </trkpt>
      <trkpt lat="45.19714" lon="5.62736">
        <ele>732.51</ele>
        <time>2018-06-17T15:43:49Z</time>
      </trkpt>
      <trkpt lat="45.19737" lon="5.62744">
        <ele>731.49</ele>
        <time>2018-06-17T15:43:50Z</time>
      </trkpt>
      <trkpt lat="45.1976" lon="5.62754">
        <ele>731.18</ele>
        <time>2018-06-17T15:43:51Z</time>
      </trkpt>
      <trkpt lat="45.19782" lon="5.62763">
        <ele>730.39</ele>
        <time>2018-06-17T15:43:52Z</time>
      </trkpt>
      <trkpt lat="45.19804" lon="5.62777">
        <ele>728.75</ele>
        <time>2018-06-17T15:43:53Z</time>
      </trkpt>
      <trkpt lat="45.19825" lon="5.62795">
        <ele>726.86</ele>
        <time>2018-06-17T15:43:54Z</time>
      </trkpt>
      <trkpt lat="45.19846" lon="5.62812">
        <ele>724.89</ele>
        <time>2018-06-17T15:43:55Z</time>
      </trkpt>
      <trkpt lat="45.19868" lon="5.62827">
        <ele>724.3</ele>
        <time>2018-06-17T15:43:56Z</time>
      </trkpt>
      <trkpt lat="45.1989" lon="5.62841">
        <ele>723.42</ele>
        <time>2018-06-17T15:43:57Z</time>
      </trkpt>
      <trkpt lat="45.19912" lon="5.62843">
        <ele>721.76</ele>
        <time>2018-06-17T15:43:58Z</time>
      </trkpt>
      <trkpt lat="45.19934" lon="5.6285">
        <ele>720.56</ele>
        <time>2018-06-17T15:43:59Z</time>
      </trkpt>
      <trkpt lat="45.19954" lon="5.6286">
        <ele>718.8</ele>
        <time>2018-06-17T15:44:00Z</time>
      </trkpt>
      <trkpt lat="45.19973" lon="5.62873">
        <ele>716.88</ele>
        <time>2018-06-17T15:44:01Z</time>
      </trkpt>
      <trkpt lat="45.1999" lon="5.62889">
        <ele>714.9</ele>
        <time>2018-06-17T15:44:02Z</time>
      </trkpt>
      <trkpt lat="45.20008" lon="5.62907">
        <ele>713.6</ele>
        <time>2018-06-17T15:44:03Z</time>
      </trkpt>
      <trkpt lat="45.20023" lon="5.62923">
        <ele>711.82</ele>
        <time>2018-06-17T15:44:04Z</time>
      </trkpt>
      <trkpt lat="45.20041" lon="5.62935">
        <ele>709.88</ele>
        <time>2018-06-17T15:44:05Z</time>
      </trkpt>
      <trkpt lat="45.20061" lon="5.62946">
        <ele>709.3</ele>
        <time>2018-06-17T15:44:06Z</time>
      </trkpt>
      <trkpt lat="45.20082" lon="5.62956">
        <ele>709.12</ele>
        <time>2018-06-17T15:44:07Z</time>
      </trkpt>
      <trkpt lat="45.20107" lon="5.62958">
        <ele>709.07</ele>
        <time>2018-06-17T15:44:08Z</time>
      </trkpt>
      <trkpt lat="45.2013" lon="5.62965">
        <ele>708.36</ele>
        <time>2018-06-17T15:44:09Z</time>
      </trkpt>
      <trkpt lat="45.20154" lon="5.62972">
        <ele>706.74</ele>
        <time>2018-06-17T15:44:10Z</time>
      </trkpt>
      <trkpt lat="45.20177" lon="5.62976">
        <ele>706.26</ele>
        <time>2018-06-17T15:44:11Z</time>
      </trkpt>
      <trkpt lat="45.20198" lon="5.62983">
        <ele>705.41</ele>
        <time>2018-06-17T15:44:12Z</time>
      </trkpt>
      <trkpt lat="45.20218" lon="5.62993">
        <ele>703.76</ele>
        <time>2018-06-17T15:44:13Z</time>
      </trkpt>
      <trkpt lat="45.20239" lon="5.63006">
        <ele>701.86</ele>
        <time>2018-06-17T15:44:14Z</time>
      </trkpt>
      <trkpt lat="45.20259" lon="5.6302">
        <ele>700.59</ele>
        <time>2018-06-17T15:44:15Z</time>
      </trkpt>
      <trkpt lat="45.20278" lon="5.63038">
        <ele>699.51</ele>
        <time>2018-06-17T15:44:16Z</time>
      </trkpt>
      <trkpt lat="45.20296" lon="5.63058">
        <ele>698.49</ele>
        <time>2018-06-17T15:44:17Z</time>
      </trkpt>
      <trkpt lat="45.20312" lon="5.63086">
        <ele>698.18</ele>
        <time>2018-06-17T15:44:18Z</time>
      </trkpt>
      <trkpt lat="45.20324" lon="5.63117">
        <ele>695.29</ele>
        <time>2018-06-17T15:44:19Z</time>
      </trkpt>
      <trkpt lat="45.20337" lon="5.63145">
        <ele>693.72</ele>
        <time>2018-06-17T15:44:20Z</time>
      </trkpt>
      <trkpt lat="45.20346" lon="5.63174">
        <ele>690.45</ele>
        <time>2018-06-17T15:44:21Z</time>
      </trkpt>
      <trkpt lat="45.20357" lon="5.63195">
        <ele>688.07</ele>
        <time>2018-06-17T15:44:22Z</time>
      </trkpt>
      <trkpt lat="45.20371" lon="5.63214">
        <ele>685.96</ele>
        <time>2018-06-17T15:44:23Z</time>
      </trkpt>
      <trkpt lat="45.20388" lon="5.63225">
        <ele>683.92</ele>
        <time>2018-06-17T15:44:24Z</time>
      </trkpt>
      <trkpt lat="45.20406" lon="5.63232">
        <ele>682.61</ele>
        <time>2018-06-17T15:44:25Z</time>
      </trkpt>
      <trkpt lat="45.20424" lon="5.63236">
        <ele>681.52</ele>
        <time>2018-06-17T15:44:26Z</time>
      </trkpt>
      <trkpt lat="45.20456" lon="5.63251">
        <ele>677.87</ele>
        <time>2018-06-17T15:44:28Z</time>
      </trkpt>
      <trkpt lat="45.20479" lon="5.6329">
        <ele>676.42</ele>
        <time>2018-06-17T15:44:30Z</time>
      </trkpt>
      <trkpt lat="45.20488" lon="5.63315">
        <ele>675.46</ele>
        <time>2018-06-17T15:44:31Z</time>
      </trkpt>
      <trkpt lat="45.20493" lon="5.6334">
        <ele>673.77</ele>
        <time>2018-06-17T15:44:32Z</time>
      </trkpt>
      <trkpt lat="45.20498" lon="5.63366">
        <ele>672.57</ele>
        <time>2018-06-17T15:44:33Z</time>
      </trkpt>
      <trkpt lat="45.20504" lon="5.63391">
        <ele>671.5</ele>
        <time>2018-06-17T15:44:34Z</time>
      </trkpt>
      <trkpt lat="45.20509" lon="5.63415">
        <ele>670.49</ele>
        <time>2018-06-17T15:44:35Z</time>
      </trkpt>
      <trkpt lat="45.20529" lon="5.63457">
        <ele>670.09</ele>
        <time>2018-06-17T15:44:37Z</time>
      </trkpt>
      <trkpt lat="45.20546" lon="5.63473">
        <ele>670.76</ele>
        <time>2018-06-17T15:44:38Z</time>
      </trkpt>
      <trkpt lat="45.20564" lon="5.63489">
        <ele>670.96</ele>
        <time>2018-06-17T15:44:39Z</time>
      </trkpt>
      <trkpt lat="45.20583" lon="5.63498">
        <ele>670.32</ele>
        <time>2018-06-17T15:44:40Z</time>
      </trkpt>
      <trkpt lat="45.20602" lon="5.63521">
        <ele>667.55</ele>
        <time>2018-06-17T15:44:42Z</time>
      </trkpt>
      <trkpt lat="45.20614" lon="5.63542">
        <ele>664.78</ele>
        <time>2018-06-17T15:44:44Z</time>
      </trkpt>
      <trkpt lat="45.20595" lon="5.63535">
        <ele>662.09</ele>
        <time>2018-06-17T15:44:49Z</time>
      </trkpt>
      <trkpt lat="45.20579" lon="5.63511">
        <ele>662.76</ele>
        <time>2018-06-17T15:44:50Z</time>
      </trkpt>
      <trkpt lat="45.20554" lon="5.63494">
        <ele>661.2</ele>
        <time>2018-06-17T15:44:52Z</time>
      </trkpt>
      <trkpt lat="45.2053" lon="5.63484">
        <ele>660.15</ele>
        <time>2018-06-17T15:44:54Z</time>
      </trkpt>
      <trkpt lat="45.20507" lon="5.6346">
        <ele>654.11</ele>
        <time>2018-06-17T15:44:56Z</time>
      </trkpt>
      <trkpt lat="45.20482" lon="5.6343">
        <ele>647.47</ele>
        <time>2018-06-17T15:44:58Z</time>
      </trkpt>
      <trkpt lat="45.20463" lon="5.63396">
        <ele>648</ele>
        <time>2018-06-17T15:45:00Z</time>
      </trkpt>
      <trkpt lat="45.20446" lon="5.63362">
        <ele>648.04</ele>
        <time>2018-06-17T15:45:02Z</time>
      </trkpt>
      <trkpt lat="45.20424" lon="5.63338">
        <ele>647.56</ele>
        <time>2018-06-17T15:45:04Z</time>
      </trkpt>
      <trkpt lat="45.20396" lon="5.63337">
        <ele>644.78</ele>
        <time>2018-06-17T15:45:06Z</time>
      </trkpt>
      <trkpt lat="45.20368" lon="5.63345">
        <ele>643.63</ele>
        <time>2018-06-17T15:45:08Z</time>
      </trkpt>
      <trkpt lat="45.20339" lon="5.63338">
        <ele>640.37</ele>
        <time>2018-06-17T15:45:10Z</time>
      </trkpt>
      <trkpt lat="45.20316" lon="5.63311">
        <ele>638.68</ele>
        <time>2018-06-17T15:45:12Z</time>
      </trkpt>
      <trkpt lat="45.20302" lon="5.63273">
        <ele>637.2</ele>
        <time>2018-06-17T15:45:14Z</time>
      </trkpt>
      <trkpt lat="45.20287" lon="5.63239">
        <ele>636.36</ele>
        <time>2018-06-17T15:45:16Z</time>
      </trkpt>
      <trkpt lat="45.2026" lon="5.63219">
        <ele>635.38</ele>
        <time>2018-06-17T15:45:18Z</time>
      </trkpt>
      <trkpt lat="45.20228" lon="5.63208">
        <ele>634.17</ele>
        <time>2018-06-17T15:45:20Z</time>
      </trkpt>
      <trkpt lat="45.20202" lon="5.63186">
        <ele>632.45</ele>
        <time>2018-06-17T15:45:22Z</time>
      </trkpt>
      <trkpt lat="45.20172" lon="5.63178">
        <ele>630.48</ele>
        <time>2018-06-17T15:45:24Z</time>
      </trkpt>
      <trkpt lat="45.20142" lon="5.63186">
        <ele>627.78</ele>
        <time>2018-06-17T15:45:26Z</time>
      </trkpt>
      <trkpt lat="45.2011" lon="5.6318">
        <ele>624.8</ele>
        <time>2018-06-17T15:45:28Z</time>
      </trkpt>
      <trkpt lat="45.2008" lon="5.63174">
        <ele>623.42</ele>
        <time>2018-06-17T15:45:30Z</time>
      </trkpt>
      <trkpt lat="45.2005" lon="5.63178">
        <ele>621.26</ele>
        <time>2018-06-17T15:45:32Z</time>
      </trkpt>
      <trkpt lat="45.20024" lon="5.63185">
        <ele>620.37</ele>
        <time>2018-06-17T15:45:34Z</time>
      </trkpt>
      <trkpt lat="45.19995" lon="5.63188">
        <ele>619.17</ele>
        <time>2018-06-17T15:45:36Z</time>
      </trkpt>
      <trkpt lat="45.19974" lon="5.63172">
        <ele>616.75</ele>
        <time>2018-06-17T15:45:38Z</time>
      </trkpt>
      <trkpt lat="45.19953" lon="5.63155">
        <ele>615.41</ele>
        <time>2018-06-17T15:45:40Z</time>
      </trkpt>
      <trkpt lat="45.19931" lon="5.63142">
        <ele>615.08</ele>
        <time>2018-06-17T15:45:42Z</time>
      </trkpt>
      <trkpt lat="45.1991" lon="5.63133">
        <ele>614.84</ele>
        <time>2018-06-17T15:45:44Z</time>
      </trkpt>
      <trkpt lat="45.19889" lon="5.63149">
        <ele>614.82</ele>
        <time>2018-06-17T15:45:46Z</time>
      </trkpt>
      <trkpt lat="45.199" lon="5.63175">
        <ele>615.03</ele>
        <time>2018-06-17T15:45:48Z</time>
      </trkpt>
      <trkpt lat="45.19933" lon="5.63188">
        <ele>614.56</ele>
        <time>2018-06-17T15:45:50Z</time>
      </trkpt>
      <trkpt lat="45.19962" lon="5.63195">
        <ele>613.39</ele>
        <time>2018-06-17T15:45:52Z</time>
      </trkpt>
      <trkpt lat="45.19997" lon="5.63208">
        <ele>613.99</ele>
        <time>2018-06-17T15:45:54Z</time>
      </trkpt>
      <trkpt lat="45.20016" lon="5.63217">
        <ele>613.33</ele>
        <time>2018-06-17T15:45:55Z</time>
      </trkpt>
      <trkpt lat="45.20036" lon="5.63225">
        <ele>613.13</ele>
        <time>2018-06-17T15:45:56Z</time>
      </trkpt>
      <trkpt lat="45.20057" lon="5.6323">
        <ele>612.37</ele>
        <time>2018-06-17T15:45:57Z</time>
      </trkpt>
      <trkpt lat="45.20076" lon="5.63234">
        <ele>611.45</ele>
        <time>2018-06-17T15:45:58Z</time>
      </trkpt>
      <trkpt lat="45.20096" lon="5.6324">
        <ele>610.47</ele>
        <time>2018-06-17T15:45:59Z</time>
      </trkpt>
      <trkpt lat="45.20117" lon="5.63248">
        <ele>610.17</ele>
        <time>2018-06-17T15:46:00Z</time>
      </trkpt>
      <trkpt lat="45.20137" lon="5.63257">
        <ele>609.39</ele>
        <time>2018-06-17T15:46:01Z</time>
      </trkpt>
      <trkpt lat="45.20158" lon="5.63266">
        <ele>608.45</ele>
        <time>2018-06-17T15:46:02Z</time>
      </trkpt>
      <trkpt lat="45.2018" lon="5.63277">
        <ele>606.77</ele>
        <time>2018-06-17T15:46:03Z</time>
      </trkpt>
      <trkpt lat="45.202" lon="5.63289">
        <ele>605.57</ele>
        <time>2018-06-17T15:46:04Z</time>
      </trkpt>
      <trkpt lat="45.20219" lon="5.633">
        <ele>605.2</ele>
        <time>2018-06-17T15:46:05Z</time>
      </trkpt>
      <trkpt lat="45.20239" lon="5.63312">
        <ele>604.4</ele>
        <time>2018-06-17T15:46:06Z</time>
      </trkpt>
      <trkpt lat="45.20256" lon="5.63325">
        <ele>603.45</ele>
        <time>2018-06-17T15:46:07Z</time>
      </trkpt>
      <trkpt lat="45.20274" lon="5.63369">
        <ele>601.27</ele>
        <time>2018-06-17T15:46:09Z</time>
      </trkpt>
      <trkpt lat="45.20279" lon="5.63398">
        <ele>601.11</ele>
        <time>2018-06-17T15:46:10Z</time>
      </trkpt>
      <trkpt lat="45.20282" lon="5.63434">
        <ele>599.67</ele>
        <time>2018-06-17T15:46:11Z</time>
      </trkpt>
      <trkpt lat="45.20291" lon="5.63461">
        <ele>597.83</ele>
        <time>2018-06-17T15:46:12Z</time>
      </trkpt>
      <trkpt lat="45.20304" lon="5.63485">
        <ele>594.48</ele>
        <time>2018-06-17T15:46:13Z</time>
      </trkpt>
      <trkpt lat="45.20317" lon="5.63511">
        <ele>592.78</ele>
        <time>2018-06-17T15:46:14Z</time>
      </trkpt>
      <trkpt lat="45.20329" lon="5.63537">
        <ele>590.87</ele>
        <time>2018-06-17T15:46:15Z</time>
      </trkpt>
      <trkpt lat="45.2034" lon="5.63562">
        <ele>589.59</ele>
        <time>2018-06-17T15:46:16Z</time>
      </trkpt>
      <trkpt lat="45.20351" lon="5.63588">
        <ele>588.51</ele>
        <time>2018-06-17T15:46:17Z</time>
      </trkpt>
      <trkpt lat="45.20362" lon="5.63611">
        <ele>588.19</ele>
        <time>2018-06-17T15:46:18Z</time>
      </trkpt>
      <trkpt lat="45.20377" lon="5.63646">
        <ele>585.05</ele>
        <time>2018-06-17T15:46:20Z</time>
      </trkpt>
      <trkpt lat="45.20397" lon="5.63679">
        <ele>580.92</ele>
        <time>2018-06-17T15:46:22Z</time>
      </trkpt>
      <trkpt lat="45.20427" lon="5.63704">
        <ele>577.82</ele>
        <time>2018-06-17T15:46:24Z</time>
      </trkpt>
      <trkpt lat="45.20448" lon="5.63716">
        <ele>576.58</ele>
        <time>2018-06-17T15:46:25Z</time>
      </trkpt>
      <trkpt lat="45.20469" lon="5.63729">
        <ele>576.21</ele>
        <time>2018-06-17T15:46:26Z</time>
      </trkpt>
      <trkpt lat="45.20489" lon="5.63741">
        <ele>576.1</ele>
        <time>2018-06-17T15:46:27Z</time>
      </trkpt>
      <trkpt lat="45.20503" lon="5.63763">
        <ele>573.96</ele>
        <time>2018-06-17T15:46:28Z</time>
      </trkpt>
      <trkpt lat="45.20518" lon="5.63783">
        <ele>571.92</ele>
        <time>2018-06-17T15:46:29Z</time>
      </trkpt>
      <trkpt lat="45.20531" lon="5.63808">
        <ele>570.61</ele>
        <time>2018-06-17T15:46:30Z</time>
      </trkpt>
      <trkpt lat="45.20542" lon="5.63833">
        <ele>569.52</ele>
        <time>2018-06-17T15:46:31Z</time>
      </trkpt>
      <trkpt lat="45.20548" lon="5.63869">
        <ele>567.09</ele>
        <time>2018-06-17T15:46:32Z</time>
      </trkpt>
      <trkpt lat="45.20557" lon="5.63901">
        <ele>565.66</ele>
        <time>2018-06-17T15:46:33Z</time>
      </trkpt>
      <trkpt lat="45.20566" lon="5.63933">
        <ele>563.83</ele>
        <time>2018-06-17T15:46:34Z</time>
      </trkpt>
      <trkpt lat="45.20576" lon="5.63963">
        <ele>562.58</ele>
        <time>2018-06-17T15:46:35Z</time>
      </trkpt>
      <trkpt lat="45.20587" lon="5.63992">
        <ele>560.81</ele>
        <time>2018-06-17T15:46:36Z</time>
      </trkpt>
      <trkpt lat="45.20601" lon="5.64019">
        <ele>558.88</ele>
        <time>2018-06-17T15:46:37Z</time>
      </trkpt>
      <trkpt lat="45.20615" lon="5.64046">
        <ele>557.6</ele>
        <time>2018-06-17T15:46:38Z</time>
      </trkpt>
      <trkpt lat="45.20626" lon="5.64071">
        <ele>556.51</ele>
        <time>2018-06-17T15:46:39Z</time>
      </trkpt>
      <trkpt lat="45.20638" lon="5.64095">
        <ele>556.19</ele>
        <time>2018-06-17T15:46:40Z</time>
      </trkpt>
      <trkpt lat="45.20655" lon="5.64105">
        <ele>556.09</ele>
        <time>2018-06-17T15:46:41Z</time>
      </trkpt>
      <trkpt lat="45.20671" lon="5.64117">
        <ele>556.06</ele>
        <time>2018-06-17T15:46:42Z</time>
      </trkpt>
      <trkpt lat="45.20692" lon="5.64131">
        <ele>555.35</ele>
        <time>2018-06-17T15:46:43Z</time>
      </trkpt>
      <trkpt lat="45.2072" lon="5.64124">
        <ele>553.74</ele>
        <time>2018-06-17T15:46:44Z</time>
      </trkpt>
      <trkpt lat="45.20743" lon="5.64128">
        <ele>552.56</ele>
        <time>2018-06-17T15:46:45Z</time>
      </trkpt>
      <trkpt lat="45.20765" lon="5.64137">
        <ele>549.4</ele>
        <time>2018-06-17T15:46:46Z</time>
      </trkpt>
      <trkpt lat="45.20785" lon="5.64148">
        <ele>547.05</ele>
        <time>2018-06-17T15:46:47Z</time>
      </trkpt>
      <trkpt lat="45.20804" lon="5.64158">
        <ele>544.95</ele>
        <time>2018-06-17T15:46:48Z</time>
      </trkpt>
      <trkpt lat="45.20822" lon="5.64167">
        <ele>544.32</ele>
        <time>2018-06-17T15:46:49Z</time>
      </trkpt>
      <trkpt lat="45.20857" lon="5.64166">
        <ele>543.37</ele>
        <time>2018-06-17T15:46:51Z</time>
      </trkpt>
      <trkpt lat="45.20876" lon="5.64158">
        <ele>543.15</ele>
        <time>2018-06-17T15:46:52Z</time>
      </trkpt>
      <trkpt lat="45.20899" lon="5.64126">
        <ele>540.98</ele>
        <time>2018-06-17T15:46:53Z</time>
      </trkpt>
      <trkpt lat="45.20919" lon="5.64107">
        <ele>538.93</ele>
        <time>2018-06-17T15:46:54Z</time>
      </trkpt>
      <trkpt lat="45.20938" lon="5.64088">
        <ele>536.91</ele>
        <time>2018-06-17T15:46:55Z</time>
      </trkpt>
      <trkpt lat="45.20959" lon="5.6407">
        <ele>534.91</ele>
        <time>2018-06-17T15:46:56Z</time>
      </trkpt>
      <trkpt lat="45.20978" lon="5.64049">
        <ele>532.91</ele>
        <time>2018-06-17T15:46:57Z</time>
      </trkpt>
      <trkpt lat="45.20997" lon="5.64026">
        <ele>530.91</ele>
        <time>2018-06-17T15:46:58Z</time>
      </trkpt>
      <trkpt lat="45.21014" lon="5.64002">
        <ele>528.91</ele>
        <time>2018-06-17T15:46:59Z</time>
      </trkpt>
      <trkpt lat="45.21032" lon="5.63979">
        <ele>527.61</ele>
        <time>2018-06-17T15:47:00Z</time>
      </trkpt>
      <trkpt lat="45.21048" lon="5.63956">
        <ele>525.12</ele>
        <time>2018-06-17T15:47:01Z</time>
      </trkpt>
      <trkpt lat="45.21064" lon="5.63935">
        <ele>523.67</ele>
        <time>2018-06-17T15:47:02Z</time>
      </trkpt>
      <trkpt lat="45.2108" lon="5.63916">
        <ele>521.84</ele>
        <time>2018-06-17T15:47:03Z</time>
      </trkpt>
      <trkpt lat="45.21098" lon="5.63901">
        <ele>519.88</ele>
        <time>2018-06-17T15:47:04Z</time>
      </trkpt>
      <trkpt lat="45.21117" lon="5.63895">
        <ele>518.6</ele>
        <time>2018-06-17T15:47:05Z</time>
      </trkpt>
      <trkpt lat="45.2114" lon="5.63894">
        <ele>517.51</ele>
        <time>2018-06-17T15:47:06Z</time>
      </trkpt>
      <trkpt lat="45.21161" lon="5.63899">
        <ele>516.49</ele>
        <time>2018-06-17T15:47:07Z</time>
      </trkpt>
      <trkpt lat="45.21181" lon="5.63903">
        <ele>515.48</ele>
        <time>2018-06-17T15:47:08Z</time>
      </trkpt>
      <trkpt lat="45.21204" lon="5.63904">
        <ele>514.48</ele>
        <time>2018-06-17T15:47:09Z</time>
      </trkpt>
      <trkpt lat="45.2123" lon="5.63902">
        <ele>513.48</ele>
        <time>2018-06-17T15:47:10Z</time>
      </trkpt>
      <trkpt lat="45.21258" lon="5.639">
        <ele>511.78</ele>
        <time>2018-06-17T15:47:11Z</time>
      </trkpt>
      <trkpt lat="45.21285" lon="5.63901">
        <ele>509.87</ele>
        <time>2018-06-17T15:47:12Z</time>
      </trkpt>
      <trkpt lat="45.2131" lon="5.63905">
        <ele>507.89</ele>
        <time>2018-06-17T15:47:13Z</time>
      </trkpt>
      <trkpt lat="45.21333" lon="5.63913">
        <ele>506.6</ele>
        <time>2018-06-17T15:47:14Z</time>
      </trkpt>
      <trkpt lat="45.21356" lon="5.63925">
        <ele>504.82</ele>
        <time>2018-06-17T15:47:15Z</time>
      </trkpt>
      <trkpt lat="45.21377" lon="5.63938">
        <ele>503.58</ele>
        <time>2018-06-17T15:47:16Z</time>
      </trkpt>
      <trkpt lat="45.21399" lon="5.63951">
        <ele>502.51</ele>
        <time>2018-06-17T15:47:17Z</time>
      </trkpt>
      <trkpt lat="45.21422" lon="5.63961">
        <ele>502.19</ele>
        <time>2018-06-17T15:47:18Z</time>
      </trkpt>
      <trkpt lat="45.21448" lon="5.63971">
        <ele>501.39</ele>
        <time>2018-06-17T15:47:19Z</time>
      </trkpt>
      <trkpt lat="45.21476" lon="5.6398">
        <ele>501.85</ele>
        <time>2018-06-17T15:47:20Z</time>
      </trkpt>
      <trkpt lat="45.2151" lon="5.6399">
        <ele>500.59</ele>
        <time>2018-06-17T15:47:21Z</time>
      </trkpt>
      <trkpt lat="45.21541" lon="5.64001">
        <ele>498.11</ele>
        <time>2018-06-17T15:47:22Z</time>
      </trkpt>
      <trkpt lat="45.21569" lon="5.6401">
        <ele>495.97</ele>
        <time>2018-06-17T15:47:23Z</time>
      </trkpt>
      <trkpt lat="45.21595" lon="5.64018">
        <ele>493.92</ele>
        <time>2018-06-17T15:47:24Z</time>
      </trkpt>
      <trkpt lat="45.21622" lon="5.64024">
        <ele>491.91</ele>
        <time>2018-06-17T15:47:25Z</time>
      </trkpt>
      <trkpt lat="45.21651" lon="5.6402">
        <ele>489.91</ele>
        <time>2018-06-17T15:47:26Z</time>
      </trkpt>
      <trkpt lat="45.21678" lon="5.64015">
        <ele>487.21</ele>
        <time>2018-06-17T15:47:27Z</time>
      </trkpt>
      <trkpt lat="45.21705" lon="5.64012">
        <ele>484.3</ele>
        <time>2018-06-17T15:47:28Z</time>
      </trkpt>
      <trkpt lat="45.21733" lon="5.64014">
        <ele>482.02</ele>
        <time>2018-06-17T15:47:29Z</time>
      </trkpt>
      <trkpt lat="45.21762" lon="5.64021">
        <ele>479.94</ele>
        <time>2018-06-17T15:47:30Z</time>
      </trkpt>
      <trkpt lat="45.21792" lon="5.64029">
        <ele>477.92</ele>
        <time>2018-06-17T15:47:31Z</time>
      </trkpt>
      <trkpt lat="45.2182" lon="5.64038">
        <ele>475.91</ele>
        <time>2018-06-17T15:47:32Z</time>
      </trkpt>
      <trkpt lat="45.21848" lon="5.64047">
        <ele>474.61</ele>
        <time>2018-06-17T15:47:33Z</time>
      </trkpt>
      <trkpt lat="45.21875" lon="5.64055">
        <ele>474.22</ele>
        <time>2018-06-17T15:47:34Z</time>
      </trkpt>
      <trkpt lat="45.21899" lon="5.64062">
        <ele>473.4</ele>
        <time>2018-06-17T15:47:35Z</time>
      </trkpt>
      <trkpt lat="45.21922" lon="5.64066">
        <ele>473.15</ele>
        <time>2018-06-17T15:47:36Z</time>
      </trkpt>
      <trkpt lat="45.21942" lon="5.64066">
        <ele>473.08</ele>
        <time>2018-06-17T15:47:37Z</time>
      </trkpt>
      <trkpt lat="45.2196" lon="5.64067">
        <ele>473.06</ele>
        <time>2018-06-17T15:47:38Z</time>
      </trkpt>
      <trkpt lat="45.21984" lon="5.64074">
        <ele>469.41</ele>
        <time>2018-06-17T15:47:40Z</time>
      </trkpt>
      <trkpt lat="45.2197" lon="5.64112">
        <ele>464.42</ele>
        <time>2018-06-17T15:47:44Z</time>
      </trkpt>
      <trkpt lat="45.21931" lon="5.64103">
        <ele>463.38</ele>
        <time>2018-06-17T15:47:46Z</time>
      </trkpt>
      <trkpt lat="45.21913" lon="5.64101">
        <ele>462.45</ele>
        <time>2018-06-17T15:47:47Z</time>
      </trkpt>
      <trkpt lat="45.21893" lon="5.64101">
        <ele>460.77</ele>
        <time>2018-06-17T15:47:48Z</time>
      </trkpt>
      <trkpt lat="45.21873" lon="5.64102">
        <ele>459.57</ele>
        <time>2018-06-17T15:47:49Z</time>
      </trkpt>
      <trkpt lat="45.21852" lon="5.64103">
        <ele>457.8</ele>
        <time>2018-06-17T15:47:50Z</time>
      </trkpt>
      <trkpt lat="45.21831" lon="5.64107">
        <ele>457.28</ele>
        <time>2018-06-17T15:47:51Z</time>
      </trkpt>
      <trkpt lat="45.2181" lon="5.64114">
        <ele>455.72</ele>
        <time>2018-06-17T15:47:52Z</time>
      </trkpt>
      <trkpt lat="45.2179" lon="5.64119">
        <ele>454.55</ele>
        <time>2018-06-17T15:47:53Z</time>
      </trkpt>
      <trkpt lat="45.21769" lon="5.64125">
        <ele>453.5</ele>
        <time>2018-06-17T15:47:54Z</time>
      </trkpt>
      <trkpt lat="45.21749" lon="5.64131">
        <ele>451.78</ele>
        <time>2018-06-17T15:47:55Z</time>
      </trkpt>
      <trkpt lat="45.21729" lon="5.6414">
        <ele>451.27</ele>
        <time>2018-06-17T15:47:56Z</time>
      </trkpt>
      <trkpt lat="45.21708" lon="5.64151">
        <ele>450.42</ele>
        <time>2018-06-17T15:47:57Z</time>
      </trkpt>
      <trkpt lat="45.21692" lon="5.64174">
        <ele>448.76</ele>
        <time>2018-06-17T15:47:58Z</time>
      </trkpt>
      <trkpt lat="45.21674" lon="5.64193">
        <ele>447.56</ele>
        <time>2018-06-17T15:47:59Z</time>
      </trkpt>
      <trkpt lat="45.21656" lon="5.64211">
        <ele>446.5</ele>
        <time>2018-06-17T15:48:00Z</time>
      </trkpt>
      <trkpt lat="45.21638" lon="5.64226">
        <ele>445.49</ele>
        <time>2018-06-17T15:48:01Z</time>
      </trkpt>
      <trkpt lat="45.21621" lon="5.64239">
        <ele>443.78</ele>
        <time>2018-06-17T15:48:02Z</time>
      </trkpt>
      <trkpt lat="45.21603" lon="5.64253">
        <ele>443.27</ele>
        <time>2018-06-17T15:48:03Z</time>
      </trkpt>
      <trkpt lat="45.21587" lon="5.64267">
        <ele>442.41</ele>
        <time>2018-06-17T15:48:04Z</time>
      </trkpt>
      <trkpt lat="45.2157" lon="5.64281">
        <ele>440.76</ele>
        <time>2018-06-17T15:48:05Z</time>
      </trkpt>
      <trkpt lat="45.21553" lon="5.64295">
        <ele>439.56</ele>
        <time>2018-06-17T15:48:06Z</time>
      </trkpt>
      <trkpt lat="45.21535" lon="5.64306">
        <ele>437.8</ele>
        <time>2018-06-17T15:48:07Z</time>
      </trkpt>
      <trkpt lat="45.21517" lon="5.64315">
        <ele>436.58</ele>
        <time>2018-06-17T15:48:08Z</time>
      </trkpt>
      <trkpt lat="45.21499" lon="5.6432">
        <ele>434.81</ele>
        <time>2018-06-17T15:48:09Z</time>
      </trkpt>
      <trkpt lat="45.21478" lon="5.6432">
        <ele>434.28</ele>
        <time>2018-06-17T15:48:10Z</time>
      </trkpt>
      <trkpt lat="45.21457" lon="5.64318">
        <ele>433.42</ele>
        <time>2018-06-17T15:48:11Z</time>
      </trkpt>
      <trkpt lat="45.21434" lon="5.64315">
        <ele>431.06</ele>
        <time>2018-06-17T15:48:12Z</time>
      </trkpt>
      <trkpt lat="45.21412" lon="5.64314">
        <ele>429.65</ele>
        <time>2018-06-17T15:48:13Z</time>
      </trkpt>
      <trkpt lat="45.2139" lon="5.64311">
        <ele>428.53</ele>
        <time>2018-06-17T15:48:14Z</time>
      </trkpt>
      <trkpt lat="45.21369" lon="5.64311">
        <ele>426.79</ele>
        <time>2018-06-17T15:48:15Z</time>
      </trkpt>
      <trkpt lat="45.21349" lon="5.64312">
        <ele>426.27</ele>
        <time>2018-06-17T15:48:16Z</time>
      </trkpt>
      <trkpt lat="45.21329" lon="5.64315">
        <ele>425.42</ele>
        <time>2018-06-17T15:48:17Z</time>
      </trkpt>
      <trkpt lat="45.21308" lon="5.64322">
        <ele>423.76</ele>
        <time>2018-06-17T15:48:18Z</time>
      </trkpt>
      <trkpt lat="45.21287" lon="5.64329">
        <ele>421.86</ele>
        <time>2018-06-17T15:48:19Z</time>
      </trkpt>
      <trkpt lat="45.21266" lon="5.64336">
        <ele>420.59</ele>
        <time>2018-06-17T15:48:20Z</time>
      </trkpt>
      <trkpt lat="45.21247" lon="5.64343">
        <ele>418.81</ele>
        <time>2018-06-17T15:48:21Z</time>
      </trkpt>
      <trkpt lat="45.21227" lon="5.6435">
        <ele>417.58</ele>
        <time>2018-06-17T15:48:22Z</time>
      </trkpt>
      <trkpt lat="45.21209" lon="5.64357">
        <ele>416.51</ele>
        <time>2018-06-17T15:48:23Z</time>
      </trkpt>
      <trkpt lat="45.21191" lon="5.64363">
        <ele>415.49</ele>
        <time>2018-06-17T15:48:24Z</time>
      </trkpt>
      <trkpt lat="45.21173" lon="5.64367">
        <ele>413.78</ele>
        <time>2018-06-17T15:48:25Z</time>
      </trkpt>
      <trkpt lat="45.21142" lon="5.64369">
        <ele>411.5</ele>
        <time>2018-06-17T15:48:27Z</time>
      </trkpt>
      <trkpt lat="45.21121" lon="5.64373">
        <ele>410.39</ele>
        <time>2018-06-17T15:48:29Z</time>
      </trkpt>
      <trkpt lat="45.21101" lon="5.64383">
        <ele>409.38</ele>
        <time>2018-06-17T15:48:31Z</time>
      </trkpt>
      <trkpt lat="45.21112" lon="5.64403">
        <ele>408.45</ele>
        <time>2018-06-17T15:48:32Z</time>
      </trkpt>
      <trkpt lat="45.21127" lon="5.64419">
        <ele>407.38</ele>
        <time>2018-06-17T15:48:34Z</time>
      </trkpt>
      <trkpt lat="45.21153" lon="5.64416">
        <ele>405.47</ele>
        <time>2018-06-17T15:48:36Z</time>
      </trkpt>
      <trkpt lat="45.21182" lon="5.64418">
        <ele>403.48</ele>
        <time>2018-06-17T15:48:38Z</time>
      </trkpt>
      <trkpt lat="45.21217" lon="5.64433">
        <ele>401.48</ele>
        <time>2018-06-17T15:48:40Z</time>
      </trkpt>
      <trkpt lat="45.21241" lon="5.64443">
        <ele>399.08</ele>
        <time>2018-06-17T15:48:41Z</time>
      </trkpt>
      <trkpt lat="45.21263" lon="5.64455">
        <ele>397.66</ele>
        <time>2018-06-17T15:48:42Z</time>
      </trkpt>
      <trkpt lat="45.21284" lon="5.64467">
        <ele>396.53</ele>
        <time>2018-06-17T15:48:43Z</time>
      </trkpt>
      <trkpt lat="45.21304" lon="5.64478">
        <ele>395.49</ele>
        <time>2018-06-17T15:48:44Z</time>
      </trkpt>
      <trkpt lat="45.21323" lon="5.64488">
        <ele>394.48</ele>
        <time>2018-06-17T15:48:45Z</time>
      </trkpt>
      <trkpt lat="45.21341" lon="5.64497">
        <ele>392.78</ele>
        <time>2018-06-17T15:48:46Z</time>
      </trkpt>
      <trkpt lat="45.21358" lon="5.64509">
        <ele>390.87</ele>
        <time>2018-06-17T15:48:47Z</time>
      </trkpt>
      <trkpt lat="45.21386" lon="5.64541">
        <ele>388.51</ele>
        <time>2018-06-17T15:48:49Z</time>
      </trkpt>
      <trkpt lat="45.21391" lon="5.64571">
        <ele>387.49</ele>
        <time>2018-06-17T15:48:50Z</time>
      </trkpt>
      <trkpt lat="45.21399" lon="5.64596">
        <ele>386.48</ele>
        <time>2018-06-17T15:48:51Z</time>
      </trkpt>
      <trkpt lat="45.21407" lon="5.64619">
        <ele>385.48</ele>
        <time>2018-06-17T15:48:52Z</time>
      </trkpt>
      <trkpt lat="45.21431" lon="5.64646">
        <ele>383.48</ele>
        <time>2018-06-17T15:48:54Z</time>
      </trkpt>
      <trkpt lat="45.2146" lon="5.64662">
        <ele>382.18</ele>
        <time>2018-06-17T15:48:56Z</time>
      </trkpt>
      <trkpt lat="45.2148" lon="5.64666">
        <ele>382.09</ele>
        <time>2018-06-17T15:48:57Z</time>
      </trkpt>
      <trkpt lat="45.21501" lon="5.6466">
        <ele>381.36</ele>
        <time>2018-06-17T15:48:58Z</time>
      </trkpt>
      <trkpt lat="45.21522" lon="5.64648">
        <ele>381.14</ele>
        <time>2018-06-17T15:48:59Z</time>
      </trkpt>
      <trkpt lat="45.21542" lon="5.64617">
        <ele>380.38</ele>
        <time>2018-06-17T15:49:00Z</time>
      </trkpt>
      <trkpt lat="45.21562" lon="5.64602">
        <ele>380.15</ele>
        <time>2018-06-17T15:49:01Z</time>
      </trkpt>
      <trkpt lat="45.21582" lon="5.64589">
        <ele>378.68</ele>
        <time>2018-06-17T15:49:02Z</time>
      </trkpt>
      <trkpt lat="45.21602" lon="5.64578">
        <ele>377.54</ele>
        <time>2018-06-17T15:49:03Z</time>
      </trkpt>
      <trkpt lat="45.2162" lon="5.6457">
        <ele>376.5</ele>
        <time>2018-06-17T15:49:04Z</time>
      </trkpt>
      <trkpt lat="45.21654" lon="5.64563">
        <ele>375.18</ele>
        <time>2018-06-17T15:49:06Z</time>
      </trkpt>
      <trkpt lat="45.21683" lon="5.64572">
        <ele>374.36</ele>
        <time>2018-06-17T15:49:08Z</time>
      </trkpt>
      <trkpt lat="45.21703" lon="5.64617">
        <ele>371.77</ele>
        <time>2018-06-17T15:49:10Z</time>
      </trkpt>
      <trkpt lat="45.21708" lon="5.64646">
        <ele>371.26</ele>
        <time>2018-06-17T15:49:11Z</time>
      </trkpt>
      <trkpt lat="45.21711" lon="5.64678">
        <ele>368.31</ele>
        <time>2018-06-17T15:49:12Z</time>
      </trkpt>
      <trkpt lat="45.21722" lon="5.64704">
        <ele>366.03</ele>
        <time>2018-06-17T15:49:13Z</time>
      </trkpt>
      <trkpt lat="45.21733" lon="5.64728">
        <ele>363.94</ele>
        <time>2018-06-17T15:49:14Z</time>
      </trkpt>
      <trkpt lat="45.21749" lon="5.64747">
        <ele>362.62</ele>
        <time>2018-06-17T15:49:15Z</time>
      </trkpt>
      <trkpt lat="45.21764" lon="5.64766">
        <ele>361.52</ele>
        <time>2018-06-17T15:49:16Z</time>
      </trkpt>
      <trkpt lat="45.21779" lon="5.64786">
        <ele>359.79</ele>
        <time>2018-06-17T15:49:17Z</time>
      </trkpt>
      <trkpt lat="45.21794" lon="5.64806">
        <ele>359.27</ele>
        <time>2018-06-17T15:49:18Z</time>
      </trkpt>
      <trkpt lat="45.21809" lon="5.64827">
        <ele>358.42</ele>
        <time>2018-06-17T15:49:19Z</time>
      </trkpt>
      <trkpt lat="45.21824" lon="5.64848">
        <ele>358.16</ele>
        <time>2018-06-17T15:49:20Z</time>
      </trkpt>
      <trkpt lat="45.21839" lon="5.64868">
        <ele>357.38</ele>
        <time>2018-06-17T15:49:21Z</time>
      </trkpt>
      <trkpt lat="45.21855" lon="5.64889">
        <ele>355.75</ele>
        <time>2018-06-17T15:49:22Z</time>
      </trkpt>
      <trkpt lat="45.21871" lon="5.64908">
        <ele>354.56</ele>
        <time>2018-06-17T15:49:23Z</time>
      </trkpt>
      <trkpt lat="45.21887" lon="5.64924">
        <ele>352.8</ele>
        <time>2018-06-17T15:49:24Z</time>
      </trkpt>
      <trkpt lat="45.21905" lon="5.64938">
        <ele>352.27</ele>
        <time>2018-06-17T15:49:25Z</time>
      </trkpt>
      <trkpt lat="45.21923" lon="5.64949">
        <ele>352.12</ele>
        <time>2018-06-17T15:49:26Z</time>
      </trkpt>
      <trkpt lat="45.2194" lon="5.64956">
        <ele>349.27</ele>
        <time>2018-06-17T15:49:27Z</time>
      </trkpt>
      <trkpt lat="45.21958" lon="5.64966">
        <ele>347.72</ele>
        <time>2018-06-17T15:49:28Z</time>
      </trkpt>
      <trkpt lat="45.21975" lon="5.64981">
        <ele>345.85</ele>
        <time>2018-06-17T15:49:29Z</time>
      </trkpt>
      <trkpt lat="45.2199" lon="5.64998">
        <ele>344.59</ele>
        <time>2018-06-17T15:49:30Z</time>
      </trkpt>
      <trkpt lat="45.22005" lon="5.65014">
        <ele>343.51</ele>
        <time>2018-06-17T15:49:31Z</time>
      </trkpt>
      <trkpt lat="45.22022" lon="5.6503">
        <ele>341.79</ele>
        <time>2018-06-17T15:49:32Z</time>
      </trkpt>
      <trkpt lat="45.22038" lon="5.65044">
        <ele>341.27</ele>
        <time>2018-06-17T15:49:33Z</time>
      </trkpt>
      <trkpt lat="45.22056" lon="5.65056">
        <ele>339.72</ele>
        <time>2018-06-17T15:49:34Z</time>
      </trkpt>
      <trkpt lat="45.22075" lon="5.65066">
        <ele>338.55</ele>
        <time>2018-06-17T15:49:35Z</time>
      </trkpt>
      <trkpt lat="45.22094" lon="5.65076">
        <ele>337.5</ele>
        <time>2018-06-17T15:49:36Z</time>
      </trkpt>
      <trkpt lat="45.22115" lon="5.65086">
        <ele>335.78</ele>
        <time>2018-06-17T15:49:37Z</time>
      </trkpt>
      <trkpt lat="45.22135" lon="5.65096">
        <ele>334.57</ele>
        <time>2018-06-17T15:49:38Z</time>
      </trkpt>
      <trkpt lat="45.22156" lon="5.65106">
        <ele>333.51</ele>
        <time>2018-06-17T15:49:39Z</time>
      </trkpt>
      <trkpt lat="45.22176" lon="5.65115">
        <ele>333.19</ele>
        <time>2018-06-17T15:49:40Z</time>
      </trkpt>
      <trkpt lat="45.22197" lon="5.65125">
        <ele>332.39</ele>
        <time>2018-06-17T15:49:41Z</time>
      </trkpt>
      <trkpt lat="45.22217" lon="5.65135">
        <ele>331.45</ele>
        <time>2018-06-17T15:49:42Z</time>
      </trkpt>
      <trkpt lat="45.22239" lon="5.65141">
        <ele>329.77</ele>
        <time>2018-06-17T15:49:43Z</time>
      </trkpt>
      <trkpt lat="45.22259" lon="5.65148">
        <ele>329.27</ele>
        <time>2018-06-17T15:49:44Z</time>
      </trkpt>
      <trkpt lat="45.2228" lon="5.65151">
        <ele>328.41</ele>
        <time>2018-06-17T15:49:45Z</time>
      </trkpt>
      <trkpt lat="45.22302" lon="5.65148">
        <ele>328.16</ele>
        <time>2018-06-17T15:49:46Z</time>
      </trkpt>
      <trkpt lat="45.22323" lon="5.65138">
        <ele>325.98</ele>
        <time>2018-06-17T15:49:47Z</time>
      </trkpt>
      <trkpt lat="45.22343" lon="5.65128">
        <ele>323.93</ele>
        <time>2018-06-17T15:49:48Z</time>
      </trkpt>
      <trkpt lat="45.22362" lon="5.65117">
        <ele>322.61</ele>
        <time>2018-06-17T15:49:49Z</time>
      </trkpt>
      <trkpt lat="45.22382" lon="5.65105">
        <ele>321.52</ele>
        <time>2018-06-17T15:49:50Z</time>
      </trkpt>
      <trkpt lat="45.224" lon="5.65094">
        <ele>320.49</ele>
        <time>2018-06-17T15:49:51Z</time>
      </trkpt>
      <trkpt lat="45.22418" lon="5.65085">
        <ele>318.78</ele>
        <time>2018-06-17T15:49:52Z</time>
      </trkpt>
      <trkpt lat="45.22448" lon="5.65075">
        <ele>316.5</ele>
        <time>2018-06-17T15:49:54Z</time>
      </trkpt>
      <trkpt lat="45.22473" lon="5.65078">
        <ele>314.48</ele>
        <time>2018-06-17T15:49:56Z</time>
      </trkpt>
      <trkpt lat="45.22487" lon="5.65099">
        <ele>312.48</ele>
        <time>2018-06-17T15:49:58Z</time>
      </trkpt>
      <trkpt lat="45.22474" lon="5.65122">
        <ele>310.48</ele>
        <time>2018-06-17T15:50:00Z</time>
      </trkpt>
      <trkpt lat="45.22441" lon="5.65112">
        <ele>308.48</ele>
        <time>2018-06-17T15:50:02Z</time>
      </trkpt>
      <trkpt lat="45.22406" lon="5.65109">
        <ele>306.48</ele>
        <time>2018-06-17T15:50:04Z</time>
      </trkpt>
      <trkpt lat="45.22388" lon="5.65113">
        <ele>304.78</ele>
        <time>2018-06-17T15:50:05Z</time>
      </trkpt>
      <trkpt lat="45.2237" lon="5.65127">
        <ele>304.27</ele>
        <time>2018-06-17T15:50:06Z</time>
      </trkpt>
      <trkpt lat="45.22353" lon="5.65152">
        <ele>303.41</ele>
        <time>2018-06-17T15:50:07Z</time>
      </trkpt>
      <trkpt lat="45.22334" lon="5.65168">
        <ele>303.16</ele>
        <time>2018-06-17T15:50:08Z</time>
      </trkpt>
      <trkpt lat="45.22316" lon="5.6518">
        <ele>301.68</ele>
        <time>2018-06-17T15:50:09Z</time>
      </trkpt>
      <trkpt lat="45.22296" lon="5.65192">
        <ele>299.84</ele>
        <time>2018-06-17T15:50:10Z</time>
      </trkpt>
      <trkpt lat="45.22277" lon="5.65203">
        <ele>297.89</ele>
        <time>2018-06-17T15:50:11Z</time>
      </trkpt>
      <trkpt lat="45.22258" lon="5.65214">
        <ele>296.6</ele>
        <time>2018-06-17T15:50:12Z</time>
      </trkpt>
      <trkpt lat="45.2224" lon="5.65225">
        <ele>294.81</ele>
        <time>2018-06-17T15:50:13Z</time>
      </trkpt>
      <trkpt lat="45.22221" lon="5.65232">
        <ele>293.58</ele>
        <time>2018-06-17T15:50:14Z</time>
      </trkpt>
      <trkpt lat="45.22203" lon="5.65231">
        <ele>291.81</ele>
        <time>2018-06-17T15:50:15Z</time>
      </trkpt>
      <trkpt lat="45.22184" lon="5.65229">
        <ele>290.58</ele>
        <time>2018-06-17T15:50:16Z</time>
      </trkpt>
      <trkpt lat="45.22166" lon="5.65223">
        <ele>289.51</ele>
        <time>2018-06-17T15:50:17Z</time>
      </trkpt>
      <trkpt lat="45.22148" lon="5.65219">
        <ele>289.19</ele>
        <time>2018-06-17T15:50:18Z</time>
      </trkpt>
      <trkpt lat="45.22128" lon="5.65219">
        <ele>288.39</ele>
        <time>2018-06-17T15:50:19Z</time>
      </trkpt>
      <trkpt lat="45.22109" lon="5.65221">
        <ele>287.45</ele>
        <time>2018-06-17T15:50:20Z</time>
      </trkpt>
      <trkpt lat="45.2209" lon="5.65228">
        <ele>285.77</ele>
        <time>2018-06-17T15:50:21Z</time>
      </trkpt>
      <trkpt lat="45.22072" lon="5.65236">
        <ele>284.57</ele>
        <time>2018-06-17T15:50:22Z</time>
      </trkpt>
      <trkpt lat="45.22054" lon="5.65245">
        <ele>283.5</ele>
        <time>2018-06-17T15:50:23Z</time>
      </trkpt>
      <trkpt lat="45.22036" lon="5.65253">
        <ele>282.49</ele>
        <time>2018-06-17T15:50:24Z</time>
      </trkpt>
      <trkpt lat="45.22019" lon="5.65265">
        <ele>280.78</ele>
        <time>2018-06-17T15:50:25Z</time>
      </trkpt>
      <trkpt lat="45.22003" lon="5.65278">
        <ele>279.57</ele>
        <time>2018-06-17T15:50:26Z</time>
      </trkpt>
      <trkpt lat="45.21987" lon="5.65293">
        <ele>278.5</ele>
        <time>2018-06-17T15:50:27Z</time>
      </trkpt>
      <trkpt lat="45.21972" lon="5.65312">
        <ele>277.49</ele>
        <time>2018-06-17T15:50:28Z</time>
      </trkpt>
      <trkpt lat="45.21958" lon="5.65331">
        <ele>276.48</ele>
        <time>2018-06-17T15:50:29Z</time>
      </trkpt>
      <trkpt lat="45.21944" lon="5.65349">
        <ele>276.18</ele>
        <time>2018-06-17T15:50:30Z</time>
      </trkpt>
      <trkpt lat="45.21931" lon="5.65366">
        <ele>275.39</ele>
        <time>2018-06-17T15:50:31Z</time>
      </trkpt>
      <trkpt lat="45.21906" lon="5.654">
        <ele>273.47</ele>
        <time>2018-06-17T15:50:33Z</time>
      </trkpt>
      <trkpt lat="45.21879" lon="5.65432">
        <ele>272.6</ele>
        <time>2018-06-17T15:50:35Z</time>
      </trkpt>
      <trkpt lat="45.21853" lon="5.6546">
        <ele>272.1</ele>
        <time>2018-06-17T15:50:37Z</time>
      </trkpt>
      <trkpt lat="45.21824" lon="5.65481">
        <ele>271.14</ele>
        <time>2018-06-17T15:50:39Z</time>
      </trkpt>
      <trkpt lat="45.21794" lon="5.65499">
        <ele>269.45</ele>
        <time>2018-06-17T15:50:41Z</time>
      </trkpt>
      <trkpt lat="45.21764" lon="5.65521">
        <ele>265.86</ele>
        <time>2018-06-17T15:50:43Z</time>
      </trkpt>
      <trkpt lat="45.21733" lon="5.65542">
        <ele>263.72</ele>
        <time>2018-06-17T15:50:45Z</time>
      </trkpt>
      <trkpt lat="45.21701" lon="5.65559">
        <ele>262.41</ele>
        <time>2018-06-17T15:50:47Z</time>
      </trkpt>
      <trkpt lat="45.21666" lon="5.65569">
        <ele>258.86</ele>
        <time>2018-06-17T15:50:49Z</time>
      </trkpt>
      <trkpt lat="45.21649" lon="5.65562">
        <ele>257.59</ele>
        <time>2018-06-17T15:50:50Z</time>
      </trkpt>
      <trkpt lat="45.21631" lon="5.65553">
        <ele>256.51</ele>
        <time>2018-06-17T15:50:51Z</time>
      </trkpt>
      <trkpt lat="45.21598" lon="5.6553">
        <ele>251.96</ele>
        <time>2018-06-17T15:50:53Z</time>
      </trkpt>
      <trkpt lat="45.21564" lon="5.65514">
        <ele>250.43</ele>
        <time>2018-06-17T15:50:55Z</time>
      </trkpt>
      <trkpt lat="45.21546" lon="5.65508">
        <ele>249.46</ele>
        <time>2018-06-17T15:50:56Z</time>
      </trkpt>
      <trkpt lat="45.21527" lon="5.65505">
        <ele>248.47</ele>
        <time>2018-06-17T15:50:57Z</time>
      </trkpt>
      <trkpt lat="45.21503" lon="5.65513">
        <ele>248.18</ele>
        <time>2018-06-17T15:50:58Z</time>
      </trkpt>
      <trkpt lat="45.21484" lon="5.65516">
        <ele>245.99</ele>
        <time>2018-06-17T15:50:59Z</time>
      </trkpt>
      <trkpt lat="45.21464" lon="5.65518">
        <ele>243.93</ele>
        <time>2018-06-17T15:51:00Z</time>
      </trkpt>
      <trkpt lat="45.21445" lon="5.65518">
        <ele>241.91</ele>
        <time>2018-06-17T15:51:01Z</time>
      </trkpt>
      <trkpt lat="45.21425" lon="5.65516">
        <ele>240.61</ele>
        <time>2018-06-17T15:51:02Z</time>
      </trkpt>
      <trkpt lat="45.21404" lon="5.65513">
        <ele>238.82</ele>
        <time>2018-06-17T15:51:03Z</time>
      </trkpt>
      <trkpt lat="45.21384" lon="5.65509">
        <ele>236.88</ele>
        <time>2018-06-17T15:51:04Z</time>
      </trkpt>
      <trkpt lat="45.21365" lon="5.65504">
        <ele>234.9</ele>
        <time>2018-06-17T15:51:05Z</time>
      </trkpt>
      <trkpt lat="45.21345" lon="5.65499">
        <ele>233.6</ele>
        <time>2018-06-17T15:51:06Z</time>
      </trkpt>
      <trkpt lat="45.21327" lon="5.65496">
        <ele>233.22</ele>
        <time>2018-06-17T15:51:07Z</time>
      </trkpt>
      <trkpt lat="45.21295" lon="5.65492">
        <ele>231.45</ele>
        <time>2018-06-17T15:51:09Z</time>
      </trkpt>
      <trkpt lat="45.21265" lon="5.65495">
        <ele>231.09</ele>
        <time>2018-06-17T15:51:11Z</time>
      </trkpt>
      <trkpt lat="45.21242" lon="5.65516">
        <ele>228.53</ele>
        <time>2018-06-17T15:51:13Z</time>
      </trkpt>
      <trkpt lat="45.21225" lon="5.65535">
        <ele>227.39</ele>
        <time>2018-06-17T15:51:15Z</time>
      </trkpt>
      <trkpt lat="45.21215" lon="5.65564">
        <ele>224.54</ele>
        <time>2018-06-17T15:51:18Z</time>
      </trkpt>
      <trkpt lat="45.21202" lon="5.65591">
        <ele>222.39</ele>
        <time>2018-06-17T15:51:21Z</time>
      </trkpt>
      <trkpt lat="45.21202" lon="5.65622">
        <ele>219.41</ele>
        <time>2018-06-17T15:51:24Z</time>
      </trkpt>
      <trkpt lat="45.21206" lon="5.65648">
        <ele>218.38</ele>
        <time>2018-06-17T15:51:26Z</time>
      </trkpt>
      <trkpt lat="45.21213" lon="5.65676">
        <ele>216.47</ele>
        <time>2018-06-17T15:51:28Z</time>
      </trkpt>
      <trkpt lat="45.21222" lon="5.65704">
        <ele>214.48</ele>
        <time>2018-06-17T15:51:30Z</time>
      </trkpt>
      <trkpt lat="45.21231" lon="5.65732">
        <ele>213.18</ele>
        <time>2018-06-17T15:51:32Z</time>
      </trkpt>
      <trkpt lat="45.2124" lon="5.6576">
        <ele>212.36</ele>
        <time>2018-06-17T15:51:34Z</time>
      </trkpt>
      <trkpt lat="45.2125" lon="5.6579">
        <ele>210.47</ele>
        <time>2018-06-17T15:51:36Z</time>
      </trkpt>
      <trkpt lat="45.21257" lon="5.6582">
        <ele>210.09</ele>
        <time>2018-06-17T15:51:38Z</time>
      </trkpt>
      <trkpt lat="45.2126" lon="5.65851">
        <ele>209.35</ele>
        <time>2018-06-17T15:51:40Z</time>
      </trkpt>
      <trkpt lat="45.21265" lon="5.65882">
        <ele>209.29</ele>
        <time>2018-06-17T15:51:42Z</time>
      </trkpt>
      <trkpt lat="45.21269" lon="5.65915">
        <ele>209.07</ele>
        <time>2018-06-17T15:51:44Z</time>
      </trkpt>
      <trkpt lat="45.21272" lon="5.65948">
        <ele>208.14</ele>
        <time>2018-06-17T15:51:46Z</time>
      </trkpt>
      <trkpt lat="45.21275" lon="5.6598">
        <ele>207.36</ele>
        <time>2018-06-17T15:51:48Z</time>
      </trkpt>
      <trkpt lat="45.21278" lon="5.66009">
        <ele>207.08</ele>
        <time>2018-06-17T15:51:50Z</time>
      </trkpt>
      <trkpt lat="45.2128" lon="5.66036">
        <ele>207.05</ele>
        <time>2018-06-17T15:51:52Z</time>
      </trkpt>
      <trkpt lat="45.21285" lon="5.66065">
        <ele>207.05</ele>
        <time>2018-06-17T15:51:54Z</time>
      </trkpt>
      <trkpt lat="45.21294" lon="5.66095">
        <ele>206.84</ele>
        <time>2018-06-17T15:51:56Z</time>
      </trkpt>
      <trkpt lat="45.21298" lon="5.66124">
        <ele>206.33</ele>
        <time>2018-06-17T15:51:58Z</time>
      </trkpt>
      <trkpt lat="45.21309" lon="5.66154">
        <ele>205.36</ele>
        <time>2018-06-17T15:52:01Z</time>
      </trkpt>
      <trkpt lat="45.21329" lon="5.66158">
        <ele>206.03</ele>
        <time>2018-06-17T15:52:04Z</time>
      </trkpt>
      <trkpt lat="45.21347" lon="5.66147">
        <ele>205.14</ele>
        <time>2018-06-17T15:52:06Z</time>
      </trkpt>
      <trkpt lat="45.21372" lon="5.66144">
        <ele>205.06</ele>
        <time>2018-06-17T15:52:08Z</time>
      </trkpt>
      <trkpt lat="45.21403" lon="5.66139">
        <ele>204.35</ele>
        <time>2018-06-17T15:52:10Z</time>
      </trkpt>
      <trkpt lat="45.21431" lon="5.66134">
        <ele>204.78</ele>
        <time>2018-06-17T15:52:12Z</time>
      </trkpt>
      <trkpt lat="45.21461" lon="5.66126">
        <ele>204.11</ele>
        <time>2018-06-17T15:52:14Z</time>
      </trkpt>
      <trkpt lat="45.21494" lon="5.6612">
        <ele>204.05</ele>
        <time>2018-06-17T15:52:16Z</time>
      </trkpt>
      <trkpt lat="45.21524" lon="5.66114">
        <ele>204.05</ele>
        <time>2018-06-17T15:52:18Z</time>
      </trkpt>
      <trkpt lat="45.21552" lon="5.6611">
        <ele>204.75</ele>
        <time>2018-06-17T15:52:20Z</time>
      </trkpt>
      <trkpt lat="45.2158" lon="5.66104">
        <ele>205.02</ele>
        <time>2018-06-17T15:52:22Z</time>
      </trkpt>
      <trkpt lat="45.21607" lon="5.66099">
        <ele>205.05</ele>
        <time>2018-06-17T15:52:24Z</time>
      </trkpt>
      <trkpt lat="45.21635" lon="5.66093">
        <ele>206.66</ele>
        <time>2018-06-17T15:52:26Z</time>
      </trkpt>
      <trkpt lat="45.21664" lon="5.66087">
        <ele>206.31</ele>
        <time>2018-06-17T15:52:28Z</time>
      </trkpt>
      <trkpt lat="45.21693" lon="5.66082">
        <ele>205.37</ele>
        <time>2018-06-17T15:52:30Z</time>
      </trkpt>
      <trkpt lat="45.21722" lon="5.66077">
        <ele>205.99</ele>
        <time>2018-06-17T15:52:32Z</time>
      </trkpt>
      <trkpt lat="45.21753" lon="5.6607">
        <ele>205.34</ele>
        <time>2018-06-17T15:52:34Z</time>
      </trkpt>
      <trkpt lat="45.21783" lon="5.66065">
        <ele>205.08</ele>
        <time>2018-06-17T15:52:36Z</time>
      </trkpt>
      <trkpt lat="45.21811" lon="5.6606">
        <ele>205.96</ele>
        <time>2018-06-17T15:52:38Z</time>
      </trkpt>
      <trkpt lat="45.21839" lon="5.66056">
        <ele>206.74</ele>
        <time>2018-06-17T15:52:40Z</time>
      </trkpt>
      <trkpt lat="45.21867" lon="5.6605">
        <ele>207.02</ele>
        <time>2018-06-17T15:52:42Z</time>
      </trkpt>
      <trkpt lat="45.21894" lon="5.66045">
        <ele>207.75</ele>
        <time>2018-06-17T15:52:44Z</time>
      </trkpt>
      <trkpt lat="45.21919" lon="5.6604">
        <ele>208.93</ele>
        <time>2018-06-17T15:52:46Z</time>
      </trkpt>
      <trkpt lat="45.21943" lon="5.66036">
        <ele>209.04</ele>
        <time>2018-06-17T15:52:48Z</time>
      </trkpt>
      <trkpt lat="45.21968" lon="5.66035">
        <ele>208.14</ele>
        <time>2018-06-17T15:52:50Z</time>
      </trkpt>
      <trkpt lat="45.21994" lon="5.66027">
        <ele>208.06</ele>
        <time>2018-06-17T15:52:52Z</time>
      </trkpt>
      <trkpt lat="45.22021" lon="5.66018">
        <ele>207.14</ele>
        <time>2018-06-17T15:52:54Z</time>
      </trkpt>
      <trkpt lat="45.22041" lon="5.66014">
        <ele>207.08</ele>
        <time>2018-06-17T15:52:55Z</time>
      </trkpt>
      <trkpt lat="45.22059" lon="5.6601">
        <ele>207.06</ele>
        <time>2018-06-17T15:52:56Z</time>
      </trkpt>
      <trkpt lat="45.22081" lon="5.6601">
        <ele>207.75</ele>
        <time>2018-06-17T15:52:57Z</time>
      </trkpt>
      <trkpt lat="45.22101" lon="5.66007">
        <ele>207.96</ele>
        <time>2018-06-17T15:52:58Z</time>
      </trkpt>
      <trkpt lat="45.22121" lon="5.66001">
        <ele>207.32</ele>
        <time>2018-06-17T15:52:59Z</time>
      </trkpt>
      <trkpt lat="45.22141" lon="5.65997">
        <ele>207.13</ele>
        <time>2018-06-17T15:53:00Z</time>
      </trkpt>
      <trkpt lat="45.22162" lon="5.65993">
        <ele>206.37</ele>
        <time>2018-06-17T15:53:01Z</time>
      </trkpt>
      <trkpt lat="45.22183" lon="5.6599">
        <ele>206.85</ele>
        <time>2018-06-17T15:53:02Z</time>
      </trkpt>
      <trkpt lat="45.22203" lon="5.65985">
        <ele>206.29</ele>
        <time>2018-06-17T15:53:03Z</time>
      </trkpt>
      <trkpt lat="45.22224" lon="5.65977">
        <ele>205.42</ele>
        <time>2018-06-17T15:53:04Z</time>
      </trkpt>
      <trkpt lat="45.22246" lon="5.65969">
        <ele>204.46</ele>
        <time>2018-06-17T15:53:05Z</time>
      </trkpt>
      <trkpt lat="45.22267" lon="5.65957">
        <ele>204.17</ele>
        <time>2018-06-17T15:53:06Z</time>
      </trkpt>
      <trkpt lat="45.22288" lon="5.65945">
        <ele>204.09</ele>
        <time>2018-06-17T15:53:07Z</time>
      </trkpt>
      <trkpt lat="45.22309" lon="5.6593">
        <ele>204.06</ele>
        <time>2018-06-17T15:53:08Z</time>
      </trkpt>
      <trkpt lat="45.22329" lon="5.65913">
        <ele>204.75</ele>
        <time>2018-06-17T15:53:09Z</time>
      </trkpt>
      <trkpt lat="45.22348" lon="5.65894">
        <ele>204.96</ele>
        <time>2018-06-17T15:53:10Z</time>
      </trkpt>
      <trkpt lat="45.22366" lon="5.65873">
        <ele>205.72</ele>
        <time>2018-06-17T15:53:11Z</time>
      </trkpt>
      <trkpt lat="45.22384" lon="5.65851">
        <ele>205.25</ele>
        <time>2018-06-17T15:53:12Z</time>
      </trkpt>
      <trkpt lat="45.22401" lon="5.65827">
        <ele>205.11</ele>
        <time>2018-06-17T15:53:13Z</time>
      </trkpt>
      <trkpt lat="45.22418" lon="5.65804">
        <ele>205.07</ele>
        <time>2018-06-17T15:53:14Z</time>
      </trkpt>
      <trkpt lat="45.22432" lon="5.65778">
        <ele>204.35</ele>
        <time>2018-06-17T15:53:15Z</time>
      </trkpt>
      <trkpt lat="45.22448" lon="5.65752">
        <ele>204.14</ele>
        <time>2018-06-17T15:53:16Z</time>
      </trkpt>
      <trkpt lat="45.22464" lon="5.65727">
        <ele>204.08</ele>
        <time>2018-06-17T15:53:17Z</time>
      </trkpt>
      <trkpt lat="45.2248" lon="5.65701">
        <ele>204.06</ele>
        <time>2018-06-17T15:53:18Z</time>
      </trkpt>
      <trkpt lat="45.22496" lon="5.65675">
        <ele>204.05</ele>
        <time>2018-06-17T15:53:19Z</time>
      </trkpt>
      <trkpt lat="45.22512" lon="5.65649">
        <ele>204.75</ele>
        <time>2018-06-17T15:53:20Z</time>
      </trkpt>
      <trkpt lat="45.22528" lon="5.65623">
        <ele>204.96</ele>
        <time>2018-06-17T15:53:21Z</time>
      </trkpt>
      <trkpt lat="45.22544" lon="5.65597">
        <ele>205.02</ele>
        <time>2018-06-17T15:53:22Z</time>
      </trkpt>
      <trkpt lat="45.22559" lon="5.65572">
        <ele>205.04</ele>
        <time>2018-06-17T15:53:23Z</time>
      </trkpt>
      <trkpt lat="45.22575" lon="5.65545">
        <ele>205.75</ele>
        <time>2018-06-17T15:53:24Z</time>
      </trkpt>
      <trkpt lat="45.22591" lon="5.65519">
        <ele>204.56</ele>
        <time>2018-06-17T15:53:25Z</time>
      </trkpt>
      <trkpt lat="45.22607" lon="5.65493">
        <ele>204.2</ele>
        <time>2018-06-17T15:53:26Z</time>
      </trkpt>
      <trkpt lat="45.22624" lon="5.65468">
        <ele>204.09</ele>
        <time>2018-06-17T15:53:27Z</time>
      </trkpt>
      <trkpt lat="45.2264" lon="5.65441">
        <ele>204.76</ele>
        <time>2018-06-17T15:53:28Z</time>
      </trkpt>
      <trkpt lat="45.22656" lon="5.65415">
        <ele>204.96</ele>
        <time>2018-06-17T15:53:29Z</time>
      </trkpt>
      <trkpt lat="45.22672" lon="5.65389">
        <ele>205.02</ele>
        <time>2018-06-17T15:53:30Z</time>
      </trkpt>
      <trkpt lat="45.22689" lon="5.65362">
        <ele>205.04</ele>
        <time>2018-06-17T15:53:31Z</time>
      </trkpt>
      <trkpt lat="45.22705" lon="5.65336">
        <ele>205.05</ele>
        <time>2018-06-17T15:53:32Z</time>
      </trkpt>
      <trkpt lat="45.22721" lon="5.6531">
        <ele>205.05</ele>
        <time>2018-06-17T15:53:33Z</time>
      </trkpt>
      <trkpt lat="45.22737" lon="5.65285">
        <ele>204.35</ele>
        <time>2018-06-17T15:53:34Z</time>
      </trkpt>
      <trkpt lat="45.22752" lon="5.65259">
        <ele>204.84</ele>
        <time>2018-06-17T15:53:35Z</time>
      </trkpt>
      <trkpt lat="45.22768" lon="5.65233">
        <ele>204.29</ele>
        <time>2018-06-17T15:53:36Z</time>
      </trkpt>
      <trkpt lat="45.22784" lon="5.65208">
        <ele>204.82</ele>
        <time>2018-06-17T15:53:37Z</time>
      </trkpt>
      <trkpt lat="45.228" lon="5.65183">
        <ele>204.98</ele>
        <time>2018-06-17T15:53:38Z</time>
      </trkpt>
      <trkpt lat="45.22815" lon="5.65158">
        <ele>205.03</ele>
        <time>2018-06-17T15:53:39Z</time>
      </trkpt>
      <trkpt lat="45.22831" lon="5.65133">
        <ele>205.04</ele>
        <time>2018-06-17T15:53:40Z</time>
      </trkpt>
      <trkpt lat="45.22846" lon="5.65109">
        <ele>205.05</ele>
        <time>2018-06-17T15:53:41Z</time>
      </trkpt>
      <trkpt lat="45.2286" lon="5.65085">
        <ele>205.05</ele>
        <time>2018-06-17T15:53:42Z</time>
      </trkpt>
      <trkpt lat="45.22874" lon="5.65061">
        <ele>205.05</ele>
        <time>2018-06-17T15:53:43Z</time>
      </trkpt>
      <trkpt lat="45.22888" lon="5.65039">
        <ele>205.75</ele>
        <time>2018-06-17T15:53:44Z</time>
      </trkpt>
      <trkpt lat="45.229" lon="5.65018">
        <ele>205.96</ele>
        <time>2018-06-17T15:53:45Z</time>
      </trkpt>
      <trkpt lat="45.22913" lon="5.64998">
        <ele>206.02</ele>
        <time>2018-06-17T15:53:46Z</time>
      </trkpt>
      <trkpt lat="45.22925" lon="5.64979">
        <ele>206.04</ele>
        <time>2018-06-17T15:53:47Z</time>
      </trkpt>
      <trkpt lat="45.22949" lon="5.6494">
        <ele>206.05</ele>
        <time>2018-06-17T15:53:49Z</time>
      </trkpt>
      <trkpt lat="45.22973" lon="5.64902">
        <ele>206.05</ele>
        <time>2018-06-17T15:53:51Z</time>
      </trkpt>
      <trkpt lat="45.22997" lon="5.64863">
        <ele>206.75</ele>
        <time>2018-06-17T15:53:53Z</time>
      </trkpt>
      <trkpt lat="45.23018" lon="5.64827">
        <ele>206.32</ele>
        <time>2018-06-17T15:53:55Z</time>
      </trkpt>
      <trkpt lat="45.2304" lon="5.64795">
        <ele>205.37</ele>
        <time>2018-06-17T15:53:57Z</time>
      </trkpt>
      <trkpt lat="45.23063" lon="5.64772">
        <ele>205.78</ele>
        <time>2018-06-17T15:53:59Z</time>
      </trkpt>
      <trkpt lat="45.23084" lon="5.64755">
        <ele>206.93</ele>
        <time>2018-06-17T15:54:01Z</time>
      </trkpt>
      <trkpt lat="45.23106" lon="5.6475">
        <ele>207.04</ele>
        <time>2018-06-17T15:54:03Z</time>
      </trkpt>
      <trkpt lat="45.23128" lon="5.64762">
        <ele>206.14</ele>
        <time>2018-06-17T15:54:05Z</time>
      </trkpt>
      <trkpt lat="45.23143" lon="5.6479">
        <ele>206.06</ele>
        <time>2018-06-17T15:54:07Z</time>
      </trkpt>
      <trkpt lat="45.23154" lon="5.64826">
        <ele>206.96</ele>
        <time>2018-06-17T15:54:09Z</time>
      </trkpt>
      <trkpt lat="45.23167" lon="5.64868">
        <ele>205.22</ele>
        <time>2018-06-17T15:54:11Z</time>
      </trkpt>
      <trkpt lat="45.23181" lon="5.64916">
        <ele>205.06</ele>
        <time>2018-06-17T15:54:13Z</time>
      </trkpt>
      <trkpt lat="45.23188" lon="5.64943">
        <ele>205.05</ele>
        <time>2018-06-17T15:54:14Z</time>
      </trkpt>
      <trkpt lat="45.23196" lon="5.64972">
        <ele>205.05</ele>
        <time>2018-06-17T15:54:15Z</time>
      </trkpt>
      <trkpt lat="45.23204" lon="5.65003">
        <ele>204.35</ele>
        <time>2018-06-17T15:54:16Z</time>
      </trkpt>
      <trkpt lat="45.23213" lon="5.65034">
        <ele>204.84</ele>
        <time>2018-06-17T15:54:17Z</time>
      </trkpt>
      <trkpt lat="45.23222" lon="5.65065">
        <ele>204.99</ele>
        <time>2018-06-17T15:54:18Z</time>
      </trkpt>
      <trkpt lat="45.23231" lon="5.65097">
        <ele>205.03</ele>
        <time>2018-06-17T15:54:19Z</time>
      </trkpt>
      <trkpt lat="45.2324" lon="5.6513">
        <ele>205.04</ele>
        <time>2018-06-17T15:54:20Z</time>
      </trkpt>
      <trkpt lat="45.23249" lon="5.65164">
        <ele>205.05</ele>
        <time>2018-06-17T15:54:21Z</time>
      </trkpt>
      <trkpt lat="45.23259" lon="5.652">
        <ele>205.75</ele>
        <time>2018-06-17T15:54:22Z</time>
      </trkpt>
      <trkpt lat="45.2327" lon="5.65238">
        <ele>205.96</ele>
        <time>2018-06-17T15:54:23Z</time>
      </trkpt>
      <trkpt lat="45.23283" lon="5.65277">
        <ele>206.02</ele>
        <time>2018-06-17T15:54:24Z</time>
      </trkpt>
      <trkpt lat="45.23296" lon="5.65315">
        <ele>206.04</ele>
        <time>2018-06-17T15:54:25Z</time>
      </trkpt>
      <trkpt lat="45.23315" lon="5.6535">
        <ele>205.35</ele>
        <time>2018-06-17T15:54:26Z</time>
      </trkpt>
      <trkpt lat="45.23334" lon="5.65384">
        <ele>205.84</ele>
        <time>2018-06-17T15:54:27Z</time>
      </trkpt>
      <trkpt lat="45.23355" lon="5.65416">
        <ele>206.69</ele>
        <time>2018-06-17T15:54:28Z</time>
      </trkpt>
      <trkpt lat="45.23379" lon="5.65445">
        <ele>206.94</ele>
        <time>2018-06-17T15:54:29Z</time>
      </trkpt>
      <trkpt lat="45.23404" lon="5.65472">
        <ele>207.72</ele>
        <time>2018-06-17T15:54:30Z</time>
      </trkpt>
      <trkpt lat="45.23431" lon="5.65497">
        <ele>208.65</ele>
        <time>2018-06-17T15:54:31Z</time>
      </trkpt>
      <trkpt lat="45.23457" lon="5.65519">
        <ele>209.63</ele>
        <time>2018-06-17T15:54:32Z</time>
      </trkpt>
      <trkpt lat="45.23481" lon="5.65542">
        <ele>210.62</ele>
        <time>2018-06-17T15:54:33Z</time>
      </trkpt>
      <trkpt lat="45.23502" lon="5.65566">
        <ele>210.92</ele>
        <time>2018-06-17T15:54:34Z</time>
      </trkpt>
      <trkpt lat="45.23522" lon="5.65592">
        <ele>211.01</ele>
        <time>2018-06-17T15:54:35Z</time>
      </trkpt>
      <trkpt lat="45.23537" lon="5.65622">
        <ele>211.74</ele>
        <time>2018-06-17T15:54:36Z</time>
      </trkpt>
      <trkpt lat="45.2355" lon="5.65654">
        <ele>211.96</ele>
        <time>2018-06-17T15:54:37Z</time>
      </trkpt>
      <trkpt lat="45.23563" lon="5.65686">
        <ele>212.02</ele>
        <time>2018-06-17T15:54:38Z</time>
      </trkpt>
      <trkpt lat="45.23575" lon="5.6572">
        <ele>212.04</ele>
        <time>2018-06-17T15:54:39Z</time>
      </trkpt>
      <trkpt lat="45.23586" lon="5.65754">
        <ele>212.05</ele>
        <time>2018-06-17T15:54:40Z</time>
      </trkpt>
      <trkpt lat="45.23598" lon="5.65787">
        <ele>212.05</ele>
        <time>2018-06-17T15:54:41Z</time>
      </trkpt>
      <trkpt lat="45.23609" lon="5.65819">
        <ele>212.75</ele>
        <time>2018-06-17T15:54:42Z</time>
      </trkpt>
      <trkpt lat="45.2362" lon="5.6585">
        <ele>212.96</ele>
        <time>2018-06-17T15:54:43Z</time>
      </trkpt>
      <trkpt lat="45.23631" lon="5.65878">
        <ele>213.02</ele>
        <time>2018-06-17T15:54:44Z</time>
      </trkpt>
      <trkpt lat="45.23641" lon="5.65906">
        <ele>213.04</ele>
        <time>2018-06-17T15:54:45Z</time>
      </trkpt>
      <trkpt lat="45.23652" lon="5.65933">
        <ele>212.35</ele>
        <time>2018-06-17T15:54:46Z</time>
      </trkpt>
      <trkpt lat="45.23661" lon="5.65958">
        <ele>212.14</ele>
        <time>2018-06-17T15:54:47Z</time>
      </trkpt>
      <trkpt lat="45.23674" lon="5.66004">
        <ele>212.06</ele>
        <time>2018-06-17T15:54:49Z</time>
      </trkpt>
      <trkpt lat="45.23676" lon="5.66046">
        <ele>212.05</ele>
        <time>2018-06-17T15:54:51Z</time>
      </trkpt>
      <trkpt lat="45.2367" lon="5.66079">
        <ele>212.05</ele>
        <time>2018-06-17T15:54:53Z</time>
      </trkpt>
      <trkpt lat="45.23655" lon="5.66103">
        <ele>212.05</ele>
        <time>2018-06-17T15:54:55Z</time>
      </trkpt>
      <trkpt lat="45.23627" lon="5.66106">
        <ele>211.84</ele>
        <time>2018-06-17T15:54:57Z</time>
      </trkpt>
      <trkpt lat="45.23598" lon="5.66116">
        <ele>211.33</ele>
        <time>2018-06-17T15:54:59Z</time>
      </trkpt>
      <trkpt lat="45.23568" lon="5.66133">
        <ele>211.07</ele>
        <time>2018-06-17T15:55:01Z</time>
      </trkpt>
      <trkpt lat="45.23552" lon="5.66153">
        <ele>211.06</ele>
        <time>2018-06-17T15:55:02Z</time>
      </trkpt>
      <trkpt lat="45.23543" lon="5.66184">
        <ele>208.95</ele>
        <time>2018-06-17T15:55:03Z</time>
      </trkpt>
      <trkpt lat="45.23531" lon="5.66224">
        <ele>207.62</ele>
        <time>2018-06-17T15:55:04Z</time>
      </trkpt>
      <trkpt lat="45.23515" lon="5.66252">
        <ele>207.22</ele>
        <time>2018-06-17T15:55:05Z</time>
      </trkpt>
      <trkpt lat="45.23495" lon="5.66275">
        <ele>207.1</ele>
        <time>2018-06-17T15:55:06Z</time>
      </trkpt>
      <trkpt lat="45.23474" lon="5.663">
        <ele>207.06</ele>
        <time>2018-06-17T15:55:07Z</time>
      </trkpt>
      <trkpt lat="45.23454" lon="5.66318">
        <ele>207.75</ele>
        <time>2018-06-17T15:55:08Z</time>
      </trkpt>
      <trkpt lat="45.23427" lon="5.66333">
        <ele>207.96</ele>
        <time>2018-06-17T15:55:09Z</time>
      </trkpt>
      <trkpt lat="45.23397" lon="5.66347">
        <ele>207.32</ele>
        <time>2018-06-17T15:55:10Z</time>
      </trkpt>
      <trkpt lat="45.2337" lon="5.6636">
        <ele>207.13</ele>
        <time>2018-06-17T15:55:11Z</time>
      </trkpt>
      <trkpt lat="45.23343" lon="5.66375">
        <ele>207.07</ele>
        <time>2018-06-17T15:55:12Z</time>
      </trkpt>
      <trkpt lat="45.23319" lon="5.6639">
        <ele>207.76</ele>
        <time>2018-06-17T15:55:13Z</time>
      </trkpt>
      <trkpt lat="45.23294" lon="5.66407">
        <ele>207.96</ele>
        <time>2018-06-17T15:55:14Z</time>
      </trkpt>
      <trkpt lat="45.23269" lon="5.66424">
        <ele>208.02</ele>
        <time>2018-06-17T15:55:15Z</time>
      </trkpt>
      <trkpt lat="45.23242" lon="5.66441">
        <ele>208.74</ele>
        <time>2018-06-17T15:55:16Z</time>
      </trkpt>
      <trkpt lat="45.23214" lon="5.66459">
        <ele>208.96</ele>
        <time>2018-06-17T15:55:17Z</time>
      </trkpt>
      <trkpt lat="45.23184" lon="5.66475">
        <ele>209.72</ele>
        <time>2018-06-17T15:55:18Z</time>
      </trkpt>
      <trkpt lat="45.23156" lon="5.66492">
        <ele>209.95</ele>
        <time>2018-06-17T15:55:19Z</time>
      </trkpt>
      <trkpt lat="45.23127" lon="5.66509">
        <ele>209.32</ele>
        <time>2018-06-17T15:55:20Z</time>
      </trkpt>
      <trkpt lat="45.231" lon="5.66526">
        <ele>209.83</ele>
        <time>2018-06-17T15:55:21Z</time>
      </trkpt>
      <trkpt lat="45.23074" lon="5.66543">
        <ele>209.98</ele>
        <time>2018-06-17T15:55:22Z</time>
      </trkpt>
      <trkpt lat="45.23048" lon="5.6656">
        <ele>210.03</ele>
        <time>2018-06-17T15:55:23Z</time>
      </trkpt>
      <trkpt lat="45.23023" lon="5.66577">
        <ele>210.04</ele>
        <time>2018-06-17T15:55:24Z</time>
      </trkpt>
      <trkpt lat="45.22997" lon="5.66594">
        <ele>210.05</ele>
        <time>2018-06-17T15:55:25Z</time>
      </trkpt>
      <trkpt lat="45.22972" lon="5.66611">
        <ele>210.05</ele>
        <time>2018-06-17T15:55:26Z</time>
      </trkpt>
      <trkpt lat="45.22947" lon="5.66629">
        <ele>210.05</ele>
        <time>2018-06-17T15:55:27Z</time>
      </trkpt>
      <trkpt lat="45.22922" lon="5.66647">
        <ele>210.05</ele>
        <time>2018-06-17T15:55:28Z</time>
      </trkpt>
      <trkpt lat="45.22896" lon="5.66665">
        <ele>210.05</ele>
        <time>2018-06-17T15:55:29Z</time>
      </trkpt>
      <trkpt lat="45.22872" lon="5.66683">
        <ele>210.05</ele>
        <time>2018-06-17T15:55:30Z</time>
      </trkpt>
      <trkpt lat="45.22848" lon="5.667">
        <ele>210.05</ele>
        <time>2018-06-17T15:55:31Z</time>
      </trkpt>
      <trkpt lat="45.22823" lon="5.66717">
        <ele>210.05</ele>
        <time>2018-06-17T15:55:32Z</time>
      </trkpt>
      <trkpt lat="45.22799" lon="5.66736">
        <ele>210.05</ele>
        <time>2018-06-17T15:55:33Z</time>
      </trkpt>
      <trkpt lat="45.22775" lon="5.66754">
        <ele>210.75</ele>
        <time>2018-06-17T15:55:34Z</time>
      </trkpt>
      <trkpt lat="45.2275" lon="5.66772">
        <ele>210.96</ele>
        <time>2018-06-17T15:55:35Z</time>
      </trkpt>
      <trkpt lat="45.22727" lon="5.66791">
        <ele>211.02</ele>
        <time>2018-06-17T15:55:36Z</time>
      </trkpt>
      <trkpt lat="45.22702" lon="5.66809">
        <ele>211.74</ele>
        <time>2018-06-17T15:55:37Z</time>
      </trkpt>
      <trkpt lat="45.22678" lon="5.66827">
        <ele>212.66</ele>
        <time>2018-06-17T15:55:38Z</time>
      </trkpt>
      <trkpt lat="45.22654" lon="5.66845">
        <ele>212.93</ele>
        <time>2018-06-17T15:55:39Z</time>
      </trkpt>
      <trkpt lat="45.2263" lon="5.66864">
        <ele>213.71</ele>
        <time>2018-06-17T15:55:40Z</time>
      </trkpt>
      <trkpt lat="45.22607" lon="5.66882">
        <ele>213.95</ele>
        <time>2018-06-17T15:55:41Z</time>
      </trkpt>
      <trkpt lat="45.22583" lon="5.669">
        <ele>214.72</ele>
        <time>2018-06-17T15:55:42Z</time>
      </trkpt>
      <trkpt lat="45.22558" lon="5.66918">
        <ele>215.65</ele>
        <time>2018-06-17T15:55:43Z</time>
      </trkpt>
      <trkpt lat="45.22534" lon="5.66936">
        <ele>215.23</ele>
        <time>2018-06-17T15:55:44Z</time>
      </trkpt>
      <trkpt lat="45.2251" lon="5.66954">
        <ele>215.8</ele>
        <time>2018-06-17T15:55:45Z</time>
      </trkpt>
      <trkpt lat="45.22486" lon="5.66972">
        <ele>215.98</ele>
        <time>2018-06-17T15:55:46Z</time>
      </trkpt>
      <trkpt lat="45.22463" lon="5.6699">
        <ele>216.73</ele>
        <time>2018-06-17T15:55:47Z</time>
      </trkpt>
      <trkpt lat="45.22439" lon="5.67007">
        <ele>216.95</ele>
        <time>2018-06-17T15:55:48Z</time>
      </trkpt>
      <trkpt lat="45.22415" lon="5.67025">
        <ele>217.02</ele>
        <time>2018-06-17T15:55:49Z</time>
      </trkpt>
      <trkpt lat="45.22391" lon="5.67042">
        <ele>217.04</ele>
        <time>2018-06-17T15:55:50Z</time>
      </trkpt>
      <trkpt lat="45.22368" lon="5.67061">
        <ele>216.35</ele>
        <time>2018-06-17T15:55:51Z</time>
      </trkpt>
      <trkpt lat="45.22344" lon="5.67078">
        <ele>216.14</ele>
        <time>2018-06-17T15:55:52Z</time>
      </trkpt>
      <trkpt lat="45.2232" lon="5.67096">
        <ele>216.08</ele>
        <time>2018-06-17T15:55:53Z</time>
      </trkpt>
      <trkpt lat="45.22296" lon="5.67115">
        <ele>215.36</ele>
        <time>2018-06-17T15:55:54Z</time>
      </trkpt>
      <trkpt lat="45.22269" lon="5.67135">
        <ele>214.44</ele>
        <time>2018-06-17T15:55:55Z</time>
      </trkpt>
      <trkpt lat="45.22242" lon="5.67155">
        <ele>213.47</ele>
        <time>2018-06-17T15:55:56Z</time>
      </trkpt>
      <trkpt lat="45.22215" lon="5.67175">
        <ele>213.17</ele>
        <time>2018-06-17T15:55:57Z</time>
      </trkpt>
      <trkpt lat="45.22187" lon="5.67195">
        <ele>213.09</ele>
        <time>2018-06-17T15:55:58Z</time>
      </trkpt>
      <trkpt lat="45.2216" lon="5.67214">
        <ele>212.36</ele>
        <time>2018-06-17T15:55:59Z</time>
      </trkpt>
      <trkpt lat="45.22133" lon="5.67232">
        <ele>212.14</ele>
        <time>2018-06-17T15:56:00Z</time>
      </trkpt>
      <trkpt lat="45.22107" lon="5.67252">
        <ele>212.08</ele>
        <time>2018-06-17T15:56:01Z</time>
      </trkpt>
      <trkpt lat="45.22082" lon="5.67272">
        <ele>212.06</ele>
        <time>2018-06-17T15:56:02Z</time>
      </trkpt>
      <trkpt lat="45.22058" lon="5.67292">
        <ele>212.05</ele>
        <time>2018-06-17T15:56:03Z</time>
      </trkpt>
      <trkpt lat="45.22035" lon="5.67312">
        <ele>212.05</ele>
        <time>2018-06-17T15:56:04Z</time>
      </trkpt>
      <trkpt lat="45.22014" lon="5.67331">
        <ele>212.05</ele>
        <time>2018-06-17T15:56:05Z</time>
      </trkpt>
      <trkpt lat="45.21994" lon="5.6735">
        <ele>212.75</ele>
        <time>2018-06-17T15:56:06Z</time>
      </trkpt>
      <trkpt lat="45.21975" lon="5.67369">
        <ele>212.96</ele>
        <time>2018-06-17T15:56:07Z</time>
      </trkpt>
      <trkpt lat="45.21957" lon="5.67388">
        <ele>213.02</ele>
        <time>2018-06-17T15:56:08Z</time>
      </trkpt>
      <trkpt lat="45.21938" lon="5.67408">
        <ele>213.04</ele>
        <time>2018-06-17T15:56:09Z</time>
      </trkpt>
      <trkpt lat="45.21919" lon="5.6743">
        <ele>213.05</ele>
        <time>2018-06-17T15:56:10Z</time>
      </trkpt>
      <trkpt lat="45.21898" lon="5.67452">
        <ele>212.35</ele>
        <time>2018-06-17T15:56:11Z</time>
      </trkpt>
      <trkpt lat="45.21878" lon="5.67475">
        <ele>212.14</ele>
        <time>2018-06-17T15:56:12Z</time>
      </trkpt>
      <trkpt lat="45.21858" lon="5.67499">
        <ele>212.08</ele>
        <time>2018-06-17T15:56:13Z</time>
      </trkpt>
      <trkpt lat="45.21839" lon="5.67525">
        <ele>212.06</ele>
        <time>2018-06-17T15:56:14Z</time>
      </trkpt>
      <trkpt lat="45.2182" lon="5.67553">
        <ele>212.05</ele>
        <time>2018-06-17T15:56:15Z</time>
      </trkpt>
      <trkpt lat="45.21801" lon="5.67579">
        <ele>212.05</ele>
        <time>2018-06-17T15:56:16Z</time>
      </trkpt>
      <trkpt lat="45.21782" lon="5.67604">
        <ele>212.05</ele>
        <time>2018-06-17T15:56:17Z</time>
      </trkpt>
      <trkpt lat="45.21765" lon="5.67628">
        <ele>212.05</ele>
        <time>2018-06-17T15:56:18Z</time>
      </trkpt>
      <trkpt lat="45.21748" lon="5.67651">
        <ele>212.05</ele>
        <time>2018-06-17T15:56:19Z</time>
      </trkpt>
      <trkpt lat="45.21733" lon="5.67673">
        <ele>212.75</ele>
        <time>2018-06-17T15:56:20Z</time>
      </trkpt>
      <trkpt lat="45.21719" lon="5.67695">
        <ele>212.96</ele>
        <time>2018-06-17T15:56:21Z</time>
      </trkpt>
      <trkpt lat="45.21704" lon="5.67719">
        <ele>213.02</ele>
        <time>2018-06-17T15:56:22Z</time>
      </trkpt>
      <trkpt lat="45.21689" lon="5.67742">
        <ele>213.74</ele>
        <time>2018-06-17T15:56:23Z</time>
      </trkpt>
      <trkpt lat="45.21674" lon="5.67765">
        <ele>213.96</ele>
        <time>2018-06-17T15:56:24Z</time>
      </trkpt>
      <trkpt lat="45.21658" lon="5.67789">
        <ele>214.02</ele>
        <time>2018-06-17T15:56:25Z</time>
      </trkpt>
      <trkpt lat="45.21642" lon="5.67814">
        <ele>214.04</ele>
        <time>2018-06-17T15:56:26Z</time>
      </trkpt>
      <trkpt lat="45.21626" lon="5.67839">
        <ele>214.05</ele>
        <time>2018-06-17T15:56:27Z</time>
      </trkpt>
      <trkpt lat="45.21609" lon="5.67864">
        <ele>214.05</ele>
        <time>2018-06-17T15:56:28Z</time>
      </trkpt>
      <trkpt lat="45.21593" lon="5.67888">
        <ele>214.05</ele>
        <time>2018-06-17T15:56:29Z</time>
      </trkpt>
      <trkpt lat="45.21577" lon="5.67912">
        <ele>214.05</ele>
        <time>2018-06-17T15:56:30Z</time>
      </trkpt>
      <trkpt lat="45.21562" lon="5.67935">
        <ele>214.05</ele>
        <time>2018-06-17T15:56:31Z</time>
      </trkpt>
      <trkpt lat="45.21546" lon="5.6796">
        <ele>214.05</ele>
        <time>2018-06-17T15:56:32Z</time>
      </trkpt>
      <trkpt lat="45.2153" lon="5.67985">
        <ele>214.05</ele>
        <time>2018-06-17T15:56:33Z</time>
      </trkpt>
      <trkpt lat="45.21513" lon="5.68011">
        <ele>213.35</ele>
        <time>2018-06-17T15:56:34Z</time>
      </trkpt>
      <trkpt lat="45.21496" lon="5.68037">
        <ele>213.84</ele>
        <time>2018-06-17T15:56:35Z</time>
      </trkpt>
      <trkpt lat="45.21479" lon="5.68064">
        <ele>213.29</ele>
        <time>2018-06-17T15:56:36Z</time>
      </trkpt>
      <trkpt lat="45.21462" lon="5.6809">
        <ele>213.12</ele>
        <time>2018-06-17T15:56:37Z</time>
      </trkpt>
      <trkpt lat="45.21446" lon="5.68117">
        <ele>213.07</ele>
        <time>2018-06-17T15:56:38Z</time>
      </trkpt>
      <trkpt lat="45.2143" lon="5.68143">
        <ele>212.36</ele>
        <time>2018-06-17T15:56:39Z</time>
      </trkpt>
      <trkpt lat="45.21415" lon="5.68171">
        <ele>212.14</ele>
        <time>2018-06-17T15:56:40Z</time>
      </trkpt>
      <trkpt lat="45.21399" lon="5.68198">
        <ele>212.08</ele>
        <time>2018-06-17T15:56:41Z</time>
      </trkpt>
      <trkpt lat="45.21384" lon="5.68226">
        <ele>212.06</ele>
        <time>2018-06-17T15:56:42Z</time>
      </trkpt>
      <trkpt lat="45.21368" lon="5.68254">
        <ele>212.75</ele>
        <time>2018-06-17T15:56:43Z</time>
      </trkpt>
      <trkpt lat="45.21354" lon="5.68284">
        <ele>212.96</ele>
        <time>2018-06-17T15:56:44Z</time>
      </trkpt>
      <trkpt lat="45.2134" lon="5.68314">
        <ele>213.02</ele>
        <time>2018-06-17T15:56:45Z</time>
      </trkpt>
      <trkpt lat="45.21327" lon="5.68344">
        <ele>213.04</ele>
        <time>2018-06-17T15:56:46Z</time>
      </trkpt>
      <trkpt lat="45.21315" lon="5.68374">
        <ele>213.05</ele>
        <time>2018-06-17T15:56:47Z</time>
      </trkpt>
      <trkpt lat="45.21303" lon="5.68405">
        <ele>213.75</ele>
        <time>2018-06-17T15:56:48Z</time>
      </trkpt>
      <trkpt lat="45.21291" lon="5.68435">
        <ele>213.26</ele>
        <time>2018-06-17T15:56:49Z</time>
      </trkpt>
      <trkpt lat="45.21278" lon="5.68464">
        <ele>213.11</ele>
        <time>2018-06-17T15:56:50Z</time>
      </trkpt>
      <trkpt lat="45.21266" lon="5.68494">
        <ele>213.07</ele>
        <time>2018-06-17T15:56:51Z</time>
      </trkpt>
      <trkpt lat="45.21255" lon="5.68526">
        <ele>213.05</ele>
        <time>2018-06-17T15:56:52Z</time>
      </trkpt>
      <trkpt lat="45.21244" lon="5.68559">
        <ele>212.35</ele>
        <time>2018-06-17T15:56:53Z</time>
      </trkpt>
      <trkpt lat="45.21234" lon="5.68592">
        <ele>212.14</ele>
        <time>2018-06-17T15:56:54Z</time>
      </trkpt>
      <trkpt lat="45.21225" lon="5.68625">
        <ele>212.08</ele>
        <time>2018-06-17T15:56:55Z</time>
      </trkpt>
      <trkpt lat="45.21215" lon="5.68658">
        <ele>212.06</ele>
        <time>2018-06-17T15:56:56Z</time>
      </trkpt>
      <trkpt lat="45.21206" lon="5.68692">
        <ele>212.05</ele>
        <time>2018-06-17T15:56:57Z</time>
      </trkpt>
      <trkpt lat="45.21197" lon="5.68726">
        <ele>212.05</ele>
        <time>2018-06-17T15:56:58Z</time>
      </trkpt>
      <trkpt lat="45.21189" lon="5.6876">
        <ele>212.05</ele>
        <time>2018-06-17T15:56:59Z</time>
      </trkpt>
      <trkpt lat="45.21181" lon="5.68794">
        <ele>212.05</ele>
        <time>2018-06-17T15:57:00Z</time>
      </trkpt>
      <trkpt lat="45.21173" lon="5.68828">
        <ele>212.05</ele>
        <time>2018-06-17T15:57:01Z</time>
      </trkpt>
      <trkpt lat="45.21166" lon="5.68864">
        <ele>212.05</ele>
        <time>2018-06-17T15:57:02Z</time>
      </trkpt>
      <trkpt lat="45.21159" lon="5.68899">
        <ele>212.05</ele>
        <time>2018-06-17T15:57:03Z</time>
      </trkpt>
      <trkpt lat="45.21153" lon="5.68934">
        <ele>212.75</ele>
        <time>2018-06-17T15:57:04Z</time>
      </trkpt>
      <trkpt lat="45.21147" lon="5.6897">
        <ele>212.96</ele>
        <time>2018-06-17T15:57:05Z</time>
      </trkpt>
      <trkpt lat="45.21141" lon="5.69006">
        <ele>213.02</ele>
        <time>2018-06-17T15:57:06Z</time>
      </trkpt>
      <trkpt lat="45.21135" lon="5.69041">
        <ele>213.74</ele>
        <time>2018-06-17T15:57:07Z</time>
      </trkpt>
      <trkpt lat="45.2113" lon="5.69077">
        <ele>213.96</ele>
        <time>2018-06-17T15:57:08Z</time>
      </trkpt>
      <trkpt lat="45.21124" lon="5.69112">
        <ele>214.02</ele>
        <time>2018-06-17T15:57:09Z</time>
      </trkpt>
      <trkpt lat="45.21118" lon="5.69146">
        <ele>214.04</ele>
        <time>2018-06-17T15:57:10Z</time>
      </trkpt>
      <trkpt lat="45.21112" lon="5.69181">
        <ele>214.05</ele>
        <time>2018-06-17T15:57:11Z</time>
      </trkpt>
      <trkpt lat="45.21106" lon="5.69217">
        <ele>214.05</ele>
        <time>2018-06-17T15:57:12Z</time>
      </trkpt>
      <trkpt lat="45.211" lon="5.69252">
        <ele>214.75</ele>
        <time>2018-06-17T15:57:13Z</time>
      </trkpt>
      <trkpt lat="45.21095" lon="5.69289">
        <ele>214.96</ele>
        <time>2018-06-17T15:57:14Z</time>
      </trkpt>
      <trkpt lat="45.21089" lon="5.69327">
        <ele>215.02</ele>
        <time>2018-06-17T15:57:15Z</time>
      </trkpt>
      <trkpt lat="45.21083" lon="5.69363">
        <ele>215.04</ele>
        <time>2018-06-17T15:57:16Z</time>
      </trkpt>
      <trkpt lat="45.21077" lon="5.69398">
        <ele>215.05</ele>
        <time>2018-06-17T15:57:17Z</time>
      </trkpt>
      <trkpt lat="45.21071" lon="5.69434">
        <ele>214.35</ele>
        <time>2018-06-17T15:57:18Z</time>
      </trkpt>
      <trkpt lat="45.21064" lon="5.69469">
        <ele>214.14</ele>
        <time>2018-06-17T15:57:19Z</time>
      </trkpt>
      <trkpt lat="45.21059" lon="5.69505">
        <ele>214.78</ele>
        <time>2018-06-17T15:57:20Z</time>
      </trkpt>
      <trkpt lat="45.21052" lon="5.6954">
        <ele>214.27</ele>
        <time>2018-06-17T15:57:21Z</time>
      </trkpt>
      <trkpt lat="45.21045" lon="5.69575">
        <ele>214.11</ele>
        <time>2018-06-17T15:57:22Z</time>
      </trkpt>
      <trkpt lat="45.21037" lon="5.6961">
        <ele>214.07</ele>
        <time>2018-06-17T15:57:23Z</time>
      </trkpt>
      <trkpt lat="45.21029" lon="5.69645">
        <ele>214.75</ele>
        <time>2018-06-17T15:57:24Z</time>
      </trkpt>
      <trkpt lat="45.2102" lon="5.6968">
        <ele>214.96</ele>
        <time>2018-06-17T15:57:25Z</time>
      </trkpt>
      <trkpt lat="45.21011" lon="5.69714">
        <ele>215.72</ele>
        <time>2018-06-17T15:57:26Z</time>
      </trkpt>
      <trkpt lat="45.21002" lon="5.69748">
        <ele>215.25</ele>
        <time>2018-06-17T15:57:27Z</time>
      </trkpt>
      <trkpt lat="45.20993" lon="5.69783">
        <ele>215.81</ele>
        <time>2018-06-17T15:57:28Z</time>
      </trkpt>
      <trkpt lat="45.20983" lon="5.69818">
        <ele>215.98</ele>
        <time>2018-06-17T15:57:29Z</time>
      </trkpt>
      <trkpt lat="45.20974" lon="5.69853">
        <ele>216.03</ele>
        <time>2018-06-17T15:57:30Z</time>
      </trkpt>
      <trkpt lat="45.20964" lon="5.69887">
        <ele>216.74</ele>
        <time>2018-06-17T15:57:31Z</time>
      </trkpt>
      <trkpt lat="45.20953" lon="5.6992">
        <ele>216.96</ele>
        <time>2018-06-17T15:57:32Z</time>
      </trkpt>
      <trkpt lat="45.20943" lon="5.69952">
        <ele>217.72</ele>
        <time>2018-06-17T15:57:33Z</time>
      </trkpt>
      <trkpt lat="45.20931" lon="5.69984">
        <ele>217.95</ele>
        <time>2018-06-17T15:57:34Z</time>
      </trkpt>
      <trkpt lat="45.20919" lon="5.70016">
        <ele>218.02</ele>
        <time>2018-06-17T15:57:35Z</time>
      </trkpt>
      <trkpt lat="45.20907" lon="5.70048">
        <ele>218.74</ele>
        <time>2018-06-17T15:57:36Z</time>
      </trkpt>
      <trkpt lat="45.20895" lon="5.70081">
        <ele>218.96</ele>
        <time>2018-06-17T15:57:37Z</time>
      </trkpt>
      <trkpt lat="45.20883" lon="5.70113">
        <ele>219.72</ele>
        <time>2018-06-17T15:57:38Z</time>
      </trkpt>
      <trkpt lat="45.20871" lon="5.70146">
        <ele>219.95</ele>
        <time>2018-06-17T15:57:39Z</time>
      </trkpt>
      <trkpt lat="45.20859" lon="5.70178">
        <ele>220.72</ele>
        <time>2018-06-17T15:57:40Z</time>
      </trkpt>
      <trkpt lat="45.20847" lon="5.70209">
        <ele>220.95</ele>
        <time>2018-06-17T15:57:41Z</time>
      </trkpt>
      <trkpt lat="45.20835" lon="5.70239">
        <ele>221.72</ele>
        <time>2018-06-17T15:57:42Z</time>
      </trkpt>
      <trkpt lat="45.20822" lon="5.7027">
        <ele>221.95</ele>
        <time>2018-06-17T15:57:43Z</time>
      </trkpt>
      <trkpt lat="45.2081" lon="5.70301">
        <ele>222.72</ele>
        <time>2018-06-17T15:57:44Z</time>
      </trkpt>
      <trkpt lat="45.20798" lon="5.70332">
        <ele>222.95</ele>
        <time>2018-06-17T15:57:45Z</time>
      </trkpt>
      <trkpt lat="45.20785" lon="5.70363">
        <ele>223.72</ele>
        <time>2018-06-17T15:57:46Z</time>
      </trkpt>
      <trkpt lat="45.20773" lon="5.70394">
        <ele>224.65</ele>
        <time>2018-06-17T15:57:47Z</time>
      </trkpt>
      <trkpt lat="45.2076" lon="5.70425">
        <ele>224.93</ele>
        <time>2018-06-17T15:57:48Z</time>
      </trkpt>
      <trkpt lat="45.20748" lon="5.70456">
        <ele>225.71</ele>
        <time>2018-06-17T15:57:49Z</time>
      </trkpt>
      <trkpt lat="45.20735" lon="5.70487">
        <ele>225.95</ele>
        <time>2018-06-17T15:57:50Z</time>
      </trkpt>
      <trkpt lat="45.20723" lon="5.70518">
        <ele>226.02</ele>
        <time>2018-06-17T15:57:51Z</time>
      </trkpt>
      <trkpt lat="45.2071" lon="5.70548">
        <ele>226.04</ele>
        <time>2018-06-17T15:57:52Z</time>
      </trkpt>
      <trkpt lat="45.20698" lon="5.70579">
        <ele>226.05</ele>
        <time>2018-06-17T15:57:53Z</time>
      </trkpt>
      <trkpt lat="45.20685" lon="5.70609">
        <ele>226.75</ele>
        <time>2018-06-17T15:57:54Z</time>
      </trkpt>
      <trkpt lat="45.20672" lon="5.70639">
        <ele>226.96</ele>
        <time>2018-06-17T15:57:55Z</time>
      </trkpt>
      <trkpt lat="45.20659" lon="5.70668">
        <ele>227.02</ele>
        <time>2018-06-17T15:57:56Z</time>
      </trkpt>
      <trkpt lat="45.20647" lon="5.70697">
        <ele>227.04</ele>
        <time>2018-06-17T15:57:57Z</time>
      </trkpt>
      <trkpt lat="45.20636" lon="5.70725">
        <ele>227.05</ele>
        <time>2018-06-17T15:57:58Z</time>
      </trkpt>
      <trkpt lat="45.20625" lon="5.70753">
        <ele>227.05</ele>
        <time>2018-06-17T15:57:59Z</time>
      </trkpt>
      <trkpt lat="45.20615" lon="5.70781">
        <ele>226.35</ele>
        <time>2018-06-17T15:58:00Z</time>
      </trkpt>
      <trkpt lat="45.20605" lon="5.70808">
        <ele>225.44</ele>
        <time>2018-06-17T15:58:01Z</time>
      </trkpt>
      <trkpt lat="45.20595" lon="5.70836">
        <ele>225.17</ele>
        <time>2018-06-17T15:58:02Z</time>
      </trkpt>
      <trkpt lat="45.20585" lon="5.70865">
        <ele>224.38</ele>
        <time>2018-06-17T15:58:03Z</time>
      </trkpt>
      <trkpt lat="45.20575" lon="5.70894">
        <ele>224.15</ele>
        <time>2018-06-17T15:58:04Z</time>
      </trkpt>
      <trkpt lat="45.20566" lon="5.70923">
        <ele>223.38</ele>
        <time>2018-06-17T15:58:05Z</time>
      </trkpt>
      <trkpt lat="45.20556" lon="5.70951">
        <ele>222.45</ele>
        <time>2018-06-17T15:58:06Z</time>
      </trkpt>
      <trkpt lat="45.20546" lon="5.70979">
        <ele>221.47</ele>
        <time>2018-06-17T15:58:07Z</time>
      </trkpt>
      <trkpt lat="45.20537" lon="5.71007">
        <ele>220.47</ele>
        <time>2018-06-17T15:58:08Z</time>
      </trkpt>
      <trkpt lat="45.20527" lon="5.71034">
        <ele>220.18</ele>
        <time>2018-06-17T15:58:09Z</time>
      </trkpt>
      <trkpt lat="45.20517" lon="5.7106">
        <ele>219.39</ele>
        <time>2018-06-17T15:58:10Z</time>
      </trkpt>
      <trkpt lat="45.20506" lon="5.71085">
        <ele>219.15</ele>
        <time>2018-06-17T15:58:11Z</time>
      </trkpt>
      <trkpt lat="45.20494" lon="5.71109">
        <ele>219.08</ele>
        <time>2018-06-17T15:58:12Z</time>
      </trkpt>
      <trkpt lat="45.20482" lon="5.71131">
        <ele>219.06</ele>
        <time>2018-06-17T15:58:13Z</time>
      </trkpt>
      <trkpt lat="45.20468" lon="5.71153">
        <ele>219.05</ele>
        <time>2018-06-17T15:58:14Z</time>
      </trkpt>
      <trkpt lat="45.20454" lon="5.71174">
        <ele>219.05</ele>
        <time>2018-06-17T15:58:15Z</time>
      </trkpt>
      <trkpt lat="45.20439" lon="5.71194">
        <ele>219.05</ele>
        <time>2018-06-17T15:58:16Z</time>
      </trkpt>
      <trkpt lat="45.20424" lon="5.71215">
        <ele>219.05</ele>
        <time>2018-06-17T15:58:17Z</time>
      </trkpt>
      <trkpt lat="45.20409" lon="5.71235">
        <ele>219.05</ele>
        <time>2018-06-17T15:58:18Z</time>
      </trkpt>
      <trkpt lat="45.20394" lon="5.71255">
        <ele>219.05</ele>
        <time>2018-06-17T15:58:19Z</time>
      </trkpt>
      <trkpt lat="45.20379" lon="5.71274">
        <ele>219.05</ele>
        <time>2018-06-17T15:58:20Z</time>
      </trkpt>
      <trkpt lat="45.20364" lon="5.71293">
        <ele>219.05</ele>
        <time>2018-06-17T15:58:21Z</time>
      </trkpt>
      <trkpt lat="45.20349" lon="5.71312">
        <ele>219.05</ele>
        <time>2018-06-17T15:58:22Z</time>
      </trkpt>
      <trkpt lat="45.20334" lon="5.7133">
        <ele>219.05</ele>
        <time>2018-06-17T15:58:23Z</time>
      </trkpt>
      <trkpt lat="45.20319" lon="5.71348">
        <ele>219.05</ele>
        <time>2018-06-17T15:58:24Z</time>
      </trkpt>
      <trkpt lat="45.20304" lon="5.71367">
        <ele>219.75</ele>
        <time>2018-06-17T15:58:25Z</time>
      </trkpt>
      <trkpt lat="45.2029" lon="5.71386">
        <ele>219.96</ele>
        <time>2018-06-17T15:58:26Z</time>
      </trkpt>
      <trkpt lat="45.20275" lon="5.71404">
        <ele>220.02</ele>
        <time>2018-06-17T15:58:27Z</time>
      </trkpt>
      <trkpt lat="45.20261" lon="5.71423">
        <ele>220.04</ele>
        <time>2018-06-17T15:58:28Z</time>
      </trkpt>
      <trkpt lat="45.20246" lon="5.71442">
        <ele>219.35</ele>
        <time>2018-06-17T15:58:29Z</time>
      </trkpt>
      <trkpt lat="45.20232" lon="5.7146">
        <ele>219.84</ele>
        <time>2018-06-17T15:58:30Z</time>
      </trkpt>
      <trkpt lat="45.20218" lon="5.71479">
        <ele>219.29</ele>
        <time>2018-06-17T15:58:31Z</time>
      </trkpt>
      <trkpt lat="45.20203" lon="5.71496">
        <ele>219.12</ele>
        <time>2018-06-17T15:58:32Z</time>
      </trkpt>
      <trkpt lat="45.20188" lon="5.71514">
        <ele>219.07</ele>
        <time>2018-06-17T15:58:33Z</time>
      </trkpt>
      <trkpt lat="45.20172" lon="5.7153">
        <ele>219.76</ele>
        <time>2018-06-17T15:58:34Z</time>
      </trkpt>
      <trkpt lat="45.20156" lon="5.71546">
        <ele>219.96</ele>
        <time>2018-06-17T15:58:35Z</time>
      </trkpt>
      <trkpt lat="45.2014" lon="5.71561">
        <ele>220.02</ele>
        <time>2018-06-17T15:58:36Z</time>
      </trkpt>
      <trkpt lat="45.20122" lon="5.71575">
        <ele>220.04</ele>
        <time>2018-06-17T15:58:37Z</time>
      </trkpt>
      <trkpt lat="45.20105" lon="5.71589">
        <ele>220.05</ele>
        <time>2018-06-17T15:58:38Z</time>
      </trkpt>
      <trkpt lat="45.20087" lon="5.716">
        <ele>220.05</ele>
        <time>2018-06-17T15:58:39Z</time>
      </trkpt>
      <trkpt lat="45.20069" lon="5.71611">
        <ele>220.75</ele>
        <time>2018-06-17T15:58:40Z</time>
      </trkpt>
      <trkpt lat="45.20051" lon="5.7162">
        <ele>220.96</ele>
        <time>2018-06-17T15:58:41Z</time>
      </trkpt>
      <trkpt lat="45.20031" lon="5.71627">
        <ele>221.02</ele>
        <time>2018-06-17T15:58:42Z</time>
      </trkpt>
      <trkpt lat="45.20012" lon="5.71632">
        <ele>221.04</ele>
        <time>2018-06-17T15:58:43Z</time>
      </trkpt>
      <trkpt lat="45.19993" lon="5.71636">
        <ele>221.05</ele>
        <time>2018-06-17T15:58:44Z</time>
      </trkpt>
      <trkpt lat="45.19974" lon="5.71638">
        <ele>220.35</ele>
        <time>2018-06-17T15:58:45Z</time>
      </trkpt>
      <trkpt lat="45.19954" lon="5.71638">
        <ele>220.14</ele>
        <time>2018-06-17T15:58:46Z</time>
      </trkpt>
      <trkpt lat="45.19934" lon="5.71637">
        <ele>220.78</ele>
        <time>2018-06-17T15:58:47Z</time>
      </trkpt>
      <trkpt lat="45.19915" lon="5.71634">
        <ele>220.97</ele>
        <time>2018-06-17T15:58:48Z</time>
      </trkpt>
      <trkpt lat="45.19896" lon="5.71632">
        <ele>221.02</ele>
        <time>2018-06-17T15:58:49Z</time>
      </trkpt>
      <trkpt lat="45.19877" lon="5.71626">
        <ele>221.04</ele>
        <time>2018-06-17T15:58:50Z</time>
      </trkpt>
      <trkpt lat="45.1986" lon="5.71621">
        <ele>220.35</ele>
        <time>2018-06-17T15:58:51Z</time>
      </trkpt>
      <trkpt lat="45.19841" lon="5.71616">
        <ele>220.14</ele>
        <time>2018-06-17T15:58:52Z</time>
      </trkpt>
      <trkpt lat="45.19822" lon="5.7161">
        <ele>220.08</ele>
        <time>2018-06-17T15:58:53Z</time>
      </trkpt>
      <trkpt lat="45.19802" lon="5.71603">
        <ele>220.06</ele>
        <time>2018-06-17T15:58:54Z</time>
      </trkpt>
      <trkpt lat="45.19784" lon="5.71596">
        <ele>219.35</ele>
        <time>2018-06-17T15:58:55Z</time>
      </trkpt>
      <trkpt lat="45.19755" lon="5.71586">
        <ele>219.08</ele>
        <time>2018-06-17T15:58:57Z</time>
      </trkpt>
      <trkpt lat="45.19734" lon="5.71583">
        <ele>219.05</ele>
        <time>2018-06-17T15:58:59Z</time>
      </trkpt>
      <trkpt lat="45.19711" lon="5.71583">
        <ele>218.08</ele>
        <time>2018-06-17T15:59:02Z</time>
      </trkpt>
      <trkpt lat="45.19691" lon="5.7158">
        <ele>216.17</ele>
        <time>2018-06-17T15:59:05Z</time>
      </trkpt>
      <trkpt lat="45.19668" lon="5.71581">
        <ele>216.96</ele>
        <time>2018-06-17T15:59:08Z</time>
      </trkpt>
      <trkpt lat="45.19647" lon="5.71584">
        <ele>217.75</ele>
        <time>2018-06-17T15:59:11Z</time>
      </trkpt>
      <trkpt lat="45.19626" lon="5.71587">
        <ele>219.04</ele>
        <time>2018-06-17T15:59:15Z</time>
      </trkpt>
      <trkpt lat="45.19607" lon="5.71593">
        <ele>218.14</ele>
        <time>2018-06-17T15:59:18Z</time>
      </trkpt>
      <trkpt lat="45.19584" lon="5.716">
        <ele>218.05</ele>
        <time>2018-06-17T15:59:21Z</time>
      </trkpt>
      <trkpt lat="45.19562" lon="5.71609">
        <ele>217.35</ele>
        <time>2018-06-17T15:59:24Z</time>
      </trkpt>
      <trkpt lat="45.19543" lon="5.71619">
        <ele>217.06</ele>
        <time>2018-06-17T15:59:27Z</time>
      </trkpt>
      <trkpt lat="45.19525" lon="5.7163">
        <ele>216.35</ele>
        <time>2018-06-17T15:59:30Z</time>
      </trkpt>
      <trkpt lat="45.19504" lon="5.71642">
        <ele>216.88</ele>
        <time>2018-06-17T15:59:34Z</time>
      </trkpt>
      <trkpt lat="45.19487" lon="5.71655">
        <ele>218.02</ele>
        <time>2018-06-17T15:59:37Z</time>
      </trkpt>
      <trkpt lat="45.19471" lon="5.71669">
        <ele>218.75</ele>
        <time>2018-06-17T15:59:39Z</time>
      </trkpt>
      <trkpt lat="45.19451" lon="5.71691">
        <ele>218.13</ele>
        <time>2018-06-17T15:59:42Z</time>
      </trkpt>
      <trkpt lat="45.19431" lon="5.71711">
        <ele>219.02</ele>
        <time>2018-06-17T15:59:45Z</time>
      </trkpt>
      <trkpt lat="45.19417" lon="5.71731">
        <ele>217.38</ele>
        <time>2018-06-17T15:59:49Z</time>
      </trkpt>
      <trkpt lat="45.19403" lon="5.71752">
        <ele>216.34</ele>
        <time>2018-06-17T15:59:55Z</time>
      </trkpt>
      <trkpt lat="45.19392" lon="5.71776">
        <ele>219.26</ele>
        <time>2018-06-17T16:01:06Z</time>
      </trkpt>
      <trkpt lat="45.19383" lon="5.71802">
        <ele>219.96</ele>
        <time>2018-06-17T16:01:10Z</time>
      </trkpt>
      <trkpt lat="45.19376" lon="5.71831">
        <ele>220.03</ele>
        <time>2018-06-17T16:01:14Z</time>
      </trkpt>
      <trkpt lat="45.19368" lon="5.71856">
        <ele>219.29</ele>
        <time>2018-06-17T16:01:18Z</time>
      </trkpt>
      <trkpt lat="45.19363" lon="5.71885">
        <ele>219.35</ele>
        <time>2018-06-17T16:01:25Z</time>
      </trkpt>
      <trkpt lat="45.19373" lon="5.71908">
        <ele>219.06</ele>
        <time>2018-06-17T16:01:28Z</time>
      </trkpt>
      <trkpt lat="45.19395" lon="5.71913">
        <ele>219.05</ele>
        <time>2018-06-17T16:01:32Z</time>
      </trkpt>
      <trkpt lat="45.1942" lon="5.71914">
        <ele>218.35</ele>
        <time>2018-06-17T16:01:35Z</time>
      </trkpt>
      <trkpt lat="45.19439" lon="5.71915">
        <ele>218.08</ele>
        <time>2018-06-17T16:01:37Z</time>
      </trkpt>
      <trkpt lat="45.19463" lon="5.71913">
        <ele>218.75</ele>
        <time>2018-06-17T16:01:39Z</time>
      </trkpt>
      <trkpt lat="45.19496" lon="5.71913">
        <ele>218.32</ele>
        <time>2018-06-17T16:01:41Z</time>
      </trkpt>
      <trkpt lat="45.19528" lon="5.7191">
        <ele>219.68</ele>
        <time>2018-06-17T16:01:43Z</time>
      </trkpt>
      <trkpt lat="45.1956" lon="5.71906">
        <ele>220.02</ele>
        <time>2018-06-17T16:01:45Z</time>
      </trkpt>
      <trkpt lat="45.19592" lon="5.71898">
        <ele>219.35</ele>
        <time>2018-06-17T16:01:47Z</time>
      </trkpt>
      <trkpt lat="45.19622" lon="5.71889">
        <ele>218.38</ele>
        <time>2018-06-17T16:01:49Z</time>
      </trkpt>
      <trkpt lat="45.19652" lon="5.7188">
        <ele>218.08</ele>
        <time>2018-06-17T16:01:51Z</time>
      </trkpt>
      <trkpt lat="45.19683" lon="5.71871">
        <ele>217.84</ele>
        <time>2018-06-17T16:01:53Z</time>
      </trkpt>
      <trkpt lat="45.19715" lon="5.71861">
        <ele>218.03</ele>
        <time>2018-06-17T16:01:55Z</time>
      </trkpt>
      <trkpt lat="45.19747" lon="5.71854">
        <ele>217.35</ele>
        <time>2018-06-17T16:01:57Z</time>
      </trkpt>
      <trkpt lat="45.1978" lon="5.71845">
        <ele>216.38</ele>
        <time>2018-06-17T16:01:59Z</time>
      </trkpt>
      <trkpt lat="45.19813" lon="5.71836">
        <ele>216.29</ele>
        <time>2018-06-17T16:02:01Z</time>
      </trkpt>
      <trkpt lat="45.19846" lon="5.71826">
        <ele>216.77</ele>
        <time>2018-06-17T16:02:03Z</time>
      </trkpt>
      <trkpt lat="45.19879" lon="5.71815">
        <ele>216.81</ele>
        <time>2018-06-17T16:02:05Z</time>
      </trkpt>
      <trkpt lat="45.19913" lon="5.71805">
        <ele>217.03</ele>
        <time>2018-06-17T16:02:07Z</time>
      </trkpt>
      <trkpt lat="45.19946" lon="5.71794">
        <ele>216.14</ele>
        <time>2018-06-17T16:02:09Z</time>
      </trkpt>
      <trkpt lat="45.19981" lon="5.71785">
        <ele>216.97</ele>
        <time>2018-06-17T16:02:11Z</time>
      </trkpt>
      <trkpt lat="45.20015" lon="5.71779">
        <ele>217.74</ele>
        <time>2018-06-17T16:02:13Z</time>
      </trkpt>
      <trkpt lat="45.20045" lon="5.71773">
        <ele>218.72</ele>
        <time>2018-06-17T16:02:15Z</time>
      </trkpt>
      <trkpt lat="45.20072" lon="5.71763">
        <ele>221.54</ele>
        <time>2018-06-17T16:02:17Z</time>
      </trkpt>
      <trkpt lat="45.20092" lon="5.71741">
        <ele>222.91</ele>
        <time>2018-06-17T16:02:19Z</time>
      </trkpt>
      <trkpt lat="45.20109" lon="5.71727">
        <ele>224.7</ele>
        <time>2018-06-17T16:02:23Z</time>
      </trkpt>
      <trkpt lat="45.20094" lon="5.71752">
        <ele>225.04</ele>
        <time>2018-06-17T16:02:26Z</time>
      </trkpt>
      <trkpt lat="45.20077" lon="5.71771">
        <ele>226.99</ele>
        <time>2018-06-17T16:02:29Z</time>
      </trkpt>
      <trkpt lat="45.20075" lon="5.71799">
        <ele>230.92</ele>
        <time>2018-06-17T16:02:33Z</time>
      </trkpt>
      <trkpt lat="45.20096" lon="5.71796">
        <ele>232.95</ele>
        <time>2018-06-17T16:02:37Z</time>
      </trkpt>
      <trkpt lat="45.20113" lon="5.71786">
        <ele>233.26</ele>
        <time>2018-06-17T16:02:42Z</time>
      </trkpt>
    </trkseg>
  </trk>
</gpx>